<?xml version="1.0" encoding="UTF-8" standalone="no" ?>
<gpx xmlns="http://www.topografix.com/GPX/1/1" xmlns:xsi="http://www.w3.org/2001/XMLSchema-instance" xsi:schemaLocation="http://www.topografix.com/GPX/1/1 http://www.topografix.com/GPX/1/1/gpx.xsd" version="1.1" creator="VisuGPX - https://www.visugpx.com">
  <metadata>
    <name>Itinéraire prévu Norvège</name>
  </metadata>
  <trk>
    <name><![CDATA[6bis_Tromsø-Kiruna: 483km]]></name>
    <trkseg>
      <trkpt lat="69.66463" lon="18.95847">
        <ele>79.63904</ele>
        <time>2020-08-27T10:23:13.897Z</time>
      </trkpt>
      <trkpt lat="69.66539" lon="18.95893">
        <ele>79.63904</ele>
        <time>2020-08-27T10:23:39.034Z</time>
      </trkpt>
      <trkpt lat="69.66546" lon="18.95883">
        <ele>79.63904</ele>
        <time>2020-08-27T10:23:41.616Z</time>
      </trkpt>
      <trkpt lat="69.66552" lon="18.9583">
        <ele>80.690565</ele>
        <time>2020-08-27T10:23:48.378Z</time>
      </trkpt>
      <trkpt lat="69.66553" lon="18.95814">
        <ele>81.090331</ele>
        <time>2020-08-27T10:23:51.468Z</time>
      </trkpt>
      <trkpt lat="69.66554" lon="18.95798">
        <ele>81.488818</ele>
        <time>2020-08-27T10:23:53.947Z</time>
      </trkpt>
      <trkpt lat="69.66557" lon="18.95775">
        <ele>82.058574</ele>
        <time>2020-08-27T10:23:56.382Z</time>
      </trkpt>
      <trkpt lat="69.6656" lon="18.95743">
        <ele>82.868624</ele>
        <time>2020-08-27T10:24:00.461Z</time>
      </trkpt>
      <trkpt lat="69.66562" lon="18.95722">
        <ele>83.367691</ele>
        <time>2020-08-27T10:24:04.433Z</time>
      </trkpt>
      <trkpt lat="69.66563" lon="18.95681">
        <ele>84.362002</ele>
        <time>2020-08-27T10:24:10.830Z</time>
      </trkpt>
      <trkpt lat="69.66559" lon="18.95666">
        <ele>84.788714</ele>
        <time>2020-08-27T10:24:13.234Z</time>
      </trkpt>
      <trkpt lat="69.66515" lon="18.95629">
        <ele>87.969166</ele>
        <time>2020-08-27T10:24:32.880Z</time>
      </trkpt>
      <trkpt lat="69.66502" lon="18.95615">
        <ele>88.910614</ele>
        <time>2020-08-27T10:24:40.261Z</time>
      </trkpt>
      <trkpt lat="69.66478" lon="18.95589">
        <ele>90.675201</ele>
        <time>2020-08-27T10:24:50.649Z</time>
      </trkpt>
      <trkpt lat="69.66445" lon="18.95555">
        <ele>92.731841</ele>
        <time>2020-08-27T10:25:05.681Z</time>
      </trkpt>
      <trkpt lat="69.66424" lon="18.95534">
        <ele>93.724362</ele>
        <time>2020-08-27T10:25:13.913Z</time>
      </trkpt>
      <trkpt lat="69.66408" lon="18.95521">
        <ele>94.4646</ele>
        <time>2020-08-27T10:25:19.380Z</time>
      </trkpt>
      <trkpt lat="69.66385" lon="18.95506">
        <ele>95.522288</ele>
        <time>2020-08-27T10:25:27.264Z</time>
      </trkpt>
      <trkpt lat="69.66372" lon="18.95497">
        <ele>96.141035</ele>
        <time>2020-08-27T10:25:31.995Z</time>
      </trkpt>
      <trkpt lat="69.66355" lon="18.95486">
        <ele>96.898676</ele>
        <time>2020-08-27T10:25:37.672Z</time>
      </trkpt>
      <trkpt lat="69.66271" lon="18.95418">
        <ele>100.395296</ele>
        <time>2020-08-27T10:26:02.102Z</time>
      </trkpt>
      <trkpt lat="69.66223" lon="18.95271">
        <ele>101.745834</ele>
        <time>2020-08-27T10:26:18.947Z</time>
      </trkpt>
      <trkpt lat="69.66218" lon="18.95256">
        <ele>101.880633</ele>
        <time>2020-08-27T10:26:20.936Z</time>
      </trkpt>
      <trkpt lat="69.66214" lon="18.95247">
        <ele>101.97602</ele>
        <time>2020-08-27T10:26:22.411Z</time>
      </trkpt>
      <trkpt lat="69.66144" lon="18.95069">
        <ele>103.583709</ele>
        <time>2020-08-27T10:26:44.304Z</time>
      </trkpt>
      <trkpt lat="69.66128" lon="18.95025">
        <ele>103.687672</ele>
        <time>2020-08-27T10:26:50.121Z</time>
      </trkpt>
      <trkpt lat="69.66122" lon="18.95012">
        <ele>103.718659</ele>
        <time>2020-08-27T10:26:51.518Z</time>
      </trkpt>
      <trkpt lat="69.66086" lon="18.94865">
        <ele>104.003412</ele>
        <time>2020-08-27T10:27:04.902Z</time>
      </trkpt>
      <trkpt lat="69.66085" lon="18.94862">
        <ele>104.01059</ele>
        <time>2020-08-27T10:27:05.354Z</time>
      </trkpt>
      <trkpt lat="69.66075" lon="18.94824">
        <ele>104.085846</ele>
        <time>2020-08-27T10:27:08.227Z</time>
      </trkpt>
      <trkpt lat="69.66037" lon="18.94678">
        <ele>104.241215</ele>
        <time>2020-08-27T10:27:19.632Z</time>
      </trkpt>
      <trkpt lat="69.66031" lon="18.94671">
        <ele>104.126323</ele>
        <time>2020-08-27T10:27:20.556Z</time>
      </trkpt>
      <trkpt lat="69.66025" lon="18.94667">
        <ele>104.008274</ele>
        <time>2020-08-27T10:27:21.483Z</time>
      </trkpt>
      <trkpt lat="69.6601" lon="18.94674">
        <ele>103.700537</ele>
        <time>2020-08-27T10:27:23.974Z</time>
      </trkpt>
      <trkpt lat="69.66004" lon="18.94678">
        <ele>103.578973</ele>
        <time>2020-08-27T10:27:24.935Z</time>
      </trkpt>
      <trkpt lat="69.66005" lon="18.9466">
        <ele>103.458629</ele>
        <time>2020-08-27T10:27:25.925Z</time>
      </trkpt>
      <trkpt lat="69.66008" lon="18.94582">
        <ele>102.927401</ele>
        <time>2020-08-27T10:27:29.838Z</time>
      </trkpt>
      <trkpt lat="69.66009" lon="18.94557">
        <ele>102.761118</ele>
        <time>2020-08-27T10:27:31.195Z</time>
      </trkpt>
      <trkpt lat="69.66009" lon="18.94541">
        <ele>102.650137</ele>
        <time>2020-08-27T10:27:32.021Z</time>
      </trkpt>
      <trkpt lat="69.66019" lon="18.94423">
        <ele>101.834912</ele>
        <time>2020-08-27T10:27:38.163Z</time>
      </trkpt>
      <trkpt lat="69.66022" lon="18.94405">
        <ele>101.700123</ele>
        <time>2020-08-27T10:27:39.071Z</time>
      </trkpt>
      <trkpt lat="69.66025" lon="18.94391">
        <ele>101.596301</ele>
        <time>2020-08-27T10:27:39.786Z</time>
      </trkpt>
      <trkpt lat="69.66059" lon="18.94254">
        <ele>100.426568</ele>
        <time>2020-08-27T10:27:48.513Z</time>
      </trkpt>
      <trkpt lat="69.66063" lon="18.94238">
        <ele>100.271885</ele>
        <time>2020-08-27T10:27:49.450Z</time>
      </trkpt>
      <trkpt lat="69.66064" lon="18.94234">
        <ele>100.232324</ele>
        <time>2020-08-27T10:27:49.667Z</time>
      </trkpt>
      <trkpt lat="69.66101" lon="18.94096">
        <ele>98.933381</ele>
        <time>2020-08-27T10:27:58.488Z</time>
      </trkpt>
      <trkpt lat="69.66104" lon="18.9408">
        <ele>98.791695</ele>
        <time>2020-08-27T10:27:59.364Z</time>
      </trkpt>
      <trkpt lat="69.66108" lon="18.9406">
        <ele>98.624045</ele>
        <time>2020-08-27T10:28:00.378Z</time>
      </trkpt>
      <trkpt lat="69.66113" lon="18.94015">
        <ele>98.26331</ele>
        <time>2020-08-27T10:28:03.032Z</time>
      </trkpt>
      <trkpt lat="69.66114" lon="18.93939">
        <ele>97.696493</ele>
        <time>2020-08-27T10:28:06.959Z</time>
      </trkpt>
      <trkpt lat="69.66114" lon="18.9392">
        <ele>97.55398</ele>
        <time>2020-08-27T10:28:08.123Z</time>
      </trkpt>
      <trkpt lat="69.66114" lon="18.93909">
        <ele>97.470764</ele>
        <time>2020-08-27T10:28:08.675Z</time>
      </trkpt>
      <trkpt lat="69.66113" lon="18.93879">
        <ele>97.243673</ele>
        <time>2020-08-27T10:28:10.182Z</time>
      </trkpt>
      <trkpt lat="69.66111" lon="18.93856">
        <ele>97.071043</ele>
        <time>2020-08-27T10:28:11.355Z</time>
      </trkpt>
      <trkpt lat="69.6611" lon="18.93844">
        <ele>96.972587</ele>
        <time>2020-08-27T10:28:12.052Z</time>
      </trkpt>
      <trkpt lat="69.66108" lon="18.93824">
        <ele>96.799758</ele>
        <time>2020-08-27T10:28:13.291Z</time>
      </trkpt>
      <trkpt lat="69.66108" lon="18.93816">
        <ele>96.731536</ele>
        <time>2020-08-27T10:28:13.861Z</time>
      </trkpt>
      <trkpt lat="69.66107" lon="18.93804">
        <ele>96.628429</ele>
        <time>2020-08-27T10:28:14.677Z</time>
      </trkpt>
      <trkpt lat="69.66107" lon="18.93792">
        <ele>96.53059</ele>
        <time>2020-08-27T10:28:15.483Z</time>
      </trkpt>
      <trkpt lat="69.66106" lon="18.93758">
        <ele>96.247742</ele>
        <time>2020-08-27T10:28:17.934Z</time>
      </trkpt>
      <trkpt lat="69.66105" lon="18.93739">
        <ele>96.083962</ele>
        <time>2020-08-27T10:28:19.291Z</time>
      </trkpt>
      <trkpt lat="69.66105" lon="18.93731">
        <ele>96.018216</ele>
        <time>2020-08-27T10:28:19.867Z</time>
      </trkpt>
      <trkpt lat="69.66102" lon="18.93685">
        <ele>95.625399</ele>
        <time>2020-08-27T10:28:23.028Z</time>
      </trkpt>
      <trkpt lat="69.66102" lon="18.93672">
        <ele>95.511226</ele>
        <time>2020-08-27T10:28:23.959Z</time>
      </trkpt>
      <trkpt lat="69.66102" lon="18.9365">
        <ele>95.33398</ele>
        <time>2020-08-27T10:28:25.927Z</time>
      </trkpt>
      <trkpt lat="69.66105" lon="18.9361">
        <ele>94.993286</ele>
        <time>2020-08-27T10:28:29.533Z</time>
      </trkpt>
      <trkpt lat="69.66106" lon="18.93589">
        <ele>94.806584</ele>
        <time>2020-08-27T10:28:31.354Z</time>
      </trkpt>
      <trkpt lat="69.6611" lon="18.93559">
        <ele>94.546308</ele>
        <time>2020-08-27T10:28:34.210Z</time>
      </trkpt>
      <trkpt lat="69.66113" lon="18.93525">
        <ele>94.253718</ele>
        <time>2020-08-27T10:28:37.253Z</time>
      </trkpt>
      <trkpt lat="69.66118" lon="18.93494">
        <ele>93.965594</ele>
        <time>2020-08-27T10:28:39.999Z</time>
      </trkpt>
      <trkpt lat="69.66137" lon="18.93375">
        <ele>92.861578</ele>
        <time>2020-08-27T10:28:51.092Z</time>
      </trkpt>
      <trkpt lat="69.66151" lon="18.93257">
        <ele>90.94616</ele>
        <time>2020-08-27T10:29:01.123Z</time>
      </trkpt>
      <trkpt lat="69.66154" lon="18.93239">
        <ele>90.623211</ele>
        <time>2020-08-27T10:29:02.560Z</time>
      </trkpt>
      <trkpt lat="69.66156" lon="18.9322">
        <ele>90.281079</ele>
        <time>2020-08-27T10:29:04.072Z</time>
      </trkpt>
      <trkpt lat="69.66157" lon="18.93215">
        <ele>90.189844</ele>
        <time>2020-08-27T10:29:04.362Z</time>
      </trkpt>
      <trkpt lat="69.66165" lon="18.93165">
        <ele>89.255355</ele>
        <time>2020-08-27T10:29:07.887Z</time>
      </trkpt>
      <trkpt lat="69.66173" lon="18.93123">
        <ele>88.435128</ele>
        <time>2020-08-27T10:29:10.560Z</time>
      </trkpt>
      <trkpt lat="69.66176" lon="18.93121">
        <ele>88.311411</ele>
        <time>2020-08-27T10:29:10.894Z</time>
      </trkpt>
      <trkpt lat="69.66183" lon="18.93109">
        <ele>87.902826</ele>
        <time>2020-08-27T10:29:12.165Z</time>
      </trkpt>
      <trkpt lat="69.66186" lon="18.931">
        <ele>87.686089</ele>
        <time>2020-08-27T10:29:12.726Z</time>
      </trkpt>
      <trkpt lat="69.66188" lon="18.93094">
        <ele>87.548502</ele>
        <time>2020-08-27T10:29:13.079Z</time>
      </trkpt>
      <trkpt lat="69.6619" lon="18.9308">
        <ele>87.274547</ele>
        <time>2020-08-27T10:29:13.724Z</time>
      </trkpt>
      <trkpt lat="69.66194" lon="18.93002">
        <ele>85.951076</ele>
        <time>2020-08-27T10:29:17.316Z</time>
      </trkpt>
      <trkpt lat="69.66194" lon="18.9299">
        <ele>85.737502</ele>
        <time>2020-08-27T10:29:17.852Z</time>
      </trkpt>
      <trkpt lat="69.66197" lon="18.92989">
        <ele>85.566758</ele>
        <time>2020-08-27T10:29:18.274Z</time>
      </trkpt>
      <trkpt lat="69.66213" lon="18.92974">
        <ele>84.781441</ele>
        <time>2020-08-27T10:29:20.421Z</time>
      </trkpt>
      <trkpt lat="69.66228" lon="18.92924">
        <ele>83.524452</ele>
        <time>2020-08-27T10:29:23.623Z</time>
      </trkpt>
      <trkpt lat="69.66232" lon="18.92914">
        <ele>83.192233</ele>
        <time>2020-08-27T10:29:24.185Z</time>
      </trkpt>
      <trkpt lat="69.66234" lon="18.92906">
        <ele>82.916413</ele>
        <time>2020-08-27T10:29:24.936Z</time>
      </trkpt>
      <trkpt lat="69.66246" lon="18.92857">
        <ele>81.44385</ele>
        <time>2020-08-27T10:29:29.790Z</time>
      </trkpt>
      <trkpt lat="69.66246" lon="18.92847">
        <ele>81.191513</ele>
        <time>2020-08-27T10:29:30.481Z</time>
      </trkpt>
      <trkpt lat="69.6625" lon="18.92809">
        <ele>80.208729</ele>
        <time>2020-08-27T10:29:32.618Z</time>
      </trkpt>
      <trkpt lat="69.66252" lon="18.92781">
        <ele>79.503521</ele>
        <time>2020-08-27T10:29:34.580Z</time>
      </trkpt>
      <trkpt lat="69.66253" lon="18.92782">
        <ele>79.443247</ele>
        <time>2020-08-27T10:29:34.673Z</time>
      </trkpt>
      <trkpt lat="69.66292" lon="18.92801">
        <ele>76.60758</ele>
        <time>2020-08-27T10:29:39.451Z</time>
      </trkpt>
      <trkpt lat="69.66309" lon="18.92803">
        <ele>75.410499</ele>
        <time>2020-08-27T10:29:41.324Z</time>
      </trkpt>
      <trkpt lat="69.66311" lon="18.92803">
        <ele>75.260864</ele>
        <time>2020-08-27T10:29:41.573Z</time>
      </trkpt>
      <trkpt lat="69.66337" lon="18.92797">
        <ele>73.431686</ele>
        <time>2020-08-27T10:29:44.975Z</time>
      </trkpt>
      <trkpt lat="69.66339" lon="18.92795">
        <ele>73.261389</ele>
        <time>2020-08-27T10:29:45.238Z</time>
      </trkpt>
      <trkpt lat="69.66345" lon="18.92792">
        <ele>72.875989</ele>
        <time>2020-08-27T10:29:45.809Z</time>
      </trkpt>
      <trkpt lat="69.66405" lon="18.92748">
        <ele>67.729826</ele>
        <time>2020-08-27T10:29:53.327Z</time>
      </trkpt>
      <trkpt lat="69.6641" lon="18.92746">
        <ele>67.261048</ele>
        <time>2020-08-27T10:29:53.902Z</time>
      </trkpt>
      <trkpt lat="69.6641" lon="18.92742">
        <ele>67.114065</ele>
        <time>2020-08-27T10:29:54.069Z</time>
      </trkpt>
      <trkpt lat="69.66426" lon="18.92668">
        <ele>64.342438</ele>
        <time>2020-08-27T10:29:57.624Z</time>
      </trkpt>
      <trkpt lat="69.66485" lon="18.92558">
        <ele>57.939705</ele>
        <time>2020-08-27T10:30:05.379Z</time>
      </trkpt>
      <trkpt lat="69.66541" lon="18.92497">
        <ele>52.196467</ele>
        <time>2020-08-27T10:30:11.769Z</time>
      </trkpt>
      <trkpt lat="69.66624" lon="18.92441">
        <ele>43.536015</ele>
        <time>2020-08-27T10:30:21.129Z</time>
      </trkpt>
      <trkpt lat="69.6663" lon="18.9243">
        <ele>42.790964</ele>
        <time>2020-08-27T10:30:21.885Z</time>
      </trkpt>
      <trkpt lat="69.66632" lon="18.92427">
        <ele>42.5461</ele>
        <time>2020-08-27T10:30:22.218Z</time>
      </trkpt>
      <trkpt lat="69.66654" lon="18.92382">
        <ele>39.771272</ele>
        <time>2020-08-27T10:30:26.368Z</time>
      </trkpt>
      <trkpt lat="69.66767" lon="18.92314">
        <ele>29.471558</ele>
        <time>2020-08-27T10:30:43.510Z</time>
      </trkpt>
      <trkpt lat="69.6678" lon="18.92303">
        <ele>28.371972</ele>
        <time>2020-08-27T10:30:45.541Z</time>
      </trkpt>
      <trkpt lat="69.6679" lon="18.92291">
        <ele>27.40614</ele>
        <time>2020-08-27T10:30:47.316Z</time>
      </trkpt>
      <trkpt lat="69.66816" lon="18.9224">
        <ele>24.827103</ele>
        <time>2020-08-27T10:30:52.377Z</time>
      </trkpt>
      <trkpt lat="69.66822" lon="18.92222">
        <ele>24.078478</ele>
        <time>2020-08-27T10:30:53.730Z</time>
      </trkpt>
      <trkpt lat="69.66826" lon="18.92207">
        <ele>23.542102</ele>
        <time>2020-08-27T10:30:54.865Z</time>
      </trkpt>
      <trkpt lat="69.66829" lon="18.92193">
        <ele>23.061034</ele>
        <time>2020-08-27T10:30:55.824Z</time>
      </trkpt>
      <trkpt lat="69.66832" lon="18.92177">
        <ele>22.522477</ele>
        <time>2020-08-27T10:30:56.821Z</time>
      </trkpt>
      <trkpt lat="69.66834" lon="18.92156">
        <ele>21.878498</ele>
        <time>2020-08-27T10:30:58.050Z</time>
      </trkpt>
      <trkpt lat="69.66837" lon="18.92136">
        <ele>21.256718</ele>
        <time>2020-08-27T10:30:59.173Z</time>
      </trkpt>
      <trkpt lat="69.66895" lon="18.92221">
        <ele>17.946404</ele>
        <time>2020-08-27T10:31:09.695Z</time>
      </trkpt>
      <trkpt lat="69.669" lon="18.92228">
        <ele>17.654037</ele>
        <time>2020-08-27T10:31:10.831Z</time>
      </trkpt>
      <trkpt lat="69.66927" lon="18.92188">
        <ele>16.113722</ele>
        <time>2020-08-27T10:31:17.782Z</time>
      </trkpt>
      <trkpt lat="69.66944" lon="18.92147">
        <ele>15.000144</ele>
        <time>2020-08-27T10:31:22.842Z</time>
      </trkpt>
      <trkpt lat="69.66956" lon="18.92123">
        <ele>14.265494</ele>
        <time>2020-08-27T10:31:25.969Z</time>
      </trkpt>
      <trkpt lat="69.66957" lon="18.92127">
        <ele>14.163114</ele>
        <time>2020-08-27T10:31:26.225Z</time>
      </trkpt>
      <trkpt lat="69.66959" lon="18.92132">
        <ele>14.018241</ele>
        <time>2020-08-27T10:31:28.220Z</time>
      </trkpt>
      <trkpt lat="69.66962" lon="18.92138">
        <ele>13.850618</ele>
        <time>2020-08-27T10:31:30.571Z</time>
      </trkpt>
      <trkpt lat="69.66963" lon="18.92142">
        <ele>13.752391</ele>
        <time>2020-08-27T10:31:30.902Z</time>
      </trkpt>
      <trkpt lat="69.66965" lon="18.9215">
        <ele>13.60321</ele>
        <time>2020-08-27T10:31:32.933Z</time>
      </trkpt>
      <trkpt lat="69.66971" lon="18.92145">
        <ele>13.276201</ele>
        <time>2020-08-27T10:31:33.819Z</time>
      </trkpt>
      <trkpt lat="69.66982" lon="18.92139">
        <ele>12.711912</ele>
        <time>2020-08-27T10:31:35.146Z</time>
      </trkpt>
      <trkpt lat="69.66988" lon="18.92145">
        <ele>12.403413</ele>
        <time>2020-08-27T10:31:35.970Z</time>
      </trkpt>
      <trkpt lat="69.66992" lon="18.92154">
        <ele>12.131144</ele>
        <time>2020-08-27T10:31:36.648Z</time>
      </trkpt>
      <trkpt lat="69.66996" lon="18.92166">
        <ele>11.91991</ele>
        <time>2020-08-27T10:31:37.416Z</time>
      </trkpt>
      <trkpt lat="69.66998" lon="18.92163">
        <ele>11.835875</ele>
        <time>2020-08-27T10:31:39.053Z</time>
      </trkpt>
      <trkpt lat="69.67" lon="18.9216">
        <ele>11.751841</ele>
        <time>2020-08-27T10:31:40.678Z</time>
      </trkpt>
      <trkpt lat="69.67002" lon="18.92157">
        <ele>11.660736</ele>
        <time>2020-08-27T10:31:42.416Z</time>
      </trkpt>
      <trkpt lat="69.67004" lon="18.92153">
        <ele>11.556706</ele>
        <time>2020-08-27T10:31:44.445Z</time>
      </trkpt>
      <trkpt lat="69.67008" lon="18.92148">
        <ele>11.417796</ele>
        <time>2020-08-27T10:31:44.960Z</time>
      </trkpt>
      <trkpt lat="69.67007" lon="18.92138">
        <ele>11.297992</ele>
        <time>2020-08-27T10:31:45.334Z</time>
      </trkpt>
      <trkpt lat="69.6701" lon="18.92098">
        <ele>10.778439</ele>
        <time>2020-08-27T10:31:47.203Z</time>
      </trkpt>
      <trkpt lat="69.6702" lon="18.92067">
        <ele>10.238271</ele>
        <time>2020-08-27T10:31:49.326Z</time>
      </trkpt>
      <trkpt lat="69.67097" lon="18.91933">
        <ele>7.014813</ele>
        <time>2020-08-27T10:32:01.382Z</time>
      </trkpt>
      <trkpt lat="69.67101" lon="18.91926">
        <ele>6.835334</ele>
        <time>2020-08-27T10:32:01.989Z</time>
      </trkpt>
      <trkpt lat="69.67112" lon="18.91906">
        <ele>6.350043</ele>
        <time>2020-08-27T10:32:03.936Z</time>
      </trkpt>
      <trkpt lat="69.67124" lon="18.9189">
        <ele>5.891906</ele>
        <time>2020-08-27T10:32:05.625Z</time>
      </trkpt>
      <trkpt lat="69.67131" lon="18.91883">
        <ele>5.610653</ele>
        <time>2020-08-27T10:32:06.620Z</time>
      </trkpt>
      <trkpt lat="69.67166" lon="18.91859">
        <ele>4.796379</ele>
        <time>2020-08-27T10:32:11.613Z</time>
      </trkpt>
      <trkpt lat="69.67173" lon="18.91854">
        <ele>4.619379</ele>
        <time>2020-08-27T10:32:12.647Z</time>
      </trkpt>
      <trkpt lat="69.67182" lon="18.91847">
        <ele>4.411379</ele>
        <time>2020-08-27T10:32:13.996Z</time>
      </trkpt>
      <trkpt lat="69.67213" lon="18.91825">
        <ele>3.6887</ele>
        <time>2020-08-27T10:32:18.456Z</time>
      </trkpt>
      <trkpt lat="69.67217" lon="18.91822">
        <ele>3.599276</ele>
        <time>2020-08-27T10:32:19.051Z</time>
      </trkpt>
      <trkpt lat="69.67222" lon="18.91819">
        <ele>3.476448</ele>
        <time>2020-08-27T10:32:19.924Z</time>
      </trkpt>
      <trkpt lat="69.67226" lon="18.91817">
        <ele>3.381105</ele>
        <time>2020-08-27T10:32:20.603Z</time>
      </trkpt>
      <trkpt lat="69.67226" lon="18.918">
        <ele>3.247312</ele>
        <time>2020-08-27T10:32:21.443Z</time>
      </trkpt>
      <trkpt lat="69.67221" lon="18.91661">
        <ele>2.138005</ele>
        <time>2020-08-27T10:32:28.570Z</time>
      </trkpt>
      <trkpt lat="69.6722" lon="18.91642">
        <ele>1.985252</ele>
        <time>2020-08-27T10:32:29.607Z</time>
      </trkpt>
      <trkpt lat="69.67215" lon="18.91474">
        <ele>1.245868</ele>
        <time>2020-08-27T10:32:38.905Z</time>
      </trkpt>
      <trkpt lat="69.67201" lon="18.91288">
        <ele>0.804578</ele>
        <time>2020-08-27T10:32:49.822Z</time>
      </trkpt>
      <trkpt lat="69.672" lon="18.91279">
        <ele>0.782341</ele>
        <time>2020-08-27T10:32:50.355Z</time>
      </trkpt>
      <trkpt lat="69.67203" lon="18.91211">
        <ele>0.623113</ele>
        <time>2020-08-27T10:32:54.530Z</time>
      </trkpt>
      <trkpt lat="69.67215" lon="18.91077">
        <ele>0.302388</ele>
        <time>2020-08-27T10:33:03.382Z</time>
      </trkpt>
      <trkpt lat="69.67225" lon="18.91014">
        <ele>0.289462</ele>
        <time>2020-08-27T10:33:07.924Z</time>
      </trkpt>
      <trkpt lat="69.67229" lon="18.90998">
        <ele>0.289134</ele>
        <time>2020-08-27T10:33:09.241Z</time>
      </trkpt>
      <trkpt lat="69.67274" lon="18.90852">
        <ele>0.285843</ele>
        <time>2020-08-27T10:33:21.858Z</time>
      </trkpt>
      <trkpt lat="69.67319" lon="18.90779">
        <ele>0.283364</ele>
        <time>2020-08-27T10:33:31.395Z</time>
      </trkpt>
      <trkpt lat="69.67359" lon="18.90749">
        <ele>0.277813</ele>
        <time>2020-08-27T10:33:39.140Z</time>
      </trkpt>
      <trkpt lat="69.67456" lon="18.90734">
        <ele>0.240468</ele>
        <time>2020-08-27T10:33:56.921Z</time>
      </trkpt>
      <trkpt lat="69.67517" lon="18.90698">
        <ele>0.216376</ele>
        <time>2020-08-27T10:34:08.527Z</time>
      </trkpt>
      <trkpt lat="69.67562" lon="18.90642">
        <ele>0.263282</ele>
        <time>2020-08-27T10:34:17.783Z</time>
      </trkpt>
      <trkpt lat="69.67671" lon="18.90462">
        <ele>0.428005</ele>
        <time>2020-08-27T10:34:41.729Z</time>
      </trkpt>
      <trkpt lat="69.67682" lon="18.90446">
        <ele>0.443728</ele>
        <time>2020-08-27T10:34:44.107Z</time>
      </trkpt>
      <trkpt lat="69.67685" lon="18.90441">
        <ele>0.447865</ele>
        <time>2020-08-27T10:34:44.663Z</time>
      </trkpt>
      <trkpt lat="69.67805" lon="18.90285">
        <ele>0.763966</ele>
        <time>2020-08-27T10:35:10.239Z</time>
      </trkpt>
      <trkpt lat="69.67863" lon="18.90253">
        <ele>0.898658</ele>
        <time>2020-08-27T10:35:21.587Z</time>
      </trkpt>
      <trkpt lat="69.67866" lon="18.90252">
        <ele>0.904129</ele>
        <time>2020-08-27T10:35:22.262Z</time>
      </trkpt>
      <trkpt lat="69.67868" lon="18.9025">
        <ele>0.908849</ele>
        <time>2020-08-27T10:35:22.763Z</time>
      </trkpt>
      <trkpt lat="69.6787" lon="18.90248">
        <ele>0.911959</ele>
        <time>2020-08-27T10:35:23.115Z</time>
      </trkpt>
      <trkpt lat="69.67875" lon="18.9024">
        <ele>0.921948</ele>
        <time>2020-08-27T10:35:27.033Z</time>
      </trkpt>
      <trkpt lat="69.67882" lon="18.90231">
        <ele>0.936024</ele>
        <time>2020-08-27T10:35:32.660Z</time>
      </trkpt>
      <trkpt lat="69.67886" lon="18.90227">
        <ele>0.942327</ele>
        <time>2020-08-27T10:35:35.147Z</time>
      </trkpt>
      <trkpt lat="69.67887" lon="18.90226">
        <ele>0.944184</ele>
        <time>2020-08-27T10:35:35.397Z</time>
      </trkpt>
      <trkpt lat="69.6791" lon="18.90146">
        <ele>1.00734</ele>
        <time>2020-08-27T10:35:42.038Z</time>
      </trkpt>
      <trkpt lat="69.67936" lon="18.90112">
        <ele>1.058113</ele>
        <time>2020-08-27T10:35:47.328Z</time>
      </trkpt>
      <trkpt lat="69.67987" lon="18.90093">
        <ele>1.147945</ele>
        <time>2020-08-27T10:35:56.725Z</time>
      </trkpt>
      <trkpt lat="69.68036" lon="18.9011">
        <ele>1.235093</ele>
        <time>2020-08-27T10:36:05.735Z</time>
      </trkpt>
      <trkpt lat="69.68178" lon="18.90202">
        <ele>1.492062</ele>
        <time>2020-08-27T10:36:32.374Z</time>
      </trkpt>
      <trkpt lat="69.6824" lon="18.90255">
        <ele>1.724141</ele>
        <time>2020-08-27T10:36:44.867Z</time>
      </trkpt>
      <trkpt lat="69.68287" lon="18.90339">
        <ele>1.944457</ele>
        <time>2020-08-27T10:36:55.565Z</time>
      </trkpt>
      <trkpt lat="69.68336" lon="18.90499">
        <ele>2.2272</ele>
        <time>2020-08-27T10:37:09.761Z</time>
      </trkpt>
      <trkpt lat="69.6834" lon="18.9051">
        <ele>2.220926</ele>
        <time>2020-08-27T10:37:10.940Z</time>
      </trkpt>
      <trkpt lat="69.68342" lon="18.90515">
        <ele>2.217067</ele>
        <time>2020-08-27T10:37:13.157Z</time>
      </trkpt>
      <trkpt lat="69.68348" lon="18.90524">
        <ele>2.209153</ele>
        <time>2020-08-27T10:37:17.799Z</time>
      </trkpt>
      <trkpt lat="69.68351" lon="18.9053">
        <ele>2.204902</ele>
        <time>2020-08-27T10:37:20.259Z</time>
      </trkpt>
      <trkpt lat="69.68353" lon="18.90533">
        <ele>2.202351</ele>
        <time>2020-08-27T10:37:20.674Z</time>
      </trkpt>
      <trkpt lat="69.68457" lon="18.90721">
        <ele>2.054994</ele>
        <time>2020-08-27T10:37:42.288Z</time>
      </trkpt>
      <trkpt lat="69.68522" lon="18.90814">
        <ele>1.842519</ele>
        <time>2020-08-27T10:37:54.198Z</time>
      </trkpt>
      <trkpt lat="69.68525" lon="18.90819">
        <ele>1.826259</ele>
        <time>2020-08-27T10:37:54.697Z</time>
      </trkpt>
      <trkpt lat="69.68549" lon="18.90842">
        <ele>1.716277</ele>
        <time>2020-08-27T10:37:58.855Z</time>
      </trkpt>
      <trkpt lat="69.6861" lon="18.90888">
        <ele>1.433999</ele>
        <time>2020-08-27T10:38:09.282Z</time>
      </trkpt>
      <trkpt lat="69.68657" lon="18.90906">
        <ele>1.225833</ele>
        <time>2020-08-27T10:38:17.113Z</time>
      </trkpt>
      <trkpt lat="69.68701" lon="18.90908">
        <ele>1.112045</ele>
        <time>2020-08-27T10:38:24.675Z</time>
      </trkpt>
      <trkpt lat="69.68729" lon="18.90888">
        <ele>1.041569</ele>
        <time>2020-08-27T10:38:29.735Z</time>
      </trkpt>
      <trkpt lat="69.68737" lon="18.90887">
        <ele>1.024282</ele>
        <time>2020-08-27T10:38:30.971Z</time>
      </trkpt>
      <trkpt lat="69.68743" lon="18.90885">
        <ele>1.007905</ele>
        <time>2020-08-27T10:38:32.211Z</time>
      </trkpt>
      <trkpt lat="69.68816" lon="18.90843">
        <ele>0.827442</ele>
        <time>2020-08-27T10:38:45.618Z</time>
      </trkpt>
      <trkpt lat="69.68879" lon="18.90772">
        <ele>0.685422</ele>
        <time>2020-08-27T10:38:57.703Z</time>
      </trkpt>
      <trkpt lat="69.68935" lon="18.90676">
        <ele>0.555847</ele>
        <time>2020-08-27T10:39:09.456Z</time>
      </trkpt>
      <trkpt lat="69.68996" lon="18.90532">
        <ele>0.411483</ele>
        <time>2020-08-27T10:39:23.618Z</time>
      </trkpt>
      <trkpt lat="69.69316" lon="18.89698">
        <ele>0.048992</ele>
        <time>2020-08-27T10:40:42.786Z</time>
      </trkpt>
      <trkpt lat="69.69392" lon="18.89481">
        <ele>0.027643</ele>
        <time>2020-08-27T10:41:02.681Z</time>
      </trkpt>
      <trkpt lat="69.69459" lon="18.89234">
        <ele>0.148307</ele>
        <time>2020-08-27T10:41:23.158Z</time>
      </trkpt>
      <trkpt lat="69.69495" lon="18.89069">
        <ele>0.230429</ele>
        <time>2020-08-27T10:41:36.276Z</time>
      </trkpt>
      <trkpt lat="69.69527" lon="18.88887">
        <ele>0.379813</ele>
        <time>2020-08-27T10:41:49.790Z</time>
      </trkpt>
      <trkpt lat="69.69534" lon="18.88839">
        <ele>0.418268</ele>
        <time>2020-08-27T10:41:53.287Z</time>
      </trkpt>
      <trkpt lat="69.69537" lon="18.88822">
        <ele>0.431523</ele>
        <time>2020-08-27T10:41:54.574Z</time>
      </trkpt>
      <trkpt lat="69.69565" lon="18.88646">
        <ele>0.573208</ele>
        <time>2020-08-27T10:42:07.215Z</time>
      </trkpt>
      <trkpt lat="69.6957" lon="18.88624">
        <ele>0.592471</ele>
        <time>2020-08-27T10:42:08.966Z</time>
      </trkpt>
      <trkpt lat="69.69573" lon="18.88608">
        <ele>0.638951</ele>
        <time>2020-08-27T10:42:10.081Z</time>
      </trkpt>
      <trkpt lat="69.69595" lon="18.88438">
        <ele>1.170783</ele>
        <time>2020-08-27T10:42:23.169Z</time>
      </trkpt>
      <trkpt lat="69.69604" lon="18.88412">
        <ele>1.281234</ele>
        <time>2020-08-27T10:42:25.604Z</time>
      </trkpt>
      <trkpt lat="69.69625" lon="18.88411">
        <ele>1.4598</ele>
        <time>2020-08-27T10:42:30.214Z</time>
      </trkpt>
      <trkpt lat="69.69627" lon="18.88403">
        <ele>1.486537</ele>
        <time>2020-08-27T10:42:30.795Z</time>
      </trkpt>
      <trkpt lat="69.69628" lon="18.88392">
        <ele>1.518992</ele>
        <time>2020-08-27T10:42:33.498Z</time>
      </trkpt>
      <trkpt lat="69.6963" lon="18.88376">
        <ele>1.568095</ele>
        <time>2020-08-27T10:42:37.528Z</time>
      </trkpt>
      <trkpt lat="69.69631" lon="18.88368">
        <ele>1.593907</ele>
        <time>2020-08-27T10:42:38.242Z</time>
      </trkpt>
      <trkpt lat="69.69629" lon="18.88363">
        <ele>1.61548</ele>
        <time>2020-08-27T10:42:38.917Z</time>
      </trkpt>
      <trkpt lat="69.69628" lon="18.88326">
        <ele>1.724031</ele>
        <time>2020-08-27T10:42:41.654Z</time>
      </trkpt>
      <trkpt lat="69.69615" lon="18.88285">
        <ele>1.889246</ele>
        <time>2020-08-27T10:42:45.897Z</time>
      </trkpt>
      <trkpt lat="69.69611" lon="18.88273">
        <ele>1.939323</ele>
        <time>2020-08-27T10:42:47.285Z</time>
      </trkpt>
      <trkpt lat="69.69609" lon="18.88268">
        <ele>1.958071</ele>
        <time>2020-08-27T10:42:47.989Z</time>
      </trkpt>
      <trkpt lat="69.69593" lon="18.88207">
        <ele>2.263692</ele>
        <time>2020-08-27T10:42:53.827Z</time>
      </trkpt>
      <trkpt lat="69.6959" lon="18.88197">
        <ele>2.341496</ele>
        <time>2020-08-27T10:42:54.972Z</time>
      </trkpt>
      <trkpt lat="69.69587" lon="18.88182">
        <ele>2.446535</ele>
        <time>2020-08-27T10:42:56.409Z</time>
      </trkpt>
      <trkpt lat="69.69585" lon="18.88169">
        <ele>2.547389</ele>
        <time>2020-08-27T10:42:57.546Z</time>
      </trkpt>
      <trkpt lat="69.69582" lon="18.88153">
        <ele>2.65351</ele>
        <time>2020-08-27T10:42:58.838Z</time>
      </trkpt>
      <trkpt lat="69.69575" lon="18.88109">
        <ele>2.958541</ele>
        <time>2020-08-27T10:43:02.838Z</time>
      </trkpt>
      <trkpt lat="69.69561" lon="18.88094">
        <ele>3.230987</ele>
        <time>2020-08-27T10:43:06.368Z</time>
      </trkpt>
      <trkpt lat="69.69559" lon="18.88092">
        <ele>3.271612</ele>
        <time>2020-08-27T10:43:06.792Z</time>
      </trkpt>
      <trkpt lat="69.69557" lon="18.88086">
        <ele>3.323746</ele>
        <time>2020-08-27T10:43:07.700Z</time>
      </trkpt>
      <trkpt lat="69.69545" lon="18.88041">
        <ele>3.688014</ele>
        <time>2020-08-27T10:43:12.650Z</time>
      </trkpt>
      <trkpt lat="69.69537" lon="18.88006">
        <ele>3.942827</ele>
        <time>2020-08-27T10:43:16.218Z</time>
      </trkpt>
      <trkpt lat="69.69535" lon="18.87993">
        <ele>4.037332</ele>
        <time>2020-08-27T10:43:18.016Z</time>
      </trkpt>
      <trkpt lat="69.69456" lon="18.87712">
        <ele>5.922627</ele>
        <time>2020-08-27T10:43:48.284Z</time>
      </trkpt>
      <trkpt lat="69.69441" lon="18.87662">
        <ele>6.156983</ele>
        <time>2020-08-27T10:43:53.900Z</time>
      </trkpt>
      <trkpt lat="69.69436" lon="18.87642">
        <ele>6.24722</ele>
        <time>2020-08-27T10:43:55.647Z</time>
      </trkpt>
      <trkpt lat="69.69419" lon="18.87585">
        <ele>6.520983</ele>
        <time>2020-08-27T10:44:01.267Z</time>
      </trkpt>
      <trkpt lat="69.69387" lon="18.87476">
        <ele>7.040255</ele>
        <time>2020-08-27T10:44:11.334Z</time>
      </trkpt>
      <trkpt lat="69.69372" lon="18.87427">
        <ele>7.261511</ele>
        <time>2020-08-27T10:44:15.879Z</time>
      </trkpt>
      <trkpt lat="69.69266" lon="18.87065">
        <ele>7.220299</ele>
        <time>2020-08-27T10:44:46.120Z</time>
      </trkpt>
      <trkpt lat="69.69262" lon="18.87051">
        <ele>7.218659</ele>
        <time>2020-08-27T10:44:47.260Z</time>
      </trkpt>
      <trkpt lat="69.69256" lon="18.87034">
        <ele>7.216642</ele>
        <time>2020-08-27T10:44:48.705Z</time>
      </trkpt>
      <trkpt lat="69.69178" lon="18.86765">
        <ele>7.115052</ele>
        <time>2020-08-27T10:45:10.567Z</time>
      </trkpt>
      <trkpt lat="69.6917" lon="18.86706">
        <ele>7.096625</ele>
        <time>2020-08-27T10:45:14.539Z</time>
      </trkpt>
      <trkpt lat="69.69168" lon="18.86697">
        <ele>7.093598</ele>
        <time>2020-08-27T10:45:15.234Z</time>
      </trkpt>
      <trkpt lat="69.69165" lon="18.86686">
        <ele>7.089462</ele>
        <time>2020-08-27T10:45:16.084Z</time>
      </trkpt>
      <trkpt lat="69.69163" lon="18.8668">
        <ele>7.087354</ele>
        <time>2020-08-27T10:45:17.834Z</time>
      </trkpt>
      <trkpt lat="69.69163" lon="18.8668">
        <ele>7.087161</ele>
        <time>2020-08-27T10:45:18.050Z</time>
      </trkpt>
      <trkpt lat="69.69169" lon="18.86664">
        <ele>7.080668</ele>
        <time>2020-08-27T10:45:19.533Z</time>
      </trkpt>
      <trkpt lat="69.69171" lon="18.86652">
        <ele>7.076703</ele>
        <time>2020-08-27T10:45:20.801Z</time>
      </trkpt>
      <trkpt lat="69.69167" lon="18.86654">
        <ele>7.073554</ele>
        <time>2020-08-27T10:45:21.399Z</time>
      </trkpt>
      <trkpt lat="69.6916" lon="18.86663">
        <ele>7.067218</ele>
        <time>2020-08-27T10:45:22.790Z</time>
      </trkpt>
      <trkpt lat="69.69159" lon="18.86657">
        <ele>7.079829</ele>
        <time>2020-08-27T10:45:24.346Z</time>
      </trkpt>
      <trkpt lat="69.69155" lon="18.86652">
        <ele>7.102654</ele>
        <time>2020-08-27T10:45:25.070Z</time>
      </trkpt>
      <trkpt lat="69.69154" lon="18.8665">
        <ele>7.111997</ele>
        <time>2020-08-27T10:45:25.367Z</time>
      </trkpt>
      <trkpt lat="69.69153" lon="18.86649">
        <ele>7.117322</ele>
        <time>2020-08-27T10:45:25.516Z</time>
      </trkpt>
      <trkpt lat="69.69145" lon="18.86644">
        <ele>7.163131</ele>
        <time>2020-08-27T10:45:27.278Z</time>
      </trkpt>
      <trkpt lat="69.69132" lon="18.86619">
        <ele>7.249423</ele>
        <time>2020-08-27T10:45:30.324Z</time>
      </trkpt>
      <trkpt lat="69.69124" lon="18.86584">
        <ele>7.335016</ele>
        <time>2020-08-27T10:45:33.177Z</time>
      </trkpt>
      <trkpt lat="69.69116" lon="18.86556">
        <ele>7.403912</ele>
        <time>2020-08-27T10:45:36.008Z</time>
      </trkpt>
      <trkpt lat="69.69098" lon="18.86492">
        <ele>7.566458</ele>
        <time>2020-08-27T10:45:41.623Z</time>
      </trkpt>
      <trkpt lat="69.69074" lon="18.86407">
        <ele>7.782014</ele>
        <time>2020-08-27T10:45:49.486Z</time>
      </trkpt>
      <trkpt lat="69.69073" lon="18.86403">
        <ele>7.79195</ele>
        <time>2020-08-27T10:45:49.980Z</time>
      </trkpt>
      <trkpt lat="69.69071" lon="18.86397">
        <ele>7.807511</ele>
        <time>2020-08-27T10:45:50.701Z</time>
      </trkpt>
      <trkpt lat="69.69065" lon="18.86377">
        <ele>7.85785</ele>
        <time>2020-08-27T10:45:52.322Z</time>
      </trkpt>
      <trkpt lat="69.69062" lon="18.86366">
        <ele>7.886948</ele>
        <time>2020-08-27T10:45:53.425Z</time>
      </trkpt>
      <trkpt lat="69.69055" lon="18.86346">
        <ele>7.940468</ele>
        <time>2020-08-27T10:45:55.160Z</time>
      </trkpt>
      <trkpt lat="69.69053" lon="18.8634">
        <ele>7.956404</ele>
        <time>2020-08-27T10:45:55.862Z</time>
      </trkpt>
      <trkpt lat="69.6902" lon="18.86223">
        <ele>8.179168</ele>
        <time>2020-08-27T10:46:07.193Z</time>
      </trkpt>
      <trkpt lat="69.69017" lon="18.86215">
        <ele>8.19199</ele>
        <time>2020-08-27T10:46:08.218Z</time>
      </trkpt>
      <trkpt lat="69.69012" lon="18.86194">
        <ele>8.221664</ele>
        <time>2020-08-27T10:46:10.223Z</time>
      </trkpt>
      <trkpt lat="69.69008" lon="18.86179">
        <ele>8.242387</ele>
        <time>2020-08-27T10:46:11.759Z</time>
      </trkpt>
      <trkpt lat="69.68977" lon="18.86074">
        <ele>8.394058</ele>
        <time>2020-08-27T10:46:21.958Z</time>
      </trkpt>
      <trkpt lat="69.68973" lon="18.86059">
        <ele>8.415454</ele>
        <time>2020-08-27T10:46:23.442Z</time>
      </trkpt>
      <trkpt lat="69.68968" lon="18.86044">
        <ele>8.437509</ele>
        <time>2020-08-27T10:46:24.977Z</time>
      </trkpt>
      <trkpt lat="69.68873" lon="18.85717">
        <ele>7.491806</ele>
        <time>2020-08-27T10:46:50.213Z</time>
      </trkpt>
      <trkpt lat="69.6887" lon="18.85678">
        <ele>7.291456</ele>
        <time>2020-08-27T10:46:52.106Z</time>
      </trkpt>
      <trkpt lat="69.68869" lon="18.85674">
        <ele>7.266054</ele>
        <time>2020-08-27T10:46:52.351Z</time>
      </trkpt>
      <trkpt lat="69.68868" lon="18.85671">
        <ele>7.236428</ele>
        <time>2020-08-27T10:46:53.766Z</time>
      </trkpt>
      <trkpt lat="69.68868" lon="18.85669">
        <ele>7.227199</ele>
        <time>2020-08-27T10:46:53.949Z</time>
      </trkpt>
      <trkpt lat="69.68871" lon="18.85659">
        <ele>7.160212</ele>
        <time>2020-08-27T10:46:54.696Z</time>
      </trkpt>
      <trkpt lat="69.68874" lon="18.8564">
        <ele>7.049836</ele>
        <time>2020-08-27T10:46:55.967Z</time>
      </trkpt>
      <trkpt lat="69.68869" lon="18.85648">
        <ele>6.95488</ele>
        <time>2020-08-27T10:46:56.938Z</time>
      </trkpt>
      <trkpt lat="69.68864" lon="18.85655">
        <ele>6.882211</ele>
        <time>2020-08-27T10:46:57.680Z</time>
      </trkpt>
      <trkpt lat="69.68863" lon="18.85649">
        <ele>6.847675</ele>
        <time>2020-08-27T10:46:59.318Z</time>
      </trkpt>
      <trkpt lat="69.68862" lon="18.85646">
        <ele>6.826714</ele>
        <time>2020-08-27T10:46:59.470Z</time>
      </trkpt>
      <trkpt lat="69.68844" lon="18.85617">
        <ele>6.521513</ele>
        <time>2020-08-27T10:47:02.776Z</time>
      </trkpt>
      <trkpt lat="69.68718" lon="18.85182">
        <ele>2.432086</ele>
        <time>2020-08-27T10:47:31.011Z</time>
      </trkpt>
      <trkpt lat="69.68716" lon="18.85173">
        <ele>2.350058</ele>
        <time>2020-08-27T10:47:31.514Z</time>
      </trkpt>
      <trkpt lat="69.68697" lon="18.85106">
        <ele>1.901654</ele>
        <time>2020-08-27T10:47:36.288Z</time>
      </trkpt>
      <trkpt lat="69.68641" lon="18.84911">
        <ele>1.1211</ele>
        <time>2020-08-27T10:47:50.528Z</time>
      </trkpt>
      <trkpt lat="69.68626" lon="18.84862">
        <ele>0.922582</ele>
        <time>2020-08-27T10:47:54.274Z</time>
      </trkpt>
      <trkpt lat="69.6862" lon="18.84839">
        <ele>0.830222</ele>
        <time>2020-08-27T10:47:56.015Z</time>
      </trkpt>
      <trkpt lat="69.68557" lon="18.84618">
        <ele>0.41023</ele>
        <time>2020-08-27T10:48:13.839Z</time>
      </trkpt>
      <trkpt lat="69.68551" lon="18.84591">
        <ele>0.402002</ele>
        <time>2020-08-27T10:48:15.968Z</time>
      </trkpt>
      <trkpt lat="69.68545" lon="18.84557">
        <ele>0.392519</ele>
        <time>2020-08-27T10:48:18.303Z</time>
      </trkpt>
      <trkpt lat="69.68541" lon="18.84525">
        <ele>0.383912</ele>
        <time>2020-08-27T10:48:20.550Z</time>
      </trkpt>
      <trkpt lat="69.68538" lon="18.84496">
        <ele>0.376155</ele>
        <time>2020-08-27T10:48:22.602Z</time>
      </trkpt>
      <trkpt lat="69.6853" lon="18.84413">
        <ele>0.354719</ele>
        <time>2020-08-27T10:48:28.219Z</time>
      </trkpt>
      <trkpt lat="69.68508" lon="18.84156">
        <ele>0.320232</ele>
        <time>2020-08-27T10:48:45.367Z</time>
      </trkpt>
      <trkpt lat="69.68504" lon="18.84109">
        <ele>0.320147</ele>
        <time>2020-08-27T10:48:48.511Z</time>
      </trkpt>
      <trkpt lat="69.68495" lon="18.84007">
        <ele>0.319959</ele>
        <time>2020-08-27T10:48:55.403Z</time>
      </trkpt>
      <trkpt lat="69.68447" lon="18.83437">
        <ele>0.240321</ele>
        <time>2020-08-27T10:49:32.759Z</time>
      </trkpt>
      <trkpt lat="69.68446" lon="18.83424">
        <ele>0.237524</ele>
        <time>2020-08-27T10:49:33.491Z</time>
      </trkpt>
      <trkpt lat="69.68444" lon="18.83398">
        <ele>0.231462</ele>
        <time>2020-08-27T10:49:35.205Z</time>
      </trkpt>
      <trkpt lat="69.68441" lon="18.83347">
        <ele>0.219874</ele>
        <time>2020-08-27T10:49:38.539Z</time>
      </trkpt>
      <trkpt lat="69.68441" lon="18.83343">
        <ele>0.218941</ele>
        <time>2020-08-27T10:49:38.810Z</time>
      </trkpt>
      <trkpt lat="69.68437" lon="18.83233">
        <ele>0.215252</ele>
        <time>2020-08-27T10:49:45.968Z</time>
      </trkpt>
      <trkpt lat="69.68435" lon="18.83152">
        <ele>0.240727</ele>
        <time>2020-08-27T10:49:51.202Z</time>
      </trkpt>
      <trkpt lat="69.68431" lon="18.8298">
        <ele>0.294734</ele>
        <time>2020-08-27T10:50:02.391Z</time>
      </trkpt>
      <trkpt lat="69.68429" lon="18.82905">
        <ele>0.318395</ele>
        <time>2020-08-27T10:50:07.421Z</time>
      </trkpt>
      <trkpt lat="69.68418" lon="18.82516">
        <ele>0.61988</ele>
        <time>2020-08-27T10:50:33.871Z</time>
      </trkpt>
      <trkpt lat="69.68416" lon="18.8243">
        <ele>0.710628</ele>
        <time>2020-08-27T10:50:39.747Z</time>
      </trkpt>
      <trkpt lat="69.68412" lon="18.82258">
        <ele>0.892946</ele>
        <time>2020-08-27T10:50:51.436Z</time>
      </trkpt>
      <trkpt lat="69.68411" lon="18.82216">
        <ele>0.92926</ele>
        <time>2020-08-27T10:50:54.483Z</time>
      </trkpt>
      <trkpt lat="69.68392" lon="18.81459">
        <ele>1.171982</ele>
        <time>2020-08-27T10:51:44.934Z</time>
      </trkpt>
      <trkpt lat="69.68396" lon="18.8142">
        <ele>1.158125</ele>
        <time>2020-08-27T10:51:47.256Z</time>
      </trkpt>
      <trkpt lat="69.68396" lon="18.81412">
        <ele>1.155586</ele>
        <time>2020-08-27T10:51:47.726Z</time>
      </trkpt>
      <trkpt lat="69.68396" lon="18.81405">
        <ele>1.153147</ele>
        <time>2020-08-27T10:51:49.477Z</time>
      </trkpt>
      <trkpt lat="69.68407" lon="18.81395">
        <ele>1.141521</ele>
        <time>2020-08-27T10:51:51.916Z</time>
      </trkpt>
      <trkpt lat="69.68395" lon="18.81388">
        <ele>1.129534</ele>
        <time>2020-08-27T10:51:53.825Z</time>
      </trkpt>
      <trkpt lat="69.68395" lon="18.81381">
        <ele>1.127321</ele>
        <time>2020-08-27T10:51:55.399Z</time>
      </trkpt>
      <trkpt lat="69.68394" lon="18.81377">
        <ele>1.125655</ele>
        <time>2020-08-27T10:51:55.708Z</time>
      </trkpt>
      <trkpt lat="69.68394" lon="18.81371">
        <ele>1.123692</ele>
        <time>2020-08-27T10:51:55.991Z</time>
      </trkpt>
      <trkpt lat="69.68388" lon="18.8133">
        <ele>1.108641</ele>
        <time>2020-08-27T10:51:59.048Z</time>
      </trkpt>
      <trkpt lat="69.68372" lon="18.80705">
        <ele>0.429344</ele>
        <time>2020-08-27T10:52:36.788Z</time>
      </trkpt>
      <trkpt lat="69.68379" lon="18.80158">
        <ele>0.397346</ele>
        <time>2020-08-27T10:53:12.513Z</time>
      </trkpt>
      <trkpt lat="69.68379" lon="18.80144">
        <ele>0.400656</ele>
        <time>2020-08-27T10:53:13.471Z</time>
      </trkpt>
      <trkpt lat="69.68379" lon="18.80135">
        <ele>0.402686</ele>
        <time>2020-08-27T10:53:14.044Z</time>
      </trkpt>
      <trkpt lat="69.6838" lon="18.80126">
        <ele>0.404852</ele>
        <time>2020-08-27T10:53:16.325Z</time>
      </trkpt>
      <trkpt lat="69.6838" lon="18.80107">
        <ele>0.409204</ele>
        <time>2020-08-27T10:53:20.875Z</time>
      </trkpt>
      <trkpt lat="69.68381" lon="18.80098">
        <ele>0.411325</ele>
        <time>2020-08-27T10:53:23.085Z</time>
      </trkpt>
      <trkpt lat="69.68381" lon="18.80089">
        <ele>0.413582</ele>
        <time>2020-08-27T10:53:23.821Z</time>
      </trkpt>
      <trkpt lat="69.68382" lon="18.79981">
        <ele>0.438396</ele>
        <time>2020-08-27T10:53:30.880Z</time>
      </trkpt>
      <trkpt lat="69.68377" lon="18.79892">
        <ele>0.459326</ele>
        <time>2020-08-27T10:53:36.770Z</time>
      </trkpt>
      <trkpt lat="69.68372" lon="18.79817">
        <ele>0.477218</ele>
        <time>2020-08-27T10:53:41.956Z</time>
      </trkpt>
      <trkpt lat="69.68369" lon="18.79786">
        <ele>0.484477</ele>
        <time>2020-08-27T10:53:44.008Z</time>
      </trkpt>
      <trkpt lat="69.68365" lon="18.79742">
        <ele>0.49494</ele>
        <time>2020-08-27T10:53:47.003Z</time>
      </trkpt>
      <trkpt lat="69.68364" lon="18.79717">
        <ele>0.500842</ele>
        <time>2020-08-27T10:53:48.688Z</time>
      </trkpt>
      <trkpt lat="69.68358" lon="18.79667">
        <ele>0.506044</ele>
        <time>2020-08-27T10:53:52.074Z</time>
      </trkpt>
      <trkpt lat="69.68347" lon="18.7957">
        <ele>0.516105</ele>
        <time>2020-08-27T10:53:58.616Z</time>
      </trkpt>
      <trkpt lat="69.68314" lon="18.79369">
        <ele>0.537845</ele>
        <time>2020-08-27T10:54:12.806Z</time>
      </trkpt>
      <trkpt lat="69.68311" lon="18.79351">
        <ele>0.539823</ele>
        <time>2020-08-27T10:54:14.132Z</time>
      </trkpt>
      <trkpt lat="69.68307" lon="18.79325">
        <ele>0.542639</ele>
        <time>2020-08-27T10:54:15.899Z</time>
      </trkpt>
      <trkpt lat="69.6829" lon="18.79225">
        <ele>0.56684</ele>
        <time>2020-08-27T10:54:23.194Z</time>
      </trkpt>
      <trkpt lat="69.68286" lon="18.79202">
        <ele>0.58672</ele>
        <time>2020-08-27T10:54:24.994Z</time>
      </trkpt>
      <trkpt lat="69.68208" lon="18.78739">
        <ele>0.941441</ele>
        <time>2020-08-27T10:54:59.811Z</time>
      </trkpt>
      <trkpt lat="69.68206" lon="18.78662">
        <ele>0.912835</ele>
        <time>2020-08-27T10:55:04.701Z</time>
      </trkpt>
      <trkpt lat="69.68205" lon="18.78656">
        <ele>0.910537</ele>
        <time>2020-08-27T10:55:05.188Z</time>
      </trkpt>
      <trkpt lat="69.68204" lon="18.7865">
        <ele>0.908161</ele>
        <time>2020-08-27T10:55:06.757Z</time>
      </trkpt>
      <trkpt lat="69.68202" lon="18.78636">
        <ele>0.902221</ele>
        <time>2020-08-27T10:55:10.674Z</time>
      </trkpt>
      <trkpt lat="69.68201" lon="18.7863">
        <ele>0.899828</ele>
        <time>2020-08-27T10:55:12.260Z</time>
      </trkpt>
      <trkpt lat="69.68197" lon="18.78613">
        <ele>0.892566</ele>
        <time>2020-08-27T10:55:13.410Z</time>
      </trkpt>
      <trkpt lat="69.68183" lon="18.78581">
        <ele>0.873199</ele>
        <time>2020-08-27T10:55:16.857Z</time>
      </trkpt>
      <trkpt lat="69.68149" lon="18.78391">
        <ele>0.794669</ele>
        <time>2020-08-27T10:55:30.358Z</time>
      </trkpt>
      <trkpt lat="69.68145" lon="18.78374">
        <ele>0.787345</ele>
        <time>2020-08-27T10:55:31.564Z</time>
      </trkpt>
      <trkpt lat="69.68138" lon="18.78346">
        <ele>0.774655</ele>
        <time>2020-08-27T10:55:33.630Z</time>
      </trkpt>
      <trkpt lat="69.68131" lon="18.78321">
        <ele>0.766765</ele>
        <time>2020-08-27T10:55:35.718Z</time>
      </trkpt>
      <trkpt lat="69.68125" lon="18.78298">
        <ele>0.768681</ele>
        <time>2020-08-27T10:55:37.555Z</time>
      </trkpt>
      <trkpt lat="69.68113" lon="18.78259">
        <ele>0.772024</ele>
        <time>2020-08-27T10:55:40.632Z</time>
      </trkpt>
      <trkpt lat="69.68097" lon="18.78202">
        <ele>0.776957</ele>
        <time>2020-08-27T10:55:45.258Z</time>
      </trkpt>
      <trkpt lat="69.68089" lon="18.78176">
        <ele>0.779165</ele>
        <time>2020-08-27T10:55:47.489Z</time>
      </trkpt>
      <trkpt lat="69.68087" lon="18.78169">
        <ele>0.779763</ele>
        <time>2020-08-27T10:55:48.127Z</time>
      </trkpt>
      <trkpt lat="69.68078" lon="18.78142">
        <ele>0.782195</ele>
        <time>2020-08-27T10:55:50.390Z</time>
      </trkpt>
      <trkpt lat="69.68073" lon="18.78125">
        <ele>0.783672</ele>
        <time>2020-08-27T10:55:51.804Z</time>
      </trkpt>
      <trkpt lat="69.68049" lon="18.78047">
        <ele>0.790558</ele>
        <time>2020-08-27T10:55:58.569Z</time>
      </trkpt>
      <trkpt lat="69.68" lon="18.77894">
        <ele>0.94415</ele>
        <time>2020-08-27T10:56:12.785Z</time>
      </trkpt>
      <trkpt lat="69.67993" lon="18.77867">
        <ele>1.025138</ele>
        <time>2020-08-27T10:56:15.214Z</time>
      </trkpt>
      <trkpt lat="69.67977" lon="18.77814">
        <ele>1.193962</ele>
        <time>2020-08-27T10:56:20.112Z</time>
      </trkpt>
      <trkpt lat="69.67892" lon="18.7754">
        <ele>2.088844</ele>
        <time>2020-08-27T10:56:46.794Z</time>
      </trkpt>
      <trkpt lat="69.67846" lon="18.77423">
        <ele>2.801574</ele>
        <time>2020-08-27T10:57:00.544Z</time>
      </trkpt>
      <trkpt lat="69.67843" lon="18.77414">
        <ele>2.851408</ele>
        <time>2020-08-27T10:57:01.560Z</time>
      </trkpt>
      <trkpt lat="69.67841" lon="18.77408">
        <ele>2.886227</ele>
        <time>2020-08-27T10:57:02.194Z</time>
      </trkpt>
      <trkpt lat="69.67836" lon="18.774">
        <ele>2.947664</ele>
        <time>2020-08-27T10:57:03.329Z</time>
      </trkpt>
      <trkpt lat="69.6783" lon="18.77389">
        <ele>3.031201</ele>
        <time>2020-08-27T10:57:05.185Z</time>
      </trkpt>
      <trkpt lat="69.6772" lon="18.77148">
        <ele>4.228688</ele>
        <time>2020-08-27T10:57:36.223Z</time>
      </trkpt>
      <trkpt lat="69.67698" lon="18.77069">
        <ele>4.317324</ele>
        <time>2020-08-27T10:57:43.507Z</time>
      </trkpt>
      <trkpt lat="69.67696" lon="18.77064">
        <ele>4.323845</ele>
        <time>2020-08-27T10:57:44.636Z</time>
      </trkpt>
      <trkpt lat="69.67694" lon="18.77059">
        <ele>4.330008</ele>
        <time>2020-08-27T10:57:44.951Z</time>
      </trkpt>
      <trkpt lat="69.67659" lon="18.77009">
        <ele>4.426983</ele>
        <time>2020-08-27T10:57:52.219Z</time>
      </trkpt>
      <trkpt lat="69.6756" lon="18.76788">
        <ele>4.313606</ele>
        <time>2020-08-27T10:58:13.621Z</time>
      </trkpt>
      <trkpt lat="69.67526" lon="18.76698">
        <ele>4.145979</ele>
        <time>2020-08-27T10:58:21.290Z</time>
      </trkpt>
      <trkpt lat="69.67504" lon="18.7661">
        <ele>4.008641</ele>
        <time>2020-08-27T10:58:27.850Z</time>
      </trkpt>
      <trkpt lat="69.67433" lon="18.76082">
        <ele>4.721446</ele>
        <time>2020-08-27T10:59:07.210Z</time>
      </trkpt>
      <trkpt lat="69.67428" lon="18.75947">
        <ele>5.019088</ele>
        <time>2020-08-27T10:59:17.354Z</time>
      </trkpt>
      <trkpt lat="69.67433" lon="18.7584">
        <ele>5.270697</ele>
        <time>2020-08-27T10:59:25.545Z</time>
      </trkpt>
      <trkpt lat="69.67434" lon="18.7583">
        <ele>5.29627</ele>
        <time>2020-08-27T10:59:26.540Z</time>
      </trkpt>
      <trkpt lat="69.67435" lon="18.75817">
        <ele>5.327588</ele>
        <time>2020-08-27T10:59:27.619Z</time>
      </trkpt>
      <trkpt lat="69.67454" lon="18.75707">
        <ele>5.611766</ele>
        <time>2020-08-27T10:59:36.542Z</time>
      </trkpt>
      <trkpt lat="69.67491" lon="18.75544">
        <ele>5.948126</ele>
        <time>2020-08-27T10:59:49.996Z</time>
      </trkpt>
      <trkpt lat="69.67493" lon="18.75533">
        <ele>5.939628</ele>
        <time>2020-08-27T10:59:51.099Z</time>
      </trkpt>
      <trkpt lat="69.67496" lon="18.75521">
        <ele>5.930671</ele>
        <time>2020-08-27T10:59:51.936Z</time>
      </trkpt>
      <trkpt lat="69.67515" lon="18.7543">
        <ele>5.863301</ele>
        <time>2020-08-27T10:59:58.903Z</time>
      </trkpt>
      <trkpt lat="69.67519" lon="18.75415">
        <ele>5.851909</ele>
        <time>2020-08-27T10:59:59.932Z</time>
      </trkpt>
      <trkpt lat="69.67525" lon="18.7539">
        <ele>5.83261</ele>
        <time>2020-08-27T11:00:01.686Z</time>
      </trkpt>
      <trkpt lat="69.67573" lon="18.75195">
        <ele>5.681029</ele>
        <time>2020-08-27T11:00:16.495Z</time>
      </trkpt>
      <trkpt lat="69.67581" lon="18.75171">
        <ele>5.659744</ele>
        <time>2020-08-27T11:00:18.507Z</time>
      </trkpt>
      <trkpt lat="69.67586" lon="18.75157">
        <ele>5.647637</ele>
        <time>2020-08-27T11:00:19.536Z</time>
      </trkpt>
      <trkpt lat="69.67637" lon="18.7505">
        <ele>4.989357</ele>
        <time>2020-08-27T11:00:30.531Z</time>
      </trkpt>
      <trkpt lat="69.67649" lon="18.75032">
        <ele>4.844573</ele>
        <time>2020-08-27T11:00:32.524Z</time>
      </trkpt>
      <trkpt lat="69.67657" lon="18.75019">
        <ele>4.743964</ele>
        <time>2020-08-27T11:00:34.311Z</time>
      </trkpt>
      <trkpt lat="69.67673" lon="18.75001">
        <ele>4.565939</ele>
        <time>2020-08-27T11:00:37.129Z</time>
      </trkpt>
      <trkpt lat="69.67676" lon="18.74996">
        <ele>4.528117</ele>
        <time>2020-08-27T11:00:37.660Z</time>
      </trkpt>
      <trkpt lat="69.67678" lon="18.74992">
        <ele>4.498341</ele>
        <time>2020-08-27T11:00:38.018Z</time>
      </trkpt>
      <trkpt lat="69.6772" lon="18.74885">
        <ele>3.907078</ele>
        <time>2020-08-27T11:00:46.695Z</time>
      </trkpt>
      <trkpt lat="69.67724" lon="18.74871">
        <ele>3.839605</ele>
        <time>2020-08-27T11:00:47.686Z</time>
      </trkpt>
      <trkpt lat="69.67727" lon="18.74859">
        <ele>3.783692</ele>
        <time>2020-08-27T11:00:48.628Z</time>
      </trkpt>
      <trkpt lat="69.67733" lon="18.74824">
        <ele>3.669696</ele>
        <time>2020-08-27T11:00:50.618Z</time>
      </trkpt>
      <trkpt lat="69.67734" lon="18.74807">
        <ele>3.625536</ele>
        <time>2020-08-27T11:00:51.667Z</time>
      </trkpt>
      <trkpt lat="69.67734" lon="18.74798">
        <ele>3.601313</ele>
        <time>2020-08-27T11:00:53.874Z</time>
      </trkpt>
      <trkpt lat="69.67734" lon="18.74786">
        <ele>3.568871</ele>
        <time>2020-08-27T11:00:56.849Z</time>
      </trkpt>
      <trkpt lat="69.67733" lon="18.74775">
        <ele>3.540046</ele>
        <time>2020-08-27T11:00:59.491Z</time>
      </trkpt>
      <trkpt lat="69.67733" lon="18.74769">
        <ele>3.524391</ele>
        <time>2020-08-27T11:01:00.938Z</time>
      </trkpt>
      <trkpt lat="69.67733" lon="18.74759">
        <ele>3.496495</ele>
        <time>2020-08-27T11:01:01.593Z</time>
      </trkpt>
      <trkpt lat="69.67732" lon="18.74742">
        <ele>3.451714</ele>
        <time>2020-08-27T11:01:02.369Z</time>
      </trkpt>
      <trkpt lat="69.67725" lon="18.74685">
        <ele>3.290765</ele>
        <time>2020-08-27T11:01:05.783Z</time>
      </trkpt>
      <trkpt lat="69.67709" lon="18.74618">
        <ele>3.076689</ele>
        <time>2020-08-27T11:01:10.242Z</time>
      </trkpt>
      <trkpt lat="69.67701" lon="18.74608">
        <ele>3.010161</ele>
        <time>2020-08-27T11:01:11.531Z</time>
      </trkpt>
      <trkpt lat="69.67697" lon="18.74604">
        <ele>2.982727</ele>
        <time>2020-08-27T11:01:12.403Z</time>
      </trkpt>
      <trkpt lat="69.67647" lon="18.74569">
        <ele>2.586595</ele>
        <time>2020-08-27T11:01:20.949Z</time>
      </trkpt>
      <trkpt lat="69.67641" lon="18.74563">
        <ele>2.541161</ele>
        <time>2020-08-27T11:01:22.038Z</time>
      </trkpt>
      <trkpt lat="69.67629" lon="18.74554">
        <ele>2.450475</ele>
        <time>2020-08-27T11:01:23.933Z</time>
      </trkpt>
      <trkpt lat="69.67569" lon="18.74509">
        <ele>3.611183</ele>
        <time>2020-08-27T11:01:38.528Z</time>
      </trkpt>
      <trkpt lat="69.67563" lon="18.74506">
        <ele>3.746946</ele>
        <time>2020-08-27T11:01:39.394Z</time>
      </trkpt>
      <trkpt lat="69.67557" lon="18.74502">
        <ele>3.909463</ele>
        <time>2020-08-27T11:01:41.970Z</time>
      </trkpt>
      <trkpt lat="69.67492" lon="18.74448">
        <ele>5.51079</ele>
        <time>2020-08-27T11:01:59.963Z</time>
      </trkpt>
      <trkpt lat="69.67489" lon="18.74445">
        <ele>5.586776</ele>
        <time>2020-08-27T11:02:01.412Z</time>
      </trkpt>
      <trkpt lat="69.67486" lon="18.74442">
        <ele>5.652423</ele>
        <time>2020-08-27T11:02:02.826Z</time>
      </trkpt>
      <trkpt lat="69.67451" lon="18.74414">
        <ele>6.53211</ele>
        <time>2020-08-27T11:02:13.276Z</time>
      </trkpt>
      <trkpt lat="69.67449" lon="18.74414">
        <ele>6.574862</ele>
        <time>2020-08-27T11:02:14.450Z</time>
      </trkpt>
      <trkpt lat="69.67437" lon="18.74416">
        <ele>6.923307</ele>
        <time>2020-08-27T11:02:17.052Z</time>
      </trkpt>
      <trkpt lat="69.67418" lon="18.74414">
        <ele>7.547078</ele>
        <time>2020-08-27T11:02:22.543Z</time>
      </trkpt>
      <trkpt lat="69.67414" lon="18.74411">
        <ele>7.690753</ele>
        <time>2020-08-27T11:02:24.740Z</time>
      </trkpt>
      <trkpt lat="69.67412" lon="18.7441">
        <ele>7.757591</ele>
        <time>2020-08-27T11:02:25.624Z</time>
      </trkpt>
      <trkpt lat="69.67298" lon="18.74427">
        <ele>11.44853</ele>
        <time>2020-08-27T11:02:59.146Z</time>
      </trkpt>
      <trkpt lat="69.67288" lon="18.7443">
        <ele>11.771244</ele>
        <time>2020-08-27T11:03:01.702Z</time>
      </trkpt>
      <trkpt lat="69.67247" lon="18.74438">
        <ele>13.018577</ele>
        <time>2020-08-27T11:03:12.446Z</time>
      </trkpt>
      <trkpt lat="69.67187" lon="18.74466">
        <ele>14.700978</ele>
        <time>2020-08-27T11:03:28.361Z</time>
      </trkpt>
      <trkpt lat="69.67078" lon="18.74559">
        <ele>17.744176</ele>
        <time>2020-08-27T11:04:00.635Z</time>
      </trkpt>
      <trkpt lat="69.67051" lon="18.74584">
        <ele>18.30188</ele>
        <time>2020-08-27T11:04:08.397Z</time>
      </trkpt>
      <trkpt lat="69.67034" lon="18.74599">
        <ele>18.651985</ele>
        <time>2020-08-27T11:04:13.303Z</time>
      </trkpt>
      <trkpt lat="69.66997" lon="18.74629">
        <ele>19.394002</ele>
        <time>2020-08-27T11:04:22.901Z</time>
      </trkpt>
      <trkpt lat="69.66973" lon="18.74652">
        <ele>19.88283</ele>
        <time>2020-08-27T11:04:29.125Z</time>
      </trkpt>
      <trkpt lat="69.66947" lon="18.74676">
        <ele>20.404457</ele>
        <time>2020-08-27T11:04:35.595Z</time>
      </trkpt>
      <trkpt lat="69.6688" lon="18.7476">
        <ele>20.814188</ele>
        <time>2020-08-27T11:04:51.143Z</time>
      </trkpt>
      <trkpt lat="69.66878" lon="18.74765">
        <ele>20.805006</ele>
        <time>2020-08-27T11:04:51.860Z</time>
      </trkpt>
      <trkpt lat="69.66878" lon="18.74769">
        <ele>20.7995</ele>
        <time>2020-08-27T11:04:52.126Z</time>
      </trkpt>
      <trkpt lat="69.66881" lon="18.74783">
        <ele>20.780439</ele>
        <time>2020-08-27T11:04:53.281Z</time>
      </trkpt>
      <trkpt lat="69.66829" lon="18.74853">
        <ele>20.589364</ele>
        <time>2020-08-27T11:05:03.258Z</time>
      </trkpt>
      <trkpt lat="69.66808" lon="18.74882">
        <ele>20.51095</ele>
        <time>2020-08-27T11:05:06.847Z</time>
      </trkpt>
      <trkpt lat="69.66805" lon="18.74885">
        <ele>20.502853</ele>
        <time>2020-08-27T11:05:07.293Z</time>
      </trkpt>
      <trkpt lat="69.66787" lon="18.74911">
        <ele>20.434934</ele>
        <time>2020-08-27T11:05:10.265Z</time>
      </trkpt>
      <trkpt lat="69.66735" lon="18.75">
        <ele>19.81987</ele>
        <time>2020-08-27T11:05:19.353Z</time>
      </trkpt>
      <trkpt lat="69.66601" lon="18.75316">
        <ele>17.008844</ele>
        <time>2020-08-27T11:05:45.352Z</time>
      </trkpt>
      <trkpt lat="69.6659" lon="18.75336">
        <ele>16.642569</ele>
        <time>2020-08-27T11:05:47.287Z</time>
      </trkpt>
      <trkpt lat="69.66584" lon="18.75345">
        <ele>16.470514</ele>
        <time>2020-08-27T11:05:48.134Z</time>
      </trkpt>
      <trkpt lat="69.66483" lon="18.75457">
        <ele>13.520445</ele>
        <time>2020-08-27T11:06:02.205Z</time>
      </trkpt>
      <trkpt lat="69.66466" lon="18.75473">
        <ele>13.038798</ele>
        <time>2020-08-27T11:06:04.756Z</time>
      </trkpt>
      <trkpt lat="69.66446" lon="18.75491">
        <ele>12.508735</ele>
        <time>2020-08-27T11:06:07.380Z</time>
      </trkpt>
      <trkpt lat="69.66431" lon="18.75503">
        <ele>12.137777</ele>
        <time>2020-08-27T11:06:09.606Z</time>
      </trkpt>
      <trkpt lat="69.6643" lon="18.75504">
        <ele>12.090503</ele>
        <time>2020-08-27T11:06:09.803Z</time>
      </trkpt>
      <trkpt lat="69.66425" lon="18.75506">
        <ele>11.96591</ele>
        <time>2020-08-27T11:06:10.379Z</time>
      </trkpt>
      <trkpt lat="69.66378" lon="18.75506">
        <ele>10.819394</ele>
        <time>2020-08-27T11:06:16.575Z</time>
      </trkpt>
      <trkpt lat="69.66328" lon="18.75449">
        <ele>9.499345</ele>
        <time>2020-08-27T11:06:23.854Z</time>
      </trkpt>
      <trkpt lat="69.65992" lon="18.74696">
        <ele>6.903335</ele>
        <time>2020-08-27T11:07:33.924Z</time>
      </trkpt>
      <trkpt lat="69.65943" lon="18.74623">
        <ele>7.268227</ele>
        <time>2020-08-27T11:07:45.771Z</time>
      </trkpt>
      <trkpt lat="69.65893" lon="18.74593">
        <ele>7.600074</ele>
        <time>2020-08-27T11:07:55.996Z</time>
      </trkpt>
      <trkpt lat="69.65888" lon="18.74591">
        <ele>7.636448</ele>
        <time>2020-08-27T11:07:57.633Z</time>
      </trkpt>
      <trkpt lat="69.65864" lon="18.74584">
        <ele>7.792701</ele>
        <time>2020-08-27T11:08:02.174Z</time>
      </trkpt>
      <trkpt lat="69.65831" lon="18.74574">
        <ele>8.019487</ele>
        <time>2020-08-27T11:08:09.087Z</time>
      </trkpt>
      <trkpt lat="69.65807" lon="18.74567">
        <ele>8.196682</ele>
        <time>2020-08-27T11:08:14.344Z</time>
      </trkpt>
      <trkpt lat="69.65783" lon="18.74561">
        <ele>8.37157</ele>
        <time>2020-08-27T11:08:19.531Z</time>
      </trkpt>
      <trkpt lat="69.65771" lon="18.74558">
        <ele>8.456429</ele>
        <time>2020-08-27T11:08:21.839Z</time>
      </trkpt>
      <trkpt lat="69.65696" lon="18.74536">
        <ele>8.998122</ele>
        <time>2020-08-27T11:08:36.691Z</time>
      </trkpt>
      <trkpt lat="69.65512" lon="18.74445">
        <ele>9.73467</ele>
        <time>2020-08-27T11:09:12.496Z</time>
      </trkpt>
      <trkpt lat="69.65463" lon="18.74415">
        <ele>9.621839</ele>
        <time>2020-08-27T11:09:21.624Z</time>
      </trkpt>
      <trkpt lat="69.65412" lon="18.74384">
        <ele>9.315011</ele>
        <time>2020-08-27T11:09:30.422Z</time>
      </trkpt>
      <trkpt lat="69.65278" lon="18.74301">
        <ele>8.185428</ele>
        <time>2020-08-27T11:09:51.695Z</time>
      </trkpt>
      <trkpt lat="69.65205" lon="18.7423">
        <ele>7.092896</ele>
        <time>2020-08-27T11:10:03.055Z</time>
      </trkpt>
      <trkpt lat="69.65197" lon="18.7422">
        <ele>6.968733</ele>
        <time>2020-08-27T11:10:04.330Z</time>
      </trkpt>
      <trkpt lat="69.65185" lon="18.74203">
        <ele>6.772522</ele>
        <time>2020-08-27T11:10:06.293Z</time>
      </trkpt>
      <trkpt lat="69.65174" lon="18.74188">
        <ele>6.605876</ele>
        <time>2020-08-27T11:10:08.048Z</time>
      </trkpt>
      <trkpt lat="69.65143" lon="18.74142">
        <ele>6.130775</ele>
        <time>2020-08-27T11:10:13.081Z</time>
      </trkpt>
      <trkpt lat="69.65121" lon="18.74105">
        <ele>5.839295</ele>
        <time>2020-08-27T11:10:16.809Z</time>
      </trkpt>
      <trkpt lat="69.65106" lon="18.74081">
        <ele>5.649421</ele>
        <time>2020-08-27T11:10:19.322Z</time>
      </trkpt>
      <trkpt lat="69.65067" lon="18.74018">
        <ele>5.146195</ele>
        <time>2020-08-27T11:10:25.903Z</time>
      </trkpt>
      <trkpt lat="69.65034" lon="18.73964">
        <ele>4.720341</ele>
        <time>2020-08-27T11:10:31.738Z</time>
      </trkpt>
      <trkpt lat="69.64983" lon="18.73881">
        <ele>4.169121</ele>
        <time>2020-08-27T11:10:41.372Z</time>
      </trkpt>
      <trkpt lat="69.64973" lon="18.73863">
        <ele>4.170475</ele>
        <time>2020-08-27T11:10:43.543Z</time>
      </trkpt>
      <trkpt lat="69.64957" lon="18.73838">
        <ele>4.17243</ele>
        <time>2020-08-27T11:10:46.684Z</time>
      </trkpt>
      <trkpt lat="69.64935" lon="18.73801">
        <ele>4.175271</ele>
        <time>2020-08-27T11:10:51.394Z</time>
      </trkpt>
      <trkpt lat="69.64926" lon="18.73786">
        <ele>4.176395</ele>
        <time>2020-08-27T11:10:53.224Z</time>
      </trkpt>
      <trkpt lat="69.6483" lon="18.7363">
        <ele>4.177871</ele>
        <time>2020-08-27T11:11:13.788Z</time>
      </trkpt>
      <trkpt lat="69.6471" lon="18.73433">
        <ele>3.945759</ele>
        <time>2020-08-27T11:11:37.701Z</time>
      </trkpt>
      <trkpt lat="69.64594" lon="18.73244">
        <ele>3.890391</ele>
        <time>2020-08-27T11:12:00.071Z</time>
      </trkpt>
      <trkpt lat="69.64559" lon="18.73187">
        <ele>3.891872</ele>
        <time>2020-08-27T11:12:07.323Z</time>
      </trkpt>
      <trkpt lat="69.64532" lon="18.73143">
        <ele>3.892991</ele>
        <time>2020-08-27T11:12:13.108Z</time>
      </trkpt>
      <trkpt lat="69.64446" lon="18.73002">
        <ele>4.695061</ele>
        <time>2020-08-27T11:12:33.356Z</time>
      </trkpt>
      <trkpt lat="69.64441" lon="18.72995">
        <ele>4.745165</ele>
        <time>2020-08-27T11:12:34.495Z</time>
      </trkpt>
      <trkpt lat="69.64428" lon="18.72973">
        <ele>4.881137</ele>
        <time>2020-08-27T11:12:37.718Z</time>
      </trkpt>
      <trkpt lat="69.6441" lon="18.72943">
        <ele>5.071469</ele>
        <time>2020-08-27T11:12:42.185Z</time>
      </trkpt>
      <trkpt lat="69.64378" lon="18.72895">
        <ele>5.398146</ele>
        <time>2020-08-27T11:12:49.979Z</time>
      </trkpt>
      <trkpt lat="69.64367" lon="18.7288">
        <ele>5.514689</ele>
        <time>2020-08-27T11:12:52.758Z</time>
      </trkpt>
      <trkpt lat="69.64359" lon="18.72871">
        <ele>5.593797</ele>
        <time>2020-08-27T11:12:54.494Z</time>
      </trkpt>
      <trkpt lat="69.64338" lon="18.72848">
        <ele>5.833635</ele>
        <time>2020-08-27T11:12:59.361Z</time>
      </trkpt>
      <trkpt lat="69.64299" lon="18.72811">
        <ele>6.264886</ele>
        <time>2020-08-27T11:13:08.255Z</time>
      </trkpt>
      <trkpt lat="69.6419" lon="18.72712">
        <ele>7.442887</ele>
        <time>2020-08-27T11:13:32.510Z</time>
      </trkpt>
      <trkpt lat="69.64147" lon="18.72673">
        <ele>7.63731</ele>
        <time>2020-08-27T11:13:41.761Z</time>
      </trkpt>
      <trkpt lat="69.6411" lon="18.7264">
        <ele>7.801858</ele>
        <time>2020-08-27T11:13:49.446Z</time>
      </trkpt>
      <trkpt lat="69.64021" lon="18.7256">
        <ele>8.188574</ele>
        <time>2020-08-27T11:14:06.467Z</time>
      </trkpt>
      <trkpt lat="69.63994" lon="18.72535">
        <ele>8.173647</ele>
        <time>2020-08-27T11:14:11.343Z</time>
      </trkpt>
      <trkpt lat="69.63976" lon="18.72516">
        <ele>8.163607</ele>
        <time>2020-08-27T11:14:14.767Z</time>
      </trkpt>
      <trkpt lat="69.63964" lon="18.72503">
        <ele>8.156894</ele>
        <time>2020-08-27T11:14:16.890Z</time>
      </trkpt>
      <trkpt lat="69.63917" lon="18.72438">
        <ele>8.129776</ele>
        <time>2020-08-27T11:14:25.971Z</time>
      </trkpt>
      <trkpt lat="69.63876" lon="18.72371">
        <ele>8.104767</ele>
        <time>2020-08-27T11:14:34.282Z</time>
      </trkpt>
      <trkpt lat="69.63836" lon="18.72307">
        <ele>8.181672</ele>
        <time>2020-08-27T11:14:42.767Z</time>
      </trkpt>
      <trkpt lat="69.63745" lon="18.72178">
        <ele>8.497509</ele>
        <time>2020-08-27T11:15:01.483Z</time>
      </trkpt>
      <trkpt lat="69.63738" lon="18.72171">
        <ele>8.519355</ele>
        <time>2020-08-27T11:15:03.060Z</time>
      </trkpt>
      <trkpt lat="69.6373" lon="18.72163">
        <ele>8.547258</ele>
        <time>2020-08-27T11:15:04.693Z</time>
      </trkpt>
      <trkpt lat="69.63598" lon="18.72078">
        <ele>9.208933</ele>
        <time>2020-08-27T11:15:31.585Z</time>
      </trkpt>
      <trkpt lat="69.63581" lon="18.7207">
        <ele>9.304897</ele>
        <time>2020-08-27T11:15:34.765Z</time>
      </trkpt>
      <trkpt lat="69.63567" lon="18.72063">
        <ele>9.38051</ele>
        <time>2020-08-27T11:15:37.570Z</time>
      </trkpt>
      <trkpt lat="69.63452" lon="18.71997">
        <ele>9.638949</ele>
        <time>2020-08-27T11:16:00.359Z</time>
      </trkpt>
      <trkpt lat="69.63405" lon="18.71985">
        <ele>9.633736</ele>
        <time>2020-08-27T11:16:09.216Z</time>
      </trkpt>
      <trkpt lat="69.63344" lon="18.72007">
        <ele>9.627004</ele>
        <time>2020-08-27T11:16:19.317Z</time>
      </trkpt>
      <trkpt lat="69.63292" lon="18.7206">
        <ele>9.010478</ele>
        <time>2020-08-27T11:16:27.857Z</time>
      </trkpt>
      <trkpt lat="69.63264" lon="18.72094">
        <ele>8.6616</ele>
        <time>2020-08-27T11:16:32.387Z</time>
      </trkpt>
      <trkpt lat="69.6322" lon="18.72146">
        <ele>8.11493</ele>
        <time>2020-08-27T11:16:39.460Z</time>
      </trkpt>
      <trkpt lat="69.63195" lon="18.72177">
        <ele>7.798688</ele>
        <time>2020-08-27T11:16:43.482Z</time>
      </trkpt>
      <trkpt lat="69.63158" lon="18.72221">
        <ele>7.530859</ele>
        <time>2020-08-27T11:16:49.456Z</time>
      </trkpt>
      <trkpt lat="69.63096" lon="18.72298">
        <ele>7.460776</ele>
        <time>2020-08-27T11:17:00.142Z</time>
      </trkpt>
      <trkpt lat="69.63068" lon="18.72332">
        <ele>7.429652</ele>
        <time>2020-08-27T11:17:05.532Z</time>
      </trkpt>
      <trkpt lat="69.63064" lon="18.72337">
        <ele>7.425237</ele>
        <time>2020-08-27T11:17:06.316Z</time>
      </trkpt>
      <trkpt lat="69.63052" lon="18.72351">
        <ele>7.411891</ele>
        <time>2020-08-27T11:17:08.713Z</time>
      </trkpt>
      <trkpt lat="69.63032" lon="18.72376">
        <ele>7.389794</ele>
        <time>2020-08-27T11:17:13.347Z</time>
      </trkpt>
      <trkpt lat="69.63029" lon="18.72381">
        <ele>7.385871</ele>
        <time>2020-08-27T11:17:14.173Z</time>
      </trkpt>
      <trkpt lat="69.63016" lon="18.72397">
        <ele>7.371321</ele>
        <time>2020-08-27T11:17:16.872Z</time>
      </trkpt>
      <trkpt lat="69.63013" lon="18.72401">
        <ele>7.368036</ele>
        <time>2020-08-27T11:17:17.641Z</time>
      </trkpt>
      <trkpt lat="69.62996" lon="18.72425">
        <ele>7.732794</ele>
        <time>2020-08-27T11:17:22.211Z</time>
      </trkpt>
      <trkpt lat="69.62983" lon="18.72446">
        <ele>8.083399</ele>
        <time>2020-08-27T11:17:25.205Z</time>
      </trkpt>
      <trkpt lat="69.62973" lon="18.72466">
        <ele>8.378582</ele>
        <time>2020-08-27T11:17:28.348Z</time>
      </trkpt>
      <trkpt lat="69.62966" lon="18.72481">
        <ele>8.592591</ele>
        <time>2020-08-27T11:17:30.492Z</time>
      </trkpt>
      <trkpt lat="69.62952" lon="18.72512">
        <ele>9.005671</ele>
        <time>2020-08-27T11:17:34.637Z</time>
      </trkpt>
      <trkpt lat="69.62945" lon="18.7253">
        <ele>9.223807</ele>
        <time>2020-08-27T11:17:37.274Z</time>
      </trkpt>
      <trkpt lat="69.62932" lon="18.72568">
        <ele>9.668241</ele>
        <time>2020-08-27T11:17:41.856Z</time>
      </trkpt>
      <trkpt lat="69.62923" lon="18.726">
        <ele>10.012294</ele>
        <time>2020-08-27T11:17:45.979Z</time>
      </trkpt>
      <trkpt lat="69.62918" lon="18.72619">
        <ele>10.207205</ele>
        <time>2020-08-27T11:17:48.181Z</time>
      </trkpt>
      <trkpt lat="69.62909" lon="18.7266">
        <ele>10.613553</ele>
        <time>2020-08-27T11:17:52.474Z</time>
      </trkpt>
      <trkpt lat="69.62907" lon="18.72673">
        <ele>10.733195</ele>
        <time>2020-08-27T11:17:53.998Z</time>
      </trkpt>
      <trkpt lat="69.62904" lon="18.72685">
        <ele>10.847333</ele>
        <time>2020-08-27T11:17:55.511Z</time>
      </trkpt>
      <trkpt lat="69.629" lon="18.72708">
        <ele>11.060401</ele>
        <time>2020-08-27T11:17:58.003Z</time>
      </trkpt>
      <trkpt lat="69.629" lon="18.7271">
        <ele>11.084754</ele>
        <time>2020-08-27T11:17:58.318Z</time>
      </trkpt>
      <trkpt lat="69.62896" lon="18.72735">
        <ele>11.309443</ele>
        <time>2020-08-27T11:18:00.697Z</time>
      </trkpt>
      <trkpt lat="69.62892" lon="18.72765">
        <ele>11.572418</ele>
        <time>2020-08-27T11:18:03.750Z</time>
      </trkpt>
      <trkpt lat="69.62885" lon="18.72823">
        <ele>12.255742</ele>
        <time>2020-08-27T11:18:09.857Z</time>
      </trkpt>
      <trkpt lat="69.62877" lon="18.72889">
        <ele>13.06321</ele>
        <time>2020-08-27T11:18:17.041Z</time>
      </trkpt>
      <trkpt lat="69.62845" lon="18.73206">
        <ele>16.876986</ele>
        <time>2020-08-27T11:18:49.977Z</time>
      </trkpt>
      <trkpt lat="69.62845" lon="18.73359">
        <ele>18.52144</ele>
        <time>2020-08-27T11:19:05.143Z</time>
      </trkpt>
      <trkpt lat="69.62861" lon="18.73484">
        <ele>19.888119</ele>
        <time>2020-08-27T11:19:17.976Z</time>
      </trkpt>
      <trkpt lat="69.6295" lon="18.73905">
        <ele>23.539734</ele>
        <time>2020-08-27T11:20:03.692Z</time>
      </trkpt>
      <trkpt lat="69.62955" lon="18.73939">
        <ele>23.660367</ele>
        <time>2020-08-27T11:20:06.573Z</time>
      </trkpt>
      <trkpt lat="69.62958" lon="18.73961">
        <ele>23.737783</ele>
        <time>2020-08-27T11:20:08.250Z</time>
      </trkpt>
      <trkpt lat="69.62972" lon="18.74184">
        <ele>24.471594</ele>
        <time>2020-08-27T11:20:22.184Z</time>
      </trkpt>
      <trkpt lat="69.62973" lon="18.74224">
        <ele>24.498019</ele>
        <time>2020-08-27T11:20:24.886Z</time>
      </trkpt>
      <trkpt lat="69.62973" lon="18.74249">
        <ele>24.282174</ele>
        <time>2020-08-27T11:20:25.944Z</time>
      </trkpt>
      <trkpt lat="69.62969" lon="18.74383">
        <ele>23.104554</ele>
        <time>2020-08-27T11:20:32.696Z</time>
      </trkpt>
      <trkpt lat="69.62956" lon="18.74523">
        <ele>21.831032</ele>
        <time>2020-08-27T11:20:39.619Z</time>
      </trkpt>
      <trkpt lat="69.62954" lon="18.74549">
        <ele>21.597309</ele>
        <time>2020-08-27T11:20:40.687Z</time>
      </trkpt>
      <trkpt lat="69.6295" lon="18.74577">
        <ele>21.332211</ele>
        <time>2020-08-27T11:20:42.068Z</time>
      </trkpt>
      <trkpt lat="69.62911" lon="18.74876">
        <ele>18.906513</ele>
        <time>2020-08-27T11:20:56.599Z</time>
      </trkpt>
      <trkpt lat="69.62904" lon="18.74933">
        <ele>18.504055</ele>
        <time>2020-08-27T11:20:59.433Z</time>
      </trkpt>
      <trkpt lat="69.629" lon="18.74962">
        <ele>18.299095</ele>
        <time>2020-08-27T11:21:00.880Z</time>
      </trkpt>
      <trkpt lat="69.62893" lon="18.75015">
        <ele>17.925318</ele>
        <time>2020-08-27T11:21:03.896Z</time>
      </trkpt>
      <trkpt lat="69.62888" lon="18.7505">
        <ele>17.677304</ele>
        <time>2020-08-27T11:21:05.805Z</time>
      </trkpt>
      <trkpt lat="69.6288" lon="18.75112">
        <ele>17.241722</ele>
        <time>2020-08-27T11:21:09.438Z</time>
      </trkpt>
      <trkpt lat="69.62876" lon="18.75144">
        <ele>17.015842</ele>
        <time>2020-08-27T11:21:11.211Z</time>
      </trkpt>
      <trkpt lat="69.62868" lon="18.75203">
        <ele>16.638878</ele>
        <time>2020-08-27T11:21:14.870Z</time>
      </trkpt>
      <trkpt lat="69.62757" lon="18.76046">
        <ele>18.557598</ele>
        <time>2020-08-27T11:22:17.387Z</time>
      </trkpt>
      <trkpt lat="69.62749" lon="18.76111">
        <ele>18.759898</ele>
        <time>2020-08-27T11:22:22.622Z</time>
      </trkpt>
      <trkpt lat="69.62742" lon="18.76163">
        <ele>18.918923</ele>
        <time>2020-08-27T11:22:26.966Z</time>
      </trkpt>
      <trkpt lat="69.62717" lon="18.76375">
        <ele>19.62904</ele>
        <time>2020-08-27T11:22:44.154Z</time>
      </trkpt>
      <trkpt lat="69.62699" lon="18.76615">
        <ele>20.409724</ele>
        <time>2020-08-27T11:23:01.877Z</time>
      </trkpt>
      <trkpt lat="69.62698" lon="18.76635">
        <ele>20.473071</ele>
        <time>2020-08-27T11:23:03.414Z</time>
      </trkpt>
      <trkpt lat="69.62697" lon="18.76651">
        <ele>20.524059</ele>
        <time>2020-08-27T11:23:04.448Z</time>
      </trkpt>
      <trkpt lat="69.62689" lon="18.76901">
        <ele>20.577053</ele>
        <time>2020-08-27T11:23:20.274Z</time>
      </trkpt>
      <trkpt lat="69.62688" lon="18.76964">
        <ele>20.580284</ele>
        <time>2020-08-27T11:23:24.225Z</time>
      </trkpt>
      <trkpt lat="69.62688" lon="18.77015">
        <ele>20.582893</ele>
        <time>2020-08-27T11:23:27.123Z</time>
      </trkpt>
      <trkpt lat="69.62694" lon="18.77274">
        <ele>20.799848</ele>
        <time>2020-08-27T11:23:42.349Z</time>
      </trkpt>
      <trkpt lat="69.62714" lon="18.77589">
        <ele>21.503932</ele>
        <time>2020-08-27T11:24:04.146Z</time>
      </trkpt>
      <trkpt lat="69.62717" lon="18.77629">
        <ele>21.594175</ele>
        <time>2020-08-27T11:24:07.200Z</time>
      </trkpt>
      <trkpt lat="69.62725" lon="18.77747">
        <ele>22.197883</ele>
        <time>2020-08-27T11:24:16.643Z</time>
      </trkpt>
      <trkpt lat="69.62772" lon="18.78435">
        <ele>27.690521</ele>
        <time>2020-08-27T11:25:20.233Z</time>
      </trkpt>
      <trkpt lat="69.62779" lon="18.78542">
        <ele>28.516026</ele>
        <time>2020-08-27T11:25:30.033Z</time>
      </trkpt>
      <trkpt lat="69.62783" lon="18.78601">
        <ele>28.966743</ele>
        <time>2020-08-27T11:25:35.423Z</time>
      </trkpt>
      <trkpt lat="69.62817" lon="18.79123">
        <ele>30.462667</ele>
        <time>2020-08-27T11:26:14.629Z</time>
      </trkpt>
      <trkpt lat="69.62817" lon="18.79349">
        <ele>29.245871</ele>
        <time>2020-08-27T11:26:26.233Z</time>
      </trkpt>
      <trkpt lat="69.62797" lon="18.79568">
        <ele>26.992935</ele>
        <time>2020-08-27T11:26:36.656Z</time>
      </trkpt>
      <trkpt lat="69.6273" lon="18.79918">
        <ele>22.17909</ele>
        <time>2020-08-27T11:26:53.927Z</time>
      </trkpt>
      <trkpt lat="69.62726" lon="18.79934">
        <ele>21.940489</ele>
        <time>2020-08-27T11:26:54.607Z</time>
      </trkpt>
      <trkpt lat="69.62721" lon="18.79959">
        <ele>21.533963</ele>
        <time>2020-08-27T11:26:55.981Z</time>
      </trkpt>
      <trkpt lat="69.62691" lon="18.80094">
        <ele>19.417012</ele>
        <time>2020-08-27T11:27:03.396Z</time>
      </trkpt>
      <trkpt lat="69.6269" lon="18.80098">
        <ele>19.349317</ele>
        <time>2020-08-27T11:27:03.579Z</time>
      </trkpt>
      <trkpt lat="69.62687" lon="18.8011">
        <ele>19.14272</ele>
        <time>2020-08-27T11:27:04.219Z</time>
      </trkpt>
      <trkpt lat="69.62652" lon="18.80238">
        <ele>18.38789</ele>
        <time>2020-08-27T11:27:12.260Z</time>
      </trkpt>
      <trkpt lat="69.62616" lon="18.80332">
        <ele>18.166611</ele>
        <time>2020-08-27T11:27:19.569Z</time>
      </trkpt>
      <trkpt lat="69.62569" lon="18.80432">
        <ele>17.894822</ele>
        <time>2020-08-27T11:27:31.677Z</time>
      </trkpt>
      <trkpt lat="69.62522" lon="18.80505">
        <ele>17.839251</ele>
        <time>2020-08-27T11:27:42.976Z</time>
      </trkpt>
      <trkpt lat="69.62516" lon="18.80511">
        <ele>17.863798</ele>
        <time>2020-08-27T11:27:44.620Z</time>
      </trkpt>
      <trkpt lat="69.62505" lon="18.80525">
        <ele>17.911449</ele>
        <time>2020-08-27T11:27:47.305Z</time>
      </trkpt>
      <trkpt lat="69.6244" lon="18.80584">
        <ele>18.175293</ele>
        <time>2020-08-27T11:28:00.804Z</time>
      </trkpt>
      <trkpt lat="69.62375" lon="18.80611">
        <ele>18.430438</ele>
        <time>2020-08-27T11:28:12.624Z</time>
      </trkpt>
      <trkpt lat="69.62358" lon="18.80614">
        <ele>18.317858</ele>
        <time>2020-08-27T11:28:15.656Z</time>
      </trkpt>
      <trkpt lat="69.62352" lon="18.80616">
        <ele>18.246775</ele>
        <time>2020-08-27T11:28:16.667Z</time>
      </trkpt>
      <trkpt lat="69.62346" lon="18.80617">
        <ele>18.18489</ele>
        <time>2020-08-27T11:28:17.397Z</time>
      </trkpt>
      <trkpt lat="69.61961" lon="18.8072">
        <ele>14.17949</ele>
        <time>2020-08-27T11:29:15.360Z</time>
      </trkpt>
      <trkpt lat="69.61953" lon="18.80723">
        <ele>14.195832</ele>
        <time>2020-08-27T11:29:16.958Z</time>
      </trkpt>
      <trkpt lat="69.61949" lon="18.80724">
        <ele>14.204003</ele>
        <time>2020-08-27T11:29:17.822Z</time>
      </trkpt>
      <trkpt lat="69.6192" lon="18.80731">
        <ele>14.26196</ele>
        <time>2020-08-27T11:29:23.391Z</time>
      </trkpt>
      <trkpt lat="69.61895" lon="18.80737">
        <ele>14.312731</ele>
        <time>2020-08-27T11:29:28.310Z</time>
      </trkpt>
      <trkpt lat="69.6188" lon="18.80741">
        <ele>14.34287</ele>
        <time>2020-08-27T11:29:31.603Z</time>
      </trkpt>
      <trkpt lat="69.61799" lon="18.80763">
        <ele>14.691744</ele>
        <time>2020-08-27T11:29:49.051Z</time>
      </trkpt>
      <trkpt lat="69.61778" lon="18.80769">
        <ele>14.850752</ele>
        <time>2020-08-27T11:29:53.814Z</time>
      </trkpt>
      <trkpt lat="69.61765" lon="18.80771">
        <ele>14.950089</ele>
        <time>2020-08-27T11:29:56.518Z</time>
      </trkpt>
      <trkpt lat="69.6163" lon="18.80808">
        <ele>15.902764</ele>
        <time>2020-08-27T11:30:23.109Z</time>
      </trkpt>
      <trkpt lat="69.61605" lon="18.80814">
        <ele>16.020323</ele>
        <time>2020-08-27T11:30:27.428Z</time>
      </trkpt>
      <trkpt lat="69.61574" lon="18.80819">
        <ele>16.169532</ele>
        <time>2020-08-27T11:30:33.168Z</time>
      </trkpt>
      <trkpt lat="69.61474" lon="18.80803">
        <ele>16.64584</ele>
        <time>2020-08-27T11:30:52.931Z</time>
      </trkpt>
      <trkpt lat="69.61451" lon="18.80798">
        <ele>16.839717</ele>
        <time>2020-08-27T11:30:57.691Z</time>
      </trkpt>
      <trkpt lat="69.61436" lon="18.80794">
        <ele>16.961002</ele>
        <time>2020-08-27T11:31:00.598Z</time>
      </trkpt>
      <trkpt lat="69.61419" lon="18.8079">
        <ele>17.106436</ele>
        <time>2020-08-27T11:31:04.093Z</time>
      </trkpt>
      <trkpt lat="69.61413" lon="18.80789">
        <ele>17.161829</ele>
        <time>2020-08-27T11:31:05.623Z</time>
      </trkpt>
      <trkpt lat="69.61364" lon="18.80776">
        <ele>17.569411</ele>
        <time>2020-08-27T11:31:15.556Z</time>
      </trkpt>
      <trkpt lat="69.61309" lon="18.80764">
        <ele>18.032663</ele>
        <time>2020-08-27T11:31:27.128Z</time>
      </trkpt>
      <trkpt lat="69.61278" lon="18.80755">
        <ele>18.216083</ele>
        <time>2020-08-27T11:31:33.589Z</time>
      </trkpt>
      <trkpt lat="69.61217" lon="18.80741">
        <ele>18.448535</ele>
        <time>2020-08-27T11:31:45.697Z</time>
      </trkpt>
      <trkpt lat="69.61203" lon="18.80738">
        <ele>18.500923</ele>
        <time>2020-08-27T11:31:48.307Z</time>
      </trkpt>
      <trkpt lat="69.61174" lon="18.80732">
        <ele>18.614063</ele>
        <time>2020-08-27T11:31:53.890Z</time>
      </trkpt>
      <trkpt lat="69.61155" lon="18.80727">
        <ele>18.686254</ele>
        <time>2020-08-27T11:31:57.435Z</time>
      </trkpt>
      <trkpt lat="69.61148" lon="18.80725">
        <ele>18.709847</ele>
        <time>2020-08-27T11:31:58.542Z</time>
      </trkpt>
      <trkpt lat="69.60948" lon="18.80682">
        <ele>18.656977</ele>
        <time>2020-08-27T11:32:33.838Z</time>
      </trkpt>
      <trkpt lat="69.60929" lon="18.80686">
        <ele>18.640346</ele>
        <time>2020-08-27T11:32:37.126Z</time>
      </trkpt>
      <trkpt lat="69.60919" lon="18.8069">
        <ele>18.635342</ele>
        <time>2020-08-27T11:32:38.836Z</time>
      </trkpt>
      <trkpt lat="69.60881" lon="18.80723">
        <ele>18.615234</ele>
        <time>2020-08-27T11:32:45.702Z</time>
      </trkpt>
      <trkpt lat="69.60752" lon="18.80878">
        <ele>18.547635</ele>
        <time>2020-08-27T11:33:10.577Z</time>
      </trkpt>
      <trkpt lat="69.60675" lon="18.80973">
        <ele>18.520139</ele>
        <time>2020-08-27T11:33:26.305Z</time>
      </trkpt>
      <trkpt lat="69.60657" lon="18.80995">
        <ele>18.513566</ele>
        <time>2020-08-27T11:33:29.948Z</time>
      </trkpt>
      <trkpt lat="69.60623" lon="18.81038">
        <ele>18.501393</ele>
        <time>2020-08-27T11:33:36.359Z</time>
      </trkpt>
      <trkpt lat="69.60612" lon="18.8105">
        <ele>18.497606</ele>
        <time>2020-08-27T11:33:38.301Z</time>
      </trkpt>
      <trkpt lat="69.60593" lon="18.81075">
        <ele>18.308355</ele>
        <time>2020-08-27T11:33:41.829Z</time>
      </trkpt>
      <trkpt lat="69.60581" lon="18.81088">
        <ele>18.087991</ele>
        <time>2020-08-27T11:33:43.841Z</time>
      </trkpt>
      <trkpt lat="69.60549" lon="18.81125">
        <ele>17.463698</ele>
        <time>2020-08-27T11:33:49.259Z</time>
      </trkpt>
      <trkpt lat="69.6054" lon="18.81136">
        <ele>17.283589</ele>
        <time>2020-08-27T11:33:50.695Z</time>
      </trkpt>
      <trkpt lat="69.6046" lon="18.81191">
        <ele>15.806131</ele>
        <time>2020-08-27T11:34:02.358Z</time>
      </trkpt>
      <trkpt lat="69.60424" lon="18.81194">
        <ele>15.048461</ele>
        <time>2020-08-27T11:34:07.114Z</time>
      </trkpt>
      <trkpt lat="69.60383" lon="18.81176">
        <ele>13.449187</ele>
        <time>2020-08-27T11:34:12.456Z</time>
      </trkpt>
      <trkpt lat="69.60324" lon="18.81097">
        <ele>10.932651</ele>
        <time>2020-08-27T11:34:20.515Z</time>
      </trkpt>
      <trkpt lat="69.60248" lon="18.80915">
        <ele>7.526933</ele>
        <time>2020-08-27T11:34:32.950Z</time>
      </trkpt>
      <trkpt lat="69.60243" lon="18.80902">
        <ele>7.35767</ele>
        <time>2020-08-27T11:34:33.730Z</time>
      </trkpt>
      <trkpt lat="69.60236" lon="18.80883">
        <ele>7.103924</ele>
        <time>2020-08-27T11:34:35.051Z</time>
      </trkpt>
      <trkpt lat="69.60201" lon="18.80799">
        <ele>5.961866</ele>
        <time>2020-08-27T11:34:41.150Z</time>
      </trkpt>
      <trkpt lat="69.60188" lon="18.80767">
        <ele>5.534102</ele>
        <time>2020-08-27T11:34:43.358Z</time>
      </trkpt>
      <trkpt lat="69.60179" lon="18.80746">
        <ele>5.2393</ele>
        <time>2020-08-27T11:34:45.108Z</time>
      </trkpt>
      <trkpt lat="69.60139" lon="18.80659">
        <ele>3.983915</ele>
        <time>2020-08-27T11:34:52.514Z</time>
      </trkpt>
      <trkpt lat="69.60136" lon="18.80653">
        <ele>3.88557</ele>
        <time>2020-08-27T11:34:53.042Z</time>
      </trkpt>
      <trkpt lat="69.60121" lon="18.80623">
        <ele>3.863765</ele>
        <time>2020-08-27T11:34:55.788Z</time>
      </trkpt>
      <trkpt lat="69.60086" lon="18.80552">
        <ele>4.114488</ele>
        <time>2020-08-27T11:35:03.959Z</time>
      </trkpt>
      <trkpt lat="69.60067" lon="18.80514">
        <ele>4.250641</ele>
        <time>2020-08-27T11:35:08.512Z</time>
      </trkpt>
      <trkpt lat="69.6006" lon="18.80503">
        <ele>4.295312</ele>
        <time>2020-08-27T11:35:10.216Z</time>
      </trkpt>
      <trkpt lat="69.6001" lon="18.80421">
        <ele>4.630084</ele>
        <time>2020-08-27T11:35:22.513Z</time>
      </trkpt>
      <trkpt lat="69.60002" lon="18.80412">
        <ele>4.682031</ele>
        <time>2020-08-27T11:35:24.707Z</time>
      </trkpt>
      <trkpt lat="69.59997" lon="18.80407">
        <ele>4.712239</ele>
        <time>2020-08-27T11:35:25.952Z</time>
      </trkpt>
      <trkpt lat="69.59982" lon="18.80391">
        <ele>4.80718</ele>
        <time>2020-08-27T11:35:29.533Z</time>
      </trkpt>
      <trkpt lat="69.59963" lon="18.80378">
        <ele>5.036637</ele>
        <time>2020-08-27T11:35:33.984Z</time>
      </trkpt>
      <trkpt lat="69.59955" lon="18.80374">
        <ele>5.143093</ele>
        <time>2020-08-27T11:35:35.624Z</time>
      </trkpt>
      <trkpt lat="69.59945" lon="18.80369">
        <ele>5.280192</ele>
        <time>2020-08-27T11:35:38.045Z</time>
      </trkpt>
      <trkpt lat="69.59887" lon="18.80356">
        <ele>6.059464</ele>
        <time>2020-08-27T11:35:51.058Z</time>
      </trkpt>
      <trkpt lat="69.59864" lon="18.80355">
        <ele>6.362139</ele>
        <time>2020-08-27T11:35:56.093Z</time>
      </trkpt>
      <trkpt lat="69.59855" lon="18.80354">
        <ele>6.493498</ele>
        <time>2020-08-27T11:35:58.284Z</time>
      </trkpt>
      <trkpt lat="69.59811" lon="18.8035">
        <ele>7.074914</ele>
        <time>2020-08-27T11:36:07.553Z</time>
      </trkpt>
      <trkpt lat="69.59788" lon="18.80348">
        <ele>7.368994</ele>
        <time>2020-08-27T11:36:12.586Z</time>
      </trkpt>
      <trkpt lat="69.59785" lon="18.80347">
        <ele>7.410882</ele>
        <time>2020-08-27T11:36:13.308Z</time>
      </trkpt>
      <trkpt lat="69.59767" lon="18.80345">
        <ele>7.638856</ele>
        <time>2020-08-27T11:36:17.196Z</time>
      </trkpt>
      <trkpt lat="69.59766" lon="18.80345">
        <ele>7.649939</ele>
        <time>2020-08-27T11:36:17.405Z</time>
      </trkpt>
      <trkpt lat="69.59742" lon="18.80344">
        <ele>7.935701</ele>
        <time>2020-08-27T11:36:22.571Z</time>
      </trkpt>
      <trkpt lat="69.59657" lon="18.80335">
        <ele>8.991658</ele>
        <time>2020-08-27T11:36:41.210Z</time>
      </trkpt>
      <trkpt lat="69.59631" lon="18.80333">
        <ele>9.309459</ele>
        <time>2020-08-27T11:36:46.818Z</time>
      </trkpt>
      <trkpt lat="69.59606" lon="18.80332">
        <ele>9.641036</ele>
        <time>2020-08-27T11:36:52.389Z</time>
      </trkpt>
      <trkpt lat="69.59507" lon="18.80308">
        <ele>10.993832</ele>
        <time>2020-08-27T11:37:14.206Z</time>
      </trkpt>
      <trkpt lat="69.59405" lon="18.80242">
        <ele>12.364249</ele>
        <time>2020-08-27T11:37:37.952Z</time>
      </trkpt>
      <trkpt lat="69.59379" lon="18.80223">
        <ele>12.67973</ele>
        <time>2020-08-27T11:37:43.860Z</time>
      </trkpt>
      <trkpt lat="69.59359" lon="18.80207">
        <ele>12.926899</ele>
        <time>2020-08-27T11:37:48.663Z</time>
      </trkpt>
      <trkpt lat="69.59313" lon="18.80172">
        <ele>13.493948</ele>
        <time>2020-08-27T11:37:58.949Z</time>
      </trkpt>
      <trkpt lat="69.59282" lon="18.80147">
        <ele>13.887127</ele>
        <time>2020-08-27T11:38:05.921Z</time>
      </trkpt>
      <trkpt lat="69.59241" lon="18.80115">
        <ele>14.045641</ele>
        <time>2020-08-27T11:38:14.183Z</time>
      </trkpt>
      <trkpt lat="69.59232" lon="18.80108">
        <ele>14.038955</ele>
        <time>2020-08-27T11:38:16.010Z</time>
      </trkpt>
      <trkpt lat="69.59221" lon="18.80099">
        <ele>14.031088</ele>
        <time>2020-08-27T11:38:18.138Z</time>
      </trkpt>
      <trkpt lat="69.59212" lon="18.80092">
        <ele>14.024573</ele>
        <time>2020-08-27T11:38:19.876Z</time>
      </trkpt>
      <trkpt lat="69.59209" lon="18.8009">
        <ele>14.022334</ele>
        <time>2020-08-27T11:38:20.475Z</time>
      </trkpt>
      <trkpt lat="69.59206" lon="18.80088">
        <ele>14.020523</ele>
        <time>2020-08-27T11:38:20.933Z</time>
      </trkpt>
      <trkpt lat="69.5918" lon="18.80067">
        <ele>14.001559</ele>
        <time>2020-08-27T11:38:25.719Z</time>
      </trkpt>
      <trkpt lat="69.59144" lon="18.80032">
        <ele>13.975078</ele>
        <time>2020-08-27T11:38:32.194Z</time>
      </trkpt>
      <trkpt lat="69.59132" lon="18.80019">
        <ele>13.966197</ele>
        <time>2020-08-27T11:38:34.316Z</time>
      </trkpt>
      <trkpt lat="69.59124" lon="18.80009">
        <ele>13.959965</ele>
        <time>2020-08-27T11:38:35.707Z</time>
      </trkpt>
      <trkpt lat="69.5903" lon="18.79892">
        <ele>13.958511</ele>
        <time>2020-08-27T11:38:52.197Z</time>
      </trkpt>
      <trkpt lat="69.5901" lon="18.79871">
        <ele>13.963919</ele>
        <time>2020-08-27T11:38:55.748Z</time>
      </trkpt>
      <trkpt lat="69.5901" lon="18.79871">
        <ele>13.964059</ele>
        <time>2020-08-27T11:38:55.841Z</time>
      </trkpt>
      <trkpt lat="69.58921" lon="18.79787">
        <ele>14.091539</ele>
        <time>2020-08-27T11:39:14.263Z</time>
      </trkpt>
      <trkpt lat="69.5891" lon="18.79778">
        <ele>14.23425</ele>
        <time>2020-08-27T11:39:16.501Z</time>
      </trkpt>
      <trkpt lat="69.58898" lon="18.79768">
        <ele>14.393614</ele>
        <time>2020-08-27T11:39:19.304Z</time>
      </trkpt>
      <trkpt lat="69.58882" lon="18.79754">
        <ele>14.610406</ele>
        <time>2020-08-27T11:39:23.039Z</time>
      </trkpt>
      <trkpt lat="69.58844" lon="18.79718">
        <ele>15.116842</ele>
        <time>2020-08-27T11:39:31.827Z</time>
      </trkpt>
      <trkpt lat="69.5884" lon="18.79714">
        <ele>15.173442</ele>
        <time>2020-08-27T11:39:32.761Z</time>
      </trkpt>
      <trkpt lat="69.58825" lon="18.797">
        <ele>15.384772</ele>
        <time>2020-08-27T11:39:36.661Z</time>
      </trkpt>
      <trkpt lat="69.58804" lon="18.79682">
        <ele>15.661129</ele>
        <time>2020-08-27T11:39:41.396Z</time>
      </trkpt>
      <trkpt lat="69.58782" lon="18.79662">
        <ele>15.956069</ele>
        <time>2020-08-27T11:39:46.760Z</time>
      </trkpt>
      <trkpt lat="69.58778" lon="18.79658">
        <ele>16.014027</ele>
        <time>2020-08-27T11:39:47.760Z</time>
      </trkpt>
      <trkpt lat="69.58734" lon="18.79618">
        <ele>16.484345</ele>
        <time>2020-08-27T11:39:57.974Z</time>
      </trkpt>
      <trkpt lat="69.58673" lon="18.79563">
        <ele>17.002404</ele>
        <time>2020-08-27T11:40:11.859Z</time>
      </trkpt>
      <trkpt lat="69.58629" lon="18.79522">
        <ele>17.37126</ele>
        <time>2020-08-27T11:40:20.901Z</time>
      </trkpt>
      <trkpt lat="69.5862" lon="18.79513">
        <ele>17.448074</ele>
        <time>2020-08-27T11:40:22.674Z</time>
      </trkpt>
      <trkpt lat="69.58587" lon="18.79483">
        <ele>17.722358</ele>
        <time>2020-08-27T11:40:29.025Z</time>
      </trkpt>
      <trkpt lat="69.58563" lon="18.79461">
        <ele>17.756717</ele>
        <time>2020-08-27T11:40:33.787Z</time>
      </trkpt>
      <trkpt lat="69.58461" lon="18.79369">
        <ele>17.849817</ele>
        <time>2020-08-27T11:40:53.248Z</time>
      </trkpt>
      <trkpt lat="69.58443" lon="18.79353">
        <ele>17.865643</ele>
        <time>2020-08-27T11:40:56.531Z</time>
      </trkpt>
      <trkpt lat="69.58429" lon="18.79339">
        <ele>17.879091</ele>
        <time>2020-08-27T11:40:59.271Z</time>
      </trkpt>
      <trkpt lat="69.58393" lon="18.79307">
        <ele>17.844747</ele>
        <time>2020-08-27T11:41:05.963Z</time>
      </trkpt>
      <trkpt lat="69.58372" lon="18.79288">
        <ele>17.799585</ele>
        <time>2020-08-27T11:41:09.771Z</time>
      </trkpt>
      <trkpt lat="69.58354" lon="18.7927">
        <ele>17.758284</ele>
        <time>2020-08-27T11:41:13.192Z</time>
      </trkpt>
      <trkpt lat="69.58299" lon="18.79212">
        <ele>17.634609</ele>
        <time>2020-08-27T11:41:23.293Z</time>
      </trkpt>
      <trkpt lat="69.58222" lon="18.79101">
        <ele>17.343999</ele>
        <time>2020-08-27T11:41:37.435Z</time>
      </trkpt>
      <trkpt lat="69.58206" lon="18.79077">
        <ele>17.229739</ele>
        <time>2020-08-27T11:41:40.557Z</time>
      </trkpt>
      <trkpt lat="69.58175" lon="18.79028">
        <ele>17.014404</ele>
        <time>2020-08-27T11:41:46.318Z</time>
      </trkpt>
      <trkpt lat="69.58067" lon="18.78861">
        <ele>16.150715</ele>
        <time>2020-08-27T11:42:06.195Z</time>
      </trkpt>
      <trkpt lat="69.58051" lon="18.78836">
        <ele>15.951194</ele>
        <time>2020-08-27T11:42:09.007Z</time>
      </trkpt>
      <trkpt lat="69.58041" lon="18.7882">
        <ele>15.828322</ele>
        <time>2020-08-27T11:42:10.848Z</time>
      </trkpt>
      <trkpt lat="69.58025" lon="18.78796">
        <ele>15.627551</ele>
        <time>2020-08-27T11:42:13.554Z</time>
      </trkpt>
      <trkpt lat="69.57975" lon="18.78718">
        <ele>15.002983</ele>
        <time>2020-08-27T11:42:22.231Z</time>
      </trkpt>
      <trkpt lat="69.57947" lon="18.78675">
        <ele>14.651354</ele>
        <time>2020-08-27T11:42:27.145Z</time>
      </trkpt>
      <trkpt lat="69.57913" lon="18.78625">
        <ele>13.990792</ele>
        <time>2020-08-27T11:42:32.729Z</time>
      </trkpt>
      <trkpt lat="69.57913" lon="18.78624">
        <ele>13.97738</ele>
        <time>2020-08-27T11:42:32.784Z</time>
      </trkpt>
      <trkpt lat="69.57908" lon="18.78617">
        <ele>13.850647</ele>
        <time>2020-08-27T11:42:33.542Z</time>
      </trkpt>
      <trkpt lat="69.57877" lon="18.78565">
        <ele>12.981176</ele>
        <time>2020-08-27T11:42:39.014Z</time>
      </trkpt>
      <trkpt lat="69.57874" lon="18.78561">
        <ele>12.903803</ele>
        <time>2020-08-27T11:42:39.488Z</time>
      </trkpt>
      <trkpt lat="69.57837" lon="18.78501">
        <ele>11.881251</ele>
        <time>2020-08-27T11:42:45.439Z</time>
      </trkpt>
      <trkpt lat="69.5782" lon="18.78471">
        <ele>11.391904</ele>
        <time>2020-08-27T11:42:47.988Z</time>
      </trkpt>
      <trkpt lat="69.57809" lon="18.78453">
        <ele>11.079486</ele>
        <time>2020-08-27T11:42:49.728Z</time>
      </trkpt>
      <trkpt lat="69.57803" lon="18.78443">
        <ele>10.915909</ele>
        <time>2020-08-27T11:42:50.560Z</time>
      </trkpt>
      <trkpt lat="69.57799" lon="18.78429">
        <ele>10.773512</ele>
        <time>2020-08-27T11:42:51.303Z</time>
      </trkpt>
      <trkpt lat="69.57784" lon="18.78394">
        <ele>10.304872</ele>
        <time>2020-08-27T11:42:53.836Z</time>
      </trkpt>
      <trkpt lat="69.57781" lon="18.78386">
        <ele>10.20763</ele>
        <time>2020-08-27T11:42:54.400Z</time>
      </trkpt>
      <trkpt lat="69.57782" lon="18.78378">
        <ele>10.140494</ele>
        <time>2020-08-27T11:42:54.773Z</time>
      </trkpt>
      <trkpt lat="69.57775" lon="18.78344">
        <ele>9.756414</ele>
        <time>2020-08-27T11:42:56.418Z</time>
      </trkpt>
      <trkpt lat="69.57764" lon="18.78341">
        <ele>9.43801</ele>
        <time>2020-08-27T11:42:57.958Z</time>
      </trkpt>
      <trkpt lat="69.57761" lon="18.78345">
        <ele>9.330617</ele>
        <time>2020-08-27T11:42:58.488Z</time>
      </trkpt>
      <trkpt lat="69.57759" lon="18.7835">
        <ele>9.250738</ele>
        <time>2020-08-27T11:42:58.848Z</time>
      </trkpt>
      <trkpt lat="69.57756" lon="18.78363">
        <ele>9.105303</ele>
        <time>2020-08-27T11:42:59.544Z</time>
      </trkpt>
      <trkpt lat="69.57756" lon="18.78366">
        <ele>9.070772</ele>
        <time>2020-08-27T11:42:59.681Z</time>
      </trkpt>
      <trkpt lat="69.57756" lon="18.78371">
        <ele>9.0208</ele>
        <time>2020-08-27T11:42:59.882Z</time>
      </trkpt>
      <trkpt lat="69.57757" lon="18.78393">
        <ele>8.791861</ele>
        <time>2020-08-27T11:43:00.870Z</time>
      </trkpt>
      <trkpt lat="69.57758" lon="18.78398">
        <ele>8.730286</ele>
        <time>2020-08-27T11:43:01.124Z</time>
      </trkpt>
      <trkpt lat="69.57749" lon="18.78454">
        <ele>8.116297</ele>
        <time>2020-08-27T11:43:04.098Z</time>
      </trkpt>
      <trkpt lat="69.57748" lon="18.78474">
        <ele>7.902932</ele>
        <time>2020-08-27T11:43:05.018Z</time>
      </trkpt>
      <trkpt lat="69.57744" lon="18.78489">
        <ele>7.718573</ele>
        <time>2020-08-27T11:43:05.787Z</time>
      </trkpt>
      <trkpt lat="69.5773" lon="18.78531">
        <ele>7.126537</ele>
        <time>2020-08-27T11:43:08.658Z</time>
      </trkpt>
      <trkpt lat="69.57707" lon="18.78569">
        <ele>6.34754</ele>
        <time>2020-08-27T11:43:12.161Z</time>
      </trkpt>
      <trkpt lat="69.57684" lon="18.78586">
        <ele>5.682502</ele>
        <time>2020-08-27T11:43:15.196Z</time>
      </trkpt>
      <trkpt lat="69.57661" lon="18.78585">
        <ele>5.015038</ele>
        <time>2020-08-27T11:43:18.427Z</time>
      </trkpt>
      <trkpt lat="69.57622" lon="18.78541">
        <ele>4.518936</ele>
        <time>2020-08-27T11:43:24.212Z</time>
      </trkpt>
      <trkpt lat="69.5758" lon="18.78432">
        <ele>3.959966</ele>
        <time>2020-08-27T11:43:33.023Z</time>
      </trkpt>
      <trkpt lat="69.57517" lon="18.78254">
        <ele>3.106763</ele>
        <time>2020-08-27T11:43:48.264Z</time>
      </trkpt>
      <trkpt lat="69.57468" lon="18.78115">
        <ele>2.77865</ele>
        <time>2020-08-27T11:44:00.691Z</time>
      </trkpt>
      <trkpt lat="69.57432" lon="18.78028">
        <ele>2.554125</ele>
        <time>2020-08-27T11:44:08.951Z</time>
      </trkpt>
      <trkpt lat="69.57394" lon="18.77966">
        <ele>2.343409</ele>
        <time>2020-08-27T11:44:16.329Z</time>
      </trkpt>
      <trkpt lat="69.5735" lon="18.77929">
        <ele>2.011593</ele>
        <time>2020-08-27T11:44:23.696Z</time>
      </trkpt>
      <trkpt lat="69.57307" lon="18.7792">
        <ele>1.633353</ele>
        <time>2020-08-27T11:44:30.620Z</time>
      </trkpt>
      <trkpt lat="69.57262" lon="18.77939">
        <ele>1.230035</ele>
        <time>2020-08-27T11:44:38.087Z</time>
      </trkpt>
      <trkpt lat="69.57217" lon="18.77989">
        <ele>0.805515</ele>
        <time>2020-08-27T11:44:46.082Z</time>
      </trkpt>
      <trkpt lat="69.57182" lon="18.78056">
        <ele>0.5923</ele>
        <time>2020-08-27T11:44:53.130Z</time>
      </trkpt>
      <trkpt lat="69.57147" lon="18.78156">
        <ele>0.430448</ele>
        <time>2020-08-27T11:45:01.690Z</time>
      </trkpt>
      <trkpt lat="69.57086" lon="18.78361">
        <ele>0.121822</ele>
        <time>2020-08-27T11:45:18.645Z</time>
      </trkpt>
      <trkpt lat="69.56146" lon="18.81462">
        <ele>4.009823</ele>
        <time>2020-08-27T11:49:54.756Z</time>
      </trkpt>
      <trkpt lat="69.56144" lon="18.81467">
        <ele>4.029031</ele>
        <time>2020-08-27T11:49:55.451Z</time>
      </trkpt>
      <trkpt lat="69.56119" lon="18.81549">
        <ele>5.201726</ele>
        <time>2020-08-27T11:50:07.231Z</time>
      </trkpt>
      <trkpt lat="69.56079" lon="18.8166">
        <ele>7.388247</ele>
        <time>2020-08-27T11:50:25.411Z</time>
      </trkpt>
      <trkpt lat="69.56045" lon="18.81723">
        <ele>8.977528</ele>
        <time>2020-08-27T11:50:39.153Z</time>
      </trkpt>
      <trkpt lat="69.56001" lon="18.81775">
        <ele>10.885891</ele>
        <time>2020-08-27T11:50:55.679Z</time>
      </trkpt>
      <trkpt lat="69.5595" lon="18.81799">
        <ele>11.45298</ele>
        <time>2020-08-27T11:51:10.817Z</time>
      </trkpt>
      <trkpt lat="69.55899" lon="18.8179">
        <ele>11.733571</ele>
        <time>2020-08-27T11:51:24.083Z</time>
      </trkpt>
      <trkpt lat="69.5585" lon="18.81747">
        <ele>12.018717</ele>
        <time>2020-08-27T11:51:32.158Z</time>
      </trkpt>
      <trkpt lat="69.55806" lon="18.81675">
        <ele>11.556879</ele>
        <time>2020-08-27T11:51:39.388Z</time>
      </trkpt>
      <trkpt lat="69.55773" lon="18.81588">
        <ele>9.657979</ele>
        <time>2020-08-27T11:51:45.349Z</time>
      </trkpt>
      <trkpt lat="69.55768" lon="18.81575">
        <ele>9.401938</ele>
        <time>2020-08-27T11:51:46.021Z</time>
      </trkpt>
      <trkpt lat="69.55765" lon="18.81561">
        <ele>9.142225</ele>
        <time>2020-08-27T11:51:46.738Z</time>
      </trkpt>
      <trkpt lat="69.55734" lon="18.81414">
        <ele>6.635662</ele>
        <time>2020-08-27T11:51:54.407Z</time>
      </trkpt>
      <trkpt lat="69.55732" lon="18.81403">
        <ele>6.459069</ele>
        <time>2020-08-27T11:51:54.850Z</time>
      </trkpt>
      <trkpt lat="69.55732" lon="18.81389">
        <ele>6.24746</ele>
        <time>2020-08-27T11:51:55.418Z</time>
      </trkpt>
      <trkpt lat="69.55729" lon="18.8134">
        <ele>5.528621</ele>
        <time>2020-08-27T11:51:57.888Z</time>
      </trkpt>
      <trkpt lat="69.55729" lon="18.81328">
        <ele>5.360326</ele>
        <time>2020-08-27T11:51:58.402Z</time>
      </trkpt>
      <trkpt lat="69.5573" lon="18.81325">
        <ele>5.291806</ele>
        <time>2020-08-27T11:51:58.632Z</time>
      </trkpt>
      <trkpt lat="69.55733" lon="18.81314">
        <ele>5.089429</ele>
        <time>2020-08-27T11:51:59.228Z</time>
      </trkpt>
      <trkpt lat="69.55733" lon="18.81309">
        <ele>5.021904</ele>
        <time>2020-08-27T11:51:59.396Z</time>
      </trkpt>
      <trkpt lat="69.55733" lon="18.81305">
        <ele>4.953613</ele>
        <time>2020-08-27T11:51:59.565Z</time>
      </trkpt>
      <trkpt lat="69.55732" lon="18.81282">
        <ele>4.66335</ele>
        <time>2020-08-27T11:52:00.491Z</time>
      </trkpt>
      <trkpt lat="69.55731" lon="18.81278">
        <ele>4.636239</ele>
        <time>2020-08-27T11:52:00.709Z</time>
      </trkpt>
      <trkpt lat="69.5573" lon="18.81275">
        <ele>4.607567</ele>
        <time>2020-08-27T11:52:00.954Z</time>
      </trkpt>
      <trkpt lat="69.55718" lon="18.81264">
        <ele>4.394588</ele>
        <time>2020-08-27T11:52:02.894Z</time>
      </trkpt>
      <trkpt lat="69.55709" lon="18.81282">
        <ele>4.205833</ele>
        <time>2020-08-27T11:52:04.202Z</time>
      </trkpt>
      <trkpt lat="69.55709" lon="18.81286">
        <ele>4.177937</ele>
        <time>2020-08-27T11:52:04.372Z</time>
      </trkpt>
      <trkpt lat="69.55705" lon="18.81291">
        <ele>4.106163</ele>
        <time>2020-08-27T11:52:04.853Z</time>
      </trkpt>
      <trkpt lat="69.55687" lon="18.81307">
        <ele>3.784689</ele>
        <time>2020-08-27T11:52:07.616Z</time>
      </trkpt>
      <trkpt lat="69.55682" lon="18.81314">
        <ele>3.691236</ele>
        <time>2020-08-27T11:52:08.392Z</time>
      </trkpt>
      <trkpt lat="69.5563" lon="18.81334">
        <ele>2.79442</ele>
        <time>2020-08-27T11:52:15.679Z</time>
      </trkpt>
      <trkpt lat="69.55595" lon="18.81347">
        <ele>2.192186</ele>
        <time>2020-08-27T11:52:21.856Z</time>
      </trkpt>
      <trkpt lat="69.55513" lon="18.81373">
        <ele>2.016456</ele>
        <time>2020-08-27T11:52:38.743Z</time>
      </trkpt>
      <trkpt lat="69.55465" lon="18.81341">
        <ele>2.435168</ele>
        <time>2020-08-27T11:52:49.041Z</time>
      </trkpt>
      <trkpt lat="69.55346" lon="18.81085">
        <ele>3.845002</ele>
        <time>2020-08-27T11:53:20.289Z</time>
      </trkpt>
      <trkpt lat="69.55313" lon="18.80974">
        <ele>4.388752</ele>
        <time>2020-08-27T11:53:30.993Z</time>
      </trkpt>
      <trkpt lat="69.55312" lon="18.80969">
        <ele>4.409882</ele>
        <time>2020-08-27T11:53:31.489Z</time>
      </trkpt>
      <trkpt lat="69.55308" lon="18.80944">
        <ele>4.516031</ele>
        <time>2020-08-27T11:53:33.609Z</time>
      </trkpt>
      <trkpt lat="69.55288" lon="18.80834">
        <ele>4.980256</ele>
        <time>2020-08-27T11:53:42.658Z</time>
      </trkpt>
      <trkpt lat="69.55285" lon="18.80817">
        <ele>5.052142</ele>
        <time>2020-08-27T11:53:44.273Z</time>
      </trkpt>
      <trkpt lat="69.55283" lon="18.80804">
        <ele>5.098597</ele>
        <time>2020-08-27T11:53:45.402Z</time>
      </trkpt>
      <trkpt lat="69.55253" lon="18.80643">
        <ele>5.647551</ele>
        <time>2020-08-27T11:53:59.434Z</time>
      </trkpt>
      <trkpt lat="69.55218" lon="18.80492">
        <ele>6.193979</ele>
        <time>2020-08-27T11:54:12.651Z</time>
      </trkpt>
      <trkpt lat="69.5521" lon="18.80463">
        <ele>6.298867</ele>
        <time>2020-08-27T11:54:15.322Z</time>
      </trkpt>
      <trkpt lat="69.55194" lon="18.80401">
        <ele>6.531869</ele>
        <time>2020-08-27T11:54:20.379Z</time>
      </trkpt>
      <trkpt lat="69.55183" lon="18.8036">
        <ele>6.569265</ele>
        <time>2020-08-27T11:54:23.676Z</time>
      </trkpt>
      <trkpt lat="69.55168" lon="18.80308">
        <ele>6.478468</ele>
        <time>2020-08-27T11:54:28.020Z</time>
      </trkpt>
      <trkpt lat="69.55153" lon="18.80255">
        <ele>6.387177</ele>
        <time>2020-08-27T11:54:32.043Z</time>
      </trkpt>
      <trkpt lat="69.55121" lon="18.80169">
        <ele>6.219492</ele>
        <time>2020-08-27T11:54:39.427Z</time>
      </trkpt>
      <trkpt lat="69.54959" lon="18.79847">
        <ele>5.627259</ele>
        <time>2020-08-27T11:55:10.641Z</time>
      </trkpt>
      <trkpt lat="69.5493" lon="18.79811">
        <ele>5.549662</ele>
        <time>2020-08-27T11:55:16.804Z</time>
      </trkpt>
      <trkpt lat="69.54828" lon="18.79732">
        <ele>6.860986</ele>
        <time>2020-08-27T11:55:38.903Z</time>
      </trkpt>
      <trkpt lat="69.54826" lon="18.7973">
        <ele>6.906298</ele>
        <time>2020-08-27T11:55:40.430Z</time>
      </trkpt>
      <trkpt lat="69.54823" lon="18.79726">
        <ele>6.959845</ele>
        <time>2020-08-27T11:55:40.992Z</time>
      </trkpt>
      <trkpt lat="69.5469" lon="18.79518">
        <ele>9.858411</ele>
        <time>2020-08-27T11:56:19.350Z</time>
      </trkpt>
      <trkpt lat="69.54648" lon="18.79473">
        <ele>10.767097</ele>
        <time>2020-08-27T11:56:30.583Z</time>
      </trkpt>
      <trkpt lat="69.54575" lon="18.79431">
        <ele>12.286893</ele>
        <time>2020-08-27T11:56:48.540Z</time>
      </trkpt>
      <trkpt lat="69.54551" lon="18.79395">
        <ele>12.50404</ele>
        <time>2020-08-27T11:56:54.650Z</time>
      </trkpt>
      <trkpt lat="69.54525" lon="18.79335">
        <ele>12.620293</ele>
        <time>2020-08-27T11:57:01.926Z</time>
      </trkpt>
      <trkpt lat="69.54521" lon="18.79321">
        <ele>12.643345</ele>
        <time>2020-08-27T11:57:03.697Z</time>
      </trkpt>
      <trkpt lat="69.54517" lon="18.79309">
        <ele>12.662568</ele>
        <time>2020-08-27T11:57:04.826Z</time>
      </trkpt>
      <trkpt lat="69.54515" lon="18.79303">
        <ele>12.671714</ele>
        <time>2020-08-27T11:57:05.325Z</time>
      </trkpt>
      <trkpt lat="69.54507" lon="18.79263">
        <ele>12.72876</ele>
        <time>2020-08-27T11:57:08.570Z</time>
      </trkpt>
      <trkpt lat="69.54505" lon="18.79252">
        <ele>12.743371</ele>
        <time>2020-08-27T11:57:09.208Z</time>
      </trkpt>
      <trkpt lat="69.54503" lon="18.79239">
        <ele>12.760727</ele>
        <time>2020-08-27T11:57:10.418Z</time>
      </trkpt>
      <trkpt lat="69.54481" lon="18.79036">
        <ele>13.017535</ele>
        <time>2020-08-27T11:57:23.404Z</time>
      </trkpt>
      <trkpt lat="69.5448" lon="18.79016">
        <ele>13.042381</ele>
        <time>2020-08-27T11:57:24.503Z</time>
      </trkpt>
      <trkpt lat="69.54478" lon="18.78977">
        <ele>12.911377</ele>
        <time>2020-08-27T11:57:26.650Z</time>
      </trkpt>
      <trkpt lat="69.54476" lon="18.78953">
        <ele>12.751249</ele>
        <time>2020-08-27T11:57:27.849Z</time>
      </trkpt>
      <trkpt lat="69.54425" lon="18.78377">
        <ele>9.382796</ele>
        <time>2020-08-27T11:57:56.967Z</time>
      </trkpt>
      <trkpt lat="69.54361" lon="18.77943">
        <ele>8.602981</ele>
        <time>2020-08-27T11:58:23.664Z</time>
      </trkpt>
      <trkpt lat="69.54356" lon="18.77911">
        <ele>8.805966</ele>
        <time>2020-08-27T11:58:26.215Z</time>
      </trkpt>
      <trkpt lat="69.54346" lon="18.77845">
        <ele>9.228232</ele>
        <time>2020-08-27T11:58:31.758Z</time>
      </trkpt>
      <trkpt lat="69.5433" lon="18.77745">
        <ele>9.875278</ele>
        <time>2020-08-27T11:58:40.928Z</time>
      </trkpt>
      <trkpt lat="69.543" lon="18.77555">
        <ele>11.103493</ele>
        <time>2020-08-27T11:59:00.846Z</time>
      </trkpt>
      <trkpt lat="69.54288" lon="18.77479">
        <ele>11.888535</ele>
        <time>2020-08-27T11:59:08.862Z</time>
      </trkpt>
      <trkpt lat="69.54275" lon="18.77385">
        <ele>12.859647</ele>
        <time>2020-08-27T11:59:18.737Z</time>
      </trkpt>
      <trkpt lat="69.54273" lon="18.77368">
        <ele>13.03865</ele>
        <time>2020-08-27T11:59:20.832Z</time>
      </trkpt>
      <trkpt lat="69.54271" lon="18.77353">
        <ele>13.180626</ele>
        <time>2020-08-27T11:59:22.668Z</time>
      </trkpt>
      <trkpt lat="69.54266" lon="18.77203">
        <ele>14.639063</ele>
        <time>2020-08-27T11:59:37.254Z</time>
      </trkpt>
      <trkpt lat="69.54283" lon="18.76819">
        <ele>16.685564</ele>
        <time>2020-08-27T12:00:09.161Z</time>
      </trkpt>
      <trkpt lat="69.54284" lon="18.76802">
        <ele>16.728814</ele>
        <time>2020-08-27T12:00:10.470Z</time>
      </trkpt>
      <trkpt lat="69.54284" lon="18.76792">
        <ele>16.754981</ele>
        <time>2020-08-27T12:00:10.969Z</time>
      </trkpt>
      <trkpt lat="69.54292" lon="18.76547">
        <ele>17.383885</ele>
        <time>2020-08-27T12:00:26.023Z</time>
      </trkpt>
      <trkpt lat="69.54294" lon="18.76516">
        <ele>17.353536</ele>
        <time>2020-08-27T12:00:27.749Z</time>
      </trkpt>
      <trkpt lat="69.54295" lon="18.76486">
        <ele>17.307813</ele>
        <time>2020-08-27T12:00:29.414Z</time>
      </trkpt>
      <trkpt lat="69.54317" lon="18.76021">
        <ele>16.624977</ele>
        <time>2020-08-27T12:00:56.166Z</time>
      </trkpt>
      <trkpt lat="69.54321" lon="18.7596">
        <ele>16.718022</ele>
        <time>2020-08-27T12:00:59.989Z</time>
      </trkpt>
      <trkpt lat="69.54325" lon="18.75907">
        <ele>16.800676</ele>
        <time>2020-08-27T12:01:03.700Z</time>
      </trkpt>
      <trkpt lat="69.54341" lon="18.75668">
        <ele>17.168665</ele>
        <time>2020-08-27T12:01:20.222Z</time>
      </trkpt>
      <trkpt lat="69.54349" lon="18.75386">
        <ele>17.898633</ele>
        <time>2020-08-27T12:01:40.929Z</time>
      </trkpt>
      <trkpt lat="69.54382" lon="18.74732">
        <ele>20.02379</ele>
        <time>2020-08-27T12:02:30.500Z</time>
      </trkpt>
      <trkpt lat="69.54383" lon="18.74546">
        <ele>20.511521</ele>
        <time>2020-08-27T12:02:43.218Z</time>
      </trkpt>
      <trkpt lat="69.54366" lon="18.74342">
        <ele>20.068622</ele>
        <time>2020-08-27T12:02:56.081Z</time>
      </trkpt>
      <trkpt lat="69.54249" lon="18.73345">
        <ele>15.707457</ele>
        <time>2020-08-27T12:03:50.408Z</time>
      </trkpt>
      <trkpt lat="69.54229" lon="18.73004">
        <ele>14.746139</ele>
        <time>2020-08-27T12:04:09.936Z</time>
      </trkpt>
      <trkpt lat="69.54213" lon="18.72909">
        <ele>14.90703</ele>
        <time>2020-08-27T12:04:16.547Z</time>
      </trkpt>
      <trkpt lat="69.54147" lon="18.72631">
        <ele>15.427953</ele>
        <time>2020-08-27T12:04:40.113Z</time>
      </trkpt>
      <trkpt lat="69.54127" lon="18.72501">
        <ele>15.642699</ele>
        <time>2020-08-27T12:04:50.448Z</time>
      </trkpt>
      <trkpt lat="69.54123" lon="18.72407">
        <ele>15.785357</ele>
        <time>2020-08-27T12:04:57.341Z</time>
      </trkpt>
      <trkpt lat="69.54129" lon="18.71886">
        <ele>16.368266</ele>
        <time>2020-08-27T12:05:30.721Z</time>
      </trkpt>
      <trkpt lat="69.54129" lon="18.71806">
        <ele>16.404372</ele>
        <time>2020-08-27T12:05:35.447Z</time>
      </trkpt>
      <trkpt lat="69.54129" lon="18.71768">
        <ele>16.421359</ele>
        <time>2020-08-27T12:05:37.507Z</time>
      </trkpt>
      <trkpt lat="69.54124" lon="18.71607">
        <ele>16.494336</ele>
        <time>2020-08-27T12:05:47.773Z</time>
      </trkpt>
      <trkpt lat="69.54087" lon="18.71329">
        <ele>17.676822</ele>
        <time>2020-08-27T12:06:09.876Z</time>
      </trkpt>
      <trkpt lat="69.54077" lon="18.71254">
        <ele>18.048654</ele>
        <time>2020-08-27T12:06:16.400Z</time>
      </trkpt>
      <trkpt lat="69.54069" lon="18.71199">
        <ele>18.319151</ele>
        <time>2020-08-27T12:06:21.693Z</time>
      </trkpt>
      <trkpt lat="69.54057" lon="18.71121">
        <ele>18.709531</ele>
        <time>2020-08-27T12:06:28.470Z</time>
      </trkpt>
      <trkpt lat="69.54025" lon="18.70979">
        <ele>19.137222</ele>
        <time>2020-08-27T12:06:41.881Z</time>
      </trkpt>
      <trkpt lat="69.54018" lon="18.70921">
        <ele>19.257803</ele>
        <time>2020-08-27T12:06:47.228Z</time>
      </trkpt>
      <trkpt lat="69.53995" lon="18.70424">
        <ele>19.238152</ele>
        <time>2020-08-27T12:07:17.681Z</time>
      </trkpt>
      <trkpt lat="69.53971" lon="18.70101">
        <ele>18.063126</ele>
        <time>2020-08-27T12:07:34.737Z</time>
      </trkpt>
      <trkpt lat="69.53955" lon="18.69935">
        <ele>17.252415</ele>
        <time>2020-08-27T12:07:43.540Z</time>
      </trkpt>
      <trkpt lat="69.53823" lon="18.69234">
        <ele>14.175205</ele>
        <time>2020-08-27T12:08:25.677Z</time>
      </trkpt>
      <trkpt lat="69.53752" lon="18.6874">
        <ele>14.544486</ele>
        <time>2020-08-27T12:09:00.829Z</time>
      </trkpt>
      <trkpt lat="69.53743" lon="18.6868">
        <ele>14.659555</ele>
        <time>2020-08-27T12:09:05.679Z</time>
      </trkpt>
      <trkpt lat="69.53736" lon="18.68628">
        <ele>14.828364</ele>
        <time>2020-08-27T12:09:09.872Z</time>
      </trkpt>
      <trkpt lat="69.53725" lon="18.68558">
        <ele>15.055985</ele>
        <time>2020-08-27T12:09:15.582Z</time>
      </trkpt>
      <trkpt lat="69.53718" lon="18.68511">
        <ele>15.209431</ele>
        <time>2020-08-27T12:09:19.240Z</time>
      </trkpt>
      <trkpt lat="69.53711" lon="18.68468">
        <ele>15.351026</ele>
        <time>2020-08-27T12:09:22.868Z</time>
      </trkpt>
      <trkpt lat="69.53701" lon="18.68403">
        <ele>15.565421</ele>
        <time>2020-08-27T12:09:28.044Z</time>
      </trkpt>
      <trkpt lat="69.53691" lon="18.68344">
        <ele>15.758292</ele>
        <time>2020-08-27T12:09:32.801Z</time>
      </trkpt>
      <trkpt lat="69.53687" lon="18.68312">
        <ele>15.864156</ele>
        <time>2020-08-27T12:09:35.393Z</time>
      </trkpt>
      <trkpt lat="69.53659" lon="18.68135">
        <ele>15.941335</ele>
        <time>2020-08-27T12:09:49.026Z</time>
      </trkpt>
      <trkpt lat="69.53643" lon="18.68035">
        <ele>15.728778</ele>
        <time>2020-08-27T12:09:55.894Z</time>
      </trkpt>
      <trkpt lat="69.53611" lon="18.67835">
        <ele>15.299255</ele>
        <time>2020-08-27T12:10:07.717Z</time>
      </trkpt>
      <trkpt lat="69.53607" lon="18.67806">
        <ele>15.238435</ele>
        <time>2020-08-27T12:10:09.389Z</time>
      </trkpt>
      <trkpt lat="69.53601" lon="18.67773">
        <ele>15.168278</ele>
        <time>2020-08-27T12:10:11.126Z</time>
      </trkpt>
      <trkpt lat="69.53597" lon="18.67747">
        <ele>15.106679</ele>
        <time>2020-08-27T12:10:12.673Z</time>
      </trkpt>
      <trkpt lat="69.5358" lon="18.6764">
        <ele>14.821635</ele>
        <time>2020-08-27T12:10:18.723Z</time>
      </trkpt>
      <trkpt lat="69.53562" lon="18.67521">
        <ele>14.506691</ele>
        <time>2020-08-27T12:10:25.474Z</time>
      </trkpt>
      <trkpt lat="69.53524" lon="18.67284">
        <ele>13.928125</ele>
        <time>2020-08-27T12:10:40.917Z</time>
      </trkpt>
      <trkpt lat="69.53499" lon="18.67119">
        <ele>14.834152</ele>
        <time>2020-08-27T12:10:54.937Z</time>
      </trkpt>
      <trkpt lat="69.53494" lon="18.67082">
        <ele>15.04088</ele>
        <time>2020-08-27T12:10:58.265Z</time>
      </trkpt>
      <trkpt lat="69.53485" lon="18.67025">
        <ele>15.354071</ele>
        <time>2020-08-27T12:11:03.286Z</time>
      </trkpt>
      <trkpt lat="69.53472" lon="18.66933">
        <ele>15.856266</ele>
        <time>2020-08-27T12:11:11.340Z</time>
      </trkpt>
      <trkpt lat="69.53457" lon="18.66835">
        <ele>16.396501</ele>
        <time>2020-08-27T12:11:20.443Z</time>
      </trkpt>
      <trkpt lat="69.53445" lon="18.66753">
        <ele>16.82558</ele>
        <time>2020-08-27T12:11:27.943Z</time>
      </trkpt>
      <trkpt lat="69.53439" lon="18.6671">
        <ele>17.046556</ele>
        <time>2020-08-27T12:11:31.782Z</time>
      </trkpt>
      <trkpt lat="69.53425" lon="18.66616">
        <ele>17.5323</ele>
        <time>2020-08-27T12:11:40.324Z</time>
      </trkpt>
      <trkpt lat="69.53418" lon="18.6657">
        <ele>17.773811</ele>
        <time>2020-08-27T12:11:44.459Z</time>
      </trkpt>
      <trkpt lat="69.53412" lon="18.66526">
        <ele>17.999732</ele>
        <time>2020-08-27T12:11:48.049Z</time>
      </trkpt>
      <trkpt lat="69.5341" lon="18.66514">
        <ele>18.057895</ele>
        <time>2020-08-27T12:11:48.936Z</time>
      </trkpt>
      <trkpt lat="69.53406" lon="18.66488">
        <ele>18.193983</ele>
        <time>2020-08-27T12:11:51.032Z</time>
      </trkpt>
      <trkpt lat="69.53403" lon="18.66462">
        <ele>18.327591</ele>
        <time>2020-08-27T12:11:53.198Z</time>
      </trkpt>
      <trkpt lat="69.53379" lon="18.66261">
        <ele>18.885491</ele>
        <time>2020-08-27T12:12:07.822Z</time>
      </trkpt>
      <trkpt lat="69.53376" lon="18.66228">
        <ele>18.861156</ele>
        <time>2020-08-27T12:12:10.316Z</time>
      </trkpt>
      <trkpt lat="69.53374" lon="18.66193">
        <ele>18.835377</ele>
        <time>2020-08-27T12:12:12.886Z</time>
      </trkpt>
      <trkpt lat="69.53366" lon="18.66026">
        <ele>18.714797</ele>
        <time>2020-08-27T12:12:23.918Z</time>
      </trkpt>
      <trkpt lat="69.53367" lon="18.65825">
        <ele>18.502352</ele>
        <time>2020-08-27T12:12:34.907Z</time>
      </trkpt>
      <trkpt lat="69.53368" lon="18.65755">
        <ele>17.826745</ele>
        <time>2020-08-27T12:12:38.426Z</time>
      </trkpt>
      <trkpt lat="69.53369" lon="18.65636">
        <ele>16.664996</ele>
        <time>2020-08-27T12:12:44.127Z</time>
      </trkpt>
      <trkpt lat="69.53374" lon="18.65274">
        <ele>13.208612</ele>
        <time>2020-08-27T12:13:00.438Z</time>
      </trkpt>
      <trkpt lat="69.53372" lon="18.64991">
        <ele>10.8509</ele>
        <time>2020-08-27T12:13:13.730Z</time>
      </trkpt>
      <trkpt lat="69.53371" lon="18.64971">
        <ele>10.685317</ele>
        <time>2020-08-27T12:13:14.601Z</time>
      </trkpt>
      <trkpt lat="69.53364" lon="18.64831">
        <ele>9.503127</ele>
        <time>2020-08-27T12:13:21.835Z</time>
      </trkpt>
      <trkpt lat="69.53346" lon="18.64422">
        <ele>8.587037</ele>
        <time>2020-08-27T12:13:45.532Z</time>
      </trkpt>
      <trkpt lat="69.53346" lon="18.64405">
        <ele>8.556031</ele>
        <time>2020-08-27T12:13:46.746Z</time>
      </trkpt>
      <trkpt lat="69.53346" lon="18.64376">
        <ele>8.502961</ele>
        <time>2020-08-27T12:13:48.521Z</time>
      </trkpt>
      <trkpt lat="69.53361" lon="18.64111">
        <ele>8.047629</ele>
        <time>2020-08-27T12:14:05.100Z</time>
      </trkpt>
      <trkpt lat="69.53413" lon="18.637">
        <ele>7.231532</ele>
        <time>2020-08-27T12:14:29.646Z</time>
      </trkpt>
      <trkpt lat="69.53426" lon="18.63561">
        <ele>6.862107</ele>
        <time>2020-08-27T12:14:37.450Z</time>
      </trkpt>
      <trkpt lat="69.53438" lon="18.63392">
        <ele>6.423897</ele>
        <time>2020-08-27T12:14:46.706Z</time>
      </trkpt>
      <trkpt lat="69.53456" lon="18.62985">
        <ele>6.34614</ele>
        <time>2020-08-27T12:15:12.444Z</time>
      </trkpt>
      <trkpt lat="69.53457" lon="18.62958">
        <ele>6.358806</ele>
        <time>2020-08-27T12:15:14.231Z</time>
      </trkpt>
      <trkpt lat="69.53459" lon="18.62905">
        <ele>6.383882</ele>
        <time>2020-08-27T12:15:17.943Z</time>
      </trkpt>
      <trkpt lat="69.53468" lon="18.62706">
        <ele>6.411589</ele>
        <time>2020-08-27T12:15:31.433Z</time>
      </trkpt>
      <trkpt lat="69.53468" lon="18.62694">
        <ele>6.40817</ele>
        <time>2020-08-27T12:15:32.486Z</time>
      </trkpt>
      <trkpt lat="69.53469" lon="18.62654">
        <ele>6.396894</ele>
        <time>2020-08-27T12:15:35.010Z</time>
      </trkpt>
      <trkpt lat="69.53464" lon="18.62096">
        <ele>6.05126</ele>
        <time>2020-08-27T12:16:08.351Z</time>
      </trkpt>
      <trkpt lat="69.53463" lon="18.62073">
        <ele>6.021824</ele>
        <time>2020-08-27T12:16:09.501Z</time>
      </trkpt>
      <trkpt lat="69.53462" lon="18.62041">
        <ele>5.979715</ele>
        <time>2020-08-27T12:16:11.426Z</time>
      </trkpt>
      <trkpt lat="69.53462" lon="18.62007">
        <ele>5.934543</ele>
        <time>2020-08-27T12:16:13.503Z</time>
      </trkpt>
      <trkpt lat="69.53461" lon="18.61979">
        <ele>5.898362</ele>
        <time>2020-08-27T12:16:14.977Z</time>
      </trkpt>
      <trkpt lat="69.5346" lon="18.6186">
        <ele>5.743305</ele>
        <time>2020-08-27T12:16:21.851Z</time>
      </trkpt>
      <trkpt lat="69.53456" lon="18.61643">
        <ele>5.658263</ele>
        <time>2020-08-27T12:16:34.959Z</time>
      </trkpt>
      <trkpt lat="69.53451" lon="18.61306">
        <ele>5.76219</ele>
        <time>2020-08-27T12:16:57.074Z</time>
      </trkpt>
      <trkpt lat="69.53445" lon="18.612">
        <ele>5.71175</ele>
        <time>2020-08-27T12:17:03.736Z</time>
      </trkpt>
      <trkpt lat="69.53444" lon="18.61167">
        <ele>5.668946</ele>
        <time>2020-08-27T12:17:06.065Z</time>
      </trkpt>
      <trkpt lat="69.53442" lon="18.6114">
        <ele>5.63433</ele>
        <time>2020-08-27T12:17:07.754Z</time>
      </trkpt>
      <trkpt lat="69.53431" lon="18.60961">
        <ele>5.403389</ele>
        <time>2020-08-27T12:17:18.576Z</time>
      </trkpt>
      <trkpt lat="69.53428" lon="18.60919">
        <ele>5.349513</ele>
        <time>2020-08-27T12:17:21.086Z</time>
      </trkpt>
      <trkpt lat="69.53426" lon="18.60904">
        <ele>5.329599</ele>
        <time>2020-08-27T12:17:21.841Z</time>
      </trkpt>
      <trkpt lat="69.53364" lon="18.60434">
        <ele>4.496205</ele>
        <time>2020-08-27T12:17:50.257Z</time>
      </trkpt>
      <trkpt lat="69.53334" lon="18.60296">
        <ele>4.198857</ele>
        <time>2020-08-27T12:17:59.845Z</time>
      </trkpt>
      <trkpt lat="69.53293" lon="18.60149">
        <ele>3.993357</ele>
        <time>2020-08-27T12:18:11.182Z</time>
      </trkpt>
      <trkpt lat="69.5328" lon="18.6011">
        <ele>3.938855</ele>
        <time>2020-08-27T12:18:14.335Z</time>
      </trkpt>
      <trkpt lat="69.53273" lon="18.60084">
        <ele>3.902664</ele>
        <time>2020-08-27T12:18:16.402Z</time>
      </trkpt>
      <trkpt lat="69.53212" lon="18.59872">
        <ele>3.603235</ele>
        <time>2020-08-27T12:18:32.697Z</time>
      </trkpt>
      <trkpt lat="69.53111" lon="18.59726">
        <ele>3.084896</ele>
        <time>2020-08-27T12:18:51.195Z</time>
      </trkpt>
      <trkpt lat="69.53046" lon="18.59584">
        <ele>2.93034</ele>
        <time>2020-08-27T12:19:04.846Z</time>
      </trkpt>
      <trkpt lat="69.53036" lon="18.59557">
        <ele>2.993198</ele>
        <time>2020-08-27T12:19:07.071Z</time>
      </trkpt>
      <trkpt lat="69.53025" lon="18.59529">
        <ele>3.060993</ele>
        <time>2020-08-27T12:19:09.633Z</time>
      </trkpt>
      <trkpt lat="69.52977" lon="18.59405">
        <ele>3.361082</ele>
        <time>2020-08-27T12:19:22.007Z</time>
      </trkpt>
      <trkpt lat="69.52886" lon="18.59272">
        <ele>4.341547</ele>
        <time>2020-08-27T12:19:44.284Z</time>
      </trkpt>
      <trkpt lat="69.52863" lon="18.59237">
        <ele>4.794543</ele>
        <time>2020-08-27T12:19:50.163Z</time>
      </trkpt>
      <trkpt lat="69.52849" lon="18.59217">
        <ele>5.07248</ele>
        <time>2020-08-27T12:19:54.315Z</time>
      </trkpt>
      <trkpt lat="69.52813" lon="18.59159">
        <ele>5.793647</ele>
        <time>2020-08-27T12:20:04.127Z</time>
      </trkpt>
      <trkpt lat="69.52771" lon="18.59052">
        <ele>6.774058</ele>
        <time>2020-08-27T12:20:17.498Z</time>
      </trkpt>
      <trkpt lat="69.52768" lon="18.59041">
        <ele>6.871541</ele>
        <time>2020-08-27T12:20:19.000Z</time>
      </trkpt>
      <trkpt lat="69.52763" lon="18.59028">
        <ele>7.002011</ele>
        <time>2020-08-27T12:20:20.635Z</time>
      </trkpt>
      <trkpt lat="69.52633" lon="18.58594">
        <ele>11.404875</ele>
        <time>2020-08-27T12:21:08.800Z</time>
      </trkpt>
      <trkpt lat="69.52608" lon="18.58488">
        <ele>12.851363</ele>
        <time>2020-08-27T12:21:20.986Z</time>
      </trkpt>
      <trkpt lat="69.5259" lon="18.58371">
        <ele>14.297139</ele>
        <time>2020-08-27T12:21:33.902Z</time>
      </trkpt>
      <trkpt lat="69.52551" lon="18.58052">
        <ele>18.134588</ele>
        <time>2020-08-27T12:22:10.560Z</time>
      </trkpt>
      <trkpt lat="69.5253" lon="18.57802">
        <ele>21.055469</ele>
        <time>2020-08-27T12:22:36.688Z</time>
      </trkpt>
      <trkpt lat="69.52519" lon="18.57484">
        <ele>22.680051</ele>
        <time>2020-08-27T12:23:02.097Z</time>
      </trkpt>
      <trkpt lat="69.52515" lon="18.57084">
        <ele>23.656663</ele>
        <time>2020-08-27T12:23:26.642Z</time>
      </trkpt>
      <trkpt lat="69.52484" lon="18.56733">
        <ele>24.399878</ele>
        <time>2020-08-27T12:23:52.318Z</time>
      </trkpt>
      <trkpt lat="69.52444" lon="18.56451">
        <ele>24.380568</ele>
        <time>2020-08-27T12:24:14.678Z</time>
      </trkpt>
      <trkpt lat="69.52256" lon="18.55244">
        <ele>18.8589</ele>
        <time>2020-08-27T12:25:24.325Z</time>
      </trkpt>
      <trkpt lat="69.52151" lon="18.54522">
        <ele>10.659926</ele>
        <time>2020-08-27T12:25:59.562Z</time>
      </trkpt>
      <trkpt lat="69.5211" lon="18.54275">
        <ele>8.421771</ele>
        <time>2020-08-27T12:26:13.432Z</time>
      </trkpt>
      <trkpt lat="69.52108" lon="18.54264">
        <ele>8.365537</ele>
        <time>2020-08-27T12:26:14.006Z</time>
      </trkpt>
      <trkpt lat="69.521" lon="18.54228">
        <ele>8.185587</ele>
        <time>2020-08-27T12:26:16.622Z</time>
      </trkpt>
      <trkpt lat="69.52098" lon="18.54221">
        <ele>8.149628</ele>
        <time>2020-08-27T12:26:17.297Z</time>
      </trkpt>
      <trkpt lat="69.52034" lon="18.54016">
        <ele>7.004285</ele>
        <time>2020-08-27T12:26:32.264Z</time>
      </trkpt>
      <trkpt lat="69.51957" lon="18.53684">
        <ele>5.824023</ele>
        <time>2020-08-27T12:26:53.071Z</time>
      </trkpt>
      <trkpt lat="69.51952" lon="18.53661">
        <ele>5.751472</ele>
        <time>2020-08-27T12:26:54.452Z</time>
      </trkpt>
      <trkpt lat="69.51946" lon="18.53641">
        <ele>5.687279</ele>
        <time>2020-08-27T12:26:55.703Z</time>
      </trkpt>
      <trkpt lat="69.51914" lon="18.53556">
        <ele>5.371086</ele>
        <time>2020-08-27T12:27:03.332Z</time>
      </trkpt>
      <trkpt lat="69.51876" lon="18.53478">
        <ele>6.245603</ele>
        <time>2020-08-27T12:27:13.726Z</time>
      </trkpt>
      <trkpt lat="69.51857" lon="18.53443">
        <ele>6.922201</ele>
        <time>2020-08-27T12:27:18.341Z</time>
      </trkpt>
      <trkpt lat="69.51846" lon="18.53422">
        <ele>7.312902</ele>
        <time>2020-08-27T12:27:22.348Z</time>
      </trkpt>
      <trkpt lat="69.51785" lon="18.53311">
        <ele>9.461284</ele>
        <time>2020-08-27T12:27:43.522Z</time>
      </trkpt>
      <trkpt lat="69.51759" lon="18.53243">
        <ele>10.513946</ele>
        <time>2020-08-27T12:27:55.308Z</time>
      </trkpt>
      <trkpt lat="69.51738" lon="18.53143">
        <ele>11.634664</ele>
        <time>2020-08-27T12:28:09.168Z</time>
      </trkpt>
      <trkpt lat="69.51729" lon="18.53021">
        <ele>12.815782</ele>
        <time>2020-08-27T12:28:22.673Z</time>
      </trkpt>
      <trkpt lat="69.51733" lon="18.52844">
        <ele>14.488771</ele>
        <time>2020-08-27T12:28:39.097Z</time>
      </trkpt>
      <trkpt lat="69.51745" lon="18.52708">
        <ele>15.270668</ele>
        <time>2020-08-27T12:28:48.926Z</time>
      </trkpt>
      <trkpt lat="69.51758" lon="18.52634">
        <ele>14.675321</ele>
        <time>2020-08-27T12:28:53.109Z</time>
      </trkpt>
      <trkpt lat="69.518" lon="18.52467">
        <ele>13.214952</ele>
        <time>2020-08-27T12:29:02.795Z</time>
      </trkpt>
      <trkpt lat="69.51819" lon="18.52364">
        <ele>12.380324</ele>
        <time>2020-08-27T12:29:08.247Z</time>
      </trkpt>
      <trkpt lat="69.51823" lon="18.52335">
        <ele>12.160278</ele>
        <time>2020-08-27T12:29:09.542Z</time>
      </trkpt>
      <trkpt lat="69.51826" lon="18.52304">
        <ele>11.930047</ele>
        <time>2020-08-27T12:29:11.066Z</time>
      </trkpt>
      <trkpt lat="69.51833" lon="18.52193">
        <ele>11.745897</ele>
        <time>2020-08-27T12:29:16.410Z</time>
      </trkpt>
      <trkpt lat="69.51831" lon="18.52094">
        <ele>11.655054</ele>
        <time>2020-08-27T12:29:21.263Z</time>
      </trkpt>
      <trkpt lat="69.51782" lon="18.51467">
        <ele>12.932557</ele>
        <time>2020-08-27T12:30:10.756Z</time>
      </trkpt>
      <trkpt lat="69.51779" lon="18.51436">
        <ele>13.082588</ele>
        <time>2020-08-27T12:30:14.127Z</time>
      </trkpt>
      <trkpt lat="69.51766" lon="18.51315">
        <ele>13.688541</ele>
        <time>2020-08-27T12:30:24.281Z</time>
      </trkpt>
      <trkpt lat="69.51753" lon="18.51143">
        <ele>13.503098</ele>
        <time>2020-08-27T12:30:36.833Z</time>
      </trkpt>
      <trkpt lat="69.51756" lon="18.50742">
        <ele>12.707508</ele>
        <time>2020-08-27T12:30:57.887Z</time>
      </trkpt>
      <trkpt lat="69.51742" lon="18.50566">
        <ele>12.678651</ele>
        <time>2020-08-27T12:31:06.914Z</time>
      </trkpt>
      <trkpt lat="69.51693" lon="18.50283">
        <ele>12.850533</ele>
        <time>2020-08-27T12:31:28.584Z</time>
      </trkpt>
      <trkpt lat="69.51659" lon="18.50051">
        <ele>16.105612</ele>
        <time>2020-08-27T12:31:53.954Z</time>
      </trkpt>
      <trkpt lat="69.51569" lon="18.49632">
        <ele>23.089018</ele>
        <time>2020-08-27T12:32:51.838Z</time>
      </trkpt>
      <trkpt lat="69.51507" lon="18.49151">
        <ele>29.866498</ele>
        <time>2020-08-27T12:33:46.566Z</time>
      </trkpt>
      <trkpt lat="69.51501" lon="18.49098">
        <ele>30.465593</ele>
        <time>2020-08-27T12:33:51.739Z</time>
      </trkpt>
      <trkpt lat="69.51499" lon="18.49077">
        <ele>30.709927</ele>
        <time>2020-08-27T12:33:54.213Z</time>
      </trkpt>
      <trkpt lat="69.51465" lon="18.48703">
        <ele>33.196807</ele>
        <time>2020-08-27T12:34:27.052Z</time>
      </trkpt>
      <trkpt lat="69.51422" lon="18.47933">
        <ele>33.073997</ele>
        <time>2020-08-27T12:35:13.382Z</time>
      </trkpt>
      <trkpt lat="69.51319" lon="18.46771">
        <ele>27.306117</ele>
        <time>2020-08-27T12:36:15.849Z</time>
      </trkpt>
      <trkpt lat="69.51284" lon="18.46069">
        <ele>23.451312</ele>
        <time>2020-08-27T12:36:51.044Z</time>
      </trkpt>
      <trkpt lat="69.51269" lon="18.4594">
        <ele>22.854292</ele>
        <time>2020-08-27T12:36:58.820Z</time>
      </trkpt>
      <trkpt lat="69.51234" lon="18.45733">
        <ele>23.115643</ele>
        <time>2020-08-27T12:37:13.661Z</time>
      </trkpt>
      <trkpt lat="69.51117" lon="18.45123">
        <ele>26.349534</ele>
        <time>2020-08-27T12:38:08.261Z</time>
      </trkpt>
      <trkpt lat="69.51066" lon="18.44952">
        <ele>27.901835</ele>
        <time>2020-08-27T12:38:27.788Z</time>
      </trkpt>
      <trkpt lat="69.50985" lon="18.44756">
        <ele>30.779008</ele>
        <time>2020-08-27T12:38:55.978Z</time>
      </trkpt>
      <trkpt lat="69.5084" lon="18.44453">
        <ele>35.851214</ele>
        <time>2020-08-27T12:39:45.284Z</time>
      </trkpt>
      <trkpt lat="69.50769" lon="18.44345">
        <ele>37.872078</ele>
        <time>2020-08-27T12:40:07.088Z</time>
      </trkpt>
      <trkpt lat="69.5058" lon="18.44223">
        <ele>39.681522</ele>
        <time>2020-08-27T12:40:51.875Z</time>
      </trkpt>
      <trkpt lat="69.50525" lon="18.44201">
        <ele>38.3958</ele>
        <time>2020-08-27T12:41:00.151Z</time>
      </trkpt>
      <trkpt lat="69.50339" lon="18.44209">
        <ele>30.548403</ele>
        <time>2020-08-27T12:41:22.606Z</time>
      </trkpt>
      <trkpt lat="69.50274" lon="18.44229">
        <ele>26.770751</ele>
        <time>2020-08-27T12:41:30.099Z</time>
      </trkpt>
      <trkpt lat="69.50255" lon="18.44241">
        <ele>25.681406</ele>
        <time>2020-08-27T12:41:32.362Z</time>
      </trkpt>
      <trkpt lat="69.50242" lon="18.44253">
        <ele>24.972099</ele>
        <time>2020-08-27T12:41:34.045Z</time>
      </trkpt>
      <trkpt lat="69.5023" lon="18.44264">
        <ele>24.352022</ele>
        <time>2020-08-27T12:41:35.530Z</time>
      </trkpt>
      <trkpt lat="69.50225" lon="18.44269">
        <ele>24.081417</ele>
        <time>2020-08-27T12:41:36.133Z</time>
      </trkpt>
      <trkpt lat="69.50217" lon="18.44278">
        <ele>23.650102</ele>
        <time>2020-08-27T12:41:37.113Z</time>
      </trkpt>
      <trkpt lat="69.50137" lon="18.44394">
        <ele>19.138469</ele>
        <time>2020-08-27T12:41:47.936Z</time>
      </trkpt>
      <trkpt lat="69.50056" lon="18.4457">
        <ele>15.987194</ele>
        <time>2020-08-27T12:42:01.103Z</time>
      </trkpt>
      <trkpt lat="69.50036" lon="18.44631">
        <ele>15.483647</ele>
        <time>2020-08-27T12:42:05.654Z</time>
      </trkpt>
      <trkpt lat="69.5003" lon="18.44648">
        <ele>15.353543</ele>
        <time>2020-08-27T12:42:06.621Z</time>
      </trkpt>
      <trkpt lat="69.49997" lon="18.44797">
        <ele>14.302546</ele>
        <time>2020-08-27T12:42:16.790Z</time>
      </trkpt>
      <trkpt lat="69.49991" lon="18.44839">
        <ele>14.038408</ele>
        <time>2020-08-27T12:42:19.005Z</time>
      </trkpt>
      <trkpt lat="69.4999" lon="18.44849">
        <ele>13.978261</ele>
        <time>2020-08-27T12:42:19.670Z</time>
      </trkpt>
      <trkpt lat="69.49987" lon="18.44872">
        <ele>14.020114</ele>
        <time>2020-08-27T12:42:21.639Z</time>
      </trkpt>
      <trkpt lat="69.49935" lon="18.45318">
        <ele>15.787311</ele>
        <time>2020-08-27T12:42:57.364Z</time>
      </trkpt>
      <trkpt lat="69.49901" lon="18.4552">
        <ele>16.564051</ele>
        <time>2020-08-27T12:43:16.278Z</time>
      </trkpt>
      <trkpt lat="69.49843" lon="18.45721">
        <ele>17.452105</ele>
        <time>2020-08-27T12:43:35.128Z</time>
      </trkpt>
      <trkpt lat="69.49672" lon="18.46178">
        <ele>17.258651</ele>
        <time>2020-08-27T12:44:14.390Z</time>
      </trkpt>
      <trkpt lat="69.49582" lon="18.46432">
        <ele>17.677385</ele>
        <time>2020-08-27T12:44:39.424Z</time>
      </trkpt>
      <trkpt lat="69.49553" lon="18.46516">
        <ele>17.620027</ele>
        <time>2020-08-27T12:44:47.654Z</time>
      </trkpt>
      <trkpt lat="69.49505" lon="18.46675">
        <ele>17.264867</ele>
        <time>2020-08-27T12:45:00.496Z</time>
      </trkpt>
      <trkpt lat="69.4948" lon="18.46739">
        <ele>17.102338</ele>
        <time>2020-08-27T12:45:05.894Z</time>
      </trkpt>
      <trkpt lat="69.49431" lon="18.46815">
        <ele>16.814366</ele>
        <time>2020-08-27T12:45:14.199Z</time>
      </trkpt>
      <trkpt lat="69.49334" lon="18.46926">
        <ele>16.046425</ele>
        <time>2020-08-27T12:45:29.058Z</time>
      </trkpt>
      <trkpt lat="69.49302" lon="18.46985">
        <ele>15.766561</ele>
        <time>2020-08-27T12:45:36.346Z</time>
      </trkpt>
      <trkpt lat="69.49275" lon="18.47065">
        <ele>15.710839</ele>
        <time>2020-08-27T12:45:44.673Z</time>
      </trkpt>
      <trkpt lat="69.49238" lon="18.47225">
        <ele>17.023321</ele>
        <time>2020-08-27T12:46:00.043Z</time>
      </trkpt>
      <trkpt lat="69.4923" lon="18.47249">
        <ele>17.243938</ele>
        <time>2020-08-27T12:46:03.657Z</time>
      </trkpt>
      <trkpt lat="69.49215" lon="18.47291">
        <ele>17.650675</ele>
        <time>2020-08-27T12:46:08.459Z</time>
      </trkpt>
      <trkpt lat="69.49168" lon="18.47393">
        <ele>18.81606</ele>
        <time>2020-08-27T12:46:24.073Z</time>
      </trkpt>
      <trkpt lat="69.49104" lon="18.47478">
        <ele>19.479995</ele>
        <time>2020-08-27T12:46:41.729Z</time>
      </trkpt>
      <trkpt lat="69.48999" lon="18.47649">
        <ele>20.353679</ele>
        <time>2020-08-27T12:47:03.445Z</time>
      </trkpt>
      <trkpt lat="69.48774" lon="18.47914">
        <ele>19.061776</ele>
        <time>2020-08-27T12:47:42.844Z</time>
      </trkpt>
      <trkpt lat="69.48699" lon="18.47984">
        <ele>18.648036</ele>
        <time>2020-08-27T12:47:55.869Z</time>
      </trkpt>
      <trkpt lat="69.4861" lon="18.48048">
        <ele>18.388051</ele>
        <time>2020-08-27T12:48:11.202Z</time>
      </trkpt>
      <trkpt lat="69.48542" lon="18.48123">
        <ele>18.303514</ele>
        <time>2020-08-27T12:48:24.056Z</time>
      </trkpt>
      <trkpt lat="69.48176" lon="18.48349">
        <ele>18.421982</ele>
        <time>2020-08-27T12:49:33.792Z</time>
      </trkpt>
      <trkpt lat="69.48092" lon="18.48356">
        <ele>17.399189</ele>
        <time>2020-08-27T12:49:46.366Z</time>
      </trkpt>
      <trkpt lat="69.47769" lon="18.48313">
        <ele>10.572428</ele>
        <time>2020-08-27T12:50:30.255Z</time>
      </trkpt>
      <trkpt lat="69.47739" lon="18.48319">
        <ele>10.956971</ele>
        <time>2020-08-27T12:50:35.503Z</time>
      </trkpt>
      <trkpt lat="69.47699" lon="18.48328">
        <ele>11.479015</ele>
        <time>2020-08-27T12:50:43.991Z</time>
      </trkpt>
      <trkpt lat="69.4761" lon="18.48329">
        <ele>12.614386</ele>
        <time>2020-08-27T12:51:06.427Z</time>
      </trkpt>
      <trkpt lat="69.47532" lon="18.48295">
        <ele>14.719885</ele>
        <time>2020-08-27T12:51:29.652Z</time>
      </trkpt>
      <trkpt lat="69.4748" lon="18.4825">
        <ele>16.299087</ele>
        <time>2020-08-27T12:51:44.990Z</time>
      </trkpt>
      <trkpt lat="69.47369" lon="18.48109">
        <ele>18.506466</ele>
        <time>2020-08-27T12:52:15.471Z</time>
      </trkpt>
      <trkpt lat="69.47305" lon="18.48051">
        <ele>19.059086</ele>
        <time>2020-08-27T12:52:29.034Z</time>
      </trkpt>
      <trkpt lat="69.4727" lon="18.48007">
        <ele>19.368986</ele>
        <time>2020-08-27T12:52:35.476Z</time>
      </trkpt>
      <trkpt lat="69.47226" lon="18.47922">
        <ele>18.503887</ele>
        <time>2020-08-27T12:52:43.611Z</time>
      </trkpt>
      <trkpt lat="69.46956" lon="18.47328">
        <ele>9.993246</ele>
        <time>2020-08-27T12:53:29.048Z</time>
      </trkpt>
      <trkpt lat="69.46927" lon="18.47248">
        <ele>9.543101</ele>
        <time>2020-08-27T12:53:34.665Z</time>
      </trkpt>
      <trkpt lat="69.46906" lon="18.47161">
        <ele>9.126176</ele>
        <time>2020-08-27T12:53:40.086Z</time>
      </trkpt>
      <trkpt lat="69.469" lon="18.47138">
        <ele>9.015763</ele>
        <time>2020-08-27T12:53:41.392Z</time>
      </trkpt>
      <trkpt lat="69.46897" lon="18.47129">
        <ele>8.966851</ele>
        <time>2020-08-27T12:53:42.284Z</time>
      </trkpt>
      <trkpt lat="69.46871" lon="18.47087">
        <ele>8.625681</ele>
        <time>2020-08-27T12:53:47.206Z</time>
      </trkpt>
      <trkpt lat="69.46807" lon="18.47052">
        <ele>9.173587</ele>
        <time>2020-08-27T12:54:01.084Z</time>
      </trkpt>
      <trkpt lat="69.46741" lon="18.46966">
        <ele>11.455183</ele>
        <time>2020-08-27T12:54:20.835Z</time>
      </trkpt>
      <trkpt lat="69.46736" lon="18.46964">
        <ele>11.622724</ele>
        <time>2020-08-27T12:54:22.574Z</time>
      </trkpt>
      <trkpt lat="69.46732" lon="18.46963">
        <ele>11.742764</ele>
        <time>2020-08-27T12:54:24.654Z</time>
      </trkpt>
      <trkpt lat="69.46657" lon="18.46963">
        <ele>14.062969</ele>
        <time>2020-08-27T12:54:48.475Z</time>
      </trkpt>
      <trkpt lat="69.46627" lon="18.46943">
        <ele>14.85849</ele>
        <time>2020-08-27T12:54:57.628Z</time>
      </trkpt>
      <trkpt lat="69.46613" lon="18.46929">
        <ele>15.258709</ele>
        <time>2020-08-27T12:55:02.803Z</time>
      </trkpt>
      <trkpt lat="69.46596" lon="18.46911">
        <ele>15.739831</ele>
        <time>2020-08-27T12:55:07.911Z</time>
      </trkpt>
      <trkpt lat="69.46471" lon="18.46765">
        <ele>18.303557</ele>
        <time>2020-08-27T12:55:40.770Z</time>
      </trkpt>
      <trkpt lat="69.46446" lon="18.46707">
        <ele>17.931749</ele>
        <time>2020-08-27T12:55:45.627Z</time>
      </trkpt>
      <trkpt lat="69.46393" lon="18.4654">
        <ele>17.005974</ele>
        <time>2020-08-27T12:55:56.690Z</time>
      </trkpt>
      <trkpt lat="69.46367" lon="18.46482">
        <ele>16.613469</ele>
        <time>2020-08-27T12:56:01.300Z</time>
      </trkpt>
      <trkpt lat="69.46322" lon="18.46408">
        <ele>16.180842</ele>
        <time>2020-08-27T12:56:08.404Z</time>
      </trkpt>
      <trkpt lat="69.46277" lon="18.46377">
        <ele>15.8274</ele>
        <time>2020-08-27T12:56:15.045Z</time>
      </trkpt>
      <trkpt lat="69.46075" lon="18.46497">
        <ele>17.040169</ele>
        <time>2020-08-27T12:56:55.671Z</time>
      </trkpt>
      <trkpt lat="69.46034" lon="18.4657">
        <ele>17.849257</ele>
        <time>2020-08-27T12:57:08.783Z</time>
      </trkpt>
      <trkpt lat="69.45997" lon="18.4673">
        <ele>20.14441</ele>
        <time>2020-08-27T12:57:29.579Z</time>
      </trkpt>
      <trkpt lat="69.45981" lon="18.46779">
        <ele>21.079708</ele>
        <time>2020-08-27T12:57:37.019Z</time>
      </trkpt>
      <trkpt lat="69.45925" lon="18.46856">
        <ele>23.577079</ele>
        <time>2020-08-27T12:57:56.331Z</time>
      </trkpt>
      <trkpt lat="69.45914" lon="18.46861">
        <ele>24.000138</ele>
        <time>2020-08-27T12:58:00.227Z</time>
      </trkpt>
      <trkpt lat="69.45909" lon="18.46863">
        <ele>24.20072</ele>
        <time>2020-08-27T12:58:01.748Z</time>
      </trkpt>
      <trkpt lat="69.45858" lon="18.46852">
        <ele>26.111787</ele>
        <time>2020-08-27T12:58:16.941Z</time>
      </trkpt>
      <trkpt lat="69.45835" lon="18.46869">
        <ele>26.96658</ele>
        <time>2020-08-27T12:58:24.697Z</time>
      </trkpt>
      <trkpt lat="69.45784" lon="18.46963">
        <ele>29.048042</ele>
        <time>2020-08-27T12:58:42.403Z</time>
      </trkpt>
      <trkpt lat="69.45717" lon="18.47116">
        <ele>31.866963</ele>
        <time>2020-08-27T12:59:05.748Z</time>
      </trkpt>
      <trkpt lat="69.45637" lon="18.47201">
        <ele>33.781705</ele>
        <time>2020-08-27T12:59:28.562Z</time>
      </trkpt>
      <trkpt lat="69.45607" lon="18.47253">
        <ele>34.571981</ele>
        <time>2020-08-27T12:59:37.378Z</time>
      </trkpt>
      <trkpt lat="69.45518" lon="18.47402">
        <ele>35.303849</ele>
        <time>2020-08-27T13:00:00.070Z</time>
      </trkpt>
      <trkpt lat="69.45237" lon="18.47857">
        <ele>30.85043</ele>
        <time>2020-08-27T13:00:47.888Z</time>
      </trkpt>
      <trkpt lat="69.45117" lon="18.48007">
        <ele>25.553912</ele>
        <time>2020-08-27T13:01:04.113Z</time>
      </trkpt>
      <trkpt lat="69.45111" lon="18.48013">
        <ele>25.312879</ele>
        <time>2020-08-27T13:01:04.772Z</time>
      </trkpt>
      <trkpt lat="69.45055" lon="18.4808">
        <ele>22.789288</ele>
        <time>2020-08-27T13:01:12.212Z</time>
      </trkpt>
      <trkpt lat="69.44978" lon="18.48175">
        <ele>19.271919</ele>
        <time>2020-08-27T13:01:22.409Z</time>
      </trkpt>
      <trkpt lat="69.4491" lon="18.48257">
        <ele>16.57188</ele>
        <time>2020-08-27T13:01:32.302Z</time>
      </trkpt>
      <trkpt lat="69.44774" lon="18.48421">
        <ele>13.695035</ele>
        <time>2020-08-27T13:01:53.391Z</time>
      </trkpt>
      <trkpt lat="69.44761" lon="18.48437">
        <ele>13.413805</ele>
        <time>2020-08-27T13:01:55.626Z</time>
      </trkpt>
      <trkpt lat="69.44749" lon="18.48454">
        <ele>13.239439</ele>
        <time>2020-08-27T13:01:57.574Z</time>
      </trkpt>
      <trkpt lat="69.44735" lon="18.48476">
        <ele>13.022484</ele>
        <time>2020-08-27T13:02:00.021Z</time>
      </trkpt>
      <trkpt lat="69.44723" lon="18.48498">
        <ele>12.83829</ele>
        <time>2020-08-27T13:02:02.178Z</time>
      </trkpt>
      <trkpt lat="69.44717" lon="18.48513">
        <ele>12.729569</ele>
        <time>2020-08-27T13:02:03.370Z</time>
      </trkpt>
      <trkpt lat="69.44712" lon="18.48526">
        <ele>12.639997</ele>
        <time>2020-08-27T13:02:04.397Z</time>
      </trkpt>
      <trkpt lat="69.44696" lon="18.48573">
        <ele>12.32947</ele>
        <time>2020-08-27T13:02:07.966Z</time>
      </trkpt>
      <trkpt lat="69.44659" lon="18.48663">
        <ele>11.67924</ele>
        <time>2020-08-27T13:02:15.253Z</time>
      </trkpt>
      <trkpt lat="69.44653" lon="18.48674">
        <ele>11.588247</ele>
        <time>2020-08-27T13:02:16.254Z</time>
      </trkpt>
      <trkpt lat="69.44642" lon="18.48695">
        <ele>11.407152</ele>
        <time>2020-08-27T13:02:18.305Z</time>
      </trkpt>
      <trkpt lat="69.44625" lon="18.48723">
        <ele>11.145391</ele>
        <time>2020-08-27T13:02:21.148Z</time>
      </trkpt>
      <trkpt lat="69.44609" lon="18.48746">
        <ele>10.892108</ele>
        <time>2020-08-27T13:02:23.811Z</time>
      </trkpt>
      <trkpt lat="69.44584" lon="18.48779">
        <ele>10.449359</ele>
        <time>2020-08-27T13:02:27.961Z</time>
      </trkpt>
      <trkpt lat="69.44568" lon="18.48797">
        <ele>10.185553</ele>
        <time>2020-08-27T13:02:30.488Z</time>
      </trkpt>
      <trkpt lat="69.44524" lon="18.4884">
        <ele>9.441922</ele>
        <time>2020-08-27T13:02:37.450Z</time>
      </trkpt>
      <trkpt lat="69.44426" lon="18.48965">
        <ele>7.73592</ele>
        <time>2020-08-27T13:02:52.893Z</time>
      </trkpt>
      <trkpt lat="69.44356" lon="18.49071">
        <ele>6.434545</ele>
        <time>2020-08-27T13:03:04.272Z</time>
      </trkpt>
      <trkpt lat="69.44299" lon="18.49176">
        <ele>5.317324</ele>
        <time>2020-08-27T13:03:14.248Z</time>
      </trkpt>
      <trkpt lat="69.44242" lon="18.49321">
        <ele>4.529243</ele>
        <time>2020-08-27T13:03:25.717Z</time>
      </trkpt>
      <trkpt lat="69.44115" lon="18.4983">
        <ele>2.623854</ele>
        <time>2020-08-27T13:04:00.662Z</time>
      </trkpt>
      <trkpt lat="69.4403" lon="18.50192">
        <ele>1.588807</ele>
        <time>2020-08-27T13:04:25.167Z</time>
      </trkpt>
      <trkpt lat="69.43981" lon="18.50444">
        <ele>0.979129</ele>
        <time>2020-08-27T13:04:41.767Z</time>
      </trkpt>
      <trkpt lat="69.43881" lon="18.51029">
        <ele>0.357673</ele>
        <time>2020-08-27T13:05:20.832Z</time>
      </trkpt>
      <trkpt lat="69.43856" lon="18.51148">
        <ele>0.281602</ele>
        <time>2020-08-27T13:05:29.237Z</time>
      </trkpt>
      <trkpt lat="69.4384" lon="18.51214">
        <ele>0.236848</ele>
        <time>2020-08-27T13:05:34.170Z</time>
      </trkpt>
      <trkpt lat="69.43765" lon="18.51501">
        <ele>0.218124</ele>
        <time>2020-08-27T13:05:56.220Z</time>
      </trkpt>
      <trkpt lat="69.43758" lon="18.51526">
        <ele>0.227442</ele>
        <time>2020-08-27T13:05:58.282Z</time>
      </trkpt>
      <trkpt lat="69.43715" lon="18.51659">
        <ele>0.278284</ele>
        <time>2020-08-27T13:06:09.796Z</time>
      </trkpt>
      <trkpt lat="69.43702" lon="18.51718">
        <ele>0.297814</ele>
        <time>2020-08-27T13:06:14.353Z</time>
      </trkpt>
      <trkpt lat="69.43695" lon="18.51787">
        <ele>0.438566</ele>
        <time>2020-08-27T13:06:19.199Z</time>
      </trkpt>
      <trkpt lat="69.43687" lon="18.51953">
        <ele>0.844081</ele>
        <time>2020-08-27T13:06:30.707Z</time>
      </trkpt>
      <trkpt lat="69.43681" lon="18.52003">
        <ele>0.974931</ele>
        <time>2020-08-27T13:06:34.496Z</time>
      </trkpt>
      <trkpt lat="69.43535" lon="18.52558">
        <ele>2.809513</ele>
        <time>2020-08-27T13:07:25.022Z</time>
      </trkpt>
      <trkpt lat="69.43496" lon="18.52656">
        <ele>2.95271</ele>
        <time>2020-08-27T13:07:34.980Z</time>
      </trkpt>
      <trkpt lat="69.43399" lon="18.5283">
        <ele>2.93582</ele>
        <time>2020-08-27T13:07:55.156Z</time>
      </trkpt>
      <trkpt lat="69.43295" lon="18.53101">
        <ele>2.60831</ele>
        <time>2020-08-27T13:08:18.693Z</time>
      </trkpt>
      <trkpt lat="69.43263" lon="18.53204">
        <ele>2.464695</ele>
        <time>2020-08-27T13:08:26.914Z</time>
      </trkpt>
      <trkpt lat="69.43198" lon="18.53473">
        <ele>2.334227</ele>
        <time>2020-08-27T13:08:47.340Z</time>
      </trkpt>
      <trkpt lat="69.43146" lon="18.53632">
        <ele>2.281649</ele>
        <time>2020-08-27T13:09:01.050Z</time>
      </trkpt>
      <trkpt lat="69.43136" lon="18.53657">
        <ele>2.267668</ele>
        <time>2020-08-27T13:09:03.286Z</time>
      </trkpt>
      <trkpt lat="69.43127" lon="18.5368">
        <ele>2.220683</ele>
        <time>2020-08-27T13:09:05.486Z</time>
      </trkpt>
      <trkpt lat="69.4308" lon="18.538">
        <ele>1.985262</ele>
        <time>2020-08-27T13:09:16.054Z</time>
      </trkpt>
      <trkpt lat="69.43056" lon="18.53863">
        <ele>1.860668</ele>
        <time>2020-08-27T13:09:21.524Z</time>
      </trkpt>
      <trkpt lat="69.42982" lon="18.54064">
        <ele>1.473447</ele>
        <time>2020-08-27T13:09:38.450Z</time>
      </trkpt>
      <trkpt lat="69.42952" lon="18.5422">
        <ele>1.239565</ele>
        <time>2020-08-27T13:09:48.622Z</time>
      </trkpt>
      <trkpt lat="69.42946" lon="18.54257">
        <ele>1.18566</ele>
        <time>2020-08-27T13:09:51.026Z</time>
      </trkpt>
      <trkpt lat="69.42944" lon="18.5427">
        <ele>1.166094</ele>
        <time>2020-08-27T13:09:51.890Z</time>
      </trkpt>
      <trkpt lat="69.42938" lon="18.54299">
        <ele>1.12127</ele>
        <time>2020-08-27T13:09:53.902Z</time>
      </trkpt>
      <trkpt lat="69.42858" lon="18.5454">
        <ele>1.118845</ele>
        <time>2020-08-27T13:10:14.239Z</time>
      </trkpt>
      <trkpt lat="69.42836" lon="18.54611">
        <ele>1.225819</ele>
        <time>2020-08-27T13:10:20.315Z</time>
      </trkpt>
      <trkpt lat="69.42817" lon="18.54675">
        <ele>1.322322</ele>
        <time>2020-08-27T13:10:25.941Z</time>
      </trkpt>
      <trkpt lat="69.42801" lon="18.54723">
        <ele>1.397348</ele>
        <time>2020-08-27T13:10:30.464Z</time>
      </trkpt>
      <trkpt lat="69.42776" lon="18.54804">
        <ele>1.614726</ele>
        <time>2020-08-27T13:10:38.285Z</time>
      </trkpt>
      <trkpt lat="69.42725" lon="18.54954">
        <ele>2.895798</ele>
        <time>2020-08-27T13:10:54.365Z</time>
      </trkpt>
      <trkpt lat="69.42565" lon="18.55339">
        <ele>6.988482</ele>
        <time>2020-08-27T13:11:46.960Z</time>
      </trkpt>
      <trkpt lat="69.42495" lon="18.55563">
        <ele>8.802993</ele>
        <time>2020-08-27T13:12:12.708Z</time>
      </trkpt>
      <trkpt lat="69.42451" lon="18.55665">
        <ele>9.301119</ele>
        <time>2020-08-27T13:12:25.195Z</time>
      </trkpt>
      <trkpt lat="69.42417" lon="18.55744">
        <ele>9.68236</ele>
        <time>2020-08-27T13:12:33.869Z</time>
      </trkpt>
      <trkpt lat="69.42356" lon="18.55883">
        <ele>9.672359</ele>
        <time>2020-08-27T13:12:47.458Z</time>
      </trkpt>
      <trkpt lat="69.42198" lon="18.56265">
        <ele>7.093973</ele>
        <time>2020-08-27T13:13:17.907Z</time>
      </trkpt>
      <trkpt lat="69.42183" lon="18.56303">
        <ele>6.815099</ele>
        <time>2020-08-27T13:13:20.761Z</time>
      </trkpt>
      <trkpt lat="69.42132" lon="18.56428">
        <ele>5.893007</ele>
        <time>2020-08-27T13:13:30.598Z</time>
      </trkpt>
      <trkpt lat="69.42072" lon="18.5658">
        <ele>5.912259</ele>
        <time>2020-08-27T13:13:43.615Z</time>
      </trkpt>
      <trkpt lat="69.42025" lon="18.56698">
        <ele>6.491308</ele>
        <time>2020-08-27T13:13:56.060Z</time>
      </trkpt>
      <trkpt lat="69.41938" lon="18.56944">
        <ele>8.687575</ele>
        <time>2020-08-27T13:14:27.694Z</time>
      </trkpt>
      <trkpt lat="69.41803" lon="18.57234">
        <ele>13.229033</ele>
        <time>2020-08-27T13:15:15.151Z</time>
      </trkpt>
      <trkpt lat="69.41666" lon="18.57447">
        <ele>16.176878</ele>
        <time>2020-08-27T13:15:51.964Z</time>
      </trkpt>
      <trkpt lat="69.41449" lon="18.57712">
        <ele>17.147767</ele>
        <time>2020-08-27T13:16:37.106Z</time>
      </trkpt>
      <trkpt lat="69.41359" lon="18.57915">
        <ele>16.948254</ele>
        <time>2020-08-27T13:16:56.761Z</time>
      </trkpt>
      <trkpt lat="69.41177" lon="18.58258">
        <ele>14.306081</ele>
        <time>2020-08-27T13:17:29.799Z</time>
      </trkpt>
      <trkpt lat="69.41139" lon="18.58317">
        <ele>13.566432</ele>
        <time>2020-08-27T13:17:35.933Z</time>
      </trkpt>
      <trkpt lat="69.41055" lon="18.58417">
        <ele>11.995973</ele>
        <time>2020-08-27T13:17:48.988Z</time>
      </trkpt>
      <trkpt lat="69.41016" lon="18.58505">
        <ele>11.100979</ele>
        <time>2020-08-27T13:17:56.042Z</time>
      </trkpt>
      <trkpt lat="69.41008" lon="18.58533">
        <ele>10.862228</ele>
        <time>2020-08-27T13:17:57.833Z</time>
      </trkpt>
      <trkpt lat="69.4099" lon="18.58593">
        <ele>10.359483</ele>
        <time>2020-08-27T13:18:01.777Z</time>
      </trkpt>
      <trkpt lat="69.40951" lon="18.58697">
        <ele>9.38329</ele>
        <time>2020-08-27T13:18:09.419Z</time>
      </trkpt>
      <trkpt lat="69.40906" lon="18.58806">
        <ele>8.437532</ele>
        <time>2020-08-27T13:18:18.006Z</time>
      </trkpt>
      <trkpt lat="69.40881" lon="18.58867">
        <ele>8.007369</ele>
        <time>2020-08-27T13:18:22.838Z</time>
      </trkpt>
      <trkpt lat="69.40753" lon="18.59142">
        <ele>6.466676</ele>
        <time>2020-08-27T13:18:47.093Z</time>
      </trkpt>
      <trkpt lat="69.40671" lon="18.59429">
        <ele>6.63632</ele>
        <time>2020-08-27T13:19:11.743Z</time>
      </trkpt>
      <trkpt lat="69.40548" lon="18.5977">
        <ele>9.766296</ele>
        <time>2020-08-27T13:19:52.504Z</time>
      </trkpt>
      <trkpt lat="69.40469" lon="18.59937">
        <ele>12.377711</ele>
        <time>2020-08-27T13:20:19.841Z</time>
      </trkpt>
      <trkpt lat="69.40447" lon="18.59962">
        <ele>13.029359</ele>
        <time>2020-08-27T13:20:26.148Z</time>
      </trkpt>
      <trkpt lat="69.40427" lon="18.5996">
        <ele>13.598692</ele>
        <time>2020-08-27T13:20:31.528Z</time>
      </trkpt>
      <trkpt lat="69.40412" lon="18.59951">
        <ele>14.034814</ele>
        <time>2020-08-27T13:20:35.890Z</time>
      </trkpt>
      <trkpt lat="69.40407" lon="18.59948">
        <ele>14.169654</ele>
        <time>2020-08-27T13:20:37.401Z</time>
      </trkpt>
      <trkpt lat="69.40269" lon="18.59834">
        <ele>17.166284</ele>
        <time>2020-08-27T13:21:14.178Z</time>
      </trkpt>
      <trkpt lat="69.40035" lon="18.59614">
        <ele>20.244955</ele>
        <time>2020-08-27T13:22:05.938Z</time>
      </trkpt>
      <trkpt lat="69.4001" lon="18.596">
        <ele>20.494945</ele>
        <time>2020-08-27T13:22:10.859Z</time>
      </trkpt>
      <trkpt lat="69.40009" lon="18.59629">
        <ele>20.592968</ele>
        <time>2020-08-27T13:22:13.772Z</time>
      </trkpt>
      <trkpt lat="69.40016" lon="18.59668">
        <ele>20.739933</ele>
        <time>2020-08-27T13:22:17.015Z</time>
      </trkpt>
      <trkpt lat="69.40047" lon="18.5975">
        <ele>21.152588</ele>
        <time>2020-08-27T13:22:26.352Z</time>
      </trkpt>
      <trkpt lat="69.40065" lon="18.59803">
        <ele>21.405189</ele>
        <time>2020-08-27T13:22:32.502Z</time>
      </trkpt>
      <trkpt lat="69.40074" lon="18.59829">
        <ele>21.534057</ele>
        <time>2020-08-27T13:22:34.906Z</time>
      </trkpt>
      <trkpt lat="69.40091" lon="18.59878">
        <ele>21.765986</ele>
        <time>2020-08-27T13:22:40.397Z</time>
      </trkpt>
      <trkpt lat="69.40078" lon="18.59915">
        <ele>21.940236</ele>
        <time>2020-08-27T13:22:43.939Z</time>
      </trkpt>
      <trkpt lat="69.40073" lon="18.59932">
        <ele>22.020085</ele>
        <time>2020-08-27T13:22:45.924Z</time>
      </trkpt>
      <trkpt lat="69.4007" lon="18.59944">
        <ele>21.983276</ele>
        <time>2020-08-27T13:22:47.089Z</time>
      </trkpt>
      <trkpt lat="69.40063" lon="18.60001">
        <ele>21.682181</ele>
        <time>2020-08-27T13:22:51.055Z</time>
      </trkpt>
      <trkpt lat="69.40059" lon="18.60097">
        <ele>21.196086</ele>
        <time>2020-08-27T13:22:57.295Z</time>
      </trkpt>
      <trkpt lat="69.40051" lon="18.60146">
        <ele>20.922082</ele>
        <time>2020-08-27T13:23:00.717Z</time>
      </trkpt>
      <trkpt lat="69.40044" lon="18.60156">
        <ele>20.814607</ele>
        <time>2020-08-27T13:23:01.909Z</time>
      </trkpt>
      <trkpt lat="69.39963" lon="18.60165">
        <ele>19.665713</ele>
        <time>2020-08-27T13:23:13.975Z</time>
      </trkpt>
      <trkpt lat="69.39816" lon="18.60413">
        <ele>12.151103</ele>
        <time>2020-08-27T13:23:35.924Z</time>
      </trkpt>
      <trkpt lat="69.39812" lon="18.60423">
        <ele>11.892123</ele>
        <time>2020-08-27T13:23:36.536Z</time>
      </trkpt>
      <trkpt lat="69.39779" lon="18.6048">
        <ele>10.39457</ele>
        <time>2020-08-27T13:23:41.381Z</time>
      </trkpt>
      <trkpt lat="69.39764" lon="18.60501">
        <ele>9.831491</ele>
        <time>2020-08-27T13:23:43.725Z</time>
      </trkpt>
      <trkpt lat="69.39754" lon="18.60502">
        <ele>9.476087</ele>
        <time>2020-08-27T13:23:45.226Z</time>
      </trkpt>
      <trkpt lat="69.39748" lon="18.60503">
        <ele>9.274861</ele>
        <time>2020-08-27T13:23:45.888Z</time>
      </trkpt>
      <trkpt lat="69.39744" lon="18.60525">
        <ele>8.994099</ele>
        <time>2020-08-27T13:23:46.962Z</time>
      </trkpt>
      <trkpt lat="69.39728" lon="18.60557">
        <ele>8.330817</ele>
        <time>2020-08-27T13:23:49.786Z</time>
      </trkpt>
      <trkpt lat="69.39701" lon="18.60563">
        <ele>7.433395</ele>
        <time>2020-08-27T13:23:53.090Z</time>
      </trkpt>
      <trkpt lat="69.39696" lon="18.60553">
        <ele>7.211317</ele>
        <time>2020-08-27T13:23:54.108Z</time>
      </trkpt>
      <trkpt lat="69.39674" lon="18.60448">
        <ele>5.773349</ele>
        <time>2020-08-27T13:23:59.792Z</time>
      </trkpt>
      <trkpt lat="69.39668" lon="18.60441">
        <ele>5.566354</ele>
        <time>2020-08-27T13:24:00.577Z</time>
      </trkpt>
      <trkpt lat="69.39651" lon="18.60438">
        <ele>5.064968</ele>
        <time>2020-08-27T13:24:03.559Z</time>
      </trkpt>
      <trkpt lat="69.39621" lon="18.60434">
        <ele>4.89</ele>
        <time>2020-08-27T13:24:08.226Z</time>
      </trkpt>
      <trkpt lat="69.39609" lon="18.60434">
        <ele>4.818679</ele>
        <time>2020-08-27T13:24:10.592Z</time>
      </trkpt>
      <trkpt lat="69.39574" lon="18.60442">
        <ele>4.614586</ele>
        <time>2020-08-27T13:24:16.660Z</time>
      </trkpt>
      <trkpt lat="69.3955" lon="18.6045">
        <ele>4.471611</ele>
        <time>2020-08-27T13:24:20.868Z</time>
      </trkpt>
      <trkpt lat="69.39528" lon="18.60457">
        <ele>4.340483</ele>
        <time>2020-08-27T13:24:24.608Z</time>
      </trkpt>
      <trkpt lat="69.39524" lon="18.60456">
        <ele>4.321061</ele>
        <time>2020-08-27T13:24:25.137Z</time>
      </trkpt>
      <trkpt lat="69.39522" lon="18.60452">
        <ele>4.302741</ele>
        <time>2020-08-27T13:24:25.709Z</time>
      </trkpt>
      <trkpt lat="69.39521" lon="18.60456">
        <ele>4.291966</ele>
        <time>2020-08-27T13:24:26.096Z</time>
      </trkpt>
      <trkpt lat="69.39463" lon="18.60497">
        <ele>3.936558</ele>
        <time>2020-08-27T13:24:35.989Z</time>
      </trkpt>
      <trkpt lat="69.39451" lon="18.60512">
        <ele>3.854128</ele>
        <time>2020-08-27T13:24:38.286Z</time>
      </trkpt>
      <trkpt lat="69.39439" lon="18.60526">
        <ele>3.76957</ele>
        <time>2020-08-27T13:24:40.265Z</time>
      </trkpt>
      <trkpt lat="69.39368" lon="18.60608">
        <ele>3.275743</ele>
        <time>2020-08-27T13:24:52.551Z</time>
      </trkpt>
      <trkpt lat="69.39344" lon="18.60636">
        <ele>3.109376</ele>
        <time>2020-08-27T13:24:56.651Z</time>
      </trkpt>
      <trkpt lat="69.39335" lon="18.60647">
        <ele>3.044472</ele>
        <time>2020-08-27T13:24:58.221Z</time>
      </trkpt>
      <trkpt lat="69.39327" lon="18.60658">
        <ele>2.992674</ele>
        <time>2020-08-27T13:24:59.562Z</time>
      </trkpt>
      <trkpt lat="69.39315" lon="18.60675">
        <ele>2.903608</ele>
        <time>2020-08-27T13:25:01.745Z</time>
      </trkpt>
      <trkpt lat="69.39249" lon="18.60753">
        <ele>3.157971</ele>
        <time>2020-08-27T13:25:13.531Z</time>
      </trkpt>
      <trkpt lat="69.39195" lon="18.60814">
        <ele>3.411584</ele>
        <time>2020-08-27T13:25:24.151Z</time>
      </trkpt>
      <trkpt lat="69.39151" lon="18.60853">
        <ele>3.61173</ele>
        <time>2020-08-27T13:25:34.371Z</time>
      </trkpt>
      <trkpt lat="69.39148" lon="18.6086">
        <ele>3.628925</ele>
        <time>2020-08-27T13:25:35.426Z</time>
      </trkpt>
      <trkpt lat="69.39144" lon="18.60857">
        <ele>3.649448</ele>
        <time>2020-08-27T13:25:36.432Z</time>
      </trkpt>
      <trkpt lat="69.39139" lon="18.60857">
        <ele>3.779575</ele>
        <time>2020-08-27T13:25:37.335Z</time>
      </trkpt>
      <trkpt lat="69.39136" lon="18.60858">
        <ele>3.885261</ele>
        <time>2020-08-27T13:25:37.937Z</time>
      </trkpt>
      <trkpt lat="69.39135" lon="18.60844">
        <ele>4.072502</ele>
        <time>2020-08-27T13:25:38.900Z</time>
      </trkpt>
      <trkpt lat="69.39119" lon="18.60851">
        <ele>4.632474</ele>
        <time>2020-08-27T13:25:43.639Z</time>
      </trkpt>
      <trkpt lat="69.39078" lon="18.60858">
        <ele>6.088021</ele>
        <time>2020-08-27T13:25:54.969Z</time>
      </trkpt>
      <trkpt lat="69.39062" lon="18.60857">
        <ele>6.673755</ele>
        <time>2020-08-27T13:25:59.282Z</time>
      </trkpt>
      <trkpt lat="69.39043" lon="18.60853">
        <ele>7.360697</ele>
        <time>2020-08-27T13:26:05.852Z</time>
      </trkpt>
      <trkpt lat="69.38986" lon="18.60821">
        <ele>9.42348</ele>
        <time>2020-08-27T13:26:24.439Z</time>
      </trkpt>
      <trkpt lat="69.38977" lon="18.60812">
        <ele>9.769957</ele>
        <time>2020-08-27T13:26:28.084Z</time>
      </trkpt>
      <trkpt lat="69.38955" lon="18.60788">
        <ele>10.363127</ele>
        <time>2020-08-27T13:26:35.345Z</time>
      </trkpt>
      <trkpt lat="69.38932" lon="18.60754">
        <ele>10.860706</ele>
        <time>2020-08-27T13:26:43.160Z</time>
      </trkpt>
      <trkpt lat="69.38924" lon="18.60738">
        <ele>11.066</ele>
        <time>2020-08-27T13:26:46.664Z</time>
      </trkpt>
      <trkpt lat="69.38912" lon="18.60715">
        <ele>11.338077</ele>
        <time>2020-08-27T13:26:51.211Z</time>
      </trkpt>
      <trkpt lat="69.38898" lon="18.60686">
        <ele>11.675258</ele>
        <time>2020-08-27T13:26:55.819Z</time>
      </trkpt>
      <trkpt lat="69.38864" lon="18.60614">
        <ele>12.494059</ele>
        <time>2020-08-27T13:27:06.770Z</time>
      </trkpt>
      <trkpt lat="69.38705" lon="18.6027">
        <ele>11.084412</ele>
        <time>2020-08-27T13:27:36.518Z</time>
      </trkpt>
      <trkpt lat="69.38671" lon="18.60225">
        <ele>10.451682</ele>
        <time>2020-08-27T13:27:41.408Z</time>
      </trkpt>
      <trkpt lat="69.38637" lon="18.6022">
        <ele>9.968603</ele>
        <time>2020-08-27T13:27:45.903Z</time>
      </trkpt>
      <trkpt lat="69.38566" lon="18.60314">
        <ele>8.845161</ele>
        <time>2020-08-27T13:27:56.831Z</time>
      </trkpt>
      <trkpt lat="69.38319" lon="18.60702">
        <ele>8.572537</ele>
        <time>2020-08-27T13:28:48.201Z</time>
      </trkpt>
      <trkpt lat="69.38291" lon="18.60765">
        <ele>8.974808</ele>
        <time>2020-08-27T13:28:56.218Z</time>
      </trkpt>
      <trkpt lat="69.38245" lon="18.60917">
        <ele>9.750189</ele>
        <time>2020-08-27T13:29:12.679Z</time>
      </trkpt>
      <trkpt lat="69.38222" lon="18.60977">
        <ele>10.099662</ele>
        <time>2020-08-27T13:29:19.888Z</time>
      </trkpt>
      <trkpt lat="69.38178" lon="18.61051">
        <ele>10.287743</ele>
        <time>2020-08-27T13:29:30.248Z</time>
      </trkpt>
      <trkpt lat="69.38142" lon="18.61086">
        <ele>10.396381</ele>
        <time>2020-08-27T13:29:37.494Z</time>
      </trkpt>
      <trkpt lat="69.38129" lon="18.61096">
        <ele>10.435917</ele>
        <time>2020-08-27T13:29:40.539Z</time>
      </trkpt>
      <trkpt lat="69.38116" lon="18.61102">
        <ele>10.472853</ele>
        <time>2020-08-27T13:29:42.476Z</time>
      </trkpt>
      <trkpt lat="69.38077" lon="18.61097">
        <ele>10.587139</ele>
        <time>2020-08-27T13:29:49.428Z</time>
      </trkpt>
      <trkpt lat="69.38014" lon="18.61016">
        <ele>10.492597</ele>
        <time>2020-08-27T13:30:00.755Z</time>
      </trkpt>
      <trkpt lat="69.37995" lon="18.61017">
        <ele>10.401725</ele>
        <time>2020-08-27T13:30:04.114Z</time>
      </trkpt>
      <trkpt lat="69.37978" lon="18.61038">
        <ele>10.317026</ele>
        <time>2020-08-27T13:30:06.720Z</time>
      </trkpt>
      <trkpt lat="69.37761" lon="18.61525">
        <ele>9.431366</ele>
        <time>2020-08-27T13:30:54.013Z</time>
      </trkpt>
      <trkpt lat="69.37743" lon="18.6158">
        <ele>9.368005</ele>
        <time>2020-08-27T13:30:58.749Z</time>
      </trkpt>
      <trkpt lat="69.37696" lon="18.6177">
        <ele>9.174602</ele>
        <time>2020-08-27T13:31:12.837Z</time>
      </trkpt>
      <trkpt lat="69.37601" lon="18.61978">
        <ele>9.582408</ele>
        <time>2020-08-27T13:31:32.936Z</time>
      </trkpt>
      <trkpt lat="69.37566" lon="18.62048">
        <ele>10.189176</ele>
        <time>2020-08-27T13:31:41.246Z</time>
      </trkpt>
      <trkpt lat="69.3756" lon="18.62064">
        <ele>10.309424</ele>
        <time>2020-08-27T13:31:42.674Z</time>
      </trkpt>
      <trkpt lat="69.37539" lon="18.62144">
        <ele>10.807927</ele>
        <time>2020-08-27T13:31:50.159Z</time>
      </trkpt>
      <trkpt lat="69.37472" lon="18.6251">
        <ele>16.676164</ele>
        <time>2020-08-27T13:32:34.441Z</time>
      </trkpt>
      <trkpt lat="69.37452" lon="18.62594">
        <ele>18.626247</ele>
        <time>2020-08-27T13:32:48.524Z</time>
      </trkpt>
      <trkpt lat="69.37275" lon="18.63052">
        <ele>34.592702</ele>
        <time>2020-08-27T13:34:29.916Z</time>
      </trkpt>
      <trkpt lat="69.37256" lon="18.63098">
        <ele>35.172213</ele>
        <time>2020-08-27T13:34:37.891Z</time>
      </trkpt>
      <trkpt lat="69.37226" lon="18.63174">
        <ele>36.116839</ele>
        <time>2020-08-27T13:34:49.033Z</time>
      </trkpt>
      <trkpt lat="69.37169" lon="18.63313">
        <ele>37.871352</ele>
        <time>2020-08-27T13:35:05.865Z</time>
      </trkpt>
      <trkpt lat="69.3714" lon="18.63384">
        <ele>38.452725</ele>
        <time>2020-08-27T13:35:12.170Z</time>
      </trkpt>
      <trkpt lat="69.37133" lon="18.63403">
        <ele>38.297719</ele>
        <time>2020-08-27T13:35:13.585Z</time>
      </trkpt>
      <trkpt lat="69.37069" lon="18.63624">
        <ele>36.663724</ele>
        <time>2020-08-27T13:35:27.834Z</time>
      </trkpt>
      <trkpt lat="69.36884" lon="18.64056">
        <ele>32.398053</ele>
        <time>2020-08-27T13:36:01.761Z</time>
      </trkpt>
      <trkpt lat="69.36806" lon="18.64428">
        <ele>31.343951</ele>
        <time>2020-08-27T13:36:26.229Z</time>
      </trkpt>
      <trkpt lat="69.36705" lon="18.65143">
        <ele>30.201792</ele>
        <time>2020-08-27T13:37:16.268Z</time>
      </trkpt>
      <trkpt lat="69.3669" lon="18.65189">
        <ele>29.789368</ele>
        <time>2020-08-27T13:37:19.458Z</time>
      </trkpt>
      <trkpt lat="69.36648" lon="18.65247">
        <ele>28.944021</ele>
        <time>2020-08-27T13:37:25.699Z</time>
      </trkpt>
      <trkpt lat="69.36622" lon="18.65303">
        <ele>28.341701</ele>
        <time>2020-08-27T13:37:29.946Z</time>
      </trkpt>
      <trkpt lat="69.36531" lon="18.65616">
        <ele>24.150606</ele>
        <time>2020-08-27T13:37:48.211Z</time>
      </trkpt>
      <trkpt lat="69.36418" lon="18.66291">
        <ele>18.659768</ele>
        <time>2020-08-27T13:38:26.014Z</time>
      </trkpt>
      <trkpt lat="69.36402" lon="18.66616">
        <ele>16.423163</ele>
        <time>2020-08-27T13:38:42.838Z</time>
      </trkpt>
      <trkpt lat="69.36381" lon="18.66839">
        <ele>14.345508</ele>
        <time>2020-08-27T13:38:53.925Z</time>
      </trkpt>
      <trkpt lat="69.36328" lon="18.67026">
        <ele>11.828512</ele>
        <time>2020-08-27T13:39:04.951Z</time>
      </trkpt>
      <trkpt lat="69.36302" lon="18.67283">
        <ele>9.0749</ele>
        <time>2020-08-27T13:39:17.209Z</time>
      </trkpt>
      <trkpt lat="69.36223" lon="18.6762">
        <ele>5.121884</ele>
        <time>2020-08-27T13:39:36.351Z</time>
      </trkpt>
      <trkpt lat="69.36165" lon="18.67972">
        <ele>2.84315</ele>
        <time>2020-08-27T13:39:56.295Z</time>
      </trkpt>
      <trkpt lat="69.36147" lon="18.68031">
        <ele>2.388602</ele>
        <time>2020-08-27T13:40:00.417Z</time>
      </trkpt>
      <trkpt lat="69.36106" lon="18.68124">
        <ele>1.936074</ele>
        <time>2020-08-27T13:40:08.531Z</time>
      </trkpt>
      <trkpt lat="69.36077" lon="18.68236">
        <ele>1.572593</ele>
        <time>2020-08-27T13:40:16.310Z</time>
      </trkpt>
      <trkpt lat="69.36067" lon="18.68282">
        <ele>1.432016</ele>
        <time>2020-08-27T13:40:19.307Z</time>
      </trkpt>
      <trkpt lat="69.36049" lon="18.68367">
        <ele>1.170662</ele>
        <time>2020-08-27T13:40:25.084Z</time>
      </trkpt>
      <trkpt lat="69.35956" lon="18.68806">
        <ele>0.596534</ele>
        <time>2020-08-27T13:40:55.880Z</time>
      </trkpt>
      <trkpt lat="69.35928" lon="18.68918">
        <ele>0.52431</ele>
        <time>2020-08-27T13:41:04.476Z</time>
      </trkpt>
      <trkpt lat="69.3592" lon="18.68945">
        <ele>0.521916</ele>
        <time>2020-08-27T13:41:06.711Z</time>
      </trkpt>
      <trkpt lat="69.35908" lon="18.68985">
        <ele>0.51826</ele>
        <time>2020-08-27T13:41:10.001Z</time>
      </trkpt>
      <trkpt lat="69.3588" lon="18.69056">
        <ele>0.510956</ele>
        <time>2020-08-27T13:41:16.677Z</time>
      </trkpt>
      <trkpt lat="69.35847" lon="18.69119">
        <ele>0.503034</ele>
        <time>2020-08-27T13:41:23.932Z</time>
      </trkpt>
      <trkpt lat="69.35835" lon="18.69138">
        <ele>0.500383</ele>
        <time>2020-08-27T13:41:26.424Z</time>
      </trkpt>
      <trkpt lat="69.35823" lon="18.69153">
        <ele>0.497837</ele>
        <time>2020-08-27T13:41:28.722Z</time>
      </trkpt>
      <trkpt lat="69.35751" lon="18.69229">
        <ele>0.433721</ele>
        <time>2020-08-27T13:41:42.344Z</time>
      </trkpt>
      <trkpt lat="69.35694" lon="18.69265">
        <ele>0.367131</ele>
        <time>2020-08-27T13:41:52.405Z</time>
      </trkpt>
      <trkpt lat="69.35691" lon="18.69266">
        <ele>0.363198</ele>
        <time>2020-08-27T13:41:53.012Z</time>
      </trkpt>
      <trkpt lat="69.35673" lon="18.69268">
        <ele>0.342736</ele>
        <time>2020-08-27T13:41:56.075Z</time>
      </trkpt>
      <trkpt lat="69.35669" lon="18.69269">
        <ele>0.337304</ele>
        <time>2020-08-27T13:41:56.872Z</time>
      </trkpt>
      <trkpt lat="69.3564" lon="18.69272">
        <ele>0.30414</ele>
        <time>2020-08-27T13:42:01.871Z</time>
      </trkpt>
      <trkpt lat="69.3562" lon="18.69281">
        <ele>0.289226</ele>
        <time>2020-08-27T13:42:05.346Z</time>
      </trkpt>
      <trkpt lat="69.35601" lon="18.69309">
        <ele>0.315862</ele>
        <time>2020-08-27T13:42:09.069Z</time>
      </trkpt>
      <trkpt lat="69.35573" lon="18.69405">
        <ele>0.370926</ele>
        <time>2020-08-27T13:42:16.857Z</time>
      </trkpt>
      <trkpt lat="69.35538" lon="18.69548">
        <ele>0.447799</ele>
        <time>2020-08-27T13:42:27.939Z</time>
      </trkpt>
      <trkpt lat="69.35519" lon="18.69629">
        <ele>0.49121</ele>
        <time>2020-08-27T13:42:34.454Z</time>
      </trkpt>
      <trkpt lat="69.35479" lon="18.69804">
        <ele>1.09774</ele>
        <time>2020-08-27T13:42:48.652Z</time>
      </trkpt>
      <trkpt lat="69.35418" lon="18.70189">
        <ele>2.695296</ele>
        <time>2020-08-27T13:43:21.358Z</time>
      </trkpt>
      <trkpt lat="69.35409" lon="18.70254">
        <ele>3.039302</ele>
        <time>2020-08-27T13:43:27.433Z</time>
      </trkpt>
      <trkpt lat="69.354" lon="18.70315">
        <ele>3.363544</ele>
        <time>2020-08-27T13:43:32.940Z</time>
      </trkpt>
      <trkpt lat="69.35377" lon="18.70446">
        <ele>4.077584</ele>
        <time>2020-08-27T13:43:44.699Z</time>
      </trkpt>
      <trkpt lat="69.3535" lon="18.70548">
        <ele>4.700364</ele>
        <time>2020-08-27T13:43:54.398Z</time>
      </trkpt>
      <trkpt lat="69.35328" lon="18.70617">
        <ele>4.897717</ele>
        <time>2020-08-27T13:44:01.349Z</time>
      </trkpt>
      <trkpt lat="69.35249" lon="18.7085">
        <ele>5.301557</ele>
        <time>2020-08-27T13:44:22.654Z</time>
      </trkpt>
      <trkpt lat="69.35232" lon="18.70902">
        <ele>5.391061</ele>
        <time>2020-08-27T13:44:27.246Z</time>
      </trkpt>
      <trkpt lat="69.35176" lon="18.711">
        <ele>5.545315</ele>
        <time>2020-08-27T13:44:42.602Z</time>
      </trkpt>
      <trkpt lat="69.35093" lon="18.71445">
        <ele>5.916386</ele>
        <time>2020-08-27T13:45:10.209Z</time>
      </trkpt>
      <trkpt lat="69.35061" lon="18.71582">
        <ele>6.247536</ele>
        <time>2020-08-27T13:45:22.044Z</time>
      </trkpt>
      <trkpt lat="69.35028" lon="18.71717">
        <ele>6.575531</ele>
        <time>2020-08-27T13:45:33.720Z</time>
      </trkpt>
      <trkpt lat="69.35012" lon="18.71785">
        <ele>6.712531</ele>
        <time>2020-08-27T13:45:39.335Z</time>
      </trkpt>
      <trkpt lat="69.34989" lon="18.71881">
        <ele>6.747244</ele>
        <time>2020-08-27T13:45:47.318Z</time>
      </trkpt>
      <trkpt lat="69.34941" lon="18.72081">
        <ele>6.819514</ele>
        <time>2020-08-27T13:46:03.067Z</time>
      </trkpt>
      <trkpt lat="69.34899" lon="18.72298">
        <ele>6.542439</ele>
        <time>2020-08-27T13:46:17.445Z</time>
      </trkpt>
      <trkpt lat="69.34887" lon="18.72383">
        <ele>6.277587</ele>
        <time>2020-08-27T13:46:22.601Z</time>
      </trkpt>
      <trkpt lat="69.34861" lon="18.72567">
        <ele>5.710929</ele>
        <time>2020-08-27T13:46:33.570Z</time>
      </trkpt>
      <trkpt lat="69.34803" lon="18.72983">
        <ele>4.243751</ele>
        <time>2020-08-27T13:46:57.918Z</time>
      </trkpt>
      <trkpt lat="69.34788" lon="18.73064">
        <ele>3.932203</ele>
        <time>2020-08-27T13:47:02.785Z</time>
      </trkpt>
      <trkpt lat="69.34745" lon="18.73239">
        <ele>3.787006</ele>
        <time>2020-08-27T13:47:14.820Z</time>
      </trkpt>
      <trkpt lat="69.34745" lon="18.73239">
        <ele>3.787006</ele>
        <time>2020-08-27T13:47:14.827Z</time>
      </trkpt>
      <trkpt lat="69.34719" lon="18.73445">
        <ele>4.004662</ele>
        <time>2020-08-27T13:47:28.853Z</time>
      </trkpt>
      <trkpt lat="69.34699" lon="18.73691">
        <ele>5.197083</ele>
        <time>2020-08-27T13:47:48.611Z</time>
      </trkpt>
      <trkpt lat="69.34698" lon="18.73776">
        <ele>6.131577</ele>
        <time>2020-08-27T13:47:56.623Z</time>
      </trkpt>
      <trkpt lat="69.34724" lon="18.74106">
        <ele>9.835292</ele>
        <time>2020-08-27T13:48:32.735Z</time>
      </trkpt>
      <trkpt lat="69.34735" lon="18.74242">
        <ele>11.012382</ele>
        <time>2020-08-27T13:48:47.720Z</time>
      </trkpt>
      <trkpt lat="69.34746" lon="18.74381">
        <ele>12.210449</ele>
        <time>2020-08-27T13:49:01.610Z</time>
      </trkpt>
      <trkpt lat="69.34751" lon="18.74438">
        <ele>12.702719</ele>
        <time>2020-08-27T13:49:07.280Z</time>
      </trkpt>
      <trkpt lat="69.34836" lon="18.75508">
        <ele>15.06559</ele>
        <time>2020-08-27T13:50:19.612Z</time>
      </trkpt>
      <trkpt lat="69.34841" lon="18.75564">
        <ele>15.126755</ele>
        <time>2020-08-27T13:50:23.220Z</time>
      </trkpt>
      <trkpt lat="69.34843" lon="18.75586">
        <ele>15.151285</ele>
        <time>2020-08-27T13:50:24.735Z</time>
      </trkpt>
      <trkpt lat="69.34859" lon="18.75781">
        <ele>16.477577</ele>
        <time>2020-08-27T13:50:39.055Z</time>
      </trkpt>
      <trkpt lat="69.34873" lon="18.75998">
        <ele>17.9719</ele>
        <time>2020-08-27T13:50:58.065Z</time>
      </trkpt>
      <trkpt lat="69.34868" lon="18.76111">
        <ele>18.969607</ele>
        <time>2020-08-27T13:51:09.795Z</time>
      </trkpt>
      <trkpt lat="69.34862" lon="18.76144">
        <ele>19.663716</ele>
        <time>2020-08-27T13:51:13.828Z</time>
      </trkpt>
      <trkpt lat="69.34847" lon="18.76179">
        <ele>20.660589</ele>
        <time>2020-08-27T13:51:19.749Z</time>
      </trkpt>
      <trkpt lat="69.34794" lon="18.7625">
        <ele>23.758065</ele>
        <time>2020-08-27T13:51:39.674Z</time>
      </trkpt>
      <trkpt lat="69.34782" lon="18.76299">
        <ele>24.851146</ele>
        <time>2020-08-27T13:51:47.246Z</time>
      </trkpt>
      <trkpt lat="69.34774" lon="18.76367">
        <ele>26.181277</ele>
        <time>2020-08-27T13:51:56.763Z</time>
      </trkpt>
      <trkpt lat="69.34772" lon="18.76454">
        <ele>27.790036</ele>
        <time>2020-08-27T13:52:08.646Z</time>
      </trkpt>
      <trkpt lat="69.34784" lon="18.76747">
        <ele>34.836954</ele>
        <time>2020-08-27T13:52:50.565Z</time>
      </trkpt>
      <trkpt lat="69.34777" lon="18.76889">
        <ele>38.291808</ele>
        <time>2020-08-27T13:53:10.897Z</time>
      </trkpt>
      <trkpt lat="69.34761" lon="18.76973">
        <ele>40.566493</ele>
        <time>2020-08-27T13:53:24.310Z</time>
      </trkpt>
      <trkpt lat="69.34669" lon="18.77315">
        <ele>49.939266</ele>
        <time>2020-08-27T13:54:23.113Z</time>
      </trkpt>
      <trkpt lat="69.34608" lon="18.77538">
        <ele>53.775932</ele>
        <time>2020-08-27T13:54:55.884Z</time>
      </trkpt>
      <trkpt lat="69.34553" lon="18.77739">
        <ele>56.58267</ele>
        <time>2020-08-27T13:55:20.356Z</time>
      </trkpt>
      <trkpt lat="69.34444" lon="18.78137">
        <ele>54.304135</ele>
        <time>2020-08-27T13:55:47.349Z</time>
      </trkpt>
      <trkpt lat="69.34391" lon="18.78329">
        <ele>50.032567</ele>
        <time>2020-08-27T13:55:57.429Z</time>
      </trkpt>
      <trkpt lat="69.34363" lon="18.78431">
        <ele>47.35266</ele>
        <time>2020-08-27T13:56:02.807Z</time>
      </trkpt>
      <trkpt lat="69.34351" lon="18.78479">
        <ele>46.146794</ele>
        <time>2020-08-27T13:56:05.151Z</time>
      </trkpt>
      <trkpt lat="69.34349" lon="18.78487">
        <ele>45.928495</ele>
        <time>2020-08-27T13:56:05.592Z</time>
      </trkpt>
      <trkpt lat="69.34328" lon="18.78563">
        <ele>43.955709</ele>
        <time>2020-08-27T13:56:09.481Z</time>
      </trkpt>
      <trkpt lat="69.343" lon="18.78692">
        <ele>41.606179</ele>
        <time>2020-08-27T13:56:15.770Z</time>
      </trkpt>
      <trkpt lat="69.34245" lon="18.79135">
        <ele>35.772191</ele>
        <time>2020-08-27T13:56:37.092Z</time>
      </trkpt>
      <trkpt lat="69.34238" lon="18.79179">
        <ele>35.662424</ele>
        <time>2020-08-27T13:56:39.619Z</time>
      </trkpt>
      <trkpt lat="69.34231" lon="18.7922">
        <ele>35.558685</ele>
        <time>2020-08-27T13:56:42.117Z</time>
      </trkpt>
      <trkpt lat="69.341" lon="18.79732">
        <ele>36.165547</ele>
        <time>2020-08-27T13:57:25.951Z</time>
      </trkpt>
      <trkpt lat="69.33989" lon="18.80146">
        <ele>39.080559</ele>
        <time>2020-08-27T13:58:12.205Z</time>
      </trkpt>
      <trkpt lat="69.33934" lon="18.80353">
        <ele>39.988673</ele>
        <time>2020-08-27T13:58:32.323Z</time>
      </trkpt>
      <trkpt lat="69.33909" lon="18.80447">
        <ele>39.406828</ele>
        <time>2020-08-27T13:58:39.654Z</time>
      </trkpt>
      <trkpt lat="69.3389" lon="18.80523">
        <ele>38.954448</ele>
        <time>2020-08-27T13:58:45.165Z</time>
      </trkpt>
      <trkpt lat="69.33887" lon="18.80537">
        <ele>38.878978</ele>
        <time>2020-08-27T13:58:45.865Z</time>
      </trkpt>
      <trkpt lat="69.33886" lon="18.80544">
        <ele>38.834851</ele>
        <time>2020-08-27T13:58:46.381Z</time>
      </trkpt>
      <trkpt lat="69.33869" lon="18.8068">
        <ele>38.131494</ele>
        <time>2020-08-27T13:58:53.326Z</time>
      </trkpt>
      <trkpt lat="69.33867" lon="18.80709">
        <ele>37.988197</ele>
        <time>2020-08-27T13:58:54.653Z</time>
      </trkpt>
      <trkpt lat="69.33867" lon="18.80723">
        <ele>37.919862</ele>
        <time>2020-08-27T13:58:55.223Z</time>
      </trkpt>
      <trkpt lat="69.33866" lon="18.80755">
        <ele>37.618539</ele>
        <time>2020-08-27T13:58:56.639Z</time>
      </trkpt>
      <trkpt lat="69.33866" lon="18.808">
        <ele>36.832898</ele>
        <time>2020-08-27T13:58:58.597Z</time>
      </trkpt>
      <trkpt lat="69.33866" lon="18.80853">
        <ele>35.924562</ele>
        <time>2020-08-27T13:59:00.858Z</time>
      </trkpt>
      <trkpt lat="69.33868" lon="18.81013">
        <ele>33.160814</ele>
        <time>2020-08-27T13:59:07.698Z</time>
      </trkpt>
      <trkpt lat="69.33869" lon="18.81126">
        <ele>31.208819</ele>
        <time>2020-08-27T13:59:12.517Z</time>
      </trkpt>
      <trkpt lat="69.33872" lon="18.81468">
        <ele>25.646647</ele>
        <time>2020-08-27T13:59:27.037Z</time>
      </trkpt>
      <trkpt lat="69.33882" lon="18.81695">
        <ele>22.06115</ele>
        <time>2020-08-27T13:59:37.207Z</time>
      </trkpt>
      <trkpt lat="69.33886" lon="18.81785">
        <ele>20.818112</ele>
        <time>2020-08-27T13:59:41.346Z</time>
      </trkpt>
      <trkpt lat="69.3389" lon="18.81859">
        <ele>20.164859</ele>
        <time>2020-08-27T13:59:44.739Z</time>
      </trkpt>
      <trkpt lat="69.33898" lon="18.82028">
        <ele>18.659059</ele>
        <time>2020-08-27T13:59:52.821Z</time>
      </trkpt>
      <trkpt lat="69.33914" lon="18.8236">
        <ele>16.288859</ele>
        <time>2020-08-27T14:00:09.768Z</time>
      </trkpt>
      <trkpt lat="69.3392" lon="18.82495">
        <ele>15.910095</ele>
        <time>2020-08-27T14:00:17.548Z</time>
      </trkpt>
      <trkpt lat="69.33928" lon="18.82667">
        <ele>15.423668</ele>
        <time>2020-08-27T14:00:27.846Z</time>
      </trkpt>
      <trkpt lat="69.33936" lon="18.82817">
        <ele>14.861746</ele>
        <time>2020-08-27T14:00:37.096Z</time>
      </trkpt>
      <trkpt lat="69.33937" lon="18.82987">
        <ele>13.869861</ele>
        <time>2020-08-27T14:00:46.307Z</time>
      </trkpt>
      <trkpt lat="69.33936" lon="18.83015">
        <ele>13.706416</ele>
        <time>2020-08-27T14:00:47.850Z</time>
      </trkpt>
      <trkpt lat="69.33932" lon="18.83063">
        <ele>13.418775</ele>
        <time>2020-08-27T14:00:50.306Z</time>
      </trkpt>
      <trkpt lat="69.33921" lon="18.8316">
        <ele>12.825853</ele>
        <time>2020-08-27T14:00:55.419Z</time>
      </trkpt>
      <trkpt lat="69.33915" lon="18.83201">
        <ele>12.563541</ele>
        <time>2020-08-27T14:00:57.670Z</time>
      </trkpt>
      <trkpt lat="69.33908" lon="18.83242">
        <ele>12.301374</ele>
        <time>2020-08-27T14:00:59.769Z</time>
      </trkpt>
      <trkpt lat="69.33875" lon="18.8339">
        <ele>10.19465</ele>
        <time>2020-08-27T14:01:07.907Z</time>
      </trkpt>
      <trkpt lat="69.33843" lon="18.83499">
        <ele>8.372133</ele>
        <time>2020-08-27T14:01:14.031Z</time>
      </trkpt>
      <trkpt lat="69.33773" lon="18.83676">
        <ele>5.155699</ele>
        <time>2020-08-27T14:01:25.883Z</time>
      </trkpt>
      <trkpt lat="69.33747" lon="18.83729">
        <ele>4.402738</ele>
        <time>2020-08-27T14:01:30.100Z</time>
      </trkpt>
      <trkpt lat="69.33701" lon="18.83826">
        <ele>3.078957</ele>
        <time>2020-08-27T14:01:37.791Z</time>
      </trkpt>
      <trkpt lat="69.3362" lon="18.83997">
        <ele>2.00783</ele>
        <time>2020-08-27T14:01:52.881Z</time>
      </trkpt>
      <trkpt lat="69.33604" lon="18.84064">
        <ele>2.637056</ele>
        <time>2020-08-27T14:01:58.987Z</time>
      </trkpt>
      <trkpt lat="69.33594" lon="18.8416">
        <ele>3.410704</ele>
        <time>2020-08-27T14:02:07.413Z</time>
      </trkpt>
      <trkpt lat="69.33594" lon="18.84171">
        <ele>3.495354</ele>
        <time>2020-08-27T14:02:08.427Z</time>
      </trkpt>
      <trkpt lat="69.33592" lon="18.84214">
        <ele>3.838564</ele>
        <time>2020-08-27T14:02:12.695Z</time>
      </trkpt>
      <trkpt lat="69.33591" lon="18.84257">
        <ele>4.173</ele>
        <time>2020-08-27T14:02:16.907Z</time>
      </trkpt>
      <trkpt lat="69.33595" lon="18.84355">
        <ele>4.940457</ele>
        <time>2020-08-27T14:02:27.807Z</time>
      </trkpt>
      <trkpt lat="69.33598" lon="18.84376">
        <ele>5.105487</ele>
        <time>2020-08-27T14:02:30.333Z</time>
      </trkpt>
      <trkpt lat="69.33602" lon="18.84412">
        <ele>5.485081</ele>
        <time>2020-08-27T14:02:34.819Z</time>
      </trkpt>
      <trkpt lat="69.33617" lon="18.84529">
        <ele>8.080439</ele>
        <time>2020-08-27T14:02:50.042Z</time>
      </trkpt>
      <trkpt lat="69.33629" lon="18.84622">
        <ele>10.138771</ele>
        <time>2020-08-27T14:03:02.996Z</time>
      </trkpt>
      <trkpt lat="69.33644" lon="18.84749">
        <ele>12.927639</ele>
        <time>2020-08-27T14:03:21.342Z</time>
      </trkpt>
      <trkpt lat="69.3365" lon="18.84849">
        <ele>15.037276</ele>
        <time>2020-08-27T14:03:35.654Z</time>
      </trkpt>
      <trkpt lat="69.33644" lon="18.84935">
        <ele>16.811389</ele>
        <time>2020-08-27T14:03:47.416Z</time>
      </trkpt>
      <trkpt lat="69.3353" lon="18.85466">
        <ele>28.440237</ele>
        <time>2020-08-27T14:05:05.483Z</time>
      </trkpt>
      <trkpt lat="69.33503" lon="18.85585">
        <ele>30.529906</ele>
        <time>2020-08-27T14:05:21.136Z</time>
      </trkpt>
      <trkpt lat="69.33483" lon="18.85673">
        <ele>32.082597</ele>
        <time>2020-08-27T14:05:32.073Z</time>
      </trkpt>
      <trkpt lat="69.33452" lon="18.85816">
        <ele>33.955474</ele>
        <time>2020-08-27T14:05:48.374Z</time>
      </trkpt>
      <trkpt lat="69.33413" lon="18.85993">
        <ele>34.905003</ele>
        <time>2020-08-27T14:06:06.267Z</time>
      </trkpt>
      <trkpt lat="69.33349" lon="18.86284">
        <ele>35.316536</ele>
        <time>2020-08-27T14:06:28.517Z</time>
      </trkpt>
      <trkpt lat="69.33328" lon="18.86379">
        <ele>34.578123</ele>
        <time>2020-08-27T14:06:34.405Z</time>
      </trkpt>
      <trkpt lat="69.33269" lon="18.86647">
        <ele>32.322525</ele>
        <time>2020-08-27T14:06:49.589Z</time>
      </trkpt>
      <trkpt lat="69.3322" lon="18.86878">
        <ele>28.401746</ele>
        <time>2020-08-27T14:07:01.420Z</time>
      </trkpt>
      <trkpt lat="69.33202" lon="18.8711">
        <ele>24.989182</ele>
        <time>2020-08-27T14:07:11.781Z</time>
      </trkpt>
      <trkpt lat="69.33132" lon="18.87421">
        <ele>20.283046</ele>
        <time>2020-08-27T14:07:28.021Z</time>
      </trkpt>
      <trkpt lat="69.33115" lon="18.87557">
        <ele>18.738119</ele>
        <time>2020-08-27T14:07:34.797Z</time>
      </trkpt>
      <trkpt lat="69.33083" lon="18.87946">
        <ele>19.100076</ele>
        <time>2020-08-27T14:07:59.032Z</time>
      </trkpt>
      <trkpt lat="69.33123" lon="18.88275">
        <ele>22.664222</ele>
        <time>2020-08-27T14:08:36.246Z</time>
      </trkpt>
      <trkpt lat="69.33126" lon="18.88293">
        <ele>22.92679</ele>
        <time>2020-08-27T14:08:39.818Z</time>
      </trkpt>
      <trkpt lat="69.33128" lon="18.88304">
        <ele>23.083331</ele>
        <time>2020-08-27T14:08:41.964Z</time>
      </trkpt>
      <trkpt lat="69.33138" lon="18.88345">
        <ele>23.770307</ele>
        <time>2020-08-27T14:08:46.469Z</time>
      </trkpt>
      <trkpt lat="69.3317" lon="18.88426">
        <ele>25.38683</ele>
        <time>2020-08-27T14:08:59.502Z</time>
      </trkpt>
      <trkpt lat="69.33177" lon="18.88445">
        <ele>25.770797</ele>
        <time>2020-08-27T14:09:04.543Z</time>
      </trkpt>
      <trkpt lat="69.33212" lon="18.88541">
        <ele>26.069389</ele>
        <time>2020-08-27T14:09:16.176Z</time>
      </trkpt>
      <trkpt lat="69.33223" lon="18.88572">
        <ele>26.089519</ele>
        <time>2020-08-27T14:09:19.503Z</time>
      </trkpt>
      <trkpt lat="69.33243" lon="18.8864">
        <ele>26.130313</ele>
        <time>2020-08-27T14:09:26.198Z</time>
      </trkpt>
      <trkpt lat="69.33245" lon="18.88654">
        <ele>26.137554</ele>
        <time>2020-08-27T14:09:27.314Z</time>
      </trkpt>
      <trkpt lat="69.3325" lon="18.88654">
        <ele>26.143596</ele>
        <time>2020-08-27T14:09:28.414Z</time>
      </trkpt>
      <trkpt lat="69.33252" lon="18.88654">
        <ele>26.145713</ele>
        <time>2020-08-27T14:09:28.780Z</time>
      </trkpt>
      <trkpt lat="69.33253" lon="18.88656">
        <ele>26.147675</ele>
        <time>2020-08-27T14:09:29.087Z</time>
      </trkpt>
      <trkpt lat="69.33256" lon="18.88672">
        <ele>26.155755</ele>
        <time>2020-08-27T14:09:29.916Z</time>
      </trkpt>
      <trkpt lat="69.33259" lon="18.88737">
        <ele>26.186106</ele>
        <time>2020-08-27T14:09:33.368Z</time>
      </trkpt>
      <trkpt lat="69.33258" lon="18.88772">
        <ele>26.202602</ele>
        <time>2020-08-27T14:09:35.282Z</time>
      </trkpt>
      <trkpt lat="69.33256" lon="18.88794">
        <ele>26.213135</ele>
        <time>2020-08-27T14:09:36.301Z</time>
      </trkpt>
      <trkpt lat="69.33252" lon="18.8884">
        <ele>26.235384</ele>
        <time>2020-08-27T14:09:38.738Z</time>
      </trkpt>
      <trkpt lat="69.33224" lon="18.89057">
        <ele>23.50763</ele>
        <time>2020-08-27T14:09:49.190Z</time>
      </trkpt>
      <trkpt lat="69.33175" lon="18.89445">
        <ele>17.685482</ele>
        <time>2020-08-27T14:10:07.246Z</time>
      </trkpt>
      <trkpt lat="69.3313" lon="18.89803">
        <ele>11.856183</ele>
        <time>2020-08-27T14:10:23.863Z</time>
      </trkpt>
      <trkpt lat="69.33114" lon="18.89921">
        <ele>10.759738</ele>
        <time>2020-08-27T14:10:29.482Z</time>
      </trkpt>
      <trkpt lat="69.33096" lon="18.90071">
        <ele>9.664419</ele>
        <time>2020-08-27T14:10:36.912Z</time>
      </trkpt>
      <trkpt lat="69.3309" lon="18.90201">
        <ele>8.762467</ele>
        <time>2020-08-27T14:10:43.567Z</time>
      </trkpt>
      <trkpt lat="69.33116" lon="18.90593">
        <ele>8.841916</ele>
        <time>2020-08-27T14:11:11.645Z</time>
      </trkpt>
      <trkpt lat="69.33118" lon="18.90597">
        <ele>8.860113</ele>
        <time>2020-08-27T14:11:12.631Z</time>
      </trkpt>
      <trkpt lat="69.33121" lon="18.90613">
        <ele>8.919339</ele>
        <time>2020-08-27T14:11:14.543Z</time>
      </trkpt>
      <trkpt lat="69.33124" lon="18.90649">
        <ele>9.042111</ele>
        <time>2020-08-27T14:11:17.072Z</time>
      </trkpt>
      <trkpt lat="69.33121" lon="18.90763">
        <ele>9.42502</ele>
        <time>2020-08-27T14:11:26.322Z</time>
      </trkpt>
      <trkpt lat="69.33088" lon="18.90841">
        <ele>9.597475</ele>
        <time>2020-08-27T14:11:35.820Z</time>
      </trkpt>
      <trkpt lat="69.33023" lon="18.91119">
        <ele>9.511986</ele>
        <time>2020-08-27T14:11:57.648Z</time>
      </trkpt>
      <trkpt lat="69.33014" lon="18.91177">
        <ele>9.495637</ele>
        <time>2020-08-27T14:12:00.997Z</time>
      </trkpt>
      <trkpt lat="69.33012" lon="18.91187">
        <ele>9.492891</ele>
        <time>2020-08-27T14:12:01.538Z</time>
      </trkpt>
      <trkpt lat="69.33003" lon="18.91227">
        <ele>9.406012</ele>
        <time>2020-08-27T14:12:03.972Z</time>
      </trkpt>
      <trkpt lat="69.32986" lon="18.91294">
        <ele>8.82124</ele>
        <time>2020-08-27T14:12:08.260Z</time>
      </trkpt>
      <trkpt lat="69.32983" lon="18.91304">
        <ele>8.718319</ele>
        <time>2020-08-27T14:12:08.884Z</time>
      </trkpt>
      <trkpt lat="69.32895" lon="18.91613">
        <ele>5.85531</ele>
        <time>2020-08-27T14:12:28.267Z</time>
      </trkpt>
      <trkpt lat="69.32878" lon="18.91695">
        <ele>5.26866</ele>
        <time>2020-08-27T14:12:32.913Z</time>
      </trkpt>
      <trkpt lat="69.32854" lon="18.9187">
        <ele>4.131797</ele>
        <time>2020-08-27T14:12:42.366Z</time>
      </trkpt>
      <trkpt lat="69.32818" lon="18.91978">
        <ele>3.235801</ele>
        <time>2020-08-27T14:12:50.067Z</time>
      </trkpt>
      <trkpt lat="69.32816" lon="18.9198">
        <ele>3.196763</ele>
        <time>2020-08-27T14:12:50.396Z</time>
      </trkpt>
      <trkpt lat="69.32814" lon="18.91975">
        <ele>3.151269</ele>
        <time>2020-08-27T14:12:50.782Z</time>
      </trkpt>
      <trkpt lat="69.32812" lon="18.91965">
        <ele>3.078437</ele>
        <time>2020-08-27T14:12:51.432Z</time>
      </trkpt>
      <trkpt lat="69.32779" lon="18.92025">
        <ele>2.646577</ele>
        <time>2020-08-27T14:12:57.336Z</time>
      </trkpt>
      <trkpt lat="69.32757" lon="18.9208">
        <ele>2.523212</ele>
        <time>2020-08-27T14:13:02.027Z</time>
      </trkpt>
      <trkpt lat="69.32745" lon="18.92139">
        <ele>2.424851</ele>
        <time>2020-08-27T14:13:05.893Z</time>
      </trkpt>
      <trkpt lat="69.3274" lon="18.92207">
        <ele>2.323305</ele>
        <time>2020-08-27T14:13:09.864Z</time>
      </trkpt>
      <trkpt lat="69.32742" lon="18.92279">
        <ele>2.217251</ele>
        <time>2020-08-27T14:13:14.103Z</time>
      </trkpt>
      <trkpt lat="69.32744" lon="18.92316">
        <ele>2.162651</ele>
        <time>2020-08-27T14:13:16.358Z</time>
      </trkpt>
      <trkpt lat="69.3275" lon="18.92413">
        <ele>2.017374</ele>
        <time>2020-08-27T14:13:22.930Z</time>
      </trkpt>
      <trkpt lat="69.32759" lon="18.9252">
        <ele>2.283689</ele>
        <time>2020-08-27T14:13:30.499Z</time>
      </trkpt>
      <trkpt lat="69.32794" lon="18.92712">
        <ele>3.11655</ele>
        <time>2020-08-27T14:13:46.347Z</time>
      </trkpt>
      <trkpt lat="69.32797" lon="18.92734">
        <ele>3.20825</ele>
        <time>2020-08-27T14:13:48.265Z</time>
      </trkpt>
      <trkpt lat="69.32802" lon="18.92769">
        <ele>3.355348</ele>
        <time>2020-08-27T14:13:51.456Z</time>
      </trkpt>
      <trkpt lat="69.32811" lon="18.92951">
        <ele>4.064321</ele>
        <time>2020-08-27T14:14:06.295Z</time>
      </trkpt>
      <trkpt lat="69.32812" lon="18.93079">
        <ele>4.555156</ele>
        <time>2020-08-27T14:14:16.767Z</time>
      </trkpt>
      <trkpt lat="69.32812" lon="18.9321">
        <ele>5.056626</ele>
        <time>2020-08-27T14:14:27.244Z</time>
      </trkpt>
      <trkpt lat="69.32807" lon="18.93329">
        <ele>5.512135</ele>
        <time>2020-08-27T14:14:35.545Z</time>
      </trkpt>
      <trkpt lat="69.32795" lon="18.93401">
        <ele>5.819945</ele>
        <time>2020-08-27T14:14:41.142Z</time>
      </trkpt>
      <trkpt lat="69.3277" lon="18.93472">
        <ele>5.918091</ele>
        <time>2020-08-27T14:14:47.878Z</time>
      </trkpt>
      <trkpt lat="69.32742" lon="18.93506">
        <ele>5.944506</ele>
        <time>2020-08-27T14:14:53.207Z</time>
      </trkpt>
      <trkpt lat="69.32725" lon="18.93521">
        <ele>5.960054</ele>
        <time>2020-08-27T14:14:56.227Z</time>
      </trkpt>
      <trkpt lat="69.32711" lon="18.93535">
        <ele>5.9735</ele>
        <time>2020-08-27T14:14:58.810Z</time>
      </trkpt>
      <trkpt lat="69.3268" lon="18.93571">
        <ele>6.002886</ele>
        <time>2020-08-27T14:15:04.557Z</time>
      </trkpt>
      <trkpt lat="69.32628" lon="18.93663">
        <ele>6.133101</ele>
        <time>2020-08-27T14:15:15.699Z</time>
      </trkpt>
      <trkpt lat="69.32623" lon="18.93672">
        <ele>6.200997</ele>
        <time>2020-08-27T14:15:16.663Z</time>
      </trkpt>
      <trkpt lat="69.32592" lon="18.93739">
        <ele>6.673431</ele>
        <time>2020-08-27T14:15:24.177Z</time>
      </trkpt>
      <trkpt lat="69.32552" lon="18.93855">
        <ele>7.366288</ele>
        <time>2020-08-27T14:15:36.881Z</time>
      </trkpt>
      <trkpt lat="69.32434" lon="18.94365">
        <ele>10.667405</ele>
        <time>2020-08-27T14:16:28.140Z</time>
      </trkpt>
      <trkpt lat="69.32375" lon="18.94592">
        <ele>11.662297</ele>
        <time>2020-08-27T14:16:50.024Z</time>
      </trkpt>
      <trkpt lat="69.32359" lon="18.94654">
        <ele>11.825011</ele>
        <time>2020-08-27T14:16:55.525Z</time>
      </trkpt>
      <trkpt lat="69.32313" lon="18.94895">
        <ele>12.320673</ele>
        <time>2020-08-27T14:17:13.333Z</time>
      </trkpt>
      <trkpt lat="69.32176" lon="18.95375">
        <ele>10.836281</ele>
        <time>2020-08-27T14:17:48.690Z</time>
      </trkpt>
      <trkpt lat="69.32133" lon="18.95569">
        <ele>9.776305</ele>
        <time>2020-08-27T14:18:00.855Z</time>
      </trkpt>
      <trkpt lat="69.32113" lon="18.95637">
        <ele>9.359352</ele>
        <time>2020-08-27T14:18:05.315Z</time>
      </trkpt>
      <trkpt lat="69.32109" lon="18.95647">
        <ele>9.287246</ele>
        <time>2020-08-27T14:18:06.166Z</time>
      </trkpt>
      <trkpt lat="69.32101" lon="18.95663">
        <ele>9.164901</ele>
        <time>2020-08-27T14:18:07.403Z</time>
      </trkpt>
      <trkpt lat="69.32066" lon="18.95709">
        <ele>8.646848</ele>
        <time>2020-08-27T14:18:12.830Z</time>
      </trkpt>
      <trkpt lat="69.32038" lon="18.95712">
        <ele>8.262738</ele>
        <time>2020-08-27T14:18:16.974Z</time>
      </trkpt>
      <trkpt lat="69.32025" lon="18.95706">
        <ele>8.086338</ele>
        <time>2020-08-27T14:18:18.724Z</time>
      </trkpt>
      <trkpt lat="69.32018" lon="18.95699">
        <ele>7.978557</ele>
        <time>2020-08-27T14:18:19.869Z</time>
      </trkpt>
      <trkpt lat="69.32005" lon="18.95683">
        <ele>7.78501</ele>
        <time>2020-08-27T14:18:22.094Z</time>
      </trkpt>
      <trkpt lat="69.31994" lon="18.95664">
        <ele>7.613687</ele>
        <time>2020-08-27T14:18:23.863Z</time>
      </trkpt>
      <trkpt lat="69.31968" lon="18.9562">
        <ele>7.209724</ele>
        <time>2020-08-27T14:18:28.427Z</time>
      </trkpt>
      <trkpt lat="69.31927" lon="18.95574">
        <ele>6.645757</ele>
        <time>2020-08-27T14:18:35.752Z</time>
      </trkpt>
      <trkpt lat="69.31889" lon="18.95573">
        <ele>6.781857</ele>
        <time>2020-08-27T14:18:42.092Z</time>
      </trkpt>
      <trkpt lat="69.3187" lon="18.9558">
        <ele>6.849299</ele>
        <time>2020-08-27T14:18:45.537Z</time>
      </trkpt>
      <trkpt lat="69.31843" lon="18.95594">
        <ele>6.948027</ele>
        <time>2020-08-27T14:18:50.769Z</time>
      </trkpt>
      <trkpt lat="69.31789" lon="18.95626">
        <ele>7.1499</ele>
        <time>2020-08-27T14:19:02.325Z</time>
      </trkpt>
      <trkpt lat="69.31752" lon="18.95647">
        <ele>7.285384</ele>
        <time>2020-08-27T14:19:10.107Z</time>
      </trkpt>
      <trkpt lat="69.3172" lon="18.95663">
        <ele>7.331454</ele>
        <time>2020-08-27T14:19:16.765Z</time>
      </trkpt>
      <trkpt lat="69.31693" lon="18.95673">
        <ele>7.369753</ele>
        <time>2020-08-27T14:19:22.144Z</time>
      </trkpt>
      <trkpt lat="69.31655" lon="18.95681">
        <ele>7.423931</ele>
        <time>2020-08-27T14:19:29.215Z</time>
      </trkpt>
      <trkpt lat="69.31645" lon="18.95678">
        <ele>7.437846</ele>
        <time>2020-08-27T14:19:30.954Z</time>
      </trkpt>
      <trkpt lat="69.31638" lon="18.95675">
        <ele>7.448587</ele>
        <time>2020-08-27T14:19:32.247Z</time>
      </trkpt>
      <trkpt lat="69.31627" lon="18.95669">
        <ele>7.463616</ele>
        <time>2020-08-27T14:19:34.054Z</time>
      </trkpt>
      <trkpt lat="69.31618" lon="18.9566">
        <ele>7.477879</ele>
        <time>2020-08-27T14:19:35.771Z</time>
      </trkpt>
      <trkpt lat="69.31608" lon="18.95651">
        <ele>7.491905</ele>
        <time>2020-08-27T14:19:37.424Z</time>
      </trkpt>
      <trkpt lat="69.31481" lon="18.95507">
        <ele>7.321795</ele>
        <time>2020-08-27T14:20:00.057Z</time>
      </trkpt>
      <trkpt lat="69.31444" lon="18.95495">
        <ele>7.242053</ele>
        <time>2020-08-27T14:20:06.559Z</time>
      </trkpt>
      <trkpt lat="69.31421" lon="18.95506">
        <ele>7.192542</ele>
        <time>2020-08-27T14:20:10.890Z</time>
      </trkpt>
      <trkpt lat="69.31412" lon="18.95515">
        <ele>7.171067</ele>
        <time>2020-08-27T14:20:12.539Z</time>
      </trkpt>
      <trkpt lat="69.314" lon="18.9553">
        <ele>7.196761</ele>
        <time>2020-08-27T14:20:14.953Z</time>
      </trkpt>
      <trkpt lat="69.31363" lon="18.9562">
        <ele>7.535806</ele>
        <time>2020-08-27T14:20:24.335Z</time>
      </trkpt>
      <trkpt lat="69.31349" lon="18.95693">
        <ele>7.737483</ele>
        <time>2020-08-27T14:20:30.062Z</time>
      </trkpt>
      <trkpt lat="69.31318" lon="18.95925">
        <ele>8.340807</ele>
        <time>2020-08-27T14:20:48.192Z</time>
      </trkpt>
      <trkpt lat="69.31264" lon="18.96095">
        <ele>9.569447</ele>
        <time>2020-08-27T14:21:06.198Z</time>
      </trkpt>
      <trkpt lat="69.31244" lon="18.96178">
        <ele>10.150238</ele>
        <time>2020-08-27T14:21:14.425Z</time>
      </trkpt>
      <trkpt lat="69.3124" lon="18.96201">
        <ele>10.296879</ele>
        <time>2020-08-27T14:21:16.472Z</time>
      </trkpt>
      <trkpt lat="69.31222" lon="18.96294">
        <ele>10.898028</ele>
        <time>2020-08-27T14:21:25.202Z</time>
      </trkpt>
      <trkpt lat="69.3122" lon="18.96303">
        <ele>10.957839</ele>
        <time>2020-08-27T14:21:26.390Z</time>
      </trkpt>
      <trkpt lat="69.31185" lon="18.96505">
        <ele>13.298618</ele>
        <time>2020-08-27T14:21:45.632Z</time>
      </trkpt>
      <trkpt lat="69.31117" lon="18.96894">
        <ele>18.793616</ele>
        <time>2020-08-27T14:22:32.900Z</time>
      </trkpt>
      <trkpt lat="69.31083" lon="18.9709">
        <ele>22.052376</ele>
        <time>2020-08-27T14:23:00.476Z</time>
      </trkpt>
      <trkpt lat="69.31048" lon="18.97275">
        <ele>24.971698</ele>
        <time>2020-08-27T14:23:22.693Z</time>
      </trkpt>
      <trkpt lat="69.31029" lon="18.97322">
        <ele>24.436378</ele>
        <time>2020-08-27T14:23:29.336Z</time>
      </trkpt>
      <trkpt lat="69.31009" lon="18.97346">
        <ele>23.973613</ele>
        <time>2020-08-27T14:23:33.120Z</time>
      </trkpt>
      <trkpt lat="69.31001" lon="18.97349">
        <ele>23.789261</ele>
        <time>2020-08-27T14:23:36.249Z</time>
      </trkpt>
      <trkpt lat="69.30993" lon="18.97351">
        <ele>23.610437</ele>
        <time>2020-08-27T14:23:37.225Z</time>
      </trkpt>
      <trkpt lat="69.30937" lon="18.97341">
        <ele>22.420447</ele>
        <time>2020-08-27T14:23:44.626Z</time>
      </trkpt>
      <trkpt lat="69.30907" lon="18.9735">
        <ele>21.774803</ele>
        <time>2020-08-27T14:23:48.205Z</time>
      </trkpt>
      <trkpt lat="69.30878" lon="18.97384">
        <ele>20.956607</ele>
        <time>2020-08-27T14:23:51.960Z</time>
      </trkpt>
      <trkpt lat="69.30822" lon="18.97482">
        <ele>17.400312</ele>
        <time>2020-08-27T14:23:59.555Z</time>
      </trkpt>
      <trkpt lat="69.30796" lon="18.97528">
        <ele>15.710014</ele>
        <time>2020-08-27T14:24:03.166Z</time>
      </trkpt>
      <trkpt lat="69.3079" lon="18.97538">
        <ele>15.331075</ele>
        <time>2020-08-27T14:24:04.021Z</time>
      </trkpt>
      <trkpt lat="69.30775" lon="18.97567">
        <ele>14.377165</ele>
        <time>2020-08-27T14:24:06.117Z</time>
      </trkpt>
      <trkpt lat="69.30738" lon="18.97648">
        <ele>11.817205</ele>
        <time>2020-08-27T14:24:11.858Z</time>
      </trkpt>
      <trkpt lat="69.30734" lon="18.97657">
        <ele>11.547596</ele>
        <time>2020-08-27T14:24:12.553Z</time>
      </trkpt>
      <trkpt lat="69.30708" lon="18.97721">
        <ele>11.038972</ele>
        <time>2020-08-27T14:24:16.907Z</time>
      </trkpt>
      <trkpt lat="69.30544" lon="18.98145">
        <ele>9.625768</ele>
        <time>2020-08-27T14:24:54.492Z</time>
      </trkpt>
      <trkpt lat="69.30479" lon="18.98411">
        <ele>10.184032</ele>
        <time>2020-08-27T14:25:19.122Z</time>
      </trkpt>
      <trkpt lat="69.30455" lon="18.98459">
        <ele>10.24738</ele>
        <time>2020-08-27T14:25:25.415Z</time>
      </trkpt>
      <trkpt lat="69.30423" lon="18.98479">
        <ele>10.315744</ele>
        <time>2020-08-27T14:25:32.066Z</time>
      </trkpt>
      <trkpt lat="69.30398" lon="18.98472">
        <ele>10.368884</ele>
        <time>2020-08-27T14:25:36.914Z</time>
      </trkpt>
      <trkpt lat="69.30378" lon="18.98451">
        <ele>10.414173</ele>
        <time>2020-08-27T14:25:40.802Z</time>
      </trkpt>
      <trkpt lat="69.30359" lon="18.98411">
        <ele>10.463891</ele>
        <time>2020-08-27T14:25:44.884Z</time>
      </trkpt>
      <trkpt lat="69.30344" lon="18.98356">
        <ele>10.515741</ele>
        <time>2020-08-27T14:25:48.902Z</time>
      </trkpt>
      <trkpt lat="69.3033" lon="18.98263">
        <ele>10.314528</ele>
        <time>2020-08-27T14:25:54.494Z</time>
      </trkpt>
      <trkpt lat="69.30306" lon="18.97938">
        <ele>9.024636</ele>
        <time>2020-08-27T14:26:12.073Z</time>
      </trkpt>
      <trkpt lat="69.30288" lon="18.9785">
        <ele>8.628178</ele>
        <time>2020-08-27T14:26:17.702Z</time>
      </trkpt>
      <trkpt lat="69.30247" lon="18.97762">
        <ele>8.093349</ele>
        <time>2020-08-27T14:26:25.650Z</time>
      </trkpt>
      <trkpt lat="69.30202" lon="18.97732">
        <ele>7.603051</ele>
        <time>2020-08-27T14:26:33.101Z</time>
      </trkpt>
      <trkpt lat="69.3019" lon="18.9773">
        <ele>7.483268</ele>
        <time>2020-08-27T14:26:35.262Z</time>
      </trkpt>
      <trkpt lat="69.30179" lon="18.97728">
        <ele>7.361345</ele>
        <time>2020-08-27T14:26:37.091Z</time>
      </trkpt>
      <trkpt lat="69.30147" lon="18.977">
        <ele>7.009546</ele>
        <time>2020-08-27T14:26:41.993Z</time>
      </trkpt>
      <trkpt lat="69.30129" lon="18.97663">
        <ele>6.773602</ele>
        <time>2020-08-27T14:26:45.262Z</time>
      </trkpt>
      <trkpt lat="69.30118" lon="18.97621">
        <ele>6.502873</ele>
        <time>2020-08-27T14:26:47.994Z</time>
      </trkpt>
      <trkpt lat="69.30111" lon="18.97519">
        <ele>5.81701</ele>
        <time>2020-08-27T14:26:53.414Z</time>
      </trkpt>
      <trkpt lat="69.30118" lon="18.97428">
        <ele>5.207813</ele>
        <time>2020-08-27T14:26:58.210Z</time>
      </trkpt>
      <trkpt lat="69.30123" lon="18.97389">
        <ele>4.93149</ele>
        <time>2020-08-27T14:27:00.247Z</time>
      </trkpt>
      <trkpt lat="69.30127" lon="18.97362">
        <ele>4.739032</ele>
        <time>2020-08-27T14:27:01.631Z</time>
      </trkpt>
      <trkpt lat="69.30134" lon="18.9729">
        <ele>4.25268</ele>
        <time>2020-08-27T14:27:05.355Z</time>
      </trkpt>
      <trkpt lat="69.30129" lon="18.97228">
        <ele>3.836341</ele>
        <time>2020-08-27T14:27:08.525Z</time>
      </trkpt>
      <trkpt lat="69.30114" lon="18.97177">
        <ele>3.402549</ele>
        <time>2020-08-27T14:27:11.720Z</time>
      </trkpt>
      <trkpt lat="69.30098" lon="18.97156">
        <ele>3.217453</ele>
        <time>2020-08-27T14:27:14.312Z</time>
      </trkpt>
      <trkpt lat="69.30079" lon="18.97154">
        <ele>3.040692</ele>
        <time>2020-08-27T14:27:16.975Z</time>
      </trkpt>
      <trkpt lat="69.30059" lon="18.9717">
        <ele>2.852628</ele>
        <time>2020-08-27T14:27:20.034Z</time>
      </trkpt>
      <trkpt lat="69.29988" lon="18.97271">
        <ele>2.116582</ele>
        <time>2020-08-27T14:27:32.887Z</time>
      </trkpt>
      <trkpt lat="69.29976" lon="18.9729">
        <ele>1.994426</ele>
        <time>2020-08-27T14:27:35.184Z</time>
      </trkpt>
      <trkpt lat="69.29963" lon="18.97311">
        <ele>1.859924</ele>
        <time>2020-08-27T14:27:37.760Z</time>
      </trkpt>
      <trkpt lat="69.29914" lon="18.9743">
        <ele>1.598435</ele>
        <time>2020-08-27T14:27:49.036Z</time>
      </trkpt>
      <trkpt lat="69.29903" lon="18.97455">
        <ele>1.568037</ele>
        <time>2020-08-27T14:27:51.551Z</time>
      </trkpt>
      <trkpt lat="69.29895" lon="18.9747">
        <ele>1.549339</ele>
        <time>2020-08-27T14:27:53.155Z</time>
      </trkpt>
      <trkpt lat="69.2983" lon="18.97552">
        <ele>1.39955</ele>
        <time>2020-08-27T14:28:05.624Z</time>
      </trkpt>
      <trkpt lat="69.29823" lon="18.97557">
        <ele>1.384043</ele>
        <time>2020-08-27T14:28:06.890Z</time>
      </trkpt>
      <trkpt lat="69.29811" lon="18.97566">
        <ele>1.358847</ele>
        <time>2020-08-27T14:28:08.826Z</time>
      </trkpt>
      <trkpt lat="69.29733" lon="18.9763">
        <ele>1.087786</ele>
        <time>2020-08-27T14:28:22.496Z</time>
      </trkpt>
      <trkpt lat="69.2971" lon="18.97674">
        <ele>0.984195</ele>
        <time>2020-08-27T14:28:27.100Z</time>
      </trkpt>
      <trkpt lat="69.29688" lon="18.97738">
        <ele>0.868371</ele>
        <time>2020-08-27T14:28:32.301Z</time>
      </trkpt>
      <trkpt lat="69.29646" lon="18.97916">
        <ele>0.669037</ele>
        <time>2020-08-27T14:28:45.308Z</time>
      </trkpt>
      <trkpt lat="69.29608" lon="18.98143">
        <ele>0.720483</ele>
        <time>2020-08-27T14:29:01.256Z</time>
      </trkpt>
      <trkpt lat="69.29558" lon="18.98331">
        <ele>0.767397</ele>
        <time>2020-08-27T14:29:16.756Z</time>
      </trkpt>
      <trkpt lat="69.29512" lon="18.98659">
        <ele>0.822992</ele>
        <time>2020-08-27T14:29:39.544Z</time>
      </trkpt>
      <trkpt lat="69.29491" lon="18.9873">
        <ele>0.837518</ele>
        <time>2020-08-27T14:29:45.197Z</time>
      </trkpt>
      <trkpt lat="69.29464" lon="18.98781">
        <ele>0.782796</ele>
        <time>2020-08-27T14:29:50.787Z</time>
      </trkpt>
      <trkpt lat="69.29457" lon="18.98795">
        <ele>0.757769</ele>
        <time>2020-08-27T14:29:52.220Z</time>
      </trkpt>
      <trkpt lat="69.29448" lon="18.98815">
        <ele>0.724697</ele>
        <time>2020-08-27T14:29:54.102Z</time>
      </trkpt>
      <trkpt lat="69.29429" lon="18.98872">
        <ele>0.64478</ele>
        <time>2020-08-27T14:29:58.799Z</time>
      </trkpt>
      <trkpt lat="69.29413" lon="18.98951">
        <ele>0.550496</ele>
        <time>2020-08-27T14:30:04.292Z</time>
      </trkpt>
      <trkpt lat="69.29411" lon="18.98973">
        <ele>0.527293</ele>
        <time>2020-08-27T14:30:05.584Z</time>
      </trkpt>
      <trkpt lat="69.29407" lon="18.99013">
        <ele>0.483947</ele>
        <time>2020-08-27T14:30:08.136Z</time>
      </trkpt>
      <trkpt lat="69.29394" lon="18.99237">
        <ele>0.299221</ele>
        <time>2020-08-27T14:30:21.608Z</time>
      </trkpt>
      <trkpt lat="69.29371" lon="18.99513">
        <ele>0.214206</ele>
        <time>2020-08-27T14:30:39.133Z</time>
      </trkpt>
      <trkpt lat="69.29372" lon="18.9982">
        <ele>0.469221</ele>
        <time>2020-08-27T14:30:59.005Z</time>
      </trkpt>
      <trkpt lat="69.29364" lon="18.99906">
        <ele>0.648977</ele>
        <time>2020-08-27T14:31:04.987Z</time>
      </trkpt>
      <trkpt lat="69.29351" lon="18.9998">
        <ele>0.8173</ele>
        <time>2020-08-27T14:31:10.734Z</time>
      </trkpt>
      <trkpt lat="69.29277" lon="19.00245">
        <ele>2.069897</ele>
        <time>2020-08-27T14:31:35.908Z</time>
      </trkpt>
      <trkpt lat="69.29248" lon="19.00411">
        <ele>3.150308</ele>
        <time>2020-08-27T14:31:50.992Z</time>
      </trkpt>
      <trkpt lat="69.29227" lon="19.0049">
        <ele>3.72287</ele>
        <time>2020-08-27T14:31:59.323Z</time>
      </trkpt>
      <trkpt lat="69.29125" lon="19.00702">
        <ele>6.975627</ele>
        <time>2020-08-27T14:32:32.194Z</time>
      </trkpt>
      <trkpt lat="69.29029" lon="19.00833">
        <ele>9.82374</ele>
        <time>2020-08-27T14:33:02.492Z</time>
      </trkpt>
      <trkpt lat="69.28936" lon="19.01075">
        <ele>12.776852</ele>
        <time>2020-08-27T14:33:35.553Z</time>
      </trkpt>
      <trkpt lat="69.28931" lon="19.01089">
        <ele>12.940711</ele>
        <time>2020-08-27T14:33:37.863Z</time>
      </trkpt>
      <trkpt lat="69.28925" lon="19.01081">
        <ele>13.080852</ele>
        <time>2020-08-27T14:33:38.885Z</time>
      </trkpt>
      <trkpt lat="69.28911" lon="19.01086">
        <ele>13.39706</ele>
        <time>2020-08-27T14:33:41.951Z</time>
      </trkpt>
      <trkpt lat="69.28879" lon="19.01154">
        <ele>13.005596</ele>
        <time>2020-08-27T14:33:49.255Z</time>
      </trkpt>
      <trkpt lat="69.28875" lon="19.01158">
        <ele>12.962995</ele>
        <time>2020-08-27T14:33:49.926Z</time>
      </trkpt>
      <trkpt lat="69.2887" lon="19.01161">
        <ele>12.914896</ele>
        <time>2020-08-27T14:33:51.277Z</time>
      </trkpt>
      <trkpt lat="69.28835" lon="19.01159">
        <ele>12.570916</ele>
        <time>2020-08-27T14:33:56.832Z</time>
      </trkpt>
      <trkpt lat="69.28773" lon="19.01207">
        <ele>11.946615</ele>
        <time>2020-08-27T14:34:06.027Z</time>
      </trkpt>
      <trkpt lat="69.28752" lon="19.01199">
        <ele>11.736519</ele>
        <time>2020-08-27T14:34:09.037Z</time>
      </trkpt>
      <trkpt lat="69.28749" lon="19.01193">
        <ele>11.698079</ele>
        <time>2020-08-27T14:34:09.537Z</time>
      </trkpt>
      <trkpt lat="69.28747" lon="19.0119">
        <ele>11.676296</ele>
        <time>2020-08-27T14:34:09.774Z</time>
      </trkpt>
      <trkpt lat="69.28737" lon="19.01158">
        <ele>11.428678</ele>
        <time>2020-08-27T14:34:11.771Z</time>
      </trkpt>
      <trkpt lat="69.2873" lon="19.01103">
        <ele>11.047139</ele>
        <time>2020-08-27T14:34:14.489Z</time>
      </trkpt>
      <trkpt lat="69.28729" lon="19.00812">
        <ele>9.146188</ele>
        <time>2020-08-27T14:34:29.040Z</time>
      </trkpt>
      <trkpt lat="69.28727" lon="19.00734">
        <ele>8.640128</ele>
        <time>2020-08-27T14:34:32.845Z</time>
      </trkpt>
      <trkpt lat="69.28725" lon="19.00612">
        <ele>8.732926</ele>
        <time>2020-08-27T14:34:40.241Z</time>
      </trkpt>
      <trkpt lat="69.28724" lon="19.00579">
        <ele>8.920138</ele>
        <time>2020-08-27T14:34:42.408Z</time>
      </trkpt>
      <trkpt lat="69.28724" lon="19.00567">
        <ele>8.984742</ele>
        <time>2020-08-27T14:34:43.172Z</time>
      </trkpt>
      <trkpt lat="69.28725" lon="19.0055">
        <ele>9.075311</ele>
        <time>2020-08-27T14:34:44.145Z</time>
      </trkpt>
      <trkpt lat="69.28726" lon="19.00519">
        <ele>9.248991</ele>
        <time>2020-08-27T14:34:46.679Z</time>
      </trkpt>
      <trkpt lat="69.28727" lon="19.00497">
        <ele>9.374634</ele>
        <time>2020-08-27T14:34:48.512Z</time>
      </trkpt>
      <trkpt lat="69.28731" lon="19.00446">
        <ele>9.664668</ele>
        <time>2020-08-27T14:34:52.151Z</time>
      </trkpt>
      <trkpt lat="69.28736" lon="19.00396">
        <ele>9.95077</ele>
        <time>2020-08-27T14:34:56.768Z</time>
      </trkpt>
      <trkpt lat="69.28747" lon="19.0031">
        <ele>10.453668</ele>
        <time>2020-08-27T14:35:04.985Z</time>
      </trkpt>
      <trkpt lat="69.28753" lon="19.00259">
        <ele>10.748471</ele>
        <time>2020-08-27T14:35:09.998Z</time>
      </trkpt>
      <trkpt lat="69.28758" lon="19.0021">
        <ele>11.030947</ele>
        <time>2020-08-27T14:35:15.726Z</time>
      </trkpt>
      <trkpt lat="69.28762" lon="19.00097">
        <ele>12.311049</ele>
        <time>2020-08-27T14:35:27.960Z</time>
      </trkpt>
      <trkpt lat="69.2876" lon="19.00023">
        <ele>13.227269</ele>
        <time>2020-08-27T14:35:35.945Z</time>
      </trkpt>
      <trkpt lat="69.28747" lon="18.99727">
        <ele>16.936001</ele>
        <time>2020-08-27T14:36:07.599Z</time>
      </trkpt>
      <trkpt lat="69.28746" lon="18.99695">
        <ele>17.338681</ele>
        <time>2020-08-27T14:36:10.643Z</time>
      </trkpt>
      <trkpt lat="69.28735" lon="18.99443">
        <ele>18.407683</ele>
        <time>2020-08-27T14:36:32.728Z</time>
      </trkpt>
      <trkpt lat="69.28722" lon="18.99322">
        <ele>18.906132</ele>
        <time>2020-08-27T14:36:41.956Z</time>
      </trkpt>
      <trkpt lat="69.28719" lon="18.99244">
        <ele>19.214512</ele>
        <time>2020-08-27T14:36:46.646Z</time>
      </trkpt>
      <trkpt lat="69.2872" lon="18.99182">
        <ele>19.42394</ele>
        <time>2020-08-27T14:36:50.304Z</time>
      </trkpt>
      <trkpt lat="69.28721" lon="18.99152">
        <ele>19.254531</ele>
        <time>2020-08-27T14:36:51.837Z</time>
      </trkpt>
      <trkpt lat="69.28706" lon="18.98946">
        <ele>18.07019</ele>
        <time>2020-08-27T14:37:02.803Z</time>
      </trkpt>
      <trkpt lat="69.28705" lon="18.98928">
        <ele>17.962617</ele>
        <time>2020-08-27T14:37:03.811Z</time>
      </trkpt>
      <trkpt lat="69.28701" lon="18.98872">
        <ele>17.639995</ele>
        <time>2020-08-27T14:37:06.665Z</time>
      </trkpt>
      <trkpt lat="69.28697" lon="18.98786">
        <ele>17.147867</ele>
        <time>2020-08-27T14:37:11.109Z</time>
      </trkpt>
      <trkpt lat="69.28697" lon="18.98775">
        <ele>17.089405</ele>
        <time>2020-08-27T14:37:11.562Z</time>
      </trkpt>
      <trkpt lat="69.28699" lon="18.9872">
        <ele>16.774222</ele>
        <time>2020-08-27T14:37:14.325Z</time>
      </trkpt>
      <trkpt lat="69.28699" lon="18.98608">
        <ele>16.090829</ele>
        <time>2020-08-27T14:37:19.808Z</time>
      </trkpt>
      <trkpt lat="69.28667" lon="18.98412">
        <ele>14.72189</ele>
        <time>2020-08-27T14:37:30.334Z</time>
      </trkpt>
      <trkpt lat="69.28659" lon="18.98317">
        <ele>14.097743</ele>
        <time>2020-08-27T14:37:35.158Z</time>
      </trkpt>
      <trkpt lat="69.28658" lon="18.97445">
        <ele>12.813308</ele>
        <time>2020-08-27T14:38:26.478Z</time>
      </trkpt>
      <trkpt lat="69.28648" lon="18.97362">
        <ele>12.940097</ele>
        <time>2020-08-27T14:38:33.130Z</time>
      </trkpt>
      <trkpt lat="69.2861" lon="18.97211">
        <ele>13.216233</ele>
        <time>2020-08-27T14:38:47.327Z</time>
      </trkpt>
      <trkpt lat="69.286" lon="18.97099">
        <ele>13.541409</ele>
        <time>2020-08-27T14:38:56.441Z</time>
      </trkpt>
      <trkpt lat="69.28609" lon="18.96991">
        <ele>13.852855</ele>
        <time>2020-08-27T14:39:05.012Z</time>
      </trkpt>
      <trkpt lat="69.2866" lon="18.96759">
        <ele>14.619158</ele>
        <time>2020-08-27T14:39:23.963Z</time>
      </trkpt>
      <trkpt lat="69.28673" lon="18.96595">
        <ele>14.537148</ele>
        <time>2020-08-27T14:39:34.344Z</time>
      </trkpt>
      <trkpt lat="69.2868" lon="18.96093">
        <ele>14.336799</ele>
        <time>2020-08-27T14:40:04.684Z</time>
      </trkpt>
      <trkpt lat="69.28645" lon="18.95825">
        <ele>14.27905</ele>
        <time>2020-08-27T14:40:22.762Z</time>
      </trkpt>
      <trkpt lat="69.28643" lon="18.95806">
        <ele>14.275086</ele>
        <time>2020-08-27T14:40:24.242Z</time>
      </trkpt>
      <trkpt lat="69.28641" lon="18.95786">
        <ele>14.270862</ele>
        <time>2020-08-27T14:40:25.585Z</time>
      </trkpt>
      <trkpt lat="69.28644" lon="18.95724">
        <ele>14.349778</ele>
        <time>2020-08-27T14:40:29.439Z</time>
      </trkpt>
      <trkpt lat="69.28653" lon="18.95662">
        <ele>14.475933</ele>
        <time>2020-08-27T14:40:33.755Z</time>
      </trkpt>
      <trkpt lat="69.28658" lon="18.95615">
        <ele>14.571954</ele>
        <time>2020-08-27T14:40:36.916Z</time>
      </trkpt>
      <trkpt lat="69.28702" lon="18.95326">
        <ele>15.171873</ele>
        <time>2020-08-27T14:40:59.140Z</time>
      </trkpt>
      <trkpt lat="69.2872" lon="18.95217">
        <ele>15.703007</ele>
        <time>2020-08-27T14:41:07.970Z</time>
      </trkpt>
      <trkpt lat="69.28739" lon="18.9509">
        <ele>16.460478</ele>
        <time>2020-08-27T14:41:19.071Z</time>
      </trkpt>
      <trkpt lat="69.28773" lon="18.94852">
        <ele>17.867487</ele>
        <time>2020-08-27T14:41:40.662Z</time>
      </trkpt>
      <trkpt lat="69.28803" lon="18.94748">
        <ele>18.081336</ele>
        <time>2020-08-27T14:41:52.382Z</time>
      </trkpt>
      <trkpt lat="69.28836" lon="18.94662">
        <ele>18.151294</ele>
        <time>2020-08-27T14:42:01.716Z</time>
      </trkpt>
      <trkpt lat="69.28848" lon="18.9463">
        <ele>18.177266</ele>
        <time>2020-08-27T14:42:04.975Z</time>
      </trkpt>
      <trkpt lat="69.28891" lon="18.94509">
        <ele>18.271756</ele>
        <time>2020-08-27T14:42:14.556Z</time>
      </trkpt>
      <trkpt lat="69.28918" lon="18.94451">
        <ele>18.052838</ele>
        <time>2020-08-27T14:42:19.508Z</time>
      </trkpt>
      <trkpt lat="69.28926" lon="18.94441">
        <ele>17.897795</ele>
        <time>2020-08-27T14:42:20.633Z</time>
      </trkpt>
      <trkpt lat="69.28933" lon="18.94435">
        <ele>17.761703</ele>
        <time>2020-08-27T14:42:21.485Z</time>
      </trkpt>
      <trkpt lat="69.28989" lon="18.94451">
        <ele>16.711685</ele>
        <time>2020-08-27T14:42:29.860Z</time>
      </trkpt>
      <trkpt lat="69.28995" lon="18.94457">
        <ele>16.587822</ele>
        <time>2020-08-27T14:42:30.748Z</time>
      </trkpt>
      <trkpt lat="69.29002" lon="18.94466">
        <ele>16.437955</ele>
        <time>2020-08-27T14:42:31.680Z</time>
      </trkpt>
      <trkpt lat="69.29044" lon="18.94558">
        <ele>15.450824</ele>
        <time>2020-08-27T14:42:39.406Z</time>
      </trkpt>
      <trkpt lat="69.29065" lon="18.9457">
        <ele>15.043466</ele>
        <time>2020-08-27T14:42:42.235Z</time>
      </trkpt>
      <trkpt lat="69.29203" lon="18.94435">
        <ele>13.643948</ele>
        <time>2020-08-27T14:43:05.144Z</time>
      </trkpt>
      <trkpt lat="69.29217" lon="18.94424">
        <ele>13.505954</ele>
        <time>2020-08-27T14:43:08.479Z</time>
      </trkpt>
      <trkpt lat="69.29236" lon="18.94413">
        <ele>13.327312</ele>
        <time>2020-08-27T14:43:11.299Z</time>
      </trkpt>
      <trkpt lat="69.2928" lon="18.94409">
        <ele>13.22657</ele>
        <time>2020-08-27T14:43:18.696Z</time>
      </trkpt>
      <trkpt lat="69.29298" lon="18.94429">
        <ele>13.198966</ele>
        <time>2020-08-27T14:43:21.927Z</time>
      </trkpt>
      <trkpt lat="69.29333" lon="18.94494">
        <ele>13.139048</ele>
        <time>2020-08-27T14:43:28.679Z</time>
      </trkpt>
      <trkpt lat="69.2936" lon="18.94502">
        <ele>13.100207</ele>
        <time>2020-08-27T14:43:33.831Z</time>
      </trkpt>
      <trkpt lat="69.29391" lon="18.94449">
        <ele>13.048915</ele>
        <time>2020-08-27T14:43:40.078Z</time>
      </trkpt>
      <trkpt lat="69.29433" lon="18.94279">
        <ele>13.684691</ele>
        <time>2020-08-27T14:43:54.960Z</time>
      </trkpt>
      <trkpt lat="69.29461" lon="18.94158">
        <ele>14.279318</ele>
        <time>2020-08-27T14:44:06.261Z</time>
      </trkpt>
      <trkpt lat="69.29494" lon="18.94005">
        <ele>15.016724</ele>
        <time>2020-08-27T14:44:20.444Z</time>
      </trkpt>
      <trkpt lat="69.29509" lon="18.93938">
        <ele>15.519552</ele>
        <time>2020-08-27T14:44:26.826Z</time>
      </trkpt>
      <trkpt lat="69.29515" lon="18.9391">
        <ele>15.761408</ele>
        <time>2020-08-27T14:44:29.602Z</time>
      </trkpt>
      <trkpt lat="69.29631" lon="18.93385">
        <ele>22.494308</ele>
        <time>2020-08-27T14:45:24.235Z</time>
      </trkpt>
      <trkpt lat="69.29634" lon="18.93366">
        <ele>22.863199</ele>
        <time>2020-08-27T14:45:27.139Z</time>
      </trkpt>
      <trkpt lat="69.29636" lon="18.93354">
        <ele>23.105329</ele>
        <time>2020-08-27T14:45:29.075Z</time>
      </trkpt>
      <trkpt lat="69.2964" lon="18.93282">
        <ele>24.42423</ele>
        <time>2020-08-27T14:45:38.231Z</time>
      </trkpt>
      <trkpt lat="69.29637" lon="18.93196">
        <ele>25.995206</ele>
        <time>2020-08-27T14:45:50.238Z</time>
      </trkpt>
      <trkpt lat="69.29634" lon="18.93119">
        <ele>27.403161</ele>
        <time>2020-08-27T14:46:01.801Z</time>
      </trkpt>
      <trkpt lat="69.29631" lon="18.93036">
        <ele>29.172318</ele>
        <time>2020-08-27T14:46:15.183Z</time>
      </trkpt>
      <trkpt lat="69.29619" lon="18.92662">
        <ele>38.20454</ele>
        <time>2020-08-27T14:47:12.705Z</time>
      </trkpt>
      <trkpt lat="69.29624" lon="18.92515">
        <ele>40.556171</ele>
        <time>2020-08-27T14:47:29.544Z</time>
      </trkpt>
      <trkpt lat="69.29792" lon="18.9155">
        <ele>41.369709</ele>
        <time>2020-08-27T14:48:36.464Z</time>
      </trkpt>
      <trkpt lat="69.29816" lon="18.91431">
        <ele>40.827848</ele>
        <time>2020-08-27T14:48:43.519Z</time>
      </trkpt>
      <trkpt lat="69.29837" lon="18.9134">
        <ele>40.396784</ele>
        <time>2020-08-27T14:48:49.159Z</time>
      </trkpt>
      <trkpt lat="69.29872" lon="18.91199">
        <ele>39.746874</ele>
        <time>2020-08-27T14:48:58.193Z</time>
      </trkpt>
      <trkpt lat="69.299" lon="18.91027">
        <ele>39.207547</ele>
        <time>2020-08-27T14:49:08.577Z</time>
      </trkpt>
      <trkpt lat="69.29933" lon="18.90647">
        <ele>38.156449</ele>
        <time>2020-08-27T14:49:31.223Z</time>
      </trkpt>
      <trkpt lat="69.29943" lon="18.90581">
        <ele>37.995645</ele>
        <time>2020-08-27T14:49:35.443Z</time>
      </trkpt>
      <trkpt lat="69.29959" lon="18.90521">
        <ele>37.82592</ele>
        <time>2020-08-27T14:49:39.756Z</time>
      </trkpt>
      <trkpt lat="69.29987" lon="18.90457">
        <ele>37.598329</ele>
        <time>2020-08-27T14:49:45.431Z</time>
      </trkpt>
      <trkpt lat="69.30026" lon="18.90395">
        <ele>37.31561</ele>
        <time>2020-08-27T14:49:52.553Z</time>
      </trkpt>
      <trkpt lat="69.30078" lon="18.90346">
        <ele>37.227058</ele>
        <time>2020-08-27T14:50:01.412Z</time>
      </trkpt>
      <trkpt lat="69.30102" lon="18.90276">
        <ele>37.222928</ele>
        <time>2020-08-27T14:50:07.255Z</time>
      </trkpt>
      <trkpt lat="69.30208" lon="18.89628">
        <ele>37.027005</ele>
        <time>2020-08-27T14:50:55.649Z</time>
      </trkpt>
      <trkpt lat="69.30294" lon="18.88971">
        <ele>33.051056</ele>
        <time>2020-08-27T14:51:30.875Z</time>
      </trkpt>
      <trkpt lat="69.30326" lon="18.88863">
        <ele>32.168819</ele>
        <time>2020-08-27T14:51:37.500Z</time>
      </trkpt>
      <trkpt lat="69.30414" lon="18.88701">
        <ele>30.839648</ele>
        <time>2020-08-27T14:51:52.648Z</time>
      </trkpt>
      <trkpt lat="69.30427" lon="18.88665">
        <ele>31.301085</ele>
        <time>2020-08-27T14:51:57.695Z</time>
      </trkpt>
      <trkpt lat="69.30437" lon="18.88615">
        <ele>31.815477</ele>
        <time>2020-08-27T14:52:01.203Z</time>
      </trkpt>
      <trkpt lat="69.30442" lon="18.88559">
        <ele>32.325525</ele>
        <time>2020-08-27T14:52:07.024Z</time>
      </trkpt>
      <trkpt lat="69.30439" lon="18.88427">
        <ele>33.506212</ele>
        <time>2020-08-27T14:52:18.997Z</time>
      </trkpt>
      <trkpt lat="69.30437" lon="18.88397">
        <ele>33.776626</ele>
        <time>2020-08-27T14:52:22.526Z</time>
      </trkpt>
      <trkpt lat="69.30436" lon="18.88373">
        <ele>33.99993</ele>
        <time>2020-08-27T14:52:26.051Z</time>
      </trkpt>
      <trkpt lat="69.30428" lon="18.88009">
        <ele>38.149705</ele>
        <time>2020-08-27T14:53:07.328Z</time>
      </trkpt>
      <trkpt lat="69.30426" lon="18.8708">
        <ele>46.70503</ele>
        <time>2020-08-27T14:54:35.290Z</time>
      </trkpt>
      <trkpt lat="69.3043" lon="18.86939">
        <ele>46.953201</ele>
        <time>2020-08-27T14:54:45.532Z</time>
      </trkpt>
      <trkpt lat="69.30446" lon="18.86825">
        <ele>47.168964</ele>
        <time>2020-08-27T14:54:53.351Z</time>
      </trkpt>
      <trkpt lat="69.30468" lon="18.86718">
        <ele>46.723784</ele>
        <time>2020-08-27T14:54:59.760Z</time>
      </trkpt>
      <trkpt lat="69.30473" lon="18.86692">
        <ele>46.187436</ele>
        <time>2020-08-27T14:55:00.991Z</time>
      </trkpt>
      <trkpt lat="69.30485" lon="18.86605">
        <ele>44.458448</ele>
        <time>2020-08-27T14:55:05.233Z</time>
      </trkpt>
      <trkpt lat="69.3049" lon="18.86479">
        <ele>42.12103</ele>
        <time>2020-08-27T14:55:10.679Z</time>
      </trkpt>
      <trkpt lat="69.30489" lon="18.86416">
        <ele>40.973224</ele>
        <time>2020-08-27T14:55:13.296Z</time>
      </trkpt>
      <trkpt lat="69.30484" lon="18.86214">
        <ele>36.974733</ele>
        <time>2020-08-27T14:55:21.440Z</time>
      </trkpt>
      <trkpt lat="69.30475" lon="18.85834">
        <ele>27.358644</ele>
        <time>2020-08-27T14:55:36.686Z</time>
      </trkpt>
      <trkpt lat="69.30479" lon="18.85746">
        <ele>25.114415</ele>
        <time>2020-08-27T14:55:40.406Z</time>
      </trkpt>
      <trkpt lat="69.3049" lon="18.85663">
        <ele>24.368446</ele>
        <time>2020-08-27T14:55:44.183Z</time>
      </trkpt>
      <trkpt lat="69.30505" lon="18.85605">
        <ele>23.767928</ele>
        <time>2020-08-27T14:55:47.289Z</time>
      </trkpt>
      <trkpt lat="69.30529" lon="18.85544">
        <ele>22.994931</ele>
        <time>2020-08-27T14:55:51.382Z</time>
      </trkpt>
      <trkpt lat="69.30718" lon="18.85152">
        <ele>23.266045</ele>
        <time>2020-08-27T14:56:35.227Z</time>
      </trkpt>
      <trkpt lat="69.30728" lon="18.85128">
        <ele>23.479469</ele>
        <time>2020-08-27T14:56:38.926Z</time>
      </trkpt>
      <trkpt lat="69.30741" lon="18.8509">
        <ele>23.806985</ele>
        <time>2020-08-27T14:56:46.619Z</time>
      </trkpt>
      <trkpt lat="69.30832" lon="18.8483">
        <ele>31.535912</ele>
        <time>2020-08-27T14:57:36.957Z</time>
      </trkpt>
      <trkpt lat="69.30841" lon="18.84806">
        <ele>32.291908</ele>
        <time>2020-08-27T14:57:43.062Z</time>
      </trkpt>
      <trkpt lat="69.30858" lon="18.8476">
        <ele>33.679855</ele>
        <time>2020-08-27T14:57:50.834Z</time>
      </trkpt>
      <trkpt lat="69.3088" lon="18.84694">
        <ele>35.481869</ele>
        <time>2020-08-27T14:58:02.790Z</time>
      </trkpt>
      <trkpt lat="69.30949" lon="18.84497">
        <ele>40.061705</ele>
        <time>2020-08-27T14:58:37.376Z</time>
      </trkpt>
      <trkpt lat="69.3099" lon="18.84381">
        <ele>42.760733</ele>
        <time>2020-08-27T14:58:54.020Z</time>
      </trkpt>
      <trkpt lat="69.31034" lon="18.84255">
        <ele>44.354021</ele>
        <time>2020-08-27T14:59:10.926Z</time>
      </trkpt>
      <trkpt lat="69.31072" lon="18.84146">
        <ele>45.499489</ele>
        <time>2020-08-27T14:59:24.859Z</time>
      </trkpt>
      <trkpt lat="69.31076" lon="18.84136">
        <ele>45.608226</ele>
        <time>2020-08-27T14:59:26.105Z</time>
      </trkpt>
      <trkpt lat="69.31117" lon="18.84019">
        <ele>46.827812</ele>
        <time>2020-08-27T14:59:39.729Z</time>
      </trkpt>
      <trkpt lat="69.31432" lon="18.83121">
        <ele>47.747913</ele>
        <time>2020-08-27T15:01:02.640Z</time>
      </trkpt>
      <trkpt lat="69.31511" lon="18.82891">
        <ele>47.099419</ele>
        <time>2020-08-27T15:01:20.289Z</time>
      </trkpt>
      <trkpt lat="69.31539" lon="18.82835">
        <ele>46.621656</ele>
        <time>2020-08-27T15:01:25.408Z</time>
      </trkpt>
      <trkpt lat="69.31845" lon="18.82517">
        <ele>41.860244</ele>
        <time>2020-08-27T15:02:13.326Z</time>
      </trkpt>
      <trkpt lat="69.31851" lon="18.8251">
        <ele>41.802577</ele>
        <time>2020-08-27T15:02:14.247Z</time>
      </trkpt>
      <trkpt lat="69.31856" lon="18.82504">
        <ele>41.753296</ele>
        <time>2020-08-27T15:02:15.144Z</time>
      </trkpt>
      <trkpt lat="69.31868" lon="18.82486">
        <ele>41.639782</ele>
        <time>2020-08-27T15:02:17.120Z</time>
      </trkpt>
      <trkpt lat="69.31911" lon="18.82397">
        <ele>41.186289</ele>
        <time>2020-08-27T15:02:25.147Z</time>
      </trkpt>
      <trkpt lat="69.31963" lon="18.82245">
        <ele>40.549063</ele>
        <time>2020-08-27T15:02:37.103Z</time>
      </trkpt>
      <trkpt lat="69.31995" lon="18.82094">
        <ele>40.568209</ele>
        <time>2020-08-27T15:02:48.848Z</time>
      </trkpt>
      <trkpt lat="69.32023" lon="18.81902">
        <ele>40.811478</ele>
        <time>2020-08-27T15:03:03.333Z</time>
      </trkpt>
      <trkpt lat="69.32026" lon="18.81874">
        <ele>40.845736</ele>
        <time>2020-08-27T15:03:05.585Z</time>
      </trkpt>
      <trkpt lat="69.32038" lon="18.8176">
        <ele>40.984255</ele>
        <time>2020-08-27T15:03:13.821Z</time>
      </trkpt>
      <trkpt lat="69.32088" lon="18.811">
        <ele>40.396338</ele>
        <time>2020-08-27T15:03:56.459Z</time>
      </trkpt>
      <trkpt lat="69.32088" lon="18.80952">
        <ele>39.643655</ele>
        <time>2020-08-27T15:04:04.683Z</time>
      </trkpt>
      <trkpt lat="69.32078" lon="18.8078">
        <ele>38.750318</ele>
        <time>2020-08-27T15:04:13.278Z</time>
      </trkpt>
      <trkpt lat="69.32076" lon="18.80748">
        <ele>38.58313</ele>
        <time>2020-08-27T15:04:14.844Z</time>
      </trkpt>
      <trkpt lat="69.32075" lon="18.8071">
        <ele>38.087996</ele>
        <time>2020-08-27T15:04:16.525Z</time>
      </trkpt>
      <trkpt lat="69.32083" lon="18.80484">
        <ele>34.469687</ele>
        <time>2020-08-27T15:04:26.646Z</time>
      </trkpt>
      <trkpt lat="69.32088" lon="18.80389">
        <ele>32.954498</ele>
        <time>2020-08-27T15:04:30.696Z</time>
      </trkpt>
      <trkpt lat="69.32091" lon="18.80344">
        <ele>32.229424</ele>
        <time>2020-08-27T15:04:32.656Z</time>
      </trkpt>
      <trkpt lat="69.32092" lon="18.80307">
        <ele>31.640533</ele>
        <time>2020-08-27T15:04:34.161Z</time>
      </trkpt>
      <trkpt lat="69.32101" lon="18.80155">
        <ele>29.179489</ele>
        <time>2020-08-27T15:04:40.732Z</time>
      </trkpt>
      <trkpt lat="69.32103" lon="18.80121">
        <ele>28.628738</ele>
        <time>2020-08-27T15:04:42.128Z</time>
      </trkpt>
      <trkpt lat="69.32133" lon="18.79555">
        <ele>21.180558</ele>
        <time>2020-08-27T15:05:07.499Z</time>
      </trkpt>
      <trkpt lat="69.32132" lon="18.79457">
        <ele>20.551179</ele>
        <time>2020-08-27T15:05:12.621Z</time>
      </trkpt>
      <trkpt lat="69.32125" lon="18.79346">
        <ele>19.822643</ele>
        <time>2020-08-27T15:05:18.893Z</time>
      </trkpt>
      <trkpt lat="69.32124" lon="18.79335">
        <ele>19.75004</ele>
        <time>2020-08-27T15:05:19.571Z</time>
      </trkpt>
      <trkpt lat="69.32106" lon="18.79141">
        <ele>19.218212</ele>
        <time>2020-08-27T15:05:32.346Z</time>
      </trkpt>
      <trkpt lat="69.32078" lon="18.78825">
        <ele>19.876004</ele>
        <time>2020-08-27T15:05:56.294Z</time>
      </trkpt>
      <trkpt lat="69.32075" lon="18.78788">
        <ele>19.951627</ele>
        <time>2020-08-27T15:05:59.005Z</time>
      </trkpt>
      <trkpt lat="69.32071" lon="18.78742">
        <ele>20.048312</ele>
        <time>2020-08-27T15:06:02.446Z</time>
      </trkpt>
      <trkpt lat="69.32044" lon="18.78291">
        <ele>20.134809</ele>
        <time>2020-08-27T15:06:31.917Z</time>
      </trkpt>
      <trkpt lat="69.32049" lon="18.78226">
        <ele>20.135728</ele>
        <time>2020-08-27T15:06:35.711Z</time>
      </trkpt>
      <trkpt lat="69.32082" lon="18.78122">
        <ele>19.942845</ele>
        <time>2020-08-27T15:06:43.580Z</time>
      </trkpt>
      <trkpt lat="69.32144" lon="18.77945">
        <ele>19.597641</ele>
        <time>2020-08-27T15:06:58.096Z</time>
      </trkpt>
      <trkpt lat="69.32167" lon="18.7788">
        <ele>19.470884</ele>
        <time>2020-08-27T15:07:03.699Z</time>
      </trkpt>
      <trkpt lat="69.32182" lon="18.77836">
        <ele>19.432858</ele>
        <time>2020-08-27T15:07:07.683Z</time>
      </trkpt>
      <trkpt lat="69.32194" lon="18.77801">
        <ele>19.426072</ele>
        <time>2020-08-27T15:07:10.528Z</time>
      </trkpt>
      <trkpt lat="69.32203" lon="18.77772">
        <ele>19.420382</ele>
        <time>2020-08-27T15:07:13.109Z</time>
      </trkpt>
      <trkpt lat="69.32229" lon="18.77646">
        <ele>19.399292</ele>
        <time>2020-08-27T15:07:22.319Z</time>
      </trkpt>
      <trkpt lat="69.32237" lon="18.77501">
        <ele>19.378291</ele>
        <time>2020-08-27T15:07:31.958Z</time>
      </trkpt>
      <trkpt lat="69.32239" lon="18.766">
        <ele>18.338309</ele>
        <time>2020-08-27T15:08:26.182Z</time>
      </trkpt>
      <trkpt lat="69.32232" lon="18.76459">
        <ele>18.073439</ele>
        <time>2020-08-27T15:08:34.075Z</time>
      </trkpt>
      <trkpt lat="69.32219" lon="18.76336">
        <ele>17.739022</ele>
        <time>2020-08-27T15:08:41.215Z</time>
      </trkpt>
      <trkpt lat="69.32213" lon="18.76294">
        <ele>17.585079</ele>
        <time>2020-08-27T15:08:43.648Z</time>
      </trkpt>
      <trkpt lat="69.32175" lon="18.76036">
        <ele>16.634806</ele>
        <time>2020-08-27T15:08:58.991Z</time>
      </trkpt>
      <trkpt lat="69.32155" lon="18.75879">
        <ele>16.117076</ele>
        <time>2020-08-27T15:09:08.121Z</time>
      </trkpt>
      <trkpt lat="69.32146" lon="18.75747">
        <ele>15.810447</ele>
        <time>2020-08-27T15:09:15.828Z</time>
      </trkpt>
      <trkpt lat="69.32136" lon="18.7558">
        <ele>15.426493</ele>
        <time>2020-08-27T15:09:25.433Z</time>
      </trkpt>
      <trkpt lat="69.32118" lon="18.75281">
        <ele>15.048223</ele>
        <time>2020-08-27T15:09:43.206Z</time>
      </trkpt>
      <trkpt lat="69.32111" lon="18.75094">
        <ele>15.030449</ele>
        <time>2020-08-27T15:09:55.169Z</time>
      </trkpt>
      <trkpt lat="69.3211" lon="18.74914">
        <ele>15.014972</ele>
        <time>2020-08-27T15:10:07.185Z</time>
      </trkpt>
      <trkpt lat="69.3211" lon="18.74434">
        <ele>15.481989</ele>
        <time>2020-08-27T15:10:39.307Z</time>
      </trkpt>
      <trkpt lat="69.32109" lon="18.74149">
        <ele>15.486096</ele>
        <time>2020-08-27T15:10:57.006Z</time>
      </trkpt>
      <trkpt lat="69.32105" lon="18.74">
        <ele>15.472449</ele>
        <time>2020-08-27T15:11:06.259Z</time>
      </trkpt>
      <trkpt lat="69.32101" lon="18.73943">
        <ele>15.467149</ele>
        <time>2020-08-27T15:11:09.794Z</time>
      </trkpt>
      <trkpt lat="69.32098" lon="18.73894">
        <ele>15.462168</ele>
        <time>2020-08-27T15:11:12.994Z</time>
      </trkpt>
      <trkpt lat="69.3209" lon="18.73791">
        <ele>15.441596</ele>
        <time>2020-08-27T15:11:19.688Z</time>
      </trkpt>
      <trkpt lat="69.32076" lon="18.73612">
        <ele>15.405967</ele>
        <time>2020-08-27T15:11:31.146Z</time>
      </trkpt>
      <trkpt lat="69.32067" lon="18.73481">
        <ele>15.379876</ele>
        <time>2020-08-27T15:11:39.567Z</time>
      </trkpt>
      <trkpt lat="69.3206" lon="18.73382">
        <ele>15.346311</ele>
        <time>2020-08-27T15:11:45.929Z</time>
      </trkpt>
      <trkpt lat="69.32055" lon="18.7322">
        <ele>15.193881</ele>
        <time>2020-08-27T15:11:55.889Z</time>
      </trkpt>
      <trkpt lat="69.32071" lon="18.72747">
        <ele>14.906396</ele>
        <time>2020-08-27T15:12:24.042Z</time>
      </trkpt>
      <trkpt lat="69.32071" lon="18.72693">
        <ele>14.913492</ele>
        <time>2020-08-27T15:12:27.237Z</time>
      </trkpt>
      <trkpt lat="69.3207" lon="18.72681">
        <ele>14.915021</ele>
        <time>2020-08-27T15:12:28.093Z</time>
      </trkpt>
      <trkpt lat="69.32056" lon="18.72186">
        <ele>14.936856</ele>
        <time>2020-08-27T15:13:01.270Z</time>
      </trkpt>
      <trkpt lat="69.32059" lon="18.72044">
        <ele>14.924762</ele>
        <time>2020-08-27T15:13:10.159Z</time>
      </trkpt>
      <trkpt lat="69.32063" lon="18.71983">
        <ele>14.919431</ele>
        <time>2020-08-27T15:13:14.165Z</time>
      </trkpt>
      <trkpt lat="69.32069" lon="18.71908">
        <ele>14.912906</ele>
        <time>2020-08-27T15:13:18.624Z</time>
      </trkpt>
      <trkpt lat="69.32103" lon="18.71435">
        <ele>13.760378</ele>
        <time>2020-08-27T15:13:45.731Z</time>
      </trkpt>
      <trkpt lat="69.3211" lon="18.71195">
        <ele>13.41355</ele>
        <time>2020-08-27T15:13:59.542Z</time>
      </trkpt>
      <trkpt lat="69.32109" lon="18.71023">
        <ele>13.218691</ele>
        <time>2020-08-27T15:14:09.929Z</time>
      </trkpt>
      <trkpt lat="69.32105" lon="18.70798">
        <ele>13.105422</ele>
        <time>2020-08-27T15:14:24.120Z</time>
      </trkpt>
      <trkpt lat="69.32103" lon="18.70712">
        <ele>13.172741</ele>
        <time>2020-08-27T15:14:29.706Z</time>
      </trkpt>
      <trkpt lat="69.32095" lon="18.70002">
        <ele>14.084538</ele>
        <time>2020-08-27T15:15:16.878Z</time>
      </trkpt>
      <trkpt lat="69.32094" lon="18.69905">
        <ele>14.257682</ele>
        <time>2020-08-27T15:15:23.765Z</time>
      </trkpt>
      <trkpt lat="69.32094" lon="18.69864">
        <ele>14.33043</ele>
        <time>2020-08-27T15:15:26.654Z</time>
      </trkpt>
      <trkpt lat="69.32092" lon="18.697">
        <ele>15.404361</ele>
        <time>2020-08-27T15:15:38.931Z</time>
      </trkpt>
      <trkpt lat="69.32087" lon="18.6936">
        <ele>17.742305</ele>
        <time>2020-08-27T15:16:09.134Z</time>
      </trkpt>
      <trkpt lat="69.32085" lon="18.69323">
        <ele>18.111691</ele>
        <time>2020-08-27T15:16:12.891Z</time>
      </trkpt>
      <trkpt lat="69.32074" lon="18.69163">
        <ele>20.002162</ele>
        <time>2020-08-27T15:16:28.922Z</time>
      </trkpt>
      <trkpt lat="69.32052" lon="18.68855">
        <ele>23.672781</ele>
        <time>2020-08-27T15:17:02.140Z</time>
      </trkpt>
      <trkpt lat="69.32025" lon="18.68704">
        <ele>24.631889</ele>
        <time>2020-08-27T15:17:18.183Z</time>
      </trkpt>
      <trkpt lat="69.31994" lon="18.68592">
        <ele>25.399363</ele>
        <time>2020-08-27T15:17:30.636Z</time>
      </trkpt>
      <trkpt lat="69.31876" lon="18.68255">
        <ele>24.776954</ele>
        <time>2020-08-27T15:17:59.375Z</time>
      </trkpt>
      <trkpt lat="69.31824" lon="18.68061">
        <ele>23.194125</ele>
        <time>2020-08-27T15:18:10.571Z</time>
      </trkpt>
      <trkpt lat="69.31789" lon="18.67911">
        <ele>20.201027</ele>
        <time>2020-08-27T15:18:18.455Z</time>
      </trkpt>
      <trkpt lat="69.31715" lon="18.676">
        <ele>14.118779</ele>
        <time>2020-08-27T15:18:34.457Z</time>
      </trkpt>
      <trkpt lat="69.31713" lon="18.67591">
        <ele>13.972115</ele>
        <time>2020-08-27T15:18:34.919Z</time>
      </trkpt>
      <trkpt lat="69.3169" lon="18.67494">
        <ele>12.371316</ele>
        <time>2020-08-27T15:18:40.030Z</time>
      </trkpt>
      <trkpt lat="69.31669" lon="18.67407">
        <ele>10.933789</ele>
        <time>2020-08-27T15:18:44.700Z</time>
      </trkpt>
      <trkpt lat="69.31664" lon="18.67387">
        <ele>10.600178</ele>
        <time>2020-08-27T15:18:45.799Z</time>
      </trkpt>
      <trkpt lat="69.31637" lon="18.67274">
        <ele>8.730603</ele>
        <time>2020-08-27T15:18:52.026Z</time>
      </trkpt>
      <trkpt lat="69.31592" lon="18.67089">
        <ele>6.953171</ele>
        <time>2020-08-27T15:19:02.783Z</time>
      </trkpt>
      <trkpt lat="69.31565" lon="18.67022">
        <ele>6.414851</ele>
        <time>2020-08-27T15:19:07.884Z</time>
      </trkpt>
      <trkpt lat="69.31528" lon="18.66974">
        <ele>5.799448</ele>
        <time>2020-08-27T15:19:13.992Z</time>
      </trkpt>
      <trkpt lat="69.31447" lon="18.66926">
        <ele>5.518045</ele>
        <time>2020-08-27T15:19:28.510Z</time>
      </trkpt>
      <trkpt lat="69.31437" lon="18.66915">
        <ele>5.645282</ele>
        <time>2020-08-27T15:19:30.540Z</time>
      </trkpt>
      <trkpt lat="69.3143" lon="18.66905">
        <ele>5.751642</ele>
        <time>2020-08-27T15:19:32.234Z</time>
      </trkpt>
      <trkpt lat="69.314" lon="18.66827">
        <ele>6.271776</ele>
        <time>2020-08-27T15:19:40.644Z</time>
      </trkpt>
      <trkpt lat="69.31394" lon="18.66806">
        <ele>6.393776</ele>
        <time>2020-08-27T15:19:42.697Z</time>
      </trkpt>
      <trkpt lat="69.31386" lon="18.66777">
        <ele>6.557495</ele>
        <time>2020-08-27T15:19:45.736Z</time>
      </trkpt>
      <trkpt lat="69.31306" lon="18.66503">
        <ele>9.42887</ele>
        <time>2020-08-27T15:20:18.171Z</time>
      </trkpt>
      <trkpt lat="69.31271" lon="18.66415">
        <ele>10.97779</ele>
        <time>2020-08-27T15:20:32.198Z</time>
      </trkpt>
      <trkpt lat="69.31244" lon="18.66376">
        <ele>12.005225</ele>
        <time>2020-08-27T15:20:41.552Z</time>
      </trkpt>
      <trkpt lat="69.31216" lon="18.66354">
        <ele>12.966759</ele>
        <time>2020-08-27T15:20:49.999Z</time>
      </trkpt>
      <trkpt lat="69.31149" lon="18.66346">
        <ele>15.197142</ele>
        <time>2020-08-27T15:21:09.630Z</time>
      </trkpt>
      <trkpt lat="69.31136" lon="18.66342">
        <ele>15.644458</ele>
        <time>2020-08-27T15:21:14.086Z</time>
      </trkpt>
      <trkpt lat="69.31126" lon="18.66335">
        <ele>16.009557</ele>
        <time>2020-08-27T15:21:17.380Z</time>
      </trkpt>
      <trkpt lat="69.31099" lon="18.66303">
        <ele>16.99293</ele>
        <time>2020-08-27T15:21:25.914Z</time>
      </trkpt>
      <trkpt lat="69.31072" lon="18.66244">
        <ele>18.141215</ele>
        <time>2020-08-27T15:21:35.559Z</time>
      </trkpt>
      <trkpt lat="69.31042" lon="18.66161">
        <ele>19.459716</ele>
        <time>2020-08-27T15:21:47.020Z</time>
      </trkpt>
      <trkpt lat="69.31032" lon="18.66133">
        <ele>19.640315</ele>
        <time>2020-08-27T15:21:50.329Z</time>
      </trkpt>
      <trkpt lat="69.31028" lon="18.66124">
        <ele>19.699659</ele>
        <time>2020-08-27T15:21:51.700Z</time>
      </trkpt>
      <trkpt lat="69.31012" lon="18.66076">
        <ele>19.998642</ele>
        <time>2020-08-27T15:21:57.966Z</time>
      </trkpt>
      <trkpt lat="69.3077" lon="18.65404">
        <ele>22.577441</ele>
        <time>2020-08-27T15:23:05.796Z</time>
      </trkpt>
      <trkpt lat="69.30738" lon="18.65315">
        <ele>22.256306</ele>
        <time>2020-08-27T15:23:12.897Z</time>
      </trkpt>
      <trkpt lat="69.30728" lon="18.65284">
        <ele>22.146463</ele>
        <time>2020-08-27T15:23:15.371Z</time>
      </trkpt>
      <trkpt lat="69.30723" lon="18.65273">
        <ele>22.1019</ele>
        <time>2020-08-27T15:23:16.355Z</time>
      </trkpt>
      <trkpt lat="69.30713" lon="18.65247">
        <ele>22.002581</ele>
        <time>2020-08-27T15:23:18.422Z</time>
      </trkpt>
      <trkpt lat="69.30671" lon="18.65174">
        <ele>21.645868</ele>
        <time>2020-08-27T15:23:25.969Z</time>
      </trkpt>
      <trkpt lat="69.30631" lon="18.65145">
        <ele>21.188367</ele>
        <time>2020-08-27T15:23:31.945Z</time>
      </trkpt>
      <trkpt lat="69.3059" lon="18.65155">
        <ele>20.486873</ele>
        <time>2020-08-27T15:23:37.872Z</time>
      </trkpt>
      <trkpt lat="69.30543" lon="18.65208">
        <ele>19.61385</ele>
        <time>2020-08-27T15:23:45.315Z</time>
      </trkpt>
      <trkpt lat="69.30515" lon="18.65249">
        <ele>19.070736</ele>
        <time>2020-08-27T15:23:49.981Z</time>
      </trkpt>
      <trkpt lat="69.30443" lon="18.65351">
        <ele>17.392805</ele>
        <time>2020-08-27T15:24:01.238Z</time>
      </trkpt>
      <trkpt lat="69.30369" lon="18.65462">
        <ele>15.318706</ele>
        <time>2020-08-27T15:24:12.818Z</time>
      </trkpt>
      <trkpt lat="69.30363" lon="18.65473">
        <ele>15.142158</ele>
        <time>2020-08-27T15:24:13.726Z</time>
      </trkpt>
      <trkpt lat="69.30349" lon="18.65504">
        <ele>14.699319</ele>
        <time>2020-08-27T15:24:16.143Z</time>
      </trkpt>
      <trkpt lat="69.30315" lon="18.65596">
        <ele>13.517163</ele>
        <time>2020-08-27T15:24:22.391Z</time>
      </trkpt>
      <trkpt lat="69.30302" lon="18.65635">
        <ele>13.029848</ele>
        <time>2020-08-27T15:24:24.832Z</time>
      </trkpt>
      <trkpt lat="69.30246" lon="18.65796">
        <ele>11.003441</ele>
        <time>2020-08-27T15:24:35.164Z</time>
      </trkpt>
      <trkpt lat="69.30222" lon="18.65865">
        <ele>10.122565</ele>
        <time>2020-08-27T15:24:39.984Z</time>
      </trkpt>
      <trkpt lat="69.30152" lon="18.66066">
        <ele>9.557217</ele>
        <time>2020-08-27T15:24:55.399Z</time>
      </trkpt>
      <trkpt lat="69.3008" lon="18.66268">
        <ele>9.881798</ele>
        <time>2020-08-27T15:25:16.672Z</time>
      </trkpt>
      <trkpt lat="69.30024" lon="18.66425">
        <ele>11.076762</ele>
        <time>2020-08-27T15:25:36.300Z</time>
      </trkpt>
      <trkpt lat="69.29846" lon="18.66859">
        <ele>14.791526</ele>
        <time>2020-08-27T15:26:30.128Z</time>
      </trkpt>
      <trkpt lat="69.29728" lon="18.67228">
        <ele>16.898855</ele>
        <time>2020-08-27T15:27:08.774Z</time>
      </trkpt>
      <trkpt lat="69.29693" lon="18.6734">
        <ele>17.45993</ele>
        <time>2020-08-27T15:27:19.628Z</time>
      </trkpt>
      <trkpt lat="69.29657" lon="18.67456">
        <ele>17.239654</ele>
        <time>2020-08-27T15:27:30.314Z</time>
      </trkpt>
      <trkpt lat="69.29598" lon="18.67614">
        <ele>16.749913</ele>
        <time>2020-08-27T15:27:43.753Z</time>
      </trkpt>
      <trkpt lat="69.29557" lon="18.67685">
        <ele>16.458959</ele>
        <time>2020-08-27T15:27:50.704Z</time>
      </trkpt>
      <trkpt lat="69.29524" lon="18.67718">
        <ele>15.688767</ele>
        <time>2020-08-27T15:27:55.480Z</time>
      </trkpt>
      <trkpt lat="69.29511" lon="18.67729">
        <ele>15.352417</ele>
        <time>2020-08-27T15:27:57.401Z</time>
      </trkpt>
      <trkpt lat="69.29483" lon="18.67752">
        <ele>14.666526</ele>
        <time>2020-08-27T15:28:01.422Z</time>
      </trkpt>
      <trkpt lat="69.2945" lon="18.67777">
        <ele>13.867697</ele>
        <time>2020-08-27T15:28:06.034Z</time>
      </trkpt>
      <trkpt lat="69.29419" lon="18.67802">
        <ele>13.10665</ele>
        <time>2020-08-27T15:28:10.410Z</time>
      </trkpt>
      <trkpt lat="69.29353" lon="18.6788">
        <ele>11.561952</ele>
        <time>2020-08-27T15:28:20.053Z</time>
      </trkpt>
      <trkpt lat="69.28868" lon="18.68601">
        <ele>1.83826</ele>
        <time>2020-08-27T15:29:38.681Z</time>
      </trkpt>
      <trkpt lat="69.28805" lon="18.68697">
        <ele>1.205338</ele>
        <time>2020-08-27T15:29:50.014Z</time>
      </trkpt>
      <trkpt lat="69.28738" lon="18.68802">
        <ele>0.608839</ele>
        <time>2020-08-27T15:30:02.908Z</time>
      </trkpt>
      <trkpt lat="69.28706" lon="18.68864">
        <ele>0.583961</ele>
        <time>2020-08-27T15:30:09.742Z</time>
      </trkpt>
      <trkpt lat="69.2868" lon="18.68957">
        <ele>0.557135</ele>
        <time>2020-08-27T15:30:17.280Z</time>
      </trkpt>
      <trkpt lat="69.28672" lon="18.68995">
        <ele>0.547187</ele>
        <time>2020-08-27T15:30:20.108Z</time>
      </trkpt>
      <trkpt lat="69.28653" lon="18.6909">
        <ele>0.522508</ele>
        <time>2020-08-27T15:30:27.074Z</time>
      </trkpt>
      <trkpt lat="69.28624" lon="18.69184">
        <ele>0.494336</ele>
        <time>2020-08-27T15:30:35.061Z</time>
      </trkpt>
      <trkpt lat="69.28566" lon="18.69254">
        <ele>0.455757</ele>
        <time>2020-08-27T15:30:46.310Z</time>
      </trkpt>
      <trkpt lat="69.2854" lon="18.69298">
        <ele>0.437435</ele>
        <time>2020-08-27T15:30:51.586Z</time>
      </trkpt>
      <trkpt lat="69.28491" lon="18.69466">
        <ele>0.390509</ele>
        <time>2020-08-27T15:31:05.009Z</time>
      </trkpt>
      <trkpt lat="69.28485" lon="18.69489">
        <ele>0.378133</ele>
        <time>2020-08-27T15:31:06.754Z</time>
      </trkpt>
      <trkpt lat="69.28481" lon="18.69506">
        <ele>0.368642</ele>
        <time>2020-08-27T15:31:08.097Z</time>
      </trkpt>
      <trkpt lat="69.28464" lon="18.69569">
        <ele>0.334275</ele>
        <time>2020-08-27T15:31:12.892Z</time>
      </trkpt>
      <trkpt lat="69.28402" lon="18.69798">
        <ele>0.20732</ele>
        <time>2020-08-27T15:31:30.732Z</time>
      </trkpt>
      <trkpt lat="69.2839" lon="18.69845">
        <ele>0.181392</ele>
        <time>2020-08-27T15:31:34.388Z</time>
      </trkpt>
      <trkpt lat="69.28365" lon="18.69971">
        <ele>0.151972</ele>
        <time>2020-08-27T15:31:43.386Z</time>
      </trkpt>
      <trkpt lat="69.28318" lon="18.70325">
        <ele>0.102665</ele>
        <time>2020-08-27T15:32:07.120Z</time>
      </trkpt>
      <trkpt lat="69.28289" lon="18.70447">
        <ele>0.10732</ele>
        <time>2020-08-27T15:32:16.400Z</time>
      </trkpt>
      <trkpt lat="69.28283" lon="18.70467">
        <ele>0.108847</ele>
        <time>2020-08-27T15:32:18.023Z</time>
      </trkpt>
      <trkpt lat="69.28265" lon="18.70525">
        <ele>0.113277</ele>
        <time>2020-08-27T15:32:22.890Z</time>
      </trkpt>
      <trkpt lat="69.28192" lon="18.70766">
        <ele>0.177504</ele>
        <time>2020-08-27T15:32:43.043Z</time>
      </trkpt>
      <trkpt lat="69.2816" lon="18.709">
        <ele>0.371332</ele>
        <time>2020-08-27T15:32:53.531Z</time>
      </trkpt>
      <trkpt lat="69.28135" lon="18.71059">
        <ele>0.58012</ele>
        <time>2020-08-27T15:33:05.227Z</time>
      </trkpt>
      <trkpt lat="69.28116" lon="18.71174">
        <ele>0.732448</ele>
        <time>2020-08-27T15:33:13.971Z</time>
      </trkpt>
      <trkpt lat="69.281" lon="18.71301">
        <ele>1.38977</ele>
        <time>2020-08-27T15:33:23.509Z</time>
      </trkpt>
      <trkpt lat="69.28093" lon="18.71542">
        <ele>2.612155</ele>
        <time>2020-08-27T15:33:42.761Z</time>
      </trkpt>
      <trkpt lat="69.28086" lon="18.71618">
        <ele>3.006227</ele>
        <time>2020-08-27T15:33:49.223Z</time>
      </trkpt>
      <trkpt lat="69.28073" lon="18.71683">
        <ele>3.502346</ele>
        <time>2020-08-27T15:33:55.760Z</time>
      </trkpt>
      <trkpt lat="69.28055" lon="18.71727">
        <ele>4.366809</ele>
        <time>2020-08-27T15:34:01.579Z</time>
      </trkpt>
      <trkpt lat="69.28047" lon="18.7174">
        <ele>4.670346</ele>
        <time>2020-08-27T15:34:03.902Z</time>
      </trkpt>
      <trkpt lat="69.2804" lon="18.71751">
        <ele>4.978238</ele>
        <time>2020-08-27T15:34:06.396Z</time>
      </trkpt>
      <trkpt lat="69.28014" lon="18.71771">
        <ele>5.943068</ele>
        <time>2020-08-27T15:34:14.248Z</time>
      </trkpt>
      <trkpt lat="69.27997" lon="18.71771">
        <ele>6.568127</ele>
        <time>2020-08-27T15:34:19.675Z</time>
      </trkpt>
      <trkpt lat="69.27993" lon="18.71769">
        <ele>6.692388</ele>
        <time>2020-08-27T15:34:20.993Z</time>
      </trkpt>
      <trkpt lat="69.27981" lon="18.71759">
        <ele>7.152153</ele>
        <time>2020-08-27T15:34:24.366Z</time>
      </trkpt>
      <trkpt lat="69.2797" lon="18.7175">
        <ele>7.548584</ele>
        <time>2020-08-27T15:34:27.754Z</time>
      </trkpt>
      <trkpt lat="69.27962" lon="18.71741">
        <ele>7.868389</ele>
        <time>2020-08-27T15:34:30.746Z</time>
      </trkpt>
      <trkpt lat="69.27949" lon="18.71724">
        <ele>8.368917</ele>
        <time>2020-08-27T15:34:34.858Z</time>
      </trkpt>
      <trkpt lat="69.27921" lon="18.71689">
        <ele>9.469246</ele>
        <time>2020-08-27T15:34:44.658Z</time>
      </trkpt>
      <trkpt lat="69.27906" lon="18.71672">
        <ele>10.109216</ele>
        <time>2020-08-27T15:34:49.890Z</time>
      </trkpt>
      <trkpt lat="69.27894" lon="18.71662">
        <ele>10.57054</ele>
        <time>2020-08-27T15:34:54.230Z</time>
      </trkpt>
      <trkpt lat="69.27848" lon="18.71636">
        <ele>12.453625</ele>
        <time>2020-08-27T15:35:10.540Z</time>
      </trkpt>
      <trkpt lat="69.27749" lon="18.7163">
        <ele>16.351775</ele>
        <time>2020-08-27T15:35:40.792Z</time>
      </trkpt>
      <trkpt lat="69.27743" lon="18.71629">
        <ele>16.58903</ele>
        <time>2020-08-27T15:35:43.033Z</time>
      </trkpt>
      <trkpt lat="69.2773" lon="18.71627">
        <ele>16.843285</ele>
        <time>2020-08-27T15:35:45.870Z</time>
      </trkpt>
      <trkpt lat="69.27685" lon="18.71607">
        <ele>16.570934</ele>
        <time>2020-08-27T15:35:55.674Z</time>
      </trkpt>
      <trkpt lat="69.27657" lon="18.71585">
        <ele>16.39776</ele>
        <time>2020-08-27T15:36:01.718Z</time>
      </trkpt>
      <trkpt lat="69.2763" lon="18.71566">
        <ele>16.231437</ele>
        <time>2020-08-27T15:36:06.433Z</time>
      </trkpt>
      <trkpt lat="69.27579" lon="18.71543">
        <ele>15.93034</ele>
        <time>2020-08-27T15:36:13.526Z</time>
      </trkpt>
      <trkpt lat="69.27505" lon="18.71532">
        <ele>13.277047</ele>
        <time>2020-08-27T15:36:22.733Z</time>
      </trkpt>
      <trkpt lat="69.27463" lon="18.71526">
        <ele>11.332417</ele>
        <time>2020-08-27T15:36:27.762Z</time>
      </trkpt>
      <trkpt lat="69.27396" lon="18.71516">
        <ele>8.222676</ele>
        <time>2020-08-27T15:36:35.842Z</time>
      </trkpt>
      <trkpt lat="69.27301" lon="18.71505">
        <ele>5.068068</ele>
        <time>2020-08-27T15:36:47.679Z</time>
      </trkpt>
      <trkpt lat="69.27257" lon="18.71527">
        <ele>3.730322</ele>
        <time>2020-08-27T15:36:53.649Z</time>
      </trkpt>
      <trkpt lat="69.27208" lon="18.71576">
        <ele>2.176076</ele>
        <time>2020-08-27T15:37:01.288Z</time>
      </trkpt>
      <trkpt lat="69.27195" lon="18.71597">
        <ele>2.182779</ele>
        <time>2020-08-27T15:37:03.633Z</time>
      </trkpt>
      <trkpt lat="69.27163" lon="18.71646">
        <ele>2.684016</ele>
        <time>2020-08-27T15:37:09.616Z</time>
      </trkpt>
      <trkpt lat="69.27116" lon="18.71712">
        <ele>3.40518</ele>
        <time>2020-08-27T15:37:21.532Z</time>
      </trkpt>
      <trkpt lat="69.27064" lon="18.71762">
        <ele>4.156478</ele>
        <time>2020-08-27T15:37:34.749Z</time>
      </trkpt>
      <trkpt lat="69.2703" lon="18.71796">
        <ele>4.918719</ele>
        <time>2020-08-27T15:37:44.810Z</time>
      </trkpt>
      <trkpt lat="69.27019" lon="18.71808">
        <ele>5.419967</ele>
        <time>2020-08-27T15:37:48.942Z</time>
      </trkpt>
      <trkpt lat="69.26877" lon="18.71941">
        <ele>11.453679</ele>
        <time>2020-08-27T15:38:36.337Z</time>
      </trkpt>
      <trkpt lat="69.26847" lon="18.7194">
        <ele>12.697135</ele>
        <time>2020-08-27T15:38:45.793Z</time>
      </trkpt>
      <trkpt lat="69.26818" lon="18.71922">
        <ele>13.887839</ele>
        <time>2020-08-27T15:38:53.968Z</time>
      </trkpt>
      <trkpt lat="69.26812" lon="18.71916">
        <ele>14.171037</ele>
        <time>2020-08-27T15:38:56.875Z</time>
      </trkpt>
      <trkpt lat="69.26789" lon="18.71893">
        <ele>15.188917</ele>
        <time>2020-08-27T15:39:03.889Z</time>
      </trkpt>
      <trkpt lat="69.26718" lon="18.71824">
        <ele>18.2581</ele>
        <time>2020-08-27T15:39:27.476Z</time>
      </trkpt>
      <trkpt lat="69.26529" lon="18.71746">
        <ele>25.141812</ele>
        <time>2020-08-27T15:40:26.531Z</time>
      </trkpt>
      <trkpt lat="69.26311" lon="18.71593">
        <ele>25.862203</ele>
        <time>2020-08-27T15:41:10.114Z</time>
      </trkpt>
      <trkpt lat="69.26291" lon="18.71574">
        <ele>25.316741</ele>
        <time>2020-08-27T15:41:12.886Z</time>
      </trkpt>
      <trkpt lat="69.26281" lon="18.71562">
        <ele>25.035003</ele>
        <time>2020-08-27T15:41:14.386Z</time>
      </trkpt>
      <trkpt lat="69.26275" lon="18.71553">
        <ele>24.847795</ele>
        <time>2020-08-27T15:41:15.336Z</time>
      </trkpt>
      <trkpt lat="69.26259" lon="18.71533">
        <ele>24.410746</ele>
        <time>2020-08-27T15:41:17.499Z</time>
      </trkpt>
      <trkpt lat="69.26214" lon="18.71479">
        <ele>23.147224</ele>
        <time>2020-08-27T15:41:23.834Z</time>
      </trkpt>
      <trkpt lat="69.26157" lon="18.71429">
        <ele>21.517983</ele>
        <time>2020-08-27T15:41:31.338Z</time>
      </trkpt>
      <trkpt lat="69.25859" lon="18.71308">
        <ele>13.059801</ele>
        <time>2020-08-27T15:42:11.773Z</time>
      </trkpt>
      <trkpt lat="69.25719" lon="18.71207">
        <ele>11.029307</ele>
        <time>2020-08-27T15:42:31.709Z</time>
      </trkpt>
      <trkpt lat="69.25607" lon="18.71055">
        <ele>11.639908</ele>
        <time>2020-08-27T15:42:56.638Z</time>
      </trkpt>
      <trkpt lat="69.25454" lon="18.70984">
        <ele>15.478092</ele>
        <time>2020-08-27T15:43:42.809Z</time>
      </trkpt>
      <trkpt lat="69.25418" lon="18.70949">
        <ele>15.818732</ele>
        <time>2020-08-27T15:43:53.077Z</time>
      </trkpt>
      <trkpt lat="69.25394" lon="18.70895">
        <ele>16.091215</ele>
        <time>2020-08-27T15:44:00.266Z</time>
      </trkpt>
      <trkpt lat="69.25377" lon="18.70828">
        <ele>16.34622</ele>
        <time>2020-08-27T15:44:06.139Z</time>
      </trkpt>
      <trkpt lat="69.25298" lon="18.70279">
        <ele>13.859953</ele>
        <time>2020-08-27T15:44:35.874Z</time>
      </trkpt>
      <trkpt lat="69.25234" lon="18.70042">
        <ele>11.986276</ele>
        <time>2020-08-27T15:44:50.655Z</time>
      </trkpt>
      <trkpt lat="69.25224" lon="18.69972">
        <ele>11.52612</ele>
        <time>2020-08-27T15:44:54.583Z</time>
      </trkpt>
      <trkpt lat="69.2522" lon="18.69906">
        <ele>11.120797</ele>
        <time>2020-08-27T15:44:57.947Z</time>
      </trkpt>
      <trkpt lat="69.2522" lon="18.69877">
        <ele>10.947889</ele>
        <time>2020-08-27T15:44:59.590Z</time>
      </trkpt>
      <trkpt lat="69.25221" lon="18.69845">
        <ele>10.752809</ele>
        <time>2020-08-27T15:45:01.174Z</time>
      </trkpt>
      <trkpt lat="69.25225" lon="18.69778">
        <ele>10.340981</ele>
        <time>2020-08-27T15:45:04.895Z</time>
      </trkpt>
      <trkpt lat="69.25232" lon="18.69707">
        <ele>10.103978</ele>
        <time>2020-08-27T15:45:08.696Z</time>
      </trkpt>
      <trkpt lat="69.25242" lon="18.69605">
        <ele>9.866352</ele>
        <time>2020-08-27T15:45:14.451Z</time>
      </trkpt>
      <trkpt lat="69.25249" lon="18.69483">
        <ele>9.58769</ele>
        <time>2020-08-27T15:45:21.535Z</time>
      </trkpt>
      <trkpt lat="69.25244" lon="18.69321">
        <ele>9.222861</ele>
        <time>2020-08-27T15:45:30.793Z</time>
      </trkpt>
      <trkpt lat="69.25236" lon="18.6918">
        <ele>9.638897</ele>
        <time>2020-08-27T15:45:40.439Z</time>
      </trkpt>
      <trkpt lat="69.25232" lon="18.69118">
        <ele>10.059232</ele>
        <time>2020-08-27T15:45:45.359Z</time>
      </trkpt>
      <trkpt lat="69.25223" lon="18.68962">
        <ele>11.113426</ele>
        <time>2020-08-27T15:45:58.187Z</time>
      </trkpt>
      <trkpt lat="69.2522" lon="18.68886">
        <ele>11.621324</ele>
        <time>2020-08-27T15:46:05.666Z</time>
      </trkpt>
      <trkpt lat="69.25223" lon="18.68842">
        <ele>11.920962</ele>
        <time>2020-08-27T15:46:10.211Z</time>
      </trkpt>
      <trkpt lat="69.25225" lon="18.68826">
        <ele>12.035575</ele>
        <time>2020-08-27T15:46:12.393Z</time>
      </trkpt>
      <trkpt lat="69.25233" lon="18.68785">
        <ele>12.344509</ele>
        <time>2020-08-27T15:46:16.185Z</time>
      </trkpt>
      <trkpt lat="69.25236" lon="18.68763">
        <ele>12.531159</ele>
        <time>2020-08-27T15:46:18.562Z</time>
      </trkpt>
      <trkpt lat="69.25256" lon="18.68667">
        <ele>13.998925</ele>
        <time>2020-08-27T15:46:30.092Z</time>
      </trkpt>
      <trkpt lat="69.25258" lon="18.68657">
        <ele>14.158303</ele>
        <time>2020-08-27T15:46:31.521Z</time>
      </trkpt>
      <trkpt lat="69.25259" lon="18.68648">
        <ele>14.281364</ele>
        <time>2020-08-27T15:46:32.844Z</time>
      </trkpt>
      <trkpt lat="69.25259" lon="18.68627">
        <ele>14.568228</ele>
        <time>2020-08-27T15:46:34.703Z</time>
      </trkpt>
      <trkpt lat="69.25252" lon="18.68592">
        <ele>15.107472</ele>
        <time>2020-08-27T15:46:38.264Z</time>
      </trkpt>
      <trkpt lat="69.25248" lon="18.68587">
        <ele>15.253716</ele>
        <time>2020-08-27T15:46:39.565Z</time>
      </trkpt>
      <trkpt lat="69.25246" lon="18.68584">
        <ele>15.369795</ele>
        <time>2020-08-27T15:46:40.815Z</time>
      </trkpt>
      <trkpt lat="69.25159" lon="18.68621">
        <ele>18.645919</ele>
        <time>2020-08-27T15:47:07.228Z</time>
      </trkpt>
      <trkpt lat="69.2513" lon="18.68607">
        <ele>19.876646</ele>
        <time>2020-08-27T15:47:16.687Z</time>
      </trkpt>
      <trkpt lat="69.25081" lon="18.68549">
        <ele>22.378303</ele>
        <time>2020-08-27T15:47:33.169Z</time>
      </trkpt>
      <trkpt lat="69.25022" lon="18.68467">
        <ele>25.491242</ele>
        <time>2020-08-27T15:47:54.614Z</time>
      </trkpt>
      <trkpt lat="69.24955" lon="18.68376">
        <ele>29.329625</ele>
        <time>2020-08-27T15:48:21.090Z</time>
      </trkpt>
      <trkpt lat="69.24901" lon="18.68302">
        <ele>32.867736</ele>
        <time>2020-08-27T15:48:43.576Z</time>
      </trkpt>
      <trkpt lat="69.24815" lon="18.68184">
        <ele>38.456125</ele>
        <time>2020-08-27T15:49:19.319Z</time>
      </trkpt>
      <trkpt lat="69.24748" lon="18.68101">
        <ele>41.878026</ele>
        <time>2020-08-27T15:49:45.356Z</time>
      </trkpt>
      <trkpt lat="69.24689" lon="18.68043">
        <ele>44.788376</ele>
        <time>2020-08-27T15:50:05.747Z</time>
      </trkpt>
      <trkpt lat="69.24641" lon="18.68011">
        <ele>46.850402</ele>
        <time>2020-08-27T15:50:20.117Z</time>
      </trkpt>
      <trkpt lat="69.24573" lon="18.67994">
        <ele>47.76525</ele>
        <time>2020-08-27T15:50:37.329Z</time>
      </trkpt>
      <trkpt lat="69.24554" lon="18.67995">
        <ele>48.0285</ele>
        <time>2020-08-27T15:50:41.959Z</time>
      </trkpt>
      <trkpt lat="69.24524" lon="18.67998">
        <ele>48.431099</ele>
        <time>2020-08-27T15:50:48.037Z</time>
      </trkpt>
      <trkpt lat="69.24448" lon="18.68021">
        <ele>48.785913</ele>
        <time>2020-08-27T15:51:01.056Z</time>
      </trkpt>
      <trkpt lat="69.24399" lon="18.68049">
        <ele>47.900338</ele>
        <time>2020-08-27T15:51:08.492Z</time>
      </trkpt>
      <trkpt lat="69.24387" lon="18.68057">
        <ele>47.6824</ele>
        <time>2020-08-27T15:51:10.202Z</time>
      </trkpt>
      <trkpt lat="69.24354" lon="18.68084">
        <ele>47.076675</ele>
        <time>2020-08-27T15:51:15.004Z</time>
      </trkpt>
      <trkpt lat="69.24325" lon="18.68111">
        <ele>46.525885</ele>
        <time>2020-08-27T15:51:19.321Z</time>
      </trkpt>
      <trkpt lat="69.24242" lon="18.68214">
        <ele>44.668457</ele>
        <time>2020-08-27T15:51:31.523Z</time>
      </trkpt>
      <trkpt lat="69.2412" lon="18.6844">
        <ele>41.880372</ele>
        <time>2020-08-27T15:51:51.941Z</time>
      </trkpt>
      <trkpt lat="69.24083" lon="18.68496">
        <ele>41.618842</ele>
        <time>2020-08-27T15:51:58.306Z</time>
      </trkpt>
      <trkpt lat="69.2403" lon="18.68535">
        <ele>41.273868</ele>
        <time>2020-08-27T15:52:07.366Z</time>
      </trkpt>
      <trkpt lat="69.23988" lon="18.68535">
        <ele>41.010103</ele>
        <time>2020-08-27T15:52:15.106Z</time>
      </trkpt>
      <trkpt lat="69.23917" lon="18.6851">
        <ele>41.461306</ele>
        <time>2020-08-27T15:52:29.574Z</time>
      </trkpt>
      <trkpt lat="69.23843" lon="18.68482">
        <ele>42.179215</ele>
        <time>2020-08-27T15:52:45.618Z</time>
      </trkpt>
      <trkpt lat="69.23669" lon="18.68414">
        <ele>44.215156</ele>
        <time>2020-08-27T15:53:23.635Z</time>
      </trkpt>
      <trkpt lat="69.2366" lon="18.68409">
        <ele>44.324582</ele>
        <time>2020-08-27T15:53:25.801Z</time>
      </trkpt>
      <trkpt lat="69.23657" lon="18.68406">
        <ele>44.358957</ele>
        <time>2020-08-27T15:53:26.447Z</time>
      </trkpt>
      <trkpt lat="69.23647" lon="18.68397">
        <ele>44.49742</ele>
        <time>2020-08-27T15:53:28.747Z</time>
      </trkpt>
      <trkpt lat="69.23582" lon="18.68321">
        <ele>45.564681</ele>
        <time>2020-08-27T15:53:44.244Z</time>
      </trkpt>
      <trkpt lat="69.2357" lon="18.68302">
        <ele>45.805608</ele>
        <time>2020-08-27T15:53:47.175Z</time>
      </trkpt>
      <trkpt lat="69.2356" lon="18.68284">
        <ele>46.025195</ele>
        <time>2020-08-27T15:53:50.345Z</time>
      </trkpt>
      <trkpt lat="69.23516" lon="18.6819">
        <ele>46.988758</ele>
        <time>2020-08-27T15:54:02.957Z</time>
      </trkpt>
      <trkpt lat="69.23483" lon="18.68098">
        <ele>47.806816</ele>
        <time>2020-08-27T15:54:14.257Z</time>
      </trkpt>
      <trkpt lat="69.23348" lon="18.67587">
        <ele>52.432471</ele>
        <time>2020-08-27T15:55:11.163Z</time>
      </trkpt>
      <trkpt lat="69.23334" lon="18.67534">
        <ele>52.705858</ele>
        <time>2020-08-27T15:55:16.622Z</time>
      </trkpt>
      <trkpt lat="69.23324" lon="18.67498">
        <ele>52.897351</ele>
        <time>2020-08-27T15:55:20.381Z</time>
      </trkpt>
      <trkpt lat="69.23289" lon="18.67401">
        <ele>53.455331</ele>
        <time>2020-08-27T15:55:30.722Z</time>
      </trkpt>
      <trkpt lat="69.23235" lon="18.67299">
        <ele>54.105152</ele>
        <time>2020-08-27T15:55:43.383Z</time>
      </trkpt>
      <trkpt lat="69.23184" lon="18.67242">
        <ele>53.997486</ele>
        <time>2020-08-27T15:55:52.793Z</time>
      </trkpt>
      <trkpt lat="69.23109" lon="18.67203">
        <ele>53.84752</ele>
        <time>2020-08-27T15:56:05.392Z</time>
      </trkpt>
      <trkpt lat="69.23092" lon="18.67198">
        <ele>53.813692</ele>
        <time>2020-08-27T15:56:08.199Z</time>
      </trkpt>
      <trkpt lat="69.22995" lon="18.67169">
        <ele>54.080525</ele>
        <time>2020-08-27T15:56:25.320Z</time>
      </trkpt>
      <trkpt lat="69.22964" lon="18.67159">
        <ele>54.214494</ele>
        <time>2020-08-27T15:56:31.159Z</time>
      </trkpt>
      <trkpt lat="69.22802" lon="18.67109">
        <ele>55.732705</ele>
        <time>2020-08-27T15:57:05.802Z</time>
      </trkpt>
      <trkpt lat="69.22726" lon="18.67086">
        <ele>56.767853</ele>
        <time>2020-08-27T15:57:23.200Z</time>
      </trkpt>
      <trkpt lat="69.22585" lon="18.67043">
        <ele>59.072917</ele>
        <time>2020-08-27T15:57:56.507Z</time>
      </trkpt>
      <trkpt lat="69.2251" lon="18.67006">
        <ele>60.239645</ele>
        <time>2020-08-27T15:58:13.921Z</time>
      </trkpt>
      <trkpt lat="69.22485" lon="18.6699">
        <ele>60.582658</ele>
        <time>2020-08-27T15:58:20.168Z</time>
      </trkpt>
      <trkpt lat="69.22366" lon="18.66912">
        <ele>62.171949</ele>
        <time>2020-08-27T15:58:46.786Z</time>
      </trkpt>
      <trkpt lat="69.22359" lon="18.66908">
        <ele>62.263116</ele>
        <time>2020-08-27T15:58:48.453Z</time>
      </trkpt>
      <trkpt lat="69.22353" lon="18.66904">
        <ele>62.30143</ele>
        <time>2020-08-27T15:58:49.714Z</time>
      </trkpt>
      <trkpt lat="69.22281" lon="18.66856">
        <ele>62.45613</ele>
        <time>2020-08-27T15:59:04.071Z</time>
      </trkpt>
      <trkpt lat="69.22222" lon="18.66816">
        <ele>62.582503</ele>
        <time>2020-08-27T15:59:14.969Z</time>
      </trkpt>
      <trkpt lat="69.22181" lon="18.66789">
        <ele>62.66544</ele>
        <time>2020-08-27T15:59:22.019Z</time>
      </trkpt>
      <trkpt lat="69.22151" lon="18.66771">
        <ele>62.539238</ele>
        <time>2020-08-27T15:59:27.057Z</time>
      </trkpt>
      <trkpt lat="69.22081" lon="18.66741">
        <ele>62.2463</ele>
        <time>2020-08-27T15:59:38.512Z</time>
      </trkpt>
      <trkpt lat="69.22009" lon="18.66739">
        <ele>61.945845</ele>
        <time>2020-08-27T15:59:50.472Z</time>
      </trkpt>
      <trkpt lat="69.21984" lon="18.66744">
        <ele>62.115249</ele>
        <time>2020-08-27T15:59:54.728Z</time>
      </trkpt>
      <trkpt lat="69.21872" lon="18.66768">
        <ele>63.227973</ele>
        <time>2020-08-27T16:00:16.914Z</time>
      </trkpt>
      <trkpt lat="69.21772" lon="18.66792">
        <ele>65.631288</ele>
        <time>2020-08-27T16:00:42.540Z</time>
      </trkpt>
      <trkpt lat="69.21648" lon="18.66784">
        <ele>70.165394</ele>
        <time>2020-08-27T16:01:21.301Z</time>
      </trkpt>
      <trkpt lat="69.21585" lon="18.66753">
        <ele>73.008666</ele>
        <time>2020-08-27T16:01:42.803Z</time>
      </trkpt>
      <trkpt lat="69.21517" lon="18.66689">
        <ele>76.219172</ele>
        <time>2020-08-27T16:02:06.220Z</time>
      </trkpt>
      <trkpt lat="69.21508" lon="18.6668">
        <ele>76.62228</ele>
        <time>2020-08-27T16:02:09.677Z</time>
      </trkpt>
      <trkpt lat="69.21504" lon="18.66675">
        <ele>76.819672</ele>
        <time>2020-08-27T16:02:10.975Z</time>
      </trkpt>
      <trkpt lat="69.21468" lon="18.66637">
        <ele>78.482543</ele>
        <time>2020-08-27T16:02:22.654Z</time>
      </trkpt>
      <trkpt lat="69.21402" lon="18.66568">
        <ele>80.761262</ele>
        <time>2020-08-27T16:02:43.236Z</time>
      </trkpt>
      <trkpt lat="69.21361" lon="18.66526">
        <ele>82.172609</ele>
        <time>2020-08-27T16:02:55.443Z</time>
      </trkpt>
      <trkpt lat="69.21292" lon="18.66431">
        <ele>84.600162</ele>
        <time>2020-08-27T16:03:15.625Z</time>
      </trkpt>
      <trkpt lat="69.21283" lon="18.66414">
        <ele>84.909664</ele>
        <time>2020-08-27T16:03:18.635Z</time>
      </trkpt>
      <trkpt lat="69.21265" lon="18.66378">
        <ele>85.560751</ele>
        <time>2020-08-27T16:03:24.386Z</time>
      </trkpt>
      <trkpt lat="69.21233" lon="18.66305">
        <ele>86.763112</ele>
        <time>2020-08-27T16:03:35.376Z</time>
      </trkpt>
      <trkpt lat="69.21214" lon="18.66257">
        <ele>87.494606</ele>
        <time>2020-08-27T16:03:42.362Z</time>
      </trkpt>
      <trkpt lat="69.21197" lon="18.66211">
        <ele>88.187781</ele>
        <time>2020-08-27T16:03:49.311Z</time>
      </trkpt>
      <trkpt lat="69.21141" lon="18.66016">
        <ele>90.831999</ele>
        <time>2020-08-27T16:04:13.356Z</time>
      </trkpt>
      <trkpt lat="69.21137" lon="18.65995">
        <ele>91.087643</ele>
        <time>2020-08-27T16:04:15.977Z</time>
      </trkpt>
      <trkpt lat="69.21132" lon="18.65964">
        <ele>91.457476</ele>
        <time>2020-08-27T16:04:19.517Z</time>
      </trkpt>
      <trkpt lat="69.21112" lon="18.65822">
        <ele>93.082962</ele>
        <time>2020-08-27T16:04:33.927Z</time>
      </trkpt>
      <trkpt lat="69.21093" lon="18.65677">
        <ele>94.735913</ele>
        <time>2020-08-27T16:04:49.126Z</time>
      </trkpt>
      <trkpt lat="69.21075" lon="18.65545">
        <ele>96.451811</ele>
        <time>2020-08-27T16:05:03.017Z</time>
      </trkpt>
      <trkpt lat="69.21047" lon="18.65329">
        <ele>99.28239</ele>
        <time>2020-08-27T16:05:26.230Z</time>
      </trkpt>
      <trkpt lat="69.21019" lon="18.65135">
        <ele>102.069589</ele>
        <time>2020-08-27T16:05:48.911Z</time>
      </trkpt>
      <trkpt lat="69.20964" lon="18.64856">
        <ele>106.997249</ele>
        <time>2020-08-27T16:06:25.410Z</time>
      </trkpt>
      <trkpt lat="69.20823" lon="18.64235">
        <ele>117.545644</ele>
        <time>2020-08-27T16:07:48.748Z</time>
      </trkpt>
      <trkpt lat="69.20804" lon="18.6415">
        <ele>118.434733</ele>
        <time>2020-08-27T16:07:58.270Z</time>
      </trkpt>
      <trkpt lat="69.2075" lon="18.63915">
        <ele>120.895797</ele>
        <time>2020-08-27T16:08:21.781Z</time>
      </trkpt>
      <trkpt lat="69.20707" lon="18.63727">
        <ele>121.646256</ele>
        <time>2020-08-27T16:08:38.080Z</time>
      </trkpt>
      <trkpt lat="69.20623" lon="18.63357">
        <ele>122.648102</ele>
        <time>2020-08-27T16:09:09.197Z</time>
      </trkpt>
      <trkpt lat="69.20585" lon="18.63193">
        <ele>122.811533</ele>
        <time>2020-08-27T16:09:22.358Z</time>
      </trkpt>
      <trkpt lat="69.20516" lon="18.6296">
        <ele>122.646705</ele>
        <time>2020-08-27T16:09:41.109Z</time>
      </trkpt>
      <trkpt lat="69.2048" lon="18.62861">
        <ele>122.319823</ele>
        <time>2020-08-27T16:09:49.169Z</time>
      </trkpt>
      <trkpt lat="69.20405" lon="18.62653">
        <ele>121.533856</ele>
        <time>2020-08-27T16:10:05.612Z</time>
      </trkpt>
      <trkpt lat="69.20372" lon="18.62557">
        <ele>121.015496</ele>
        <time>2020-08-27T16:10:12.816Z</time>
      </trkpt>
      <trkpt lat="69.20356" lon="18.62509">
        <ele>120.765668</ele>
        <time>2020-08-27T16:10:16.350Z</time>
      </trkpt>
      <trkpt lat="69.20347" lon="18.62475">
        <ele>120.598227</ele>
        <time>2020-08-27T16:10:18.611Z</time>
      </trkpt>
      <trkpt lat="69.20295" lon="18.62253">
        <ele>119.609491</ele>
        <time>2020-08-27T16:10:33.207Z</time>
      </trkpt>
      <trkpt lat="69.2028" lon="18.62178">
        <ele>119.33029</ele>
        <time>2020-08-27T16:10:37.938Z</time>
      </trkpt>
      <trkpt lat="69.20267" lon="18.62108">
        <ele>119.06528</ele>
        <time>2020-08-27T16:10:42.419Z</time>
      </trkpt>
      <trkpt lat="69.20241" lon="18.6196">
        <ele>118.525213</ele>
        <time>2020-08-27T16:10:51.847Z</time>
      </trkpt>
      <trkpt lat="69.20229" lon="18.61876">
        <ele>118.22755</ele>
        <time>2020-08-27T16:10:56.971Z</time>
      </trkpt>
      <trkpt lat="69.20207" lon="18.61728">
        <ele>116.888506</ele>
        <time>2020-08-27T16:11:05.596Z</time>
      </trkpt>
      <trkpt lat="69.20186" lon="18.61579">
        <ele>115.430198</ele>
        <time>2020-08-27T16:11:13.637Z</time>
      </trkpt>
      <trkpt lat="69.20169" lon="18.61461">
        <ele>114.275932</ele>
        <time>2020-08-27T16:11:19.433Z</time>
      </trkpt>
      <trkpt lat="69.20164" lon="18.6143">
        <ele>113.971628</ele>
        <time>2020-08-27T16:11:20.919Z</time>
      </trkpt>
      <trkpt lat="69.20142" lon="18.61273">
        <ele>111.237723</ele>
        <time>2020-08-27T16:11:28.380Z</time>
      </trkpt>
      <trkpt lat="69.2014" lon="18.6126">
        <ele>110.981497</ele>
        <time>2020-08-27T16:11:28.966Z</time>
      </trkpt>
      <trkpt lat="69.20128" lon="18.61178">
        <ele>109.324678</ele>
        <time>2020-08-27T16:11:32.811Z</time>
      </trkpt>
      <trkpt lat="69.20121" lon="18.61135">
        <ele>108.425954</ele>
        <time>2020-08-27T16:11:34.862Z</time>
      </trkpt>
      <trkpt lat="69.20111" lon="18.61081">
        <ele>107.300119</ele>
        <time>2020-08-27T16:11:37.359Z</time>
      </trkpt>
      <trkpt lat="69.2008" lon="18.60944">
        <ele>104.248877</ele>
        <time>2020-08-27T16:11:44.154Z</time>
      </trkpt>
      <trkpt lat="69.20043" lon="18.60825">
        <ele>101.524792</ele>
        <time>2020-08-27T16:11:50.790Z</time>
      </trkpt>
      <trkpt lat="69.20025" lon="18.60776">
        <ele>100.311641</ele>
        <time>2020-08-27T16:11:53.741Z</time>
      </trkpt>
      <trkpt lat="69.20007" lon="18.60728">
        <ele>99.103141</ele>
        <time>2020-08-27T16:11:56.796Z</time>
      </trkpt>
      <trkpt lat="69.19963" lon="18.60621">
        <ele>96.304094</ele>
        <time>2020-08-27T16:12:04.054Z</time>
      </trkpt>
      <trkpt lat="69.19932" lon="18.60546">
        <ele>95.077126</ele>
        <time>2020-08-27T16:12:09.303Z</time>
      </trkpt>
      <trkpt lat="69.19876" lon="18.60405">
        <ele>93.970311</ele>
        <time>2020-08-27T16:12:20.185Z</time>
      </trkpt>
      <trkpt lat="69.19837" lon="18.6031">
        <ele>93.212135</ele>
        <time>2020-08-27T16:12:28.486Z</time>
      </trkpt>
      <trkpt lat="69.19811" lon="18.60245">
        <ele>92.737072</ele>
        <time>2020-08-27T16:12:34.224Z</time>
      </trkpt>
      <trkpt lat="69.19805" lon="18.6023">
        <ele>92.686893</ele>
        <time>2020-08-27T16:12:36.147Z</time>
      </trkpt>
      <trkpt lat="69.19746" lon="18.60085">
        <ele>92.211292</ele>
        <time>2020-08-27T16:12:50.495Z</time>
      </trkpt>
      <trkpt lat="69.19502" lon="18.5948">
        <ele>88.139684</ele>
        <time>2020-08-27T16:13:39.557Z</time>
      </trkpt>
      <trkpt lat="69.19401" lon="18.59232">
        <ele>84.949633</ele>
        <time>2020-08-27T16:13:57.971Z</time>
      </trkpt>
      <trkpt lat="69.19387" lon="18.59199">
        <ele>84.108419</ele>
        <time>2020-08-27T16:14:00.367Z</time>
      </trkpt>
      <trkpt lat="69.18983" lon="18.5825">
        <ele>58.06599</ele>
        <time>2020-08-27T16:15:04.453Z</time>
      </trkpt>
      <trkpt lat="69.18978" lon="18.58236">
        <ele>57.411003</ele>
        <time>2020-08-27T16:15:05.291Z</time>
      </trkpt>
      <trkpt lat="69.18958" lon="18.58188">
        <ele>55.158441</ele>
        <time>2020-08-27T16:15:08.233Z</time>
      </trkpt>
      <trkpt lat="69.18911" lon="18.5805">
        <ele>49.305011</ele>
        <time>2020-08-27T16:15:15.703Z</time>
      </trkpt>
      <trkpt lat="69.18873" lon="18.57899">
        <ele>43.626258</ele>
        <time>2020-08-27T16:15:22.872Z</time>
      </trkpt>
      <trkpt lat="69.18854" lon="18.57808">
        <ele>40.71549</ele>
        <time>2020-08-27T16:15:27.067Z</time>
      </trkpt>
      <trkpt lat="69.1882" lon="18.57647">
        <ele>35.562603</ele>
        <time>2020-08-27T16:15:34.585Z</time>
      </trkpt>
      <trkpt lat="69.18784" lon="18.57521">
        <ele>31.130903</ele>
        <time>2020-08-27T16:15:41.127Z</time>
      </trkpt>
      <trkpt lat="69.1874" lon="18.5743">
        <ele>28.222201</ele>
        <time>2020-08-27T16:15:47.510Z</time>
      </trkpt>
      <trkpt lat="69.18418" lon="18.56938">
        <ele>15.558951</ele>
        <time>2020-08-27T16:16:34.845Z</time>
      </trkpt>
      <trkpt lat="69.18415" lon="18.56935">
        <ele>15.528916</ele>
        <time>2020-08-27T16:16:35.161Z</time>
      </trkpt>
      <trkpt lat="69.18402" lon="18.57069">
        <ele>14.985651</ele>
        <time>2020-08-27T16:16:42.878Z</time>
      </trkpt>
      <trkpt lat="69.18353" lon="18.57576">
        <ele>14.329351</ele>
        <time>2020-08-27T16:17:18.151Z</time>
      </trkpt>
      <trkpt lat="69.1834" lon="18.57628">
        <ele>14.385016</ele>
        <time>2020-08-27T16:17:22.491Z</time>
      </trkpt>
      <trkpt lat="69.18319" lon="18.5766">
        <ele>14.44661</ele>
        <time>2020-08-27T16:17:27.060Z</time>
      </trkpt>
      <trkpt lat="69.18311" lon="18.57663">
        <ele>14.465374</ele>
        <time>2020-08-27T16:17:28.532Z</time>
      </trkpt>
      <trkpt lat="69.183" lon="18.57663">
        <ele>14.493286</ele>
        <time>2020-08-27T16:17:30.502Z</time>
      </trkpt>
      <trkpt lat="69.18259" lon="18.57657">
        <ele>14.345833</ele>
        <time>2020-08-27T16:17:37.921Z</time>
      </trkpt>
      <trkpt lat="69.18235" lon="18.5767">
        <ele>14.203294</ele>
        <time>2020-08-27T16:17:42.203Z</time>
      </trkpt>
      <trkpt lat="69.18131" lon="18.5786">
        <ele>13.485249</ele>
        <time>2020-08-27T16:18:01.924Z</time>
      </trkpt>
      <trkpt lat="69.18094" lon="18.57878">
        <ele>12.975031</ele>
        <time>2020-08-27T16:18:07.627Z</time>
      </trkpt>
      <trkpt lat="69.18068" lon="18.57855">
        <ele>12.609394</ele>
        <time>2020-08-27T16:18:11.578Z</time>
      </trkpt>
      <trkpt lat="69.18017" lon="18.57748">
        <ele>11.726106</ele>
        <time>2020-08-27T16:18:21.030Z</time>
      </trkpt>
      <trkpt lat="69.17951" lon="18.57659">
        <ele>10.761734</ele>
        <time>2020-08-27T16:18:31.650Z</time>
      </trkpt>
      <trkpt lat="69.17912" lon="18.57563">
        <ele>10.132933</ele>
        <time>2020-08-27T16:18:39.317Z</time>
      </trkpt>
      <trkpt lat="69.17891" lon="18.57527">
        <ele>9.836709</ele>
        <time>2020-08-27T16:18:42.962Z</time>
      </trkpt>
      <trkpt lat="69.17813" lon="18.57478">
        <ele>8.858083</ele>
        <time>2020-08-27T16:18:55.439Z</time>
      </trkpt>
      <trkpt lat="69.17756" lon="18.57479">
        <ele>8.697431</ele>
        <time>2020-08-27T16:19:04.691Z</time>
      </trkpt>
      <trkpt lat="69.17754" lon="18.5748">
        <ele>8.692468</ele>
        <time>2020-08-27T16:19:05.014Z</time>
      </trkpt>
      <trkpt lat="69.17678" lon="18.57511">
        <ele>8.511499</ele>
        <time>2020-08-27T16:19:18.419Z</time>
      </trkpt>
      <trkpt lat="69.17611" lon="18.5754">
        <ele>8.468608</ele>
        <time>2020-08-27T16:19:30.720Z</time>
      </trkpt>
      <trkpt lat="69.1754" lon="18.57571">
        <ele>8.705642</ele>
        <time>2020-08-27T16:19:44.382Z</time>
      </trkpt>
      <trkpt lat="69.17517" lon="18.5758">
        <ele>8.783398</ele>
        <time>2020-08-27T16:19:48.908Z</time>
      </trkpt>
      <trkpt lat="69.17389" lon="18.57637">
        <ele>9.239278</ele>
        <time>2020-08-27T16:20:13.809Z</time>
      </trkpt>
      <trkpt lat="69.1727" lon="18.57688">
        <ele>9.680589</ele>
        <time>2020-08-27T16:20:36.504Z</time>
      </trkpt>
      <trkpt lat="69.17192" lon="18.57722">
        <ele>9.883889</ele>
        <time>2020-08-27T16:20:51.173Z</time>
      </trkpt>
      <trkpt lat="69.17144" lon="18.57743">
        <ele>10.011892</ele>
        <time>2020-08-27T16:21:00.377Z</time>
      </trkpt>
      <trkpt lat="69.17001" lon="18.57806">
        <ele>10.366462</ele>
        <time>2020-08-27T16:21:27.325Z</time>
      </trkpt>
      <trkpt lat="69.1685" lon="18.57872">
        <ele>10.742998</ele>
        <time>2020-08-27T16:21:55.785Z</time>
      </trkpt>
      <trkpt lat="69.16742" lon="18.5792">
        <ele>11.023593</ele>
        <time>2020-08-27T16:22:16.192Z</time>
      </trkpt>
      <trkpt lat="69.16611" lon="18.57977">
        <ele>11.567752</ele>
        <time>2020-08-27T16:22:41.288Z</time>
      </trkpt>
      <trkpt lat="69.16573" lon="18.57994">
        <ele>11.726001</ele>
        <time>2020-08-27T16:22:48.710Z</time>
      </trkpt>
      <trkpt lat="69.16449" lon="18.58048">
        <ele>12.381285</ele>
        <time>2020-08-27T16:23:13.496Z</time>
      </trkpt>
      <trkpt lat="69.16432" lon="18.58055">
        <ele>12.468871</ele>
        <time>2020-08-27T16:23:16.781Z</time>
      </trkpt>
      <trkpt lat="69.16423" lon="18.58059">
        <ele>12.518019</ele>
        <time>2020-08-27T16:23:18.599Z</time>
      </trkpt>
      <trkpt lat="69.16374" lon="18.58081">
        <ele>12.770067</ele>
        <time>2020-08-27T16:23:28.294Z</time>
      </trkpt>
      <trkpt lat="69.16219" lon="18.5815">
        <ele>13.461619</ele>
        <time>2020-08-27T16:23:58.586Z</time>
      </trkpt>
      <trkpt lat="69.16159" lon="18.58176">
        <ele>13.663493</ele>
        <time>2020-08-27T16:24:10.201Z</time>
      </trkpt>
      <trkpt lat="69.16155" lon="18.58178">
        <ele>13.675566</ele>
        <time>2020-08-27T16:24:10.937Z</time>
      </trkpt>
      <trkpt lat="69.16151" lon="18.5818">
        <ele>13.688245</ele>
        <time>2020-08-27T16:24:11.732Z</time>
      </trkpt>
      <trkpt lat="69.16063" lon="18.58219">
        <ele>13.961054</ele>
        <time>2020-08-27T16:24:28.516Z</time>
      </trkpt>
      <trkpt lat="69.1606" lon="18.5822">
        <ele>13.968174</ele>
        <time>2020-08-27T16:24:28.964Z</time>
      </trkpt>
      <trkpt lat="69.15976" lon="18.58257">
        <ele>14.130179</ele>
        <time>2020-08-27T16:24:44.766Z</time>
      </trkpt>
      <trkpt lat="69.14865" lon="18.58751">
        <ele>15.378279</ele>
        <time>2020-08-27T16:28:09.801Z</time>
      </trkpt>
      <trkpt lat="69.14858" lon="18.58754">
        <ele>15.371366</ele>
        <time>2020-08-27T16:28:11.142Z</time>
      </trkpt>
      <trkpt lat="69.14826" lon="18.5877">
        <ele>15.34109</ele>
        <time>2020-08-27T16:28:16.696Z</time>
      </trkpt>
      <trkpt lat="69.14788" lon="18.58794">
        <ele>15.301087</ele>
        <time>2020-08-27T16:28:23.312Z</time>
      </trkpt>
      <trkpt lat="69.14786" lon="18.58796">
        <ele>15.286566</ele>
        <time>2020-08-27T16:28:23.719Z</time>
      </trkpt>
      <trkpt lat="69.14779" lon="18.588">
        <ele>15.24628</ele>
        <time>2020-08-27T16:28:24.790Z</time>
      </trkpt>
      <trkpt lat="69.14764" lon="18.58812">
        <ele>15.148783</ele>
        <time>2020-08-27T16:28:27.438Z</time>
      </trkpt>
      <trkpt lat="69.14746" lon="18.58827">
        <ele>15.032142</ele>
        <time>2020-08-27T16:28:30.577Z</time>
      </trkpt>
      <trkpt lat="69.14675" lon="18.58914">
        <ele>14.562814</ele>
        <time>2020-08-27T16:28:42.999Z</time>
      </trkpt>
      <trkpt lat="69.14612" lon="18.59004">
        <ele>14.171172</ele>
        <time>2020-08-27T16:28:54.192Z</time>
      </trkpt>
      <trkpt lat="69.14588" lon="18.5904">
        <ele>14.08166</ele>
        <time>2020-08-27T16:28:58.737Z</time>
      </trkpt>
      <trkpt lat="69.14585" lon="18.59044">
        <ele>14.071297</ele>
        <time>2020-08-27T16:28:59.236Z</time>
      </trkpt>
      <trkpt lat="69.14577" lon="18.59054">
        <ele>14.041968</ele>
        <time>2020-08-27T16:29:00.757Z</time>
      </trkpt>
      <trkpt lat="69.14562" lon="18.59072">
        <ele>13.990425</ele>
        <time>2020-08-27T16:29:03.334Z</time>
      </trkpt>
      <trkpt lat="69.14526" lon="18.59107">
        <ele>13.867246</ele>
        <time>2020-08-27T16:29:09.663Z</time>
      </trkpt>
      <trkpt lat="69.1451" lon="18.59139">
        <ele>13.804169</ele>
        <time>2020-08-27T16:29:13.009Z</time>
      </trkpt>
      <trkpt lat="69.14474" lon="18.59327">
        <ele>13.724301</ele>
        <time>2020-08-27T16:29:26.658Z</time>
      </trkpt>
      <trkpt lat="69.14474" lon="18.59328">
        <ele>13.726707</ele>
        <time>2020-08-27T16:29:26.744Z</time>
      </trkpt>
      <trkpt lat="69.14469" lon="18.59345">
        <ele>13.760678</ele>
        <time>2020-08-27T16:29:28.234Z</time>
      </trkpt>
      <trkpt lat="69.14461" lon="18.59368">
        <ele>13.80725</ele>
        <time>2020-08-27T16:29:30.219Z</time>
      </trkpt>
      <trkpt lat="69.14454" lon="18.59388">
        <ele>13.849892</ele>
        <time>2020-08-27T16:29:32.088Z</time>
      </trkpt>
      <trkpt lat="69.14443" lon="18.59423">
        <ele>13.922898</ele>
        <time>2020-08-27T16:29:35.493Z</time>
      </trkpt>
      <trkpt lat="69.14434" lon="18.59449">
        <ele>13.978896</ele>
        <time>2020-08-27T16:29:37.924Z</time>
      </trkpt>
      <trkpt lat="69.14427" lon="18.59466">
        <ele>14.01675</ele>
        <time>2020-08-27T16:29:39.692Z</time>
      </trkpt>
      <trkpt lat="69.14416" lon="18.59493">
        <ele>14.079074</ele>
        <time>2020-08-27T16:29:42.584Z</time>
      </trkpt>
      <trkpt lat="69.1439" lon="18.59571">
        <ele>14.244209</ele>
        <time>2020-08-27T16:29:50.183Z</time>
      </trkpt>
      <trkpt lat="69.1438" lon="18.59607">
        <ele>14.314719</ele>
        <time>2020-08-27T16:29:53.598Z</time>
      </trkpt>
      <trkpt lat="69.14375" lon="18.59628">
        <ele>14.352981</ele>
        <time>2020-08-27T16:29:55.590Z</time>
      </trkpt>
      <trkpt lat="69.14347" lon="18.59744">
        <ele>14.170981</ele>
        <time>2020-08-27T16:30:05.561Z</time>
      </trkpt>
      <trkpt lat="69.14293" lon="18.59868">
        <ele>13.752867</ele>
        <time>2020-08-27T16:30:17.265Z</time>
      </trkpt>
      <trkpt lat="69.14286" lon="18.59889">
        <ele>13.692089</ele>
        <time>2020-08-27T16:30:18.904Z</time>
      </trkpt>
      <trkpt lat="69.14284" lon="18.59895">
        <ele>13.677169</ele>
        <time>2020-08-27T16:30:19.281Z</time>
      </trkpt>
      <trkpt lat="69.14281" lon="18.59907">
        <ele>13.642553</ele>
        <time>2020-08-27T16:30:20.179Z</time>
      </trkpt>
      <trkpt lat="69.14267" lon="18.59936">
        <ele>13.539223</ele>
        <time>2020-08-27T16:30:22.665Z</time>
      </trkpt>
      <trkpt lat="69.14258" lon="18.59961">
        <ele>13.46449</ele>
        <time>2020-08-27T16:30:24.543Z</time>
      </trkpt>
      <trkpt lat="69.14256" lon="18.59966">
        <ele>13.448124</ele>
        <time>2020-08-27T16:30:24.960Z</time>
      </trkpt>
      <trkpt lat="69.14209" lon="18.59905">
        <ele>12.659463</ele>
        <time>2020-08-27T16:30:32.226Z</time>
      </trkpt>
      <trkpt lat="69.14144" lon="18.59825">
        <ele>11.159484</ele>
        <time>2020-08-27T16:30:42.006Z</time>
      </trkpt>
      <trkpt lat="69.14131" lon="18.59808">
        <ele>10.847772</ele>
        <time>2020-08-27T16:30:43.996Z</time>
      </trkpt>
      <trkpt lat="69.14119" lon="18.59793">
        <ele>10.566269</ele>
        <time>2020-08-27T16:30:45.808Z</time>
      </trkpt>
      <trkpt lat="69.1411" lon="18.59782">
        <ele>10.359313</ele>
        <time>2020-08-27T16:30:47.101Z</time>
      </trkpt>
      <trkpt lat="69.14079" lon="18.59744">
        <ele>9.635636</ele>
        <time>2020-08-27T16:30:51.749Z</time>
      </trkpt>
      <trkpt lat="69.14064" lon="18.59725">
        <ele>9.392485</ele>
        <time>2020-08-27T16:30:54.016Z</time>
      </trkpt>
      <trkpt lat="69.13939" lon="18.5957">
        <ele>7.93072</ele>
        <time>2020-08-27T16:31:15.192Z</time>
      </trkpt>
      <trkpt lat="69.13928" lon="18.59556">
        <ele>7.803167</ele>
        <time>2020-08-27T16:31:17.145Z</time>
      </trkpt>
      <trkpt lat="69.139" lon="18.59521">
        <ele>7.550958</ele>
        <time>2020-08-27T16:31:22.368Z</time>
      </trkpt>
      <trkpt lat="69.13903" lon="18.59498">
        <ele>7.529983</ele>
        <time>2020-08-27T16:31:24.874Z</time>
      </trkpt>
      <trkpt lat="69.13908" lon="18.59456">
        <ele>7.491444</ele>
        <time>2020-08-27T16:31:29.530Z</time>
      </trkpt>
      <trkpt lat="69.13901" lon="18.5945">
        <ele>7.47273</ele>
        <time>2020-08-27T16:31:30.799Z</time>
      </trkpt>
      <trkpt lat="69.1387" lon="18.59413">
        <ele>7.391293</ele>
        <time>2020-08-27T16:31:36.615Z</time>
      </trkpt>
      <trkpt lat="69.13856" lon="18.59398">
        <ele>7.353935</ele>
        <time>2020-08-27T16:31:39.184Z</time>
      </trkpt>
      <trkpt lat="69.13828" lon="18.59372">
        <ele>7.28259</ele>
        <time>2020-08-27T16:31:44.251Z</time>
      </trkpt>
      <trkpt lat="69.13757" lon="18.59299">
        <ele>7.128421</ele>
        <time>2020-08-27T16:31:57.449Z</time>
      </trkpt>
      <trkpt lat="69.13749" lon="18.59296">
        <ele>7.123789</ele>
        <time>2020-08-27T16:31:58.846Z</time>
      </trkpt>
      <trkpt lat="69.13746" lon="18.59323">
        <ele>7.118024</ele>
        <time>2020-08-27T16:32:00.701Z</time>
      </trkpt>
      <trkpt lat="69.13745" lon="18.59327">
        <ele>7.117113</ele>
        <time>2020-08-27T16:32:01.016Z</time>
      </trkpt>
      <trkpt lat="69.13727" lon="18.593">
        <ele>7.104883</ele>
        <time>2020-08-27T16:32:04.622Z</time>
      </trkpt>
      <trkpt lat="69.13643" lon="18.59151">
        <ele>7.046172</ele>
        <time>2020-08-27T16:32:22.454Z</time>
      </trkpt>
      <trkpt lat="69.13641" lon="18.59147">
        <ele>7.04483</ele>
        <time>2020-08-27T16:32:22.813Z</time>
      </trkpt>
      <trkpt lat="69.13643" lon="18.59151">
        <ele>7.043489</ele>
        <time>2020-08-27T16:32:23.249Z</time>
      </trkpt>
      <trkpt lat="69.13727" lon="18.593">
        <ele>6.861218</ele>
        <time>2020-08-27T16:32:40.358Z</time>
      </trkpt>
      <trkpt lat="69.13745" lon="18.59327">
        <ele>6.816805</ele>
        <time>2020-08-27T16:32:43.905Z</time>
      </trkpt>
      <trkpt lat="69.13746" lon="18.59323">
        <ele>6.813498</ele>
        <time>2020-08-27T16:32:44.153Z</time>
      </trkpt>
      <trkpt lat="69.13749" lon="18.59296">
        <ele>6.792563</ele>
        <time>2020-08-27T16:32:45.862Z</time>
      </trkpt>
      <trkpt lat="69.13752" lon="18.59205">
        <ele>6.722219</ele>
        <time>2020-08-27T16:32:51.596Z</time>
      </trkpt>
      <trkpt lat="69.13765" lon="18.58954">
        <ele>7.536704</ele>
        <time>2020-08-27T16:33:08.425Z</time>
      </trkpt>
      <trkpt lat="69.13765" lon="18.58884">
        <ele>7.947425</ele>
        <time>2020-08-27T16:33:13.394Z</time>
      </trkpt>
      <trkpt lat="69.13759" lon="18.58796">
        <ele>8.465235</ele>
        <time>2020-08-27T16:33:19.960Z</time>
      </trkpt>
      <trkpt lat="69.13436" lon="18.56852">
        <ele>40.320119</ele>
        <time>2020-08-27T16:37:16.572Z</time>
      </trkpt>
      <trkpt lat="69.13426" lon="18.56796">
        <ele>41.74815</ele>
        <time>2020-08-27T16:37:31.414Z</time>
      </trkpt>
      <trkpt lat="69.13417" lon="18.56757">
        <ele>44.269356</ele>
        <time>2020-08-27T16:37:43.509Z</time>
      </trkpt>
      <trkpt lat="69.13404" lon="18.5672">
        <ele>47.237726</ele>
        <time>2020-08-27T16:37:56.599Z</time>
      </trkpt>
      <trkpt lat="69.13391" lon="18.56702">
        <ele>49.536967</ele>
        <time>2020-08-27T16:38:07.659Z</time>
      </trkpt>
      <trkpt lat="69.13393" lon="18.56685">
        <ele>50.561303</ele>
        <time>2020-08-27T16:38:12.184Z</time>
      </trkpt>
      <trkpt lat="69.13397" lon="18.56652">
        <ele>52.545016</ele>
        <time>2020-08-27T16:38:22.373Z</time>
      </trkpt>
      <trkpt lat="69.13419" lon="18.56541">
        <ele>59.740858</ele>
        <time>2020-08-27T16:38:57.938Z</time>
      </trkpt>
      <trkpt lat="69.13447" lon="18.56459">
        <ele>66.2116</ele>
        <time>2020-08-27T16:39:30.299Z</time>
      </trkpt>
      <trkpt lat="69.13505" lon="18.56351">
        <ele>72.946464</ele>
        <time>2020-08-27T16:40:12.356Z</time>
      </trkpt>
      <trkpt lat="69.13526" lon="18.56314">
        <ele>74.275215</ele>
        <time>2020-08-27T16:40:21.711Z</time>
      </trkpt>
      <trkpt lat="69.1357" lon="18.5624">
        <ele>77.118709</ele>
        <time>2020-08-27T16:40:37.974Z</time>
      </trkpt>
      <trkpt lat="69.13614" lon="18.56195">
        <ele>79.705237</ele>
        <time>2020-08-27T16:40:49.510Z</time>
      </trkpt>
      <trkpt lat="69.13791" lon="18.56144">
        <ele>74.347952</ele>
        <time>2020-08-27T16:41:11.963Z</time>
      </trkpt>
      <trkpt lat="69.13849" lon="18.56115">
        <ele>71.14945</ele>
        <time>2020-08-27T16:41:18.961Z</time>
      </trkpt>
      <trkpt lat="69.14266" lon="18.55833">
        <ele>44.996059</ele>
        <time>2020-08-27T16:42:09.323Z</time>
      </trkpt>
      <trkpt lat="69.14353" lon="18.55785">
        <ele>39.390375</ele>
        <time>2020-08-27T16:42:19.540Z</time>
      </trkpt>
      <trkpt lat="69.14544" lon="18.55735">
        <ele>27.398219</ele>
        <time>2020-08-27T16:42:41.825Z</time>
      </trkpt>
      <trkpt lat="69.14603" lon="18.5568">
        <ele>24.586492</ele>
        <time>2020-08-27T16:42:49.214Z</time>
      </trkpt>
      <trkpt lat="69.1481" lon="18.55435">
        <ele>16.863708</ele>
        <time>2020-08-27T16:43:18.753Z</time>
      </trkpt>
      <trkpt lat="69.14875" lon="18.55359">
        <ele>15.418993</ele>
        <time>2020-08-27T16:43:28.910Z</time>
      </trkpt>
      <trkpt lat="69.14952" lon="18.55267">
        <ele>14.512268</ele>
        <time>2020-08-27T16:43:41.478Z</time>
      </trkpt>
      <trkpt lat="69.14964" lon="18.55253">
        <ele>14.376574</ele>
        <time>2020-08-27T16:43:43.414Z</time>
      </trkpt>
      <trkpt lat="69.15189" lon="18.54986">
        <ele>13.460903</ele>
        <time>2020-08-27T16:44:25.404Z</time>
      </trkpt>
      <trkpt lat="69.15303" lon="18.54852">
        <ele>13.860559</ele>
        <time>2020-08-27T16:44:48.851Z</time>
      </trkpt>
      <trkpt lat="69.15335" lon="18.54814">
        <ele>13.9731</ele>
        <time>2020-08-27T16:44:55.681Z</time>
      </trkpt>
      <trkpt lat="69.15403" lon="18.5476">
        <ele>14.391482</ele>
        <time>2020-08-27T16:45:09.794Z</time>
      </trkpt>
      <trkpt lat="69.15456" lon="18.54756">
        <ele>14.727288</ele>
        <time>2020-08-27T16:45:20.317Z</time>
      </trkpt>
      <trkpt lat="69.15504" lon="18.54762">
        <ele>15.030856</ele>
        <time>2020-08-27T16:45:29.870Z</time>
      </trkpt>
      <trkpt lat="69.15543" lon="18.54768">
        <ele>15.320308</ele>
        <time>2020-08-27T16:45:37.609Z</time>
      </trkpt>
      <trkpt lat="69.15589" lon="18.54778">
        <ele>15.711643</ele>
        <time>2020-08-27T16:45:46.924Z</time>
      </trkpt>
      <trkpt lat="69.15629" lon="18.54784">
        <ele>16.043651</ele>
        <time>2020-08-27T16:45:54.993Z</time>
      </trkpt>
      <trkpt lat="69.1573" lon="18.54784">
        <ele>16.985877</ele>
        <time>2020-08-27T16:46:16.335Z</time>
      </trkpt>
      <trkpt lat="69.15758" lon="18.54766">
        <ele>17.315211</ele>
        <time>2020-08-27T16:46:22.549Z</time>
      </trkpt>
      <trkpt lat="69.15805" lon="18.54705">
        <ele>17.913214</ele>
        <time>2020-08-27T16:46:33.891Z</time>
      </trkpt>
      <trkpt lat="69.15854" lon="18.54593">
        <ele>18.640974</ele>
        <time>2020-08-27T16:46:47.737Z</time>
      </trkpt>
      <trkpt lat="69.16018" lon="18.54146">
        <ele>20.748895</ele>
        <time>2020-08-27T16:47:35.623Z</time>
      </trkpt>
      <trkpt lat="69.16033" lon="18.54106">
        <ele>20.84648</ele>
        <time>2020-08-27T16:47:39.674Z</time>
      </trkpt>
      <trkpt lat="69.16063" lon="18.54024">
        <ele>21.043556</ele>
        <time>2020-08-27T16:47:47.743Z</time>
      </trkpt>
      <trkpt lat="69.16077" lon="18.53985">
        <ele>21.138507</ele>
        <time>2020-08-27T16:47:51.572Z</time>
      </trkpt>
      <trkpt lat="69.1608" lon="18.53976">
        <ele>21.157835</ele>
        <time>2020-08-27T16:47:52.354Z</time>
      </trkpt>
      <trkpt lat="69.16264" lon="18.53474">
        <ele>21.796726</ele>
        <time>2020-08-27T16:48:39.646Z</time>
      </trkpt>
      <trkpt lat="69.1638" lon="18.5317">
        <ele>22.079797</ele>
        <time>2020-08-27T16:49:09.006Z</time>
      </trkpt>
      <trkpt lat="69.16415" lon="18.53111">
        <ele>22.007496</ele>
        <time>2020-08-27T16:49:16.392Z</time>
      </trkpt>
      <trkpt lat="69.16475" lon="18.53042">
        <ele>21.892492</ele>
        <time>2020-08-27T16:49:27.837Z</time>
      </trkpt>
      <trkpt lat="69.16721" lon="18.52806">
        <ele>20.914163</ele>
        <time>2020-08-27T16:50:10.795Z</time>
      </trkpt>
      <trkpt lat="69.16773" lon="18.52755">
        <ele>20.807336</ele>
        <time>2020-08-27T16:50:19.945Z</time>
      </trkpt>
      <trkpt lat="69.17668" lon="18.51886">
        <ele>18.985126</ele>
        <time>2020-08-27T16:53:04.214Z</time>
      </trkpt>
      <trkpt lat="69.17731" lon="18.51824">
        <ele>18.863399</ele>
        <time>2020-08-27T16:53:15.735Z</time>
      </trkpt>
      <trkpt lat="69.17762" lon="18.51795">
        <ele>18.721373</ele>
        <time>2020-08-27T16:53:21.225Z</time>
      </trkpt>
      <trkpt lat="69.17823" lon="18.51736">
        <ele>18.423457</ele>
        <time>2020-08-27T16:53:32.115Z</time>
      </trkpt>
      <trkpt lat="69.17901" lon="18.51646">
        <ele>18.039141</ele>
        <time>2020-08-27T16:53:45.773Z</time>
      </trkpt>
      <trkpt lat="69.17979" lon="18.51504">
        <ele>17.145976</ele>
        <time>2020-08-27T16:54:00.497Z</time>
      </trkpt>
      <trkpt lat="69.18379" lon="18.50571">
        <ele>11.380053</ele>
        <time>2020-08-27T16:55:19.791Z</time>
      </trkpt>
      <trkpt lat="69.18462" lon="18.50378">
        <ele>10.12702</ele>
        <time>2020-08-27T16:55:36.140Z</time>
      </trkpt>
      <trkpt lat="69.18501" lon="18.50285">
        <ele>9.682508</ele>
        <time>2020-08-27T16:55:44.012Z</time>
      </trkpt>
      <trkpt lat="69.18595" lon="18.50066">
        <ele>8.627522</ele>
        <time>2020-08-27T16:56:03.408Z</time>
      </trkpt>
      <trkpt lat="69.186" lon="18.50052">
        <ele>8.569057</ele>
        <time>2020-08-27T16:56:04.476Z</time>
      </trkpt>
      <trkpt lat="69.18628" lon="18.49987">
        <ele>8.369194</ele>
        <time>2020-08-27T16:56:10.424Z</time>
      </trkpt>
      <trkpt lat="69.18703" lon="18.49812">
        <ele>7.835937</ele>
        <time>2020-08-27T16:56:26.492Z</time>
      </trkpt>
      <trkpt lat="69.18711" lon="18.49793">
        <ele>7.778032</ele>
        <time>2020-08-27T16:56:28.138Z</time>
      </trkpt>
      <trkpt lat="69.18751" lon="18.49701">
        <ele>7.512981</ele>
        <time>2020-08-27T16:56:36.710Z</time>
      </trkpt>
      <trkpt lat="69.18744" lon="18.49674">
        <ele>7.461413</ele>
        <time>2020-08-27T16:56:39.341Z</time>
      </trkpt>
      <trkpt lat="69.18749" lon="18.49665">
        <ele>7.434464</ele>
        <time>2020-08-27T16:56:40.314Z</time>
      </trkpt>
      <trkpt lat="69.1878" lon="18.49605">
        <ele>7.268029</ele>
        <time>2020-08-27T16:56:46.763Z</time>
      </trkpt>
      <trkpt lat="69.18825" lon="18.49497">
        <ele>6.998556</ele>
        <time>2020-08-27T16:56:57.075Z</time>
      </trkpt>
      <trkpt lat="69.18865" lon="18.49404">
        <ele>6.766794</ele>
        <time>2020-08-27T16:57:05.992Z</time>
      </trkpt>
      <trkpt lat="69.18881" lon="18.49369">
        <ele>6.675028</ele>
        <time>2020-08-27T16:57:09.470Z</time>
      </trkpt>
      <trkpt lat="69.18891" lon="18.49347">
        <ele>6.615782</ele>
        <time>2020-08-27T16:57:11.767Z</time>
      </trkpt>
      <trkpt lat="69.18902" lon="18.49326">
        <ele>6.552603</ele>
        <time>2020-08-27T16:57:14.112Z</time>
      </trkpt>
      <trkpt lat="69.19061" lon="18.49055">
        <ele>5.679942</ele>
        <time>2020-08-27T16:57:46.144Z</time>
      </trkpt>
      <trkpt lat="69.19069" lon="18.4904">
        <ele>5.629283</ele>
        <time>2020-08-27T16:57:47.897Z</time>
      </trkpt>
      <trkpt lat="69.19077" lon="18.49028">
        <ele>5.587992</ele>
        <time>2020-08-27T16:57:49.285Z</time>
      </trkpt>
      <trkpt lat="69.1913" lon="18.48954">
        <ele>5.293044</ele>
        <time>2020-08-27T16:57:59.576Z</time>
      </trkpt>
      <trkpt lat="69.19323" lon="18.4864">
        <ele>4.252756</ele>
        <time>2020-08-27T16:58:38.194Z</time>
      </trkpt>
      <trkpt lat="69.19325" lon="18.48638">
        <ele>4.240236</ele>
        <time>2020-08-27T16:58:38.629Z</time>
      </trkpt>
      <trkpt lat="69.1933" lon="18.48632">
        <ele>4.219803</ele>
        <time>2020-08-27T16:58:39.611Z</time>
      </trkpt>
      <trkpt lat="69.1946" lon="18.48416">
        <ele>3.773272</ele>
        <time>2020-08-27T16:59:06.279Z</time>
      </trkpt>
      <trkpt lat="69.19479" lon="18.48383">
        <ele>3.706768</ele>
        <time>2020-08-27T16:59:10.322Z</time>
      </trkpt>
      <trkpt lat="69.19484" lon="18.48375">
        <ele>3.691629</ele>
        <time>2020-08-27T16:59:11.302Z</time>
      </trkpt>
      <trkpt lat="69.19572" lon="18.48229">
        <ele>3.470985</ele>
        <time>2020-08-27T16:59:29.695Z</time>
      </trkpt>
      <trkpt lat="69.19582" lon="18.48215">
        <ele>3.447791</ele>
        <time>2020-08-27T16:59:31.617Z</time>
      </trkpt>
      <trkpt lat="69.19585" lon="18.48208">
        <ele>3.438736</ele>
        <time>2020-08-27T16:59:32.327Z</time>
      </trkpt>
      <trkpt lat="69.19743" lon="18.47948">
        <ele>3.152062</ele>
        <time>2020-08-27T17:00:05.275Z</time>
      </trkpt>
      <trkpt lat="69.19937" lon="18.47632">
        <ele>3.012544</ele>
        <time>2020-08-27T17:00:46.686Z</time>
      </trkpt>
      <trkpt lat="69.20082" lon="18.47394">
        <ele>3.001012</ele>
        <time>2020-08-27T17:01:17.928Z</time>
      </trkpt>
      <trkpt lat="69.20182" lon="18.47227">
        <ele>3.090594</ele>
        <time>2020-08-27T17:01:39.551Z</time>
      </trkpt>
      <trkpt lat="69.20186" lon="18.47203">
        <ele>3.100418</ele>
        <time>2020-08-27T17:01:41.427Z</time>
      </trkpt>
      <trkpt lat="69.20185" lon="18.47141">
        <ele>3.12257</ele>
        <time>2020-08-27T17:01:45.637Z</time>
      </trkpt>
      <trkpt lat="69.20196" lon="18.47103">
        <ele>3.139882</ele>
        <time>2020-08-27T17:01:48.966Z</time>
      </trkpt>
      <trkpt lat="69.20214" lon="18.47094">
        <ele>3.157649</ele>
        <time>2020-08-27T17:01:52.363Z</time>
      </trkpt>
      <trkpt lat="69.20245" lon="18.47127">
        <ele>3.216177</ele>
        <time>2020-08-27T17:01:58.764Z</time>
      </trkpt>
      <trkpt lat="69.20272" lon="18.47086">
        <ele>3.319019</ele>
        <time>2020-08-27T17:02:04.691Z</time>
      </trkpt>
      <trkpt lat="69.20279" lon="18.47074">
        <ele>3.34883</ele>
        <time>2020-08-27T17:02:06.401Z</time>
      </trkpt>
      <trkpt lat="69.20306" lon="18.47027">
        <ele>3.453942</ele>
        <time>2020-08-27T17:02:12.504Z</time>
      </trkpt>
      <trkpt lat="69.20427" lon="18.46784">
        <ele>3.896763</ele>
        <time>2020-08-27T17:02:42.149Z</time>
      </trkpt>
      <trkpt lat="69.20443" lon="18.4672">
        <ele>3.95833</ele>
        <time>2020-08-27T17:02:47.517Z</time>
      </trkpt>
      <trkpt lat="69.20446" lon="18.46715">
        <ele>3.965501</ele>
        <time>2020-08-27T17:02:48.210Z</time>
      </trkpt>
      <trkpt lat="69.20474" lon="18.46672">
        <ele>4.037394</ele>
        <time>2020-08-27T17:02:54.412Z</time>
      </trkpt>
      <trkpt lat="69.20479" lon="18.46667">
        <ele>4.047547</ele>
        <time>2020-08-27T17:02:55.357Z</time>
      </trkpt>
      <trkpt lat="69.20521" lon="18.46643">
        <ele>4.144235</ele>
        <time>2020-08-27T17:03:03.658Z</time>
      </trkpt>
      <trkpt lat="69.20541" lon="18.46659">
        <ele>4.179984</ele>
        <time>2020-08-27T17:03:07.431Z</time>
      </trkpt>
      <trkpt lat="69.20614" lon="18.46669">
        <ele>4.062988</ele>
        <time>2020-08-27T17:03:21.080Z</time>
      </trkpt>
      <trkpt lat="69.20741" lon="18.46735">
        <ele>3.861048</ele>
        <time>2020-08-27T17:03:44.015Z</time>
      </trkpt>
      <trkpt lat="69.20757" lon="18.46743">
        <ele>3.837241</ele>
        <time>2020-08-27T17:03:46.829Z</time>
      </trkpt>
      <trkpt lat="69.20797" lon="18.46759">
        <ele>3.77763</ele>
        <time>2020-08-27T17:03:54.019Z</time>
      </trkpt>
      <trkpt lat="69.20926" lon="18.46816">
        <ele>3.615787</ele>
        <time>2020-08-27T17:04:17.994Z</time>
      </trkpt>
      <trkpt lat="69.20936" lon="18.46818">
        <ele>3.610959</ele>
        <time>2020-08-27T17:04:19.805Z</time>
      </trkpt>
      <trkpt lat="69.2096" lon="18.46822">
        <ele>3.599031</ele>
        <time>2020-08-27T17:04:24.289Z</time>
      </trkpt>
      <trkpt lat="69.20975" lon="18.46825">
        <ele>3.591609</ele>
        <time>2020-08-27T17:04:27.068Z</time>
      </trkpt>
      <trkpt lat="69.21005" lon="18.46837">
        <ele>3.576141</ele>
        <time>2020-08-27T17:04:32.854Z</time>
      </trkpt>
      <trkpt lat="69.21012" lon="18.4684">
        <ele>3.572825</ele>
        <time>2020-08-27T17:04:34.103Z</time>
      </trkpt>
      <trkpt lat="69.21018" lon="18.46844">
        <ele>3.569922</ele>
        <time>2020-08-27T17:04:35.172Z</time>
      </trkpt>
      <trkpt lat="69.21023" lon="18.4685">
        <ele>3.567113</ele>
        <time>2020-08-27T17:04:36.248Z</time>
      </trkpt>
      <trkpt lat="69.2103" lon="18.46861">
        <ele>3.562875</ele>
        <time>2020-08-27T17:04:37.797Z</time>
      </trkpt>
      <trkpt lat="69.21276" lon="18.46972">
        <ele>3.443746</ele>
        <time>2020-08-27T17:05:23.087Z</time>
      </trkpt>
      <trkpt lat="69.21286" lon="18.46972">
        <ele>3.479096</ele>
        <time>2020-08-27T17:05:24.980Z</time>
      </trkpt>
      <trkpt lat="69.21291" lon="18.46965">
        <ele>3.497047</ele>
        <time>2020-08-27T17:05:26.232Z</time>
      </trkpt>
      <trkpt lat="69.21299" lon="18.46957">
        <ele>3.52503</ele>
        <time>2020-08-27T17:05:28.202Z</time>
      </trkpt>
      <trkpt lat="69.2132" lon="18.46967">
        <ele>3.597528</ele>
        <time>2020-08-27T17:05:33.478Z</time>
      </trkpt>
      <trkpt lat="69.2134" lon="18.46969">
        <ele>3.664554</ele>
        <time>2020-08-27T17:05:38.263Z</time>
      </trkpt>
      <trkpt lat="69.21351" lon="18.46963">
        <ele>3.701916</ele>
        <time>2020-08-27T17:05:41.132Z</time>
      </trkpt>
      <trkpt lat="69.21365" lon="18.4694">
        <ele>3.758397</ele>
        <time>2020-08-27T17:05:45.164Z</time>
      </trkpt>
      <trkpt lat="69.21374" lon="18.46921">
        <ele>3.795036</ele>
        <time>2020-08-27T17:05:47.845Z</time>
      </trkpt>
      <trkpt lat="69.21375" lon="18.46915">
        <ele>3.8045</ele>
        <time>2020-08-27T17:05:48.585Z</time>
      </trkpt>
      <trkpt lat="69.21468" lon="18.46565">
        <ele>4.945586</ele>
        <time>2020-08-27T17:06:21.322Z</time>
      </trkpt>
      <trkpt lat="69.21485" lon="18.46505">
        <ele>5.193894</ele>
        <time>2020-08-27T17:06:27.359Z</time>
      </trkpt>
      <trkpt lat="69.21486" lon="18.46509">
        <ele>5.214816</ele>
        <time>2020-08-27T17:06:27.815Z</time>
      </trkpt>
      <trkpt lat="69.21492" lon="18.46521">
        <ele>5.276395</ele>
        <time>2020-08-27T17:06:29.234Z</time>
      </trkpt>
      <trkpt lat="69.21598" lon="18.46114">
        <ele>7.266638</ele>
        <time>2020-08-27T17:07:07.653Z</time>
      </trkpt>
      <trkpt lat="69.21661" lon="18.4587">
        <ele>8.694025</ele>
        <time>2020-08-27T17:07:31.490Z</time>
      </trkpt>
      <trkpt lat="69.21715" lon="18.45661">
        <ele>9.980577</ele>
        <time>2020-08-27T17:07:52.072Z</time>
      </trkpt>
      <trkpt lat="69.21828" lon="18.45223">
        <ele>12.710612</ele>
        <time>2020-08-27T17:08:35.109Z</time>
      </trkpt>
      <trkpt lat="69.21907" lon="18.44792">
        <ele>15.244622</ele>
        <time>2020-08-27T17:09:14.082Z</time>
      </trkpt>
      <trkpt lat="69.21918" lon="18.44747">
        <ele>15.507681</ele>
        <time>2020-08-27T17:09:18.488Z</time>
      </trkpt>
      <trkpt lat="69.21921" lon="18.44733">
        <ele>15.583525</ele>
        <time>2020-08-27T17:09:19.965Z</time>
      </trkpt>
      <trkpt lat="69.21956" lon="18.44628">
        <ele>16.211611</ele>
        <time>2020-08-27T17:09:31.234Z</time>
      </trkpt>
      <trkpt lat="69.2198" lon="18.44564">
        <ele>16.625509</ele>
        <time>2020-08-27T17:09:38.622Z</time>
      </trkpt>
      <trkpt lat="69.22034" lon="18.44423">
        <ele>17.542455</ele>
        <time>2020-08-27T17:09:54.562Z</time>
      </trkpt>
      <trkpt lat="69.22038" lon="18.44412">
        <ele>17.613714</ele>
        <time>2020-08-27T17:09:55.794Z</time>
      </trkpt>
      <trkpt lat="69.22169" lon="18.44066">
        <ele>18.620822</ele>
        <time>2020-08-27T17:10:30.771Z</time>
      </trkpt>
      <trkpt lat="69.22196" lon="18.43968">
        <ele>18.753049</ele>
        <time>2020-08-27T17:10:38.979Z</time>
      </trkpt>
      <trkpt lat="69.22209" lon="18.43892">
        <ele>18.836959</ele>
        <time>2020-08-27T17:10:44.473Z</time>
      </trkpt>
      <trkpt lat="69.22219" lon="18.43792">
        <ele>18.940246</ele>
        <time>2020-08-27T17:10:51.235Z</time>
      </trkpt>
      <trkpt lat="69.22222" lon="18.437">
        <ele>19.032274</ele>
        <time>2020-08-27T17:10:57.299Z</time>
      </trkpt>
      <trkpt lat="69.22219" lon="18.43592">
        <ele>19.140858</ele>
        <time>2020-08-27T17:11:04.560Z</time>
      </trkpt>
      <trkpt lat="69.22192" lon="18.43355">
        <ele>19.964941</ele>
        <time>2020-08-27T17:11:21.615Z</time>
      </trkpt>
      <trkpt lat="69.219" lon="18.41399">
        <ele>27.32657</ele>
        <time>2020-08-27T17:14:00.494Z</time>
      </trkpt>
      <trkpt lat="69.21808" lon="18.404">
        <ele>32.816122</ele>
        <time>2020-08-27T17:15:23.967Z</time>
      </trkpt>
      <trkpt lat="69.21794" lon="18.40192">
        <ele>33.886006</ele>
        <time>2020-08-27T17:15:41.299Z</time>
      </trkpt>
      <trkpt lat="69.21794" lon="18.40167">
        <ele>33.978821</ele>
        <time>2020-08-27T17:15:43.485Z</time>
      </trkpt>
      <trkpt lat="69.21793" lon="18.40152">
        <ele>34.036755</ele>
        <time>2020-08-27T17:15:44.748Z</time>
      </trkpt>
      <trkpt lat="69.21795" lon="18.40024">
        <ele>34.529735</ele>
        <time>2020-08-27T17:15:54.814Z</time>
      </trkpt>
      <trkpt lat="69.21805" lon="18.39902">
        <ele>35.005812</ele>
        <time>2020-08-27T17:16:04.311Z</time>
      </trkpt>
      <trkpt lat="69.21822" lon="18.3978">
        <ele>35.509946</ele>
        <time>2020-08-27T17:16:13.998Z</time>
      </trkpt>
      <trkpt lat="69.2185" lon="18.39659">
        <ele>35.366482</ele>
        <time>2020-08-27T17:16:22.879Z</time>
      </trkpt>
      <trkpt lat="69.21858" lon="18.39632">
        <ele>35.308186</ele>
        <time>2020-08-27T17:16:25.256Z</time>
      </trkpt>
      <trkpt lat="69.21864" lon="18.39614">
        <ele>35.268982</ele>
        <time>2020-08-27T17:16:26.620Z</time>
      </trkpt>
      <trkpt lat="69.21916" lon="18.39489">
        <ele>34.95469</ele>
        <time>2020-08-27T17:16:37.861Z</time>
      </trkpt>
      <trkpt lat="69.21925" lon="18.39475">
        <ele>34.910243</ele>
        <time>2020-08-27T17:16:39.344Z</time>
      </trkpt>
      <trkpt lat="69.21931" lon="18.39465">
        <ele>34.877366</ele>
        <time>2020-08-27T17:16:40.421Z</time>
      </trkpt>
      <trkpt lat="69.22206" lon="18.39099">
        <ele>31.710274</ele>
        <time>2020-08-27T17:17:26.897Z</time>
      </trkpt>
      <trkpt lat="69.22272" lon="18.39013">
        <ele>30.964107</ele>
        <time>2020-08-27T17:17:38.062Z</time>
      </trkpt>
      <trkpt lat="69.22401" lon="18.38842">
        <ele>30.196404</ele>
        <time>2020-08-27T17:18:00.790Z</time>
      </trkpt>
      <trkpt lat="69.22519" lon="18.38675">
        <ele>31.026381</ele>
        <time>2020-08-27T17:18:25.440Z</time>
      </trkpt>
      <trkpt lat="69.22533" lon="18.38647">
        <ele>31.243143</ele>
        <time>2020-08-27T17:18:29.215Z</time>
      </trkpt>
      <trkpt lat="69.2254" lon="18.38632">
        <ele>31.355101</ele>
        <time>2020-08-27T17:18:31.601Z</time>
      </trkpt>
      <trkpt lat="69.22585" lon="18.38504">
        <ele>32.158054</ele>
        <time>2020-08-27T17:18:46.926Z</time>
      </trkpt>
      <trkpt lat="69.22613" lon="18.38379">
        <ele>33.968601</ele>
        <time>2020-08-27T17:19:01.498Z</time>
      </trkpt>
      <trkpt lat="69.22619" lon="18.38344">
        <ele>34.47236</ele>
        <time>2020-08-27T17:19:05.328Z</time>
      </trkpt>
      <trkpt lat="69.22627" lon="18.38297">
        <ele>35.154444</ele>
        <time>2020-08-27T17:19:11.075Z</time>
      </trkpt>
      <trkpt lat="69.22642" lon="18.38128">
        <ele>37.43993</ele>
        <time>2020-08-27T17:19:29.946Z</time>
      </trkpt>
      <trkpt lat="69.22667" lon="18.3765">
        <ele>44.436482</ele>
        <time>2020-08-27T17:20:25.402Z</time>
      </trkpt>
      <trkpt lat="69.22682" lon="18.37496">
        <ele>46.614713</ele>
        <time>2020-08-27T17:20:42.336Z</time>
      </trkpt>
      <trkpt lat="69.22715" lon="18.37326">
        <ele>47.931784</ele>
        <time>2020-08-27T17:21:01.063Z</time>
      </trkpt>
      <trkpt lat="69.22799" lon="18.37015">
        <ele>49.868446</ele>
        <time>2020-08-27T17:21:30.363Z</time>
      </trkpt>
      <trkpt lat="69.22817" lon="18.36929">
        <ele>49.828952</ele>
        <time>2020-08-27T17:21:36.136Z</time>
      </trkpt>
      <trkpt lat="69.22839" lon="18.36808">
        <ele>49.775092</ele>
        <time>2020-08-27T17:21:44.078Z</time>
      </trkpt>
      <trkpt lat="69.22841" lon="18.36796">
        <ele>49.769913</ele>
        <time>2020-08-27T17:21:44.782Z</time>
      </trkpt>
      <trkpt lat="69.22859" lon="18.36695">
        <ele>49.725208</ele>
        <time>2020-08-27T17:21:51.528Z</time>
      </trkpt>
      <trkpt lat="69.22862" lon="18.36678">
        <ele>49.717865</ele>
        <time>2020-08-27T17:21:52.451Z</time>
      </trkpt>
      <trkpt lat="69.22874" lon="18.36588">
        <ele>49.865284</ele>
        <time>2020-08-27T17:21:58.447Z</time>
      </trkpt>
      <trkpt lat="69.22876" lon="18.36488">
        <ele>50.08469</ele>
        <time>2020-08-27T17:22:04.873Z</time>
      </trkpt>
      <trkpt lat="69.22876" lon="18.36469">
        <ele>50.126291</ele>
        <time>2020-08-27T17:22:05.883Z</time>
      </trkpt>
      <trkpt lat="69.22874" lon="18.36439">
        <ele>50.192338</ele>
        <time>2020-08-27T17:22:08.617Z</time>
      </trkpt>
      <trkpt lat="69.22861" lon="18.36342">
        <ele>50.41837</ele>
        <time>2020-08-27T17:22:16.315Z</time>
      </trkpt>
      <trkpt lat="69.22799" lon="18.36102">
        <ele>50.783564</ele>
        <time>2020-08-27T17:22:39.097Z</time>
      </trkpt>
      <trkpt lat="69.2279" lon="18.36053">
        <ele>50.769428</ele>
        <time>2020-08-27T17:22:43.505Z</time>
      </trkpt>
      <trkpt lat="69.22788" lon="18.36043">
        <ele>50.766536</ele>
        <time>2020-08-27T17:22:44.075Z</time>
      </trkpt>
      <trkpt lat="69.22777" lon="18.35931">
        <ele>50.736915</ele>
        <time>2020-08-27T17:22:51.530Z</time>
      </trkpt>
      <trkpt lat="69.22773" lon="18.35784">
        <ele>50.699362</ele>
        <time>2020-08-27T17:22:59.909Z</time>
      </trkpt>
      <trkpt lat="69.22773" lon="18.35717">
        <ele>50.647083</ele>
        <time>2020-08-27T17:23:03.430Z</time>
      </trkpt>
      <trkpt lat="69.22774" lon="18.35627">
        <ele>50.080107</ele>
        <time>2020-08-27T17:23:08.101Z</time>
      </trkpt>
      <trkpt lat="69.22772" lon="18.35519">
        <ele>49.402071</ele>
        <time>2020-08-27T17:23:13.422Z</time>
      </trkpt>
      <trkpt lat="69.2277" lon="18.35485">
        <ele>49.185927</ele>
        <time>2020-08-27T17:23:15.085Z</time>
      </trkpt>
      <trkpt lat="69.22769" lon="18.35469">
        <ele>49.080468</ele>
        <time>2020-08-27T17:23:15.905Z</time>
      </trkpt>
      <trkpt lat="69.2276" lon="18.35385">
        <ele>48.531272</ele>
        <time>2020-08-27T17:23:20.195Z</time>
      </trkpt>
      <trkpt lat="69.22754" lon="18.35338">
        <ele>48.219615</ele>
        <time>2020-08-27T17:23:22.661Z</time>
      </trkpt>
      <trkpt lat="69.22754" lon="18.35333">
        <ele>48.181626</ele>
        <time>2020-08-27T17:23:22.929Z</time>
      </trkpt>
      <trkpt lat="69.2267" lon="18.34636">
        <ele>45.022942</ele>
        <time>2020-08-27T17:24:02.448Z</time>
      </trkpt>
      <trkpt lat="69.22637" lon="18.34368">
        <ele>44.450563</ele>
        <time>2020-08-27T17:24:19.133Z</time>
      </trkpt>
      <trkpt lat="69.22606" lon="18.34112">
        <ele>44.28697</ele>
        <time>2020-08-27T17:24:36.180Z</time>
      </trkpt>
      <trkpt lat="69.22601" lon="18.34077">
        <ele>44.298118</ele>
        <time>2020-08-27T17:24:38.579Z</time>
      </trkpt>
      <trkpt lat="69.22593" lon="18.34028">
        <ele>44.313969</ele>
        <time>2020-08-27T17:24:42.124Z</time>
      </trkpt>
      <trkpt lat="69.22588" lon="18.34001">
        <ele>44.322578</ele>
        <time>2020-08-27T17:24:43.999Z</time>
      </trkpt>
      <trkpt lat="69.22581" lon="18.33963">
        <ele>44.335435</ele>
        <time>2020-08-27T17:24:46.830Z</time>
      </trkpt>
      <trkpt lat="69.22576" lon="18.33941">
        <ele>44.343076</ele>
        <time>2020-08-27T17:24:48.586Z</time>
      </trkpt>
      <trkpt lat="69.22566" lon="18.33895">
        <ele>44.358996</ele>
        <time>2020-08-27T17:24:52.079Z</time>
      </trkpt>
      <trkpt lat="69.22517" lon="18.33689">
        <ele>44.396736</ele>
        <time>2020-08-27T17:25:08.340Z</time>
      </trkpt>
      <trkpt lat="69.22495" lon="18.33593">
        <ele>44.404062</ele>
        <time>2020-08-27T17:25:15.861Z</time>
      </trkpt>
      <trkpt lat="69.22483" lon="18.33537">
        <ele>44.408221</ele>
        <time>2020-08-27T17:25:20.074Z</time>
      </trkpt>
      <trkpt lat="69.22472" lon="18.33483">
        <ele>44.412149</ele>
        <time>2020-08-27T17:25:23.986Z</time>
      </trkpt>
      <trkpt lat="69.22439" lon="18.33264">
        <ele>44.08266</ele>
        <time>2020-08-27T17:25:38.259Z</time>
      </trkpt>
      <trkpt lat="69.22435" lon="18.3322">
        <ele>43.957587</ele>
        <time>2020-08-27T17:25:40.915Z</time>
      </trkpt>
      <trkpt lat="69.2243" lon="18.33161">
        <ele>43.793965</ele>
        <time>2020-08-27T17:25:44.322Z</time>
      </trkpt>
      <trkpt lat="69.22427" lon="18.33109">
        <ele>43.65178</ele>
        <time>2020-08-27T17:25:47.304Z</time>
      </trkpt>
      <trkpt lat="69.22423" lon="18.33041">
        <ele>43.463298</ele>
        <time>2020-08-27T17:25:51.107Z</time>
      </trkpt>
      <trkpt lat="69.22418" lon="18.32903">
        <ele>43.088893</ele>
        <time>2020-08-27T17:25:58.677Z</time>
      </trkpt>
      <trkpt lat="69.22415" lon="18.32799">
        <ele>42.613107</ele>
        <time>2020-08-27T17:26:04.243Z</time>
      </trkpt>
      <trkpt lat="69.22407" lon="18.32502">
        <ele>41.163961</ele>
        <time>2020-08-27T17:26:20.018Z</time>
      </trkpt>
      <trkpt lat="69.22403" lon="18.32339">
        <ele>40.299229</ele>
        <time>2020-08-27T17:26:28.643Z</time>
      </trkpt>
      <trkpt lat="69.22396" lon="18.32096">
        <ele>38.743548</ele>
        <time>2020-08-27T17:26:41.281Z</time>
      </trkpt>
      <trkpt lat="69.22381" lon="18.31568">
        <ele>34.978134</ele>
        <time>2020-08-27T17:27:07.513Z</time>
      </trkpt>
      <trkpt lat="69.22373" lon="18.31266">
        <ele>32.896029</ele>
        <time>2020-08-27T17:27:22.504Z</time>
      </trkpt>
      <trkpt lat="69.22368" lon="18.31103">
        <ele>32.002954</ele>
        <time>2020-08-27T17:27:30.867Z</time>
      </trkpt>
      <trkpt lat="69.22366" lon="18.31001">
        <ele>31.445537</ele>
        <time>2020-08-27T17:27:36.260Z</time>
      </trkpt>
      <trkpt lat="69.22366" lon="18.30953">
        <ele>31.185805</ele>
        <time>2020-08-27T17:27:38.850Z</time>
      </trkpt>
      <trkpt lat="69.22363" lon="18.30952">
        <ele>31.131569</ele>
        <time>2020-08-27T17:27:39.356Z</time>
      </trkpt>
      <trkpt lat="69.22349" lon="18.30946">
        <ele>30.921506</ele>
        <time>2020-08-27T17:27:41.489Z</time>
      </trkpt>
      <trkpt lat="69.22295" lon="18.30896">
        <ele>30.47881</ele>
        <time>2020-08-27T17:27:50.527Z</time>
      </trkpt>
      <trkpt lat="69.2215" lon="18.30759">
        <ele>29.688552</ele>
        <time>2020-08-27T17:28:16.188Z</time>
      </trkpt>
      <trkpt lat="69.22104" lon="18.30703">
        <ele>29.448845</ele>
        <time>2020-08-27T17:28:24.829Z</time>
      </trkpt>
      <trkpt lat="69.22073" lon="18.3064">
        <ele>29.269324</ele>
        <time>2020-08-27T17:28:31.224Z</time>
      </trkpt>
      <trkpt lat="69.22056" lon="18.30596">
        <ele>29.160727</ele>
        <time>2020-08-27T17:28:35.052Z</time>
      </trkpt>
      <trkpt lat="69.22055" lon="18.30591">
        <ele>29.150465</ele>
        <time>2020-08-27T17:28:35.394Z</time>
      </trkpt>
      <trkpt lat="69.22039" lon="18.30543">
        <ele>29.039697</ele>
        <time>2020-08-27T17:28:39.264Z</time>
      </trkpt>
      <trkpt lat="69.22025" lon="18.30499">
        <ele>28.93992</ele>
        <time>2020-08-27T17:28:42.685Z</time>
      </trkpt>
      <trkpt lat="69.22012" lon="18.30459">
        <ele>28.788619</ele>
        <time>2020-08-27T17:28:45.783Z</time>
      </trkpt>
      <trkpt lat="69.21902" lon="18.301">
        <ele>27.173532</ele>
        <time>2020-08-27T17:29:11.846Z</time>
      </trkpt>
      <trkpt lat="69.21809" lon="18.29799">
        <ele>25.778468</ele>
        <time>2020-08-27T17:29:33.438Z</time>
      </trkpt>
      <trkpt lat="69.21768" lon="18.2967">
        <ele>25.366401</ele>
        <time>2020-08-27T17:29:43.063Z</time>
      </trkpt>
      <trkpt lat="69.21619" lon="18.29208">
        <ele>25.585205</ele>
        <time>2020-08-27T17:30:22.328Z</time>
      </trkpt>
      <trkpt lat="69.21562" lon="18.29023">
        <ele>26.295778</ele>
        <time>2020-08-27T17:30:40.898Z</time>
      </trkpt>
      <trkpt lat="69.21455" lon="18.28666">
        <ele>28.968723</ele>
        <time>2020-08-27T17:31:20.742Z</time>
      </trkpt>
      <trkpt lat="69.21422" lon="18.28557">
        <ele>29.734001</ele>
        <time>2020-08-27T17:31:32.535Z</time>
      </trkpt>
      <trkpt lat="69.2141" lon="18.28503">
        <ele>29.859272</ele>
        <time>2020-08-27T17:31:37.675Z</time>
      </trkpt>
      <trkpt lat="69.21383" lon="18.28342">
        <ele>30.20086</ele>
        <time>2020-08-27T17:31:50.676Z</time>
      </trkpt>
      <trkpt lat="69.21365" lon="18.28225">
        <ele>30.443906</ele>
        <time>2020-08-27T17:31:59.134Z</time>
      </trkpt>
      <trkpt lat="69.2136" lon="18.28189">
        <ele>30.519684</ele>
        <time>2020-08-27T17:32:01.571Z</time>
      </trkpt>
      <trkpt lat="69.21308" lon="18.27861">
        <ele>30.115746</ele>
        <time>2020-08-27T17:32:22.163Z</time>
      </trkpt>
      <trkpt lat="69.21298" lon="18.278">
        <ele>29.990593</ele>
        <time>2020-08-27T17:32:25.970Z</time>
      </trkpt>
      <trkpt lat="69.21282" lon="18.2772">
        <ele>29.819225</ele>
        <time>2020-08-27T17:32:31.236Z</time>
      </trkpt>
      <trkpt lat="69.21218" lon="18.27403">
        <ele>29.599743</ele>
        <time>2020-08-27T17:32:53.491Z</time>
      </trkpt>
      <trkpt lat="69.2117" lon="18.27114">
        <ele>29.59507</ele>
        <time>2020-08-27T17:33:14.314Z</time>
      </trkpt>
      <trkpt lat="69.21084" lon="18.26596">
        <ele>30.174585</ele>
        <time>2020-08-27T17:33:51.517Z</time>
      </trkpt>
      <trkpt lat="69.21014" lon="18.26165">
        <ele>31.481719</ele>
        <time>2020-08-27T17:34:25.716Z</time>
      </trkpt>
      <trkpt lat="69.21" lon="18.26096">
        <ele>31.833834</ele>
        <time>2020-08-27T17:34:31.882Z</time>
      </trkpt>
      <trkpt lat="69.2099" lon="18.26056">
        <ele>32.051652</ele>
        <time>2020-08-27T17:34:35.833Z</time>
      </trkpt>
      <trkpt lat="69.20988" lon="18.26048">
        <ele>32.094922</ele>
        <time>2020-08-27T17:34:36.598Z</time>
      </trkpt>
      <trkpt lat="69.20929" lon="18.25832">
        <ele>33.295564</ele>
        <time>2020-08-27T17:34:58.646Z</time>
      </trkpt>
      <trkpt lat="69.20873" lon="18.25637">
        <ele>34.332155</ele>
        <time>2020-08-27T17:35:18.466Z</time>
      </trkpt>
      <trkpt lat="69.20868" lon="18.2562">
        <ele>34.417784</ele>
        <time>2020-08-27T17:35:20.026Z</time>
      </trkpt>
      <trkpt lat="69.20817" lon="18.25428">
        <ele>35.265692</ele>
        <time>2020-08-27T17:35:37.724Z</time>
      </trkpt>
      <trkpt lat="69.20785" lon="18.25316">
        <ele>35.518649</ele>
        <time>2020-08-27T17:35:47.807Z</time>
      </trkpt>
      <trkpt lat="69.20757" lon="18.2522">
        <ele>35.736385</ele>
        <time>2020-08-27T17:35:56.649Z</time>
      </trkpt>
      <trkpt lat="69.20752" lon="18.25203">
        <ele>35.775752</ele>
        <time>2020-08-27T17:35:57.922Z</time>
      </trkpt>
      <trkpt lat="69.20748" lon="18.25189">
        <ele>35.809636</ele>
        <time>2020-08-27T17:35:59.258Z</time>
      </trkpt>
      <trkpt lat="69.20734" lon="18.25144">
        <ele>35.915125</ele>
        <time>2020-08-27T17:36:03.448Z</time>
      </trkpt>
      <trkpt lat="69.20727" lon="18.25124">
        <ele>35.965458</ele>
        <time>2020-08-27T17:36:05.098Z</time>
      </trkpt>
      <trkpt lat="69.20718" lon="18.25105">
        <ele>36.019836</ele>
        <time>2020-08-27T17:36:07.174Z</time>
      </trkpt>
      <trkpt lat="69.20699" lon="18.25074">
        <ele>35.951764</ele>
        <time>2020-08-27T17:36:10.957Z</time>
      </trkpt>
      <trkpt lat="69.20678" lon="18.25043">
        <ele>35.785413</ele>
        <time>2020-08-27T17:36:15.493Z</time>
      </trkpt>
      <trkpt lat="69.20669" lon="18.25032">
        <ele>35.721763</ele>
        <time>2020-08-27T17:36:16.962Z</time>
      </trkpt>
      <trkpt lat="69.2065" lon="18.25007">
        <ele>35.580854</ele>
        <time>2020-08-27T17:36:20.678Z</time>
      </trkpt>
      <trkpt lat="69.20641" lon="18.24994">
        <ele>35.508898</ele>
        <time>2020-08-27T17:36:22.594Z</time>
      </trkpt>
      <trkpt lat="69.20638" lon="18.24989">
        <ele>35.487151</ele>
        <time>2020-08-27T17:36:23.008Z</time>
      </trkpt>
      <trkpt lat="69.20624" lon="18.24955">
        <ele>35.363654</ele>
        <time>2020-08-27T17:36:26.163Z</time>
      </trkpt>
      <trkpt lat="69.20612" lon="18.24886">
        <ele>35.177306</ele>
        <time>2020-08-27T17:36:30.362Z</time>
      </trkpt>
      <trkpt lat="69.20594" lon="18.24669">
        <ele>34.398526</ele>
        <time>2020-08-27T17:36:42.155Z</time>
      </trkpt>
      <trkpt lat="69.20591" lon="18.24545">
        <ele>33.726899</ele>
        <time>2020-08-27T17:36:48.436Z</time>
      </trkpt>
      <trkpt lat="69.20592" lon="18.24505">
        <ele>33.509244</ele>
        <time>2020-08-27T17:36:50.433Z</time>
      </trkpt>
      <trkpt lat="69.20594" lon="18.24424">
        <ele>33.069967</ele>
        <time>2020-08-27T17:36:54.615Z</time>
      </trkpt>
      <trkpt lat="69.20592" lon="18.24253">
        <ele>32.140655</ele>
        <time>2020-08-27T17:37:03.566Z</time>
      </trkpt>
      <trkpt lat="69.2056" lon="18.23899">
        <ele>31.070082</ele>
        <time>2020-08-27T17:37:23.853Z</time>
      </trkpt>
      <trkpt lat="69.20531" lon="18.23816">
        <ele>30.735059</ele>
        <time>2020-08-27T17:37:31.023Z</time>
      </trkpt>
      <trkpt lat="69.2045" lon="18.237">
        <ele>30.279007</ele>
        <time>2020-08-27T17:37:46.187Z</time>
      </trkpt>
      <trkpt lat="69.20432" lon="18.23648">
        <ele>30.159699</ele>
        <time>2020-08-27T17:37:50.514Z</time>
      </trkpt>
      <trkpt lat="69.20418" lon="18.23582">
        <ele>30.036841</ele>
        <time>2020-08-27T17:37:54.945Z</time>
      </trkpt>
      <trkpt lat="69.2041" lon="18.23522">
        <ele>29.931368</ele>
        <time>2020-08-27T17:37:58.687Z</time>
      </trkpt>
      <trkpt lat="69.2037" lon="18.23229">
        <ele>29.450455</ele>
        <time>2020-08-27T17:38:16.860Z</time>
      </trkpt>
      <trkpt lat="69.20344" lon="18.23033">
        <ele>29.135704</ele>
        <time>2020-08-27T17:38:29.362Z</time>
      </trkpt>
      <trkpt lat="69.20335" lon="18.22826">
        <ele>28.942581</ele>
        <time>2020-08-27T17:38:42.438Z</time>
      </trkpt>
      <trkpt lat="69.20332" lon="18.22788">
        <ele>28.915419</ele>
        <time>2020-08-27T17:38:44.795Z</time>
      </trkpt>
      <trkpt lat="69.20323" lon="18.22677">
        <ele>28.833806</ele>
        <time>2020-08-27T17:38:51.853Z</time>
      </trkpt>
      <trkpt lat="69.2032" lon="18.22549">
        <ele>28.741987</ele>
        <time>2020-08-27T17:38:59.721Z</time>
      </trkpt>
      <trkpt lat="69.20328" lon="18.22446">
        <ele>28.655004</ele>
        <time>2020-08-27T17:39:05.985Z</time>
      </trkpt>
      <trkpt lat="69.20329" lon="18.22434">
        <ele>28.640791</ele>
        <time>2020-08-27T17:39:06.797Z</time>
      </trkpt>
      <trkpt lat="69.20331" lon="18.22424">
        <ele>28.629235</ele>
        <time>2020-08-27T17:39:07.295Z</time>
      </trkpt>
      <trkpt lat="69.20359" lon="18.22275">
        <ele>28.446029</ele>
        <time>2020-08-27T17:39:17.756Z</time>
      </trkpt>
      <trkpt lat="69.20397" lon="18.2213">
        <ele>28.250062</ele>
        <time>2020-08-27T17:39:28.533Z</time>
      </trkpt>
      <trkpt lat="69.20412" lon="18.22083">
        <ele>28.182662</ele>
        <time>2020-08-27T17:39:32.022Z</time>
      </trkpt>
      <trkpt lat="69.2042" lon="18.22056">
        <ele>28.14324</ele>
        <time>2020-08-27T17:39:34.509Z</time>
      </trkpt>
      <trkpt lat="69.20431" lon="18.22001">
        <ele>28.175308</ele>
        <time>2020-08-27T17:39:38.288Z</time>
      </trkpt>
      <trkpt lat="69.20454" lon="18.21832">
        <ele>28.277675</ele>
        <time>2020-08-27T17:39:49.925Z</time>
      </trkpt>
      <trkpt lat="69.20481" lon="18.21727">
        <ele>28.351792</ele>
        <time>2020-08-27T17:39:58.513Z</time>
      </trkpt>
      <trkpt lat="69.20554" lon="18.21555">
        <ele>28.861564</ele>
        <time>2020-08-27T17:40:16.886Z</time>
      </trkpt>
      <trkpt lat="69.20619" lon="18.21327">
        <ele>29.806148</ele>
        <time>2020-08-27T17:40:38.132Z</time>
      </trkpt>
      <trkpt lat="69.20735" lon="18.21028">
        <ele>33.339121</ele>
        <time>2020-08-27T17:41:15.693Z</time>
      </trkpt>
      <trkpt lat="69.20781" lon="18.20875">
        <ele>35.673273</ele>
        <time>2020-08-27T17:41:37.573Z</time>
      </trkpt>
      <trkpt lat="69.20798" lon="18.20778">
        <ele>37.636342</ele>
        <time>2020-08-27T17:41:50.059Z</time>
      </trkpt>
      <trkpt lat="69.20803" lon="18.20738">
        <ele>38.405154</ele>
        <time>2020-08-27T17:41:55.157Z</time>
      </trkpt>
      <trkpt lat="69.20809" lon="18.20689">
        <ele>39.335496</ele>
        <time>2020-08-27T17:42:01.565Z</time>
      </trkpt>
      <trkpt lat="69.20823" lon="18.20578">
        <ele>41.477954</ele>
        <time>2020-08-27T17:42:16.498Z</time>
      </trkpt>
      <trkpt lat="69.2085" lon="18.20433">
        <ele>44.361075</ele>
        <time>2020-08-27T17:42:38.202Z</time>
      </trkpt>
      <trkpt lat="69.20872" lon="18.20214">
        <ele>47.914934</ele>
        <time>2020-08-27T17:43:07.032Z</time>
      </trkpt>
      <trkpt lat="69.20901" lon="18.19986">
        <ele>51.701045</ele>
        <time>2020-08-27T17:43:33.052Z</time>
      </trkpt>
      <trkpt lat="69.20982" lon="18.18657">
        <ele>55.494521</ele>
        <time>2020-08-27T17:45:11.539Z</time>
      </trkpt>
      <trkpt lat="69.20926" lon="18.18032">
        <ele>52.712856</ele>
        <time>2020-08-27T17:45:45.183Z</time>
      </trkpt>
      <trkpt lat="69.20902" lon="18.17642">
        <ele>49.229465</ele>
        <time>2020-08-27T17:46:04.288Z</time>
      </trkpt>
      <trkpt lat="69.20893" lon="18.17569">
        <ele>48.521155</ele>
        <time>2020-08-27T17:46:07.970Z</time>
      </trkpt>
      <trkpt lat="69.20877" lon="18.17521">
        <ele>47.928537</ele>
        <time>2020-08-27T17:46:11.051Z</time>
      </trkpt>
      <trkpt lat="69.20831" lon="18.17435">
        <ele>46.469181</ele>
        <time>2020-08-27T17:46:18.388Z</time>
      </trkpt>
      <trkpt lat="69.20811" lon="18.17367">
        <ele>45.624485</ele>
        <time>2020-08-27T17:46:22.633Z</time>
      </trkpt>
      <trkpt lat="69.20782" lon="18.17176">
        <ele>43.671565</ele>
        <time>2020-08-27T17:46:32.510Z</time>
      </trkpt>
      <trkpt lat="69.20767" lon="18.17111">
        <ele>42.988167</ele>
        <time>2020-08-27T17:46:36.333Z</time>
      </trkpt>
      <trkpt lat="69.20748" lon="18.17068">
        <ele>42.576252</ele>
        <time>2020-08-27T17:46:39.678Z</time>
      </trkpt>
      <trkpt lat="69.2069" lon="18.17011">
        <ele>41.517255</ele>
        <time>2020-08-27T17:46:48.563Z</time>
      </trkpt>
      <trkpt lat="69.20644" lon="18.16944">
        <ele>40.616867</ele>
        <time>2020-08-27T17:46:56.315Z</time>
      </trkpt>
      <trkpt lat="69.20619" lon="18.1689">
        <ele>40.084325</ele>
        <time>2020-08-27T17:47:00.924Z</time>
      </trkpt>
      <trkpt lat="69.20605" lon="18.16806">
        <ele>39.619598</ele>
        <time>2020-08-27T17:47:05.948Z</time>
      </trkpt>
      <trkpt lat="69.20599" lon="18.1667">
        <ele>38.976006</ele>
        <time>2020-08-27T17:47:13.266Z</time>
      </trkpt>
      <trkpt lat="69.20586" lon="18.1654">
        <ele>38.338832</ele>
        <time>2020-08-27T17:47:20.502Z</time>
      </trkpt>
      <trkpt lat="69.20579" lon="18.16407">
        <ele>37.707122</ele>
        <time>2020-08-27T17:47:27.573Z</time>
      </trkpt>
      <trkpt lat="69.20592" lon="18.15978">
        <ele>35.864937</ele>
        <time>2020-08-27T17:47:50.277Z</time>
      </trkpt>
      <trkpt lat="69.20609" lon="18.1576">
        <ele>35.226894</ele>
        <time>2020-08-27T17:48:03.225Z</time>
      </trkpt>
      <trkpt lat="69.206" lon="18.15607">
        <ele>34.950236</ele>
        <time>2020-08-27T17:48:12.373Z</time>
      </trkpt>
      <trkpt lat="69.20597" lon="18.15563">
        <ele>34.871726</ele>
        <time>2020-08-27T17:48:15.196Z</time>
      </trkpt>
      <trkpt lat="69.20597" lon="18.15563">
        <ele>34.871726</ele>
        <time>2020-08-27T17:48:15.197Z</time>
      </trkpt>
      <trkpt lat="69.20595" lon="18.15527">
        <ele>34.805828</ele>
        <time>2020-08-27T17:48:17.369Z</time>
      </trkpt>
      <trkpt lat="69.20594" lon="18.15461">
        <ele>34.689462</ele>
        <time>2020-08-27T17:48:21.435Z</time>
      </trkpt>
      <trkpt lat="69.20603" lon="18.15393">
        <ele>34.560612</ele>
        <time>2020-08-27T17:48:25.744Z</time>
      </trkpt>
      <trkpt lat="69.20696" lon="18.14913">
        <ele>33.756594</ele>
        <time>2020-08-27T17:48:57.649Z</time>
      </trkpt>
      <trkpt lat="69.20698" lon="18.14899">
        <ele>33.765814</ele>
        <time>2020-08-27T17:48:58.347Z</time>
      </trkpt>
      <trkpt lat="69.207" lon="18.14862">
        <ele>33.789712</ele>
        <time>2020-08-27T17:49:00.845Z</time>
      </trkpt>
      <trkpt lat="69.20687" lon="18.14411">
        <ele>34.146023</ele>
        <time>2020-08-27T17:49:31.070Z</time>
      </trkpt>
      <trkpt lat="69.20638" lon="18.13908">
        <ele>35.54555</ele>
        <time>2020-08-27T17:50:09.240Z</time>
      </trkpt>
      <trkpt lat="69.20606" lon="18.13435">
        <ele>36.864913</ele>
        <time>2020-08-27T17:50:43.523Z</time>
      </trkpt>
      <trkpt lat="69.20576" lon="18.13126">
        <ele>38.622172</ele>
        <time>2020-08-27T17:51:08.005Z</time>
      </trkpt>
      <trkpt lat="69.20567" lon="18.12803">
        <ele>41.784542</ele>
        <time>2020-08-27T17:51:37.270Z</time>
      </trkpt>
      <trkpt lat="69.20532" lon="18.12261">
        <ele>51.355742</ele>
        <time>2020-08-27T17:52:42.176Z</time>
      </trkpt>
      <trkpt lat="69.20517" lon="18.1213">
        <ele>54.505175</ele>
        <time>2020-08-27T17:53:01.611Z</time>
      </trkpt>
      <trkpt lat="69.20508" lon="18.12076">
        <ele>55.877561</ele>
        <time>2020-08-27T17:53:10.827Z</time>
      </trkpt>
      <trkpt lat="69.20494" lon="18.11993">
        <ele>57.996411</ele>
        <time>2020-08-27T17:53:24.858Z</time>
      </trkpt>
      <trkpt lat="69.2044" lon="18.1165">
        <ele>68.689575</ele>
        <time>2020-08-27T17:54:25.654Z</time>
      </trkpt>
      <trkpt lat="69.20387" lon="18.11385">
        <ele>75.826444</ele>
        <time>2020-08-27T17:55:10.200Z</time>
      </trkpt>
      <trkpt lat="69.20222" lon="18.10324">
        <ele>95.126743</ele>
        <time>2020-08-27T17:57:28.027Z</time>
      </trkpt>
      <trkpt lat="69.20197" lon="18.10242">
        <ele>96.261204</ele>
        <time>2020-08-27T17:57:36.573Z</time>
      </trkpt>
      <trkpt lat="69.20115" lon="18.1005">
        <ele>95.343692</ele>
        <time>2020-08-27T17:57:53.537Z</time>
      </trkpt>
      <trkpt lat="69.2008" lon="18.09864">
        <ele>93.420819</ele>
        <time>2020-08-27T17:58:03.073Z</time>
      </trkpt>
      <trkpt lat="69.20013" lon="18.09643">
        <ele>89.479265</ele>
        <time>2020-08-27T17:58:15.806Z</time>
      </trkpt>
      <trkpt lat="69.19956" lon="18.09405">
        <ele>85.060173</ele>
        <time>2020-08-27T17:58:28.369Z</time>
      </trkpt>
      <trkpt lat="69.19863" lon="18.09106">
        <ele>80.793654</ele>
        <time>2020-08-27T17:58:46.926Z</time>
      </trkpt>
      <trkpt lat="69.19844" lon="18.08997">
        <ele>79.501158</ele>
        <time>2020-08-27T17:58:52.962Z</time>
      </trkpt>
      <trkpt lat="69.19821" lon="18.08751">
        <ele>77.480621</ele>
        <time>2020-08-27T17:59:05.632Z</time>
      </trkpt>
      <trkpt lat="69.19803" lon="18.08643">
        <ele>76.536402</ele>
        <time>2020-08-27T17:59:11.721Z</time>
      </trkpt>
      <trkpt lat="69.198" lon="18.08616">
        <ele>76.314603</ele>
        <time>2020-08-27T17:59:13.051Z</time>
      </trkpt>
      <trkpt lat="69.19799" lon="18.08609">
        <ele>76.255053</ele>
        <time>2020-08-27T17:59:13.388Z</time>
      </trkpt>
      <trkpt lat="69.19794" lon="18.08538">
        <ele>75.680328</ele>
        <time>2020-08-27T17:59:17.230Z</time>
      </trkpt>
      <trkpt lat="69.19799" lon="18.08341">
        <ele>72.520717</ele>
        <time>2020-08-27T17:59:26.461Z</time>
      </trkpt>
      <trkpt lat="69.19797" lon="18.0826">
        <ele>71.117017</ele>
        <time>2020-08-27T17:59:30.373Z</time>
      </trkpt>
      <trkpt lat="69.19777" lon="18.08056">
        <ele>67.446841</ele>
        <time>2020-08-27T17:59:39.008Z</time>
      </trkpt>
      <trkpt lat="69.19776" lon="18.08044">
        <ele>67.220961</ele>
        <time>2020-08-27T17:59:39.547Z</time>
      </trkpt>
      <trkpt lat="69.19768" lon="18.07968">
        <ele>65.204772</ele>
        <time>2020-08-27T17:59:42.945Z</time>
      </trkpt>
      <trkpt lat="69.19767" lon="18.07964">
        <ele>65.074359</ele>
        <time>2020-08-27T17:59:43.116Z</time>
      </trkpt>
      <trkpt lat="69.19763" lon="18.07883">
        <ele>62.487272</ele>
        <time>2020-08-27T17:59:46.641Z</time>
      </trkpt>
      <trkpt lat="69.19769" lon="18.07676">
        <ele>55.981933</ele>
        <time>2020-08-27T17:59:54.781Z</time>
      </trkpt>
      <trkpt lat="69.19768" lon="18.0766">
        <ele>55.469173</ele>
        <time>2020-08-27T17:59:55.377Z</time>
      </trkpt>
      <trkpt lat="69.19766" lon="18.07604">
        <ele>53.712491</ele>
        <time>2020-08-27T17:59:57.655Z</time>
      </trkpt>
      <trkpt lat="69.19763" lon="18.07551">
        <ele>52.020739</ele>
        <time>2020-08-27T17:59:59.693Z</time>
      </trkpt>
      <trkpt lat="69.19761" lon="18.07534">
        <ele>51.470016</ele>
        <time>2020-08-27T18:00:00.380Z</time>
      </trkpt>
      <trkpt lat="69.1976" lon="18.07513">
        <ele>50.778763</ele>
        <time>2020-08-27T18:00:01.286Z</time>
      </trkpt>
      <trkpt lat="69.19753" lon="18.07439">
        <ele>48.649438</ele>
        <time>2020-08-27T18:00:04.286Z</time>
      </trkpt>
      <trkpt lat="69.19749" lon="18.07386">
        <ele>47.129372</ele>
        <time>2020-08-27T18:00:06.542Z</time>
      </trkpt>
      <trkpt lat="69.19696" lon="18.06743">
        <ele>29.288045</ele>
        <time>2020-08-27T18:00:33.256Z</time>
      </trkpt>
      <trkpt lat="69.19694" lon="18.06731">
        <ele>28.978301</ele>
        <time>2020-08-27T18:00:33.695Z</time>
      </trkpt>
      <trkpt lat="69.19694" lon="18.06725">
        <ele>28.819999</ele>
        <time>2020-08-27T18:00:33.945Z</time>
      </trkpt>
      <trkpt lat="69.19682" lon="18.06673">
        <ele>27.214434</ele>
        <time>2020-08-27T18:00:36.556Z</time>
      </trkpt>
      <trkpt lat="69.19682" lon="18.0666">
        <ele>26.886158</ele>
        <time>2020-08-27T18:00:37.082Z</time>
      </trkpt>
      <trkpt lat="69.19676" lon="18.06653">
        <ele>26.428013</ele>
        <time>2020-08-27T18:00:37.785Z</time>
      </trkpt>
      <trkpt lat="69.19651" lon="18.06589">
        <ele>23.951914</ele>
        <time>2020-08-27T18:00:41.951Z</time>
      </trkpt>
      <trkpt lat="69.19641" lon="18.06546">
        <ele>23.108158</ele>
        <time>2020-08-27T18:00:44.225Z</time>
      </trkpt>
      <trkpt lat="69.19631" lon="18.06503">
        <ele>22.501054</ele>
        <time>2020-08-27T18:00:46.430Z</time>
      </trkpt>
      <trkpt lat="69.19611" lon="18.06394">
        <ele>21.02108</ele>
        <time>2020-08-27T18:00:51.952Z</time>
      </trkpt>
      <trkpt lat="69.19603" lon="18.06355">
        <ele>20.478372</ele>
        <time>2020-08-27T18:00:54.240Z</time>
      </trkpt>
      <trkpt lat="69.19599" lon="18.06328">
        <ele>20.125993</ele>
        <time>2020-08-27T18:00:55.658Z</time>
      </trkpt>
      <trkpt lat="69.19578" lon="18.06234">
        <ele>18.793906</ele>
        <time>2020-08-27T18:01:01.482Z</time>
      </trkpt>
      <trkpt lat="69.19572" lon="18.0621">
        <ele>18.445629</ele>
        <time>2020-08-27T18:01:03.032Z</time>
      </trkpt>
      <trkpt lat="69.19565" lon="18.06185">
        <ele>18.060177</ele>
        <time>2020-08-27T18:01:04.771Z</time>
      </trkpt>
      <trkpt lat="69.19521" lon="18.0608">
        <ele>17.645852</ele>
        <time>2020-08-27T18:01:14.902Z</time>
      </trkpt>
      <trkpt lat="69.19435" lon="18.05969">
        <ele>18.124161</ele>
        <time>2020-08-27T18:01:36.175Z</time>
      </trkpt>
      <trkpt lat="69.19394" lon="18.0594">
        <ele>18.335637</ele>
        <time>2020-08-27T18:01:45.210Z</time>
      </trkpt>
      <trkpt lat="69.1932" lon="18.05926">
        <ele>18.604277</ele>
        <time>2020-08-27T18:01:59.609Z</time>
      </trkpt>
      <trkpt lat="69.19297" lon="18.05918">
        <ele>18.686909</ele>
        <time>2020-08-27T18:02:03.948Z</time>
      </trkpt>
      <trkpt lat="69.19278" lon="18.05907">
        <ele>18.756779</ele>
        <time>2020-08-27T18:02:07.750Z</time>
      </trkpt>
      <trkpt lat="69.19245" lon="18.0586">
        <ele>18.88756</ele>
        <time>2020-08-27T18:02:15.027Z</time>
      </trkpt>
      <trkpt lat="69.19237" lon="18.05838">
        <ele>18.928011</ele>
        <time>2020-08-27T18:02:17.158Z</time>
      </trkpt>
      <trkpt lat="69.19222" lon="18.05799">
        <ele>19.01937</ele>
        <time>2020-08-27T18:02:21.348Z</time>
      </trkpt>
      <trkpt lat="69.19202" lon="18.05763">
        <ele>19.277439</ele>
        <time>2020-08-27T18:02:25.980Z</time>
      </trkpt>
      <trkpt lat="69.19165" lon="18.05742">
        <ele>19.688232</ele>
        <time>2020-08-27T18:02:33.562Z</time>
      </trkpt>
      <trkpt lat="69.19122" lon="18.05728">
        <ele>20.162987</ele>
        <time>2020-08-27T18:02:42.904Z</time>
      </trkpt>
      <trkpt lat="69.191" lon="18.05722">
        <ele>20.397908</ele>
        <time>2020-08-27T18:02:47.683Z</time>
      </trkpt>
      <trkpt lat="69.19065" lon="18.05721">
        <ele>20.78466</ele>
        <time>2020-08-27T18:02:56.530Z</time>
      </trkpt>
      <trkpt lat="69.19038" lon="18.05728">
        <ele>21.126384</ele>
        <time>2020-08-27T18:03:03.497Z</time>
      </trkpt>
      <trkpt lat="69.19009" lon="18.05737">
        <ele>21.548163</ele>
        <time>2020-08-27T18:03:10.699Z</time>
      </trkpt>
      <trkpt lat="69.18908" lon="18.05747">
        <ele>23.055319</ele>
        <time>2020-08-27T18:03:34.793Z</time>
      </trkpt>
      <trkpt lat="69.18848" lon="18.05799">
        <ele>23.543001</ele>
        <time>2020-08-27T18:03:48.316Z</time>
      </trkpt>
      <trkpt lat="69.18811" lon="18.05805">
        <ele>23.424201</ele>
        <time>2020-08-27T18:03:55.488Z</time>
      </trkpt>
      <trkpt lat="69.18793" lon="18.05779">
        <ele>23.356288</ele>
        <time>2020-08-27T18:03:59.243Z</time>
      </trkpt>
      <trkpt lat="69.18754" lon="18.05658">
        <ele>23.170273</ele>
        <time>2020-08-27T18:04:08.585Z</time>
      </trkpt>
      <trkpt lat="69.18711" lon="18.05625">
        <ele>22.999146</ele>
        <time>2020-08-27T18:04:15.817Z</time>
      </trkpt>
      <trkpt lat="69.18676" lon="18.05546">
        <ele>22.631848</ele>
        <time>2020-08-27T18:04:23.074Z</time>
      </trkpt>
      <trkpt lat="69.18673" lon="18.05544">
        <ele>22.608281</ele>
        <time>2020-08-27T18:04:23.411Z</time>
      </trkpt>
      <trkpt lat="69.18671" lon="18.05543">
        <ele>22.584714</ele>
        <time>2020-08-27T18:04:23.860Z</time>
      </trkpt>
      <trkpt lat="69.18662" lon="18.05546">
        <ele>22.516093</ele>
        <time>2020-08-27T18:04:25.628Z</time>
      </trkpt>
      <trkpt lat="69.18654" lon="18.05548">
        <ele>22.450509</ele>
        <time>2020-08-27T18:04:27.237Z</time>
      </trkpt>
      <trkpt lat="69.1865" lon="18.05546">
        <ele>22.416565</ele>
        <time>2020-08-27T18:04:27.811Z</time>
      </trkpt>
      <trkpt lat="69.18642" lon="18.05522">
        <ele>22.317452</ele>
        <time>2020-08-27T18:04:29.646Z</time>
      </trkpt>
      <trkpt lat="69.18641" lon="18.05511">
        <ele>22.284575</ele>
        <time>2020-08-27T18:04:30.208Z</time>
      </trkpt>
      <trkpt lat="69.18637" lon="18.05508">
        <ele>22.249062</ele>
        <time>2020-08-27T18:04:31.276Z</time>
      </trkpt>
      <trkpt lat="69.18615" lon="18.05478">
        <ele>22.046671</ele>
        <time>2020-08-27T18:04:35.582Z</time>
      </trkpt>
      <trkpt lat="69.18575" lon="18.05452">
        <ele>21.707294</ele>
        <time>2020-08-27T18:04:42.062Z</time>
      </trkpt>
      <trkpt lat="69.18487" lon="18.05442">
        <ele>20.322438</ele>
        <time>2020-08-27T18:04:55.962Z</time>
      </trkpt>
      <trkpt lat="69.18483" lon="18.05443">
        <ele>20.254765</ele>
        <time>2020-08-27T18:04:56.665Z</time>
      </trkpt>
      <trkpt lat="69.18463" lon="18.05453">
        <ele>19.898028</ele>
        <time>2020-08-27T18:04:59.944Z</time>
      </trkpt>
      <trkpt lat="69.18436" lon="18.05471">
        <ele>19.414078</ele>
        <time>2020-08-27T18:05:03.903Z</time>
      </trkpt>
      <trkpt lat="69.18432" lon="18.05476">
        <ele>19.327937</ele>
        <time>2020-08-27T18:05:04.741Z</time>
      </trkpt>
      <trkpt lat="69.18423" lon="18.05479">
        <ele>19.176667</ele>
        <time>2020-08-27T18:05:06.047Z</time>
      </trkpt>
      <trkpt lat="69.18418" lon="18.05479">
        <ele>19.079515</ele>
        <time>2020-08-27T18:05:06.718Z</time>
      </trkpt>
      <trkpt lat="69.18388" lon="18.0548">
        <ele>18.562128</ele>
        <time>2020-08-27T18:05:10.706Z</time>
      </trkpt>
      <trkpt lat="69.18384" lon="18.0548">
        <ele>18.493236</ele>
        <time>2020-08-27T18:05:11.167Z</time>
      </trkpt>
      <trkpt lat="69.18371" lon="18.05478">
        <ele>18.104367</ele>
        <time>2020-08-27T18:05:12.783Z</time>
      </trkpt>
      <trkpt lat="69.18269" lon="18.05542">
        <ele>13.652298</ele>
        <time>2020-08-27T18:05:25.748Z</time>
      </trkpt>
      <trkpt lat="69.18259" lon="18.05555">
        <ele>13.169281</ele>
        <time>2020-08-27T18:05:27.105Z</time>
      </trkpt>
      <trkpt lat="69.18253" lon="18.05529">
        <ele>12.720505</ele>
        <time>2020-08-27T18:05:28.551Z</time>
      </trkpt>
      <trkpt lat="69.1824" lon="18.05542">
        <ele>12.102038</ele>
        <time>2020-08-27T18:05:30.245Z</time>
      </trkpt>
      <trkpt lat="69.18155" lon="18.05653">
        <ele>8.891251</ele>
        <time>2020-08-27T18:05:42.018Z</time>
      </trkpt>
      <trkpt lat="69.18131" lon="18.05685">
        <ele>8.099501</ele>
        <time>2020-08-27T18:05:45.337Z</time>
      </trkpt>
      <trkpt lat="69.18103" lon="18.05715">
        <ele>7.198377</ele>
        <time>2020-08-27T18:05:49.296Z</time>
      </trkpt>
      <trkpt lat="69.18" lon="18.05784">
        <ele>4.978053</ele>
        <time>2020-08-27T18:06:04.777Z</time>
      </trkpt>
      <trkpt lat="69.17966" lon="18.05829">
        <ele>4.686187</ele>
        <time>2020-08-27T18:06:10.711Z</time>
      </trkpt>
      <trkpt lat="69.17932" lon="18.05898">
        <ele>4.362112</ele>
        <time>2020-08-27T18:06:17.575Z</time>
      </trkpt>
      <trkpt lat="69.17907" lon="18.05979">
        <ele>4.068441</ele>
        <time>2020-08-27T18:06:24.047Z</time>
      </trkpt>
      <trkpt lat="69.17891" lon="18.06063">
        <ele>4.037343</ele>
        <time>2020-08-27T18:06:29.877Z</time>
      </trkpt>
      <trkpt lat="69.1788" lon="18.06162">
        <ele>4.300493</ele>
        <time>2020-08-27T18:06:36.672Z</time>
      </trkpt>
      <trkpt lat="69.17877" lon="18.06258">
        <ele>4.545966</ele>
        <time>2020-08-27T18:06:43.514Z</time>
      </trkpt>
      <trkpt lat="69.17877" lon="18.06308">
        <ele>4.671397</ele>
        <time>2020-08-27T18:06:47.009Z</time>
      </trkpt>
      <trkpt lat="69.17879" lon="18.06365">
        <ele>4.818459</ele>
        <time>2020-08-27T18:06:51.337Z</time>
      </trkpt>
      <trkpt lat="69.17882" lon="18.06514">
        <ele>5.196707</ele>
        <time>2020-08-27T18:07:03.227Z</time>
      </trkpt>
      <trkpt lat="69.17882" lon="18.0657">
        <ele>5.438397</ele>
        <time>2020-08-27T18:07:07.947Z</time>
      </trkpt>
      <trkpt lat="69.17881" lon="18.0662">
        <ele>5.664977</ele>
        <time>2020-08-27T18:07:11.835Z</time>
      </trkpt>
      <trkpt lat="69.1787" lon="18.06799">
        <ele>6.490201</ele>
        <time>2020-08-27T18:07:26.552Z</time>
      </trkpt>
      <trkpt lat="69.17865" lon="18.06859">
        <ele>6.772323</ele>
        <time>2020-08-27T18:07:31.300Z</time>
      </trkpt>
      <trkpt lat="69.17867" lon="18.06862">
        <ele>6.809765</ele>
        <time>2020-08-27T18:07:32.255Z</time>
      </trkpt>
      <trkpt lat="69.17872" lon="18.06867">
        <ele>6.87312</ele>
        <time>2020-08-27T18:07:33.538Z</time>
      </trkpt>
      <trkpt lat="69.17875" lon="18.06869">
        <ele>6.914439</ele>
        <time>2020-08-27T18:07:34.547Z</time>
      </trkpt>
      <trkpt lat="69.17874" lon="18.06883">
        <ele>6.981345</ele>
        <time>2020-08-27T18:07:35.533Z</time>
      </trkpt>
      <trkpt lat="69.17867" lon="18.06932">
        <ele>7.223691</ele>
        <time>2020-08-27T18:07:39.597Z</time>
      </trkpt>
      <trkpt lat="69.17861" lon="18.06956">
        <ele>7.350209</ele>
        <time>2020-08-27T18:07:41.892Z</time>
      </trkpt>
      <trkpt lat="69.17858" lon="18.06969">
        <ele>7.426572</ele>
        <time>2020-08-27T18:07:43.047Z</time>
      </trkpt>
      <trkpt lat="69.1781" lon="18.07258">
        <ele>7.99521</ele>
        <time>2020-08-27T18:08:05.213Z</time>
      </trkpt>
      <trkpt lat="69.17789" lon="18.07417">
        <ele>8.268794</ele>
        <time>2020-08-27T18:08:15.754Z</time>
      </trkpt>
      <trkpt lat="69.17741" lon="18.08005">
        <ele>9.407853</ele>
        <time>2020-08-27T18:08:58.754Z</time>
      </trkpt>
      <trkpt lat="69.17739" lon="18.08013">
        <ele>9.40276</ele>
        <time>2020-08-27T18:08:59.283Z</time>
      </trkpt>
      <trkpt lat="69.1774" lon="18.08024">
        <ele>9.395808</ele>
        <time>2020-08-27T18:09:00.561Z</time>
      </trkpt>
      <trkpt lat="69.17726" lon="18.08142">
        <ele>9.323457</ele>
        <time>2020-08-27T18:09:11.515Z</time>
      </trkpt>
      <trkpt lat="69.17723" lon="18.08161">
        <ele>9.31099</ele>
        <time>2020-08-27T18:09:13.582Z</time>
      </trkpt>
      <trkpt lat="69.1772" lon="18.08175">
        <ele>9.301427</ele>
        <time>2020-08-27T18:09:14.981Z</time>
      </trkpt>
      <trkpt lat="69.17695" lon="18.08247">
        <ele>9.2424</ele>
        <time>2020-08-27T18:09:22.895Z</time>
      </trkpt>
      <trkpt lat="69.17688" lon="18.08259">
        <ele>9.228567</ele>
        <time>2020-08-27T18:09:24.756Z</time>
      </trkpt>
      <trkpt lat="69.17683" lon="18.08266">
        <ele>9.220015</ele>
        <time>2020-08-27T18:09:25.845Z</time>
      </trkpt>
      <trkpt lat="69.17646" lon="18.08302">
        <ele>9.155159</ele>
        <time>2020-08-27T18:09:34.179Z</time>
      </trkpt>
      <trkpt lat="69.17615" lon="18.08311">
        <ele>8.738781</ele>
        <time>2020-08-27T18:09:40.620Z</time>
      </trkpt>
      <trkpt lat="69.17609" lon="18.08309">
        <ele>8.638299</ele>
        <time>2020-08-27T18:09:41.757Z</time>
      </trkpt>
      <trkpt lat="69.17596" lon="18.08304">
        <ele>8.442502</ele>
        <time>2020-08-27T18:09:44.451Z</time>
      </trkpt>
      <trkpt lat="69.17586" lon="18.083">
        <ele>8.27925</ele>
        <time>2020-08-27T18:09:46.671Z</time>
      </trkpt>
      <trkpt lat="69.17567" lon="18.08288">
        <ele>7.978061</ele>
        <time>2020-08-27T18:09:49.234Z</time>
      </trkpt>
      <trkpt lat="69.17548" lon="18.08281">
        <ele>7.685162</ele>
        <time>2020-08-27T18:09:52.024Z</time>
      </trkpt>
      <trkpt lat="69.1753" lon="18.0829">
        <ele>7.392385</ele>
        <time>2020-08-27T18:09:54.473Z</time>
      </trkpt>
      <trkpt lat="69.17475" lon="18.08358">
        <ele>6.456559</ele>
        <time>2020-08-27T18:10:03.051Z</time>
      </trkpt>
      <trkpt lat="69.17447" lon="18.08428">
        <ele>6.795534</ele>
        <time>2020-08-27T18:10:08.910Z</time>
      </trkpt>
      <trkpt lat="69.17428" lon="18.08542">
        <ele>7.471012</ele>
        <time>2020-08-27T18:10:17.575Z</time>
      </trkpt>
      <trkpt lat="69.17424" lon="18.08565">
        <ele>7.61235</ele>
        <time>2020-08-27T18:10:19.409Z</time>
      </trkpt>
      <trkpt lat="69.17419" lon="18.08589">
        <ele>7.762446</ele>
        <time>2020-08-27T18:10:22.295Z</time>
      </trkpt>
      <trkpt lat="69.17412" lon="18.08633">
        <ele>8.015681</ele>
        <time>2020-08-27T18:10:26.911Z</time>
      </trkpt>
      <trkpt lat="69.17405" lon="18.08711">
        <ele>8.445473</ele>
        <time>2020-08-27T18:10:34.670Z</time>
      </trkpt>
      <trkpt lat="69.17403" lon="18.08736">
        <ele>8.586361</ele>
        <time>2020-08-27T18:10:37.220Z</time>
      </trkpt>
      <trkpt lat="69.17393" lon="18.08843">
        <ele>9.344695</ele>
        <time>2020-08-27T18:10:48.196Z</time>
      </trkpt>
      <trkpt lat="69.17394" lon="18.08966">
        <ele>10.912351</ele>
        <time>2020-08-27T18:11:00.892Z</time>
      </trkpt>
      <trkpt lat="69.17392" lon="18.08982">
        <ele>11.127997</ele>
        <time>2020-08-27T18:11:03.336Z</time>
      </trkpt>
      <trkpt lat="69.1739" lon="18.09005">
        <ele>11.427051</ele>
        <time>2020-08-27T18:11:06.313Z</time>
      </trkpt>
      <trkpt lat="69.17381" lon="18.09069">
        <ele>12.30719</ele>
        <time>2020-08-27T18:11:13.608Z</time>
      </trkpt>
      <trkpt lat="69.17372" lon="18.09255">
        <ele>14.697876</ele>
        <time>2020-08-27T18:11:34.073Z</time>
      </trkpt>
      <trkpt lat="69.17374" lon="18.09424">
        <ele>16.104082</ele>
        <time>2020-08-27T18:11:52.043Z</time>
      </trkpt>
      <trkpt lat="69.17388" lon="18.0955">
        <ele>16.859267</ele>
        <time>2020-08-27T18:12:02.777Z</time>
      </trkpt>
      <trkpt lat="69.17435" lon="18.09796">
        <ele>18.40911</ele>
        <time>2020-08-27T18:12:24.026Z</time>
      </trkpt>
      <trkpt lat="69.17446" lon="18.09879">
        <ele>18.515241</ele>
        <time>2020-08-27T18:12:30.288Z</time>
      </trkpt>
      <trkpt lat="69.17451" lon="18.09937">
        <ele>18.587916</ele>
        <time>2020-08-27T18:12:34.496Z</time>
      </trkpt>
      <trkpt lat="69.17453" lon="18.09971">
        <ele>18.628662</ele>
        <time>2020-08-27T18:12:36.814Z</time>
      </trkpt>
      <trkpt lat="69.17454" lon="18.1009">
        <ele>18.772894</ele>
        <time>2020-08-27T18:12:44.996Z</time>
      </trkpt>
      <trkpt lat="69.17449" lon="18.10198">
        <ele>18.904061</ele>
        <time>2020-08-27T18:12:52.381Z</time>
      </trkpt>
      <trkpt lat="69.17393" lon="18.10608">
        <ele>19.503647</ele>
        <time>2020-08-27T18:13:23.178Z</time>
      </trkpt>
      <trkpt lat="69.17392" lon="18.10617">
        <ele>19.516741</ele>
        <time>2020-08-27T18:13:23.888Z</time>
      </trkpt>
      <trkpt lat="69.17388" lon="18.10649">
        <ele>19.564069</ele>
        <time>2020-08-27T18:13:26.387Z</time>
      </trkpt>
      <trkpt lat="69.17381" lon="18.10702">
        <ele>19.644317</ele>
        <time>2020-08-27T18:13:30.409Z</time>
      </trkpt>
      <trkpt lat="69.17353" lon="18.1089">
        <ele>19.878679</ele>
        <time>2020-08-27T18:13:44.932Z</time>
      </trkpt>
      <trkpt lat="69.17345" lon="18.10955">
        <ele>19.953677</ele>
        <time>2020-08-27T18:13:50.019Z</time>
      </trkpt>
      <trkpt lat="69.17321" lon="18.11095">
        <ele>20.120583</ele>
        <time>2020-08-27T18:14:00.628Z</time>
      </trkpt>
      <trkpt lat="69.17314" lon="18.11127">
        <ele>20.161079</ele>
        <time>2020-08-27T18:14:03.293Z</time>
      </trkpt>
      <trkpt lat="69.17309" lon="18.11146">
        <ele>20.186712</ele>
        <time>2020-08-27T18:14:04.846Z</time>
      </trkpt>
      <trkpt lat="69.17276" lon="18.11282">
        <ele>20.393612</ele>
        <time>2020-08-27T18:14:15.690Z</time>
      </trkpt>
      <trkpt lat="69.17265" lon="18.11312">
        <ele>20.454819</ele>
        <time>2020-08-27T18:14:18.548Z</time>
      </trkpt>
      <trkpt lat="69.1726" lon="18.11319">
        <ele>20.477687</ele>
        <time>2020-08-27T18:14:19.579Z</time>
      </trkpt>
      <trkpt lat="69.17255" lon="18.11326">
        <ele>20.498187</ele>
        <time>2020-08-27T18:14:20.468Z</time>
      </trkpt>
      <trkpt lat="69.17027" lon="18.11476">
        <ele>23.27963</ele>
        <time>2020-08-27T18:15:08.727Z</time>
      </trkpt>
      <trkpt lat="69.17023" lon="18.11478">
        <ele>23.367491</ele>
        <time>2020-08-27T18:15:09.886Z</time>
      </trkpt>
      <trkpt lat="69.17018" lon="18.11473">
        <ele>23.481221</ele>
        <time>2020-08-27T18:15:11.764Z</time>
      </trkpt>
      <trkpt lat="69.17017" lon="18.11469">
        <ele>23.508888</ele>
        <time>2020-08-27T18:15:12.125Z</time>
      </trkpt>
      <trkpt lat="69.17016" lon="18.11462">
        <ele>23.563874</ele>
        <time>2020-08-27T18:15:12.863Z</time>
      </trkpt>
      <trkpt lat="69.17004" lon="18.11473">
        <ele>23.825846</ele>
        <time>2020-08-27T18:15:17.500Z</time>
      </trkpt>
      <trkpt lat="69.16993" lon="18.11486">
        <ele>24.062629</ele>
        <time>2020-08-27T18:15:20.652Z</time>
      </trkpt>
      <trkpt lat="69.1699" lon="18.11478">
        <ele>24.148306</ele>
        <time>2020-08-27T18:15:22.116Z</time>
      </trkpt>
      <trkpt lat="69.16983" lon="18.11476">
        <ele>24.274398</ele>
        <time>2020-08-27T18:15:23.974Z</time>
      </trkpt>
      <trkpt lat="69.16959" lon="18.11512">
        <ele>25.095551</ele>
        <time>2020-08-27T18:15:33.243Z</time>
      </trkpt>
      <trkpt lat="69.16955" lon="18.11517">
        <ele>25.241788</ele>
        <time>2020-08-27T18:15:34.579Z</time>
      </trkpt>
      <trkpt lat="69.16957" lon="18.11527">
        <ele>25.414558</ele>
        <time>2020-08-27T18:15:35.830Z</time>
      </trkpt>
      <trkpt lat="69.16959" lon="18.11537">
        <ele>25.572855</ele>
        <time>2020-08-27T18:15:37.377Z</time>
      </trkpt>
      <trkpt lat="69.1693" lon="18.11578">
        <ele>26.880996</ele>
        <time>2020-08-27T18:15:47.968Z</time>
      </trkpt>
      <trkpt lat="69.16923" lon="18.11587">
        <ele>27.212669</ele>
        <time>2020-08-27T18:15:51.564Z</time>
      </trkpt>
      <trkpt lat="69.16871" lon="18.11635">
        <ele>29.408679</ele>
        <time>2020-08-27T18:16:09.865Z</time>
      </trkpt>
      <trkpt lat="69.16734" lon="18.11691">
        <ele>30.913791</ele>
        <time>2020-08-27T18:16:45.777Z</time>
      </trkpt>
      <trkpt lat="69.16418" lon="18.11702">
        <ele>21.121951</ele>
        <time>2020-08-27T18:17:25.350Z</time>
      </trkpt>
      <trkpt lat="69.16408" lon="18.11706">
        <ele>20.761303</ele>
        <time>2020-08-27T18:17:26.616Z</time>
      </trkpt>
      <trkpt lat="69.16384" lon="18.1171">
        <ele>19.957009</ele>
        <time>2020-08-27T18:17:29.644Z</time>
      </trkpt>
      <trkpt lat="69.16251" lon="18.11694">
        <ele>15.98344</ele>
        <time>2020-08-27T18:17:47.163Z</time>
      </trkpt>
      <trkpt lat="69.16213" lon="18.1173">
        <ele>15.568278</ele>
        <time>2020-08-27T18:17:53.627Z</time>
      </trkpt>
      <trkpt lat="69.16193" lon="18.11783">
        <ele>15.280208</ele>
        <time>2020-08-27T18:17:58.335Z</time>
      </trkpt>
      <trkpt lat="69.16181" lon="18.11834">
        <ele>15.053223</ele>
        <time>2020-08-27T18:18:02.140Z</time>
      </trkpt>
      <trkpt lat="69.16177" lon="18.11854">
        <ele>14.964726</ele>
        <time>2020-08-27T18:18:03.605Z</time>
      </trkpt>
      <trkpt lat="69.16171" lon="18.11892">
        <ele>14.810156</ele>
        <time>2020-08-27T18:18:05.906Z</time>
      </trkpt>
      <trkpt lat="69.16167" lon="18.11916">
        <ele>14.710605</ele>
        <time>2020-08-27T18:18:07.635Z</time>
      </trkpt>
      <trkpt lat="69.16138" lon="18.12085">
        <ele>13.76171</ele>
        <time>2020-08-27T18:18:18.208Z</time>
      </trkpt>
      <trkpt lat="69.16131" lon="18.12122">
        <ele>13.481388</ele>
        <time>2020-08-27T18:18:20.523Z</time>
      </trkpt>
      <trkpt lat="69.16128" lon="18.12137">
        <ele>13.370007</ele>
        <time>2020-08-27T18:18:21.314Z</time>
      </trkpt>
      <trkpt lat="69.16122" lon="18.12167">
        <ele>13.14242</ele>
        <time>2020-08-27T18:18:23.118Z</time>
      </trkpt>
      <trkpt lat="69.16108" lon="18.1223">
        <ele>12.648711</ele>
        <time>2020-08-27T18:18:27.035Z</time>
      </trkpt>
      <trkpt lat="69.16104" lon="18.12248">
        <ele>12.516805</ele>
        <time>2020-08-27T18:18:28.061Z</time>
      </trkpt>
      <trkpt lat="69.16083" lon="18.12344">
        <ele>11.764499</ele>
        <time>2020-08-27T18:18:33.640Z</time>
      </trkpt>
      <trkpt lat="69.16079" lon="18.12363">
        <ele>11.622725</ele>
        <time>2020-08-27T18:18:34.734Z</time>
      </trkpt>
      <trkpt lat="69.16075" lon="18.12381">
        <ele>11.481204</ele>
        <time>2020-08-27T18:18:35.802Z</time>
      </trkpt>
      <trkpt lat="69.16058" lon="18.12467">
        <ele>10.758525</ele>
        <time>2020-08-27T18:18:40.509Z</time>
      </trkpt>
      <trkpt lat="69.16054" lon="18.1249">
        <ele>10.521467</ele>
        <time>2020-08-27T18:18:41.628Z</time>
      </trkpt>
      <trkpt lat="69.16051" lon="18.12515">
        <ele>10.265316</ele>
        <time>2020-08-27T18:18:42.887Z</time>
      </trkpt>
      <trkpt lat="69.16034" lon="18.12672">
        <ele>8.726523</ele>
        <time>2020-08-27T18:18:50.579Z</time>
      </trkpt>
      <trkpt lat="69.16033" lon="18.12689">
        <ele>8.565263</ele>
        <time>2020-08-27T18:18:51.335Z</time>
      </trkpt>
      <trkpt lat="69.16031" lon="18.12721">
        <ele>8.256721</ele>
        <time>2020-08-27T18:18:52.880Z</time>
      </trkpt>
      <trkpt lat="69.16032" lon="18.12911">
        <ele>6.469869</ele>
        <time>2020-08-27T18:19:02.056Z</time>
      </trkpt>
      <trkpt lat="69.16035" lon="18.12989">
        <ele>6.18245</ele>
        <time>2020-08-27T18:19:06.133Z</time>
      </trkpt>
      <trkpt lat="69.16036" lon="18.13013">
        <ele>6.160104</ele>
        <time>2020-08-27T18:19:07.434Z</time>
      </trkpt>
      <trkpt lat="69.1604" lon="18.13076">
        <ele>6.100951</ele>
        <time>2020-08-27T18:19:11.037Z</time>
      </trkpt>
      <trkpt lat="69.16042" lon="18.13134">
        <ele>6.046831</ele>
        <time>2020-08-27T18:19:14.236Z</time>
      </trkpt>
      <trkpt lat="69.16052" lon="18.13318">
        <ele>5.875093</ele>
        <time>2020-08-27T18:19:26.295Z</time>
      </trkpt>
      <trkpt lat="69.16055" lon="18.13387">
        <ele>5.810725</ele>
        <time>2020-08-27T18:19:31.096Z</time>
      </trkpt>
      <trkpt lat="69.16057" lon="18.1343">
        <ele>5.771335</ele>
        <time>2020-08-27T18:19:34.380Z</time>
      </trkpt>
      <trkpt lat="69.1606" lon="18.13492">
        <ele>6.037736</ele>
        <time>2020-08-27T18:19:39.166Z</time>
      </trkpt>
      <trkpt lat="69.16078" lon="18.13878">
        <ele>7.995175</ele>
        <time>2020-08-27T18:20:12.269Z</time>
      </trkpt>
      <trkpt lat="69.16085" lon="18.14028">
        <ele>8.173624</ele>
        <time>2020-08-27T18:20:23.211Z</time>
      </trkpt>
      <trkpt lat="69.16086" lon="18.14105">
        <ele>8.065547</ele>
        <time>2020-08-27T18:20:27.767Z</time>
      </trkpt>
      <trkpt lat="69.16087" lon="18.14153">
        <ele>7.999305</ele>
        <time>2020-08-27T18:20:30.611Z</time>
      </trkpt>
      <trkpt lat="69.16087" lon="18.14163">
        <ele>7.985471</ele>
        <time>2020-08-27T18:20:31.067Z</time>
      </trkpt>
      <trkpt lat="69.16085" lon="18.14224">
        <ele>7.898918</ele>
        <time>2020-08-27T18:20:34.541Z</time>
      </trkpt>
      <trkpt lat="69.16082" lon="18.14294">
        <ele>7.800338</ele>
        <time>2020-08-27T18:20:38.219Z</time>
      </trkpt>
      <trkpt lat="69.16072" lon="18.14421">
        <ele>7.619455</ele>
        <time>2020-08-27T18:20:45.387Z</time>
      </trkpt>
      <trkpt lat="69.16061" lon="18.14555">
        <ele>7.819127</ele>
        <time>2020-08-27T18:20:53.741Z</time>
      </trkpt>
      <trkpt lat="69.16056" lon="18.14623">
        <ele>7.950791</ele>
        <time>2020-08-27T18:20:58.172Z</time>
      </trkpt>
      <trkpt lat="69.16053" lon="18.14676">
        <ele>8.05341</ele>
        <time>2020-08-27T18:21:01.709Z</time>
      </trkpt>
      <trkpt lat="69.16049" lon="18.14723">
        <ele>8.14501</ele>
        <time>2020-08-27T18:21:04.910Z</time>
      </trkpt>
      <trkpt lat="69.16041" lon="18.14821">
        <ele>8.335374</ele>
        <time>2020-08-27T18:21:12.157Z</time>
      </trkpt>
      <trkpt lat="69.16028" lon="18.1497">
        <ele>8.827831</ele>
        <time>2020-08-27T18:21:24.885Z</time>
      </trkpt>
      <trkpt lat="69.16013" lon="18.15096">
        <ele>9.758906</ele>
        <time>2020-08-27T18:21:36.979Z</time>
      </trkpt>
      <trkpt lat="69.15998" lon="18.15172">
        <ele>10.365398</ele>
        <time>2020-08-27T18:21:45.202Z</time>
      </trkpt>
      <trkpt lat="69.15934" lon="18.15405">
        <ele>12.382559</ele>
        <time>2020-08-27T18:22:09.762Z</time>
      </trkpt>
      <trkpt lat="69.15873" lon="18.15721">
        <ele>14.539868</ele>
        <time>2020-08-27T18:22:39.335Z</time>
      </trkpt>
      <trkpt lat="69.15824" lon="18.15871">
        <ele>15.623924</ele>
        <time>2020-08-27T18:22:56.494Z</time>
      </trkpt>
      <trkpt lat="69.15767" lon="18.15977">
        <ele>16.524576</ele>
        <time>2020-08-27T18:23:12.069Z</time>
      </trkpt>
      <trkpt lat="69.15706" lon="18.16055">
        <ele>17.420952</ele>
        <time>2020-08-27T18:23:26.676Z</time>
      </trkpt>
      <trkpt lat="69.15482" lon="18.16234">
        <ele>17.597201</ele>
        <time>2020-08-27T18:24:09.468Z</time>
      </trkpt>
      <trkpt lat="69.15445" lon="18.16266">
        <ele>17.302226</ele>
        <time>2020-08-27T18:24:15.414Z</time>
      </trkpt>
      <trkpt lat="69.1543" lon="18.1628">
        <ele>17.179647</ele>
        <time>2020-08-27T18:24:17.906Z</time>
      </trkpt>
      <trkpt lat="69.15416" lon="18.16295">
        <ele>17.062554</ele>
        <time>2020-08-27T18:24:20.133Z</time>
      </trkpt>
      <trkpt lat="69.15398" lon="18.16317">
        <ele>16.907924</ele>
        <time>2020-08-27T18:24:23.237Z</time>
      </trkpt>
      <trkpt lat="69.15351" lon="18.16393">
        <ele>16.485889</ele>
        <time>2020-08-27T18:24:31.433Z</time>
      </trkpt>
      <trkpt lat="69.15334" lon="18.16424">
        <ele>16.34222</ele>
        <time>2020-08-27T18:24:34.407Z</time>
      </trkpt>
      <trkpt lat="69.15325" lon="18.16446">
        <ele>16.252428</ele>
        <time>2020-08-27T18:24:36.121Z</time>
      </trkpt>
      <trkpt lat="69.15279" lon="18.16563">
        <ele>15.793743</ele>
        <time>2020-08-27T18:24:45.178Z</time>
      </trkpt>
      <trkpt lat="69.15188" lon="18.16847">
        <ele>16.23874</ele>
        <time>2020-08-27T18:25:10.453Z</time>
      </trkpt>
      <trkpt lat="69.15177" lon="18.16883">
        <ele>16.517741</ele>
        <time>2020-08-27T18:25:14.650Z</time>
      </trkpt>
      <trkpt lat="69.15171" lon="18.16902">
        <ele>16.682873</ele>
        <time>2020-08-27T18:25:17.211Z</time>
      </trkpt>
      <trkpt lat="69.15159" lon="18.16933">
        <ele>16.954349</ele>
        <time>2020-08-27T18:25:21.009Z</time>
      </trkpt>
      <trkpt lat="69.15162" lon="18.16941">
        <ele>17.021567</ele>
        <time>2020-08-27T18:25:22.043Z</time>
      </trkpt>
      <trkpt lat="69.15163" lon="18.16947">
        <ele>17.062179</ele>
        <time>2020-08-27T18:25:22.691Z</time>
      </trkpt>
      <trkpt lat="69.15164" lon="18.16958">
        <ele>17.128521</ele>
        <time>2020-08-27T18:25:23.724Z</time>
      </trkpt>
      <trkpt lat="69.15159" lon="18.16962">
        <ele>17.211549</ele>
        <time>2020-08-27T18:25:25.212Z</time>
      </trkpt>
      <trkpt lat="69.15157" lon="18.16964">
        <ele>17.250849</ele>
        <time>2020-08-27T18:25:25.757Z</time>
      </trkpt>
      <trkpt lat="69.15143" lon="18.16989">
        <ele>17.532732</ele>
        <time>2020-08-27T18:25:29.732Z</time>
      </trkpt>
      <trkpt lat="69.15126" lon="18.17019">
        <ele>17.87456</ele>
        <time>2020-08-27T18:25:35.280Z</time>
      </trkpt>
      <trkpt lat="69.15103" lon="18.17052">
        <ele>18.316417</ele>
        <time>2020-08-27T18:25:41.899Z</time>
      </trkpt>
      <trkpt lat="69.15081" lon="18.17066">
        <ele>18.790484</ele>
        <time>2020-08-27T18:25:47.921Z</time>
      </trkpt>
      <trkpt lat="69.15072" lon="18.17067">
        <ele>18.978103</ele>
        <time>2020-08-27T18:25:50.547Z</time>
      </trkpt>
      <trkpt lat="69.15064" lon="18.17067">
        <ele>19.138772</ele>
        <time>2020-08-27T18:25:52.862Z</time>
      </trkpt>
      <trkpt lat="69.15002" lon="18.17059">
        <ele>20.421172</ele>
        <time>2020-08-27T18:26:08.993Z</time>
      </trkpt>
      <trkpt lat="69.14892" lon="18.16953">
        <ele>22.209411</ele>
        <time>2020-08-27T18:26:34.702Z</time>
      </trkpt>
      <trkpt lat="69.14882" lon="18.1694">
        <ele>22.267835</ele>
        <time>2020-08-27T18:26:36.668Z</time>
      </trkpt>
      <trkpt lat="69.14866" lon="18.16913">
        <ele>22.375861</ele>
        <time>2020-08-27T18:26:40.579Z</time>
      </trkpt>
      <trkpt lat="69.14825" lon="18.1683">
        <ele>22.664534</ele>
        <time>2020-08-27T18:26:50.291Z</time>
      </trkpt>
      <trkpt lat="69.14814" lon="18.16794">
        <ele>22.75958</ele>
        <time>2020-08-27T18:26:53.601Z</time>
      </trkpt>
      <trkpt lat="69.14803" lon="18.16754">
        <ele>22.861656</ele>
        <time>2020-08-27T18:26:56.823Z</time>
      </trkpt>
      <trkpt lat="69.1479" lon="18.16711">
        <ele>22.973213</ele>
        <time>2020-08-27T18:27:00.524Z</time>
      </trkpt>
      <trkpt lat="69.14775" lon="18.16585">
        <ele>22.730385</ele>
        <time>2020-08-27T18:27:08.672Z</time>
      </trkpt>
      <trkpt lat="69.14759" lon="18.16353">
        <ele>22.203313</ele>
        <time>2020-08-27T18:27:22.389Z</time>
      </trkpt>
      <trkpt lat="69.14755" lon="18.16292">
        <ele>22.064937</ele>
        <time>2020-08-27T18:27:25.732Z</time>
      </trkpt>
      <trkpt lat="69.14751" lon="18.16228">
        <ele>21.918253</ele>
        <time>2020-08-27T18:27:29.361Z</time>
      </trkpt>
      <trkpt lat="69.14749" lon="18.16213">
        <ele>21.883631</ele>
        <time>2020-08-27T18:27:30.142Z</time>
      </trkpt>
      <trkpt lat="69.14748" lon="18.16199">
        <ele>21.796527</ele>
        <time>2020-08-27T18:27:30.984Z</time>
      </trkpt>
      <trkpt lat="69.14746" lon="18.16181">
        <ele>21.649441</ele>
        <time>2020-08-27T18:27:31.926Z</time>
      </trkpt>
      <trkpt lat="69.14723" lon="18.16014">
        <ele>20.18085</ele>
        <time>2020-08-27T18:27:41.489Z</time>
      </trkpt>
      <trkpt lat="69.14715" lon="18.15971">
        <ele>19.793704</ele>
        <time>2020-08-27T18:27:43.960Z</time>
      </trkpt>
      <trkpt lat="69.1471" lon="18.1598">
        <ele>19.657485</ele>
        <time>2020-08-27T18:27:44.819Z</time>
      </trkpt>
      <trkpt lat="69.14706" lon="18.1597">
        <ele>19.531387</ele>
        <time>2020-08-27T18:27:45.529Z</time>
      </trkpt>
      <trkpt lat="69.14693" lon="18.15939">
        <ele>19.149678</ele>
        <time>2020-08-27T18:27:47.688Z</time>
      </trkpt>
      <trkpt lat="69.14653" lon="18.15752">
        <ele>17.022606</ele>
        <time>2020-08-27T18:27:57.994Z</time>
      </trkpt>
      <trkpt lat="69.14648" lon="18.15734">
        <ele>16.67665</ele>
        <time>2020-08-27T18:27:58.993Z</time>
      </trkpt>
      <trkpt lat="69.14651" lon="18.15726">
        <ele>16.479594</ele>
        <time>2020-08-27T18:27:59.607Z</time>
      </trkpt>
      <trkpt lat="69.14655" lon="18.15716">
        <ele>16.264633</ele>
        <time>2020-08-27T18:28:00.272Z</time>
      </trkpt>
      <trkpt lat="69.14649" lon="18.15693">
        <ele>15.799898</ele>
        <time>2020-08-27T18:28:01.609Z</time>
      </trkpt>
      <trkpt lat="69.14643" lon="18.15671">
        <ele>15.387168</ele>
        <time>2020-08-27T18:28:02.848Z</time>
      </trkpt>
      <trkpt lat="69.14635" lon="18.15643">
        <ele>14.837562</ele>
        <time>2020-08-27T18:28:04.421Z</time>
      </trkpt>
      <trkpt lat="69.1463" lon="18.15623">
        <ele>14.453587</ele>
        <time>2020-08-27T18:28:05.480Z</time>
      </trkpt>
      <trkpt lat="69.14606" lon="18.15547">
        <ele>12.880086</ele>
        <time>2020-08-27T18:28:09.901Z</time>
      </trkpt>
      <trkpt lat="69.14573" lon="18.15449">
        <ele>10.800623</ele>
        <time>2020-08-27T18:28:15.794Z</time>
      </trkpt>
      <trkpt lat="69.1457" lon="18.1544">
        <ele>10.59095</ele>
        <time>2020-08-27T18:28:16.360Z</time>
      </trkpt>
      <trkpt lat="69.14551" lon="18.15383">
        <ele>9.479706</ele>
        <time>2020-08-27T18:28:19.691Z</time>
      </trkpt>
      <trkpt lat="69.14543" lon="18.15371">
        <ele>9.171015</ele>
        <time>2020-08-27T18:28:20.758Z</time>
      </trkpt>
      <trkpt lat="69.14528" lon="18.15353">
        <ele>8.591939</ele>
        <time>2020-08-27T18:28:22.727Z</time>
      </trkpt>
      <trkpt lat="69.14524" lon="18.15346">
        <ele>8.427389</ele>
        <time>2020-08-27T18:28:23.261Z</time>
      </trkpt>
      <trkpt lat="69.1452" lon="18.15338">
        <ele>8.240487</ele>
        <time>2020-08-27T18:28:23.954Z</time>
      </trkpt>
      <trkpt lat="69.14518" lon="18.15334">
        <ele>8.15417</ele>
        <time>2020-08-27T18:28:24.254Z</time>
      </trkpt>
      <trkpt lat="69.14515" lon="18.15325">
        <ele>8.001388</ele>
        <time>2020-08-27T18:28:24.791Z</time>
      </trkpt>
      <trkpt lat="69.14512" lon="18.15319">
        <ele>7.889187</ele>
        <time>2020-08-27T18:28:25.185Z</time>
      </trkpt>
      <trkpt lat="69.14512" lon="18.15312">
        <ele>7.795205</ele>
        <time>2020-08-27T18:28:25.478Z</time>
      </trkpt>
      <trkpt lat="69.14506" lon="18.15266">
        <ele>7.178916</ele>
        <time>2020-08-27T18:28:27.735Z</time>
      </trkpt>
      <trkpt lat="69.14466" lon="18.15117">
        <ele>4.82794</ele>
        <time>2020-08-27T18:28:36.362Z</time>
      </trkpt>
      <trkpt lat="69.14464" lon="18.15109">
        <ele>4.702938</ele>
        <time>2020-08-27T18:28:36.775Z</time>
      </trkpt>
      <trkpt lat="69.14456" lon="18.15083">
        <ele>4.254873</ele>
        <time>2020-08-27T18:28:38.539Z</time>
      </trkpt>
      <trkpt lat="69.14438" lon="18.15042">
        <ele>3.585496</ele>
        <time>2020-08-27T18:28:41.744Z</time>
      </trkpt>
      <trkpt lat="69.1443" lon="18.15029">
        <ele>3.704241</ele>
        <time>2020-08-27T18:28:43.127Z</time>
      </trkpt>
      <trkpt lat="69.14393" lon="18.14969">
        <ele>4.288396</ele>
        <time>2020-08-27T18:28:49.809Z</time>
      </trkpt>
      <trkpt lat="69.14388" lon="18.1496">
        <ele>4.368714</ele>
        <time>2020-08-27T18:28:51.128Z</time>
      </trkpt>
      <trkpt lat="69.14386" lon="18.14955">
        <ele>4.403219</ele>
        <time>2020-08-27T18:28:51.657Z</time>
      </trkpt>
      <trkpt lat="69.14376" lon="18.1492">
        <ele>4.618285</ele>
        <time>2020-08-27T18:28:54.916Z</time>
      </trkpt>
      <trkpt lat="69.14373" lon="18.14886">
        <ele>4.785274</ele>
        <time>2020-08-27T18:28:57.382Z</time>
      </trkpt>
      <trkpt lat="69.14372" lon="18.14876">
        <ele>4.833075</ele>
        <time>2020-08-27T18:28:58.381Z</time>
      </trkpt>
      <trkpt lat="69.14372" lon="18.14865">
        <ele>4.887186</ele>
        <time>2020-08-27T18:28:59.384Z</time>
      </trkpt>
      <trkpt lat="69.14372" lon="18.14854">
        <ele>4.937823</ele>
        <time>2020-08-27T18:29:00.380Z</time>
      </trkpt>
      <trkpt lat="69.14372" lon="18.14848">
        <ele>4.969099</ele>
        <time>2020-08-27T18:29:01.049Z</time>
      </trkpt>
      <trkpt lat="69.14368" lon="18.14848">
        <ele>5.015009</ele>
        <time>2020-08-27T18:29:01.909Z</time>
      </trkpt>
      <trkpt lat="69.1434" lon="18.14864">
        <ele>5.404884</ele>
        <time>2020-08-27T18:29:08.772Z</time>
      </trkpt>
      <trkpt lat="69.14335" lon="18.1487">
        <ele>5.477448</ele>
        <time>2020-08-27T18:29:10.487Z</time>
      </trkpt>
      <trkpt lat="69.14331" lon="18.14876">
        <ele>5.537722</ele>
        <time>2020-08-27T18:29:11.792Z</time>
      </trkpt>
      <trkpt lat="69.14327" lon="18.1487">
        <ele>5.598954</ele>
        <time>2020-08-27T18:29:13.141Z</time>
      </trkpt>
      <trkpt lat="69.14287" lon="18.14796">
        <ele>7.319649</ele>
        <time>2020-08-27T18:29:28.501Z</time>
      </trkpt>
      <trkpt lat="69.14285" lon="18.14789">
        <ele>7.527552</ele>
        <time>2020-08-27T18:29:30.245Z</time>
      </trkpt>
      <trkpt lat="69.14265" lon="18.14701">
        <ele>9.997347</ele>
        <time>2020-08-27T18:29:42.878Z</time>
      </trkpt>
      <trkpt lat="69.14255" lon="18.14658">
        <ele>11.215898</ele>
        <time>2020-08-27T18:29:49.309Z</time>
      </trkpt>
      <trkpt lat="69.14234" lon="18.14552">
        <ele>14.099621</ele>
        <time>2020-08-27T18:30:06.908Z</time>
      </trkpt>
      <trkpt lat="69.14233" lon="18.14538">
        <ele>14.434349</ele>
        <time>2020-08-27T18:30:09.238Z</time>
      </trkpt>
      <trkpt lat="69.14231" lon="18.14533">
        <ele>14.594499</ele>
        <time>2020-08-27T18:30:11.364Z</time>
      </trkpt>
      <trkpt lat="69.14222" lon="18.14294">
        <ele>20.60385</ele>
        <time>2020-08-27T18:30:49.283Z</time>
      </trkpt>
      <trkpt lat="69.1422" lon="18.14239">
        <ele>22.082601</ele>
        <time>2020-08-27T18:30:57.797Z</time>
      </trkpt>
      <trkpt lat="69.14219" lon="18.14211">
        <ele>22.835318</ele>
        <time>2020-08-27T18:31:03.397Z</time>
      </trkpt>
      <trkpt lat="69.14215" lon="18.14033">
        <ele>27.644728</ele>
        <time>2020-08-27T18:31:29.918Z</time>
      </trkpt>
      <trkpt lat="69.14215" lon="18.1392">
        <ele>30.67672</ele>
        <time>2020-08-27T18:31:46.277Z</time>
      </trkpt>
      <trkpt lat="69.14216" lon="18.13835">
        <ele>32.170643</ele>
        <time>2020-08-27T18:31:57.813Z</time>
      </trkpt>
      <trkpt lat="69.14216" lon="18.13603">
        <ele>35.025529</ele>
        <time>2020-08-27T18:32:24.999Z</time>
      </trkpt>
      <trkpt lat="69.14191" lon="18.13366">
        <ele>37.40565</ele>
        <time>2020-08-27T18:32:45.557Z</time>
      </trkpt>
      <trkpt lat="69.14189" lon="18.13343">
        <ele>37.136365</ele>
        <time>2020-08-27T18:32:47.244Z</time>
      </trkpt>
      <trkpt lat="69.14187" lon="18.13334">
        <ele>37.007857</ele>
        <time>2020-08-27T18:32:47.873Z</time>
      </trkpt>
      <trkpt lat="69.14165" lon="18.13277">
        <ele>36.063397</ele>
        <time>2020-08-27T18:32:52.227Z</time>
      </trkpt>
      <trkpt lat="69.14139" lon="18.13167">
        <ele>34.536634</ele>
        <time>2020-08-27T18:32:58.098Z</time>
      </trkpt>
      <trkpt lat="69.1413" lon="18.1303">
        <ele>32.935215</ele>
        <time>2020-08-27T18:33:04.283Z</time>
      </trkpt>
      <trkpt lat="69.1414" lon="18.12961">
        <ele>32.070927</ele>
        <time>2020-08-27T18:33:07.465Z</time>
      </trkpt>
      <trkpt lat="69.14153" lon="18.12915">
        <ele>31.094249</ele>
        <time>2020-08-27T18:33:10.004Z</time>
      </trkpt>
      <trkpt lat="69.14153" lon="18.12911">
        <ele>31.027129</ele>
        <time>2020-08-27T18:33:10.146Z</time>
      </trkpt>
      <trkpt lat="69.14113" lon="18.12599">
        <ele>24.964471</ele>
        <time>2020-08-27T18:33:24.208Z</time>
      </trkpt>
      <trkpt lat="69.14083" lon="18.1247">
        <ele>22.540801</ele>
        <time>2020-08-27T18:33:31.002Z</time>
      </trkpt>
      <trkpt lat="69.14054" lon="18.12406">
        <ele>22.005903</ele>
        <time>2020-08-27T18:33:36.173Z</time>
      </trkpt>
      <trkpt lat="69.14051" lon="18.12399">
        <ele>21.944911</ele>
        <time>2020-08-27T18:33:36.833Z</time>
      </trkpt>
      <trkpt lat="69.14063" lon="18.12376">
        <ele>21.733878</ele>
        <time>2020-08-27T18:33:39.688Z</time>
      </trkpt>
      <trkpt lat="69.14068" lon="18.12366">
        <ele>21.643209</ele>
        <time>2020-08-27T18:33:40.879Z</time>
      </trkpt>
      <trkpt lat="69.14056" lon="18.1232">
        <ele>21.347031</ele>
        <time>2020-08-27T18:33:44.303Z</time>
      </trkpt>
      <trkpt lat="69.14043" lon="18.12271">
        <ele>21.029058</ele>
        <time>2020-08-27T18:33:47.823Z</time>
      </trkpt>
      <trkpt lat="69.14023" lon="18.12197">
        <ele>20.547242</ele>
        <time>2020-08-27T18:33:53.450Z</time>
      </trkpt>
      <trkpt lat="69.14006" lon="18.12132">
        <ele>20.119021</ele>
        <time>2020-08-27T18:33:58.576Z</time>
      </trkpt>
      <trkpt lat="69.13983" lon="18.12049">
        <ele>19.6769</ele>
        <time>2020-08-27T18:34:05.222Z</time>
      </trkpt>
      <trkpt lat="69.13981" lon="18.12038">
        <ele>19.628213</ele>
        <time>2020-08-27T18:34:06.084Z</time>
      </trkpt>
      <trkpt lat="69.13967" lon="18.11908">
        <ele>19.069269</ele>
        <time>2020-08-27T18:34:15.083Z</time>
      </trkpt>
      <trkpt lat="69.1394" lon="18.11501">
        <ele>16.77592</ele>
        <time>2020-08-27T18:34:36.920Z</time>
      </trkpt>
      <trkpt lat="69.13945" lon="18.11472">
        <ele>16.518581</ele>
        <time>2020-08-27T18:34:38.625Z</time>
      </trkpt>
      <trkpt lat="69.13957" lon="18.11455">
        <ele>16.213488</ele>
        <time>2020-08-27T18:34:40.646Z</time>
      </trkpt>
      <trkpt lat="69.13968" lon="18.11452">
        <ele>15.966842</ele>
        <time>2020-08-27T18:34:42.047Z</time>
      </trkpt>
      <trkpt lat="69.13964" lon="18.11389">
        <ele>15.456963</ele>
        <time>2020-08-27T18:34:45.118Z</time>
      </trkpt>
      <trkpt lat="69.13959" lon="18.11184">
        <ele>13.859463</ele>
        <time>2020-08-27T18:34:55.279Z</time>
      </trkpt>
      <trkpt lat="69.13963" lon="18.11016">
        <ele>13.343652</ele>
        <time>2020-08-27T18:35:03.781Z</time>
      </trkpt>
      <trkpt lat="69.13963" lon="18.10988">
        <ele>13.258429</ele>
        <time>2020-08-27T18:35:05.131Z</time>
      </trkpt>
      <trkpt lat="69.13963" lon="18.10966">
        <ele>13.193042</ele>
        <time>2020-08-27T18:35:06.871Z</time>
      </trkpt>
      <trkpt lat="69.13939" lon="18.10645">
        <ele>12.607976</ele>
        <time>2020-08-27T18:35:26.920Z</time>
      </trkpt>
      <trkpt lat="69.13934" lon="18.10247">
        <ele>14.392868</ele>
        <time>2020-08-27T18:35:57.898Z</time>
      </trkpt>
      <trkpt lat="69.13925" lon="18.10186">
        <ele>14.782779</ele>
        <time>2020-08-27T18:36:03.880Z</time>
      </trkpt>
      <trkpt lat="69.13883" lon="18.10035">
        <ele>16.815567</ele>
        <time>2020-08-27T18:36:22.674Z</time>
      </trkpt>
      <trkpt lat="69.1388" lon="18.10022">
        <ele>16.976974</ele>
        <time>2020-08-27T18:36:25.326Z</time>
      </trkpt>
      <trkpt lat="69.13871" lon="18.09987">
        <ele>17.440206</ele>
        <time>2020-08-27T18:36:29.553Z</time>
      </trkpt>
      <trkpt lat="69.13863" lon="18.09954">
        <ele>17.855265</ele>
        <time>2020-08-27T18:36:32.878Z</time>
      </trkpt>
      <trkpt lat="69.13843" lon="18.09863">
        <ele>18.985475</ele>
        <time>2020-08-27T18:36:44.100Z</time>
      </trkpt>
      <trkpt lat="69.13812" lon="18.09714">
        <ele>20.291312</ele>
        <time>2020-08-27T18:37:02.141Z</time>
      </trkpt>
      <trkpt lat="69.13647" lon="18.09022">
        <ele>21.578501</ele>
        <time>2020-08-27T18:37:59.343Z</time>
      </trkpt>
      <trkpt lat="69.13617" lon="18.08888">
        <ele>21.098066</ele>
        <time>2020-08-27T18:38:07.134Z</time>
      </trkpt>
      <trkpt lat="69.13614" lon="18.08877">
        <ele>21.02005</ele>
        <time>2020-08-27T18:38:07.737Z</time>
      </trkpt>
      <trkpt lat="69.13608" lon="18.08852">
        <ele>20.838323</ele>
        <time>2020-08-27T18:38:09.117Z</time>
      </trkpt>
      <trkpt lat="69.13579" lon="18.08753">
        <ele>20.058485</ele>
        <time>2020-08-27T18:38:15.224Z</time>
      </trkpt>
      <trkpt lat="69.13552" lon="18.0868">
        <ele>19.42735</ele>
        <time>2020-08-27T18:38:20.249Z</time>
      </trkpt>
      <trkpt lat="69.1354" lon="18.08648">
        <ele>19.144251</ele>
        <time>2020-08-27T18:38:23.006Z</time>
      </trkpt>
      <trkpt lat="69.13517" lon="18.08594">
        <ele>18.633072</ele>
        <time>2020-08-27T18:38:27.908Z</time>
      </trkpt>
      <trkpt lat="69.13509" lon="18.08577">
        <ele>18.467976</ele>
        <time>2020-08-27T18:38:29.325Z</time>
      </trkpt>
      <trkpt lat="69.13474" lon="18.08503">
        <ele>19.186344</ele>
        <time>2020-08-27T18:38:37.908Z</time>
      </trkpt>
      <trkpt lat="69.13458" lon="18.0847">
        <ele>19.559033</ele>
        <time>2020-08-27T18:38:42.861Z</time>
      </trkpt>
      <trkpt lat="69.13442" lon="18.08439">
        <ele>19.942507</ele>
        <time>2020-08-27T18:38:46.614Z</time>
      </trkpt>
      <trkpt lat="69.13437" lon="18.08433">
        <ele>20.031461</ele>
        <time>2020-08-27T18:38:47.913Z</time>
      </trkpt>
      <trkpt lat="69.13426" lon="18.08419">
        <ele>20.264064</ele>
        <time>2020-08-27T18:38:51.507Z</time>
      </trkpt>
      <trkpt lat="69.1338" lon="18.08373">
        <ele>21.189416</ele>
        <time>2020-08-27T18:39:03.209Z</time>
      </trkpt>
      <trkpt lat="69.1334" lon="18.08312">
        <ele>22.216533</ele>
        <time>2020-08-27T18:39:16.826Z</time>
      </trkpt>
      <trkpt lat="69.13309" lon="18.08238">
        <ele>23.564272</ele>
        <time>2020-08-27T18:39:30.840Z</time>
      </trkpt>
      <trkpt lat="69.13279" lon="18.08145">
        <ele>25.02572</ele>
        <time>2020-08-27T18:39:43.942Z</time>
      </trkpt>
      <trkpt lat="69.13268" lon="18.08103">
        <ele>25.637665</ele>
        <time>2020-08-27T18:39:48.346Z</time>
      </trkpt>
      <trkpt lat="69.13261" lon="18.08114">
        <ele>25.908859</ele>
        <time>2020-08-27T18:39:51.700Z</time>
      </trkpt>
      <trkpt lat="69.13237" lon="18.08106">
        <ele>26.681084</ele>
        <time>2020-08-27T18:39:57.264Z</time>
      </trkpt>
      <trkpt lat="69.13213" lon="18.08037">
        <ele>27.743342</ele>
        <time>2020-08-27T18:40:06.305Z</time>
      </trkpt>
      <trkpt lat="69.13204" lon="18.07994">
        <ele>27.911418</ele>
        <time>2020-08-27T18:40:12.023Z</time>
      </trkpt>
      <trkpt lat="69.13188" lon="18.07922">
        <ele>28.185144</ele>
        <time>2020-08-27T18:40:19.066Z</time>
      </trkpt>
      <trkpt lat="69.13167" lon="18.07808">
        <ele>28.605426</ele>
        <time>2020-08-27T18:40:29.465Z</time>
      </trkpt>
      <trkpt lat="69.13157" lon="18.07725">
        <ele>28.893492</ele>
        <time>2020-08-27T18:40:35.235Z</time>
      </trkpt>
      <trkpt lat="69.13155" lon="18.07698">
        <ele>28.983739</ele>
        <time>2020-08-27T18:40:37.241Z</time>
      </trkpt>
      <trkpt lat="69.13155" lon="18.07669">
        <ele>29.077915</ele>
        <time>2020-08-27T18:40:38.784Z</time>
      </trkpt>
      <trkpt lat="69.13153" lon="18.07559">
        <ele>29.388268</ele>
        <time>2020-08-27T18:40:46.114Z</time>
      </trkpt>
      <trkpt lat="69.13158" lon="18.07484">
        <ele>29.4446</ele>
        <time>2020-08-27T18:40:51.117Z</time>
      </trkpt>
      <trkpt lat="69.1316" lon="18.07469">
        <ele>29.455751</ele>
        <time>2020-08-27T18:40:51.851Z</time>
      </trkpt>
      <trkpt lat="69.13165" lon="18.07431">
        <ele>29.48674</ele>
        <time>2020-08-27T18:40:54.598Z</time>
      </trkpt>
      <trkpt lat="69.13174" lon="18.07381">
        <ele>29.528246</ele>
        <time>2020-08-27T18:40:58.084Z</time>
      </trkpt>
      <trkpt lat="69.13177" lon="18.07366">
        <ele>29.540477</ele>
        <time>2020-08-27T18:40:59.132Z</time>
      </trkpt>
      <trkpt lat="69.13181" lon="18.07329">
        <ele>29.568961</ele>
        <time>2020-08-27T18:41:01.774Z</time>
      </trkpt>
      <trkpt lat="69.13185" lon="18.07281">
        <ele>29.605481</ele>
        <time>2020-08-27T18:41:04.818Z</time>
      </trkpt>
      <trkpt lat="69.13194" lon="18.07194">
        <ele>29.672482</ele>
        <time>2020-08-27T18:41:11.352Z</time>
      </trkpt>
      <trkpt lat="69.13206" lon="18.07141">
        <ele>29.718134</ele>
        <time>2020-08-27T18:41:15.650Z</time>
      </trkpt>
      <trkpt lat="69.13272" lon="18.06975">
        <ele>30.876033</ele>
        <time>2020-08-27T18:41:36.978Z</time>
      </trkpt>
      <trkpt lat="69.13293" lon="18.06825">
        <ele>31.744864</ele>
        <time>2020-08-27T18:41:50.541Z</time>
      </trkpt>
      <trkpt lat="69.13298" lon="18.0678">
        <ele>31.995007</ele>
        <time>2020-08-27T18:41:54.615Z</time>
      </trkpt>
      <trkpt lat="69.133" lon="18.06753">
        <ele>32.145608</ele>
        <time>2020-08-27T18:41:56.970Z</time>
      </trkpt>
      <trkpt lat="69.13311" lon="18.06606">
        <ele>32.945194</ele>
        <time>2020-08-27T18:42:09.443Z</time>
      </trkpt>
      <trkpt lat="69.13313" lon="18.06595">
        <ele>33.017261</ele>
        <time>2020-08-27T18:42:10.743Z</time>
      </trkpt>
      <trkpt lat="69.13316" lon="18.06587">
        <ele>33.078775</ele>
        <time>2020-08-27T18:42:11.647Z</time>
      </trkpt>
      <trkpt lat="69.1332" lon="18.06583">
        <ele>33.140839</ele>
        <time>2020-08-27T18:42:12.508Z</time>
      </trkpt>
      <trkpt lat="69.13319" lon="18.06567">
        <ele>33.2282</ele>
        <time>2020-08-27T18:42:14.089Z</time>
      </trkpt>
      <trkpt lat="69.13293" lon="18.06436">
        <ele>34.025659</ele>
        <time>2020-08-27T18:42:26.798Z</time>
      </trkpt>
      <trkpt lat="69.13246" lon="18.06287">
        <ele>35.081928</ele>
        <time>2020-08-27T18:42:43.122Z</time>
      </trkpt>
      <trkpt lat="69.13227" lon="18.06232">
        <ele>34.964318</ele>
        <time>2020-08-27T18:42:48.706Z</time>
      </trkpt>
      <trkpt lat="69.13177" lon="18.06089">
        <ele>34.411611</ele>
        <time>2020-08-27T18:43:00.484Z</time>
      </trkpt>
      <trkpt lat="69.1317" lon="18.06065">
        <ele>34.327537</ele>
        <time>2020-08-27T18:43:02.077Z</time>
      </trkpt>
      <trkpt lat="69.13166" lon="18.06046">
        <ele>34.263798</ele>
        <time>2020-08-27T18:43:03.874Z</time>
      </trkpt>
      <trkpt lat="69.13159" lon="18.06051">
        <ele>34.212082</ele>
        <time>2020-08-27T18:43:04.834Z</time>
      </trkpt>
      <trkpt lat="69.1315" lon="18.06007">
        <ele>34.071792</ele>
        <time>2020-08-27T18:43:07.433Z</time>
      </trkpt>
      <trkpt lat="69.13144" lon="18.05936">
        <ele>33.870994</ele>
        <time>2020-08-27T18:43:11.768Z</time>
      </trkpt>
      <trkpt lat="69.13144" lon="18.05929">
        <ele>33.850399</ele>
        <time>2020-08-27T18:43:12.061Z</time>
      </trkpt>
      <trkpt lat="69.13147" lon="18.05929">
        <ele>33.828656</ele>
        <time>2020-08-27T18:43:12.416Z</time>
      </trkpt>
      <trkpt lat="69.13151" lon="18.05927">
        <ele>33.797929</ele>
        <time>2020-08-27T18:43:12.922Z</time>
      </trkpt>
      <trkpt lat="69.13147" lon="18.05854">
        <ele>32.935627</ele>
        <time>2020-08-27T18:43:16.810Z</time>
      </trkpt>
      <trkpt lat="69.13135" lon="18.05768">
        <ele>31.598256</ele>
        <time>2020-08-27T18:43:21.047Z</time>
      </trkpt>
      <trkpt lat="69.13091" lon="18.05659">
        <ele>29.227296</ele>
        <time>2020-08-27T18:43:27.939Z</time>
      </trkpt>
      <trkpt lat="69.13084" lon="18.05641">
        <ele>28.819108</ele>
        <time>2020-08-27T18:43:29.215Z</time>
      </trkpt>
      <trkpt lat="69.13079" lon="18.05647">
        <ele>28.617247</ele>
        <time>2020-08-27T18:43:30.124Z</time>
      </trkpt>
      <trkpt lat="69.13069" lon="18.05622">
        <ele>28.074972</ele>
        <time>2020-08-27T18:43:31.655Z</time>
      </trkpt>
      <trkpt lat="69.13052" lon="18.05544">
        <ele>26.727358</ele>
        <time>2020-08-27T18:43:35.781Z</time>
      </trkpt>
      <trkpt lat="69.13046" lon="18.05424">
        <ele>25.347778</ele>
        <time>2020-08-27T18:43:41.350Z</time>
      </trkpt>
      <trkpt lat="69.13046" lon="18.05414">
        <ele>25.242477</ele>
        <time>2020-08-27T18:43:41.719Z</time>
      </trkpt>
      <trkpt lat="69.1304" lon="18.05408">
        <ele>25.044884</ele>
        <time>2020-08-27T18:43:42.741Z</time>
      </trkpt>
      <trkpt lat="69.12924" lon="18.05205">
        <ele>21.041294</ele>
        <time>2020-08-27T18:44:03.123Z</time>
      </trkpt>
      <trkpt lat="69.12902" lon="18.05181">
        <ele>21.513941</ele>
        <time>2020-08-27T18:44:07.895Z</time>
      </trkpt>
      <trkpt lat="69.12885" lon="18.05169">
        <ele>21.864191</ele>
        <time>2020-08-27T18:44:11.085Z</time>
      </trkpt>
      <trkpt lat="69.12874" lon="18.05159">
        <ele>22.080178</ele>
        <time>2020-08-27T18:44:13.881Z</time>
      </trkpt>
      <trkpt lat="69.12848" lon="18.05118">
        <ele>22.685202</ele>
        <time>2020-08-27T18:44:21.373Z</time>
      </trkpt>
      <trkpt lat="69.12797" lon="18.05008">
        <ele>23.958736</ele>
        <time>2020-08-27T18:44:40.804Z</time>
      </trkpt>
      <trkpt lat="69.12789" lon="18.04995">
        <ele>24.145617</ele>
        <time>2020-08-27T18:44:43.593Z</time>
      </trkpt>
      <trkpt lat="69.12781" lon="18.04981">
        <ele>24.336686</ele>
        <time>2020-08-27T18:44:47.548Z</time>
      </trkpt>
      <trkpt lat="69.1276" lon="18.04955">
        <ele>25.401774</ele>
        <time>2020-08-27T18:44:54.348Z</time>
      </trkpt>
      <trkpt lat="69.12753" lon="18.04948">
        <ele>25.912844</ele>
        <time>2020-08-27T18:44:57.292Z</time>
      </trkpt>
      <trkpt lat="69.12711" lon="18.04896">
        <ele>29.284304</ele>
        <time>2020-08-27T18:45:16.265Z</time>
      </trkpt>
      <trkpt lat="69.12603" lon="18.04739">
        <ele>38.085303</ele>
        <time>2020-08-27T18:46:13.354Z</time>
      </trkpt>
      <trkpt lat="69.12588" lon="18.04716">
        <ele>39.234335</ele>
        <time>2020-08-27T18:46:21.985Z</time>
      </trkpt>
      <trkpt lat="69.12552" lon="18.04671">
        <ele>41.862556</ele>
        <time>2020-08-27T18:46:38.798Z</time>
      </trkpt>
      <trkpt lat="69.12515" lon="18.04622">
        <ele>44.662737</ele>
        <time>2020-08-27T18:46:55.922Z</time>
      </trkpt>
      <trkpt lat="69.12466" lon="18.04555">
        <ele>48.307955</ele>
        <time>2020-08-27T18:47:17.502Z</time>
      </trkpt>
      <trkpt lat="69.12411" lon="18.04485">
        <ele>51.373559</ele>
        <time>2020-08-27T18:47:39.081Z</time>
      </trkpt>
      <trkpt lat="69.12346" lon="18.04472">
        <ele>54.0949</ele>
        <time>2020-08-27T18:48:01.822Z</time>
      </trkpt>
      <trkpt lat="69.12331" lon="18.0445">
        <ele>54.801444</ele>
        <time>2020-08-27T18:48:07.783Z</time>
      </trkpt>
      <trkpt lat="69.12301" lon="18.04367">
        <ele>56.525981</ele>
        <time>2020-08-27T18:48:20.634Z</time>
      </trkpt>
      <trkpt lat="69.12292" lon="18.04346">
        <ele>57.01092</ele>
        <time>2020-08-27T18:48:23.580Z</time>
      </trkpt>
      <trkpt lat="69.12273" lon="18.04303">
        <ele>57.155951</ele>
        <time>2020-08-27T18:48:31.394Z</time>
      </trkpt>
      <trkpt lat="69.12244" lon="18.04229">
        <ele>57.006775</ele>
        <time>2020-08-27T18:48:39.729Z</time>
      </trkpt>
      <trkpt lat="69.12236" lon="18.04191">
        <ele>56.944631</ele>
        <time>2020-08-27T18:48:43.230Z</time>
      </trkpt>
      <trkpt lat="69.12213" lon="18.0388">
        <ele>56.278465</ele>
        <time>2020-08-27T18:49:02.274Z</time>
      </trkpt>
      <trkpt lat="69.12211" lon="18.03864">
        <ele>56.068418</ele>
        <time>2020-08-27T18:49:02.991Z</time>
      </trkpt>
      <trkpt lat="69.12206" lon="18.03819">
        <ele>55.465629</ele>
        <time>2020-08-27T18:49:05.472Z</time>
      </trkpt>
      <trkpt lat="69.12195" lon="18.03754">
        <ele>54.559637</ele>
        <time>2020-08-27T18:49:09.103Z</time>
      </trkpt>
      <trkpt lat="69.12185" lon="18.03719">
        <ele>53.96923</ele>
        <time>2020-08-27T18:49:11.644Z</time>
      </trkpt>
      <trkpt lat="69.12144" lon="18.03644">
        <ele>52.238345</ele>
        <time>2020-08-27T18:49:18.415Z</time>
      </trkpt>
      <trkpt lat="69.11979" lon="18.0354">
        <ele>46.524353</ele>
        <time>2020-08-27T18:49:43.210Z</time>
      </trkpt>
      <trkpt lat="69.11954" lon="18.03529">
        <ele>45.702613</ele>
        <time>2020-08-27T18:49:47.029Z</time>
      </trkpt>
      <trkpt lat="69.11949" lon="18.03527">
        <ele>45.539491</ele>
        <time>2020-08-27T18:49:47.657Z</time>
      </trkpt>
      <trkpt lat="69.11895" lon="18.0347">
        <ele>44.062957</ele>
        <time>2020-08-27T18:49:56.459Z</time>
      </trkpt>
      <trkpt lat="69.11885" lon="18.03452">
        <ele>43.952122</ele>
        <time>2020-08-27T18:49:58.142Z</time>
      </trkpt>
      <trkpt lat="69.1188" lon="18.03444">
        <ele>43.90291</ele>
        <time>2020-08-27T18:49:58.875Z</time>
      </trkpt>
      <trkpt lat="69.11839" lon="18.03402">
        <ele>43.500707</ele>
        <time>2020-08-27T18:50:05.808Z</time>
      </trkpt>
      <trkpt lat="69.11819" lon="18.03381">
        <ele>43.300582</ele>
        <time>2020-08-27T18:50:09.376Z</time>
      </trkpt>
      <trkpt lat="69.11812" lon="18.03373">
        <ele>43.236991</ele>
        <time>2020-08-27T18:50:10.315Z</time>
      </trkpt>
      <trkpt lat="69.11802" lon="18.03362">
        <ele>43.137637</ele>
        <time>2020-08-27T18:50:12.747Z</time>
      </trkpt>
      <trkpt lat="69.11775" lon="18.03348">
        <ele>42.879591</ele>
        <time>2020-08-27T18:50:18.137Z</time>
      </trkpt>
      <trkpt lat="69.11699" lon="18.03344">
        <ele>44.732432</ele>
        <time>2020-08-27T18:50:37.801Z</time>
      </trkpt>
      <trkpt lat="69.11518" lon="18.03168">
        <ele>55.987657</ele>
        <time>2020-08-27T18:51:55.147Z</time>
      </trkpt>
      <trkpt lat="69.11463" lon="18.03093">
        <ele>60.73076</ele>
        <time>2020-08-27T18:52:23.929Z</time>
      </trkpt>
      <trkpt lat="69.11391" lon="18.02994">
        <ele>66.804045</ele>
        <time>2020-08-27T18:53:01.790Z</time>
      </trkpt>
      <trkpt lat="69.11308" lon="18.02881">
        <ele>73.02161</ele>
        <time>2020-08-27T18:53:43.034Z</time>
      </trkpt>
      <trkpt lat="69.11082" lon="18.02577">
        <ele>86.024828</ele>
        <time>2020-08-27T18:55:11.618Z</time>
      </trkpt>
      <trkpt lat="69.10965" lon="18.02417">
        <ele>89.614898</ele>
        <time>2020-08-27T18:55:48.977Z</time>
      </trkpt>
      <trkpt lat="69.10851" lon="18.02259">
        <ele>91.158263</ele>
        <time>2020-08-27T18:56:21.744Z</time>
      </trkpt>
      <trkpt lat="69.10825" lon="18.02219">
        <ele>91.216753</ele>
        <time>2020-08-27T18:56:27.539Z</time>
      </trkpt>
      <trkpt lat="69.10801" lon="18.02192">
        <ele>91.265662</ele>
        <time>2020-08-27T18:56:31.799Z</time>
      </trkpt>
      <trkpt lat="69.10789" lon="18.02175">
        <ele>91.291837</ele>
        <time>2020-08-27T18:56:34.006Z</time>
      </trkpt>
      <trkpt lat="69.10757" lon="18.02117">
        <ele>91.31212</ele>
        <time>2020-08-27T18:56:40.346Z</time>
      </trkpt>
      <trkpt lat="69.10751" lon="18.02044">
        <ele>90.944021</ele>
        <time>2020-08-27T18:56:44.831Z</time>
      </trkpt>
      <trkpt lat="69.10753" lon="18.02021">
        <ele>90.8269</ele>
        <time>2020-08-27T18:56:46.260Z</time>
      </trkpt>
      <trkpt lat="69.10759" lon="18.0198">
        <ele>90.613911</ele>
        <time>2020-08-27T18:56:48.860Z</time>
      </trkpt>
      <trkpt lat="69.10766" lon="18.01926">
        <ele>90.330622</ele>
        <time>2020-08-27T18:56:52.314Z</time>
      </trkpt>
      <trkpt lat="69.10771" lon="18.01884">
        <ele>90.115299</ele>
        <time>2020-08-27T18:56:54.957Z</time>
      </trkpt>
      <trkpt lat="69.10776" lon="18.01841">
        <ele>89.896329</ele>
        <time>2020-08-27T18:56:57.590Z</time>
      </trkpt>
      <trkpt lat="69.10788" lon="18.01738">
        <ele>89.366451</ele>
        <time>2020-08-27T18:57:03.992Z</time>
      </trkpt>
      <trkpt lat="69.10801" lon="18.0159">
        <ele>88.886063</ele>
        <time>2020-08-27T18:57:13.119Z</time>
      </trkpt>
      <trkpt lat="69.10802" lon="18.01514">
        <ele>88.865511</ele>
        <time>2020-08-27T18:57:18.083Z</time>
      </trkpt>
      <trkpt lat="69.10795" lon="18.01423">
        <ele>88.840188</ele>
        <time>2020-08-27T18:57:25.365Z</time>
      </trkpt>
      <trkpt lat="69.10777" lon="18.01326">
        <ele>88.810787</ele>
        <time>2020-08-27T18:57:34.357Z</time>
      </trkpt>
      <trkpt lat="69.10746" lon="18.01174">
        <ele>88.742331</ele>
        <time>2020-08-27T18:57:47.185Z</time>
      </trkpt>
      <trkpt lat="69.10717" lon="18.01068">
        <ele>88.225</ele>
        <time>2020-08-27T18:57:55.729Z</time>
      </trkpt>
      <trkpt lat="69.10613" lon="18.0082">
        <ele>86.731404</ele>
        <time>2020-08-27T18:58:18.412Z</time>
      </trkpt>
      <trkpt lat="69.10413" lon="18.00408">
        <ele>85.298362</ele>
        <time>2020-08-27T18:59:01.528Z</time>
      </trkpt>
      <trkpt lat="69.10316" lon="18.00278">
        <ele>85.984426</ele>
        <time>2020-08-27T18:59:27.792Z</time>
      </trkpt>
      <trkpt lat="69.1023" lon="18.00129">
        <ele>89.337504</ele>
        <time>2020-08-27T18:59:57.491Z</time>
      </trkpt>
      <trkpt lat="69.10068" lon="17.99961">
        <ele>96.572979</ele>
        <time>2020-08-27T19:00:55.481Z</time>
      </trkpt>
      <trkpt lat="69.09933" lon="17.99769">
        <ele>104.267791</ele>
        <time>2020-08-27T19:01:52.364Z</time>
      </trkpt>
      <trkpt lat="69.09822" lon="17.99716">
        <ele>110.314392</ele>
        <time>2020-08-27T19:02:34.530Z</time>
      </trkpt>
      <trkpt lat="69.09793" lon="17.99683">
        <ele>111.676495</ele>
        <time>2020-08-27T19:02:45.280Z</time>
      </trkpt>
      <trkpt lat="69.09752" lon="17.99596">
        <ele>113.888084</ele>
        <time>2020-08-27T19:03:01.943Z</time>
      </trkpt>
      <trkpt lat="69.09696" lon="17.99439">
        <ele>117.326536</ele>
        <time>2020-08-27T19:03:28.542Z</time>
      </trkpt>
      <trkpt lat="69.09681" lon="17.99381">
        <ele>118.381747</ele>
        <time>2020-08-27T19:03:37.401Z</time>
      </trkpt>
      <trkpt lat="69.0968" lon="17.99369">
        <ele>118.528338</ele>
        <time>2020-08-27T19:03:38.362Z</time>
      </trkpt>
      <trkpt lat="69.09623" lon="17.99369">
        <ele>120.525343</ele>
        <time>2020-08-27T19:03:56.067Z</time>
      </trkpt>
      <trkpt lat="69.09568" lon="17.99367">
        <ele>122.439153</ele>
        <time>2020-08-27T19:04:11.685Z</time>
      </trkpt>
      <trkpt lat="69.09509" lon="17.99337">
        <ele>124.397173</ele>
        <time>2020-08-27T19:04:28.557Z</time>
      </trkpt>
      <trkpt lat="69.09445" lon="17.99272">
        <ele>125.382476</ele>
        <time>2020-08-27T19:04:45.486Z</time>
      </trkpt>
      <trkpt lat="69.09323" lon="17.99093">
        <ele>127.390988</ele>
        <time>2020-08-27T19:05:12.971Z</time>
      </trkpt>
      <trkpt lat="69.09253" lon="17.99053">
        <ele>128.443507</ele>
        <time>2020-08-27T19:05:27.972Z</time>
      </trkpt>
      <trkpt lat="69.09161" lon="17.9902">
        <ele>130.06193</ele>
        <time>2020-08-27T19:05:50.631Z</time>
      </trkpt>
      <trkpt lat="69.09049" lon="17.98952">
        <ele>133.604828</ele>
        <time>2020-08-27T19:06:23.017Z</time>
      </trkpt>
      <trkpt lat="69.08876" lon="17.98772">
        <ele>139.121755</ele>
        <time>2020-08-27T19:07:15.572Z</time>
      </trkpt>
      <trkpt lat="69.08852" lon="17.98746">
        <ele>139.896896</ele>
        <time>2020-08-27T19:07:22.354Z</time>
      </trkpt>
      <trkpt lat="69.08832" lon="17.98723">
        <ele>140.490313</ele>
        <time>2020-08-27T19:07:27.526Z</time>
      </trkpt>
      <trkpt lat="69.08752" lon="17.98615">
        <ele>141.682865</ele>
        <time>2020-08-27T19:07:48.149Z</time>
      </trkpt>
      <trkpt lat="69.08623" lon="17.98357">
        <ele>143.626344</ele>
        <time>2020-08-27T19:08:20.294Z</time>
      </trkpt>
      <trkpt lat="69.08398" lon="17.97965">
        <ele>147.307449</ele>
        <time>2020-08-27T19:09:18.541Z</time>
      </trkpt>
      <trkpt lat="69.08302" lon="17.97878">
        <ele>150.00559</ele>
        <time>2020-08-27T19:09:45.936Z</time>
      </trkpt>
      <trkpt lat="69.08158" lon="17.97807">
        <ele>154.130236</ele>
        <time>2020-08-27T19:10:27.809Z</time>
      </trkpt>
      <trkpt lat="69.08118" lon="17.97778">
        <ele>155.074714</ele>
        <time>2020-08-27T19:10:38.696Z</time>
      </trkpt>
      <trkpt lat="69.08037" lon="17.97676">
        <ele>157.126273</ele>
        <time>2020-08-27T19:11:00.030Z</time>
      </trkpt>
      <trkpt lat="69.0796" lon="17.97557">
        <ele>158.245804</ele>
        <time>2020-08-27T19:11:18.140Z</time>
      </trkpt>
      <trkpt lat="69.07881" lon="17.97493">
        <ele>159.215586</ele>
        <time>2020-08-27T19:11:35.355Z</time>
      </trkpt>
      <trkpt lat="69.07832" lon="17.97442">
        <ele>160.271942</ele>
        <time>2020-08-27T19:11:46.776Z</time>
      </trkpt>
      <trkpt lat="69.07573" lon="17.97101">
        <ele>168.26753</ele>
        <time>2020-08-27T19:13:04.205Z</time>
      </trkpt>
      <trkpt lat="69.07484" lon="17.96941">
        <ele>171.907354</ele>
        <time>2020-08-27T19:13:36.128Z</time>
      </trkpt>
      <trkpt lat="69.07377" lon="17.96707">
        <ele>176.407202</ele>
        <time>2020-08-27T19:14:16.642Z</time>
      </trkpt>
      <trkpt lat="69.07359" lon="17.96665">
        <ele>176.81181</ele>
        <time>2020-08-27T19:14:23.114Z</time>
      </trkpt>
      <trkpt lat="69.07317" lon="17.96577">
        <ele>177.679111</ele>
        <time>2020-08-27T19:14:35.680Z</time>
      </trkpt>
      <trkpt lat="69.06951" lon="17.95806">
        <ele>180.185579</ele>
        <time>2020-08-27T19:16:02.215Z</time>
      </trkpt>
      <trkpt lat="69.06714" lon="17.9542">
        <ele>180.789603</ele>
        <time>2020-08-27T19:16:53.358Z</time>
      </trkpt>
      <trkpt lat="69.06502" lon="17.95239">
        <ele>180.536733</ele>
        <time>2020-08-27T19:17:32.831Z</time>
      </trkpt>
      <trkpt lat="69.0644" lon="17.95161">
        <ele>179.908177</ele>
        <time>2020-08-27T19:17:43.383Z</time>
      </trkpt>
      <trkpt lat="69.06332" lon="17.95073">
        <ele>178.369908</ele>
        <time>2020-08-27T19:17:59.807Z</time>
      </trkpt>
      <trkpt lat="69.06146" lon="17.94883">
        <ele>175.771903</ele>
        <time>2020-08-27T19:18:28.923Z</time>
      </trkpt>
      <trkpt lat="69.05841" lon="17.94615">
        <ele>175.191526</ele>
        <time>2020-08-27T19:19:25.379Z</time>
      </trkpt>
      <trkpt lat="69.05739" lon="17.94555">
        <ele>175.254135</ele>
        <time>2020-08-27T19:19:43.613Z</time>
      </trkpt>
      <trkpt lat="69.05637" lon="17.94545">
        <ele>175.4266</ele>
        <time>2020-08-27T19:20:02.043Z</time>
      </trkpt>
      <trkpt lat="69.05493" lon="17.94427">
        <ele>176.680278</ele>
        <time>2020-08-27T19:20:32.541Z</time>
      </trkpt>
      <trkpt lat="69.05321" lon="17.94372">
        <ele>178.791379</ele>
        <time>2020-08-27T19:21:11.670Z</time>
      </trkpt>
      <trkpt lat="69.05224" lon="17.94296">
        <ele>179.861651</ele>
        <time>2020-08-27T19:21:33.578Z</time>
      </trkpt>
      <trkpt lat="69.0521" lon="17.9428">
        <ele>179.962396</ele>
        <time>2020-08-27T19:21:36.735Z</time>
      </trkpt>
      <trkpt lat="69.05187" lon="17.94251">
        <ele>180.138313</ele>
        <time>2020-08-27T19:21:41.679Z</time>
      </trkpt>
      <trkpt lat="69.05141" lon="17.9418">
        <ele>180.497937</ele>
        <time>2020-08-27T19:21:51.810Z</time>
      </trkpt>
      <trkpt lat="69.05131" lon="17.94161">
        <ele>180.582999</ele>
        <time>2020-08-27T19:21:53.982Z</time>
      </trkpt>
      <trkpt lat="69.05116" lon="17.9413">
        <ele>180.712803</ele>
        <time>2020-08-27T19:21:57.662Z</time>
      </trkpt>
      <trkpt lat="69.05026" lon="17.93909">
        <ele>181.700928</ele>
        <time>2020-08-27T19:22:20.125Z</time>
      </trkpt>
      <trkpt lat="69.05018" lon="17.9389">
        <ele>181.79112</ele>
        <time>2020-08-27T19:22:22.325Z</time>
      </trkpt>
      <trkpt lat="69.0501" lon="17.93872">
        <ele>181.874901</ele>
        <time>2020-08-27T19:22:24.459Z</time>
      </trkpt>
      <trkpt lat="69.05003" lon="17.93857">
        <ele>181.95225</ele>
        <time>2020-08-27T19:22:26.460Z</time>
      </trkpt>
      <trkpt lat="69.04982" lon="17.93812">
        <ele>182.176459</ele>
        <time>2020-08-27T19:22:32.562Z</time>
      </trkpt>
      <trkpt lat="69.04966" lon="17.9378">
        <ele>182.386061</ele>
        <time>2020-08-27T19:22:37.208Z</time>
      </trkpt>
      <trkpt lat="69.04946" lon="17.93743">
        <ele>182.930048</ele>
        <time>2020-08-27T19:22:43.012Z</time>
      </trkpt>
      <trkpt lat="69.04913" lon="17.93687">
        <ele>183.832167</ele>
        <time>2020-08-27T19:22:52.691Z</time>
      </trkpt>
      <trkpt lat="69.04869" lon="17.93618">
        <ele>185.019323</ele>
        <time>2020-08-27T19:23:05.934Z</time>
      </trkpt>
      <trkpt lat="69.04788" lon="17.93495">
        <ele>186.979051</ele>
        <time>2020-08-27T19:23:30.224Z</time>
      </trkpt>
      <trkpt lat="69.04722" lon="17.93392">
        <ele>188.21232</ele>
        <time>2020-08-27T19:23:48.681Z</time>
      </trkpt>
      <trkpt lat="69.04678" lon="17.933">
        <ele>189.104236</ele>
        <time>2020-08-27T19:24:00.761Z</time>
      </trkpt>
      <trkpt lat="69.04612" lon="17.93035">
        <ele>188.745777</ele>
        <time>2020-08-27T19:24:21.824Z</time>
      </trkpt>
      <trkpt lat="69.04549" lon="17.92871">
        <ele>188.088203</ele>
        <time>2020-08-27T19:24:34.381Z</time>
      </trkpt>
      <trkpt lat="69.0451" lon="17.92788">
        <ele>186.810508</ele>
        <time>2020-08-27T19:24:41.034Z</time>
      </trkpt>
      <trkpt lat="69.04395" lon="17.9254">
        <ele>183.16996</ele>
        <time>2020-08-27T19:25:00.299Z</time>
      </trkpt>
      <trkpt lat="69.04348" lon="17.92438">
        <ele>182.296108</ele>
        <time>2020-08-27T19:25:08.724Z</time>
      </trkpt>
      <trkpt lat="69.04284" lon="17.92301">
        <ele>181.123617</ele>
        <time>2020-08-27T19:25:20.934Z</time>
      </trkpt>
      <trkpt lat="69.04264" lon="17.92257">
        <ele>180.750774</ele>
        <time>2020-08-27T19:25:25.155Z</time>
      </trkpt>
      <trkpt lat="69.04196" lon="17.92115">
        <ele>180.644942</ele>
        <time>2020-08-27T19:25:39.981Z</time>
      </trkpt>
      <trkpt lat="69.04154" lon="17.92055">
        <ele>180.58928</ele>
        <time>2020-08-27T19:25:48.606Z</time>
      </trkpt>
      <trkpt lat="69.04143" lon="17.92044">
        <ele>180.576071</ele>
        <time>2020-08-27T19:25:50.712Z</time>
      </trkpt>
      <trkpt lat="69.041" lon="17.92001">
        <ele>180.54114</ele>
        <time>2020-08-27T19:25:58.898Z</time>
      </trkpt>
      <trkpt lat="69.04057" lon="17.91939">
        <ele>180.583348</ele>
        <time>2020-08-27T19:26:07.635Z</time>
      </trkpt>
      <trkpt lat="69.03945" lon="17.91637">
        <ele>180.70974</ele>
        <time>2020-08-27T19:26:35.740Z</time>
      </trkpt>
      <trkpt lat="69.03902" lon="17.91545">
        <ele>180.743184</ele>
        <time>2020-08-27T19:26:45.750Z</time>
      </trkpt>
      <trkpt lat="69.0381" lon="17.91393">
        <ele>180.789925</ele>
        <time>2020-08-27T19:27:05.090Z</time>
      </trkpt>
      <trkpt lat="69.03725" lon="17.91291">
        <ele>180.727221</ele>
        <time>2020-08-27T19:27:21.432Z</time>
      </trkpt>
      <trkpt lat="69.03685" lon="17.91215">
        <ele>180.694505</ele>
        <time>2020-08-27T19:27:29.827Z</time>
      </trkpt>
      <trkpt lat="69.0364" lon="17.91079">
        <ele>180.699824</ele>
        <time>2020-08-27T19:27:41.217Z</time>
      </trkpt>
      <trkpt lat="69.03576" lon="17.90768">
        <ele>180.765519</ele>
        <time>2020-08-27T19:28:04.398Z</time>
      </trkpt>
      <trkpt lat="69.0357" lon="17.90736">
        <ele>180.792903</ele>
        <time>2020-08-27T19:28:06.774Z</time>
      </trkpt>
      <trkpt lat="69.03559" lon="17.90677">
        <ele>180.947968</ele>
        <time>2020-08-27T19:28:11.407Z</time>
      </trkpt>
      <trkpt lat="69.03548" lon="17.90601">
        <ele>181.141891</ele>
        <time>2020-08-27T19:28:17.286Z</time>
      </trkpt>
      <trkpt lat="69.03536" lon="17.90459">
        <ele>181.484608</ele>
        <time>2020-08-27T19:28:28.027Z</time>
      </trkpt>
      <trkpt lat="69.03508" lon="17.90034">
        <ele>182.444536</ele>
        <time>2020-08-27T19:28:59.502Z</time>
      </trkpt>
      <trkpt lat="69.03501" lon="17.89936">
        <ele>182.654753</ele>
        <time>2020-08-27T19:29:06.494Z</time>
      </trkpt>
      <trkpt lat="69.03496" lon="17.89735">
        <ele>183.071</ele>
        <time>2020-08-27T19:29:20.262Z</time>
      </trkpt>
      <trkpt lat="69.03504" lon="17.89577">
        <ele>183.365866</ele>
        <time>2020-08-27T19:29:30.831Z</time>
      </trkpt>
      <trkpt lat="69.03608" lon="17.88437">
        <ele>185.587227</ele>
        <time>2020-08-27T19:30:53.569Z</time>
      </trkpt>
      <trkpt lat="69.03711" lon="17.87827">
        <ele>186.804692</ele>
        <time>2020-08-27T19:31:41.139Z</time>
      </trkpt>
      <trkpt lat="69.03749" lon="17.87516">
        <ele>186.963701</ele>
        <time>2020-08-27T19:32:02.954Z</time>
      </trkpt>
      <trkpt lat="69.03765" lon="17.87441">
        <ele>187.005836</ele>
        <time>2020-08-27T19:32:08.450Z</time>
      </trkpt>
      <trkpt lat="69.03828" lon="17.87202">
        <ele>186.513823</ele>
        <time>2020-08-27T19:32:26.119Z</time>
      </trkpt>
      <trkpt lat="69.03841" lon="17.87114">
        <ele>186.310623</ele>
        <time>2020-08-27T19:32:31.647Z</time>
      </trkpt>
      <trkpt lat="69.03851" lon="17.86995">
        <ele>186.048194</ele>
        <time>2020-08-27T19:32:38.608Z</time>
      </trkpt>
      <trkpt lat="69.03939" lon="17.85425">
        <ele>181.103247</ele>
        <time>2020-08-27T19:34:07.653Z</time>
      </trkpt>
      <trkpt lat="69.0394" lon="17.85256">
        <ele>180.835301</ele>
        <time>2020-08-27T19:34:17.537Z</time>
      </trkpt>
      <trkpt lat="69.0392" lon="17.84759">
        <ele>180.38954</ele>
        <time>2020-08-27T19:34:48.284Z</time>
      </trkpt>
      <trkpt lat="69.03968" lon="17.84102">
        <ele>180.977919</ele>
        <time>2020-08-27T19:35:32.817Z</time>
      </trkpt>
      <trkpt lat="69.03966" lon="17.84003">
        <ele>181.126175</ele>
        <time>2020-08-27T19:35:39.892Z</time>
      </trkpt>
      <trkpt lat="69.03959" lon="17.83939">
        <ele>181.365579</ele>
        <time>2020-08-27T19:35:44.765Z</time>
      </trkpt>
      <trkpt lat="69.03915" lon="17.83723">
        <ele>182.722336</ele>
        <time>2020-08-27T19:36:04.033Z</time>
      </trkpt>
      <trkpt lat="69.03911" lon="17.83696">
        <ele>182.878175</ele>
        <time>2020-08-27T19:36:06.501Z</time>
      </trkpt>
      <trkpt lat="69.03908" lon="17.83665">
        <ele>183.054469</ele>
        <time>2020-08-27T19:36:09.238Z</time>
      </trkpt>
      <trkpt lat="69.03903" lon="17.83533">
        <ele>183.779093</ele>
        <time>2020-08-27T19:36:20.706Z</time>
      </trkpt>
      <trkpt lat="69.03904" lon="17.83182">
        <ele>187.092009</ele>
        <time>2020-08-27T19:36:54.264Z</time>
      </trkpt>
      <trkpt lat="69.03929" lon="17.8282">
        <ele>190.420505</ele>
        <time>2020-08-27T19:37:30.005Z</time>
      </trkpt>
      <trkpt lat="69.03935" lon="17.82488">
        <ele>193.130285</ele>
        <time>2020-08-27T19:37:59.272Z</time>
      </trkpt>
      <trkpt lat="69.03948" lon="17.82225">
        <ele>194.503276</ele>
        <time>2020-08-27T19:38:20.629Z</time>
      </trkpt>
      <trkpt lat="69.03957" lon="17.82114">
        <ele>195.095964</ele>
        <time>2020-08-27T19:38:29.704Z</time>
      </trkpt>
      <trkpt lat="69.03975" lon="17.82">
        <ele>195.623689</ele>
        <time>2020-08-27T19:38:39.401Z</time>
      </trkpt>
      <trkpt lat="69.04003" lon="17.81916">
        <ele>195.653959</ele>
        <time>2020-08-27T19:38:48.041Z</time>
      </trkpt>
      <trkpt lat="69.04034" lon="17.81858">
        <ele>195.681757</ele>
        <time>2020-08-27T19:38:55.575Z</time>
      </trkpt>
      <trkpt lat="69.04068" lon="17.81838">
        <ele>195.707285</ele>
        <time>2020-08-27T19:39:01.899Z</time>
      </trkpt>
      <trkpt lat="69.04109" lon="17.81832">
        <ele>195.737983</ele>
        <time>2020-08-27T19:39:08.791Z</time>
      </trkpt>
      <trkpt lat="69.04159" lon="17.81887">
        <ele>194.498304</ele>
        <time>2020-08-27T19:39:16.897Z</time>
      </trkpt>
      <trkpt lat="69.04465" lon="17.82598">
        <ele>176.871505</ele>
        <time>2020-08-27T19:40:06.480Z</time>
      </trkpt>
      <trkpt lat="69.04485" lon="17.82636">
        <ele>175.262615</ele>
        <time>2020-08-27T19:40:09.182Z</time>
      </trkpt>
      <trkpt lat="69.04522" lon="17.82683">
        <ele>172.503327</ele>
        <time>2020-08-27T19:40:13.802Z</time>
      </trkpt>
      <trkpt lat="69.04562" lon="17.82684">
        <ele>169.863662</ele>
        <time>2020-08-27T19:40:18.179Z</time>
      </trkpt>
      <trkpt lat="69.04596" lon="17.82667">
        <ele>166.941017</ele>
        <time>2020-08-27T19:40:22.066Z</time>
      </trkpt>
      <trkpt lat="69.04751" lon="17.82421">
        <ele>152.685384</ele>
        <time>2020-08-27T19:40:42.000Z</time>
      </trkpt>
      <trkpt lat="69.0479" lon="17.82397">
        <ele>149.972044</ele>
        <time>2020-08-27T19:40:46.719Z</time>
      </trkpt>
      <trkpt lat="69.04909" lon="17.82412">
        <ele>142.094889</ele>
        <time>2020-08-27T19:41:00.704Z</time>
      </trkpt>
      <trkpt lat="69.04963" lon="17.82388">
        <ele>138.869385</ele>
        <time>2020-08-27T19:41:07.153Z</time>
      </trkpt>
      <trkpt lat="69.05097" lon="17.8228">
        <ele>131.011332</ele>
        <time>2020-08-27T19:41:23.528Z</time>
      </trkpt>
      <trkpt lat="69.05168" lon="17.82208">
        <ele>127.534127</ele>
        <time>2020-08-27T19:41:32.640Z</time>
      </trkpt>
      <trkpt lat="69.05204" lon="17.82149">
        <ele>125.626471</ele>
        <time>2020-08-27T19:41:37.856Z</time>
      </trkpt>
      <trkpt lat="69.05232" lon="17.82093">
        <ele>124.03062</ele>
        <time>2020-08-27T19:41:42.360Z</time>
      </trkpt>
      <trkpt lat="69.05287" lon="17.81976">
        <ele>122.836251</ele>
        <time>2020-08-27T19:41:51.753Z</time>
      </trkpt>
      <trkpt lat="69.05413" lon="17.81697">
        <ele>120.683967</ele>
        <time>2020-08-27T19:42:16.985Z</time>
      </trkpt>
      <trkpt lat="69.05444" lon="17.81586">
        <ele>120.379352</ele>
        <time>2020-08-27T19:42:25.348Z</time>
      </trkpt>
      <trkpt lat="69.05452" lon="17.81496">
        <ele>120.181543</ele>
        <time>2020-08-27T19:42:30.780Z</time>
      </trkpt>
      <trkpt lat="69.05475" lon="17.81005">
        <ele>119.369305</ele>
        <time>2020-08-27T19:43:00.261Z</time>
      </trkpt>
      <trkpt lat="69.05471" lon="17.80869">
        <ele>119.173533</ele>
        <time>2020-08-27T19:43:08.397Z</time>
      </trkpt>
      <trkpt lat="69.05469" lon="17.80847">
        <ele>119.167876</ele>
        <time>2020-08-27T19:43:09.922Z</time>
      </trkpt>
      <trkpt lat="69.05463" lon="17.80806">
        <ele>119.185551</ele>
        <time>2020-08-27T19:43:12.461Z</time>
      </trkpt>
      <trkpt lat="69.054" lon="17.80461">
        <ele>119.33603</ele>
        <time>2020-08-27T19:43:37.429Z</time>
      </trkpt>
      <trkpt lat="69.05394" lon="17.80405">
        <ele>119.364143</ele>
        <time>2020-08-27T19:43:41.489Z</time>
      </trkpt>
      <trkpt lat="69.05393" lon="17.80309">
        <ele>119.700265</ele>
        <time>2020-08-27T19:43:48.687Z</time>
      </trkpt>
      <trkpt lat="69.0541" lon="17.80192">
        <ele>120.139963</ele>
        <time>2020-08-27T19:43:58.280Z</time>
      </trkpt>
      <trkpt lat="69.05451" lon="17.80075">
        <ele>120.712072</ele>
        <time>2020-08-27T19:44:11.078Z</time>
      </trkpt>
      <trkpt lat="69.05476" lon="17.79985">
        <ele>121.10375</ele>
        <time>2020-08-27T19:44:19.872Z</time>
      </trkpt>
      <trkpt lat="69.05515" lon="17.79765">
        <ele>121.597487</ele>
        <time>2020-08-27T19:44:37.680Z</time>
      </trkpt>
      <trkpt lat="69.0552" lon="17.797">
        <ele>121.731052</ele>
        <time>2020-08-27T19:44:42.083Z</time>
      </trkpt>
      <trkpt lat="69.05525" lon="17.79638">
        <ele>121.85889</ele>
        <time>2020-08-27T19:44:46.122Z</time>
      </trkpt>
      <trkpt lat="69.05516" lon="17.7935">
        <ele>122.682839</ele>
        <time>2020-08-27T19:45:05.787Z</time>
      </trkpt>
      <trkpt lat="69.0552" lon="17.79237">
        <ele>123.08302</ele>
        <time>2020-08-27T19:45:14.207Z</time>
      </trkpt>
      <trkpt lat="69.05527" lon="17.79144">
        <ele>123.417758</ele>
        <time>2020-08-27T19:45:21.456Z</time>
      </trkpt>
      <trkpt lat="69.05542" lon="17.7904">
        <ele>123.813818</ele>
        <time>2020-08-27T19:45:30.576Z</time>
      </trkpt>
      <trkpt lat="69.05608" lon="17.78642">
        <ele>126.613159</ele>
        <time>2020-08-27T19:46:08.765Z</time>
      </trkpt>
      <trkpt lat="69.05639" lon="17.78527">
        <ele>127.376692</ele>
        <time>2020-08-27T19:46:20.323Z</time>
      </trkpt>
      <trkpt lat="69.05678" lon="17.78437">
        <ele>127.867963</ele>
        <time>2020-08-27T19:46:31.289Z</time>
      </trkpt>
      <trkpt lat="69.05869" lon="17.78095">
        <ele>129.776106</ele>
        <time>2020-08-27T19:47:16.680Z</time>
      </trkpt>
      <trkpt lat="69.05905" lon="17.78003">
        <ele>130.125931</ele>
        <time>2020-08-27T19:47:26.414Z</time>
      </trkpt>
      <trkpt lat="69.05925" lon="17.77863">
        <ele>130.827375</ele>
        <time>2020-08-27T19:47:37.488Z</time>
      </trkpt>
      <trkpt lat="69.05942" lon="17.77669">
        <ele>131.885815</ele>
        <time>2020-08-27T19:47:54.253Z</time>
      </trkpt>
      <trkpt lat="69.05951" lon="17.77402">
        <ele>132.848401</ele>
        <time>2020-08-27T19:48:17.110Z</time>
      </trkpt>
      <trkpt lat="69.05955" lon="17.77351">
        <ele>132.82482</ele>
        <time>2020-08-27T19:48:21.253Z</time>
      </trkpt>
      <trkpt lat="69.05959" lon="17.77309">
        <ele>132.804992</ele>
        <time>2020-08-27T19:48:24.740Z</time>
      </trkpt>
      <trkpt lat="69.06007" lon="17.76955">
        <ele>131.754664</ele>
        <time>2020-08-27T19:48:46.749Z</time>
      </trkpt>
      <trkpt lat="69.06037" lon="17.76679">
        <ele>126.652408</ele>
        <time>2020-08-27T19:48:59.199Z</time>
      </trkpt>
      <trkpt lat="69.06075" lon="17.76539">
        <ele>123.444479</ele>
        <time>2020-08-27T19:49:06.461Z</time>
      </trkpt>
      <trkpt lat="69.06094" lon="17.76502">
        <ele>121.751922</ele>
        <time>2020-08-27T19:49:09.190Z</time>
      </trkpt>
      <trkpt lat="69.06117" lon="17.76472">
        <ele>119.946765</ele>
        <time>2020-08-27T19:49:12.054Z</time>
      </trkpt>
      <trkpt lat="69.06124" lon="17.76462">
        <ele>119.390469</ele>
        <time>2020-08-27T19:49:12.915Z</time>
      </trkpt>
      <trkpt lat="69.06187" lon="17.76364">
        <ele>114.23613</ele>
        <time>2020-08-27T19:49:21.060Z</time>
      </trkpt>
      <trkpt lat="69.06229" lon="17.76277">
        <ele>110.616352</ele>
        <time>2020-08-27T19:49:27.126Z</time>
      </trkpt>
      <trkpt lat="69.06236" lon="17.76253">
        <ele>110.101336</ele>
        <time>2020-08-27T19:49:28.362Z</time>
      </trkpt>
      <trkpt lat="69.06251" lon="17.76183">
        <ele>108.744734</ele>
        <time>2020-08-27T19:49:31.861Z</time>
      </trkpt>
      <trkpt lat="69.06263" lon="17.7609">
        <ele>107.095409</ele>
        <time>2020-08-27T19:49:36.179Z</time>
      </trkpt>
      <trkpt lat="69.06263" lon="17.75886">
        <ele>103.716967</ele>
        <time>2020-08-27T19:49:45.228Z</time>
      </trkpt>
      <trkpt lat="69.06264" lon="17.75853">
        <ele>103.171941</ele>
        <time>2020-08-27T19:49:46.667Z</time>
      </trkpt>
      <trkpt lat="69.06263" lon="17.75738">
        <ele>102.220355</ele>
        <time>2020-08-27T19:49:52.385Z</time>
      </trkpt>
      <trkpt lat="69.06264" lon="17.7569">
        <ele>102.039973</ele>
        <time>2020-08-27T19:49:55.006Z</time>
      </trkpt>
      <trkpt lat="69.06264" lon="17.7564">
        <ele>101.853252</ele>
        <time>2020-08-27T19:49:57.830Z</time>
      </trkpt>
      <trkpt lat="69.06263" lon="17.7536">
        <ele>100.796266</ele>
        <time>2020-08-27T19:50:14.462Z</time>
      </trkpt>
      <trkpt lat="69.06263" lon="17.75282">
        <ele>100.450535</ele>
        <time>2020-08-27T19:50:19.085Z</time>
      </trkpt>
      <trkpt lat="69.06263" lon="17.75265">
        <ele>100.358555</ele>
        <time>2020-08-27T19:50:20.513Z</time>
      </trkpt>
      <trkpt lat="69.06255" lon="17.75038">
        <ele>99.086739</ele>
        <time>2020-08-27T19:50:34.163Z</time>
      </trkpt>
      <trkpt lat="69.06259" lon="17.74923">
        <ele>98.441676</ele>
        <time>2020-08-27T19:50:39.874Z</time>
      </trkpt>
      <trkpt lat="69.06269" lon="17.7484">
        <ele>97.951315</ele>
        <time>2020-08-27T19:50:44.024Z</time>
      </trkpt>
      <trkpt lat="69.06303" lon="17.74646">
        <ele>94.510476</ele>
        <time>2020-08-27T19:50:53.862Z</time>
      </trkpt>
      <trkpt lat="69.0631" lon="17.74589">
        <ele>93.444195</ele>
        <time>2020-08-27T19:50:56.559Z</time>
      </trkpt>
      <trkpt lat="69.06311" lon="17.74578">
        <ele>93.247029</ele>
        <time>2020-08-27T19:50:57.038Z</time>
      </trkpt>
      <trkpt lat="69.06313" lon="17.7447">
        <ele>91.351997</ele>
        <time>2020-08-27T19:51:01.646Z</time>
      </trkpt>
      <trkpt lat="69.063" lon="17.74292">
        <ele>88.128898</ele>
        <time>2020-08-27T19:51:09.211Z</time>
      </trkpt>
      <trkpt lat="69.06298" lon="17.74153">
        <ele>85.505956</ele>
        <time>2020-08-27T19:51:15.091Z</time>
      </trkpt>
      <trkpt lat="69.06298" lon="17.74114">
        <ele>84.782263</ele>
        <time>2020-08-27T19:51:16.711Z</time>
      </trkpt>
      <trkpt lat="69.06299" lon="17.74097">
        <ele>84.451468</ele>
        <time>2020-08-27T19:51:17.433Z</time>
      </trkpt>
      <trkpt lat="69.06301" lon="17.74001">
        <ele>82.641079</ele>
        <time>2020-08-27T19:51:21.598Z</time>
      </trkpt>
      <trkpt lat="69.06303" lon="17.73822">
        <ele>79.467609</ele>
        <time>2020-08-27T19:51:29.574Z</time>
      </trkpt>
      <trkpt lat="69.06305" lon="17.73731">
        <ele>78.920298</ele>
        <time>2020-08-27T19:51:33.694Z</time>
      </trkpt>
      <trkpt lat="69.06305" lon="17.73641">
        <ele>78.378753</ele>
        <time>2020-08-27T19:51:37.949Z</time>
      </trkpt>
      <trkpt lat="69.06304" lon="17.73577">
        <ele>77.994868</ele>
        <time>2020-08-27T19:51:41.323Z</time>
      </trkpt>
      <trkpt lat="69.06275" lon="17.73579">
        <ele>77.505979</ele>
        <time>2020-08-27T19:51:45.875Z</time>
      </trkpt>
      <trkpt lat="69.06192" lon="17.73567">
        <ele>76.795567</ele>
        <time>2020-08-27T19:52:00.883Z</time>
      </trkpt>
      <trkpt lat="69.06164" lon="17.7354">
        <ele>77.105797</ele>
        <time>2020-08-27T19:52:07.152Z</time>
      </trkpt>
      <trkpt lat="69.06142" lon="17.73508">
        <ele>77.373951</ele>
        <time>2020-08-27T19:52:12.969Z</time>
      </trkpt>
      <trkpt lat="69.06126" lon="17.7348">
        <ele>77.570022</ele>
        <time>2020-08-27T19:52:17.136Z</time>
      </trkpt>
      <trkpt lat="69.06119" lon="17.73465">
        <ele>77.664297</ele>
        <time>2020-08-27T19:52:19.087Z</time>
      </trkpt>
      <trkpt lat="69.06111" lon="17.73449">
        <ele>77.769231</ele>
        <time>2020-08-27T19:52:21.324Z</time>
      </trkpt>
      <trkpt lat="69.06101" lon="17.7343">
        <ele>77.896164</ele>
        <time>2020-08-27T19:52:23.974Z</time>
      </trkpt>
      <trkpt lat="69.06088" lon="17.73408">
        <ele>78.057624</ele>
        <time>2020-08-27T19:52:27.282Z</time>
      </trkpt>
      <trkpt lat="69.06076" lon="17.73391">
        <ele>78.204185</ele>
        <time>2020-08-27T19:52:30.413Z</time>
      </trkpt>
      <trkpt lat="69.06063" lon="17.73377">
        <ele>78.351519</ele>
        <time>2020-08-27T19:52:33.384Z</time>
      </trkpt>
      <trkpt lat="69.06037" lon="17.73359">
        <ele>78.717616</ele>
        <time>2020-08-27T19:52:39.276Z</time>
      </trkpt>
      <trkpt lat="69.06026" lon="17.73353">
        <ele>78.887045</ele>
        <time>2020-08-27T19:52:41.624Z</time>
      </trkpt>
      <trkpt lat="69.05982" lon="17.73353">
        <ele>79.557587</ele>
        <time>2020-08-27T19:52:51.004Z</time>
      </trkpt>
      <trkpt lat="69.05918" lon="17.73371">
        <ele>80.534252</ele>
        <time>2020-08-27T19:53:05.390Z</time>
      </trkpt>
      <trkpt lat="69.05854" lon="17.73363">
        <ele>81.799884</ele>
        <time>2020-08-27T19:53:21.005Z</time>
      </trkpt>
      <trkpt lat="69.05838" lon="17.73358">
        <ele>82.249994</ele>
        <time>2020-08-27T19:53:25.135Z</time>
      </trkpt>
      <trkpt lat="69.05801" lon="17.73338">
        <ele>83.328006</ele>
        <time>2020-08-27T19:53:35.031Z</time>
      </trkpt>
      <trkpt lat="69.05785" lon="17.73324">
        <ele>83.812504</ele>
        <time>2020-08-27T19:53:39.468Z</time>
      </trkpt>
      <trkpt lat="69.05769" lon="17.73312">
        <ele>84.302557</ele>
        <time>2020-08-27T19:53:44.291Z</time>
      </trkpt>
      <trkpt lat="69.05737" lon="17.73286">
        <ele>85.25429</ele>
        <time>2020-08-27T19:53:53.697Z</time>
      </trkpt>
      <trkpt lat="69.05625" lon="17.73189">
        <ele>88.576609</ele>
        <time>2020-08-27T19:54:27.801Z</time>
      </trkpt>
      <trkpt lat="69.0556" lon="17.73159">
        <ele>90.425993</ele>
        <time>2020-08-27T19:54:45.255Z</time>
      </trkpt>
      <trkpt lat="69.05457" lon="17.7315">
        <ele>92.137969</ele>
        <time>2020-08-27T19:55:09.275Z</time>
      </trkpt>
      <trkpt lat="69.05327" lon="17.73165">
        <ele>93.381001</ele>
        <time>2020-08-27T19:55:35.142Z</time>
      </trkpt>
      <trkpt lat="69.0529" lon="17.73158">
        <ele>93.480568</ele>
        <time>2020-08-27T19:55:42.007Z</time>
      </trkpt>
      <trkpt lat="69.05151" lon="17.73015">
        <ele>93.94447</ele>
        <time>2020-08-27T19:56:09.322Z</time>
      </trkpt>
      <trkpt lat="69.05092" lon="17.72986">
        <ele>94.26658</ele>
        <time>2020-08-27T19:56:20.682Z</time>
      </trkpt>
      <trkpt lat="69.05024" lon="17.73012">
        <ele>94.636825</ele>
        <time>2020-08-27T19:56:34.066Z</time>
      </trkpt>
      <trkpt lat="69.04803" lon="17.73174">
        <ele>97.347787</ele>
        <time>2020-08-27T19:57:23.179Z</time>
      </trkpt>
      <trkpt lat="69.04751" lon="17.73177">
        <ele>98.405497</ele>
        <time>2020-08-27T19:57:36.243Z</time>
      </trkpt>
      <trkpt lat="69.04721" lon="17.73157">
        <ele>99.018517</ele>
        <time>2020-08-27T19:57:43.698Z</time>
      </trkpt>
      <trkpt lat="69.04699" lon="17.73136">
        <ele>99.493433</ele>
        <time>2020-08-27T19:57:49.468Z</time>
      </trkpt>
      <trkpt lat="69.04684" lon="17.73121">
        <ele>99.825315</ele>
        <time>2020-08-27T19:57:53.832Z</time>
      </trkpt>
      <trkpt lat="69.04629" lon="17.73066">
        <ele>100.882132</ele>
        <time>2020-08-27T19:58:08.373Z</time>
      </trkpt>
      <trkpt lat="69.04549" lon="17.73039">
        <ele>102.053768</ele>
        <time>2020-08-27T19:58:28.128Z</time>
      </trkpt>
      <trkpt lat="69.04476" lon="17.73052">
        <ele>103.122379</ele>
        <time>2020-08-27T19:58:42.742Z</time>
      </trkpt>
      <trkpt lat="69.04388" lon="17.73093">
        <ele>103.010054</ele>
        <time>2020-08-27T19:58:59.102Z</time>
      </trkpt>
      <trkpt lat="69.0438" lon="17.731">
        <ele>102.992939</ele>
        <time>2020-08-27T19:59:00.472Z</time>
      </trkpt>
      <trkpt lat="69.04375" lon="17.73105">
        <ele>102.984287</ele>
        <time>2020-08-27T19:59:01.207Z</time>
      </trkpt>
      <trkpt lat="69.04243" lon="17.73181">
        <ele>102.655706</ele>
        <time>2020-08-27T19:59:23.300Z</time>
      </trkpt>
      <trkpt lat="69.0422" lon="17.73194">
        <ele>102.581448</ele>
        <time>2020-08-27T19:59:27.176Z</time>
      </trkpt>
      <trkpt lat="69.04205" lon="17.73201">
        <ele>102.535359</ele>
        <time>2020-08-27T19:59:29.633Z</time>
      </trkpt>
      <trkpt lat="69.04162" lon="17.73214">
        <ele>102.399694</ele>
        <time>2020-08-27T19:59:37.028Z</time>
      </trkpt>
      <trkpt lat="69.04148" lon="17.73215">
        <ele>102.354451</ele>
        <time>2020-08-27T19:59:39.548Z</time>
      </trkpt>
      <trkpt lat="69.04124" lon="17.73213">
        <ele>102.279552</ele>
        <time>2020-08-27T19:59:43.710Z</time>
      </trkpt>
      <trkpt lat="69.04031" lon="17.73211">
        <ele>103.543493</ele>
        <time>2020-08-27T20:00:01.504Z</time>
      </trkpt>
      <trkpt lat="69.03917" lon="17.73263">
        <ele>105.556369</ele>
        <time>2020-08-27T20:00:31.036Z</time>
      </trkpt>
      <trkpt lat="69.03903" lon="17.73272">
        <ele>105.987366</ele>
        <time>2020-08-27T20:00:35.516Z</time>
      </trkpt>
      <trkpt lat="69.03808" lon="17.73322">
        <ele>108.851078</ele>
        <time>2020-08-27T20:01:02.567Z</time>
      </trkpt>
      <trkpt lat="69.03803" lon="17.73324">
        <ele>109.004278</ele>
        <time>2020-08-27T20:01:04.330Z</time>
      </trkpt>
      <trkpt lat="69.03743" lon="17.73352">
        <ele>110.362344</ele>
        <time>2020-08-27T20:01:20.774Z</time>
      </trkpt>
      <trkpt lat="69.03699" lon="17.73359">
        <ele>110.700441</ele>
        <time>2020-08-27T20:01:31.144Z</time>
      </trkpt>
      <trkpt lat="69.03671" lon="17.73361">
        <ele>110.919932</ele>
        <time>2020-08-27T20:01:36.997Z</time>
      </trkpt>
      <trkpt lat="69.03655" lon="17.73361">
        <ele>111.043639</ele>
        <time>2020-08-27T20:01:40.020Z</time>
      </trkpt>
      <trkpt lat="69.03614" lon="17.7337">
        <ele>111.369942</ele>
        <time>2020-08-27T20:01:46.742Z</time>
      </trkpt>
      <trkpt lat="69.03552" lon="17.73432">
        <ele>111.487676</ele>
        <time>2020-08-27T20:01:57.362Z</time>
      </trkpt>
      <trkpt lat="69.03525" lon="17.73472">
        <ele>111.383259</ele>
        <time>2020-08-27T20:02:02.312Z</time>
      </trkpt>
      <trkpt lat="69.03505" lon="17.735">
        <ele>111.309999</ele>
        <time>2020-08-27T20:02:05.647Z</time>
      </trkpt>
      <trkpt lat="69.0347" lon="17.73545">
        <ele>111.177864</ele>
        <time>2020-08-27T20:02:11.981Z</time>
      </trkpt>
      <trkpt lat="69.03456" lon="17.73563">
        <ele>111.125307</ele>
        <time>2020-08-27T20:02:14.825Z</time>
      </trkpt>
      <trkpt lat="69.03256" lon="17.73805">
        <ele>112.152405</ele>
        <time>2020-08-27T20:02:57.609Z</time>
      </trkpt>
      <trkpt lat="69.0323" lon="17.73826">
        <ele>112.37342</ele>
        <time>2020-08-27T20:03:03.796Z</time>
      </trkpt>
      <trkpt lat="69.03215" lon="17.73838">
        <ele>112.498647</ele>
        <time>2020-08-27T20:03:07.040Z</time>
      </trkpt>
      <trkpt lat="69.03207" lon="17.73844">
        <ele>112.568171</ele>
        <time>2020-08-27T20:03:09.187Z</time>
      </trkpt>
      <trkpt lat="69.03144" lon="17.73855">
        <ele>113.070854</ele>
        <time>2020-08-27T20:03:22.377Z</time>
      </trkpt>
      <trkpt lat="69.03133" lon="17.73857">
        <ele>113.158923</ele>
        <time>2020-08-27T20:03:24.910Z</time>
      </trkpt>
      <trkpt lat="69.03115" lon="17.73856">
        <ele>113.309759</ele>
        <time>2020-08-27T20:03:28.733Z</time>
      </trkpt>
      <trkpt lat="69.02855" lon="17.73806">
        <ele>113.890036</ele>
        <time>2020-08-27T20:04:15.100Z</time>
      </trkpt>
      <trkpt lat="69.02759" lon="17.73822">
        <ele>114.268004</ele>
        <time>2020-08-27T20:04:33.207Z</time>
      </trkpt>
      <trkpt lat="69.02737" lon="17.73829">
        <ele>114.355188</ele>
        <time>2020-08-27T20:04:37.417Z</time>
      </trkpt>
      <trkpt lat="69.02732" lon="17.7383">
        <ele>114.373635</ele>
        <time>2020-08-27T20:04:38.668Z</time>
      </trkpt>
      <trkpt lat="69.02617" lon="17.7385">
        <ele>115.55366</ele>
        <time>2020-08-27T20:05:03.524Z</time>
      </trkpt>
      <trkpt lat="69.02479" lon="17.73807">
        <ele>117.338962</ele>
        <time>2020-08-27T20:05:33.633Z</time>
      </trkpt>
      <trkpt lat="69.02362" lon="17.73762">
        <ele>119.140829</ele>
        <time>2020-08-27T20:06:00.348Z</time>
      </trkpt>
      <trkpt lat="69.02332" lon="17.73751">
        <ele>120.135023</ele>
        <time>2020-08-27T20:06:07.773Z</time>
      </trkpt>
      <trkpt lat="69.02199" lon="17.73709">
        <ele>124.521784</ele>
        <time>2020-08-27T20:06:45.799Z</time>
      </trkpt>
      <trkpt lat="69.02139" lon="17.73715">
        <ele>127.505474</ele>
        <time>2020-08-27T20:07:06.059Z</time>
      </trkpt>
      <trkpt lat="69.02037" lon="17.73748">
        <ele>133.17783</ele>
        <time>2020-08-27T20:07:43.614Z</time>
      </trkpt>
      <trkpt lat="69.01982" lon="17.73763">
        <ele>136.65483</ele>
        <time>2020-08-27T20:08:04.089Z</time>
      </trkpt>
      <trkpt lat="69.01935" lon="17.7378">
        <ele>140.185418</ele>
        <time>2020-08-27T20:08:22.336Z</time>
      </trkpt>
      <trkpt lat="69.01851" lon="17.73805">
        <ele>146.470798</ele>
        <time>2020-08-27T20:08:59.949Z</time>
      </trkpt>
      <trkpt lat="69.01808" lon="17.73804">
        <ele>149.943149</ele>
        <time>2020-08-27T20:09:18.843Z</time>
      </trkpt>
      <trkpt lat="69.01787" lon="17.73796">
        <ele>151.729762</ele>
        <time>2020-08-27T20:09:27.731Z</time>
      </trkpt>
      <trkpt lat="69.01777" lon="17.73789">
        <ele>152.625967</ele>
        <time>2020-08-27T20:09:32.822Z</time>
      </trkpt>
      <trkpt lat="69.01726" lon="17.73731">
        <ele>157.439789</ele>
        <time>2020-08-27T20:09:57.418Z</time>
      </trkpt>
      <trkpt lat="69.01698" lon="17.73676">
        <ele>160.390986</ele>
        <time>2020-08-27T20:10:13.507Z</time>
      </trkpt>
      <trkpt lat="69.01677" lon="17.73611">
        <ele>163.102938</ele>
        <time>2020-08-27T20:10:28.818Z</time>
      </trkpt>
      <trkpt lat="69.01643" lon="17.73445">
        <ele>168.970606</ele>
        <time>2020-08-27T20:11:00.647Z</time>
      </trkpt>
      <trkpt lat="69.01598" lon="17.73179">
        <ele>177.929689</ele>
        <time>2020-08-27T20:11:47.664Z</time>
      </trkpt>
      <trkpt lat="69.01575" lon="17.73098">
        <ele>180.657446</ele>
        <time>2020-08-27T20:12:04.348Z</time>
      </trkpt>
      <trkpt lat="69.01546" lon="17.73042">
        <ele>182.882059</ele>
        <time>2020-08-27T20:12:19.363Z</time>
      </trkpt>
      <trkpt lat="69.0145" lon="17.72952">
        <ele>189.286029</ele>
        <time>2020-08-27T20:12:58.494Z</time>
      </trkpt>
      <trkpt lat="69.01308" lon="17.72846">
        <ele>193.353877</ele>
        <time>2020-08-27T20:13:38.290Z</time>
      </trkpt>
      <trkpt lat="69.01221" lon="17.72797">
        <ele>194.378411</ele>
        <time>2020-08-27T20:13:53.756Z</time>
      </trkpt>
      <trkpt lat="69.01182" lon="17.72791">
        <ele>194.18481</ele>
        <time>2020-08-27T20:14:00.012Z</time>
      </trkpt>
      <trkpt lat="69.01075" lon="17.72815">
        <ele>193.64979</ele>
        <time>2020-08-27T20:14:17.127Z</time>
      </trkpt>
      <trkpt lat="69.01003" lon="17.72785">
        <ele>193.103154</ele>
        <time>2020-08-27T20:14:29.664Z</time>
      </trkpt>
      <trkpt lat="69.00876" lon="17.72754">
        <ele>191.89604</ele>
        <time>2020-08-27T20:14:49.509Z</time>
      </trkpt>
      <trkpt lat="69.00843" lon="17.72742">
        <ele>191.226496</ele>
        <time>2020-08-27T20:14:54.532Z</time>
      </trkpt>
      <trkpt lat="69.0082" lon="17.72734">
        <ele>190.763541</ele>
        <time>2020-08-27T20:14:57.763Z</time>
      </trkpt>
      <trkpt lat="69.00693" lon="17.72686">
        <ele>188.20159</ele>
        <time>2020-08-27T20:15:15.360Z</time>
      </trkpt>
      <trkpt lat="69.00678" lon="17.72682">
        <ele>187.880727</ele>
        <time>2020-08-27T20:15:17.378Z</time>
      </trkpt>
      <trkpt lat="69.00481" lon="17.72638">
        <ele>184.024332</ele>
        <time>2020-08-27T20:15:45.296Z</time>
      </trkpt>
      <trkpt lat="69.00397" lon="17.72619">
        <ele>182.664933</ele>
        <time>2020-08-27T20:15:57.579Z</time>
      </trkpt>
      <trkpt lat="69.00369" lon="17.72614">
        <ele>182.225804</ele>
        <time>2020-08-27T20:16:01.632Z</time>
      </trkpt>
      <trkpt lat="69.00341" lon="17.7261">
        <ele>182.029706</ele>
        <time>2020-08-27T20:16:05.877Z</time>
      </trkpt>
      <trkpt lat="69.00213" lon="17.72602">
        <ele>181.794449</ele>
        <time>2020-08-27T20:16:27.429Z</time>
      </trkpt>
      <trkpt lat="69.0008" lon="17.72533">
        <ele>183.278741</ele>
        <time>2020-08-27T20:16:57.665Z</time>
      </trkpt>
      <trkpt lat="68.9997" lon="17.72502">
        <ele>184.579385</ele>
        <time>2020-08-27T20:17:24.517Z</time>
      </trkpt>
      <trkpt lat="68.9981" lon="17.72411">
        <ele>184.478102</ele>
        <time>2020-08-27T20:17:55.024Z</time>
      </trkpt>
      <trkpt lat="68.99771" lon="17.72366">
        <ele>182.765631</ele>
        <time>2020-08-27T20:18:00.596Z</time>
      </trkpt>
      <trkpt lat="68.99746" lon="17.72317">
        <ele>181.527545</ele>
        <time>2020-08-27T20:18:04.424Z</time>
      </trkpt>
      <trkpt lat="68.99672" lon="17.72076">
        <ele>176.60441</ele>
        <time>2020-08-27T20:18:17.907Z</time>
      </trkpt>
      <trkpt lat="68.99641" lon="17.72001">
        <ele>174.392223</ele>
        <time>2020-08-27T20:18:22.679Z</time>
      </trkpt>
      <trkpt lat="68.99592" lon="17.71935">
        <ele>171.446012</ele>
        <time>2020-08-27T20:18:29.100Z</time>
      </trkpt>
      <trkpt lat="68.99537" lon="17.71913">
        <ele>168.455285</ele>
        <time>2020-08-27T20:18:35.923Z</time>
      </trkpt>
      <trkpt lat="68.99521" lon="17.71916">
        <ele>167.868262</ele>
        <time>2020-08-27T20:18:37.871Z</time>
      </trkpt>
      <trkpt lat="68.99503" lon="17.71924">
        <ele>167.408612</ele>
        <time>2020-08-27T20:18:40.194Z</time>
      </trkpt>
      <trkpt lat="68.99087" lon="17.72226">
        <ele>155.577434</ele>
        <time>2020-08-27T20:19:39.131Z</time>
      </trkpt>
      <trkpt lat="68.99013" lon="17.72255">
        <ele>153.133728</ele>
        <time>2020-08-27T20:19:48.675Z</time>
      </trkpt>
      <trkpt lat="68.98997" lon="17.72259">
        <ele>152.456505</ele>
        <time>2020-08-27T20:19:50.633Z</time>
      </trkpt>
      <trkpt lat="68.98933" lon="17.72272">
        <ele>149.294829</ele>
        <time>2020-08-27T20:19:58.489Z</time>
      </trkpt>
      <trkpt lat="68.98822" lon="17.72296">
        <ele>143.825053</ele>
        <time>2020-08-27T20:20:11.805Z</time>
      </trkpt>
      <trkpt lat="68.98757" lon="17.72282">
        <ele>140.754152</ele>
        <time>2020-08-27T20:20:19.833Z</time>
      </trkpt>
      <trkpt lat="68.98699" lon="17.7223">
        <ele>137.943079</ele>
        <time>2020-08-27T20:20:27.247Z</time>
      </trkpt>
      <trkpt lat="68.98511" lon="17.72004">
        <ele>128.898319</ele>
        <time>2020-08-27T20:20:52.729Z</time>
      </trkpt>
      <trkpt lat="68.98464" lon="17.71973">
        <ele>126.823812</ele>
        <time>2020-08-27T20:20:58.730Z</time>
      </trkpt>
      <trkpt lat="68.98406" lon="17.71988">
        <ele>124.275752</ele>
        <time>2020-08-27T20:21:06.050Z</time>
      </trkpt>
      <trkpt lat="68.9829" lon="17.72087">
        <ele>118.796939</ele>
        <time>2020-08-27T20:21:21.075Z</time>
      </trkpt>
      <trkpt lat="68.98275" lon="17.72099">
        <ele>117.97714</ele>
        <time>2020-08-27T20:21:23.072Z</time>
      </trkpt>
      <trkpt lat="68.98262" lon="17.72111">
        <ele>117.311278</ele>
        <time>2020-08-27T20:21:24.604Z</time>
      </trkpt>
      <trkpt lat="68.98228" lon="17.7214">
        <ele>115.468017</ele>
        <time>2020-08-27T20:21:28.974Z</time>
      </trkpt>
      <trkpt lat="68.98206" lon="17.72161">
        <ele>114.278836</ele>
        <time>2020-08-27T20:21:31.812Z</time>
      </trkpt>
      <trkpt lat="68.98193" lon="17.72174">
        <ele>113.52037</ele>
        <time>2020-08-27T20:21:33.519Z</time>
      </trkpt>
      <trkpt lat="68.98116" lon="17.72279">
        <ele>108.775682</ele>
        <time>2020-08-27T20:21:43.597Z</time>
      </trkpt>
      <trkpt lat="68.98072" lon="17.72355">
        <ele>105.510201</ele>
        <time>2020-08-27T20:21:49.625Z</time>
      </trkpt>
      <trkpt lat="68.97945" lon="17.72573">
        <ele>95.781685</ele>
        <time>2020-08-27T20:22:06.968Z</time>
      </trkpt>
      <trkpt lat="68.97891" lon="17.72687">
        <ele>91.088337</ele>
        <time>2020-08-27T20:22:14.816Z</time>
      </trkpt>
      <trkpt lat="68.97743" lon="17.73073">
        <ele>76.355003</ele>
        <time>2020-08-27T20:22:37.949Z</time>
      </trkpt>
      <trkpt lat="68.97592" lon="17.73317">
        <ele>63.87199</ele>
        <time>2020-08-27T20:22:57.772Z</time>
      </trkpt>
      <trkpt lat="68.97573" lon="17.73367">
        <ele>62.020936</ele>
        <time>2020-08-27T20:23:00.813Z</time>
      </trkpt>
      <trkpt lat="68.9753" lon="17.7355">
        <ele>57.757465</ele>
        <time>2020-08-27T20:23:10.139Z</time>
      </trkpt>
      <trkpt lat="68.97512" lon="17.73605">
        <ele>56.431093</ele>
        <time>2020-08-27T20:23:13.381Z</time>
      </trkpt>
      <trkpt lat="68.97479" lon="17.73667">
        <ele>54.449015</ele>
        <time>2020-08-27T20:23:18.282Z</time>
      </trkpt>
      <trkpt lat="68.97411" lon="17.73767">
        <ele>50.976557</ele>
        <time>2020-08-27T20:23:27.858Z</time>
      </trkpt>
      <trkpt lat="68.97389" lon="17.73825">
        <ele>49.879145</ele>
        <time>2020-08-27T20:23:31.761Z</time>
      </trkpt>
      <trkpt lat="68.97374" lon="17.73885">
        <ele>48.924654</ele>
        <time>2020-08-27T20:23:35.200Z</time>
      </trkpt>
      <trkpt lat="68.97361" lon="17.73949">
        <ele>47.973483</ele>
        <time>2020-08-27T20:23:38.600Z</time>
      </trkpt>
      <trkpt lat="68.97352" lon="17.73991">
        <ele>47.347428</ele>
        <time>2020-08-27T20:23:40.886Z</time>
      </trkpt>
      <trkpt lat="68.9729" lon="17.74278">
        <ele>43.295086</ele>
        <time>2020-08-27T20:23:56.449Z</time>
      </trkpt>
      <trkpt lat="68.97172" lon="17.74643">
        <ele>37.801647</ele>
        <time>2020-08-27T20:24:19.696Z</time>
      </trkpt>
      <trkpt lat="68.97141" lon="17.74757">
        <ele>36.291843</ele>
        <time>2020-08-27T20:24:26.383Z</time>
      </trkpt>
      <trkpt lat="68.97124" lon="17.74822">
        <ele>35.427939</ele>
        <time>2020-08-27T20:24:30.277Z</time>
      </trkpt>
      <trkpt lat="68.97115" lon="17.74852">
        <ele>35.026046</ele>
        <time>2020-08-27T20:24:32.006Z</time>
      </trkpt>
      <trkpt lat="68.97081" lon="17.74946">
        <ele>34.200918</ele>
        <time>2020-08-27T20:24:38.497Z</time>
      </trkpt>
      <trkpt lat="68.96995" lon="17.75123">
        <ele>33.532018</ele>
        <time>2020-08-27T20:24:55.301Z</time>
      </trkpt>
      <trkpt lat="68.96973" lon="17.75184">
        <ele>33.335847</ele>
        <time>2020-08-27T20:25:01.578Z</time>
      </trkpt>
      <trkpt lat="68.96957" lon="17.75225">
        <ele>33.297316</ele>
        <time>2020-08-27T20:25:06.745Z</time>
      </trkpt>
      <trkpt lat="68.96901" lon="17.75342">
        <ele>34.183727</ele>
        <time>2020-08-27T20:25:23.242Z</time>
      </trkpt>
      <trkpt lat="68.96856" lon="17.75398">
        <ele>34.803034</ele>
        <time>2020-08-27T20:25:35.138Z</time>
      </trkpt>
      <trkpt lat="68.96788" lon="17.75445">
        <ele>35.409821</ele>
        <time>2020-08-27T20:25:49.816Z</time>
      </trkpt>
      <trkpt lat="68.96711" lon="17.75473">
        <ele>34.951388</ele>
        <time>2020-08-27T20:26:01.728Z</time>
      </trkpt>
      <trkpt lat="68.96695" lon="17.7547">
        <ele>34.851991</ele>
        <time>2020-08-27T20:26:04.654Z</time>
      </trkpt>
      <trkpt lat="68.96678" lon="17.75464">
        <ele>34.750638</ele>
        <time>2020-08-27T20:26:06.997Z</time>
      </trkpt>
      <trkpt lat="68.96617" lon="17.75427">
        <ele>34.506251</ele>
        <time>2020-08-27T20:26:16.906Z</time>
      </trkpt>
      <trkpt lat="68.96603" lon="17.75431">
        <ele>34.639633</ele>
        <time>2020-08-27T20:26:18.892Z</time>
      </trkpt>
      <trkpt lat="68.96592" lon="17.75441">
        <ele>34.752575</ele>
        <time>2020-08-27T20:26:21.188Z</time>
      </trkpt>
      <trkpt lat="68.96583" lon="17.75459">
        <ele>34.862507</ele>
        <time>2020-08-27T20:26:23.090Z</time>
      </trkpt>
      <trkpt lat="68.96576" lon="17.75481">
        <ele>34.964529</ele>
        <time>2020-08-27T20:26:24.640Z</time>
      </trkpt>
      <trkpt lat="68.96569" lon="17.75511">
        <ele>35.089276</ele>
        <time>2020-08-27T20:26:27.246Z</time>
      </trkpt>
      <trkpt lat="68.9656" lon="17.75552">
        <ele>35.253277</ele>
        <time>2020-08-27T20:26:30.140Z</time>
      </trkpt>
      <trkpt lat="68.96533" lon="17.75702">
        <ele>35.839358</ele>
        <time>2020-08-27T20:26:44.012Z</time>
      </trkpt>
      <trkpt lat="68.96524" lon="17.75753">
        <ele>36.035004</ele>
        <time>2020-08-27T20:26:49.219Z</time>
      </trkpt>
      <trkpt lat="68.9652" lon="17.75786">
        <ele>36.155848</ele>
        <time>2020-08-27T20:26:52.894Z</time>
      </trkpt>
      <trkpt lat="68.96512" lon="17.75905">
        <ele>37.189634</ele>
        <time>2020-08-27T20:27:05.540Z</time>
      </trkpt>
      <trkpt lat="68.96508" lon="17.75962">
        <ele>37.702505</ele>
        <time>2020-08-27T20:27:11.831Z</time>
      </trkpt>
      <trkpt lat="68.96493" lon="17.76046">
        <ele>38.5183</ele>
        <time>2020-08-27T20:27:21.061Z</time>
      </trkpt>
      <trkpt lat="68.9649" lon="17.76055">
        <ele>38.627414</ele>
        <time>2020-08-27T20:27:22.391Z</time>
      </trkpt>
      <trkpt lat="68.96486" lon="17.76068">
        <ele>38.780807</ele>
        <time>2020-08-27T20:27:23.867Z</time>
      </trkpt>
      <trkpt lat="68.96481" lon="17.76081">
        <ele>38.955497</ele>
        <time>2020-08-27T20:27:25.705Z</time>
      </trkpt>
      <trkpt lat="68.96475" lon="17.76094">
        <ele>39.12907</ele>
        <time>2020-08-27T20:27:27.603Z</time>
      </trkpt>
      <trkpt lat="68.96467" lon="17.76109">
        <ele>39.373226</ele>
        <time>2020-08-27T20:27:30.412Z</time>
      </trkpt>
      <trkpt lat="68.96439" lon="17.76128">
        <ele>40.072308</ele>
        <time>2020-08-27T20:27:37.329Z</time>
      </trkpt>
      <trkpt lat="68.96239" lon="17.7615">
        <ele>41.570286</ele>
        <time>2020-08-27T20:28:15.785Z</time>
      </trkpt>
      <trkpt lat="68.96146" lon="17.76204">
        <ele>41.949538</ele>
        <time>2020-08-27T20:28:33.562Z</time>
      </trkpt>
      <trkpt lat="68.96135" lon="17.76214">
        <ele>41.997156</ele>
        <time>2020-08-27T20:28:35.634Z</time>
      </trkpt>
      <trkpt lat="68.9612" lon="17.76224">
        <ele>42.05964</ele>
        <time>2020-08-27T20:28:38.598Z</time>
      </trkpt>
      <trkpt lat="68.96107" lon="17.76237">
        <ele>42.116388</ele>
        <time>2020-08-27T20:28:41.504Z</time>
      </trkpt>
      <trkpt lat="68.96082" lon="17.76257">
        <ele>42.218225</ele>
        <time>2020-08-27T20:28:46.161Z</time>
      </trkpt>
      <trkpt lat="68.96073" lon="17.76265">
        <ele>42.25835</ele>
        <time>2020-08-27T20:28:48.384Z</time>
      </trkpt>
      <trkpt lat="68.96024" lon="17.76288">
        <ele>42.672521</ele>
        <time>2020-08-27T20:28:58.024Z</time>
      </trkpt>
      <trkpt lat="68.95984" lon="17.76283">
        <ele>43.051218</ele>
        <time>2020-08-27T20:29:06.646Z</time>
      </trkpt>
      <trkpt lat="68.95875" lon="17.76228">
        <ele>44.026071</ele>
        <time>2020-08-27T20:29:30.378Z</time>
      </trkpt>
      <trkpt lat="68.95719" lon="17.7617">
        <ele>44.814014</ele>
        <time>2020-08-27T20:30:01.739Z</time>
      </trkpt>
      <trkpt lat="68.95675" lon="17.76126">
        <ele>44.262071</ele>
        <time>2020-08-27T20:30:09.346Z</time>
      </trkpt>
      <trkpt lat="68.95651" lon="17.76084">
        <ele>43.803732</ele>
        <time>2020-08-27T20:30:13.629Z</time>
      </trkpt>
      <trkpt lat="68.95627" lon="17.76019">
        <ele>43.251104</ele>
        <time>2020-08-27T20:30:18.541Z</time>
      </trkpt>
      <trkpt lat="68.9552" lon="17.75628">
        <ele>40.020636</ele>
        <time>2020-08-27T20:30:42.495Z</time>
      </trkpt>
      <trkpt lat="68.95467" lon="17.75464">
        <ele>38.428484</ele>
        <time>2020-08-27T20:30:53.804Z</time>
      </trkpt>
      <trkpt lat="68.95404" lon="17.75336">
        <ele>38.482165</ele>
        <time>2020-08-27T20:31:07.163Z</time>
      </trkpt>
      <trkpt lat="68.95333" lon="17.75251">
        <ele>38.654807</ele>
        <time>2020-08-27T20:31:22.710Z</time>
      </trkpt>
      <trkpt lat="68.95319" lon="17.75239">
        <ele>38.688468</ele>
        <time>2020-08-27T20:31:25.932Z</time>
      </trkpt>
      <trkpt lat="68.95288" lon="17.75221">
        <ele>38.844678</ele>
        <time>2020-08-27T20:31:32.771Z</time>
      </trkpt>
      <trkpt lat="68.95137" lon="17.75185">
        <ele>39.964165</ele>
        <time>2020-08-27T20:32:04.298Z</time>
      </trkpt>
      <trkpt lat="68.95106" lon="17.75156">
        <ele>40.010283</ele>
        <time>2020-08-27T20:32:09.907Z</time>
      </trkpt>
      <trkpt lat="68.95024" lon="17.7504">
        <ele>39.820702</ele>
        <time>2020-08-27T20:32:25.374Z</time>
      </trkpt>
      <trkpt lat="68.94951" lon="17.74979">
        <ele>39.697132</ele>
        <time>2020-08-27T20:32:38.215Z</time>
      </trkpt>
      <trkpt lat="68.94887" lon="17.74934">
        <ele>39.799933</ele>
        <time>2020-08-27T20:32:49.651Z</time>
      </trkpt>
      <trkpt lat="68.94742" lon="17.74861">
        <ele>40.314096</ele>
        <time>2020-08-27T20:33:17.613Z</time>
      </trkpt>
      <trkpt lat="68.94594" lon="17.74731">
        <ele>41.635965</ele>
        <time>2020-08-27T20:33:50.361Z</time>
      </trkpt>
      <trkpt lat="68.94463" lon="17.7468">
        <ele>42.904378</ele>
        <time>2020-08-27T20:34:19.142Z</time>
      </trkpt>
      <trkpt lat="68.94408" lon="17.74613">
        <ele>43.045809</ele>
        <time>2020-08-27T20:34:30.566Z</time>
      </trkpt>
      <trkpt lat="68.94366" lon="17.74511">
        <ele>42.769295</ele>
        <time>2020-08-27T20:34:40.050Z</time>
      </trkpt>
      <trkpt lat="68.94354" lon="17.74476">
        <ele>42.684317</ele>
        <time>2020-08-27T20:34:42.929Z</time>
      </trkpt>
      <trkpt lat="68.94318" lon="17.7437">
        <ele>42.426324</ele>
        <time>2020-08-27T20:34:50.951Z</time>
      </trkpt>
      <trkpt lat="68.94281" lon="17.74251">
        <ele>41.929551</ele>
        <time>2020-08-27T20:34:59.611Z</time>
      </trkpt>
      <trkpt lat="68.9428" lon="17.74248">
        <ele>41.913534</ele>
        <time>2020-08-27T20:34:59.760Z</time>
      </trkpt>
      <trkpt lat="68.94272" lon="17.74217">
        <ele>41.754381</ele>
        <time>2020-08-27T20:35:01.836Z</time>
      </trkpt>
      <trkpt lat="68.9422" lon="17.73945">
        <ele>40.453807</ele>
        <time>2020-08-27T20:35:18.853Z</time>
      </trkpt>
      <trkpt lat="68.94196" lon="17.73874">
        <ele>39.844591</ele>
        <time>2020-08-27T20:35:24.246Z</time>
      </trkpt>
      <trkpt lat="68.94159" lon="17.73809">
        <ele>38.676569</ele>
        <time>2020-08-27T20:35:30.890Z</time>
      </trkpt>
      <trkpt lat="68.9411" lon="17.73734">
        <ele>37.165472</ele>
        <time>2020-08-27T20:35:38.544Z</time>
      </trkpt>
      <trkpt lat="68.94054" lon="17.73652">
        <ele>35.483707</ele>
        <time>2020-08-27T20:35:46.518Z</time>
      </trkpt>
      <trkpt lat="68.94024" lon="17.73606">
        <ele>33.835201</ele>
        <time>2020-08-27T20:35:50.811Z</time>
      </trkpt>
      <trkpt lat="68.94007" lon="17.73579">
        <ele>32.87469</ele>
        <time>2020-08-27T20:35:53.091Z</time>
      </trkpt>
      <trkpt lat="68.93996" lon="17.7356">
        <ele>32.223727</ele>
        <time>2020-08-27T20:35:54.682Z</time>
      </trkpt>
      <trkpt lat="68.93981" lon="17.73537">
        <ele>31.36395</ele>
        <time>2020-08-27T20:35:56.670Z</time>
      </trkpt>
      <trkpt lat="68.93899" lon="17.73437">
        <ele>26.854498</ele>
        <time>2020-08-27T20:36:07.493Z</time>
      </trkpt>
      <trkpt lat="68.93884" lon="17.73418">
        <ele>26.2587</ele>
        <time>2020-08-27T20:36:09.362Z</time>
      </trkpt>
      <trkpt lat="68.93877" lon="17.73407">
        <ele>26.108016</ele>
        <time>2020-08-27T20:36:10.448Z</time>
      </trkpt>
      <trkpt lat="68.93843" lon="17.73343">
        <ele>25.389801</ele>
        <time>2020-08-27T20:36:15.470Z</time>
      </trkpt>
      <trkpt lat="68.93806" lon="17.73248">
        <ele>24.486708</ele>
        <time>2020-08-27T20:36:22.557Z</time>
      </trkpt>
      <trkpt lat="68.93723" lon="17.73025">
        <ele>24.52437</ele>
        <time>2020-08-27T20:36:45.654Z</time>
      </trkpt>
      <trkpt lat="68.93695" lon="17.7295">
        <ele>25.778806</ele>
        <time>2020-08-27T20:36:56.146Z</time>
      </trkpt>
      <trkpt lat="68.93648" lon="17.72848">
        <ele>27.710463</ele>
        <time>2020-08-27T20:37:13.740Z</time>
      </trkpt>
      <trkpt lat="68.93569" lon="17.72755">
        <ele>31.293967</ele>
        <time>2020-08-27T20:37:44.973Z</time>
      </trkpt>
      <trkpt lat="68.9352" lon="17.72667">
        <ele>34.170023</ele>
        <time>2020-08-27T20:38:05.451Z</time>
      </trkpt>
      <trkpt lat="68.93504" lon="17.72628">
        <ele>35.254875</ele>
        <time>2020-08-27T20:38:12.735Z</time>
      </trkpt>
      <trkpt lat="68.93489" lon="17.72594">
        <ele>36.207081</ele>
        <time>2020-08-27T20:38:19.342Z</time>
      </trkpt>
      <trkpt lat="68.9345" lon="17.7254">
        <ele>38.230907</ele>
        <time>2020-08-27T20:38:32.332Z</time>
      </trkpt>
      <trkpt lat="68.93411" lon="17.7252">
        <ele>39.633777</ele>
        <time>2020-08-27T20:38:44.004Z</time>
      </trkpt>
      <trkpt lat="68.93388" lon="17.72523">
        <ele>40.435513</ele>
        <time>2020-08-27T20:38:51.229Z</time>
      </trkpt>
      <trkpt lat="68.93356" lon="17.72529">
        <ele>41.581548</ele>
        <time>2020-08-27T20:39:00.617Z</time>
      </trkpt>
      <trkpt lat="68.93311" lon="17.72527">
        <ele>43.15573</ele>
        <time>2020-08-27T20:39:12.998Z</time>
      </trkpt>
      <trkpt lat="68.9329" lon="17.72522">
        <ele>43.907683</ele>
        <time>2020-08-27T20:39:18.227Z</time>
      </trkpt>
      <trkpt lat="68.93277" lon="17.72516">
        <ele>44.373677</ele>
        <time>2020-08-27T20:39:22.559Z</time>
      </trkpt>
      <trkpt lat="68.93227" lon="17.72487">
        <ele>46.298594</ele>
        <time>2020-08-27T20:39:36.477Z</time>
      </trkpt>
      <trkpt lat="68.93188" lon="17.72498">
        <ele>47.756189</ele>
        <time>2020-08-27T20:39:48.567Z</time>
      </trkpt>
      <trkpt lat="68.93148" lon="17.72533">
        <ele>49.325916</ele>
        <time>2020-08-27T20:40:02.058Z</time>
      </trkpt>
      <trkpt lat="68.93099" lon="17.7264">
        <ele>51.513405</ele>
        <time>2020-08-27T20:40:20.678Z</time>
      </trkpt>
      <trkpt lat="68.93092" lon="17.72648">
        <ele>51.748342</ele>
        <time>2020-08-27T20:40:24.188Z</time>
      </trkpt>
      <trkpt lat="68.93084" lon="17.72652">
        <ele>51.986074</ele>
        <time>2020-08-27T20:40:26.306Z</time>
      </trkpt>
      <trkpt lat="68.93067" lon="17.7265">
        <ele>52.465183</ele>
        <time>2020-08-27T20:40:30.527Z</time>
      </trkpt>
      <trkpt lat="68.93013" lon="17.7259">
        <ele>54.173031</ele>
        <time>2020-08-27T20:40:47.591Z</time>
      </trkpt>
      <trkpt lat="68.92994" lon="17.72581">
        <ele>54.748135</ele>
        <time>2020-08-27T20:40:52.597Z</time>
      </trkpt>
      <trkpt lat="68.92972" lon="17.72578">
        <ele>55.364199</ele>
        <time>2020-08-27T20:40:58.100Z</time>
      </trkpt>
      <trkpt lat="68.9294" lon="17.72576">
        <ele>56.26998</ele>
        <time>2020-08-27T20:41:06.130Z</time>
      </trkpt>
      <trkpt lat="68.92895" lon="17.7256">
        <ele>56.101057</ele>
        <time>2020-08-27T20:41:15.005Z</time>
      </trkpt>
      <trkpt lat="68.92864" lon="17.72536">
        <ele>55.980936</ele>
        <time>2020-08-27T20:41:20.837Z</time>
      </trkpt>
      <trkpt lat="68.92841" lon="17.72516">
        <ele>55.892712</ele>
        <time>2020-08-27T20:41:24.709Z</time>
      </trkpt>
      <trkpt lat="68.92806" lon="17.72468">
        <ele>55.746187</ele>
        <time>2020-08-27T20:41:30.727Z</time>
      </trkpt>
      <trkpt lat="68.92771" lon="17.72406">
        <ele>55.477572</ele>
        <time>2020-08-27T20:41:36.808Z</time>
      </trkpt>
      <trkpt lat="68.92735" lon="17.72343">
        <ele>54.122355</ele>
        <time>2020-08-27T20:41:42.876Z</time>
      </trkpt>
      <trkpt lat="68.92722" lon="17.72326">
        <ele>53.683809</ele>
        <time>2020-08-27T20:41:44.836Z</time>
      </trkpt>
      <trkpt lat="68.92712" lon="17.72317">
        <ele>53.350053</ele>
        <time>2020-08-27T20:41:46.064Z</time>
      </trkpt>
      <trkpt lat="68.92704" lon="17.72312">
        <ele>53.061905</ele>
        <time>2020-08-27T20:41:47.195Z</time>
      </trkpt>
      <trkpt lat="68.92655" lon="17.7232">
        <ele>51.517964</ele>
        <time>2020-08-27T20:41:53.442Z</time>
      </trkpt>
      <trkpt lat="68.92591" lon="17.72379">
        <ele>49.333688</ele>
        <time>2020-08-27T20:42:01.913Z</time>
      </trkpt>
      <trkpt lat="68.92581" lon="17.72379">
        <ele>48.998578</ele>
        <time>2020-08-27T20:42:03.275Z</time>
      </trkpt>
      <trkpt lat="68.92569" lon="17.72375">
        <ele>48.610727</ele>
        <time>2020-08-27T20:42:04.637Z</time>
      </trkpt>
      <trkpt lat="68.92533" lon="17.72345">
        <ele>47.372851</ele>
        <time>2020-08-27T20:42:09.598Z</time>
      </trkpt>
      <trkpt lat="68.9251" lon="17.72355">
        <ele>46.628841</ele>
        <time>2020-08-27T20:42:12.805Z</time>
      </trkpt>
      <trkpt lat="68.92496" lon="17.72385">
        <ele>46.030883</ele>
        <time>2020-08-27T20:42:15.122Z</time>
      </trkpt>
      <trkpt lat="68.92459" lon="17.72508">
        <ele>44.130201</ele>
        <time>2020-08-27T20:42:22.803Z</time>
      </trkpt>
      <trkpt lat="68.92388" lon="17.72637">
        <ele>41.591253</ele>
        <time>2020-08-27T20:42:34.070Z</time>
      </trkpt>
      <trkpt lat="68.92351" lon="17.72681">
        <ele>40.412179</ele>
        <time>2020-08-27T20:42:39.361Z</time>
      </trkpt>
      <trkpt lat="68.92344" lon="17.72683">
        <ele>40.187263</ele>
        <time>2020-08-27T20:42:40.402Z</time>
      </trkpt>
      <trkpt lat="68.92333" lon="17.72685">
        <ele>39.850511</ele>
        <time>2020-08-27T20:42:41.804Z</time>
      </trkpt>
      <trkpt lat="68.92323" lon="17.72682">
        <ele>39.563207</ele>
        <time>2020-08-27T20:42:43.298Z</time>
      </trkpt>
      <trkpt lat="68.92282" lon="17.72659">
        <ele>38.105551</ele>
        <time>2020-08-27T20:42:49.067Z</time>
      </trkpt>
      <trkpt lat="68.92269" lon="17.72654">
        <ele>37.423073</ele>
        <time>2020-08-27T20:42:50.766Z</time>
      </trkpt>
      <trkpt lat="68.92248" lon="17.72654">
        <ele>36.28255</ele>
        <time>2020-08-27T20:42:53.490Z</time>
      </trkpt>
      <trkpt lat="68.92232" lon="17.72658">
        <ele>35.470965</ele>
        <time>2020-08-27T20:42:55.299Z</time>
      </trkpt>
      <trkpt lat="68.92212" lon="17.72663">
        <ele>34.384238</ele>
        <time>2020-08-27T20:42:57.715Z</time>
      </trkpt>
      <trkpt lat="68.92176" lon="17.72659">
        <ele>32.497818</ele>
        <time>2020-08-27T20:43:01.845Z</time>
      </trkpt>
      <trkpt lat="68.9214" lon="17.72617">
        <ele>30.446601</ele>
        <time>2020-08-27T20:43:06.412Z</time>
      </trkpt>
      <trkpt lat="68.92127" lon="17.72592">
        <ele>29.617385</ele>
        <time>2020-08-27T20:43:08.241Z</time>
      </trkpt>
      <trkpt lat="68.92123" lon="17.72584">
        <ele>29.356109</ele>
        <time>2020-08-27T20:43:08.778Z</time>
      </trkpt>
      <trkpt lat="68.92107" lon="17.72547">
        <ele>28.400835</ele>
        <time>2020-08-27T20:43:11.498Z</time>
      </trkpt>
      <trkpt lat="68.92097" lon="17.72519">
        <ele>27.769053</ele>
        <time>2020-08-27T20:43:13.114Z</time>
      </trkpt>
      <trkpt lat="68.92059" lon="17.72364">
        <ele>24.837095</ele>
        <time>2020-08-27T20:43:21.464Z</time>
      </trkpt>
      <trkpt lat="68.92039" lon="17.72332">
        <ele>23.830919</ele>
        <time>2020-08-27T20:43:24.326Z</time>
      </trkpt>
      <trkpt lat="68.92019" lon="17.72332">
        <ele>22.977568</ele>
        <time>2020-08-27T20:43:26.653Z</time>
      </trkpt>
      <trkpt lat="68.92004" lon="17.72353">
        <ele>22.225016</ele>
        <time>2020-08-27T20:43:29.025Z</time>
      </trkpt>
      <trkpt lat="68.91983" lon="17.7243">
        <ele>21.240997</ele>
        <time>2020-08-27T20:43:33.490Z</time>
      </trkpt>
      <trkpt lat="68.91976" lon="17.72468">
        <ele>21.211452</ele>
        <time>2020-08-27T20:43:35.832Z</time>
      </trkpt>
      <trkpt lat="68.91965" lon="17.72528">
        <ele>21.166057</ele>
        <time>2020-08-27T20:43:39.756Z</time>
      </trkpt>
      <trkpt lat="68.91934" lon="17.72632">
        <ele>21.075431</ele>
        <time>2020-08-27T20:43:48.110Z</time>
      </trkpt>
      <trkpt lat="68.91931" lon="17.72639">
        <ele>21.067813</ele>
        <time>2020-08-27T20:43:49.185Z</time>
      </trkpt>
      <trkpt lat="68.9192" lon="17.72657">
        <ele>21.044321</ele>
        <time>2020-08-27T20:43:51.245Z</time>
      </trkpt>
      <trkpt lat="68.91908" lon="17.72673">
        <ele>21.019012</ele>
        <time>2020-08-27T20:43:54.567Z</time>
      </trkpt>
      <trkpt lat="68.9189" lon="17.72691">
        <ele>20.982721</ele>
        <time>2020-08-27T20:43:58.676Z</time>
      </trkpt>
      <trkpt lat="68.91855" lon="17.72716">
        <ele>20.971985</ele>
        <time>2020-08-27T20:44:07.088Z</time>
      </trkpt>
      <trkpt lat="68.91832" lon="17.72734">
        <ele>21.172508</ele>
        <time>2020-08-27T20:44:12.942Z</time>
      </trkpt>
      <trkpt lat="68.91809" lon="17.72758">
        <ele>21.371515</ele>
        <time>2020-08-27T20:44:17.894Z</time>
      </trkpt>
      <trkpt lat="68.91784" lon="17.72802">
        <ele>21.609282</ele>
        <time>2020-08-27T20:44:23.725Z</time>
      </trkpt>
      <trkpt lat="68.91773" lon="17.72828">
        <ele>21.723324</ele>
        <time>2020-08-27T20:44:26.872Z</time>
      </trkpt>
      <trkpt lat="68.91759" lon="17.72863">
        <ele>21.879259</ele>
        <time>2020-08-27T20:44:30.052Z</time>
      </trkpt>
      <trkpt lat="68.91715" lon="17.72935">
        <ele>22.294567</ele>
        <time>2020-08-27T20:44:40.737Z</time>
      </trkpt>
      <trkpt lat="68.91634" lon="17.72997">
        <ele>21.907458</ele>
        <time>2020-08-27T20:44:56.229Z</time>
      </trkpt>
      <trkpt lat="68.91602" lon="17.73041">
        <ele>21.671599</ele>
        <time>2020-08-27T20:45:01.832Z</time>
      </trkpt>
      <trkpt lat="68.9155" lon="17.7312">
        <ele>21.281894</ele>
        <time>2020-08-27T20:45:10.754Z</time>
      </trkpt>
      <trkpt lat="68.91512" lon="17.73214">
        <ele>20.582171</ele>
        <time>2020-08-27T20:45:17.825Z</time>
      </trkpt>
      <trkpt lat="68.91485" lon="17.733">
        <ele>19.912241</ele>
        <time>2020-08-27T20:45:23.830Z</time>
      </trkpt>
      <trkpt lat="68.91477" lon="17.73325">
        <ele>19.712385</ele>
        <time>2020-08-27T20:45:25.785Z</time>
      </trkpt>
      <trkpt lat="68.91472" lon="17.73338">
        <ele>19.614293</ele>
        <time>2020-08-27T20:45:26.749Z</time>
      </trkpt>
      <trkpt lat="68.91463" lon="17.73365">
        <ele>19.39081</ele>
        <time>2020-08-27T20:45:28.647Z</time>
      </trkpt>
      <trkpt lat="68.91448" lon="17.73396">
        <ele>19.098284</ele>
        <time>2020-08-27T20:45:31.534Z</time>
      </trkpt>
      <trkpt lat="68.91427" lon="17.73431">
        <ele>18.692917</ele>
        <time>2020-08-27T20:45:35.122Z</time>
      </trkpt>
      <trkpt lat="68.91421" lon="17.73441">
        <ele>18.583555</ele>
        <time>2020-08-27T20:45:36.157Z</time>
      </trkpt>
      <trkpt lat="68.91415" lon="17.73456">
        <ele>18.445532</ele>
        <time>2020-08-27T20:45:37.455Z</time>
      </trkpt>
      <trkpt lat="68.91407" lon="17.73481">
        <ele>18.258179</ele>
        <time>2020-08-27T20:45:39.049Z</time>
      </trkpt>
      <trkpt lat="68.91398" lon="17.73512">
        <ele>18.071323</ele>
        <time>2020-08-27T20:45:41.173Z</time>
      </trkpt>
      <trkpt lat="68.91381" lon="17.73599">
        <ele>17.598157</ele>
        <time>2020-08-27T20:45:46.238Z</time>
      </trkpt>
      <trkpt lat="68.9137" lon="17.73677">
        <ele>17.190454</ele>
        <time>2020-08-27T20:45:50.541Z</time>
      </trkpt>
      <trkpt lat="68.91354" lon="17.73781">
        <ele>16.652664</ele>
        <time>2020-08-27T20:45:56.555Z</time>
      </trkpt>
      <trkpt lat="68.9134" lon="17.73865">
        <ele>16.202228</ele>
        <time>2020-08-27T20:46:01.977Z</time>
      </trkpt>
      <trkpt lat="68.91324" lon="17.7395">
        <ele>15.854539</ele>
        <time>2020-08-27T20:46:07.542Z</time>
      </trkpt>
      <trkpt lat="68.91309" lon="17.74036">
        <ele>15.749137</ele>
        <time>2020-08-27T20:46:13.167Z</time>
      </trkpt>
      <trkpt lat="68.91284" lon="17.74193">
        <ele>15.561381</ele>
        <time>2020-08-27T20:46:23.276Z</time>
      </trkpt>
      <trkpt lat="68.91252" lon="17.74367">
        <ele>15.347477</ele>
        <time>2020-08-27T20:46:36.152Z</time>
      </trkpt>
      <trkpt lat="68.9123" lon="17.74454">
        <ele>15.150875</ele>
        <time>2020-08-27T20:46:43.355Z</time>
      </trkpt>
      <trkpt lat="68.91202" lon="17.7456">
        <ele>14.897605</ele>
        <time>2020-08-27T20:46:51.766Z</time>
      </trkpt>
      <trkpt lat="68.91164" lon="17.74708">
        <ele>14.54797</ele>
        <time>2020-08-27T20:47:02.067Z</time>
      </trkpt>
      <trkpt lat="68.91122" lon="17.7487">
        <ele>14.021347</ele>
        <time>2020-08-27T20:47:12.802Z</time>
      </trkpt>
      <trkpt lat="68.91091" lon="17.7499">
        <ele>13.543678</ele>
        <time>2020-08-27T20:47:20.479Z</time>
      </trkpt>
      <trkpt lat="68.91006" lon="17.75317">
        <ele>13.337236</ele>
        <time>2020-08-27T20:47:45.061Z</time>
      </trkpt>
      <trkpt lat="68.90988" lon="17.75389">
        <ele>13.648712</ele>
        <time>2020-08-27T20:47:53.053Z</time>
      </trkpt>
      <trkpt lat="68.90979" lon="17.75422">
        <ele>13.787209</ele>
        <time>2020-08-27T20:47:56.591Z</time>
      </trkpt>
      <trkpt lat="68.90977" lon="17.75429">
        <ele>13.81717</ele>
        <time>2020-08-27T20:47:57.518Z</time>
      </trkpt>
      <trkpt lat="68.90973" lon="17.75445">
        <ele>13.886701</ele>
        <time>2020-08-27T20:47:59.399Z</time>
      </trkpt>
      <trkpt lat="68.90949" lon="17.7554">
        <ele>14.292583</ele>
        <time>2020-08-27T20:48:09.411Z</time>
      </trkpt>
      <trkpt lat="68.90923" lon="17.75634">
        <ele>14.250228</ele>
        <time>2020-08-27T20:48:18.260Z</time>
      </trkpt>
      <trkpt lat="68.909" lon="17.75708">
        <ele>13.793723</ele>
        <time>2020-08-27T20:48:24.421Z</time>
      </trkpt>
      <trkpt lat="68.90883" lon="17.75765">
        <ele>13.440998</ele>
        <time>2020-08-27T20:48:28.662Z</time>
      </trkpt>
      <trkpt lat="68.9087" lon="17.75805">
        <ele>13.192157</ele>
        <time>2020-08-27T20:48:31.432Z</time>
      </trkpt>
      <trkpt lat="68.90853" lon="17.75862">
        <ele>12.839738</ele>
        <time>2020-08-27T20:48:35.195Z</time>
      </trkpt>
      <trkpt lat="68.90838" lon="17.7591">
        <ele>12.539891</ele>
        <time>2020-08-27T20:48:38.260Z</time>
      </trkpt>
      <trkpt lat="68.9079" lon="17.76061">
        <ele>11.23528</ele>
        <time>2020-08-27T20:48:47.635Z</time>
      </trkpt>
      <trkpt lat="68.90741" lon="17.76219">
        <ele>9.625999</ele>
        <time>2020-08-27T20:48:57.579Z</time>
      </trkpt>
      <trkpt lat="68.90729" lon="17.76258">
        <ele>9.228074</ele>
        <time>2020-08-27T20:49:00.276Z</time>
      </trkpt>
      <trkpt lat="68.90724" lon="17.76278">
        <ele>9.041216</ele>
        <time>2020-08-27T20:49:01.415Z</time>
      </trkpt>
      <trkpt lat="68.90717" lon="17.76307">
        <ele>8.770276</ele>
        <time>2020-08-27T20:49:03.691Z</time>
      </trkpt>
      <trkpt lat="68.90695" lon="17.76443">
        <ele>8.533961</ele>
        <time>2020-08-27T20:49:13.393Z</time>
      </trkpt>
      <trkpt lat="68.90668" lon="17.76748">
        <ele>9.350158</ele>
        <time>2020-08-27T20:49:37.807Z</time>
      </trkpt>
      <trkpt lat="68.90621" lon="17.7699">
        <ele>10.299467</ele>
        <time>2020-08-27T20:49:58.196Z</time>
      </trkpt>
      <trkpt lat="68.9055" lon="17.77431">
        <ele>11.759439</ele>
        <time>2020-08-27T20:50:36.113Z</time>
      </trkpt>
      <trkpt lat="68.90531" lon="17.77577">
        <ele>11.951739</ele>
        <time>2020-08-27T20:50:45.787Z</time>
      </trkpt>
      <trkpt lat="68.90525" lon="17.77617">
        <ele>12.005964</ele>
        <time>2020-08-27T20:50:50.004Z</time>
      </trkpt>
      <trkpt lat="68.9052" lon="17.7764">
        <ele>12.039781</ele>
        <time>2020-08-27T20:50:51.303Z</time>
      </trkpt>
      <trkpt lat="68.90489" lon="17.77711">
        <ele>12.177257</ele>
        <time>2020-08-27T20:50:58.112Z</time>
      </trkpt>
      <trkpt lat="68.90339" lon="17.77929">
        <ele>11.452784</ele>
        <time>2020-08-27T20:51:25.622Z</time>
      </trkpt>
      <trkpt lat="68.90275" lon="17.78045">
        <ele>11.757543</ele>
        <time>2020-08-27T20:51:39.933Z</time>
      </trkpt>
      <trkpt lat="68.90238" lon="17.78155">
        <ele>12.04818</ele>
        <time>2020-08-27T20:51:52.183Z</time>
      </trkpt>
      <trkpt lat="68.90129" lon="17.78561">
        <ele>11.698624</ele>
        <time>2020-08-27T20:52:26.670Z</time>
      </trkpt>
      <trkpt lat="68.90119" lon="17.78596">
        <ele>11.610666</ele>
        <time>2020-08-27T20:52:29.070Z</time>
      </trkpt>
      <trkpt lat="68.90104" lon="17.78646">
        <ele>11.481236</ele>
        <time>2020-08-27T20:52:32.357Z</time>
      </trkpt>
      <trkpt lat="68.90082" lon="17.78713">
        <ele>11.098647</ele>
        <time>2020-08-27T20:52:36.788Z</time>
      </trkpt>
      <trkpt lat="68.90071" lon="17.78748">
        <ele>10.754906</ele>
        <time>2020-08-27T20:52:39.088Z</time>
      </trkpt>
      <trkpt lat="68.90044" lon="17.7883">
        <ele>9.959807</ele>
        <time>2020-08-27T20:52:44.166Z</time>
      </trkpt>
      <trkpt lat="68.89988" lon="17.78998">
        <ele>8.304686</ele>
        <time>2020-08-27T20:52:55.569Z</time>
      </trkpt>
      <trkpt lat="68.89949" lon="17.79114">
        <ele>8.172578</ele>
        <time>2020-08-27T20:53:05.407Z</time>
      </trkpt>
      <trkpt lat="68.89929" lon="17.79175">
        <ele>8.556549</ele>
        <time>2020-08-27T20:53:12.045Z</time>
      </trkpt>
      <trkpt lat="68.89905" lon="17.7924">
        <ele>8.97892</ele>
        <time>2020-08-27T20:53:19.596Z</time>
      </trkpt>
      <trkpt lat="68.89856" lon="17.79351">
        <ele>9.783375</ele>
        <time>2020-08-27T20:53:34.624Z</time>
      </trkpt>
      <trkpt lat="68.89802" lon="17.79423">
        <ele>10.587249</ele>
        <time>2020-08-27T20:53:50.551Z</time>
      </trkpt>
      <trkpt lat="68.89771" lon="17.79452">
        <ele>11.046456</ele>
        <time>2020-08-27T20:53:58.469Z</time>
      </trkpt>
      <trkpt lat="68.89756" lon="17.79463">
        <ele>11.261942</ele>
        <time>2020-08-27T20:54:01.676Z</time>
      </trkpt>
      <trkpt lat="68.89723" lon="17.79482">
        <ele>11.72237</ele>
        <time>2020-08-27T20:54:08.830Z</time>
      </trkpt>
      <trkpt lat="68.89678" lon="17.79497">
        <ele>12.364686</ele>
        <time>2020-08-27T20:54:18.337Z</time>
      </trkpt>
      <trkpt lat="68.89669" lon="17.79496">
        <ele>12.481738</ele>
        <time>2020-08-27T20:54:20.301Z</time>
      </trkpt>
      <trkpt lat="68.89658" lon="17.7949">
        <ele>12.542739</ele>
        <time>2020-08-27T20:54:22.256Z</time>
      </trkpt>
      <trkpt lat="68.89595" lon="17.79402">
        <ele>12.114207</ele>
        <time>2020-08-27T20:54:35.305Z</time>
      </trkpt>
      <trkpt lat="68.8957" lon="17.79385">
        <ele>11.958802</ele>
        <time>2020-08-27T20:54:39.570Z</time>
      </trkpt>
      <trkpt lat="68.89529" lon="17.794">
        <ele>11.707586</ele>
        <time>2020-08-27T20:54:45.991Z</time>
      </trkpt>
      <trkpt lat="68.89482" lon="17.79466">
        <ele>11.12824</ele>
        <time>2020-08-27T20:54:53.467Z</time>
      </trkpt>
      <trkpt lat="68.89467" lon="17.79496">
        <ele>10.704322</ele>
        <time>2020-08-27T20:54:56.162Z</time>
      </trkpt>
      <trkpt lat="68.89449" lon="17.79532">
        <ele>10.20496</ele>
        <time>2020-08-27T20:54:59.118Z</time>
      </trkpt>
      <trkpt lat="68.89416" lon="17.7961">
        <ele>9.236438</ele>
        <time>2020-08-27T20:55:04.929Z</time>
      </trkpt>
      <trkpt lat="68.89401" lon="17.79655">
        <ele>8.727918</ele>
        <time>2020-08-27T20:55:07.844Z</time>
      </trkpt>
      <trkpt lat="68.89306" lon="17.79961">
        <ele>6.840748</ele>
        <time>2020-08-27T20:55:28.529Z</time>
      </trkpt>
      <trkpt lat="68.89309" lon="17.79972">
        <ele>6.808143</ele>
        <time>2020-08-27T20:55:30.147Z</time>
      </trkpt>
      <trkpt lat="68.89269" lon="17.801">
        <ele>6.40855</ele>
        <time>2020-08-27T20:55:44.927Z</time>
      </trkpt>
      <trkpt lat="68.89256" lon="17.80147">
        <ele>6.26894</ele>
        <time>2020-08-27T20:55:50.367Z</time>
      </trkpt>
      <trkpt lat="68.89233" lon="17.80192">
        <ele>6.452474</ele>
        <time>2020-08-27T20:55:57.841Z</time>
      </trkpt>
      <trkpt lat="68.8922" lon="17.80209">
        <ele>6.587802</ele>
        <time>2020-08-27T20:56:01.053Z</time>
      </trkpt>
      <trkpt lat="68.89214" lon="17.80213">
        <ele>6.651246</ele>
        <time>2020-08-27T20:56:02.863Z</time>
      </trkpt>
      <trkpt lat="68.89209" lon="17.80215">
        <ele>6.702844</ele>
        <time>2020-08-27T20:56:04.225Z</time>
      </trkpt>
      <trkpt lat="68.89075" lon="17.80302">
        <ele>8.029629</ele>
        <time>2020-08-27T20:56:42.215Z</time>
      </trkpt>
      <trkpt lat="68.89042" lon="17.80342">
        <ele>8.353585</ele>
        <time>2020-08-27T20:56:50.266Z</time>
      </trkpt>
      <trkpt lat="68.89028" lon="17.80359">
        <ele>8.495886</ele>
        <time>2020-08-27T20:56:53.508Z</time>
      </trkpt>
      <trkpt lat="68.89" lon="17.80392">
        <ele>8.764778</ele>
        <time>2020-08-27T20:57:00.383Z</time>
      </trkpt>
      <trkpt lat="68.88994" lon="17.8042">
        <ele>8.873766</ele>
        <time>2020-08-27T20:57:04.524Z</time>
      </trkpt>
      <trkpt lat="68.88988" lon="17.80434">
        <ele>8.944704</ele>
        <time>2020-08-27T20:57:07.502Z</time>
      </trkpt>
      <trkpt lat="68.88984" lon="17.80439">
        <ele>8.987908</ele>
        <time>2020-08-27T20:57:08.919Z</time>
      </trkpt>
      <trkpt lat="68.88973" lon="17.80446">
        <ele>9.089881</ele>
        <time>2020-08-27T20:57:11.896Z</time>
      </trkpt>
      <trkpt lat="68.88963" lon="17.80439">
        <ele>9.183408</ele>
        <time>2020-08-27T20:57:15.664Z</time>
      </trkpt>
      <trkpt lat="68.88932" lon="17.80477">
        <ele>9.48758</ele>
        <time>2020-08-27T20:57:27.135Z</time>
      </trkpt>
      <trkpt lat="68.8892" lon="17.80494">
        <ele>9.608969</ele>
        <time>2020-08-27T20:57:31.653Z</time>
      </trkpt>
      <trkpt lat="68.88885" lon="17.80594">
        <ele>11.140498</ele>
        <time>2020-08-27T20:57:47.541Z</time>
      </trkpt>
      <trkpt lat="68.88839" lon="17.80842">
        <ele>14.201764</ele>
        <time>2020-08-27T20:58:22.608Z</time>
      </trkpt>
      <trkpt lat="68.88827" lon="17.809">
        <ele>14.927095</ele>
        <time>2020-08-27T20:58:31.456Z</time>
      </trkpt>
      <trkpt lat="68.88768" lon="17.81103">
        <ele>15.748237</ele>
        <time>2020-08-27T20:59:00.596Z</time>
      </trkpt>
      <trkpt lat="68.88737" lon="17.81182">
        <ele>16.06669</ele>
        <time>2020-08-27T20:59:11.044Z</time>
      </trkpt>
      <trkpt lat="68.88659" lon="17.8132">
        <ele>15.297461</ele>
        <time>2020-08-27T20:59:28.852Z</time>
      </trkpt>
      <trkpt lat="68.88572" lon="17.81521">
        <ele>12.379609</ele>
        <time>2020-08-27T20:59:49.384Z</time>
      </trkpt>
      <trkpt lat="68.88489" lon="17.81779">
        <ele>10.206113</ele>
        <time>2020-08-27T21:00:12.999Z</time>
      </trkpt>
      <trkpt lat="68.88446" lon="17.81997">
        <ele>8.992936</ele>
        <time>2020-08-27T21:00:32.455Z</time>
      </trkpt>
      <trkpt lat="68.88431" lon="17.82046">
        <ele>9.011384</ele>
        <time>2020-08-27T21:00:37.896Z</time>
      </trkpt>
      <trkpt lat="68.88414" lon="17.82086">
        <ele>9.02868</ele>
        <time>2020-08-27T21:00:43.052Z</time>
      </trkpt>
      <trkpt lat="68.88346" lon="17.82186">
        <ele>9.088969</ele>
        <time>2020-08-27T21:01:03.070Z</time>
      </trkpt>
      <trkpt lat="68.88294" lon="17.82245">
        <ele>9.065829</ele>
        <time>2020-08-27T21:01:15.779Z</time>
      </trkpt>
      <trkpt lat="68.8827" lon="17.82258">
        <ele>8.934853</ele>
        <time>2020-08-27T21:01:21.502Z</time>
      </trkpt>
      <trkpt lat="68.88245" lon="17.82267">
        <ele>8.792236</ele>
        <time>2020-08-27T21:01:26.927Z</time>
      </trkpt>
      <trkpt lat="68.88235" lon="17.82265">
        <ele>8.739238</ele>
        <time>2020-08-27T21:01:28.898Z</time>
      </trkpt>
      <trkpt lat="68.88224" lon="17.82263">
        <ele>8.676768</ele>
        <time>2020-08-27T21:01:30.653Z</time>
      </trkpt>
      <trkpt lat="68.88196" lon="17.82256">
        <ele>8.520851</ele>
        <time>2020-08-27T21:01:35.807Z</time>
      </trkpt>
      <trkpt lat="68.88193" lon="17.82245">
        <ele>8.492816</ele>
        <time>2020-08-27T21:01:36.670Z</time>
      </trkpt>
      <trkpt lat="68.88192" lon="17.8224">
        <ele>8.482754</ele>
        <time>2020-08-27T21:01:36.888Z</time>
      </trkpt>
      <trkpt lat="68.88182" lon="17.82236">
        <ele>8.425398</ele>
        <time>2020-08-27T21:01:39.001Z</time>
      </trkpt>
      <trkpt lat="68.88129" lon="17.8223">
        <ele>8.131683</ele>
        <time>2020-08-27T21:01:50.940Z</time>
      </trkpt>
      <trkpt lat="68.88106" lon="17.82248">
        <ele>8.012232</ele>
        <time>2020-08-27T21:01:55.705Z</time>
      </trkpt>
      <trkpt lat="68.88072" lon="17.82281">
        <ele>7.824937</ele>
        <time>2020-08-27T21:02:03.098Z</time>
      </trkpt>
      <trkpt lat="68.88019" lon="17.82356">
        <ele>7.524838</ele>
        <time>2020-08-27T21:02:15.809Z</time>
      </trkpt>
      <trkpt lat="68.87986" lon="17.82416">
        <ele>7.322174</ele>
        <time>2020-08-27T21:02:25.561Z</time>
      </trkpt>
      <trkpt lat="68.87955" lon="17.82477">
        <ele>7.178901</ele>
        <time>2020-08-27T21:02:34.993Z</time>
      </trkpt>
      <trkpt lat="68.87892" lon="17.82632">
        <ele>6.998235</ele>
        <time>2020-08-27T21:02:54.141Z</time>
      </trkpt>
      <trkpt lat="68.8787" lon="17.82687">
        <ele>6.933993</ele>
        <time>2020-08-27T21:03:01.225Z</time>
      </trkpt>
      <trkpt lat="68.87868" lon="17.82678">
        <ele>6.925775</ele>
        <time>2020-08-27T21:03:01.880Z</time>
      </trkpt>
      <trkpt lat="68.87839" lon="17.82749">
        <ele>6.844324</ele>
        <time>2020-08-27T21:03:08.057Z</time>
      </trkpt>
      <trkpt lat="68.87822" lon="17.82787">
        <ele>7.031655</ele>
        <time>2020-08-27T21:03:11.765Z</time>
      </trkpt>
      <trkpt lat="68.87814" lon="17.828">
        <ele>7.164776</ele>
        <time>2020-08-27T21:03:13.362Z</time>
      </trkpt>
      <trkpt lat="68.87792" lon="17.82832">
        <ele>7.499403</ele>
        <time>2020-08-27T21:03:17.679Z</time>
      </trkpt>
      <trkpt lat="68.87779" lon="17.82855">
        <ele>7.715634</ele>
        <time>2020-08-27T21:03:20.353Z</time>
      </trkpt>
      <trkpt lat="68.87753" lon="17.82911">
        <ele>8.162741</ele>
        <time>2020-08-27T21:03:27.074Z</time>
      </trkpt>
      <trkpt lat="68.87743" lon="17.82937">
        <ele>8.343365</ele>
        <time>2020-08-27T21:03:30.479Z</time>
      </trkpt>
      <trkpt lat="68.87733" lon="17.82967">
        <ele>8.543524</ele>
        <time>2020-08-27T21:03:33.680Z</time>
      </trkpt>
      <trkpt lat="68.87708" lon="17.83065">
        <ele>9.134313</ele>
        <time>2020-08-27T21:03:45.282Z</time>
      </trkpt>
      <trkpt lat="68.87702" lon="17.83089">
        <ele>9.278853</ele>
        <time>2020-08-27T21:03:48.480Z</time>
      </trkpt>
      <trkpt lat="68.87698" lon="17.83108">
        <ele>9.627986</ele>
        <time>2020-08-27T21:03:50.868Z</time>
      </trkpt>
      <trkpt lat="68.87667" lon="17.83231">
        <ele>11.900232</ele>
        <time>2020-08-27T21:04:08.122Z</time>
      </trkpt>
      <trkpt lat="68.87664" lon="17.83245">
        <ele>12.161473</ele>
        <time>2020-08-27T21:04:10.628Z</time>
      </trkpt>
      <trkpt lat="68.87662" lon="17.83257">
        <ele>12.371899</ele>
        <time>2020-08-27T21:04:12.063Z</time>
      </trkpt>
      <trkpt lat="68.87659" lon="17.83268">
        <ele>12.563151</ele>
        <time>2020-08-27T21:04:13.762Z</time>
      </trkpt>
      <trkpt lat="68.87653" lon="17.83306">
        <ele>13.196574</ele>
        <time>2020-08-27T21:04:19.149Z</time>
      </trkpt>
      <trkpt lat="68.87648" lon="17.83342">
        <ele>13.794736</ele>
        <time>2020-08-27T21:04:23.842Z</time>
      </trkpt>
      <trkpt lat="68.87644" lon="17.83374">
        <ele>14.320433</ele>
        <time>2020-08-27T21:04:28.422Z</time>
      </trkpt>
      <trkpt lat="68.87642" lon="17.83389">
        <ele>14.568577</ele>
        <time>2020-08-27T21:04:30.689Z</time>
      </trkpt>
      <trkpt lat="68.87622" lon="17.83544">
        <ele>17.038489</ele>
        <time>2020-08-27T21:04:48.118Z</time>
      </trkpt>
      <trkpt lat="68.8762" lon="17.83558">
        <ele>17.200526</ele>
        <time>2020-08-27T21:04:50.030Z</time>
      </trkpt>
      <trkpt lat="68.876" lon="17.83654">
        <ele>18.463681</ele>
        <time>2020-08-27T21:05:00.453Z</time>
      </trkpt>
      <trkpt lat="68.87591" lon="17.83679">
        <ele>18.864078</ele>
        <time>2020-08-27T21:05:03.687Z</time>
      </trkpt>
      <trkpt lat="68.87586" lon="17.83691">
        <ele>19.070314</ele>
        <time>2020-08-27T21:05:04.653Z</time>
      </trkpt>
      <trkpt lat="68.87565" lon="17.83732">
        <ele>19.886671</ele>
        <time>2020-08-27T21:05:12.318Z</time>
      </trkpt>
      <trkpt lat="68.8756" lon="17.8374">
        <ele>20.070316</ele>
        <time>2020-08-27T21:05:13.132Z</time>
      </trkpt>
      <trkpt lat="68.87553" lon="17.8375">
        <ele>20.323469</ele>
        <time>2020-08-27T21:05:14.961Z</time>
      </trkpt>
      <trkpt lat="68.87532" lon="17.8377">
        <ele>20.998892</ele>
        <time>2020-08-27T21:05:21.156Z</time>
      </trkpt>
      <trkpt lat="68.87496" lon="17.83779">
        <ele>22.154052</ele>
        <time>2020-08-27T21:05:32.011Z</time>
      </trkpt>
      <trkpt lat="68.87488" lon="17.83783">
        <ele>22.410926</ele>
        <time>2020-08-27T21:05:34.069Z</time>
      </trkpt>
      <trkpt lat="68.87482" lon="17.83789">
        <ele>22.615044</ele>
        <time>2020-08-27T21:05:36.343Z</time>
      </trkpt>
      <trkpt lat="68.87466" lon="17.83838">
        <ele>23.797554</ele>
        <time>2020-08-27T21:05:43.737Z</time>
      </trkpt>
      <trkpt lat="68.87465" lon="17.83847">
        <ele>23.963955</ele>
        <time>2020-08-27T21:05:44.863Z</time>
      </trkpt>
      <trkpt lat="68.87463" lon="17.8387">
        <ele>24.398274</ele>
        <time>2020-08-27T21:05:47.743Z</time>
      </trkpt>
      <trkpt lat="68.87463" lon="17.83945">
        <ele>25.7296</ele>
        <time>2020-08-27T21:05:56.611Z</time>
      </trkpt>
      <trkpt lat="68.87467" lon="17.84034">
        <ele>27.330512</ele>
        <time>2020-08-27T21:06:07.304Z</time>
      </trkpt>
      <trkpt lat="68.87468" lon="17.84043">
        <ele>27.497335</ele>
        <time>2020-08-27T21:06:08.787Z</time>
      </trkpt>
      <trkpt lat="68.8747" lon="17.84097">
        <ele>28.464679</ele>
        <time>2020-08-27T21:06:15.886Z</time>
      </trkpt>
      <trkpt lat="68.87471" lon="17.84145">
        <ele>29.319013</ele>
        <time>2020-08-27T21:06:21.982Z</time>
      </trkpt>
      <trkpt lat="68.8747" lon="17.84192">
        <ele>30.15591</ele>
        <time>2020-08-27T21:06:28.265Z</time>
      </trkpt>
      <trkpt lat="68.87464" lon="17.84292">
        <ele>31.66119</ele>
        <time>2020-08-27T21:06:41.894Z</time>
      </trkpt>
      <trkpt lat="68.87459" lon="17.8433">
        <ele>31.924434</ele>
        <time>2020-08-27T21:06:46.942Z</time>
      </trkpt>
      <trkpt lat="68.87454" lon="17.8436">
        <ele>32.144977</ele>
        <time>2020-08-27T21:06:50.983Z</time>
      </trkpt>
      <trkpt lat="68.87437" lon="17.84432">
        <ele>32.70419</ele>
        <time>2020-08-27T21:07:00.167Z</time>
      </trkpt>
      <trkpt lat="68.87429" lon="17.84459">
        <ele>32.936113</ele>
        <time>2020-08-27T21:07:03.691Z</time>
      </trkpt>
      <trkpt lat="68.87398" lon="17.84546">
        <ele>33.736493</ele>
        <time>2020-08-27T21:07:13.020Z</time>
      </trkpt>
      <trkpt lat="68.8739" lon="17.84576">
        <ele>33.987021</ele>
        <time>2020-08-27T21:07:14.951Z</time>
      </trkpt>
      <trkpt lat="68.87382" lon="17.84606">
        <ele>34.22588</ele>
        <time>2020-08-27T21:07:16.996Z</time>
      </trkpt>
      <trkpt lat="68.8737" lon="17.84675">
        <ele>34.730315</ele>
        <time>2020-08-27T21:07:21.044Z</time>
      </trkpt>
      <trkpt lat="68.87368" lon="17.84692">
        <ele>34.740594</ele>
        <time>2020-08-27T21:07:22.106Z</time>
      </trkpt>
      <trkpt lat="68.87366" lon="17.8471">
        <ele>34.71782</ele>
        <time>2020-08-27T21:07:23.231Z</time>
      </trkpt>
      <trkpt lat="68.87361" lon="17.84707">
        <ele>34.701503</ele>
        <time>2020-08-27T21:07:23.929Z</time>
      </trkpt>
      <trkpt lat="68.87355" lon="17.84702">
        <ele>34.6802</ele>
        <time>2020-08-27T21:07:24.822Z</time>
      </trkpt>
      <trkpt lat="68.87346" lon="17.84701">
        <ele>34.652212</ele>
        <time>2020-08-27T21:07:25.948Z</time>
      </trkpt>
      <trkpt lat="68.8733" lon="17.84738">
        <ele>34.58213</ele>
        <time>2020-08-27T21:07:29.972Z</time>
      </trkpt>
      <trkpt lat="68.87322" lon="17.84775">
        <ele>34.530686</ele>
        <time>2020-08-27T21:07:32.129Z</time>
      </trkpt>
      <trkpt lat="68.8731" lon="17.84834">
        <ele>34.451197</ele>
        <time>2020-08-27T21:07:36.985Z</time>
      </trkpt>
      <trkpt lat="68.87298" lon="17.84893">
        <ele>34.370664</ele>
        <time>2020-08-27T21:07:41.677Z</time>
      </trkpt>
      <trkpt lat="68.87277" lon="17.84966">
        <ele>34.260204</ele>
        <time>2020-08-27T21:07:47.674Z</time>
      </trkpt>
      <trkpt lat="68.87255" lon="17.84975">
        <ele>34.186539</ele>
        <time>2020-08-27T21:07:51.598Z</time>
      </trkpt>
      <trkpt lat="68.87247" lon="17.84965">
        <ele>34.205188</ele>
        <time>2020-08-27T21:07:52.991Z</time>
      </trkpt>
      <trkpt lat="68.87243" lon="17.84979">
        <ele>34.31208</ele>
        <time>2020-08-27T21:07:55.384Z</time>
      </trkpt>
      <trkpt lat="68.87149" lon="17.85251">
        <ele>36.589891</ele>
        <time>2020-08-27T21:08:29.192Z</time>
      </trkpt>
      <trkpt lat="68.87126" lon="17.853">
        <ele>37.071434</ele>
        <time>2020-08-27T21:08:37.231Z</time>
      </trkpt>
      <trkpt lat="68.87103" lon="17.85316">
        <ele>36.908736</ele>
        <time>2020-08-27T21:08:42.864Z</time>
      </trkpt>
      <trkpt lat="68.87076" lon="17.85289">
        <ele>36.472581</ele>
        <time>2020-08-27T21:08:49.290Z</time>
      </trkpt>
      <trkpt lat="68.87066" lon="17.85285">
        <ele>36.319115</ele>
        <time>2020-08-27T21:08:50.988Z</time>
      </trkpt>
      <trkpt lat="68.87063" lon="17.85286">
        <ele>36.267451</ele>
        <time>2020-08-27T21:08:51.922Z</time>
      </trkpt>
      <trkpt lat="68.87052" lon="17.85349">
        <ele>35.880277</ele>
        <time>2020-08-27T21:08:57.090Z</time>
      </trkpt>
      <trkpt lat="68.87031" lon="17.85351">
        <ele>35.54632</ele>
        <time>2020-08-27T21:09:01.610Z</time>
      </trkpt>
      <trkpt lat="68.87029" lon="17.85359">
        <ele>35.497293</ele>
        <time>2020-08-27T21:09:02.335Z</time>
      </trkpt>
      <trkpt lat="68.86947" lon="17.8529">
        <ele>33.357616</ele>
        <time>2020-08-27T21:09:13.288Z</time>
      </trkpt>
      <trkpt lat="68.8693" lon="17.85277">
        <ele>32.107045</ele>
        <time>2020-08-27T21:09:15.339Z</time>
      </trkpt>
      <trkpt lat="68.86916" lon="17.85268">
        <ele>31.112165</ele>
        <time>2020-08-27T21:09:16.927Z</time>
      </trkpt>
      <trkpt lat="68.86875" lon="17.85261">
        <ele>28.203312</ele>
        <time>2020-08-27T21:09:21.669Z</time>
      </trkpt>
      <trkpt lat="68.86865" lon="17.85261">
        <ele>27.484551</ele>
        <time>2020-08-27T21:09:22.811Z</time>
      </trkpt>
      <trkpt lat="68.86854" lon="17.85264">
        <ele>26.679047</ele>
        <time>2020-08-27T21:09:24.073Z</time>
      </trkpt>
      <trkpt lat="68.86842" lon="17.85267">
        <ele>25.864482</ele>
        <time>2020-08-27T21:09:25.390Z</time>
      </trkpt>
      <trkpt lat="68.86824" lon="17.85275">
        <ele>24.54646</ele>
        <time>2020-08-27T21:09:27.506Z</time>
      </trkpt>
      <trkpt lat="68.86797" lon="17.85288">
        <ele>22.634749</ele>
        <time>2020-08-27T21:09:30.543Z</time>
      </trkpt>
      <trkpt lat="68.8679" lon="17.85293">
        <ele>22.121621</ele>
        <time>2020-08-27T21:09:31.356Z</time>
      </trkpt>
      <trkpt lat="68.86785" lon="17.85297">
        <ele>21.748892</ele>
        <time>2020-08-27T21:09:31.937Z</time>
      </trkpt>
      <trkpt lat="68.86779" lon="17.85302">
        <ele>21.363186</ele>
        <time>2020-08-27T21:09:32.592Z</time>
      </trkpt>
      <trkpt lat="68.86752" lon="17.85338">
        <ele>19.527287</ele>
        <time>2020-08-27T21:09:36.000Z</time>
      </trkpt>
      <trkpt lat="68.86728" lon="17.8539">
        <ele>17.621539</ele>
        <time>2020-08-27T21:09:39.490Z</time>
      </trkpt>
      <trkpt lat="68.86705" lon="17.85454">
        <ele>15.587974</ele>
        <time>2020-08-27T21:09:43.275Z</time>
      </trkpt>
      <trkpt lat="68.86676" lon="17.85564">
        <ele>12.537599</ele>
        <time>2020-08-27T21:09:48.971Z</time>
      </trkpt>
      <trkpt lat="68.86603" lon="17.86026">
        <ele>7.684319</ele>
        <time>2020-08-27T21:10:13.029Z</time>
      </trkpt>
      <trkpt lat="68.86598" lon="17.86197">
        <ele>7.957009</ele>
        <time>2020-08-27T21:10:29.460Z</time>
      </trkpt>
      <trkpt lat="68.86598" lon="17.86258">
        <ele>8.539387</ele>
        <time>2020-08-27T21:10:36.723Z</time>
      </trkpt>
      <trkpt lat="68.86597" lon="17.86281">
        <ele>8.758932</ele>
        <time>2020-08-27T21:10:38.402Z</time>
      </trkpt>
      <trkpt lat="68.86595" lon="17.86307">
        <ele>9.019962</ele>
        <time>2020-08-27T21:10:40.273Z</time>
      </trkpt>
      <trkpt lat="68.86594" lon="17.86312">
        <ele>9.071998</ele>
        <time>2020-08-27T21:10:40.992Z</time>
      </trkpt>
      <trkpt lat="68.8659" lon="17.86337">
        <ele>9.323399</ele>
        <time>2020-08-27T21:10:45.490Z</time>
      </trkpt>
      <trkpt lat="68.8657" lon="17.86402">
        <ele>10.140982</ele>
        <time>2020-08-27T21:10:52.339Z</time>
      </trkpt>
      <trkpt lat="68.86567" lon="17.86407">
        <ele>10.231751</ele>
        <time>2020-08-27T21:10:54.921Z</time>
      </trkpt>
      <trkpt lat="68.86557" lon="17.86423">
        <ele>10.54752</ele>
        <time>2020-08-27T21:10:57.597Z</time>
      </trkpt>
      <trkpt lat="68.8655" lon="17.86431">
        <ele>10.745204</ele>
        <time>2020-08-27T21:10:58.814Z</time>
      </trkpt>
      <trkpt lat="68.86542" lon="17.86436">
        <ele>10.953315</ele>
        <time>2020-08-27T21:11:00.802Z</time>
      </trkpt>
      <trkpt lat="68.86531" lon="17.86438">
        <ele>11.265704</ele>
        <time>2020-08-27T21:11:05.782Z</time>
      </trkpt>
      <trkpt lat="68.86499" lon="17.86415">
        <ele>11.835644</ele>
        <time>2020-08-27T21:11:14.938Z</time>
      </trkpt>
      <trkpt lat="68.8648" lon="17.86374">
        <ele>11.752036</ele>
        <time>2020-08-27T21:11:19.321Z</time>
      </trkpt>
      <trkpt lat="68.86437" lon="17.8621">
        <ele>11.49456</ele>
        <time>2020-08-27T21:11:34.623Z</time>
      </trkpt>
      <trkpt lat="68.86422" lon="17.86095">
        <ele>11.337604</ele>
        <time>2020-08-27T21:11:40.484Z</time>
      </trkpt>
      <trkpt lat="68.86417" lon="17.86005">
        <ele>11.176488</ele>
        <time>2020-08-27T21:11:44.754Z</time>
      </trkpt>
      <trkpt lat="68.8642" lon="17.85912">
        <ele>10.678395</ele>
        <time>2020-08-27T21:11:49.225Z</time>
      </trkpt>
      <trkpt lat="68.86427" lon="17.8582">
        <ele>10.178213</ele>
        <time>2020-08-27T21:11:53.939Z</time>
      </trkpt>
      <trkpt lat="68.86453" lon="17.85631">
        <ele>9.1009</ele>
        <time>2020-08-27T21:12:04.853Z</time>
      </trkpt>
      <trkpt lat="68.86465" lon="17.85522">
        <ele>8.651191</ele>
        <time>2020-08-27T21:12:11.933Z</time>
      </trkpt>
      <trkpt lat="68.86472" lon="17.85451">
        <ele>8.992735</ele>
        <time>2020-08-27T21:12:17.153Z</time>
      </trkpt>
      <trkpt lat="68.86493" lon="17.85099">
        <ele>10.651383</ele>
        <time>2020-08-27T21:12:46.552Z</time>
      </trkpt>
      <trkpt lat="68.86517" lon="17.84423">
        <ele>15.640384</ele>
        <time>2020-08-27T21:13:47.179Z</time>
      </trkpt>
      <trkpt lat="68.86518" lon="17.84281">
        <ele>16.686454</ele>
        <time>2020-08-27T21:13:59.934Z</time>
      </trkpt>
      <trkpt lat="68.86506" lon="17.8395">
        <ele>19.029147</ele>
        <time>2020-08-27T21:14:28.785Z</time>
      </trkpt>
      <trkpt lat="68.86461" lon="17.83501">
        <ele>21.898121</ele>
        <time>2020-08-27T21:15:08.232Z</time>
      </trkpt>
      <trkpt lat="68.86453" lon="17.83424">
        <ele>22.293259</ele>
        <time>2020-08-27T21:15:14.750Z</time>
      </trkpt>
      <trkpt lat="68.86446" lon="17.83377">
        <ele>22.545875</ele>
        <time>2020-08-27T21:15:19.316Z</time>
      </trkpt>
      <trkpt lat="68.86407" lon="17.83198">
        <ele>23.568975</ele>
        <time>2020-08-27T21:15:35.359Z</time>
      </trkpt>
      <trkpt lat="68.86391" lon="17.8306">
        <ele>24.342296</ele>
        <time>2020-08-27T21:15:46.139Z</time>
      </trkpt>
      <trkpt lat="68.86373" lon="17.82803">
        <ele>25.916162</ele>
        <time>2020-08-27T21:16:07.316Z</time>
      </trkpt>
      <trkpt lat="68.86363" lon="17.82665">
        <ele>26.757772</ele>
        <time>2020-08-27T21:16:19.455Z</time>
      </trkpt>
      <trkpt lat="68.8635" lon="17.82488">
        <ele>28.933904</ele>
        <time>2020-08-27T21:16:36.835Z</time>
      </trkpt>
      <trkpt lat="68.86331" lon="17.82335">
        <ele>31.158213</ele>
        <time>2020-08-27T21:16:54.416Z</time>
      </trkpt>
      <trkpt lat="68.86306" lon="17.8224">
        <ele>32.771519</ele>
        <time>2020-08-27T21:17:09.059Z</time>
      </trkpt>
      <trkpt lat="68.8626" lon="17.82131">
        <ele>34.966706</ele>
        <time>2020-08-27T21:17:28.998Z</time>
      </trkpt>
      <trkpt lat="68.86207" lon="17.82054">
        <ele>37.07663</ele>
        <time>2020-08-27T21:17:47.037Z</time>
      </trkpt>
      <trkpt lat="68.86188" lon="17.82035">
        <ele>37.791951</ele>
        <time>2020-08-27T21:17:53.376Z</time>
      </trkpt>
      <trkpt lat="68.86177" lon="17.82023">
        <ele>38.227504</ele>
        <time>2020-08-27T21:17:56.436Z</time>
      </trkpt>
      <trkpt lat="68.86148" lon="17.81994">
        <ele>39.319487</ele>
        <time>2020-08-27T21:18:04.886Z</time>
      </trkpt>
      <trkpt lat="68.8613" lon="17.81972">
        <ele>40.009852</ele>
        <time>2020-08-27T21:18:09.764Z</time>
      </trkpt>
      <trkpt lat="68.86061" lon="17.81843">
        <ele>41.004803</ele>
        <time>2020-08-27T21:18:29.133Z</time>
      </trkpt>
      <trkpt lat="68.86038" lon="17.81813">
        <ele>41.272617</ele>
        <time>2020-08-27T21:18:33.628Z</time>
      </trkpt>
      <trkpt lat="68.86004" lon="17.81789">
        <ele>41.651274</ele>
        <time>2020-08-27T21:18:39.990Z</time>
      </trkpt>
      <trkpt lat="68.85952" lon="17.81791">
        <ele>42.318587</ele>
        <time>2020-08-27T21:18:49.946Z</time>
      </trkpt>
      <trkpt lat="68.8585" lon="17.81837">
        <ele>44.519201</ele>
        <time>2020-08-27T21:19:13.359Z</time>
      </trkpt>
      <trkpt lat="68.85792" lon="17.81882">
        <ele>45.811548</ele>
        <time>2020-08-27T21:19:29.691Z</time>
      </trkpt>
      <trkpt lat="68.85752" lon="17.81954">
        <ele>48.296555</ele>
        <time>2020-08-27T21:19:45.466Z</time>
      </trkpt>
      <trkpt lat="68.85719" lon="17.82072">
        <ele>51.289756</ele>
        <time>2020-08-27T21:20:04.547Z</time>
      </trkpt>
      <trkpt lat="68.85705" lon="17.82184">
        <ele>53.675477</ele>
        <time>2020-08-27T21:20:20.902Z</time>
      </trkpt>
      <trkpt lat="68.85699" lon="17.8229">
        <ele>55.846093</ele>
        <time>2020-08-27T21:20:36.102Z</time>
      </trkpt>
      <trkpt lat="68.85696" lon="17.82336">
        <ele>56.974344</ele>
        <time>2020-08-27T21:20:42.764Z</time>
      </trkpt>
      <trkpt lat="68.85688" lon="17.824">
        <ele>58.617775</ele>
        <time>2020-08-27T21:20:52.248Z</time>
      </trkpt>
      <trkpt lat="68.85683" lon="17.82427">
        <ele>59.369676</ele>
        <time>2020-08-27T21:20:56.764Z</time>
      </trkpt>
      <trkpt lat="68.85674" lon="17.8247">
        <ele>60.560558</ele>
        <time>2020-08-27T21:21:03.886Z</time>
      </trkpt>
      <trkpt lat="68.85617" lon="17.82684">
        <ele>67.070521</ele>
        <time>2020-08-27T21:21:42.290Z</time>
      </trkpt>
      <trkpt lat="68.85558" lon="17.82866">
        <ele>73.120149</ele>
        <time>2020-08-27T21:22:16.350Z</time>
      </trkpt>
      <trkpt lat="68.85515" lon="17.82966">
        <ele>76.998559</ele>
        <time>2020-08-27T21:22:39.340Z</time>
      </trkpt>
      <trkpt lat="68.85462" lon="17.83045">
        <ele>81.148532</ele>
        <time>2020-08-27T21:23:03.177Z</time>
      </trkpt>
      <trkpt lat="68.85452" lon="17.83062">
        <ele>81.967443</ele>
        <time>2020-08-27T21:23:07.886Z</time>
      </trkpt>
      <trkpt lat="68.85445" lon="17.83076">
        <ele>82.597107</ele>
        <time>2020-08-27T21:23:10.771Z</time>
      </trkpt>
      <trkpt lat="68.85437" lon="17.83092">
        <ele>83.259614</ele>
        <time>2020-08-27T21:23:15.740Z</time>
      </trkpt>
      <trkpt lat="68.85336" lon="17.83363">
        <ele>93.347255</ele>
        <time>2020-08-27T21:24:14.327Z</time>
      </trkpt>
      <trkpt lat="68.85332" lon="17.83372">
        <ele>93.622988</ele>
        <time>2020-08-27T21:24:17.759Z</time>
      </trkpt>
      <trkpt lat="68.85316" lon="17.83407">
        <ele>94.54935</ele>
        <time>2020-08-27T21:24:24.305Z</time>
      </trkpt>
      <trkpt lat="68.85237" lon="17.83548">
        <ele>98.835714</ele>
        <time>2020-08-27T21:24:55.756Z</time>
      </trkpt>
      <trkpt lat="68.8516" lon="17.83642">
        <ele>102.1378</ele>
        <time>2020-08-27T21:25:19.080Z</time>
      </trkpt>
      <trkpt lat="68.85111" lon="17.83676">
        <ele>103.249215</ele>
        <time>2020-08-27T21:25:30.898Z</time>
      </trkpt>
      <trkpt lat="68.85026" lon="17.83678">
        <ele>105.129857</ele>
        <time>2020-08-27T21:25:50.963Z</time>
      </trkpt>
      <trkpt lat="68.84988" lon="17.837">
        <ele>106.147904</ele>
        <time>2020-08-27T21:26:00.486Z</time>
      </trkpt>
      <trkpt lat="68.84891" lon="17.83858">
        <ele>109.643674</ele>
        <time>2020-08-27T21:26:31.492Z</time>
      </trkpt>
      <trkpt lat="68.84806" lon="17.83917">
        <ele>112.541251</ele>
        <time>2020-08-27T21:26:58.223Z</time>
      </trkpt>
      <trkpt lat="68.8478" lon="17.83945">
        <ele>113.53163</ele>
        <time>2020-08-27T21:27:06.807Z</time>
      </trkpt>
      <trkpt lat="68.8471" lon="17.84081">
        <ele>116.568357</ele>
        <time>2020-08-27T21:27:32.443Z</time>
      </trkpt>
      <trkpt lat="68.84676" lon="17.84122">
        <ele>117.689223</ele>
        <time>2020-08-27T21:27:42.513Z</time>
      </trkpt>
      <trkpt lat="68.8463" lon="17.84136">
        <ele>118.294523</ele>
        <time>2020-08-27T21:27:54.112Z</time>
      </trkpt>
      <trkpt lat="68.84553" lon="17.841">
        <ele>119.312049</ele>
        <time>2020-08-27T21:28:10.869Z</time>
      </trkpt>
      <trkpt lat="68.84522" lon="17.84098">
        <ele>119.717765</ele>
        <time>2020-08-27T21:28:16.777Z</time>
      </trkpt>
      <trkpt lat="68.84418" lon="17.84143">
        <ele>119.681337</ele>
        <time>2020-08-27T21:28:34.592Z</time>
      </trkpt>
      <trkpt lat="68.84355" lon="17.84188">
        <ele>119.508439</ele>
        <time>2020-08-27T21:28:45.278Z</time>
      </trkpt>
      <trkpt lat="68.8433" lon="17.84225">
        <ele>119.445324</ele>
        <time>2020-08-27T21:28:49.978Z</time>
      </trkpt>
      <trkpt lat="68.84305" lon="17.84286">
        <ele>119.505807</ele>
        <time>2020-08-27T21:28:55.747Z</time>
      </trkpt>
      <trkpt lat="68.84244" lon="17.84505">
        <ele>119.684359</ele>
        <time>2020-08-27T21:29:13.845Z</time>
      </trkpt>
      <trkpt lat="68.84215" lon="17.8459">
        <ele>119.759455</ele>
        <time>2020-08-27T21:29:22.092Z</time>
      </trkpt>
      <trkpt lat="68.8417" lon="17.84672">
        <ele>120.851419</ele>
        <time>2020-08-27T21:29:33.713Z</time>
      </trkpt>
      <trkpt lat="68.84152" lon="17.8469">
        <ele>121.232973</ele>
        <time>2020-08-27T21:29:37.938Z</time>
      </trkpt>
      <trkpt lat="68.84138" lon="17.84701">
        <ele>121.542745</ele>
        <time>2020-08-27T21:29:41.382Z</time>
      </trkpt>
      <trkpt lat="68.84122" lon="17.84708">
        <ele>121.876644</ele>
        <time>2020-08-27T21:29:45.163Z</time>
      </trkpt>
      <trkpt lat="68.84109" lon="17.84711">
        <ele>122.157037</ele>
        <time>2020-08-27T21:29:48.902Z</time>
      </trkpt>
      <trkpt lat="68.84095" lon="17.84711">
        <ele>122.432269</ele>
        <time>2020-08-27T21:29:52.474Z</time>
      </trkpt>
      <trkpt lat="68.84078" lon="17.84707">
        <ele>122.787338</ele>
        <time>2020-08-27T21:29:56.816Z</time>
      </trkpt>
      <trkpt lat="68.84066" lon="17.84702">
        <ele>123.040848</ele>
        <time>2020-08-27T21:30:00.657Z</time>
      </trkpt>
      <trkpt lat="68.84018" lon="17.84669">
        <ele>124.665594</ele>
        <time>2020-08-27T21:30:14.685Z</time>
      </trkpt>
      <trkpt lat="68.83976" lon="17.84653">
        <ele>126.441835</ele>
        <time>2020-08-27T21:30:27.394Z</time>
      </trkpt>
      <trkpt lat="68.83965" lon="17.84654">
        <ele>126.872736</ele>
        <time>2020-08-27T21:30:31.134Z</time>
      </trkpt>
      <trkpt lat="68.83959" lon="17.84655">
        <ele>127.157202</ele>
        <time>2020-08-27T21:30:33.399Z</time>
      </trkpt>
      <trkpt lat="68.8394" lon="17.8466">
        <ele>127.939773</ele>
        <time>2020-08-27T21:30:38.798Z</time>
      </trkpt>
      <trkpt lat="68.83928" lon="17.84665">
        <ele>128.438524</ele>
        <time>2020-08-27T21:30:43.179Z</time>
      </trkpt>
      <trkpt lat="68.83647" lon="17.84801">
        <ele>141.334657</ele>
        <time>2020-08-27T21:32:15.993Z</time>
      </trkpt>
      <trkpt lat="68.83539" lon="17.84854">
        <ele>146.468232</ele>
        <time>2020-08-27T21:32:52.213Z</time>
      </trkpt>
      <trkpt lat="68.83492" lon="17.84886">
        <ele>148.722539</ele>
        <time>2020-08-27T21:33:08.331Z</time>
      </trkpt>
      <trkpt lat="68.83457" lon="17.84924">
        <ele>150.445691</ele>
        <time>2020-08-27T21:33:20.660Z</time>
      </trkpt>
      <trkpt lat="68.8331" lon="17.85173">
        <ele>158.256506</ele>
        <time>2020-08-27T21:34:17.131Z</time>
      </trkpt>
      <trkpt lat="68.83267" lon="17.85205">
        <ele>160.097828</ele>
        <time>2020-08-27T21:34:30.720Z</time>
      </trkpt>
      <trkpt lat="68.83234" lon="17.85204">
        <ele>161.51829</ele>
        <time>2020-08-27T21:34:40.940Z</time>
      </trkpt>
      <trkpt lat="68.83224" lon="17.85198">
        <ele>161.94611</ele>
        <time>2020-08-27T21:34:44.299Z</time>
      </trkpt>
      <trkpt lat="68.83213" lon="17.8519">
        <ele>162.400479</ele>
        <time>2020-08-27T21:34:47.613Z</time>
      </trkpt>
      <trkpt lat="68.8318" lon="17.8515">
        <ele>163.893861</ele>
        <time>2020-08-27T21:34:58.436Z</time>
      </trkpt>
      <trkpt lat="68.83095" lon="17.85002">
        <ele>167.732348</ele>
        <time>2020-08-27T21:35:28.659Z</time>
      </trkpt>
      <trkpt lat="68.83068" lon="17.84973">
        <ele>168.826871</ele>
        <time>2020-08-27T21:35:37.126Z</time>
      </trkpt>
      <trkpt lat="68.8304" lon="17.84959">
        <ele>169.916233</ele>
        <time>2020-08-27T21:35:45.583Z</time>
      </trkpt>
      <trkpt lat="68.83008" lon="17.84963">
        <ele>171.132575</ele>
        <time>2020-08-27T21:35:55.385Z</time>
      </trkpt>
      <trkpt lat="68.82984" lon="17.84981">
        <ele>172.060946</ele>
        <time>2020-08-27T21:36:03.089Z</time>
      </trkpt>
      <trkpt lat="68.82915" lon="17.85077">
        <ele>174.907116</ele>
        <time>2020-08-27T21:36:26.627Z</time>
      </trkpt>
      <trkpt lat="68.82882" lon="17.85109">
        <ele>176.190453</ele>
        <time>2020-08-27T21:36:36.859Z</time>
      </trkpt>
      <trkpt lat="68.82842" lon="17.8512">
        <ele>177.467516</ele>
        <time>2020-08-27T21:36:48.265Z</time>
      </trkpt>
      <trkpt lat="68.82796" lon="17.85104">
        <ele>178.548681</ele>
        <time>2020-08-27T21:37:00.790Z</time>
      </trkpt>
      <trkpt lat="68.8261" lon="17.84976">
        <ele>182.577553</ele>
        <time>2020-08-27T21:37:46.416Z</time>
      </trkpt>
      <trkpt lat="68.82566" lon="17.84916">
        <ele>183.426835</ele>
        <time>2020-08-27T21:37:57.254Z</time>
      </trkpt>
      <trkpt lat="68.8247" lon="17.84753">
        <ele>186.067335</ele>
        <time>2020-08-27T21:38:23.884Z</time>
      </trkpt>
      <trkpt lat="68.82443" lon="17.84731">
        <ele>186.92756</ele>
        <time>2020-08-27T21:38:31.406Z</time>
      </trkpt>
      <trkpt lat="68.82398" lon="17.84724">
        <ele>188.2865</ele>
        <time>2020-08-27T21:38:45.029Z</time>
      </trkpt>
      <trkpt lat="68.82388" lon="17.84727">
        <ele>188.580922</ele>
        <time>2020-08-27T21:38:47.920Z</time>
      </trkpt>
      <trkpt lat="68.82378" lon="17.84732">
        <ele>188.908487</ele>
        <time>2020-08-27T21:38:51.455Z</time>
      </trkpt>
      <trkpt lat="68.82341" lon="17.84767">
        <ele>190.104662</ele>
        <time>2020-08-27T21:39:02.888Z</time>
      </trkpt>
      <trkpt lat="68.82308" lon="17.84825">
        <ele>191.410801</ele>
        <time>2020-08-27T21:39:14.350Z</time>
      </trkpt>
      <trkpt lat="68.82302" lon="17.84839">
        <ele>191.681305</ele>
        <time>2020-08-27T21:39:17.021Z</time>
      </trkpt>
      <trkpt lat="68.82291" lon="17.84868">
        <ele>192.214363</ele>
        <time>2020-08-27T21:39:21.961Z</time>
      </trkpt>
      <trkpt lat="68.82232" lon="17.85025">
        <ele>194.961736</ele>
        <time>2020-08-27T21:39:45.231Z</time>
      </trkpt>
      <trkpt lat="68.82203" lon="17.85074">
        <ele>195.996754</ele>
        <time>2020-08-27T21:39:54.293Z</time>
      </trkpt>
      <trkpt lat="68.82175" lon="17.85103">
        <ele>196.374962</ele>
        <time>2020-08-27T21:40:02.331Z</time>
      </trkpt>
      <trkpt lat="68.82027" lon="17.85151">
        <ele>198.200332</ele>
        <time>2020-08-27T21:40:33.035Z</time>
      </trkpt>
      <trkpt lat="68.81896" lon="17.85176">
        <ele>198.236115</ele>
        <time>2020-08-27T21:40:56.941Z</time>
      </trkpt>
      <trkpt lat="68.81872" lon="17.85173">
        <ele>198.242523</ele>
        <time>2020-08-27T21:41:00.946Z</time>
      </trkpt>
      <trkpt lat="68.81846" lon="17.85164">
        <ele>198.204969</ele>
        <time>2020-08-27T21:41:05.216Z</time>
      </trkpt>
      <trkpt lat="68.81772" lon="17.85111">
        <ele>197.721748</ele>
        <time>2020-08-27T21:41:17.571Z</time>
      </trkpt>
      <trkpt lat="68.8175" lon="17.85088">
        <ele>197.575306</ele>
        <time>2020-08-27T21:41:21.157Z</time>
      </trkpt>
      <trkpt lat="68.81737" lon="17.85074">
        <ele>197.484119</ele>
        <time>2020-08-27T21:41:23.543Z</time>
      </trkpt>
      <trkpt lat="68.81715" lon="17.8505">
        <ele>197.335097</ele>
        <time>2020-08-27T21:41:27.219Z</time>
      </trkpt>
      <trkpt lat="68.81644" lon="17.8498">
        <ele>197.100685</ele>
        <time>2020-08-27T21:41:39.562Z</time>
      </trkpt>
      <trkpt lat="68.81616" lon="17.84956">
        <ele>197.0928</ele>
        <time>2020-08-27T21:41:44.530Z</time>
      </trkpt>
      <trkpt lat="68.81581" lon="17.84928">
        <ele>197.083042</ele>
        <time>2020-08-27T21:41:51.018Z</time>
      </trkpt>
      <trkpt lat="68.81301" lon="17.84708">
        <ele>198.033066</ele>
        <time>2020-08-27T21:42:47.133Z</time>
      </trkpt>
      <trkpt lat="68.81244" lon="17.84633">
        <ele>198.243427</ele>
        <time>2020-08-27T21:42:59.200Z</time>
      </trkpt>
      <trkpt lat="68.8124" lon="17.84625">
        <ele>198.260119</ele>
        <time>2020-08-27T21:43:00.339Z</time>
      </trkpt>
      <trkpt lat="68.81232" lon="17.84607">
        <ele>198.295888</ele>
        <time>2020-08-27T21:43:02.329Z</time>
      </trkpt>
      <trkpt lat="68.81205" lon="17.84531">
        <ele>198.423261</ele>
        <time>2020-08-27T21:43:09.589Z</time>
      </trkpt>
      <trkpt lat="68.81133" lon="17.8426">
        <ele>197.972475</ele>
        <time>2020-08-27T21:43:31.165Z</time>
      </trkpt>
      <trkpt lat="68.81099" lon="17.84153">
        <ele>197.677901</ele>
        <time>2020-08-27T21:43:39.465Z</time>
      </trkpt>
      <trkpt lat="68.80864" lon="17.83573">
        <ele>192.065854</ele>
        <time>2020-08-27T21:44:24.711Z</time>
      </trkpt>
      <trkpt lat="68.80801" lon="17.83456">
        <ele>190.380457</ele>
        <time>2020-08-27T21:44:34.850Z</time>
      </trkpt>
      <trkpt lat="68.80744" lon="17.83375">
        <ele>188.898556</ele>
        <time>2020-08-27T21:44:43.407Z</time>
      </trkpt>
      <trkpt lat="68.80689" lon="17.83322">
        <ele>187.555735</ele>
        <time>2020-08-27T21:44:51.252Z</time>
      </trkpt>
      <trkpt lat="68.80638" lon="17.833">
        <ele>186.366212</ele>
        <time>2020-08-27T21:44:58.620Z</time>
      </trkpt>
      <trkpt lat="68.80628" lon="17.83299">
        <ele>186.16842</ele>
        <time>2020-08-27T21:45:00.011Z</time>
      </trkpt>
      <trkpt lat="68.80606" lon="17.833">
        <ele>186.072982</ele>
        <time>2020-08-27T21:45:03.454Z</time>
      </trkpt>
      <trkpt lat="68.80454" lon="17.83325">
        <ele>185.420944</ele>
        <time>2020-08-27T21:45:29.401Z</time>
      </trkpt>
      <trkpt lat="68.80425" lon="17.83326">
        <ele>185.433419</ele>
        <time>2020-08-27T21:45:35.265Z</time>
      </trkpt>
      <trkpt lat="68.80407" lon="17.83324">
        <ele>185.45325</ele>
        <time>2020-08-27T21:45:38.762Z</time>
      </trkpt>
      <trkpt lat="68.80368" lon="17.8331">
        <ele>185.498552</ele>
        <time>2020-08-27T21:45:46.386Z</time>
      </trkpt>
      <trkpt lat="68.80329" lon="17.83277">
        <ele>185.545955</ele>
        <time>2020-08-27T21:45:54.163Z</time>
      </trkpt>
      <trkpt lat="68.80263" lon="17.83176">
        <ele>185.374192</ele>
        <time>2020-08-27T21:46:07.359Z</time>
      </trkpt>
      <trkpt lat="68.8022" lon="17.83064">
        <ele>184.646274</ele>
        <time>2020-08-27T21:46:16.644Z</time>
      </trkpt>
      <trkpt lat="68.80103" lon="17.82683">
        <ele>181.640362</ele>
        <time>2020-08-27T21:46:42.537Z</time>
      </trkpt>
      <trkpt lat="68.80031" lon="17.82499">
        <ele>179.446616</ele>
        <time>2020-08-27T21:46:55.997Z</time>
      </trkpt>
      <trkpt lat="68.79977" lon="17.82389">
        <ele>177.521892</ele>
        <time>2020-08-27T21:47:04.955Z</time>
      </trkpt>
      <trkpt lat="68.79781" lon="17.82033">
        <ele>170.416716</ele>
        <time>2020-08-27T21:47:35.902Z</time>
      </trkpt>
      <trkpt lat="68.79575" lon="17.81553">
        <ele>161.629216</ele>
        <time>2020-08-27T21:48:11.019Z</time>
      </trkpt>
      <trkpt lat="68.79495" lon="17.81382">
        <ele>158.044117</ele>
        <time>2020-08-27T21:48:24.285Z</time>
      </trkpt>
      <trkpt lat="68.79383" lon="17.81196">
        <ele>151.785524</ele>
        <time>2020-08-27T21:48:40.571Z</time>
      </trkpt>
      <trkpt lat="68.79329" lon="17.81088">
        <ele>148.121689</ele>
        <time>2020-08-27T21:48:48.305Z</time>
      </trkpt>
      <trkpt lat="68.79296" lon="17.81014">
        <ele>145.641691</ele>
        <time>2020-08-27T21:48:53.234Z</time>
      </trkpt>
      <trkpt lat="68.79249" lon="17.80908">
        <ele>141.563665</ele>
        <time>2020-08-27T21:49:00.203Z</time>
      </trkpt>
      <trkpt lat="68.79151" lon="17.8061">
        <ele>132.188457</ele>
        <time>2020-08-27T21:49:17.083Z</time>
      </trkpt>
      <trkpt lat="68.79049" lon="17.80391">
        <ele>125.112208</ele>
        <time>2020-08-27T21:49:32.577Z</time>
      </trkpt>
      <trkpt lat="68.78976" lon="17.80249">
        <ele>121.229378</ele>
        <time>2020-08-27T21:49:43.677Z</time>
      </trkpt>
      <trkpt lat="68.78932" lon="17.80188">
        <ele>119.194918</ele>
        <time>2020-08-27T21:49:49.884Z</time>
      </trkpt>
      <trkpt lat="68.78902" lon="17.80164">
        <ele>117.908568</ele>
        <time>2020-08-27T21:49:53.835Z</time>
      </trkpt>
      <trkpt lat="68.78804" lon="17.80156">
        <ele>114.333604</ele>
        <time>2020-08-27T21:50:06.452Z</time>
      </trkpt>
      <trkpt lat="68.78787" lon="17.8015">
        <ele>113.727402</ele>
        <time>2020-08-27T21:50:08.666Z</time>
      </trkpt>
      <trkpt lat="68.78776" lon="17.80144">
        <ele>113.331712</ele>
        <time>2020-08-27T21:50:10.151Z</time>
      </trkpt>
      <trkpt lat="68.78746" lon="17.80112">
        <ele>112.209516</ele>
        <time>2020-08-27T21:50:14.329Z</time>
      </trkpt>
      <trkpt lat="68.78716" lon="17.8005">
        <ele>110.894414</ele>
        <time>2020-08-27T21:50:19.210Z</time>
      </trkpt>
      <trkpt lat="68.78708" lon="17.80025">
        <ele>110.437946</ele>
        <time>2020-08-27T21:50:20.767Z</time>
      </trkpt>
      <trkpt lat="68.78679" lon="17.79926">
        <ele>108.481739</ele>
        <time>2020-08-27T21:50:26.589Z</time>
      </trkpt>
      <trkpt lat="68.78654" lon="17.7986">
        <ele>107.003217</ele>
        <time>2020-08-27T21:50:31.025Z</time>
      </trkpt>
      <trkpt lat="68.78627" lon="17.79816">
        <ele>105.685875</ele>
        <time>2020-08-27T21:50:34.976Z</time>
      </trkpt>
      <trkpt lat="68.78462" lon="17.79647">
        <ele>96.413394</ele>
        <time>2020-08-27T21:50:56.172Z</time>
      </trkpt>
      <trkpt lat="68.78362" lon="17.79545">
        <ele>89.109991</ele>
        <time>2020-08-27T21:51:08.470Z</time>
      </trkpt>
      <trkpt lat="68.78356" lon="17.79539">
        <ele>88.550885</ele>
        <time>2020-08-27T21:51:09.231Z</time>
      </trkpt>
      <trkpt lat="68.78332" lon="17.79512">
        <ele>86.345372</ele>
        <time>2020-08-27T21:51:12.171Z</time>
      </trkpt>
      <trkpt lat="68.78245" lon="17.79356">
        <ele>77.447848</ele>
        <time>2020-08-27T21:51:23.555Z</time>
      </trkpt>
      <trkpt lat="68.78195" lon="17.79321">
        <ele>72.822197</ele>
        <time>2020-08-27T21:51:29.224Z</time>
      </trkpt>
      <trkpt lat="68.78181" lon="17.79321">
        <ele>71.49089</ele>
        <time>2020-08-27T21:51:30.844Z</time>
      </trkpt>
      <trkpt lat="68.7817" lon="17.79323">
        <ele>70.509228</ele>
        <time>2020-08-27T21:51:32.017Z</time>
      </trkpt>
      <trkpt lat="68.78097" lon="17.7938">
        <ele>63.691438</ele>
        <time>2020-08-27T21:51:40.369Z</time>
      </trkpt>
      <trkpt lat="68.78047" lon="17.79456">
        <ele>59.12143</ele>
        <time>2020-08-27T21:51:46.735Z</time>
      </trkpt>
      <trkpt lat="68.78009" lon="17.79547">
        <ele>55.885862</ele>
        <time>2020-08-27T21:51:52.482Z</time>
      </trkpt>
      <trkpt lat="68.77958" lon="17.79733">
        <ele>50.378789</ele>
        <time>2020-08-27T21:52:02.597Z</time>
      </trkpt>
      <trkpt lat="68.77956" lon="17.79739">
        <ele>50.219093</ele>
        <time>2020-08-27T21:52:02.854Z</time>
      </trkpt>
      <trkpt lat="68.77946" lon="17.79772">
        <ele>49.206996</ele>
        <time>2020-08-27T21:52:04.795Z</time>
      </trkpt>
      <trkpt lat="68.77936" lon="17.798">
        <ele>48.513078</ele>
        <time>2020-08-27T21:52:06.623Z</time>
      </trkpt>
      <trkpt lat="68.77923" lon="17.79829">
        <ele>47.796215</ele>
        <time>2020-08-27T21:52:08.564Z</time>
      </trkpt>
      <trkpt lat="68.77858" lon="17.79931">
        <ele>44.539246</ele>
        <time>2020-08-27T21:52:17.920Z</time>
      </trkpt>
      <trkpt lat="68.77842" lon="17.79949">
        <ele>43.80533</ele>
        <time>2020-08-27T21:52:20.106Z</time>
      </trkpt>
      <trkpt lat="68.77733" lon="17.80071">
        <ele>38.905511</ele>
        <time>2020-08-27T21:52:35.024Z</time>
      </trkpt>
      <trkpt lat="68.77711" lon="17.80092">
        <ele>38.017378</ele>
        <time>2020-08-27T21:52:37.890Z</time>
      </trkpt>
      <trkpt lat="68.77691" lon="17.80108">
        <ele>37.194864</ele>
        <time>2020-08-27T21:52:40.509Z</time>
      </trkpt>
      <trkpt lat="68.77678" lon="17.80116">
        <ele>36.660206</ele>
        <time>2020-08-27T21:52:42.328Z</time>
      </trkpt>
      <trkpt lat="68.77654" lon="17.80129">
        <ele>35.677636</ele>
        <time>2020-08-27T21:52:45.499Z</time>
      </trkpt>
      <trkpt lat="68.77642" lon="17.80135">
        <ele>35.19907</ele>
        <time>2020-08-27T21:52:47.124Z</time>
      </trkpt>
      <trkpt lat="68.77626" lon="17.80141">
        <ele>34.559616</ele>
        <time>2020-08-27T21:52:49.138Z</time>
      </trkpt>
      <trkpt lat="68.77544" lon="17.80144">
        <ele>30.610757</ele>
        <time>2020-08-27T21:52:59.063Z</time>
      </trkpt>
      <trkpt lat="68.77482" lon="17.80113">
        <ele>27.471706</ele>
        <time>2020-08-27T21:53:06.708Z</time>
      </trkpt>
      <trkpt lat="68.77467" lon="17.80101">
        <ele>26.738216</ele>
        <time>2020-08-27T21:53:08.461Z</time>
      </trkpt>
      <trkpt lat="68.7746" lon="17.80094">
        <ele>26.33057</ele>
        <time>2020-08-27T21:53:09.485Z</time>
      </trkpt>
      <trkpt lat="68.77426" lon="17.80062">
        <ele>24.593977</ele>
        <time>2020-08-27T21:53:13.776Z</time>
      </trkpt>
      <trkpt lat="68.7734" lon="17.79965">
        <ele>20.10068</ele>
        <time>2020-08-27T21:53:25.024Z</time>
      </trkpt>
      <trkpt lat="68.77276" lon="17.79908">
        <ele>16.867267</ele>
        <time>2020-08-27T21:53:33.243Z</time>
      </trkpt>
      <trkpt lat="68.77046" lon="17.79788">
        <ele>10.782561</ele>
        <time>2020-08-27T21:54:03.600Z</time>
      </trkpt>
      <trkpt lat="68.76999" lon="17.79795">
        <ele>11.189943</ele>
        <time>2020-08-27T21:54:12.209Z</time>
      </trkpt>
      <trkpt lat="68.76965" lon="17.79842">
        <ele>11.512508</ele>
        <time>2020-08-27T21:54:20.834Z</time>
      </trkpt>
      <trkpt lat="68.76959" lon="17.79858">
        <ele>11.587392</ele>
        <time>2020-08-27T21:54:22.863Z</time>
      </trkpt>
      <trkpt lat="68.76952" lon="17.79878">
        <ele>11.671791</ele>
        <time>2020-08-27T21:54:28.133Z</time>
      </trkpt>
      <trkpt lat="68.76927" lon="17.80006">
        <ele>13.098252</ele>
        <time>2020-08-27T21:54:44.934Z</time>
      </trkpt>
      <trkpt lat="68.76914" lon="17.80173">
        <ele>16.180455</ele>
        <time>2020-08-27T21:55:07.630Z</time>
      </trkpt>
      <trkpt lat="68.76904" lon="17.80227">
        <ele>17.282139</ele>
        <time>2020-08-27T21:55:14.191Z</time>
      </trkpt>
      <trkpt lat="68.76901" lon="17.80236">
        <ele>17.503837</ele>
        <time>2020-08-27T21:55:17.662Z</time>
      </trkpt>
      <trkpt lat="68.76893" lon="17.80255">
        <ele>18.02012</ele>
        <time>2020-08-27T21:55:20.533Z</time>
      </trkpt>
      <trkpt lat="68.76888" lon="17.80264">
        <ele>18.321822</ele>
        <time>2020-08-27T21:55:22.023Z</time>
      </trkpt>
      <trkpt lat="68.76879" lon="17.80277">
        <ele>18.831538</ele>
        <time>2020-08-27T21:55:24.357Z</time>
      </trkpt>
      <trkpt lat="68.76874" lon="17.80281">
        <ele>19.092153</ele>
        <time>2020-08-27T21:55:26.453Z</time>
      </trkpt>
      <trkpt lat="68.7687" lon="17.80283">
        <ele>19.285404</ele>
        <time>2020-08-27T21:55:29.021Z</time>
      </trkpt>
      <trkpt lat="68.76858" lon="17.80286">
        <ele>19.885939</ele>
        <time>2020-08-27T21:55:32.267Z</time>
      </trkpt>
      <trkpt lat="68.76797" lon="17.80262">
        <ele>22.617565</ele>
        <time>2020-08-27T21:55:52.465Z</time>
      </trkpt>
      <trkpt lat="68.76753" lon="17.80276">
        <ele>24.462325</ele>
        <time>2020-08-27T21:56:06.201Z</time>
      </trkpt>
      <trkpt lat="68.76741" lon="17.80283">
        <ele>24.957967</ele>
        <time>2020-08-27T21:56:08.813Z</time>
      </trkpt>
      <trkpt lat="68.76722" lon="17.80298">
        <ele>25.790457</ele>
        <time>2020-08-27T21:56:14.794Z</time>
      </trkpt>
      <trkpt lat="68.76506" lon="17.8052">
        <ele>35.807661</ele>
        <time>2020-08-27T21:57:28.630Z</time>
      </trkpt>
      <trkpt lat="68.76484" lon="17.8054">
        <ele>36.661876</ele>
        <time>2020-08-27T21:57:36.509Z</time>
      </trkpt>
      <trkpt lat="68.76469" lon="17.80553">
        <ele>37.144516</ele>
        <time>2020-08-27T21:57:41.481Z</time>
      </trkpt>
      <trkpt lat="68.76378" lon="17.80615">
        <ele>40.046927</ele>
        <time>2020-08-27T21:58:09.383Z</time>
      </trkpt>
      <trkpt lat="68.76359" lon="17.80622">
        <ele>40.625401</ele>
        <time>2020-08-27T21:58:14.422Z</time>
      </trkpt>
      <trkpt lat="68.76344" lon="17.80626">
        <ele>41.095638</ele>
        <time>2020-08-27T21:58:18.328Z</time>
      </trkpt>
      <trkpt lat="68.76297" lon="17.80631">
        <ele>41.829254</ele>
        <time>2020-08-27T21:58:27.775Z</time>
      </trkpt>
      <trkpt lat="68.76199" lon="17.80613">
        <ele>41.741335</ele>
        <time>2020-08-27T21:58:45.343Z</time>
      </trkpt>
      <trkpt lat="68.76148" lon="17.80605">
        <ele>41.696718</ele>
        <time>2020-08-27T21:58:53.065Z</time>
      </trkpt>
      <trkpt lat="68.76049" lon="17.80587">
        <ele>41.44442</ele>
        <time>2020-08-27T21:59:08.430Z</time>
      </trkpt>
      <trkpt lat="68.76002" lon="17.8058">
        <ele>41.316255</ele>
        <time>2020-08-27T21:59:16.636Z</time>
      </trkpt>
      <trkpt lat="68.75944" lon="17.80604">
        <ele>41.339261</ele>
        <time>2020-08-27T21:59:28.774Z</time>
      </trkpt>
      <trkpt lat="68.75905" lon="17.80638">
        <ele>41.664277</ele>
        <time>2020-08-27T21:59:37.967Z</time>
      </trkpt>
      <trkpt lat="68.75829" lon="17.80715">
        <ele>42.307469</ele>
        <time>2020-08-27T21:59:55.147Z</time>
      </trkpt>
      <trkpt lat="68.75801" lon="17.8074">
        <ele>42.54111</ele>
        <time>2020-08-27T22:00:00.189Z</time>
      </trkpt>
      <trkpt lat="68.7579" lon="17.80749">
        <ele>42.632211</ele>
        <time>2020-08-27T22:00:03.312Z</time>
      </trkpt>
      <trkpt lat="68.75776" lon="17.80758">
        <ele>42.477551</ele>
        <time>2020-08-27T22:00:05.415Z</time>
      </trkpt>
      <trkpt lat="68.75751" lon="17.80768">
        <ele>42.198797</ele>
        <time>2020-08-27T22:00:10.622Z</time>
      </trkpt>
      <trkpt lat="68.75728" lon="17.80773">
        <ele>41.945842</ele>
        <time>2020-08-27T22:00:14.160Z</time>
      </trkpt>
      <trkpt lat="68.75701" lon="17.80778">
        <ele>41.650128</ele>
        <time>2020-08-27T22:00:18.369Z</time>
      </trkpt>
      <trkpt lat="68.75671" lon="17.80791">
        <ele>41.31272</ele>
        <time>2020-08-27T22:00:22.999Z</time>
      </trkpt>
      <trkpt lat="68.75658" lon="17.80802">
        <ele>41.170275</ele>
        <time>2020-08-27T22:00:24.781Z</time>
      </trkpt>
      <trkpt lat="68.75647" lon="17.80813">
        <ele>41.043298</ele>
        <time>2020-08-27T22:00:26.866Z</time>
      </trkpt>
      <trkpt lat="68.75575" lon="17.80884">
        <ele>39.644562</ele>
        <time>2020-08-27T22:00:37.231Z</time>
      </trkpt>
      <trkpt lat="68.75482" lon="17.80904">
        <ele>37.403798</ele>
        <time>2020-08-27T22:00:50.367Z</time>
      </trkpt>
      <trkpt lat="68.75436" lon="17.80934">
        <ele>36.247918</ele>
        <time>2020-08-27T22:00:56.662Z</time>
      </trkpt>
      <trkpt lat="68.75406" lon="17.80979">
        <ele>34.821341</ele>
        <time>2020-08-27T22:01:01.249Z</time>
      </trkpt>
      <trkpt lat="68.75346" lon="17.81115">
        <ele>31.61206</ele>
        <time>2020-08-27T22:01:10.875Z</time>
      </trkpt>
      <trkpt lat="68.75339" lon="17.81128">
        <ele>31.266449</ele>
        <time>2020-08-27T22:01:11.959Z</time>
      </trkpt>
      <trkpt lat="68.75334" lon="17.81136">
        <ele>31.008642</ele>
        <time>2020-08-27T22:01:12.649Z</time>
      </trkpt>
      <trkpt lat="68.75307" lon="17.81162">
        <ele>29.857257</ele>
        <time>2020-08-27T22:01:16.150Z</time>
      </trkpt>
      <trkpt lat="68.75271" lon="17.81178">
        <ele>28.273761</ele>
        <time>2020-08-27T22:01:20.653Z</time>
      </trkpt>
      <trkpt lat="68.75247" lon="17.8119">
        <ele>27.124133</ele>
        <time>2020-08-27T22:01:23.669Z</time>
      </trkpt>
      <trkpt lat="68.75241" lon="17.81194">
        <ele>26.846647</ele>
        <time>2020-08-27T22:01:24.355Z</time>
      </trkpt>
      <trkpt lat="68.75186" lon="17.81247">
        <ele>24.172514</ele>
        <time>2020-08-27T22:01:31.340Z</time>
      </trkpt>
      <trkpt lat="68.75133" lon="17.81362">
        <ele>21.039287</ele>
        <time>2020-08-27T22:01:39.784Z</time>
      </trkpt>
      <trkpt lat="68.75106" lon="17.81438">
        <ele>19.211829</ele>
        <time>2020-08-27T22:01:44.702Z</time>
      </trkpt>
      <trkpt lat="68.75099" lon="17.8146">
        <ele>18.670878</ele>
        <time>2020-08-27T22:01:46.208Z</time>
      </trkpt>
      <trkpt lat="68.75074" lon="17.81517">
        <ele>17.121382</ele>
        <time>2020-08-27T22:01:50.311Z</time>
      </trkpt>
      <trkpt lat="68.75039" lon="17.81565">
        <ele>15.223144</ele>
        <time>2020-08-27T22:01:55.060Z</time>
      </trkpt>
      <trkpt lat="68.74998" lon="17.81588">
        <ele>13.192972</ele>
        <time>2020-08-27T22:02:00.026Z</time>
      </trkpt>
      <trkpt lat="68.74954" lon="17.81584">
        <ele>11.057601</ele>
        <time>2020-08-27T22:02:05.155Z</time>
      </trkpt>
      <trkpt lat="68.74947" lon="17.81581">
        <ele>10.708027</ele>
        <time>2020-08-27T22:02:05.925Z</time>
      </trkpt>
      <trkpt lat="68.74924" lon="17.8157">
        <ele>9.516768</ele>
        <time>2020-08-27T22:02:08.765Z</time>
      </trkpt>
      <trkpt lat="68.7492" lon="17.81568">
        <ele>9.268054</ele>
        <time>2020-08-27T22:02:09.365Z</time>
      </trkpt>
      <trkpt lat="68.74914" lon="17.81564">
        <ele>8.958701</ele>
        <time>2020-08-27T22:02:10.051Z</time>
      </trkpt>
      <trkpt lat="68.74902" lon="17.81555">
        <ele>8.341127</ele>
        <time>2020-08-27T22:02:11.484Z</time>
      </trkpt>
      <trkpt lat="68.7488" lon="17.81535">
        <ele>7.15429</ele>
        <time>2020-08-27T22:02:14.320Z</time>
      </trkpt>
      <trkpt lat="68.74865" lon="17.81521">
        <ele>6.378605</ele>
        <time>2020-08-27T22:02:16.139Z</time>
      </trkpt>
      <trkpt lat="68.74863" lon="17.81519">
        <ele>6.254833</ele>
        <time>2020-08-27T22:02:16.440Z</time>
      </trkpt>
      <trkpt lat="68.74838" lon="17.81492">
        <ele>4.879647</ele>
        <time>2020-08-27T22:02:19.725Z</time>
      </trkpt>
      <trkpt lat="68.74833" lon="17.81486">
        <ele>4.608545</ele>
        <time>2020-08-27T22:02:20.363Z</time>
      </trkpt>
      <trkpt lat="68.74805" lon="17.81454">
        <ele>3.08519</ele>
        <time>2020-08-27T22:02:24.029Z</time>
      </trkpt>
      <trkpt lat="68.74801" lon="17.81449">
        <ele>2.871917</ele>
        <time>2020-08-27T22:02:24.536Z</time>
      </trkpt>
      <trkpt lat="68.74768" lon="17.81386">
        <ele>2.231235</ele>
        <time>2020-08-27T22:02:29.798Z</time>
      </trkpt>
      <trkpt lat="68.7476" lon="17.81362">
        <ele>2.064908</ele>
        <time>2020-08-27T22:02:31.499Z</time>
      </trkpt>
      <trkpt lat="68.74754" lon="17.81343">
        <ele>1.946423</ele>
        <time>2020-08-27T22:02:32.773Z</time>
      </trkpt>
      <trkpt lat="68.7475" lon="17.81325">
        <ele>1.832949</ele>
        <time>2020-08-27T22:02:34.053Z</time>
      </trkpt>
      <trkpt lat="68.74731" lon="17.81243">
        <ele>1.346302</ele>
        <time>2020-08-27T22:02:39.790Z</time>
      </trkpt>
      <trkpt lat="68.74712" lon="17.8116">
        <ele>0.864235</ele>
        <time>2020-08-27T22:02:45.649Z</time>
      </trkpt>
      <trkpt lat="68.74705" lon="17.81107">
        <ele>0.580026</ele>
        <time>2020-08-27T22:02:49.250Z</time>
      </trkpt>
      <trkpt lat="68.74703" lon="17.81014">
        <ele>0.362965</ele>
        <time>2020-08-27T22:02:55.315Z</time>
      </trkpt>
      <trkpt lat="68.74704" lon="17.8096">
        <ele>0.496116</ele>
        <time>2020-08-27T22:02:59.069Z</time>
      </trkpt>
      <trkpt lat="68.74707" lon="17.80747">
        <ele>1.019137</ele>
        <time>2020-08-27T22:03:14.290Z</time>
      </trkpt>
      <trkpt lat="68.74709" lon="17.80623">
        <ele>1.324691</ele>
        <time>2020-08-27T22:03:23.708Z</time>
      </trkpt>
      <trkpt lat="68.74709" lon="17.8053">
        <ele>1.604365</ele>
        <time>2020-08-27T22:03:31.062Z</time>
      </trkpt>
      <trkpt lat="68.74711" lon="17.80418">
        <ele>2.150272</ele>
        <time>2020-08-27T22:03:40.196Z</time>
      </trkpt>
      <trkpt lat="68.74713" lon="17.80309">
        <ele>2.680085</ele>
        <time>2020-08-27T22:03:49.142Z</time>
      </trkpt>
      <trkpt lat="68.74714" lon="17.80261">
        <ele>2.91525</ele>
        <time>2020-08-27T22:03:53.260Z</time>
      </trkpt>
      <trkpt lat="68.74716" lon="17.8022">
        <ele>3.116821</ele>
        <time>2020-08-27T22:03:56.563Z</time>
      </trkpt>
      <trkpt lat="68.74719" lon="17.80171">
        <ele>3.360397</ele>
        <time>2020-08-27T22:04:00.821Z</time>
      </trkpt>
      <trkpt lat="68.74725" lon="17.80098">
        <ele>3.722532</ele>
        <time>2020-08-27T22:04:06.747Z</time>
      </trkpt>
      <trkpt lat="68.74729" lon="17.80055">
        <ele>3.92512</ele>
        <time>2020-08-27T22:04:10.247Z</time>
      </trkpt>
      <trkpt lat="68.7475" lon="17.7982">
        <ele>4.52879</ele>
        <time>2020-08-27T22:04:27.917Z</time>
      </trkpt>
      <trkpt lat="68.74756" lon="17.79768">
        <ele>4.66552</ele>
        <time>2020-08-27T22:04:31.842Z</time>
      </trkpt>
      <trkpt lat="68.74758" lon="17.79759">
        <ele>4.691281</ele>
        <time>2020-08-27T22:04:32.577Z</time>
      </trkpt>
      <trkpt lat="68.74763" lon="17.79738">
        <ele>4.755332</ele>
        <time>2020-08-27T22:04:34.622Z</time>
      </trkpt>
      <trkpt lat="68.74825" lon="17.7961">
        <ele>5.174091</ele>
        <time>2020-08-27T22:04:49.593Z</time>
      </trkpt>
      <trkpt lat="68.74843" lon="17.79553">
        <ele>5.205581</ele>
        <time>2020-08-27T22:04:54.412Z</time>
      </trkpt>
      <trkpt lat="68.74861" lon="17.79465">
        <ele>5.248154</ele>
        <time>2020-08-27T22:05:01.132Z</time>
      </trkpt>
      <trkpt lat="68.74862" lon="17.79463">
        <ele>5.249444</ele>
        <time>2020-08-27T22:05:01.657Z</time>
      </trkpt>
      <trkpt lat="68.74888" lon="17.79379">
        <ele>5.295587</ele>
        <time>2020-08-27T22:05:08.785Z</time>
      </trkpt>
      <trkpt lat="68.74984" lon="17.79166">
        <ele>5.286821</ele>
        <time>2020-08-27T22:05:30.331Z</time>
      </trkpt>
      <trkpt lat="68.75018" lon="17.79126">
        <ele>5.247324</ele>
        <time>2020-08-27T22:05:36.612Z</time>
      </trkpt>
      <trkpt lat="68.75087" lon="17.79076">
        <ele>5.172932</ele>
        <time>2020-08-27T22:05:48.911Z</time>
      </trkpt>
      <trkpt lat="68.75114" lon="17.79032">
        <ele>5.119166</ele>
        <time>2020-08-27T22:05:54.892Z</time>
      </trkpt>
      <trkpt lat="68.75136" lon="17.78952">
        <ele>5.054259</ele>
        <time>2020-08-27T22:06:01.484Z</time>
      </trkpt>
      <trkpt lat="68.75166" lon="17.78741">
        <ele>4.908588</ele>
        <time>2020-08-27T22:06:15.448Z</time>
      </trkpt>
      <trkpt lat="68.7517" lon="17.78717">
        <ele>4.891277</ele>
        <time>2020-08-27T22:06:17.261Z</time>
      </trkpt>
      <trkpt lat="68.75177" lon="17.78689">
        <ele>4.869962</ele>
        <time>2020-08-27T22:06:19.073Z</time>
      </trkpt>
      <trkpt lat="68.75189" lon="17.78651">
        <ele>4.872033</ele>
        <time>2020-08-27T22:06:22.099Z</time>
      </trkpt>
      <trkpt lat="68.752" lon="17.78624">
        <ele>4.920741</ele>
        <time>2020-08-27T22:06:24.496Z</time>
      </trkpt>
      <trkpt lat="68.75213" lon="17.78594">
        <ele>4.979192</ele>
        <time>2020-08-27T22:06:27.505Z</time>
      </trkpt>
      <trkpt lat="68.75222" lon="17.78575">
        <ele>5.01605</ele>
        <time>2020-08-27T22:06:29.768Z</time>
      </trkpt>
      <trkpt lat="68.75231" lon="17.78559">
        <ele>5.050288</ele>
        <time>2020-08-27T22:06:31.768Z</time>
      </trkpt>
      <trkpt lat="68.75243" lon="17.78539">
        <ele>5.096223</ele>
        <time>2020-08-27T22:06:34.236Z</time>
      </trkpt>
      <trkpt lat="68.7527" lon="17.78499">
        <ele>5.198432</ele>
        <time>2020-08-27T22:06:40.476Z</time>
      </trkpt>
      <trkpt lat="68.75278" lon="17.78489">
        <ele>5.22709</ele>
        <time>2020-08-27T22:06:41.967Z</time>
      </trkpt>
      <trkpt lat="68.75289" lon="17.78475">
        <ele>5.268495</ele>
        <time>2020-08-27T22:06:44.321Z</time>
      </trkpt>
      <trkpt lat="68.75309" lon="17.78451">
        <ele>5.339884</ele>
        <time>2020-08-27T22:06:48.473Z</time>
      </trkpt>
      <trkpt lat="68.75348" lon="17.78408">
        <ele>5.595214</ele>
        <time>2020-08-27T22:06:56.691Z</time>
      </trkpt>
      <trkpt lat="68.75366" lon="17.78385">
        <ele>5.872776</ele>
        <time>2020-08-27T22:07:01.289Z</time>
      </trkpt>
      <trkpt lat="68.7541" lon="17.78298">
        <ele>6.648926</ele>
        <time>2020-08-27T22:07:12.918Z</time>
      </trkpt>
      <trkpt lat="68.75632" lon="17.7767">
        <ele>12.158457</ele>
        <time>2020-08-27T22:08:28.057Z</time>
      </trkpt>
      <trkpt lat="68.7569" lon="17.77504">
        <ele>13.924754</ele>
        <time>2020-08-27T22:08:48.711Z</time>
      </trkpt>
      <trkpt lat="68.75727" lon="17.77401">
        <ele>15.037964</ele>
        <time>2020-08-27T22:09:02.167Z</time>
      </trkpt>
      <trkpt lat="68.7576" lon="17.77304">
        <ele>15.766174</ele>
        <time>2020-08-27T22:09:14.426Z</time>
      </trkpt>
      <trkpt lat="68.75825" lon="17.7712">
        <ele>17.156606</ele>
        <time>2020-08-27T22:09:35.887Z</time>
      </trkpt>
      <trkpt lat="68.75867" lon="17.77002">
        <ele>17.709188</ele>
        <time>2020-08-27T22:09:47.655Z</time>
      </trkpt>
      <trkpt lat="68.75903" lon="17.76899">
        <ele>17.601992</ele>
        <time>2020-08-27T22:09:56.782Z</time>
      </trkpt>
      <trkpt lat="68.75922" lon="17.76842">
        <ele>17.543306</ele>
        <time>2020-08-27T22:10:01.471Z</time>
      </trkpt>
      <trkpt lat="68.75944" lon="17.76781">
        <ele>17.479488</ele>
        <time>2020-08-27T22:10:06.425Z</time>
      </trkpt>
      <trkpt lat="68.75947" lon="17.76772">
        <ele>17.469882</ele>
        <time>2020-08-27T22:10:07.156Z</time>
      </trkpt>
      <trkpt lat="68.75959" lon="17.76739">
        <ele>17.435946</ele>
        <time>2020-08-27T22:10:09.786Z</time>
      </trkpt>
      <trkpt lat="68.7598" lon="17.76686">
        <ele>17.385174</ele>
        <time>2020-08-27T22:10:14.396Z</time>
      </trkpt>
      <trkpt lat="68.75989" lon="17.76667">
        <ele>17.456884</ele>
        <time>2020-08-27T22:10:16.208Z</time>
      </trkpt>
      <trkpt lat="68.76002" lon="17.76642">
        <ele>17.558723</ele>
        <time>2020-08-27T22:10:18.902Z</time>
      </trkpt>
      <trkpt lat="68.76012" lon="17.76626">
        <ele>17.632331</ele>
        <time>2020-08-27T22:10:20.934Z</time>
      </trkpt>
      <trkpt lat="68.76021" lon="17.76613">
        <ele>17.694784</ele>
        <time>2020-08-27T22:10:22.626Z</time>
      </trkpt>
      <trkpt lat="68.7603" lon="17.76602">
        <ele>17.758046</ele>
        <time>2020-08-27T22:10:24.428Z</time>
      </trkpt>
      <trkpt lat="68.76043" lon="17.76588">
        <ele>17.843815</ele>
        <time>2020-08-27T22:10:26.987Z</time>
      </trkpt>
      <trkpt lat="68.76059" lon="17.76574">
        <ele>17.951254</ele>
        <time>2020-08-27T22:10:30.166Z</time>
      </trkpt>
      <trkpt lat="68.76072" lon="17.76565">
        <ele>18.038426</ele>
        <time>2020-08-27T22:10:32.901Z</time>
      </trkpt>
      <trkpt lat="68.76168" lon="17.76546">
        <ele>18.89837</ele>
        <time>2020-08-27T22:10:54.767Z</time>
      </trkpt>
      <trkpt lat="68.76196" lon="17.76512">
        <ele>19.459919</ele>
        <time>2020-08-27T22:11:02.327Z</time>
      </trkpt>
      <trkpt lat="68.76226" lon="17.76444">
        <ele>20.179312</ele>
        <time>2020-08-27T22:11:12.074Z</time>
      </trkpt>
      <trkpt lat="68.76261" lon="17.76349">
        <ele>21.083112</ele>
        <time>2020-08-27T22:11:24.433Z</time>
      </trkpt>
      <trkpt lat="68.76346" lon="17.76115">
        <ele>21.664122</ele>
        <time>2020-08-27T22:11:50.544Z</time>
      </trkpt>
      <trkpt lat="68.76376" lon="17.76031">
        <ele>21.571924</ele>
        <time>2020-08-27T22:11:57.527Z</time>
      </trkpt>
      <trkpt lat="68.76385" lon="17.76005">
        <ele>21.543748</ele>
        <time>2020-08-27T22:11:59.570Z</time>
      </trkpt>
      <trkpt lat="68.76422" lon="17.75907">
        <ele>21.258786</ele>
        <time>2020-08-27T22:12:06.966Z</time>
      </trkpt>
      <trkpt lat="68.7646" lon="17.75797">
        <ele>19.654638</ele>
        <time>2020-08-27T22:12:14.328Z</time>
      </trkpt>
      <trkpt lat="68.76476" lon="17.75744">
        <ele>18.935273</ele>
        <time>2020-08-27T22:12:17.483Z</time>
      </trkpt>
      <trkpt lat="68.76485" lon="17.75711">
        <ele>18.498851</ele>
        <time>2020-08-27T22:12:19.563Z</time>
      </trkpt>
      <trkpt lat="68.76493" lon="17.75684">
        <ele>18.125612</ele>
        <time>2020-08-27T22:12:21.241Z</time>
      </trkpt>
      <trkpt lat="68.76503" lon="17.75653">
        <ele>17.675581</ele>
        <time>2020-08-27T22:12:23.204Z</time>
      </trkpt>
      <trkpt lat="68.76511" lon="17.75636">
        <ele>17.384461</ele>
        <time>2020-08-27T22:12:24.542Z</time>
      </trkpt>
      <trkpt lat="68.76522" lon="17.75617">
        <ele>17.008285</ele>
        <time>2020-08-27T22:12:26.259Z</time>
      </trkpt>
      <trkpt lat="68.76525" lon="17.75613">
        <ele>16.907581</ele>
        <time>2020-08-27T22:12:26.643Z</time>
      </trkpt>
      <trkpt lat="68.76547" lon="17.75601">
        <ele>16.259923</ele>
        <time>2020-08-27T22:12:29.682Z</time>
      </trkpt>
      <trkpt lat="68.76613" lon="17.75608">
        <ele>14.087496</ele>
        <time>2020-08-27T22:12:38.154Z</time>
      </trkpt>
      <trkpt lat="68.76629" lon="17.75592">
        <ele>13.50645</ele>
        <time>2020-08-27T22:12:40.433Z</time>
      </trkpt>
      <trkpt lat="68.76648" lon="17.75548">
        <ele>12.692139</ele>
        <time>2020-08-27T22:12:43.673Z</time>
      </trkpt>
      <trkpt lat="68.76672" lon="17.75471">
        <ele>11.459117</ele>
        <time>2020-08-27T22:12:48.436Z</time>
      </trkpt>
      <trkpt lat="68.76675" lon="17.75462">
        <ele>11.311729</ele>
        <time>2020-08-27T22:12:48.979Z</time>
      </trkpt>
      <trkpt lat="68.76708" lon="17.75408">
        <ele>10.045893</ele>
        <time>2020-08-27T22:12:54.014Z</time>
      </trkpt>
      <trkpt lat="68.76752" lon="17.75396">
        <ele>8.727976</ele>
        <time>2020-08-27T22:12:59.777Z</time>
      </trkpt>
      <trkpt lat="68.76811" lon="17.75408">
        <ele>6.974093</ele>
        <time>2020-08-27T22:13:07.354Z</time>
      </trkpt>
      <trkpt lat="68.76854" lon="17.75415">
        <ele>5.678779</ele>
        <time>2020-08-27T22:13:13.110Z</time>
      </trkpt>
      <trkpt lat="68.76905" lon="17.75421">
        <ele>4.714761</ele>
        <time>2020-08-27T22:13:20.204Z</time>
      </trkpt>
      <trkpt lat="68.76934" lon="17.75398">
        <ele>4.560133</ele>
        <time>2020-08-27T22:13:24.689Z</time>
      </trkpt>
      <trkpt lat="68.76944" lon="17.75384">
        <ele>4.507065</ele>
        <time>2020-08-27T22:13:26.153Z</time>
      </trkpt>
      <trkpt lat="68.76971" lon="17.75334">
        <ele>4.341515</ele>
        <time>2020-08-27T22:13:31.755Z</time>
      </trkpt>
      <trkpt lat="68.76992" lon="17.75293">
        <ele>4.20992</ele>
        <time>2020-08-27T22:13:36.699Z</time>
      </trkpt>
      <trkpt lat="68.77009" lon="17.75261">
        <ele>4.106332</ele>
        <time>2020-08-27T22:13:40.892Z</time>
      </trkpt>
      <trkpt lat="68.77035" lon="17.75208">
        <ele>3.942332</ele>
        <time>2020-08-27T22:13:47.698Z</time>
      </trkpt>
      <trkpt lat="68.77071" lon="17.75098">
        <ele>4.179477</ele>
        <time>2020-08-27T22:13:58.347Z</time>
      </trkpt>
      <trkpt lat="68.77079" lon="17.75058">
        <ele>4.265263</ele>
        <time>2020-08-27T22:14:02.162Z</time>
      </trkpt>
      <trkpt lat="68.77093" lon="17.74985">
        <ele>4.419894</ele>
        <time>2020-08-27T22:14:08.095Z</time>
      </trkpt>
      <trkpt lat="68.77123" lon="17.7489">
        <ele>4.65775</ele>
        <time>2020-08-27T22:14:17.218Z</time>
      </trkpt>
      <trkpt lat="68.77132" lon="17.74874">
        <ele>4.71424</ele>
        <time>2020-08-27T22:14:18.990Z</time>
      </trkpt>
      <trkpt lat="68.77163" lon="17.74822">
        <ele>4.865915</ele>
        <time>2020-08-27T22:14:25.082Z</time>
      </trkpt>
      <trkpt lat="68.77256" lon="17.7467">
        <ele>4.963083</ele>
        <time>2020-08-27T22:14:44.725Z</time>
      </trkpt>
      <trkpt lat="68.77263" lon="17.74658">
        <ele>4.970128</ele>
        <time>2020-08-27T22:14:45.818Z</time>
      </trkpt>
      <trkpt lat="68.77271" lon="17.74642">
        <ele>4.979438</ele>
        <time>2020-08-27T22:14:48.644Z</time>
      </trkpt>
      <trkpt lat="68.77286" lon="17.74603">
        <ele>4.997464</ele>
        <time>2020-08-27T22:14:51.838Z</time>
      </trkpt>
      <trkpt lat="68.77289" lon="17.74587">
        <ele>5.003281</ele>
        <time>2020-08-27T22:14:52.762Z</time>
      </trkpt>
      <trkpt lat="68.7729" lon="17.74579">
        <ele>5.005904</ele>
        <time>2020-08-27T22:14:54.066Z</time>
      </trkpt>
      <trkpt lat="68.77285" lon="17.74429">
        <ele>5.235551</ele>
        <time>2020-08-27T22:15:04.201Z</time>
      </trkpt>
      <trkpt lat="68.77289" lon="17.74377">
        <ele>5.341754</ele>
        <time>2020-08-27T22:15:07.783Z</time>
      </trkpt>
      <trkpt lat="68.77293" lon="17.74358">
        <ele>5.384039</ele>
        <time>2020-08-27T22:15:09.919Z</time>
      </trkpt>
      <trkpt lat="68.77296" lon="17.74348">
        <ele>5.409055</ele>
        <time>2020-08-27T22:15:10.528Z</time>
      </trkpt>
      <trkpt lat="68.77311" lon="17.74305">
        <ele>5.528531</ele>
        <time>2020-08-27T22:15:14.509Z</time>
      </trkpt>
      <trkpt lat="68.77363" lon="17.74183">
        <ele>5.896362</ele>
        <time>2020-08-27T22:15:28.216Z</time>
      </trkpt>
      <trkpt lat="68.77406" lon="17.74082">
        <ele>6.594685</ele>
        <time>2020-08-27T22:15:40.058Z</time>
      </trkpt>
      <trkpt lat="68.77436" lon="17.74011">
        <ele>7.22175</ele>
        <time>2020-08-27T22:15:48.302Z</time>
      </trkpt>
      <trkpt lat="68.77457" lon="17.73962">
        <ele>7.651365</ele>
        <time>2020-08-27T22:15:54.854Z</time>
      </trkpt>
      <trkpt lat="68.77492" lon="17.73855">
        <ele>8.471876</ele>
        <time>2020-08-27T22:16:07.256Z</time>
      </trkpt>
      <trkpt lat="68.77501" lon="17.73816">
        <ele>8.738676</ele>
        <time>2020-08-27T22:16:11.864Z</time>
      </trkpt>
      <trkpt lat="68.77525" lon="17.73719">
        <ele>9.748743</ele>
        <time>2020-08-27T22:16:22.550Z</time>
      </trkpt>
      <trkpt lat="68.77546" lon="17.73631">
        <ele>10.718144</ele>
        <time>2020-08-27T22:16:32.727Z</time>
      </trkpt>
      <trkpt lat="68.77591" lon="17.73437">
        <ele>12.812798</ele>
        <time>2020-08-27T22:16:53.905Z</time>
      </trkpt>
      <trkpt lat="68.77602" lon="17.73362">
        <ele>13.655565</ele>
        <time>2020-08-27T22:17:00.909Z</time>
      </trkpt>
      <trkpt lat="68.77638" lon="17.72912">
        <ele>20.1355</ele>
        <time>2020-08-27T22:17:51.695Z</time>
      </trkpt>
      <trkpt lat="68.77639" lon="17.72894">
        <ele>20.394209</ele>
        <time>2020-08-27T22:17:53.789Z</time>
      </trkpt>
      <trkpt lat="68.77639" lon="17.72871">
        <ele>20.756928</ele>
        <time>2020-08-27T22:17:58.118Z</time>
      </trkpt>
      <trkpt lat="68.77638" lon="17.72628">
        <ele>24.598531</ele>
        <time>2020-08-27T22:18:26.839Z</time>
      </trkpt>
      <trkpt lat="68.77651" lon="17.72469">
        <ele>27.192393</ele>
        <time>2020-08-27T22:18:47.034Z</time>
      </trkpt>
      <trkpt lat="68.77687" lon="17.72178">
        <ele>29.944272</ele>
        <time>2020-08-27T22:19:15.304Z</time>
      </trkpt>
      <trkpt lat="68.77694" lon="17.7212">
        <ele>30.382467</ele>
        <time>2020-08-27T22:19:20.309Z</time>
      </trkpt>
      <trkpt lat="68.77701" lon="17.72065">
        <ele>30.803068</ele>
        <time>2020-08-27T22:19:25.054Z</time>
      </trkpt>
      <trkpt lat="68.77712" lon="17.71975">
        <ele>31.475288</ele>
        <time>2020-08-27T22:19:32.581Z</time>
      </trkpt>
      <trkpt lat="68.77787" lon="17.71347">
        <ele>34.052219</ele>
        <time>2020-08-27T22:20:22.849Z</time>
      </trkpt>
      <trkpt lat="68.77859" lon="17.7084">
        <ele>37.141859</ele>
        <time>2020-08-27T22:21:04.877Z</time>
      </trkpt>
      <trkpt lat="68.77879" lon="17.70626">
        <ele>39.252833</ele>
        <time>2020-08-27T22:21:28.014Z</time>
      </trkpt>
      <trkpt lat="68.77882" lon="17.70546">
        <ele>40.02369</ele>
        <time>2020-08-27T22:21:36.544Z</time>
      </trkpt>
      <trkpt lat="68.77882" lon="17.70527">
        <ele>40.207277</ele>
        <time>2020-08-27T22:21:38.880Z</time>
      </trkpt>
      <trkpt lat="68.77894" lon="17.70135">
        <ele>43.399563</ele>
        <time>2020-08-27T22:22:19.472Z</time>
      </trkpt>
      <trkpt lat="68.77904" lon="17.69969">
        <ele>43.694792</ele>
        <time>2020-08-27T22:22:29.131Z</time>
      </trkpt>
      <trkpt lat="68.77923" lon="17.69819">
        <ele>42.206651</ele>
        <time>2020-08-27T22:22:37.166Z</time>
      </trkpt>
      <trkpt lat="68.77988" lon="17.69408">
        <ele>38.173038</ele>
        <time>2020-08-27T22:22:57.878Z</time>
      </trkpt>
      <trkpt lat="68.77997" lon="17.69279">
        <ele>37.088971</ele>
        <time>2020-08-27T22:23:04.324Z</time>
      </trkpt>
      <trkpt lat="68.77998" lon="17.6921">
        <ele>36.516769</ele>
        <time>2020-08-27T22:23:07.737Z</time>
      </trkpt>
      <trkpt lat="68.78" lon="17.69125">
        <ele>35.807605</ele>
        <time>2020-08-27T22:23:12.426Z</time>
      </trkpt>
      <trkpt lat="68.77993" lon="17.68285">
        <ele>36.248093</ele>
        <time>2020-08-27T22:24:13.307Z</time>
      </trkpt>
      <trkpt lat="68.78047" lon="17.67273">
        <ele>33.127493</ele>
        <time>2020-08-27T22:25:09.218Z</time>
      </trkpt>
      <trkpt lat="68.78057" lon="17.66932">
        <ele>32.777739</ele>
        <time>2020-08-27T22:25:33.002Z</time>
      </trkpt>
      <trkpt lat="68.78056" lon="17.66855">
        <ele>32.797944</ele>
        <time>2020-08-27T22:25:38.645Z</time>
      </trkpt>
      <trkpt lat="68.78036" lon="17.66648">
        <ele>32.853868</ele>
        <time>2020-08-27T22:25:53.121Z</time>
      </trkpt>
      <trkpt lat="68.78027" lon="17.665">
        <ele>32.229841</ele>
        <time>2020-08-27T22:26:01.449Z</time>
      </trkpt>
      <trkpt lat="68.78028" lon="17.66329">
        <ele>31.350049</ele>
        <time>2020-08-27T22:26:09.761Z</time>
      </trkpt>
      <trkpt lat="68.78041" lon="17.66141">
        <ele>30.359083</ele>
        <time>2020-08-27T22:26:19.933Z</time>
      </trkpt>
      <trkpt lat="68.78057" lon="17.65951">
        <ele>30.958292</ele>
        <time>2020-08-27T22:26:32.189Z</time>
      </trkpt>
      <trkpt lat="68.78057" lon="17.65944">
        <ele>30.983195</ele>
        <time>2020-08-27T22:26:32.845Z</time>
      </trkpt>
      <trkpt lat="68.78062" lon="17.65885">
        <ele>31.207192</ele>
        <time>2020-08-27T22:26:36.699Z</time>
      </trkpt>
      <trkpt lat="68.78066" lon="17.6584">
        <ele>31.372248</ele>
        <time>2020-08-27T22:26:41.049Z</time>
      </trkpt>
      <trkpt lat="68.78071" lon="17.657">
        <ele>31.885695</ele>
        <time>2020-08-27T22:26:52.860Z</time>
      </trkpt>
      <trkpt lat="68.78068" lon="17.65554">
        <ele>32.683041</ele>
        <time>2020-08-27T22:27:08.720Z</time>
      </trkpt>
      <trkpt lat="68.78033" lon="17.65148">
        <ele>35.397379</ele>
        <time>2020-08-27T22:27:45.244Z</time>
      </trkpt>
      <trkpt lat="68.7803" lon="17.65099">
        <ele>35.123661</ele>
        <time>2020-08-27T22:27:47.863Z</time>
      </trkpt>
      <trkpt lat="68.78027" lon="17.65052">
        <ele>34.85997</ele>
        <time>2020-08-27T22:27:50.960Z</time>
      </trkpt>
      <trkpt lat="68.78026" lon="17.65043">
        <ele>34.809665</ele>
        <time>2020-08-27T22:27:51.491Z</time>
      </trkpt>
      <trkpt lat="68.78024" lon="17.6501">
        <ele>34.627305</ele>
        <time>2020-08-27T22:27:53.075Z</time>
      </trkpt>
      <trkpt lat="68.78019" lon="17.64866">
        <ele>33.830097</ele>
        <time>2020-08-27T22:28:00.682Z</time>
      </trkpt>
      <trkpt lat="68.78017" lon="17.64517">
        <ele>31.600913</ele>
        <time>2020-08-27T22:28:17.806Z</time>
      </trkpt>
      <trkpt lat="68.78031" lon="17.64252">
        <ele>29.540152</ele>
        <time>2020-08-27T22:28:32.247Z</time>
      </trkpt>
      <trkpt lat="68.78034" lon="17.64212">
        <ele>29.225446</ele>
        <time>2020-08-27T22:28:34.382Z</time>
      </trkpt>
      <trkpt lat="68.78038" lon="17.64124">
        <ele>28.228045</ele>
        <time>2020-08-27T22:28:38.596Z</time>
      </trkpt>
      <trkpt lat="68.7805" lon="17.6402">
        <ele>26.581907</ele>
        <time>2020-08-27T22:28:43.639Z</time>
      </trkpt>
      <trkpt lat="68.78067" lon="17.63919">
        <ele>24.911005</ele>
        <time>2020-08-27T22:28:48.711Z</time>
      </trkpt>
      <trkpt lat="68.78081" lon="17.63829">
        <ele>23.427068</ele>
        <time>2020-08-27T22:28:53.201Z</time>
      </trkpt>
      <trkpt lat="68.78101" lon="17.63699">
        <ele>21.299376</ele>
        <time>2020-08-27T22:28:59.381Z</time>
      </trkpt>
      <trkpt lat="68.78102" lon="17.63691">
        <ele>21.156641</ele>
        <time>2020-08-27T22:28:59.763Z</time>
      </trkpt>
      <trkpt lat="68.78104" lon="17.63676">
        <ele>20.889026</ele>
        <time>2020-08-27T22:29:00.454Z</time>
      </trkpt>
      <trkpt lat="68.7812" lon="17.63576">
        <ele>19.138501</ele>
        <time>2020-08-27T22:29:05.017Z</time>
      </trkpt>
      <trkpt lat="68.78126" lon="17.63541">
        <ele>18.5077</ele>
        <time>2020-08-27T22:29:06.676Z</time>
      </trkpt>
      <trkpt lat="68.7813" lon="17.63517">
        <ele>18.091067</ele>
        <time>2020-08-27T22:29:07.770Z</time>
      </trkpt>
      <trkpt lat="68.78139" lon="17.63473">
        <ele>17.274172</ele>
        <time>2020-08-27T22:29:09.922Z</time>
      </trkpt>
      <trkpt lat="68.78158" lon="17.63384">
        <ele>15.608622</ele>
        <time>2020-08-27T22:29:14.546Z</time>
      </trkpt>
      <trkpt lat="68.78163" lon="17.63355">
        <ele>15.078856</ele>
        <time>2020-08-27T22:29:16.120Z</time>
      </trkpt>
      <trkpt lat="68.78173" lon="17.63296">
        <ele>14.024182</ele>
        <time>2020-08-27T22:29:19.295Z</time>
      </trkpt>
      <trkpt lat="68.78176" lon="17.63276">
        <ele>13.665659</ele>
        <time>2020-08-27T22:29:20.464Z</time>
      </trkpt>
      <trkpt lat="68.78179" lon="17.63256">
        <ele>13.375817</ele>
        <time>2020-08-27T22:29:21.613Z</time>
      </trkpt>
      <trkpt lat="68.78185" lon="17.63216">
        <ele>13.339368</ele>
        <time>2020-08-27T22:29:23.902Z</time>
      </trkpt>
      <trkpt lat="68.78193" lon="17.63166">
        <ele>13.292602</ele>
        <time>2020-08-27T22:29:26.852Z</time>
      </trkpt>
      <trkpt lat="68.78205" lon="17.63082">
        <ele>13.214837</ele>
        <time>2020-08-27T22:29:32.090Z</time>
      </trkpt>
      <trkpt lat="68.78236" lon="17.62865">
        <ele>13.014738</ele>
        <time>2020-08-27T22:29:46.780Z</time>
      </trkpt>
      <trkpt lat="68.78272" lon="17.62608">
        <ele>14.207422</ele>
        <time>2020-08-27T22:30:11.656Z</time>
      </trkpt>
      <trkpt lat="68.78293" lon="17.62474">
        <ele>15.107955</ele>
        <time>2020-08-27T22:30:24.110Z</time>
      </trkpt>
      <trkpt lat="68.78305" lon="17.6241">
        <ele>15.550143</ele>
        <time>2020-08-27T22:30:30.298Z</time>
      </trkpt>
      <trkpt lat="68.78323" lon="17.62316">
        <ele>16.084561</ele>
        <time>2020-08-27T22:30:39.169Z</time>
      </trkpt>
      <trkpt lat="68.78403" lon="17.61891">
        <ele>17.031194</ele>
        <time>2020-08-27T22:31:13.454Z</time>
      </trkpt>
      <trkpt lat="68.7842" lon="17.61804">
        <ele>16.702027</ele>
        <time>2020-08-27T22:31:19.194Z</time>
      </trkpt>
      <trkpt lat="68.7843" lon="17.61756">
        <ele>16.517429</ele>
        <time>2020-08-27T22:31:22.260Z</time>
      </trkpt>
      <trkpt lat="68.78469" lon="17.61589">
        <ele>15.864281</ele>
        <time>2020-08-27T22:31:33.080Z</time>
      </trkpt>
      <trkpt lat="68.78533" lon="17.61402">
        <ele>15.085486</ele>
        <time>2020-08-27T22:31:46.939Z</time>
      </trkpt>
      <trkpt lat="68.78587" lon="17.61083">
        <ele>14.135434</ele>
        <time>2020-08-27T22:32:08.350Z</time>
      </trkpt>
      <trkpt lat="68.78602" lon="17.60988">
        <ele>13.989747</ele>
        <time>2020-08-27T22:32:14.336Z</time>
      </trkpt>
      <trkpt lat="68.78621" lon="17.60864">
        <ele>13.834506</ele>
        <time>2020-08-27T22:32:22.229Z</time>
      </trkpt>
      <trkpt lat="68.78637" lon="17.60765">
        <ele>13.711031</ele>
        <time>2020-08-27T22:32:28.885Z</time>
      </trkpt>
      <trkpt lat="68.78655" lon="17.6068">
        <ele>13.597246</ele>
        <time>2020-08-27T22:32:35.309Z</time>
      </trkpt>
      <trkpt lat="68.78677" lon="17.60606">
        <ele>13.506777</ele>
        <time>2020-08-27T22:32:41.410Z</time>
      </trkpt>
      <trkpt lat="68.78684" lon="17.60582">
        <ele>13.494332</ele>
        <time>2020-08-27T22:32:43.550Z</time>
      </trkpt>
      <trkpt lat="68.78699" lon="17.6051">
        <ele>13.461616</ele>
        <time>2020-08-27T22:32:48.986Z</time>
      </trkpt>
      <trkpt lat="68.78731" lon="17.60253">
        <ele>13.353408</ele>
        <time>2020-08-27T22:33:04.928Z</time>
      </trkpt>
      <trkpt lat="68.78747" lon="17.60186">
        <ele>13.321651</ele>
        <time>2020-08-27T22:33:10.753Z</time>
      </trkpt>
      <trkpt lat="68.78752" lon="17.60172">
        <ele>13.326541</ele>
        <time>2020-08-27T22:33:12.641Z</time>
      </trkpt>
      <trkpt lat="68.7877" lon="17.60131">
        <ele>13.360697</ele>
        <time>2020-08-27T22:33:17.128Z</time>
      </trkpt>
      <trkpt lat="68.78778" lon="17.60109">
        <ele>13.377578</ele>
        <time>2020-08-27T22:33:19.537Z</time>
      </trkpt>
      <trkpt lat="68.78784" lon="17.60093">
        <ele>13.38962</ele>
        <time>2020-08-27T22:33:21.190Z</time>
      </trkpt>
      <trkpt lat="68.78799" lon="17.60028">
        <ele>13.430884</ele>
        <time>2020-08-27T22:33:26.654Z</time>
      </trkpt>
      <trkpt lat="68.78812" lon="17.59941">
        <ele>13.480606</ele>
        <time>2020-08-27T22:33:32.788Z</time>
      </trkpt>
      <trkpt lat="68.78817" lon="17.59893">
        <ele>13.507021</ele>
        <time>2020-08-27T22:33:35.904Z</time>
      </trkpt>
      <trkpt lat="68.7882" lon="17.59844">
        <ele>13.533498</ele>
        <time>2020-08-27T22:33:39.040Z</time>
      </trkpt>
      <trkpt lat="68.78835" lon="17.59578">
        <ele>13.290233</ele>
        <time>2020-08-27T22:33:55.562Z</time>
      </trkpt>
      <trkpt lat="68.78845" lon="17.5951">
        <ele>13.167734</ele>
        <time>2020-08-27T22:34:00.057Z</time>
      </trkpt>
      <trkpt lat="68.78956" lon="17.59183">
        <ele>12.683665</ele>
        <time>2020-08-27T22:34:26.374Z</time>
      </trkpt>
      <trkpt lat="68.7902" lon="17.58834">
        <ele>12.389244</ele>
        <time>2020-08-27T22:34:52.821Z</time>
      </trkpt>
      <trkpt lat="68.79047" lon="17.58619">
        <ele>11.925596</ele>
        <time>2020-08-27T22:35:07.560Z</time>
      </trkpt>
      <trkpt lat="68.79064" lon="17.5853">
        <ele>11.721904</ele>
        <time>2020-08-27T22:35:13.149Z</time>
      </trkpt>
      <trkpt lat="68.7911" lon="17.58342">
        <ele>10.061564</ele>
        <time>2020-08-27T22:35:24.697Z</time>
      </trkpt>
      <trkpt lat="68.79168" lon="17.58051">
        <ele>6.788477</ele>
        <time>2020-08-27T22:35:40.266Z</time>
      </trkpt>
      <trkpt lat="68.79196" lon="17.57984">
        <ele>6.369575</ele>
        <time>2020-08-27T22:35:45.282Z</time>
      </trkpt>
      <trkpt lat="68.79227" lon="17.57933">
        <ele>6.046555</ele>
        <time>2020-08-27T22:35:50.380Z</time>
      </trkpt>
      <trkpt lat="68.79239" lon="17.57914">
        <ele>5.930705</ele>
        <time>2020-08-27T22:35:52.333Z</time>
      </trkpt>
      <trkpt lat="68.79262" lon="17.57856">
        <ele>5.651503</ele>
        <time>2020-08-27T22:35:57.412Z</time>
      </trkpt>
      <trkpt lat="68.79266" lon="17.5784">
        <ele>5.589124</ele>
        <time>2020-08-27T22:35:58.687Z</time>
      </trkpt>
      <trkpt lat="68.79271" lon="17.5782">
        <ele>5.514983</ele>
        <time>2020-08-27T22:36:00.163Z</time>
      </trkpt>
      <trkpt lat="68.7931" lon="17.57618">
        <ele>5.505566</ele>
        <time>2020-08-27T22:36:17.874Z</time>
      </trkpt>
      <trkpt lat="68.79319" lon="17.57543">
        <ele>5.898514</ele>
        <time>2020-08-27T22:36:24.485Z</time>
      </trkpt>
      <trkpt lat="68.79321" lon="17.57517">
        <ele>6.025146</ele>
        <time>2020-08-27T22:36:27.199Z</time>
      </trkpt>
      <trkpt lat="68.79325" lon="17.57452">
        <ele>6.351942</ele>
        <time>2020-08-27T22:36:32.306Z</time>
      </trkpt>
      <trkpt lat="68.79328" lon="17.57398">
        <ele>6.622012</ele>
        <time>2020-08-27T22:36:36.594Z</time>
      </trkpt>
      <trkpt lat="68.79329" lon="17.57379">
        <ele>6.717314</ele>
        <time>2020-08-27T22:36:38.129Z</time>
      </trkpt>
      <trkpt lat="68.7933" lon="17.57366">
        <ele>6.78124</ele>
        <time>2020-08-27T22:36:39.311Z</time>
      </trkpt>
      <trkpt lat="68.79333" lon="17.57322">
        <ele>7.002827</ele>
        <time>2020-08-27T22:36:43.565Z</time>
      </trkpt>
      <trkpt lat="68.79334" lon="17.57311">
        <ele>7.056922</ele>
        <time>2020-08-27T22:36:44.503Z</time>
      </trkpt>
      <trkpt lat="68.79334" lon="17.57306">
        <ele>7.085763</ele>
        <time>2020-08-27T22:36:44.733Z</time>
      </trkpt>
      <trkpt lat="68.79341" lon="17.57262">
        <ele>7.323125</ele>
        <time>2020-08-27T22:36:48.727Z</time>
      </trkpt>
      <trkpt lat="68.79354" lon="17.57228">
        <ele>7.566702</ele>
        <time>2020-08-27T22:36:52.851Z</time>
      </trkpt>
      <trkpt lat="68.79408" lon="17.57161">
        <ele>8.361632</ele>
        <time>2020-08-27T22:37:05.991Z</time>
      </trkpt>
      <trkpt lat="68.79427" lon="17.5712">
        <ele>8.690413</ele>
        <time>2020-08-27T22:37:10.613Z</time>
      </trkpt>
      <trkpt lat="68.79514" lon="17.56812">
        <ele>10.07243</ele>
        <time>2020-08-27T22:37:43.253Z</time>
      </trkpt>
      <trkpt lat="68.79545" lon="17.5667">
        <ele>10.217822</ele>
        <time>2020-08-27T22:37:54.533Z</time>
      </trkpt>
      <trkpt lat="68.79548" lon="17.56655">
        <ele>10.233459</ele>
        <time>2020-08-27T22:37:56.012Z</time>
      </trkpt>
      <trkpt lat="68.79573" lon="17.56538">
        <ele>10.353059</ele>
        <time>2020-08-27T22:38:04.658Z</time>
      </trkpt>
      <trkpt lat="68.79577" lon="17.56516">
        <ele>10.375791</ele>
        <time>2020-08-27T22:38:05.801Z</time>
      </trkpt>
      <trkpt lat="68.79623" lon="17.56315">
        <ele>8.977031</ele>
        <time>2020-08-27T22:38:18.271Z</time>
      </trkpt>
      <trkpt lat="68.79683" lon="17.5612">
        <ele>7.293433</ele>
        <time>2020-08-27T22:38:31.011Z</time>
      </trkpt>
      <trkpt lat="68.79704" lon="17.56058">
        <ele>7.114684</ele>
        <time>2020-08-27T22:38:35.522Z</time>
      </trkpt>
      <trkpt lat="68.7974" lon="17.55946">
        <ele>7.056555</ele>
        <time>2020-08-27T22:38:44.400Z</time>
      </trkpt>
      <trkpt lat="68.79789" lon="17.55796">
        <ele>6.978136</ele>
        <time>2020-08-27T22:38:58.318Z</time>
      </trkpt>
      <trkpt lat="68.79828" lon="17.55679">
        <ele>7.074832</ele>
        <time>2020-08-27T22:39:11.106Z</time>
      </trkpt>
      <trkpt lat="68.79855" lon="17.55596">
        <ele>7.269286</ele>
        <time>2020-08-27T22:39:19.432Z</time>
      </trkpt>
      <trkpt lat="68.79886" lon="17.55501">
        <ele>7.494314</ele>
        <time>2020-08-27T22:39:28.381Z</time>
      </trkpt>
      <trkpt lat="68.79909" lon="17.55434">
        <ele>7.653368</ele>
        <time>2020-08-27T22:39:34.545Z</time>
      </trkpt>
      <trkpt lat="68.79946" lon="17.55319">
        <ele>7.787899</ele>
        <time>2020-08-27T22:39:44.369Z</time>
      </trkpt>
      <trkpt lat="68.79962" lon="17.5527">
        <ele>7.761873</ele>
        <time>2020-08-27T22:39:48.370Z</time>
      </trkpt>
      <trkpt lat="68.79983" lon="17.55186">
        <ele>7.722432</ele>
        <time>2020-08-27T22:39:54.433Z</time>
      </trkpt>
      <trkpt lat="68.80023" lon="17.54999">
        <ele>7.637658</ele>
        <time>2020-08-27T22:40:08.177Z</time>
      </trkpt>
      <trkpt lat="68.80035" lon="17.54944">
        <ele>7.680988</ele>
        <time>2020-08-27T22:40:12.335Z</time>
      </trkpt>
      <trkpt lat="68.8005" lon="17.54867">
        <ele>8.035351</ele>
        <time>2020-08-27T22:40:18.317Z</time>
      </trkpt>
      <trkpt lat="68.80062" lon="17.54794">
        <ele>8.364223</ele>
        <time>2020-08-27T22:40:24.099Z</time>
      </trkpt>
      <trkpt lat="68.80078" lon="17.54691">
        <ele>8.819596</ele>
        <time>2020-08-27T22:40:32.950Z</time>
      </trkpt>
      <trkpt lat="68.80128" lon="17.54372">
        <ele>10.047039</ele>
        <time>2020-08-27T22:41:02.896Z</time>
      </trkpt>
      <trkpt lat="68.80139" lon="17.54323">
        <ele>10.208574</ele>
        <time>2020-08-27T22:41:07.749Z</time>
      </trkpt>
      <trkpt lat="68.8014" lon="17.54317">
        <ele>10.227474</ele>
        <time>2020-08-27T22:41:08.461Z</time>
      </trkpt>
      <trkpt lat="68.80179" lon="17.54164">
        <ele>10.748078</ele>
        <time>2020-08-27T22:41:21.571Z</time>
      </trkpt>
      <trkpt lat="68.80185" lon="17.5414">
        <ele>10.828168</ele>
        <time>2020-08-27T22:41:23.640Z</time>
      </trkpt>
      <trkpt lat="68.8019" lon="17.54122">
        <ele>10.888463</ele>
        <time>2020-08-27T22:41:24.749Z</time>
      </trkpt>
      <trkpt lat="68.80292" lon="17.53728">
        <ele>9.912074</ele>
        <time>2020-08-27T22:41:52.417Z</time>
      </trkpt>
      <trkpt lat="68.80302" lon="17.53655">
        <ele>9.741088</ele>
        <time>2020-08-27T22:41:57.061Z</time>
      </trkpt>
      <trkpt lat="68.80322" lon="17.53427">
        <ele>9.579644</ele>
        <time>2020-08-27T22:42:11.500Z</time>
      </trkpt>
      <trkpt lat="68.80333" lon="17.53368">
        <ele>9.533007</ele>
        <time>2020-08-27T22:42:15.826Z</time>
      </trkpt>
      <trkpt lat="68.80367" lon="17.53251">
        <ele>9.43027</ele>
        <time>2020-08-27T22:42:25.593Z</time>
      </trkpt>
      <trkpt lat="68.80769" lon="17.51911">
        <ele>9.12718</ele>
        <time>2020-08-27T22:44:18.592Z</time>
      </trkpt>
      <trkpt lat="68.81091" lon="17.51156">
        <ele>7.109982</ele>
        <time>2020-08-27T22:45:26.063Z</time>
      </trkpt>
      <trkpt lat="68.81277" lon="17.50539">
        <ele>9.7177</ele>
        <time>2020-08-27T22:46:26.877Z</time>
      </trkpt>
      <trkpt lat="68.81334" lon="17.50265">
        <ele>11.507642</ele>
        <time>2020-08-27T22:46:53.990Z</time>
      </trkpt>
      <trkpt lat="68.81387" lon="17.50001">
        <ele>13.878098</ele>
        <time>2020-08-27T22:47:21.643Z</time>
      </trkpt>
      <trkpt lat="68.81402" lon="17.49927">
        <ele>14.541807</ele>
        <time>2020-08-27T22:47:29.461Z</time>
      </trkpt>
      <trkpt lat="68.81424" lon="17.49789">
        <ele>15.584255</ele>
        <time>2020-08-27T22:47:43.163Z</time>
      </trkpt>
      <trkpt lat="68.8151" lon="17.49138">
        <ele>18.753117</ele>
        <time>2020-08-27T22:48:38.699Z</time>
      </trkpt>
      <trkpt lat="68.81632" lon="17.48544">
        <ele>19.869601</ele>
        <time>2020-08-27T22:49:25.144Z</time>
      </trkpt>
      <trkpt lat="68.81642" lon="17.48459">
        <ele>19.927818</ele>
        <time>2020-08-27T22:49:31.135Z</time>
      </trkpt>
      <trkpt lat="68.81652" lon="17.48288">
        <ele>19.969206</ele>
        <time>2020-08-27T22:49:41.422Z</time>
      </trkpt>
      <trkpt lat="68.81654" lon="17.48253">
        <ele>19.977746</ele>
        <time>2020-08-27T22:49:44.755Z</time>
      </trkpt>
      <trkpt lat="68.81657" lon="17.48214">
        <ele>19.987168</ele>
        <time>2020-08-27T22:49:46.900Z</time>
      </trkpt>
      <trkpt lat="68.81675" lon="17.48073">
        <ele>20.023029</ele>
        <time>2020-08-27T22:49:57.659Z</time>
      </trkpt>
      <trkpt lat="68.81705" lon="17.47922">
        <ele>19.859179</ele>
        <time>2020-08-27T22:50:08.352Z</time>
      </trkpt>
      <trkpt lat="68.81722" lon="17.47838">
        <ele>19.693322</ele>
        <time>2020-08-27T22:50:14.405Z</time>
      </trkpt>
      <trkpt lat="68.81836" lon="17.47268">
        <ele>17.110178</ele>
        <time>2020-08-27T22:50:51.939Z</time>
      </trkpt>
      <trkpt lat="68.8189" lon="17.46911">
        <ele>13.94327</ele>
        <time>2020-08-27T22:51:09.976Z</time>
      </trkpt>
      <trkpt lat="68.81945" lon="17.46651">
        <ele>11.986203</ele>
        <time>2020-08-27T22:51:24.888Z</time>
      </trkpt>
      <trkpt lat="68.81963" lon="17.46533">
        <ele>13.274731</ele>
        <time>2020-08-27T22:51:33.660Z</time>
      </trkpt>
      <trkpt lat="68.81965" lon="17.46513">
        <ele>13.48665</ele>
        <time>2020-08-27T22:51:34.558Z</time>
      </trkpt>
      <trkpt lat="68.81967" lon="17.46489">
        <ele>13.736641</ele>
        <time>2020-08-27T22:51:38.843Z</time>
      </trkpt>
      <trkpt lat="68.81969" lon="17.46392">
        <ele>14.715068</ele>
        <time>2020-08-27T22:51:48.203Z</time>
      </trkpt>
      <trkpt lat="68.81956" lon="17.4607">
        <ele>20.272772</ele>
        <time>2020-08-27T22:52:32.968Z</time>
      </trkpt>
      <trkpt lat="68.81935" lon="17.45834">
        <ele>26.621818</ele>
        <time>2020-08-27T22:53:13.575Z</time>
      </trkpt>
      <trkpt lat="68.81918" lon="17.45707">
        <ele>29.832855</ele>
        <time>2020-08-27T22:53:32.304Z</time>
      </trkpt>
      <trkpt lat="68.81908" lon="17.45656">
        <ele>30.56846</ele>
        <time>2020-08-27T22:53:40.623Z</time>
      </trkpt>
      <trkpt lat="68.819" lon="17.45618">
        <ele>31.132142</ele>
        <time>2020-08-27T22:53:45.524Z</time>
      </trkpt>
      <trkpt lat="68.81805" lon="17.45228">
        <ele>36.190872</ele>
        <time>2020-08-27T22:54:29.871Z</time>
      </trkpt>
      <trkpt lat="68.81792" lon="17.4515">
        <ele>36.482822</ele>
        <time>2020-08-27T22:54:35.105Z</time>
      </trkpt>
      <trkpt lat="68.81759" lon="17.44303">
        <ele>38.809073</ele>
        <time>2020-08-27T22:55:36.114Z</time>
      </trkpt>
      <trkpt lat="68.81729" lon="17.44058">
        <ele>39.562149</ele>
        <time>2020-08-27T22:55:55.983Z</time>
      </trkpt>
      <trkpt lat="68.81721" lon="17.43994">
        <ele>39.756739</ele>
        <time>2020-08-27T22:56:01.304Z</time>
      </trkpt>
      <trkpt lat="68.8172" lon="17.43966">
        <ele>39.838389</ele>
        <time>2020-08-27T22:56:03.348Z</time>
      </trkpt>
      <trkpt lat="68.81719" lon="17.43952">
        <ele>39.880113</ele>
        <time>2020-08-27T22:56:03.971Z</time>
      </trkpt>
      <trkpt lat="68.81716" lon="17.43726">
        <ele>39.817296</ele>
        <time>2020-08-27T22:56:20.619Z</time>
      </trkpt>
      <trkpt lat="68.81705" lon="17.43583">
        <ele>39.480382</ele>
        <time>2020-08-27T22:56:30.316Z</time>
      </trkpt>
      <trkpt lat="68.81648" lon="17.43294">
        <ele>38.011221</ele>
        <time>2020-08-27T22:56:47.047Z</time>
      </trkpt>
      <trkpt lat="68.81638" lon="17.43204">
        <ele>37.22069</ele>
        <time>2020-08-27T22:56:51.958Z</time>
      </trkpt>
      <trkpt lat="68.81633" lon="17.43146">
        <ele>36.716676</ele>
        <time>2020-08-27T22:56:54.911Z</time>
      </trkpt>
      <trkpt lat="68.81626" lon="17.43091">
        <ele>36.225704</ele>
        <time>2020-08-27T22:56:58.151Z</time>
      </trkpt>
      <trkpt lat="68.81511" lon="17.42554">
        <ele>29.214708</ele>
        <time>2020-08-27T22:57:27.795Z</time>
      </trkpt>
      <trkpt lat="68.81507" lon="17.42533">
        <ele>28.925848</ele>
        <time>2020-08-27T22:57:28.909Z</time>
      </trkpt>
      <trkpt lat="68.81503" lon="17.42506">
        <ele>28.56951</ele>
        <time>2020-08-27T22:57:30.273Z</time>
      </trkpt>
      <trkpt lat="68.81501" lon="17.42482">
        <ele>28.246164</ele>
        <time>2020-08-27T22:57:31.458Z</time>
      </trkpt>
      <trkpt lat="68.81501" lon="17.42462">
        <ele>27.984467</ele>
        <time>2020-08-27T22:57:32.227Z</time>
      </trkpt>
      <trkpt lat="68.81525" lon="17.42119">
        <ele>23.439284</ele>
        <time>2020-08-27T22:57:47.954Z</time>
      </trkpt>
      <trkpt lat="68.81518" lon="17.4201">
        <ele>22.287299</ele>
        <time>2020-08-27T22:57:53.319Z</time>
      </trkpt>
      <trkpt lat="68.81515" lon="17.41995">
        <ele>22.361911</ele>
        <time>2020-08-27T22:57:54.160Z</time>
      </trkpt>
      <trkpt lat="68.8151" lon="17.41977">
        <ele>22.452846</ele>
        <time>2020-08-27T22:57:56.723Z</time>
      </trkpt>
      <trkpt lat="68.81482" lon="17.4192">
        <ele>22.850646</ele>
        <time>2020-08-27T22:58:03.092Z</time>
      </trkpt>
      <trkpt lat="68.81438" lon="17.41887">
        <ele>23.376792</ele>
        <time>2020-08-27T22:58:13.213Z</time>
      </trkpt>
      <trkpt lat="68.81406" lon="17.41867">
        <ele>23.754573</ele>
        <time>2020-08-27T22:58:21.702Z</time>
      </trkpt>
      <trkpt lat="68.81379" lon="17.4185">
        <ele>24.069701</ele>
        <time>2020-08-27T22:58:29.027Z</time>
      </trkpt>
      <trkpt lat="68.81334" lon="17.41818">
        <ele>25.007972</ele>
        <time>2020-08-27T22:58:42.480Z</time>
      </trkpt>
      <trkpt lat="68.8116" lon="17.41706">
        <ele>29.070967</ele>
        <time>2020-08-27T22:59:28.880Z</time>
      </trkpt>
      <trkpt lat="68.81114" lon="17.41649">
        <ele>29.291155</ele>
        <time>2020-08-27T22:59:39.874Z</time>
      </trkpt>
      <trkpt lat="68.81079" lon="17.41579">
        <ele>29.481674</ele>
        <time>2020-08-27T22:59:47.995Z</time>
      </trkpt>
      <trkpt lat="68.81034" lon="17.41438">
        <ele>29.593831</ele>
        <time>2020-08-27T22:59:58.575Z</time>
      </trkpt>
      <trkpt lat="68.80924" lon="17.40912">
        <ele>27.00774</ele>
        <time>2020-08-27T23:00:29.677Z</time>
      </trkpt>
      <trkpt lat="68.80886" lon="17.40763">
        <ele>27.569144</ele>
        <time>2020-08-27T23:00:42.858Z</time>
      </trkpt>
      <trkpt lat="68.80734" lon="17.4041">
        <ele>31.923092</ele>
        <time>2020-08-27T23:01:39.159Z</time>
      </trkpt>
      <trkpt lat="68.80662" lon="17.40277">
        <ele>33.458688</ele>
        <time>2020-08-27T23:02:00.290Z</time>
      </trkpt>
      <trkpt lat="68.80626" lon="17.40189">
        <ele>33.681251</ele>
        <time>2020-08-27T23:02:10.040Z</time>
      </trkpt>
      <trkpt lat="68.80594" lon="17.40103">
        <ele>33.886681</ele>
        <time>2020-08-27T23:02:17.847Z</time>
      </trkpt>
      <trkpt lat="68.80586" lon="17.40081">
        <ele>33.93752</ele>
        <time>2020-08-27T23:02:19.645Z</time>
      </trkpt>
      <trkpt lat="68.80526" lon="17.39917">
        <ele>33.77346</ele>
        <time>2020-08-27T23:02:32.888Z</time>
      </trkpt>
      <trkpt lat="68.80424" lon="17.39637">
        <ele>32.671458</ele>
        <time>2020-08-27T23:02:56.054Z</time>
      </trkpt>
      <trkpt lat="68.80396" lon="17.39562">
        <ele>32.048977</ele>
        <time>2020-08-27T23:03:02.474Z</time>
      </trkpt>
      <trkpt lat="68.80349" lon="17.39436">
        <ele>31.015642</ele>
        <time>2020-08-27T23:03:12.207Z</time>
      </trkpt>
      <trkpt lat="68.80305" lon="17.39315">
        <ele>30.024468</ele>
        <time>2020-08-27T23:03:20.750Z</time>
      </trkpt>
      <trkpt lat="68.80263" lon="17.39203">
        <ele>28.482283</ele>
        <time>2020-08-27T23:03:28.462Z</time>
      </trkpt>
      <trkpt lat="68.80248" lon="17.39166">
        <ele>27.949243</ele>
        <time>2020-08-27T23:03:31.178Z</time>
      </trkpt>
      <trkpt lat="68.80226" lon="17.39117">
        <ele>27.198304</ele>
        <time>2020-08-27T23:03:34.889Z</time>
      </trkpt>
      <trkpt lat="68.80221" lon="17.39108">
        <ele>27.04242</ele>
        <time>2020-08-27T23:03:35.678Z</time>
      </trkpt>
      <trkpt lat="68.80214" lon="17.39093">
        <ele>26.802633</ele>
        <time>2020-08-27T23:03:36.856Z</time>
      </trkpt>
      <trkpt lat="68.80211" lon="17.39085">
        <ele>26.678816</ele>
        <time>2020-08-27T23:03:37.456Z</time>
      </trkpt>
      <trkpt lat="68.80208" lon="17.39079">
        <ele>26.58161</ele>
        <time>2020-08-27T23:03:37.919Z</time>
      </trkpt>
      <trkpt lat="68.80198" lon="17.39056">
        <ele>26.240351</ele>
        <time>2020-08-27T23:03:39.675Z</time>
      </trkpt>
      <trkpt lat="68.80182" lon="17.39019">
        <ele>25.682051</ele>
        <time>2020-08-27T23:03:42.424Z</time>
      </trkpt>
      <trkpt lat="68.80157" lon="17.38958">
        <ele>25.067144</ele>
        <time>2020-08-27T23:03:46.930Z</time>
      </trkpt>
      <trkpt lat="68.80048" lon="17.38675">
        <ele>23.739284</ele>
        <time>2020-08-27T23:04:10.656Z</time>
      </trkpt>
      <trkpt lat="68.7991" lon="17.38318">
        <ele>24.520371</ele>
        <time>2020-08-27T23:04:48.026Z</time>
      </trkpt>
      <trkpt lat="68.79804" lon="17.38045">
        <ele>25.976106</ele>
        <time>2020-08-27T23:05:18.756Z</time>
      </trkpt>
      <trkpt lat="68.79779" lon="17.37978">
        <ele>26.338505</ele>
        <time>2020-08-27T23:05:26.541Z</time>
      </trkpt>
      <trkpt lat="68.79734" lon="17.3786">
        <ele>26.406314</ele>
        <time>2020-08-27T23:05:39.607Z</time>
      </trkpt>
      <trkpt lat="68.79697" lon="17.37765">
        <ele>26.409215</ele>
        <time>2020-08-27T23:05:48.715Z</time>
      </trkpt>
      <trkpt lat="68.79662" lon="17.37676">
        <ele>26.411967</ele>
        <time>2020-08-27T23:05:56.831Z</time>
      </trkpt>
      <trkpt lat="68.79645" lon="17.37633">
        <ele>26.41327</ele>
        <time>2020-08-27T23:06:00.304Z</time>
      </trkpt>
      <trkpt lat="68.79622" lon="17.37566">
        <ele>25.72284</ele>
        <time>2020-08-27T23:06:05.313Z</time>
      </trkpt>
      <trkpt lat="68.79612" lon="17.37531">
        <ele>25.3559</ele>
        <time>2020-08-27T23:06:07.684Z</time>
      </trkpt>
      <trkpt lat="68.79601" lon="17.37491">
        <ele>24.942109</ele>
        <time>2020-08-27T23:06:10.152Z</time>
      </trkpt>
      <trkpt lat="68.79554" lon="17.37288">
        <ele>22.961455</ele>
        <time>2020-08-27T23:06:21.837Z</time>
      </trkpt>
      <trkpt lat="68.79536" lon="17.3718">
        <ele>22.004237</ele>
        <time>2020-08-27T23:06:27.564Z</time>
      </trkpt>
      <trkpt lat="68.79533" lon="17.37165">
        <ele>21.879993</ele>
        <time>2020-08-27T23:06:28.354Z</time>
      </trkpt>
      <trkpt lat="68.79489" lon="17.36909">
        <ele>19.735632</ele>
        <time>2020-08-27T23:06:42.571Z</time>
      </trkpt>
      <trkpt lat="68.79466" lon="17.36773">
        <ele>18.605238</ele>
        <time>2020-08-27T23:06:50.323Z</time>
      </trkpt>
      <trkpt lat="68.7946" lon="17.36739">
        <ele>18.525231</ele>
        <time>2020-08-27T23:06:52.605Z</time>
      </trkpt>
      <trkpt lat="68.79441" lon="17.36632">
        <ele>18.381934</ele>
        <time>2020-08-27T23:06:59.557Z</time>
      </trkpt>
      <trkpt lat="68.79405" lon="17.36434">
        <ele>18.118359</ele>
        <time>2020-08-27T23:07:13.453Z</time>
      </trkpt>
      <trkpt lat="68.79397" lon="17.36403">
        <ele>18.073255</ele>
        <time>2020-08-27T23:07:15.790Z</time>
      </trkpt>
      <trkpt lat="68.79392" lon="17.36387">
        <ele>18.04717</ele>
        <time>2020-08-27T23:07:17.708Z</time>
      </trkpt>
      <trkpt lat="68.79293" lon="17.36126">
        <ele>18.143502</ele>
        <time>2020-08-27T23:07:43.465Z</time>
      </trkpt>
      <trkpt lat="68.79214" lon="17.35915">
        <ele>17.975912</ele>
        <time>2020-08-27T23:08:03.007Z</time>
      </trkpt>
      <trkpt lat="68.79206" lon="17.35894">
        <ele>17.910729</ele>
        <time>2020-08-27T23:08:04.742Z</time>
      </trkpt>
      <trkpt lat="68.79141" lon="17.35723">
        <ele>17.355116</ele>
        <time>2020-08-27T23:08:19.000Z</time>
      </trkpt>
      <trkpt lat="68.79045" lon="17.35469">
        <ele>16.463313</ele>
        <time>2020-08-27T23:08:39.675Z</time>
      </trkpt>
      <trkpt lat="68.79002" lon="17.35355">
        <ele>16.052783</ele>
        <time>2020-08-27T23:08:49.293Z</time>
      </trkpt>
      <trkpt lat="68.78966" lon="17.35255">
        <ele>15.817341</ele>
        <time>2020-08-27T23:08:58.208Z</time>
      </trkpt>
      <trkpt lat="68.78953" lon="17.35216">
        <ele>15.764333</ele>
        <time>2020-08-27T23:09:01.738Z</time>
      </trkpt>
      <trkpt lat="68.78919" lon="17.35101">
        <ele>15.617989</ele>
        <time>2020-08-27T23:09:11.698Z</time>
      </trkpt>
      <trkpt lat="68.78854" lon="17.34831">
        <ele>14.852518</ele>
        <time>2020-08-27T23:09:31.172Z</time>
      </trkpt>
      <trkpt lat="68.78754" lon="17.34456">
        <ele>12.641652</ele>
        <time>2020-08-27T23:09:55.282Z</time>
      </trkpt>
      <trkpt lat="68.78695" lon="17.34233">
        <ele>11.883285</ele>
        <time>2020-08-27T23:10:10.485Z</time>
      </trkpt>
      <trkpt lat="68.78596" lon="17.33862">
        <ele>12.293594</ele>
        <time>2020-08-27T23:10:43.557Z</time>
      </trkpt>
      <trkpt lat="68.78537" lon="17.33663">
        <ele>12.844385</ele>
        <time>2020-08-27T23:11:03.274Z</time>
      </trkpt>
      <trkpt lat="68.78524" lon="17.33628">
        <ele>12.901315</ele>
        <time>2020-08-27T23:11:07.095Z</time>
      </trkpt>
      <trkpt lat="68.78501" lon="17.3357">
        <ele>12.995899</ele>
        <time>2020-08-27T23:11:13.216Z</time>
      </trkpt>
      <trkpt lat="68.78441" lon="17.33415">
        <ele>13.248226</ele>
        <time>2020-08-27T23:11:28.583Z</time>
      </trkpt>
      <trkpt lat="68.78378" lon="17.33253">
        <ele>12.502063</ele>
        <time>2020-08-27T23:11:42.309Z</time>
      </trkpt>
      <trkpt lat="68.78339" lon="17.33134">
        <ele>11.780772</ele>
        <time>2020-08-27T23:11:50.669Z</time>
      </trkpt>
      <trkpt lat="68.78311" lon="17.32999">
        <ele>11.08178</ele>
        <time>2020-08-27T23:11:58.742Z</time>
      </trkpt>
      <trkpt lat="68.78303" lon="17.32945">
        <ele>10.930671</ele>
        <time>2020-08-27T23:12:01.912Z</time>
      </trkpt>
      <trkpt lat="68.78301" lon="17.32928">
        <ele>10.886879</ele>
        <time>2020-08-27T23:12:02.857Z</time>
      </trkpt>
      <trkpt lat="68.78299" lon="17.32917">
        <ele>10.856426</ele>
        <time>2020-08-27T23:12:03.459Z</time>
      </trkpt>
      <trkpt lat="68.78283" lon="17.32818">
        <ele>10.588633</ele>
        <time>2020-08-27T23:12:09.443Z</time>
      </trkpt>
      <trkpt lat="68.78265" lon="17.32756">
        <ele>10.389099</ele>
        <time>2020-08-27T23:12:14.025Z</time>
      </trkpt>
      <trkpt lat="68.78238" lon="17.32691">
        <ele>10.142857</ele>
        <time>2020-08-27T23:12:19.828Z</time>
      </trkpt>
      <trkpt lat="68.78167" lon="17.32524">
        <ele>10.158221</ele>
        <time>2020-08-27T23:12:37.641Z</time>
      </trkpt>
      <trkpt lat="68.78138" lon="17.3244">
        <ele>10.437213</ele>
        <time>2020-08-27T23:12:46.589Z</time>
      </trkpt>
      <trkpt lat="68.78111" lon="17.32261">
        <ele>10.905033</ele>
        <time>2020-08-27T23:13:01.377Z</time>
      </trkpt>
      <trkpt lat="68.78052" lon="17.3207">
        <ele>11.081319</ele>
        <time>2020-08-27T23:13:18.117Z</time>
      </trkpt>
      <trkpt lat="68.78037" lon="17.32019">
        <ele>11.097614</ele>
        <time>2020-08-27T23:13:22.610Z</time>
      </trkpt>
      <trkpt lat="68.7803" lon="17.31992">
        <ele>11.106215</ele>
        <time>2020-08-27T23:13:24.652Z</time>
      </trkpt>
      <trkpt lat="68.78011" lon="17.31917">
        <ele>11.128991</ele>
        <time>2020-08-27T23:13:30.526Z</time>
      </trkpt>
      <trkpt lat="68.7801" lon="17.31915">
        <ele>11.129557</ele>
        <time>2020-08-27T23:13:30.645Z</time>
      </trkpt>
      <trkpt lat="68.7794" lon="17.3163">
        <ele>11.500272</ele>
        <time>2020-08-27T23:13:52.155Z</time>
      </trkpt>
      <trkpt lat="68.77895" lon="17.31417">
        <ele>11.85346</ele>
        <time>2020-08-27T23:14:10.586Z</time>
      </trkpt>
      <trkpt lat="68.77849" lon="17.3123">
        <ele>13.017318</ele>
        <time>2020-08-27T23:14:28.532Z</time>
      </trkpt>
      <trkpt lat="68.77833" lon="17.31166">
        <ele>13.426025</ele>
        <time>2020-08-27T23:14:35.196Z</time>
      </trkpt>
      <trkpt lat="68.778" lon="17.31019">
        <ele>14.351989</ele>
        <time>2020-08-27T23:14:49.960Z</time>
      </trkpt>
      <trkpt lat="68.77784" lon="17.30914">
        <ele>14.655855</ele>
        <time>2020-08-27T23:14:59.755Z</time>
      </trkpt>
      <trkpt lat="68.77761" lon="17.30602">
        <ele>15.18408</ele>
        <time>2020-08-27T23:15:22.528Z</time>
      </trkpt>
      <trkpt lat="68.77709" lon="17.30126">
        <ele>13.632865</ele>
        <time>2020-08-27T23:15:50.017Z</time>
      </trkpt>
      <trkpt lat="68.77705" lon="17.29941">
        <ele>13.006475</ele>
        <time>2020-08-27T23:15:59.703Z</time>
      </trkpt>
      <trkpt lat="68.77726" lon="17.29574">
        <ele>12.11043</ele>
        <time>2020-08-27T23:16:21.164Z</time>
      </trkpt>
      <trkpt lat="68.7772" lon="17.29328">
        <ele>13.532253</ele>
        <time>2020-08-27T23:16:39.992Z</time>
      </trkpt>
      <trkpt lat="68.77712" lon="17.29222">
        <ele>14.308133</ele>
        <time>2020-08-27T23:16:49.586Z</time>
      </trkpt>
      <trkpt lat="68.77693" lon="17.29117">
        <ele>15.140037</ele>
        <time>2020-08-27T23:17:01.162Z</time>
      </trkpt>
      <trkpt lat="68.77627" lon="17.28899">
        <ele>18.175522</ele>
        <time>2020-08-27T23:17:32.355Z</time>
      </trkpt>
      <trkpt lat="68.77573" lon="17.2866">
        <ele>21.371144</ele>
        <time>2020-08-27T23:18:00.883Z</time>
      </trkpt>
      <trkpt lat="68.77518" lon="17.28493">
        <ele>21.920562</ele>
        <time>2020-08-27T23:18:19.252Z</time>
      </trkpt>
      <trkpt lat="68.77473" lon="17.28403">
        <ele>22.29067</ele>
        <time>2020-08-27T23:18:28.944Z</time>
      </trkpt>
      <trkpt lat="68.77452" lon="17.28334">
        <ele>22.512182</ele>
        <time>2020-08-27T23:18:34.035Z</time>
      </trkpt>
      <trkpt lat="68.77446" lon="17.28292">
        <ele>22.637068</ele>
        <time>2020-08-27T23:18:36.466Z</time>
      </trkpt>
      <trkpt lat="68.77446" lon="17.28248">
        <ele>22.776958</ele>
        <time>2020-08-27T23:18:38.828Z</time>
      </trkpt>
      <trkpt lat="68.77484" lon="17.27889">
        <ele>23.950579</ele>
        <time>2020-08-27T23:19:04.822Z</time>
      </trkpt>
      <trkpt lat="68.77488" lon="17.27754">
        <ele>26.188955</ele>
        <time>2020-08-27T23:19:19.584Z</time>
      </trkpt>
      <trkpt lat="68.77473" lon="17.27647">
        <ele>29.019072</ele>
        <time>2020-08-27T23:19:34.393Z</time>
      </trkpt>
      <trkpt lat="68.77392" lon="17.27378">
        <ele>37.741647</ele>
        <time>2020-08-27T23:20:32.774Z</time>
      </trkpt>
      <trkpt lat="68.77358" lon="17.27266">
        <ele>41.442776</ele>
        <time>2020-08-27T23:20:57.477Z</time>
      </trkpt>
      <trkpt lat="68.77332" lon="17.27183">
        <ele>44.168642</ele>
        <time>2020-08-27T23:21:14.274Z</time>
      </trkpt>
      <trkpt lat="68.77301" lon="17.27079">
        <ele>47.568776</ele>
        <time>2020-08-27T23:21:33.061Z</time>
      </trkpt>
      <trkpt lat="68.77225" lon="17.26944">
        <ele>48.808589</ele>
        <time>2020-08-27T23:21:56.985Z</time>
      </trkpt>
      <trkpt lat="68.77205" lon="17.2693">
        <ele>48.760176</ele>
        <time>2020-08-27T23:22:01.074Z</time>
      </trkpt>
      <trkpt lat="68.7718" lon="17.26935">
        <ele>48.7024</ele>
        <time>2020-08-27T23:22:04.569Z</time>
      </trkpt>
      <trkpt lat="68.77139" lon="17.26979">
        <ele>48.598465</ele>
        <time>2020-08-27T23:22:10.528Z</time>
      </trkpt>
      <trkpt lat="68.77127" lon="17.27">
        <ele>48.565873</ele>
        <time>2020-08-27T23:22:12.303Z</time>
      </trkpt>
      <trkpt lat="68.77126" lon="17.27001">
        <ele>48.564717</ele>
        <time>2020-08-27T23:22:12.363Z</time>
      </trkpt>
      <trkpt lat="68.77067" lon="17.2711">
        <ele>45.772389</ele>
        <time>2020-08-27T23:22:21.237Z</time>
      </trkpt>
      <trkpt lat="68.77038" lon="17.27147">
        <ele>44.442225</ele>
        <time>2020-08-27T23:22:25.338Z</time>
      </trkpt>
      <trkpt lat="68.77031" lon="17.27151">
        <ele>44.142027</ele>
        <time>2020-08-27T23:22:26.093Z</time>
      </trkpt>
      <trkpt lat="68.77031" lon="17.27151">
        <ele>44.142027</ele>
        <time>2020-08-27T23:22:26.097Z</time>
      </trkpt>
      <trkpt lat="68.77017" lon="17.27155">
        <ele>43.586576</ele>
        <time>2020-08-27T23:22:27.892Z</time>
      </trkpt>
      <trkpt lat="68.76997" lon="17.27149">
        <ele>42.732026</ele>
        <time>2020-08-27T23:22:30.280Z</time>
      </trkpt>
      <trkpt lat="68.76987" lon="17.27141">
        <ele>42.279258</ele>
        <time>2020-08-27T23:22:31.636Z</time>
      </trkpt>
      <trkpt lat="68.76942" lon="17.27103">
        <ele>40.834134</ele>
        <time>2020-08-27T23:22:37.720Z</time>
      </trkpt>
      <trkpt lat="68.76812" lon="17.26993">
        <ele>39.238705</ele>
        <time>2020-08-27T23:22:57.872Z</time>
      </trkpt>
      <trkpt lat="68.76776" lon="17.26964">
        <ele>39.030296</ele>
        <time>2020-08-27T23:23:06.365Z</time>
      </trkpt>
      <trkpt lat="68.76716" lon="17.26912">
        <ele>39.744501</ele>
        <time>2020-08-27T23:23:21.706Z</time>
      </trkpt>
      <trkpt lat="68.76669" lon="17.26873">
        <ele>40.295612</ele>
        <time>2020-08-27T23:23:33.735Z</time>
      </trkpt>
      <trkpt lat="68.76639" lon="17.26848">
        <ele>40.646814</ele>
        <time>2020-08-27T23:23:40.005Z</time>
      </trkpt>
      <trkpt lat="68.76623" lon="17.26832">
        <ele>40.83716</ele>
        <time>2020-08-27T23:23:42.798Z</time>
      </trkpt>
      <trkpt lat="68.76574" lon="17.26761">
        <ele>40.249751</ele>
        <time>2020-08-27T23:23:52.878Z</time>
      </trkpt>
      <trkpt lat="68.76549" lon="17.26699">
        <ele>39.750926</ele>
        <time>2020-08-27T23:23:58.063Z</time>
      </trkpt>
      <trkpt lat="68.76544" lon="17.26679">
        <ele>39.62381</ele>
        <time>2020-08-27T23:23:59.393Z</time>
      </trkpt>
      <trkpt lat="68.76538" lon="17.26652">
        <ele>39.455545</ele>
        <time>2020-08-27T23:24:00.836Z</time>
      </trkpt>
      <trkpt lat="68.76511" lon="17.26418">
        <ele>38.156279</ele>
        <time>2020-08-27T23:24:12.959Z</time>
      </trkpt>
      <trkpt lat="68.76501" lon="17.26375">
        <ele>37.910545</ele>
        <time>2020-08-27T23:24:15.371Z</time>
      </trkpt>
      <trkpt lat="68.76481" lon="17.26335">
        <ele>37.588684</ele>
        <time>2020-08-27T23:24:18.944Z</time>
      </trkpt>
      <trkpt lat="68.76424" lon="17.26261">
        <ele>36.75219</ele>
        <time>2020-08-27T23:24:28.396Z</time>
      </trkpt>
      <trkpt lat="68.76402" lon="17.26231">
        <ele>36.432223</ele>
        <time>2020-08-27T23:24:32.423Z</time>
      </trkpt>
      <trkpt lat="68.76337" lon="17.26117">
        <ele>35.72227</ele>
        <time>2020-08-27T23:24:45.277Z</time>
      </trkpt>
      <trkpt lat="68.76293" lon="17.2603">
        <ele>35.443545</ele>
        <time>2020-08-27T23:24:55.299Z</time>
      </trkpt>
      <trkpt lat="68.76283" lon="17.26008">
        <ele>35.377071</ele>
        <time>2020-08-27T23:24:57.279Z</time>
      </trkpt>
      <trkpt lat="68.76222" lon="17.25813">
        <ele>34.698109</ele>
        <time>2020-08-27T23:25:12.446Z</time>
      </trkpt>
      <trkpt lat="68.76186" lon="17.25731">
        <ele>33.928761</ele>
        <time>2020-08-27T23:25:19.122Z</time>
      </trkpt>
      <trkpt lat="68.76176" lon="17.25715">
        <ele>33.725532</ele>
        <time>2020-08-27T23:25:20.686Z</time>
      </trkpt>
      <trkpt lat="68.76113" lon="17.25626">
        <ele>32.546336</ele>
        <time>2020-08-27T23:25:30.534Z</time>
      </trkpt>
      <trkpt lat="68.7607" lon="17.25567">
        <ele>32.052872</ele>
        <time>2020-08-27T23:25:37.553Z</time>
      </trkpt>
      <trkpt lat="68.7606" lon="17.25553">
        <ele>32.100849</ele>
        <time>2020-08-27T23:25:39.441Z</time>
      </trkpt>
      <trkpt lat="68.7603" lon="17.25516">
        <ele>32.233971</ele>
        <time>2020-08-27T23:25:44.538Z</time>
      </trkpt>
      <trkpt lat="68.75994" lon="17.25479">
        <ele>32.391257</ele>
        <time>2020-08-27T23:25:51.631Z</time>
      </trkpt>
      <trkpt lat="68.75961" lon="17.25467">
        <ele>32.531796</ele>
        <time>2020-08-27T23:25:58.304Z</time>
      </trkpt>
      <trkpt lat="68.75923" lon="17.25468">
        <ele>32.686312</ele>
        <time>2020-08-27T23:26:06.716Z</time>
      </trkpt>
      <trkpt lat="68.75887" lon="17.25495">
        <ele>33.334972</ele>
        <time>2020-08-27T23:26:16.459Z</time>
      </trkpt>
      <trkpt lat="68.75862" lon="17.25538">
        <ele>34.016888</ele>
        <time>2020-08-27T23:26:25.640Z</time>
      </trkpt>
      <trkpt lat="68.7584" lon="17.25596">
        <ele>34.7243</ele>
        <time>2020-08-27T23:26:35.380Z</time>
      </trkpt>
      <trkpt lat="68.75782" lon="17.25798">
        <ele>36.880661</ele>
        <time>2020-08-27T23:26:57.784Z</time>
      </trkpt>
      <trkpt lat="68.75775" lon="17.25814">
        <ele>36.76253</ele>
        <time>2020-08-27T23:27:00.035Z</time>
      </trkpt>
      <trkpt lat="68.75766" lon="17.25833">
        <ele>36.584362</ele>
        <time>2020-08-27T23:27:01.695Z</time>
      </trkpt>
      <trkpt lat="68.75721" lon="17.25878">
        <ele>35.823254</ele>
        <time>2020-08-27T23:27:10.294Z</time>
      </trkpt>
      <trkpt lat="68.75712" lon="17.25886">
        <ele>35.68449</ele>
        <time>2020-08-27T23:27:11.749Z</time>
      </trkpt>
      <trkpt lat="68.75707" lon="17.25893">
        <ele>35.597861</ele>
        <time>2020-08-27T23:27:12.499Z</time>
      </trkpt>
      <trkpt lat="68.75684" lon="17.2595">
        <ele>35.108704</ele>
        <time>2020-08-27T23:27:17.084Z</time>
      </trkpt>
      <trkpt lat="68.75674" lon="17.26014">
        <ele>34.713587</ele>
        <time>2020-08-27T23:27:20.444Z</time>
      </trkpt>
      <trkpt lat="68.75671" lon="17.26046">
        <ele>34.528867</ele>
        <time>2020-08-27T23:27:22.063Z</time>
      </trkpt>
      <trkpt lat="68.75668" lon="17.26108">
        <ele>34.169209</ele>
        <time>2020-08-27T23:27:24.943Z</time>
      </trkpt>
      <trkpt lat="68.75647" lon="17.26226">
        <ele>32.819123</ele>
        <time>2020-08-27T23:27:30.610Z</time>
      </trkpt>
      <trkpt lat="68.75582" lon="17.2643">
        <ele>29.823421</ele>
        <time>2020-08-27T23:27:43.294Z</time>
      </trkpt>
      <trkpt lat="68.75542" lon="17.26549">
        <ele>28.488062</ele>
        <time>2020-08-27T23:27:52.436Z</time>
      </trkpt>
      <trkpt lat="68.7552" lon="17.26613">
        <ele>28.316088</ele>
        <time>2020-08-27T23:27:58.180Z</time>
      </trkpt>
      <trkpt lat="68.7548" lon="17.2671">
        <ele>28.025401</ele>
        <time>2020-08-27T23:28:07.395Z</time>
      </trkpt>
      <trkpt lat="68.75453" lon="17.26765">
        <ele>27.842412</ele>
        <time>2020-08-27T23:28:12.859Z</time>
      </trkpt>
      <trkpt lat="68.75438" lon="17.26796">
        <ele>27.739097</ele>
        <time>2020-08-27T23:28:16.823Z</time>
      </trkpt>
      <trkpt lat="68.7541" lon="17.26856">
        <ele>27.330836</ele>
        <time>2020-08-27T23:28:23.543Z</time>
      </trkpt>
      <trkpt lat="68.75409" lon="17.26858">
        <ele>27.304225</ele>
        <time>2020-08-27T23:28:23.656Z</time>
      </trkpt>
      <trkpt lat="68.75319" lon="17.27002">
        <ele>24.864624</ele>
        <time>2020-08-27T23:28:38.739Z</time>
      </trkpt>
      <trkpt lat="68.75296" lon="17.2708">
        <ele>24.007834</ele>
        <time>2020-08-27T23:28:43.333Z</time>
      </trkpt>
      <trkpt lat="68.75246" lon="17.27293">
        <ele>22.005595</ele>
        <time>2020-08-27T23:28:54.782Z</time>
      </trkpt>
      <trkpt lat="68.75217" lon="17.27474">
        <ele>20.487114</ele>
        <time>2020-08-27T23:29:04.825Z</time>
      </trkpt>
      <trkpt lat="68.75189" lon="17.27805">
        <ele>21.067933</ele>
        <time>2020-08-27T23:29:29.807Z</time>
      </trkpt>
      <trkpt lat="68.7516" lon="17.27992">
        <ele>22.415942</ele>
        <time>2020-08-27T23:29:49.766Z</time>
      </trkpt>
      <trkpt lat="68.75141" lon="17.28197">
        <ele>24.039616</ele>
        <time>2020-08-27T23:30:11.234Z</time>
      </trkpt>
      <trkpt lat="68.75063" lon="17.28624">
        <ele>26.660365</ele>
        <time>2020-08-27T23:30:53.128Z</time>
      </trkpt>
      <trkpt lat="68.75016" lon="17.28796">
        <ele>26.176698</ele>
        <time>2020-08-27T23:31:05.394Z</time>
      </trkpt>
      <trkpt lat="68.74988" lon="17.28999">
        <ele>25.254475</ele>
        <time>2020-08-27T23:31:16.339Z</time>
      </trkpt>
      <trkpt lat="68.74951" lon="17.29123">
        <ele>23.736682</ele>
        <time>2020-08-27T23:31:23.867Z</time>
      </trkpt>
      <trkpt lat="68.74926" lon="17.29267">
        <ele>22.2165</ele>
        <time>2020-08-27T23:31:31.518Z</time>
      </trkpt>
      <trkpt lat="68.74869" lon="17.29432">
        <ele>20.819486</ele>
        <time>2020-08-27T23:31:43.200Z</time>
      </trkpt>
      <trkpt lat="68.74846" lon="17.29592">
        <ele>20.383731</ele>
        <time>2020-08-27T23:31:53.542Z</time>
      </trkpt>
      <trkpt lat="68.74796" lon="17.29822">
        <ele>19.49298</ele>
        <time>2020-08-27T23:32:11.780Z</time>
      </trkpt>
      <trkpt lat="68.74756" lon="17.29916">
        <ele>18.57275</ele>
        <time>2020-08-27T23:32:19.818Z</time>
      </trkpt>
      <trkpt lat="68.74735" lon="17.29948">
        <ele>18.152284</ele>
        <time>2020-08-27T23:32:23.461Z</time>
      </trkpt>
      <trkpt lat="68.74715" lon="17.29975">
        <ele>17.7632</ele>
        <time>2020-08-27T23:32:26.487Z</time>
      </trkpt>
      <trkpt lat="68.74651" lon="17.30059">
        <ele>16.372711</ele>
        <time>2020-08-27T23:32:35.962Z</time>
      </trkpt>
      <trkpt lat="68.74639" lon="17.30082">
        <ele>15.917804</ele>
        <time>2020-08-27T23:32:37.848Z</time>
      </trkpt>
      <trkpt lat="68.74633" lon="17.30099">
        <ele>15.629484</ele>
        <time>2020-08-27T23:32:38.932Z</time>
      </trkpt>
      <trkpt lat="68.74611" lon="17.30182">
        <ele>14.444945</ele>
        <time>2020-08-27T23:32:43.615Z</time>
      </trkpt>
      <trkpt lat="68.74553" lon="17.30486">
        <ele>10.972102</ele>
        <time>2020-08-27T23:32:59.789Z</time>
      </trkpt>
      <trkpt lat="68.74542" lon="17.30569">
        <ele>11.000938</ele>
        <time>2020-08-27T23:33:04.685Z</time>
      </trkpt>
      <trkpt lat="68.74535" lon="17.30688">
        <ele>11.040282</ele>
        <time>2020-08-27T23:33:11.840Z</time>
      </trkpt>
      <trkpt lat="68.74528" lon="17.31053">
        <ele>13.055262</ele>
        <time>2020-08-27T23:33:42.752Z</time>
      </trkpt>
      <trkpt lat="68.74514" lon="17.3121">
        <ele>15.657352</ele>
        <time>2020-08-27T23:34:00.831Z</time>
      </trkpt>
      <trkpt lat="68.74491" lon="17.31359">
        <ele>18.251919</ele>
        <time>2020-08-27T23:34:21.718Z</time>
      </trkpt>
      <trkpt lat="68.74483" lon="17.31611">
        <ele>24.895727</ele>
        <time>2020-08-27T23:35:00.722Z</time>
      </trkpt>
      <trkpt lat="68.74469" lon="17.31718">
        <ele>28.189728</ele>
        <time>2020-08-27T23:35:19.699Z</time>
      </trkpt>
      <trkpt lat="68.74394" lon="17.31957">
        <ele>36.148108</ele>
        <time>2020-08-27T23:36:10.702Z</time>
      </trkpt>
      <trkpt lat="68.74358" lon="17.32037">
        <ele>38.771208</ele>
        <time>2020-08-27T23:36:29.660Z</time>
      </trkpt>
      <trkpt lat="68.74247" lon="17.32182">
        <ele>43.859583</ele>
        <time>2020-08-27T23:37:05.244Z</time>
      </trkpt>
      <trkpt lat="68.7422" lon="17.32199">
        <ele>44.075761</ele>
        <time>2020-08-27T23:37:10.305Z</time>
      </trkpt>
      <trkpt lat="68.74165" lon="17.32206">
        <ele>44.505403</ele>
        <time>2020-08-27T23:37:20.512Z</time>
      </trkpt>
      <trkpt lat="68.74156" lon="17.32213">
        <ele>44.582263</ele>
        <time>2020-08-27T23:37:21.852Z</time>
      </trkpt>
      <trkpt lat="68.74153" lon="17.32215">
        <ele>44.600494</ele>
        <time>2020-08-27T23:37:22.173Z</time>
      </trkpt>
      <trkpt lat="68.74126" lon="17.32254">
        <ele>44.839476</ele>
        <time>2020-08-27T23:37:27.775Z</time>
      </trkpt>
      <trkpt lat="68.7411" lon="17.32307">
        <ele>44.971864</ele>
        <time>2020-08-27T23:37:32.379Z</time>
      </trkpt>
      <trkpt lat="68.74102" lon="17.32361">
        <ele>44.979593</ele>
        <time>2020-08-27T23:37:35.569Z</time>
      </trkpt>
      <trkpt lat="68.74096" lon="17.3245">
        <ele>44.991424</ele>
        <time>2020-08-27T23:37:40.911Z</time>
      </trkpt>
      <trkpt lat="68.74094" lon="17.32514">
        <ele>44.999719</ele>
        <time>2020-08-27T23:37:45.489Z</time>
      </trkpt>
      <trkpt lat="68.74094" lon="17.32578">
        <ele>45.008062</ele>
        <time>2020-08-27T23:37:49.452Z</time>
      </trkpt>
      <trkpt lat="68.74104" lon="17.33051">
        <ele>43.987983</ele>
        <time>2020-08-27T23:38:22.906Z</time>
      </trkpt>
      <trkpt lat="68.74092" lon="17.3314">
        <ele>43.633431</ele>
        <time>2020-08-27T23:38:27.664Z</time>
      </trkpt>
      <trkpt lat="68.74064" lon="17.33252">
        <ele>42.921101</ele>
        <time>2020-08-27T23:38:34.137Z</time>
      </trkpt>
      <trkpt lat="68.74052" lon="17.33305">
        <ele>41.806052</ele>
        <time>2020-08-27T23:38:37.142Z</time>
      </trkpt>
      <trkpt lat="68.74049" lon="17.33318">
        <ele>41.534311</ele>
        <time>2020-08-27T23:38:37.861Z</time>
      </trkpt>
      <trkpt lat="68.74048" lon="17.33324">
        <ele>41.42389</ele>
        <time>2020-08-27T23:38:38.093Z</time>
      </trkpt>
      <trkpt lat="68.74035" lon="17.33403">
        <ele>39.872708</ele>
        <time>2020-08-27T23:38:42.159Z</time>
      </trkpt>
      <trkpt lat="68.74027" lon="17.3349">
        <ele>38.274376</ele>
        <time>2020-08-27T23:38:46.069Z</time>
      </trkpt>
      <trkpt lat="68.74028" lon="17.33653">
        <ele>35.37328</ele>
        <time>2020-08-27T23:38:52.957Z</time>
      </trkpt>
      <trkpt lat="68.7403" lon="17.33849">
        <ele>31.880344</ele>
        <time>2020-08-27T23:39:01.443Z</time>
      </trkpt>
      <trkpt lat="68.74032" lon="17.33966">
        <ele>29.788331</ele>
        <time>2020-08-27T23:39:06.630Z</time>
      </trkpt>
      <trkpt lat="68.74033" lon="17.34297">
        <ele>24.206052</ele>
        <time>2020-08-27T23:39:21.444Z</time>
      </trkpt>
      <trkpt lat="68.74022" lon="17.34459">
        <ele>21.849439</ele>
        <time>2020-08-27T23:39:29.162Z</time>
      </trkpt>
      <trkpt lat="68.73963" lon="17.35084">
        <ele>12.706273</ele>
        <time>2020-08-27T23:39:58.821Z</time>
      </trkpt>
      <trkpt lat="68.73956" lon="17.35157">
        <ele>11.631358</ele>
        <time>2020-08-27T23:40:02.237Z</time>
      </trkpt>
      <trkpt lat="68.73948" lon="17.3532">
        <ele>10.329247</ele>
        <time>2020-08-27T23:40:09.911Z</time>
      </trkpt>
      <trkpt lat="68.7396" lon="17.35433">
        <ele>9.46865</ele>
        <time>2020-08-27T23:40:15.572Z</time>
      </trkpt>
      <trkpt lat="68.73975" lon="17.35486">
        <ele>8.977444</ele>
        <time>2020-08-27T23:40:19.032Z</time>
      </trkpt>
      <trkpt lat="68.7407" lon="17.3568">
        <ele>7.989548</ele>
        <time>2020-08-27T23:40:40.816Z</time>
      </trkpt>
      <trkpt lat="68.74085" lon="17.3573">
        <ele>8.067463</ele>
        <time>2020-08-27T23:40:45.815Z</time>
      </trkpt>
      <trkpt lat="68.74094" lon="17.35789">
        <ele>8.146278</ele>
        <time>2020-08-27T23:40:50.964Z</time>
      </trkpt>
      <trkpt lat="68.74098" lon="17.35881">
        <ele>8.259309</ele>
        <time>2020-08-27T23:40:58.109Z</time>
      </trkpt>
      <trkpt lat="68.74112" lon="17.36683">
        <ele>6.356692</ele>
        <time>2020-08-27T23:41:45.105Z</time>
      </trkpt>
      <trkpt lat="68.74117" lon="17.36771">
        <ele>5.939004</ele>
        <time>2020-08-27T23:41:49.655Z</time>
      </trkpt>
      <trkpt lat="68.74132" lon="17.36872">
        <ele>5.42988</ele>
        <time>2020-08-27T23:41:55.272Z</time>
      </trkpt>
      <trkpt lat="68.74146" lon="17.36931">
        <ele>5.097714</ele>
        <time>2020-08-27T23:41:58.920Z</time>
      </trkpt>
      <trkpt lat="68.74169" lon="17.36988">
        <ele>4.95929</ele>
        <time>2020-08-27T23:42:03.468Z</time>
      </trkpt>
      <trkpt lat="68.74281" lon="17.37155">
        <ele>4.989471</ele>
        <time>2020-08-27T23:42:25.309Z</time>
      </trkpt>
      <trkpt lat="68.74402" lon="17.37415">
        <ele>7.155613</ele>
        <time>2020-08-27T23:43:03.003Z</time>
      </trkpt>
      <trkpt lat="68.74415" lon="17.37467">
        <ele>7.558102</ele>
        <time>2020-08-27T23:43:08.486Z</time>
      </trkpt>
      <trkpt lat="68.74442" lon="17.37649">
        <ele>8.573014</ele>
        <time>2020-08-27T23:43:24.619Z</time>
      </trkpt>
      <trkpt lat="68.74508" lon="17.37911">
        <ele>9.765353</ele>
        <time>2020-08-27T23:43:48.734Z</time>
      </trkpt>
      <trkpt lat="68.74569" lon="17.38289">
        <ele>10.875032</ele>
        <time>2020-08-27T23:44:18.712Z</time>
      </trkpt>
      <trkpt lat="68.74591" lon="17.3849">
        <ele>11.316173</ele>
        <time>2020-08-27T23:44:34.171Z</time>
      </trkpt>
      <trkpt lat="68.74593" lon="17.38697">
        <ele>11.507403</ele>
        <time>2020-08-27T23:44:48.078Z</time>
      </trkpt>
      <trkpt lat="68.74614" lon="17.3905">
        <ele>12.129516</ele>
        <time>2020-08-27T23:45:11.563Z</time>
      </trkpt>
      <trkpt lat="68.74648" lon="17.39373">
        <ele>13.289503</ele>
        <time>2020-08-27T23:45:37.272Z</time>
      </trkpt>
      <trkpt lat="68.74661" lon="17.39556">
        <ele>14.288495</ele>
        <time>2020-08-27T23:45:53.677Z</time>
      </trkpt>
      <trkpt lat="68.74675" lon="17.39932">
        <ele>16.385448</ele>
        <time>2020-08-27T23:46:26.777Z</time>
      </trkpt>
      <trkpt lat="68.74663" lon="17.40255">
        <ele>16.097976</ele>
        <time>2020-08-27T23:46:46.516Z</time>
      </trkpt>
      <trkpt lat="68.74661" lon="17.40288">
        <ele>16.067835</ele>
        <time>2020-08-27T23:46:48.376Z</time>
      </trkpt>
      <trkpt lat="68.74652" lon="17.40392">
        <ele>15.973386</ele>
        <time>2020-08-27T23:46:54.273Z</time>
      </trkpt>
      <trkpt lat="68.74641" lon="17.40505">
        <ele>15.817777</ele>
        <time>2020-08-27T23:47:00.812Z</time>
      </trkpt>
      <trkpt lat="68.74639" lon="17.40526">
        <ele>15.788111</ele>
        <time>2020-08-27T23:47:02.072Z</time>
      </trkpt>
      <trkpt lat="68.74619" lon="17.40733">
        <ele>15.49636</ele>
        <time>2020-08-27T23:47:14.290Z</time>
      </trkpt>
      <trkpt lat="68.74604" lon="17.40893">
        <ele>15.423724</ele>
        <time>2020-08-27T23:47:25.613Z</time>
      </trkpt>
      <trkpt lat="68.746" lon="17.40953">
        <ele>15.965729</ele>
        <time>2020-08-27T23:47:30.629Z</time>
      </trkpt>
      <trkpt lat="68.74596" lon="17.41034">
        <ele>16.702222</ele>
        <time>2020-08-27T23:47:37.601Z</time>
      </trkpt>
      <trkpt lat="68.74589" lon="17.41227">
        <ele>18.4412</ele>
        <time>2020-08-27T23:47:55.898Z</time>
      </trkpt>
      <trkpt lat="68.74587" lon="17.4131">
        <ele>19.185239</ele>
        <time>2020-08-27T23:48:04.631Z</time>
      </trkpt>
      <trkpt lat="68.74582" lon="17.41443">
        <ele>20.995203</ele>
        <time>2020-08-27T23:48:19.561Z</time>
      </trkpt>
      <trkpt lat="68.74578" lon="17.41585">
        <ele>23.487802</ele>
        <time>2020-08-27T23:48:36.386Z</time>
      </trkpt>
      <trkpt lat="68.74573" lon="17.41737">
        <ele>26.159542</ele>
        <time>2020-08-27T23:48:54.765Z</time>
      </trkpt>
      <trkpt lat="68.7457" lon="17.41845">
        <ele>28.058931</ele>
        <time>2020-08-27T23:49:08.570Z</time>
      </trkpt>
      <trkpt lat="68.74558" lon="17.42142">
        <ele>34.708875</ele>
        <time>2020-08-27T23:49:49.305Z</time>
      </trkpt>
      <trkpt lat="68.74551" lon="17.42226">
        <ele>36.64023</ele>
        <time>2020-08-27T23:50:00.713Z</time>
      </trkpt>
      <trkpt lat="68.74548" lon="17.42262">
        <ele>37.474683</ele>
        <time>2020-08-27T23:50:05.780Z</time>
      </trkpt>
      <trkpt lat="68.74452" lon="17.43072">
        <ele>58.369549</ele>
        <time>2020-08-27T23:52:10.918Z</time>
      </trkpt>
      <trkpt lat="68.74443" lon="17.43123">
        <ele>59.712354</ele>
        <time>2020-08-27T23:52:19.978Z</time>
      </trkpt>
      <trkpt lat="68.74434" lon="17.43162">
        <ele>60.820115</ele>
        <time>2020-08-27T23:52:26.827Z</time>
      </trkpt>
      <trkpt lat="68.74331" lon="17.43548">
        <ele>67.080794</ele>
        <time>2020-08-27T23:53:24.113Z</time>
      </trkpt>
      <trkpt lat="68.74265" lon="17.43718">
        <ele>67.19671</ele>
        <time>2020-08-27T23:53:36.735Z</time>
      </trkpt>
      <trkpt lat="68.74259" lon="17.43735">
        <ele>66.920163</ele>
        <time>2020-08-27T23:53:37.769Z</time>
      </trkpt>
      <trkpt lat="68.74252" lon="17.43763">
        <ele>66.49784</ele>
        <time>2020-08-27T23:53:39.272Z</time>
      </trkpt>
      <trkpt lat="68.74245" lon="17.43797">
        <ele>65.998687</ele>
        <time>2020-08-27T23:53:41.432Z</time>
      </trkpt>
      <trkpt lat="68.74208" lon="17.43992">
        <ele>63.274826</ele>
        <time>2020-08-27T23:53:51.676Z</time>
      </trkpt>
      <trkpt lat="68.74198" lon="17.44046">
        <ele>62.528984</ele>
        <time>2020-08-27T23:53:54.396Z</time>
      </trkpt>
      <trkpt lat="68.74174" lon="17.44144">
        <ele>60.471081</ele>
        <time>2020-08-27T23:53:59.431Z</time>
      </trkpt>
      <trkpt lat="68.74163" lon="17.44175">
        <ele>59.670927</ele>
        <time>2020-08-27T23:54:01.369Z</time>
      </trkpt>
      <trkpt lat="68.74151" lon="17.44208">
        <ele>58.841816</ele>
        <time>2020-08-27T23:54:03.311Z</time>
      </trkpt>
      <trkpt lat="68.74105" lon="17.44355">
        <ele>55.289204</ele>
        <time>2020-08-27T23:54:11.996Z</time>
      </trkpt>
      <trkpt lat="68.74095" lon="17.44386">
        <ele>54.51756</ele>
        <time>2020-08-27T23:54:14.024Z</time>
      </trkpt>
      <trkpt lat="68.74085" lon="17.44411">
        <ele>53.839373</ele>
        <time>2020-08-27T23:54:15.543Z</time>
      </trkpt>
      <trkpt lat="68.74017" lon="17.44566">
        <ele>49.076117</ele>
        <time>2020-08-27T23:54:26.054Z</time>
      </trkpt>
      <trkpt lat="68.73945" lon="17.44845">
        <ele>42.670982</ele>
        <time>2020-08-27T23:54:40.819Z</time>
      </trkpt>
      <trkpt lat="68.73859" lon="17.45075">
        <ele>38.234863</ele>
        <time>2020-08-27T23:54:56.208Z</time>
      </trkpt>
      <trkpt lat="68.7379" lon="17.4531">
        <ele>35.506392</ele>
        <time>2020-08-27T23:55:11.110Z</time>
      </trkpt>
      <trkpt lat="68.73778" lon="17.45415">
        <ele>34.788784</ele>
        <time>2020-08-27T23:55:16.881Z</time>
      </trkpt>
      <trkpt lat="68.73768" lon="17.455">
        <ele>34.206927</ele>
        <time>2020-08-27T23:55:21.754Z</time>
      </trkpt>
      <trkpt lat="68.73752" lon="17.45633">
        <ele>33.436146</ele>
        <time>2020-08-27T23:55:29.666Z</time>
      </trkpt>
      <trkpt lat="68.73743" lon="17.45694">
        <ele>33.276294</ele>
        <time>2020-08-27T23:55:33.941Z</time>
      </trkpt>
      <trkpt lat="68.73698" lon="17.45899">
        <ele>32.689757</ele>
        <time>2020-08-27T23:55:47.221Z</time>
      </trkpt>
      <trkpt lat="68.73687" lon="17.45937">
        <ele>32.570819</ele>
        <time>2020-08-27T23:55:50.786Z</time>
      </trkpt>
      <trkpt lat="68.73675" lon="17.45975">
        <ele>32.445995</ele>
        <time>2020-08-27T23:55:53.718Z</time>
      </trkpt>
      <trkpt lat="68.7361" lon="17.46115">
        <ele>31.023386</ele>
        <time>2020-08-27T23:56:08.740Z</time>
      </trkpt>
      <trkpt lat="68.73604" lon="17.46131">
        <ele>30.855606</ele>
        <time>2020-08-27T23:56:09.768Z</time>
      </trkpt>
      <trkpt lat="68.73578" lon="17.46213">
        <ele>30.039064</ele>
        <time>2020-08-27T23:56:15.320Z</time>
      </trkpt>
      <trkpt lat="68.73562" lon="17.46258">
        <ele>29.578964</ele>
        <time>2020-08-27T23:56:18.520Z</time>
      </trkpt>
      <trkpt lat="68.73527" lon="17.46333">
        <ele>28.670089</ele>
        <time>2020-08-27T23:56:24.102Z</time>
      </trkpt>
      <trkpt lat="68.73503" lon="17.46375">
        <ele>27.119999</ele>
        <time>2020-08-27T23:56:27.782Z</time>
      </trkpt>
      <trkpt lat="68.7349" lon="17.46396">
        <ele>26.26309</ele>
        <time>2020-08-27T23:56:29.489Z</time>
      </trkpt>
      <trkpt lat="68.73446" lon="17.46456">
        <ele>23.497173</ele>
        <time>2020-08-27T23:56:35.570Z</time>
      </trkpt>
      <trkpt lat="68.73411" lon="17.46489">
        <ele>21.40302</ele>
        <time>2020-08-27T23:56:39.901Z</time>
      </trkpt>
      <trkpt lat="68.73404" lon="17.46493">
        <ele>20.987473</ele>
        <time>2020-08-27T23:56:40.723Z</time>
      </trkpt>
      <trkpt lat="68.73389" lon="17.46498">
        <ele>20.129969</ele>
        <time>2020-08-27T23:56:42.380Z</time>
      </trkpt>
      <trkpt lat="68.73257" lon="17.46481">
        <ele>13.203561</ele>
        <time>2020-08-27T23:56:57.592Z</time>
      </trkpt>
      <trkpt lat="68.73238" lon="17.46482">
        <ele>12.210429</ele>
        <time>2020-08-27T23:56:59.843Z</time>
      </trkpt>
      <trkpt lat="68.73224" lon="17.46485">
        <ele>11.477448</ele>
        <time>2020-08-27T23:57:01.753Z</time>
      </trkpt>
      <trkpt lat="68.73206" lon="17.4649">
        <ele>10.524676</ele>
        <time>2020-08-27T23:57:04.274Z</time>
      </trkpt>
      <trkpt lat="68.73174" lon="17.46511">
        <ele>9.259061</ele>
        <time>2020-08-27T23:57:08.933Z</time>
      </trkpt>
      <trkpt lat="68.73163" lon="17.46522">
        <ele>9.434652</ele>
        <time>2020-08-27T23:57:10.516Z</time>
      </trkpt>
      <trkpt lat="68.73152" lon="17.46533">
        <ele>9.616256</ele>
        <time>2020-08-27T23:57:12.421Z</time>
      </trkpt>
      <trkpt lat="68.73092" lon="17.466">
        <ele>10.584279</ele>
        <time>2020-08-27T23:57:22.881Z</time>
      </trkpt>
      <trkpt lat="68.73086" lon="17.46608">
        <ele>10.695091</ele>
        <time>2020-08-27T23:57:24.327Z</time>
      </trkpt>
      <trkpt lat="68.73083" lon="17.46611">
        <ele>10.742352</ele>
        <time>2020-08-27T23:57:25.782Z</time>
      </trkpt>
      <trkpt lat="68.73053" lon="17.46652">
        <ele>11.247122</ele>
        <time>2020-08-27T23:57:34.035Z</time>
      </trkpt>
      <trkpt lat="68.73036" lon="17.46699">
        <ele>11.612567</ele>
        <time>2020-08-27T23:57:42.989Z</time>
      </trkpt>
      <trkpt lat="68.73006" lon="17.46917">
        <ele>18.018466</ele>
        <time>2020-08-27T23:58:14.566Z</time>
      </trkpt>
      <trkpt lat="68.73001" lon="17.46944">
        <ele>19.047046</ele>
        <time>2020-08-27T23:58:20.102Z</time>
      </trkpt>
      <trkpt lat="68.72997" lon="17.46964">
        <ele>19.847189</ele>
        <time>2020-08-27T23:58:24.367Z</time>
      </trkpt>
      <trkpt lat="68.72986" lon="17.47004">
        <ele>21.544008</ele>
        <time>2020-08-27T23:58:33.818Z</time>
      </trkpt>
      <trkpt lat="68.72983" lon="17.47012">
        <ele>21.931594</ele>
        <time>2020-08-27T23:58:35.927Z</time>
      </trkpt>
      <trkpt lat="68.72977" lon="17.47028">
        <ele>22.698941</ele>
        <time>2020-08-27T23:58:39.651Z</time>
      </trkpt>
      <trkpt lat="68.72969" lon="17.47046">
        <ele>23.625744</ele>
        <time>2020-08-27T23:58:45.494Z</time>
      </trkpt>
      <trkpt lat="68.72903" lon="17.47152">
        <ele>31.744012</ele>
        <time>2020-08-27T23:59:28.321Z</time>
      </trkpt>
      <trkpt lat="68.72877" lon="17.47197">
        <ele>36.057102</ele>
        <time>2020-08-27T23:59:48.182Z</time>
      </trkpt>
      <trkpt lat="68.72864" lon="17.47215">
        <ele>37.981617</ele>
        <time>2020-08-27T23:59:57.085Z</time>
      </trkpt>
      <trkpt lat="68.7284" lon="17.47239">
        <ele>41.542799</ele>
        <time>2020-08-28T00:00:13.473Z</time>
      </trkpt>
      <trkpt lat="68.72781" lon="17.47249">
        <ele>49.758138</ele>
        <time>2020-08-28T00:00:51.629Z</time>
      </trkpt>
      <trkpt lat="68.72757" lon="17.47265">
        <ele>53.096881</ele>
        <time>2020-08-28T00:01:08.555Z</time>
      </trkpt>
      <trkpt lat="68.72575" lon="17.47481">
        <ele>76.958615</ele>
        <time>2020-08-28T00:03:06.241Z</time>
      </trkpt>
      <trkpt lat="68.72525" lon="17.47517">
        <ele>79.267016</ele>
        <time>2020-08-28T00:03:26.847Z</time>
      </trkpt>
      <trkpt lat="68.72488" lon="17.475">
        <ele>80.977002</ele>
        <time>2020-08-28T00:03:38.679Z</time>
      </trkpt>
      <trkpt lat="68.72425" lon="17.47394">
        <ele>84.259752</ele>
        <time>2020-08-28T00:03:53.804Z</time>
      </trkpt>
      <trkpt lat="68.72407" lon="17.47377">
        <ele>83.851787</ele>
        <time>2020-08-28T00:03:56.960Z</time>
      </trkpt>
      <trkpt lat="68.72397" lon="17.47373">
        <ele>83.629269</ele>
        <time>2020-08-28T00:03:58.090Z</time>
      </trkpt>
      <trkpt lat="68.72396" lon="17.47372">
        <ele>83.598827</ele>
        <time>2020-08-28T00:03:58.552Z</time>
      </trkpt>
      <trkpt lat="68.72301" lon="17.4731">
        <ele>81.335691</ele>
        <time>2020-08-28T00:04:11.615Z</time>
      </trkpt>
      <trkpt lat="68.72241" lon="17.47346">
        <ele>79.993033</ele>
        <time>2020-08-28T00:04:19.573Z</time>
      </trkpt>
      <trkpt lat="68.72182" lon="17.47318">
        <ele>79.215201</ele>
        <time>2020-08-28T00:04:28.011Z</time>
      </trkpt>
      <trkpt lat="68.72139" lon="17.47334">
        <ele>78.646276</ele>
        <time>2020-08-28T00:04:34.626Z</time>
      </trkpt>
      <trkpt lat="68.72077" lon="17.4733">
        <ele>77.831056</ele>
        <time>2020-08-28T00:04:44.870Z</time>
      </trkpt>
      <trkpt lat="68.71984" lon="17.47413">
        <ele>78.376821</ele>
        <time>2020-08-28T00:05:03.132Z</time>
      </trkpt>
      <trkpt lat="68.71949" lon="17.47385">
        <ele>78.625091</ele>
        <time>2020-08-28T00:05:10.786Z</time>
      </trkpt>
      <trkpt lat="68.71939" lon="17.47365">
        <ele>78.709185</ele>
        <time>2020-08-28T00:05:13.363Z</time>
      </trkpt>
      <trkpt lat="68.7191" lon="17.47294">
        <ele>78.970606</ele>
        <time>2020-08-28T00:05:22.033Z</time>
      </trkpt>
      <trkpt lat="68.71889" lon="17.47256">
        <ele>79.217795</ele>
        <time>2020-08-28T00:05:27.860Z</time>
      </trkpt>
      <trkpt lat="68.71859" lon="17.47246">
        <ele>79.523187</ele>
        <time>2020-08-28T00:05:35.072Z</time>
      </trkpt>
      <trkpt lat="68.71834" lon="17.47261">
        <ele>79.784841</ele>
        <time>2020-08-28T00:05:41.262Z</time>
      </trkpt>
      <trkpt lat="68.71782" lon="17.47325">
        <ele>80.354564</ele>
        <time>2020-08-28T00:05:53.361Z</time>
      </trkpt>
      <trkpt lat="68.71745" lon="17.47355">
        <ele>80.734838</ele>
        <time>2020-08-28T00:06:00.230Z</time>
      </trkpt>
      <trkpt lat="68.71676" lon="17.47393">
        <ele>80.283617</ele>
        <time>2020-08-28T00:06:12.052Z</time>
      </trkpt>
      <trkpt lat="68.71664" lon="17.47401">
        <ele>80.190957</ele>
        <time>2020-08-28T00:06:13.916Z</time>
      </trkpt>
      <trkpt lat="68.71633" lon="17.47427">
        <ele>79.950067</ele>
        <time>2020-08-28T00:06:19.052Z</time>
      </trkpt>
      <trkpt lat="68.71594" lon="17.4747">
        <ele>79.636599</ele>
        <time>2020-08-28T00:06:25.584Z</time>
      </trkpt>
      <trkpt lat="68.71588" lon="17.47483">
        <ele>79.578495</ele>
        <time>2020-08-28T00:06:26.527Z</time>
      </trkpt>
      <trkpt lat="68.71583" lon="17.47497">
        <ele>79.525147</ele>
        <time>2020-08-28T00:06:28.708Z</time>
      </trkpt>
      <trkpt lat="68.71549" lon="17.47627">
        <ele>78.945173</ele>
        <time>2020-08-28T00:06:37.136Z</time>
      </trkpt>
      <trkpt lat="68.71531" lon="17.4765">
        <ele>78.735627</ele>
        <time>2020-08-28T00:06:40.152Z</time>
      </trkpt>
      <trkpt lat="68.71517" lon="17.47642">
        <ele>78.580742</ele>
        <time>2020-08-28T00:06:42.366Z</time>
      </trkpt>
      <trkpt lat="68.71504" lon="17.47617">
        <ele>78.414285</ele>
        <time>2020-08-28T00:06:44.969Z</time>
      </trkpt>
      <trkpt lat="68.71475" lon="17.47433">
        <ele>77.644439</ele>
        <time>2020-08-28T00:06:56.625Z</time>
      </trkpt>
      <trkpt lat="68.71458" lon="17.47389">
        <ele>77.20497</ele>
        <time>2020-08-28T00:07:00.292Z</time>
      </trkpt>
      <trkpt lat="68.71439" lon="17.47373">
        <ele>76.741248</ele>
        <time>2020-08-28T00:07:03.143Z</time>
      </trkpt>
      <trkpt lat="68.71389" lon="17.47388">
        <ele>75.505851</ele>
        <time>2020-08-28T00:07:10.449Z</time>
      </trkpt>
      <trkpt lat="68.71249" lon="17.47467">
        <ele>70.903902</ele>
        <time>2020-08-28T00:07:29.122Z</time>
      </trkpt>
      <trkpt lat="68.71164" lon="17.47528">
        <ele>66.666166</ele>
        <time>2020-08-28T00:07:39.848Z</time>
      </trkpt>
      <trkpt lat="68.71087" lon="17.47642">
        <ele>61.786483</ele>
        <time>2020-08-28T00:07:50.032Z</time>
      </trkpt>
      <trkpt lat="68.70919" lon="17.47989">
        <ele>50.066668</ele>
        <time>2020-08-28T00:08:14.451Z</time>
      </trkpt>
      <trkpt lat="68.70893" lon="17.48078">
        <ele>48.494343</ele>
        <time>2020-08-28T00:08:19.680Z</time>
      </trkpt>
      <trkpt lat="68.70861" lon="17.48259">
        <ele>46.077641</ele>
        <time>2020-08-28T00:08:30.363Z</time>
      </trkpt>
      <trkpt lat="68.70838" lon="17.48322">
        <ele>46.708257</ele>
        <time>2020-08-28T00:08:36.483Z</time>
      </trkpt>
      <trkpt lat="68.70814" lon="17.48355">
        <ele>47.237223</ele>
        <time>2020-08-28T00:08:42.703Z</time>
      </trkpt>
      <trkpt lat="68.70668" lon="17.48499">
        <ele>50.798677</ele>
        <time>2020-08-28T00:09:25.977Z</time>
      </trkpt>
      <trkpt lat="68.70632" lon="17.4851">
        <ele>51.963389</ele>
        <time>2020-08-28T00:09:36.915Z</time>
      </trkpt>
      <trkpt lat="68.70598" lon="17.48482">
        <ele>53.105836</ele>
        <time>2020-08-28T00:09:47.253Z</time>
      </trkpt>
      <trkpt lat="68.70572" lon="17.48444">
        <ele>54.067008</ele>
        <time>2020-08-28T00:09:55.431Z</time>
      </trkpt>
      <trkpt lat="68.70571" lon="17.48442">
        <ele>54.111488</ele>
        <time>2020-08-28T00:09:56.098Z</time>
      </trkpt>
      <trkpt lat="68.70554" lon="17.48417">
        <ele>54.726239</ele>
        <time>2020-08-28T00:10:01.209Z</time>
      </trkpt>
      <trkpt lat="68.70496" lon="17.4833">
        <ele>55.62011</ele>
        <time>2020-08-28T00:10:18.542Z</time>
      </trkpt>
      <trkpt lat="68.7044" lon="17.48267">
        <ele>56.044473</ele>
        <time>2020-08-28T00:10:32.817Z</time>
      </trkpt>
      <trkpt lat="68.70419" lon="17.48265">
        <ele>56.189105</ele>
        <time>2020-08-28T00:10:36.526Z</time>
      </trkpt>
      <trkpt lat="68.70392" lon="17.48281">
        <ele>56.384754</ele>
        <time>2020-08-28T00:10:40.666Z</time>
      </trkpt>
      <trkpt lat="68.70378" lon="17.48292">
        <ele>56.484526</ele>
        <time>2020-08-28T00:10:42.614Z</time>
      </trkpt>
      <trkpt lat="68.70357" lon="17.48309">
        <ele>55.949336</ele>
        <time>2020-08-28T00:10:45.683Z</time>
      </trkpt>
      <trkpt lat="68.70339" lon="17.48322">
        <ele>55.135543</ele>
        <time>2020-08-28T00:10:48.191Z</time>
      </trkpt>
      <trkpt lat="68.70318" lon="17.48334">
        <ele>54.241885</ele>
        <time>2020-08-28T00:10:51.090Z</time>
      </trkpt>
      <trkpt lat="68.70308" lon="17.48336">
        <ele>53.79937</ele>
        <time>2020-08-28T00:10:52.342Z</time>
      </trkpt>
      <trkpt lat="68.70281" lon="17.4833">
        <ele>52.664545</ele>
        <time>2020-08-28T00:10:55.824Z</time>
      </trkpt>
      <trkpt lat="68.70141" lon="17.48243">
        <ele>45.611468</ele>
        <time>2020-08-28T00:11:12.900Z</time>
      </trkpt>
      <trkpt lat="68.70116" lon="17.48243">
        <ele>44.130761</ele>
        <time>2020-08-28T00:11:15.890Z</time>
      </trkpt>
      <trkpt lat="68.70089" lon="17.48284">
        <ele>42.301317</ele>
        <time>2020-08-28T00:11:19.486Z</time>
      </trkpt>
      <trkpt lat="68.70043" lon="17.48412">
        <ele>38.419923</ele>
        <time>2020-08-28T00:11:27.139Z</time>
      </trkpt>
      <trkpt lat="68.70016" lon="17.48553">
        <ele>35.500358</ele>
        <time>2020-08-28T00:11:33.915Z</time>
      </trkpt>
      <trkpt lat="68.70009" lon="17.48594">
        <ele>34.667398</ele>
        <time>2020-08-28T00:11:35.950Z</time>
      </trkpt>
      <trkpt lat="68.70005" lon="17.48609">
        <ele>34.339198</ele>
        <time>2020-08-28T00:11:36.659Z</time>
      </trkpt>
      <trkpt lat="68.69984" lon="17.48665">
        <ele>32.88279</ele>
        <time>2020-08-28T00:11:40.306Z</time>
      </trkpt>
      <trkpt lat="68.69947" lon="17.48732">
        <ele>30.660228</ele>
        <time>2020-08-28T00:11:45.596Z</time>
      </trkpt>
      <trkpt lat="68.69932" lon="17.48778">
        <ele>29.532937</ele>
        <time>2020-08-28T00:11:48.631Z</time>
      </trkpt>
      <trkpt lat="68.6991" lon="17.48987">
        <ele>29.063542</ele>
        <time>2020-08-28T00:11:59.421Z</time>
      </trkpt>
      <trkpt lat="68.69904" lon="17.49085">
        <ele>28.982726</ele>
        <time>2020-08-28T00:12:06.881Z</time>
      </trkpt>
      <trkpt lat="68.699" lon="17.49125">
        <ele>28.948573</ele>
        <time>2020-08-28T00:12:10.585Z</time>
      </trkpt>
      <trkpt lat="68.69894" lon="17.49161">
        <ele>28.916719</ele>
        <time>2020-08-28T00:12:13.501Z</time>
      </trkpt>
      <trkpt lat="68.69874" lon="17.49252">
        <ele>28.829093</ele>
        <time>2020-08-28T00:12:22.749Z</time>
      </trkpt>
      <trkpt lat="68.69833" lon="17.4943">
        <ele>30.630999</ele>
        <time>2020-08-28T00:12:43.166Z</time>
      </trkpt>
      <trkpt lat="68.6981" lon="17.49529">
        <ele>31.680225</ele>
        <time>2020-08-28T00:12:55.866Z</time>
      </trkpt>
      <trkpt lat="68.69767" lon="17.49724">
        <ele>33.244244</ele>
        <time>2020-08-28T00:13:16.245Z</time>
      </trkpt>
      <trkpt lat="68.69757" lon="17.49868">
        <ele>33.267142</ele>
        <time>2020-08-28T00:13:25.679Z</time>
      </trkpt>
      <trkpt lat="68.69755" lon="17.4989">
        <ele>33.270679</ele>
        <time>2020-08-28T00:13:27.766Z</time>
      </trkpt>
      <trkpt lat="68.69752" lon="17.49905">
        <ele>33.273273</ele>
        <time>2020-08-28T00:13:28.739Z</time>
      </trkpt>
      <trkpt lat="68.69748" lon="17.49926">
        <ele>33.276954</ele>
        <time>2020-08-28T00:13:30.134Z</time>
      </trkpt>
      <trkpt lat="68.69744" lon="17.49943">
        <ele>33.280179</ele>
        <time>2020-08-28T00:13:31.153Z</time>
      </trkpt>
      <trkpt lat="68.6964" lon="17.50311">
        <ele>32.62861</ele>
        <time>2020-08-28T00:13:58.347Z</time>
      </trkpt>
      <trkpt lat="68.69615" lon="17.50433">
        <ele>32.252723</ele>
        <time>2020-08-28T00:14:06.733Z</time>
      </trkpt>
      <trkpt lat="68.6961" lon="17.50521">
        <ele>32.014119</ele>
        <time>2020-08-28T00:14:12.616Z</time>
      </trkpt>
      <trkpt lat="68.6961" lon="17.50551">
        <ele>31.842023</ele>
        <time>2020-08-28T00:14:14.098Z</time>
      </trkpt>
      <trkpt lat="68.6961" lon="17.50596">
        <ele>31.506958</ele>
        <time>2020-08-28T00:14:16.900Z</time>
      </trkpt>
      <trkpt lat="68.69601" lon="17.50686">
        <ele>30.811948</ele>
        <time>2020-08-28T00:14:21.585Z</time>
      </trkpt>
      <trkpt lat="68.69588" lon="17.50751">
        <ele>30.265049</ele>
        <time>2020-08-28T00:14:25.191Z</time>
      </trkpt>
      <trkpt lat="68.69547" lon="17.50862">
        <ele>29.071377</ele>
        <time>2020-08-28T00:14:33.414Z</time>
      </trkpt>
      <trkpt lat="68.69533" lon="17.509">
        <ele>28.681013</ele>
        <time>2020-08-28T00:14:36.030Z</time>
      </trkpt>
      <trkpt lat="68.69499" lon="17.50991">
        <ele>27.412702</ele>
        <time>2020-08-28T00:14:42.372Z</time>
      </trkpt>
      <trkpt lat="68.69475" lon="17.51062">
        <ele>26.352086</ele>
        <time>2020-08-28T00:14:46.874Z</time>
      </trkpt>
      <trkpt lat="68.69461" lon="17.51135">
        <ele>25.425406</ele>
        <time>2020-08-28T00:14:50.796Z</time>
      </trkpt>
      <trkpt lat="68.69454" lon="17.51215">
        <ele>24.514984</ele>
        <time>2020-08-28T00:14:54.634Z</time>
      </trkpt>
      <trkpt lat="68.69459" lon="17.51366">
        <ele>22.845428</ele>
        <time>2020-08-28T00:15:01.980Z</time>
      </trkpt>
      <trkpt lat="68.69451" lon="17.51436">
        <ele>22.06952</ele>
        <time>2020-08-28T00:15:05.785Z</time>
      </trkpt>
      <trkpt lat="68.69407" lon="17.51608">
        <ele>19.853546</ele>
        <time>2020-08-28T00:15:16.096Z</time>
      </trkpt>
      <trkpt lat="68.69336" lon="17.51969">
        <ele>15.687187</ele>
        <time>2020-08-28T00:15:35.502Z</time>
      </trkpt>
      <trkpt lat="68.69291" lon="17.52303">
        <ele>12.724619</ele>
        <time>2020-08-28T00:15:53.187Z</time>
      </trkpt>
      <trkpt lat="68.69268" lon="17.52588">
        <ele>12.434648</ele>
        <time>2020-08-28T00:16:10.651Z</time>
      </trkpt>
      <trkpt lat="68.69262" lon="17.52666">
        <ele>12.355288</ele>
        <time>2020-08-28T00:16:16.479Z</time>
      </trkpt>
      <trkpt lat="68.69256" lon="17.5274">
        <ele>12.361695</ele>
        <time>2020-08-28T00:16:22.296Z</time>
      </trkpt>
      <trkpt lat="68.69247" lon="17.52848">
        <ele>13.123934</ele>
        <time>2020-08-28T00:16:32.251Z</time>
      </trkpt>
      <trkpt lat="68.69238" lon="17.5297">
        <ele>13.984124</ele>
        <time>2020-08-28T00:16:44.333Z</time>
      </trkpt>
      <trkpt lat="68.69216" lon="17.53179">
        <ele>15.483249</ele>
        <time>2020-08-28T00:17:03.615Z</time>
      </trkpt>
      <trkpt lat="68.69212" lon="17.53201">
        <ele>15.661987</ele>
        <time>2020-08-28T00:17:06.082Z</time>
      </trkpt>
      <trkpt lat="68.69206" lon="17.53229">
        <ele>15.65907</ele>
        <time>2020-08-28T00:17:08.653Z</time>
      </trkpt>
      <trkpt lat="68.69196" lon="17.53272">
        <ele>15.561081</ele>
        <time>2020-08-28T00:17:12.507Z</time>
      </trkpt>
      <trkpt lat="68.69174" lon="17.53349">
        <ele>15.376227</ele>
        <time>2020-08-28T00:17:19.678Z</time>
      </trkpt>
      <trkpt lat="68.6916" lon="17.53387">
        <ele>15.274132</ele>
        <time>2020-08-28T00:17:23.630Z</time>
      </trkpt>
      <trkpt lat="68.69141" lon="17.53435">
        <ele>15.139198</ele>
        <time>2020-08-28T00:17:27.865Z</time>
      </trkpt>
      <trkpt lat="68.69051" lon="17.53641">
        <ele>13.326109</ele>
        <time>2020-08-28T00:17:44.007Z</time>
      </trkpt>
      <trkpt lat="68.6901" lon="17.538">
        <ele>11.110481</ele>
        <time>2020-08-28T00:17:53.030Z</time>
      </trkpt>
      <trkpt lat="68.69003" lon="17.53833">
        <ele>10.692912</ele>
        <time>2020-08-28T00:17:54.790Z</time>
      </trkpt>
      <trkpt lat="68.68966" lon="17.54035">
        <ele>8.177365</ele>
        <time>2020-08-28T00:18:05.637Z</time>
      </trkpt>
      <trkpt lat="68.68952" lon="17.54111">
        <ele>7.270741</ele>
        <time>2020-08-28T00:18:09.658Z</time>
      </trkpt>
      <trkpt lat="68.68904" lon="17.54379">
        <ele>4.080186</ele>
        <time>2020-08-28T00:18:24.059Z</time>
      </trkpt>
      <trkpt lat="68.6889" lon="17.54449">
        <ele>3.739333</ele>
        <time>2020-08-28T00:18:28.158Z</time>
      </trkpt>
      <trkpt lat="68.68883" lon="17.54481">
        <ele>3.659594</ele>
        <time>2020-08-28T00:18:30.117Z</time>
      </trkpt>
      <trkpt lat="68.68876" lon="17.54507">
        <ele>3.59055</ele>
        <time>2020-08-28T00:18:31.709Z</time>
      </trkpt>
      <trkpt lat="68.68866" lon="17.54539">
        <ele>3.499824</ele>
        <time>2020-08-28T00:18:33.932Z</time>
      </trkpt>
      <trkpt lat="68.68828" lon="17.54623">
        <ele>3.212229</ele>
        <time>2020-08-28T00:18:41.266Z</time>
      </trkpt>
      <trkpt lat="68.68822" lon="17.54631">
        <ele>3.174282</ele>
        <time>2020-08-28T00:18:42.218Z</time>
      </trkpt>
      <trkpt lat="68.68803" lon="17.54656">
        <ele>3.048638</ele>
        <time>2020-08-28T00:18:45.769Z</time>
      </trkpt>
      <trkpt lat="68.68791" lon="17.54668">
        <ele>2.9713</ele>
        <time>2020-08-28T00:18:47.945Z</time>
      </trkpt>
      <trkpt lat="68.68783" lon="17.54674">
        <ele>2.92459</ele>
        <time>2020-08-28T00:18:49.253Z</time>
      </trkpt>
      <trkpt lat="68.68527" lon="17.54854">
        <ele>13.157463</ele>
        <time>2020-08-28T00:20:05.440Z</time>
      </trkpt>
      <trkpt lat="68.68489" lon="17.54888">
        <ele>16.052031</ele>
        <time>2020-08-28T00:20:23.020Z</time>
      </trkpt>
      <trkpt lat="68.68448" lon="17.54967">
        <ele>19.735777</ele>
        <time>2020-08-28T00:20:48.741Z</time>
      </trkpt>
      <trkpt lat="68.6844" lon="17.5499">
        <ele>20.545442</ele>
        <time>2020-08-28T00:20:55.737Z</time>
      </trkpt>
      <trkpt lat="68.68436" lon="17.55004">
        <ele>21.023486</ele>
        <time>2020-08-28T00:20:59.260Z</time>
      </trkpt>
      <trkpt lat="68.68432" lon="17.55021">
        <ele>21.545091</ele>
        <time>2020-08-28T00:21:02.325Z</time>
      </trkpt>
      <trkpt lat="68.68428" lon="17.5504">
        <ele>21.888402</ele>
        <time>2020-08-28T00:21:06.780Z</time>
      </trkpt>
      <trkpt lat="68.68425" lon="17.55048">
        <ele>22.038606</ele>
        <time>2020-08-28T00:21:08.878Z</time>
      </trkpt>
      <trkpt lat="68.68437" lon="17.55077">
        <ele>22.673171</ele>
        <time>2020-08-28T00:21:16.066Z</time>
      </trkpt>
      <trkpt lat="68.68446" lon="17.55111">
        <ele>23.310274</ele>
        <time>2020-08-28T00:21:22.640Z</time>
      </trkpt>
      <trkpt lat="68.68457" lon="17.55165">
        <ele>24.233196</ele>
        <time>2020-08-28T00:21:32.302Z</time>
      </trkpt>
      <trkpt lat="68.68464" lon="17.55205">
        <ele>24.896733</ele>
        <time>2020-08-28T00:21:38.450Z</time>
      </trkpt>
      <trkpt lat="68.68477" lon="17.55277">
        <ele>26.1093</ele>
        <time>2020-08-28T00:21:48.438Z</time>
      </trkpt>
      <trkpt lat="68.685" lon="17.55399">
        <ele>28.147728</ele>
        <time>2020-08-28T00:22:02.295Z</time>
      </trkpt>
      <trkpt lat="68.68505" lon="17.55426">
        <ele>28.604681</ele>
        <time>2020-08-28T00:22:03.593Z</time>
      </trkpt>
      <trkpt lat="68.68571" lon="17.55794">
        <ele>20.194272</ele>
        <time>2020-08-28T00:22:20.753Z</time>
      </trkpt>
      <trkpt lat="68.68573" lon="17.55855">
        <ele>18.793918</ele>
        <time>2020-08-28T00:22:23.270Z</time>
      </trkpt>
      <trkpt lat="68.6857" lon="17.55923">
        <ele>17.559841</ele>
        <time>2020-08-28T00:22:26.076Z</time>
      </trkpt>
      <trkpt lat="68.68557" lon="17.5601">
        <ele>16.724199</ele>
        <time>2020-08-28T00:22:30.055Z</time>
      </trkpt>
      <trkpt lat="68.68541" lon="17.56065">
        <ele>16.108721</ele>
        <time>2020-08-28T00:22:33.126Z</time>
      </trkpt>
      <trkpt lat="68.68447" lon="17.56285">
        <ele>13.708291</ele>
        <time>2020-08-28T00:22:53.429Z</time>
      </trkpt>
      <trkpt lat="68.68422" lon="17.56364">
        <ele>14.858408</ele>
        <time>2020-08-28T00:23:04.724Z</time>
      </trkpt>
      <trkpt lat="68.68409" lon="17.56458">
        <ele>15.934499</ele>
        <time>2020-08-28T00:23:15.657Z</time>
      </trkpt>
      <trkpt lat="68.68413" lon="17.56557">
        <ele>17.022453</ele>
        <time>2020-08-28T00:23:26.289Z</time>
      </trkpt>
      <trkpt lat="68.68422" lon="17.5661">
        <ele>17.638442</ele>
        <time>2020-08-28T00:23:33.671Z</time>
      </trkpt>
      <trkpt lat="68.6843" lon="17.56654">
        <ele>18.183937</ele>
        <time>2020-08-28T00:23:37.840Z</time>
      </trkpt>
      <trkpt lat="68.68474" lon="17.56865">
        <ele>20.332208</ele>
        <time>2020-08-28T00:24:03.601Z</time>
      </trkpt>
      <trkpt lat="68.68483" lon="17.56916">
        <ele>20.811134</ele>
        <time>2020-08-28T00:24:07.871Z</time>
      </trkpt>
      <trkpt lat="68.6849" lon="17.5695">
        <ele>21.133843</ele>
        <time>2020-08-28T00:24:12.462Z</time>
      </trkpt>
      <trkpt lat="68.6851" lon="17.57101">
        <ele>22.477559</ele>
        <time>2020-08-28T00:24:23.998Z</time>
      </trkpt>
      <trkpt lat="68.6852" lon="17.57282">
        <ele>24.125371</ele>
        <time>2020-08-28T00:24:39.380Z</time>
      </trkpt>
      <trkpt lat="68.68512" lon="17.57873">
        <ele>28.960414</ele>
        <time>2020-08-28T00:25:38.832Z</time>
      </trkpt>
      <trkpt lat="68.68507" lon="17.57969">
        <ele>29.598739</ele>
        <time>2020-08-28T00:25:46.669Z</time>
      </trkpt>
      <trkpt lat="68.68496" lon="17.58047">
        <ele>30.138674</ele>
        <time>2020-08-28T00:25:52.964Z</time>
      </trkpt>
      <trkpt lat="68.68492" lon="17.58083">
        <ele>30.389445</ele>
        <time>2020-08-28T00:25:55.502Z</time>
      </trkpt>
      <trkpt lat="68.6849" lon="17.58136">
        <ele>30.665667</ele>
        <time>2020-08-28T00:25:59.190Z</time>
      </trkpt>
      <trkpt lat="68.68491" lon="17.58147">
        <ele>30.6582</ele>
        <time>2020-08-28T00:26:00.092Z</time>
      </trkpt>
      <trkpt lat="68.68492" lon="17.58174">
        <ele>30.640913</ele>
        <time>2020-08-28T00:26:01.644Z</time>
      </trkpt>
      <trkpt lat="68.68498" lon="17.58218">
        <ele>30.610352</ele>
        <time>2020-08-28T00:26:04.597Z</time>
      </trkpt>
      <trkpt lat="68.68513" lon="17.58305">
        <ele>30.547958</ele>
        <time>2020-08-28T00:26:10.323Z</time>
      </trkpt>
      <trkpt lat="68.68516" lon="17.5835">
        <ele>30.517913</ele>
        <time>2020-08-28T00:26:13.054Z</time>
      </trkpt>
      <trkpt lat="68.68514" lon="17.58402">
        <ele>30.483648</ele>
        <time>2020-08-28T00:26:16.571Z</time>
      </trkpt>
      <trkpt lat="68.68498" lon="17.58504">
        <ele>30.410981</ele>
        <time>2020-08-28T00:26:23.216Z</time>
      </trkpt>
      <trkpt lat="68.68483" lon="17.5857">
        <ele>30.360455</ele>
        <time>2020-08-28T00:26:27.615Z</time>
      </trkpt>
      <trkpt lat="68.68443" lon="17.58672">
        <ele>31.078252</ele>
        <time>2020-08-28T00:26:37.525Z</time>
      </trkpt>
      <trkpt lat="68.68436" lon="17.58695">
        <ele>31.241373</ele>
        <time>2020-08-28T00:26:39.997Z</time>
      </trkpt>
      <trkpt lat="68.68428" lon="17.58725">
        <ele>31.450858</ele>
        <time>2020-08-28T00:26:43.285Z</time>
      </trkpt>
      <trkpt lat="68.68348" lon="17.59071">
        <ele>33.465464</ele>
        <time>2020-08-28T00:27:21.114Z</time>
      </trkpt>
      <trkpt lat="68.68325" lon="17.59202">
        <ele>33.982946</ele>
        <time>2020-08-28T00:27:33.313Z</time>
      </trkpt>
      <trkpt lat="68.68322" lon="17.59226">
        <ele>34.070679</ele>
        <time>2020-08-28T00:27:35.424Z</time>
      </trkpt>
      <trkpt lat="68.68306" lon="17.59342">
        <ele>34.515067</ele>
        <time>2020-08-28T00:27:45.300Z</time>
      </trkpt>
      <trkpt lat="68.68258" lon="17.59695">
        <ele>31.750002</ele>
        <time>2020-08-28T00:28:05.041Z</time>
      </trkpt>
      <trkpt lat="68.68254" lon="17.59759">
        <ele>31.076296</ele>
        <time>2020-08-28T00:28:07.964Z</time>
      </trkpt>
      <trkpt lat="68.68257" lon="17.59857">
        <ele>30.053708</ele>
        <time>2020-08-28T00:28:12.298Z</time>
      </trkpt>
      <trkpt lat="68.68262" lon="17.59941">
        <ele>28.872772</ele>
        <time>2020-08-28T00:28:16.062Z</time>
      </trkpt>
      <trkpt lat="68.68267" lon="17.60015">
        <ele>27.643681</ele>
        <time>2020-08-28T00:28:19.307Z</time>
      </trkpt>
      <trkpt lat="68.68266" lon="17.60078">
        <ele>26.596963</ele>
        <time>2020-08-28T00:28:22.149Z</time>
      </trkpt>
      <trkpt lat="68.68255" lon="17.6016">
        <ele>25.168398</ele>
        <time>2020-08-28T00:28:26.011Z</time>
      </trkpt>
      <trkpt lat="68.68195" lon="17.60366">
        <ele>21.013741</ele>
        <time>2020-08-28T00:28:37.919Z</time>
      </trkpt>
      <trkpt lat="68.6817" lon="17.60481">
        <ele>19.464706</ele>
        <time>2020-08-28T00:28:44.639Z</time>
      </trkpt>
      <trkpt lat="68.68167" lon="17.605">
        <ele>19.227587</ele>
        <time>2020-08-28T00:28:45.778Z</time>
      </trkpt>
      <trkpt lat="68.6816" lon="17.60554">
        <ele>18.564461</ele>
        <time>2020-08-28T00:28:48.503Z</time>
      </trkpt>
      <trkpt lat="68.68142" lon="17.6072">
        <ele>16.5563</ele>
        <time>2020-08-28T00:28:56.942Z</time>
      </trkpt>
      <trkpt lat="68.68127" lon="17.6093">
        <ele>14.378316</ele>
        <time>2020-08-28T00:29:06.852Z</time>
      </trkpt>
      <trkpt lat="68.68127" lon="17.61205">
        <ele>11.758643</ele>
        <time>2020-08-28T00:29:20.258Z</time>
      </trkpt>
      <trkpt lat="68.68122" lon="17.61286">
        <ele>11.09032</ele>
        <time>2020-08-28T00:29:24.839Z</time>
      </trkpt>
      <trkpt lat="68.68118" lon="17.61328">
        <ele>11.190463</ele>
        <time>2020-08-28T00:29:27.060Z</time>
      </trkpt>
      <trkpt lat="68.68115" lon="17.61354">
        <ele>11.251402</ele>
        <time>2020-08-28T00:29:29.144Z</time>
      </trkpt>
      <trkpt lat="68.68103" lon="17.61444">
        <ele>11.473363</ele>
        <time>2020-08-28T00:29:35.540Z</time>
      </trkpt>
      <trkpt lat="68.68082" lon="17.61543">
        <ele>11.736105</ele>
        <time>2020-08-28T00:29:44.221Z</time>
      </trkpt>
      <trkpt lat="68.67998" lon="17.61786">
        <ele>12.324224</ele>
        <time>2020-08-28T00:30:12.867Z</time>
      </trkpt>
      <trkpt lat="68.67985" lon="17.61839">
        <ele>12.383566</ele>
        <time>2020-08-28T00:30:17.926Z</time>
      </trkpt>
      <trkpt lat="68.67972" lon="17.61929">
        <ele>12.473121</ele>
        <time>2020-08-28T00:30:24.160Z</time>
      </trkpt>
      <trkpt lat="68.67948" lon="17.62205">
        <ele>12.231142</ele>
        <time>2020-08-28T00:30:40.709Z</time>
      </trkpt>
      <trkpt lat="68.67941" lon="17.62277">
        <ele>11.834732</ele>
        <time>2020-08-28T00:30:44.458Z</time>
      </trkpt>
      <trkpt lat="68.67935" lon="17.62327">
        <ele>11.551892</ele>
        <time>2020-08-28T00:30:47.402Z</time>
      </trkpt>
      <trkpt lat="68.67896" lon="17.62582">
        <ele>10.084625</ele>
        <time>2020-08-28T00:31:01.865Z</time>
      </trkpt>
      <trkpt lat="68.67892" lon="17.62607">
        <ele>9.978928</ele>
        <time>2020-08-28T00:31:03.222Z</time>
      </trkpt>
      <trkpt lat="68.67881" lon="17.62667">
        <ele>9.771868</ele>
        <time>2020-08-28T00:31:06.897Z</time>
      </trkpt>
      <trkpt lat="68.6786" lon="17.62766">
        <ele>9.417207</ele>
        <time>2020-08-28T00:31:13.692Z</time>
      </trkpt>
      <trkpt lat="68.67835" lon="17.62874">
        <ele>9.023135</ele>
        <time>2020-08-28T00:31:20.883Z</time>
      </trkpt>
      <trkpt lat="68.67826" lon="17.62908">
        <ele>8.892905</ele>
        <time>2020-08-28T00:31:23.469Z</time>
      </trkpt>
      <trkpt lat="68.67775" lon="17.63042">
        <ele>8.57757</ele>
        <time>2020-08-28T00:31:35.229Z</time>
      </trkpt>
      <trkpt lat="68.67759" lon="17.63105">
        <ele>8.658474</ele>
        <time>2020-08-28T00:31:40.168Z</time>
      </trkpt>
      <trkpt lat="68.67747" lon="17.6318">
        <ele>8.74461</ele>
        <time>2020-08-28T00:31:45.516Z</time>
      </trkpt>
      <trkpt lat="68.67738" lon="17.63336">
        <ele>8.90945</ele>
        <time>2020-08-28T00:31:56.944Z</time>
      </trkpt>
      <trkpt lat="68.6773" lon="17.63409">
        <ele>8.98885</ele>
        <time>2020-08-28T00:32:02.109Z</time>
      </trkpt>
      <trkpt lat="68.67674" lon="17.63646">
        <ele>9.921686</ele>
        <time>2020-08-28T00:32:24.174Z</time>
      </trkpt>
      <trkpt lat="68.67667" lon="17.63675">
        <ele>10.045412</ele>
        <time>2020-08-28T00:32:27.686Z</time>
      </trkpt>
      <trkpt lat="68.67654" lon="17.63731">
        <ele>10.282663</ele>
        <time>2020-08-28T00:32:32.159Z</time>
      </trkpt>
      <trkpt lat="68.67607" lon="17.63955">
        <ele>10.673512</ele>
        <time>2020-08-28T00:32:52.032Z</time>
      </trkpt>
      <trkpt lat="68.67473" lon="17.64503">
        <ele>9.448425</ele>
        <time>2020-08-28T00:33:30.408Z</time>
      </trkpt>
      <trkpt lat="68.67466" lon="17.64543">
        <ele>9.317826</ele>
        <time>2020-08-28T00:33:32.761Z</time>
      </trkpt>
      <trkpt lat="68.67461" lon="17.6457">
        <ele>9.232246</ele>
        <time>2020-08-28T00:33:34.263Z</time>
      </trkpt>
      <trkpt lat="68.67444" lon="17.64699">
        <ele>8.831748</ele>
        <time>2020-08-28T00:33:42.467Z</time>
      </trkpt>
      <trkpt lat="68.67421" lon="17.64807">
        <ele>8.880078</ele>
        <time>2020-08-28T00:33:49.944Z</time>
      </trkpt>
      <trkpt lat="68.67405" lon="17.64858">
        <ele>8.908496</ele>
        <time>2020-08-28T00:33:54.649Z</time>
      </trkpt>
      <trkpt lat="68.67368" lon="17.64934">
        <ele>8.961476</ele>
        <time>2020-08-28T00:34:03.050Z</time>
      </trkpt>
      <trkpt lat="68.67352" lon="17.6497">
        <ele>8.985824</ele>
        <time>2020-08-28T00:34:07.465Z</time>
      </trkpt>
      <trkpt lat="68.6735" lon="17.64975">
        <ele>8.98896</ele>
        <time>2020-08-28T00:34:08.582Z</time>
      </trkpt>
      <trkpt lat="68.673" lon="17.65105">
        <ele>8.792705</ele>
        <time>2020-08-28T00:34:21.330Z</time>
      </trkpt>
      <trkpt lat="68.67268" lon="17.65212">
        <ele>8.361208</ele>
        <time>2020-08-28T00:34:29.928Z</time>
      </trkpt>
      <trkpt lat="68.67264" lon="17.65232">
        <ele>8.288085</ele>
        <time>2020-08-28T00:34:31.418Z</time>
      </trkpt>
      <trkpt lat="68.67262" lon="17.6524">
        <ele>8.258519</ele>
        <time>2020-08-28T00:34:31.936Z</time>
      </trkpt>
      <trkpt lat="68.67252" lon="17.65316">
        <ele>8.004442</ele>
        <time>2020-08-28T00:34:36.645Z</time>
      </trkpt>
      <trkpt lat="68.67251" lon="17.65342">
        <ele>7.922554</ele>
        <time>2020-08-28T00:34:38.024Z</time>
      </trkpt>
      <trkpt lat="68.6725" lon="17.65409">
        <ele>7.710704</ele>
        <time>2020-08-28T00:34:41.443Z</time>
      </trkpt>
      <trkpt lat="68.67243" lon="17.65486">
        <ele>7.437752</ele>
        <time>2020-08-28T00:34:45.433Z</time>
      </trkpt>
      <trkpt lat="68.67235" lon="17.65524">
        <ele>7.0992</ele>
        <time>2020-08-28T00:34:47.698Z</time>
      </trkpt>
      <trkpt lat="68.6721" lon="17.6559">
        <ele>6.363547</ele>
        <time>2020-08-28T00:34:52.500Z</time>
      </trkpt>
      <trkpt lat="68.67164" lon="17.65667">
        <ele>5.23776</ele>
        <time>2020-08-28T00:34:59.676Z</time>
      </trkpt>
      <trkpt lat="68.6714" lon="17.65723">
        <ele>4.594902</ele>
        <time>2020-08-28T00:35:03.856Z</time>
      </trkpt>
      <trkpt lat="68.67094" lon="17.6593">
        <ele>3.995137</ele>
        <time>2020-08-28T00:35:17.581Z</time>
      </trkpt>
      <trkpt lat="68.67079" lon="17.65982">
        <ele>4.135248</ele>
        <time>2020-08-28T00:35:21.782Z</time>
      </trkpt>
      <trkpt lat="68.67056" lon="17.66052">
        <ele>4.336817</ele>
        <time>2020-08-28T00:35:28.427Z</time>
      </trkpt>
      <trkpt lat="68.67045" lon="17.66083">
        <ele>4.427573</ele>
        <time>2020-08-28T00:35:31.973Z</time>
      </trkpt>
      <trkpt lat="68.66987" lon="17.66199">
        <ele>5.280389</ele>
        <time>2020-08-28T00:35:49.354Z</time>
      </trkpt>
      <trkpt lat="68.66976" lon="17.66225">
        <ele>5.838531</ele>
        <time>2020-08-28T00:35:52.964Z</time>
      </trkpt>
      <trkpt lat="68.66968" lon="17.66246">
        <ele>6.270545</ele>
        <time>2020-08-28T00:35:55.992Z</time>
      </trkpt>
      <trkpt lat="68.66951" lon="17.66301">
        <ele>7.286294</ele>
        <time>2020-08-28T00:36:03.046Z</time>
      </trkpt>
      <trkpt lat="68.66939" lon="17.66345">
        <ele>8.055992</ele>
        <time>2020-08-28T00:36:08.820Z</time>
      </trkpt>
      <trkpt lat="68.66926" lon="17.66407">
        <ele>9.061759</ele>
        <time>2020-08-28T00:36:16.441Z</time>
      </trkpt>
      <trkpt lat="68.66905" lon="17.66559">
        <ele>11.36941</ele>
        <time>2020-08-28T00:36:37.055Z</time>
      </trkpt>
      <trkpt lat="68.66889" lon="17.66742">
        <ele>16.117885</ele>
        <time>2020-08-28T00:37:02.487Z</time>
      </trkpt>
      <trkpt lat="68.66868" lon="17.66804">
        <ele>18.369548</ele>
        <time>2020-08-28T00:37:14.014Z</time>
      </trkpt>
      <trkpt lat="68.66861" lon="17.66817">
        <ele>19.019954</ele>
        <time>2020-08-28T00:37:17.791Z</time>
      </trkpt>
      <trkpt lat="68.6684" lon="17.66852">
        <ele>20.826883</ele>
        <time>2020-08-28T00:37:27.830Z</time>
      </trkpt>
      <trkpt lat="68.66799" lon="17.66944">
        <ele>24.807704</ele>
        <time>2020-08-28T00:37:52.336Z</time>
      </trkpt>
      <trkpt lat="68.66769" lon="17.67049">
        <ele>29.353313</ele>
        <time>2020-08-28T00:38:18.108Z</time>
      </trkpt>
      <trkpt lat="68.66751" lon="17.67122">
        <ele>32.391677</ele>
        <time>2020-08-28T00:38:34.837Z</time>
      </trkpt>
      <trkpt lat="68.66733" lon="17.67202">
        <ele>35.678357</ele>
        <time>2020-08-28T00:38:51.291Z</time>
      </trkpt>
      <trkpt lat="68.66724" lon="17.67237">
        <ele>37.159596</ele>
        <time>2020-08-28T00:38:58.465Z</time>
      </trkpt>
      <trkpt lat="68.66717" lon="17.67262">
        <ele>38.275411</ele>
        <time>2020-08-28T00:39:03.392Z</time>
      </trkpt>
      <trkpt lat="68.66708" lon="17.67287">
        <ele>39.457951</ele>
        <time>2020-08-28T00:39:09.914Z</time>
      </trkpt>
      <trkpt lat="68.66637" lon="17.6743">
        <ele>46.207679</ele>
        <time>2020-08-28T00:39:50.860Z</time>
      </trkpt>
      <trkpt lat="68.66599" lon="17.67559">
        <ele>50.226041</ele>
        <time>2020-08-28T00:40:14.497Z</time>
      </trkpt>
      <trkpt lat="68.66587" lon="17.67607">
        <ele>51.611653</ele>
        <time>2020-08-28T00:40:21.087Z</time>
      </trkpt>
      <trkpt lat="68.66578" lon="17.67642">
        <ele>52.630159</ele>
        <time>2020-08-28T00:40:25.264Z</time>
      </trkpt>
      <trkpt lat="68.66553" lon="17.67824">
        <ele>56.882778</ele>
        <time>2020-08-28T00:40:48.930Z</time>
      </trkpt>
      <trkpt lat="68.66523" lon="17.67891">
        <ele>59.033802</ele>
        <time>2020-08-28T00:41:02.510Z</time>
      </trkpt>
      <trkpt lat="68.66496" lon="17.67937">
        <ele>60.853297</ele>
        <time>2020-08-28T00:41:14.224Z</time>
      </trkpt>
      <trkpt lat="68.66437" lon="17.68034">
        <ele>64.821667</ele>
        <time>2020-08-28T00:41:39.376Z</time>
      </trkpt>
      <trkpt lat="68.66402" lon="17.68077">
        <ele>67.781707</ele>
        <time>2020-08-28T00:41:55.128Z</time>
      </trkpt>
      <trkpt lat="68.66343" lon="17.68097">
        <ele>72.350384</ele>
        <time>2020-08-28T00:42:21.607Z</time>
      </trkpt>
      <trkpt lat="68.66324" lon="17.68137">
        <ele>74.198156</ele>
        <time>2020-08-28T00:42:32.426Z</time>
      </trkpt>
      <trkpt lat="68.663" lon="17.68314">
        <ele>79.479557</ele>
        <time>2020-08-28T00:43:01.194Z</time>
      </trkpt>
      <trkpt lat="68.66286" lon="17.68533">
        <ele>85.584223</ele>
        <time>2020-08-28T00:43:38.417Z</time>
      </trkpt>
      <trkpt lat="68.66274" lon="17.68589">
        <ele>87.382879</ele>
        <time>2020-08-28T00:43:47.201Z</time>
      </trkpt>
      <trkpt lat="68.66244" lon="17.6866">
        <ele>90.340863</ele>
        <time>2020-08-28T00:44:03.098Z</time>
      </trkpt>
      <trkpt lat="68.66241" lon="17.68668">
        <ele>90.658853</ele>
        <time>2020-08-28T00:44:06.073Z</time>
      </trkpt>
      <trkpt lat="68.66233" lon="17.68694">
        <ele>91.591181</ele>
        <time>2020-08-28T00:44:10.389Z</time>
      </trkpt>
      <trkpt lat="68.66227" lon="17.68735">
        <ele>92.542464</ele>
        <time>2020-08-28T00:44:15.344Z</time>
      </trkpt>
      <trkpt lat="68.66226" lon="17.68747">
        <ele>92.773889</ele>
        <time>2020-08-28T00:44:17.543Z</time>
      </trkpt>
      <trkpt lat="68.66218" lon="17.68855">
        <ele>94.938452</ele>
        <time>2020-08-28T00:44:33.431Z</time>
      </trkpt>
      <trkpt lat="68.66199" lon="17.68995">
        <ele>97.855639</ele>
        <time>2020-08-28T00:44:52.068Z</time>
      </trkpt>
      <trkpt lat="68.66155" lon="17.69135">
        <ele>101.490621</ele>
        <time>2020-08-28T00:45:14.280Z</time>
      </trkpt>
      <trkpt lat="68.6615" lon="17.69148">
        <ele>101.868643</ele>
        <time>2020-08-28T00:45:16.625Z</time>
      </trkpt>
      <trkpt lat="68.66139" lon="17.69176">
        <ele>102.668804</ele>
        <time>2020-08-28T00:45:21.026Z</time>
      </trkpt>
      <trkpt lat="68.66116" lon="17.69226">
        <ele>104.212007</ele>
        <time>2020-08-28T00:45:29.337Z</time>
      </trkpt>
      <trkpt lat="68.6611" lon="17.69236">
        <ele>104.60093</ele>
        <time>2020-08-28T00:45:31.681Z</time>
      </trkpt>
      <trkpt lat="68.66101" lon="17.69252">
        <ele>105.192957</ele>
        <time>2020-08-28T00:45:35.040Z</time>
      </trkpt>
      <trkpt lat="68.66054" lon="17.69309">
        <ele>107.916803</ele>
        <time>2020-08-28T00:45:51.866Z</time>
      </trkpt>
      <trkpt lat="68.66034" lon="17.69322">
        <ele>109.002506</ele>
        <time>2020-08-28T00:45:59.303Z</time>
      </trkpt>
      <trkpt lat="68.66026" lon="17.69327">
        <ele>109.463116</ele>
        <time>2020-08-28T00:46:02.727Z</time>
      </trkpt>
      <trkpt lat="68.6599" lon="17.69356">
        <ele>111.702871</ele>
        <time>2020-08-28T00:46:17.568Z</time>
      </trkpt>
      <trkpt lat="68.65937" lon="17.69461">
        <ele>118.292076</ele>
        <time>2020-08-28T00:46:47.339Z</time>
      </trkpt>
      <trkpt lat="68.65915" lon="17.69492">
        <ele>120.760034</ele>
        <time>2020-08-28T00:46:59.886Z</time>
      </trkpt>
      <trkpt lat="68.65866" lon="17.69523">
        <ele>125.836706</ele>
        <time>2020-08-28T00:47:27.508Z</time>
      </trkpt>
      <trkpt lat="68.65801" lon="17.69544">
        <ele>132.693945</ele>
        <time>2020-08-28T00:48:04.650Z</time>
      </trkpt>
      <trkpt lat="68.65764" lon="17.69586">
        <ele>137.152851</ele>
        <time>2020-08-28T00:48:27.594Z</time>
      </trkpt>
      <trkpt lat="68.65749" lon="17.69636">
        <ele>139.786393</ele>
        <time>2020-08-28T00:48:40.895Z</time>
      </trkpt>
      <trkpt lat="68.65738" lon="17.69712">
        <ele>143.032093</ele>
        <time>2020-08-28T00:48:56.500Z</time>
      </trkpt>
      <trkpt lat="68.65729" lon="17.70045">
        <ele>153.955884</ele>
        <time>2020-08-28T00:49:55.223Z</time>
      </trkpt>
      <trkpt lat="68.65719" lon="17.70092">
        <ele>155.406867</ele>
        <time>2020-08-28T00:50:04.246Z</time>
      </trkpt>
      <trkpt lat="68.6571" lon="17.70106">
        <ele>156.168634</ele>
        <time>2020-08-28T00:50:07.687Z</time>
      </trkpt>
      <trkpt lat="68.65702" lon="17.70102">
        <ele>156.737702</ele>
        <time>2020-08-28T00:50:10.667Z</time>
      </trkpt>
      <trkpt lat="68.65699" lon="17.70098">
        <ele>156.954548</ele>
        <time>2020-08-28T00:50:12.984Z</time>
      </trkpt>
      <trkpt lat="68.65697" lon="17.70091">
        <ele>157.193559</ele>
        <time>2020-08-28T00:50:14.316Z</time>
      </trkpt>
      <trkpt lat="68.65695" lon="17.70076">
        <ele>157.611388</ele>
        <time>2020-08-28T00:50:16.186Z</time>
      </trkpt>
      <trkpt lat="68.65695" lon="17.70063">
        <ele>157.96116</ele>
        <time>2020-08-28T00:50:17.785Z</time>
      </trkpt>
      <trkpt lat="68.65698" lon="17.69939">
        <ele>161.238013</ele>
        <time>2020-08-28T00:50:33.144Z</time>
      </trkpt>
      <trkpt lat="68.65698" lon="17.69889">
        <ele>162.304868</ele>
        <time>2020-08-28T00:50:40.310Z</time>
      </trkpt>
      <trkpt lat="68.65688" lon="17.69777">
        <ele>163.464855</ele>
        <time>2020-08-28T00:50:52.790Z</time>
      </trkpt>
      <trkpt lat="68.65658" lon="17.69563">
        <ele>165.768264</ele>
        <time>2020-08-28T00:51:13.741Z</time>
      </trkpt>
      <trkpt lat="68.65659" lon="17.69444">
        <ele>166.956624</ele>
        <time>2020-08-28T00:51:23.940Z</time>
      </trkpt>
      <trkpt lat="68.65669" lon="17.69373">
        <ele>167.555193</ele>
        <time>2020-08-28T00:51:29.858Z</time>
      </trkpt>
      <trkpt lat="68.65692" lon="17.693">
        <ele>168.258657</ele>
        <time>2020-08-28T00:51:37.466Z</time>
      </trkpt>
      <trkpt lat="68.65768" lon="17.69188">
        <ele>169.984951</ele>
        <time>2020-08-28T00:51:57.635Z</time>
      </trkpt>
      <trkpt lat="68.65787" lon="17.69142">
        <ele>170.48485</ele>
        <time>2020-08-28T00:52:04.258Z</time>
      </trkpt>
      <trkpt lat="68.65794" lon="17.69103">
        <ele>170.93779</ele>
        <time>2020-08-28T00:52:08.741Z</time>
      </trkpt>
      <trkpt lat="68.65795" lon="17.69057">
        <ele>171.734953</ele>
        <time>2020-08-28T00:52:13.630Z</time>
      </trkpt>
      <trkpt lat="68.65784" lon="17.6898">
        <ele>173.167822</ele>
        <time>2020-08-28T00:52:22.866Z</time>
      </trkpt>
      <trkpt lat="68.65759" lon="17.68938">
        <ele>174.538741</ele>
        <time>2020-08-28T00:52:32.171Z</time>
      </trkpt>
      <trkpt lat="68.65737" lon="17.68939">
        <ele>175.597724</ele>
        <time>2020-08-28T00:52:39.653Z</time>
      </trkpt>
      <trkpt lat="68.65717" lon="17.68963">
        <ele>176.630781</ele>
        <time>2020-08-28T00:52:47.277Z</time>
      </trkpt>
      <trkpt lat="68.65575" lon="17.69208">
        <ele>185.994663</ele>
        <time>2020-08-28T00:53:49.536Z</time>
      </trkpt>
      <trkpt lat="68.65529" lon="17.69245">
        <ele>188.830728</ele>
        <time>2020-08-28T00:54:07.629Z</time>
      </trkpt>
      <trkpt lat="68.65471" lon="17.69253">
        <ele>191.896817</ele>
        <time>2020-08-28T00:54:29.208Z</time>
      </trkpt>
      <trkpt lat="68.65376" lon="17.69256">
        <ele>196.452452</ele>
        <time>2020-08-28T00:55:01.241Z</time>
      </trkpt>
      <trkpt lat="68.65358" lon="17.69255">
        <ele>197.323164</ele>
        <time>2020-08-28T00:55:06.730Z</time>
      </trkpt>
      <trkpt lat="68.65293" lon="17.69235">
        <ele>199.414416</ele>
        <time>2020-08-28T00:55:25.503Z</time>
      </trkpt>
      <trkpt lat="68.65286" lon="17.69234">
        <ele>199.563245</ele>
        <time>2020-08-28T00:55:27.504Z</time>
      </trkpt>
      <trkpt lat="68.65279" lon="17.69229">
        <ele>199.70765</ele>
        <time>2020-08-28T00:55:29.433Z</time>
      </trkpt>
      <trkpt lat="68.65261" lon="17.69235">
        <ele>200.084529</ele>
        <time>2020-08-28T00:55:33.895Z</time>
      </trkpt>
      <trkpt lat="68.65259" lon="17.69236">
        <ele>200.116142</ele>
        <time>2020-08-28T00:55:34.413Z</time>
      </trkpt>
      <trkpt lat="68.65241" lon="17.6925">
        <ele>200.513556</ele>
        <time>2020-08-28T00:55:39.138Z</time>
      </trkpt>
      <trkpt lat="68.65234" lon="17.69258">
        <ele>200.654265</ele>
        <time>2020-08-28T00:55:40.868Z</time>
      </trkpt>
      <trkpt lat="68.65221" lon="17.69217">
        <ele>201.061333</ele>
        <time>2020-08-28T00:55:45.070Z</time>
      </trkpt>
      <trkpt lat="68.65172" lon="17.69094">
        <ele>202.355676</ele>
        <time>2020-08-28T00:55:59.272Z</time>
      </trkpt>
      <trkpt lat="68.65086" lon="17.6893">
        <ele>203.167098</ele>
        <time>2020-08-28T00:56:20.136Z</time>
      </trkpt>
      <trkpt lat="68.65082" lon="17.68926">
        <ele>203.200015</ele>
        <time>2020-08-28T00:56:21.188Z</time>
      </trkpt>
      <trkpt lat="68.64956" lon="17.68688">
        <ele>204.313688</ele>
        <time>2020-08-28T00:56:52.126Z</time>
      </trkpt>
      <trkpt lat="68.64952" lon="17.68679">
        <ele>204.353013</ele>
        <time>2020-08-28T00:56:53.326Z</time>
      </trkpt>
      <trkpt lat="68.64667" lon="17.68142">
        <ele>206.293763</ele>
        <time>2020-08-28T00:58:01.835Z</time>
      </trkpt>
      <trkpt lat="68.64595" lon="17.68045">
        <ele>206.491761</ele>
        <time>2020-08-28T00:58:16.163Z</time>
      </trkpt>
      <trkpt lat="68.64532" lon="17.68006">
        <ele>206.683252</ele>
        <time>2020-08-28T00:58:27.091Z</time>
      </trkpt>
      <trkpt lat="68.64194" lon="17.67989">
        <ele>209.776262</ele>
        <time>2020-08-28T00:59:33.289Z</time>
      </trkpt>
      <trkpt lat="68.64142" lon="17.67976">
        <ele>212.65274</ele>
        <time>2020-08-28T00:59:50.099Z</time>
      </trkpt>
      <trkpt lat="68.64109" lon="17.6795">
        <ele>214.56143</ele>
        <time>2020-08-28T01:00:02.602Z</time>
      </trkpt>
      <trkpt lat="68.64022" lon="17.67843">
        <ele>220.319773</ele>
        <time>2020-08-28T01:00:44.996Z</time>
      </trkpt>
      <trkpt lat="68.63955" lon="17.67795">
        <ele>225.510624</ele>
        <time>2020-08-28T01:01:16.375Z</time>
      </trkpt>
      <trkpt lat="68.63931" lon="17.67786">
        <ele>227.346592</ele>
        <time>2020-08-28T01:01:27.386Z</time>
      </trkpt>
      <trkpt lat="68.63816" lon="17.67741">
        <ele>233.926087</ele>
        <time>2020-08-28T01:02:10.846Z</time>
      </trkpt>
      <trkpt lat="68.63646" lon="17.67675">
        <ele>238.510251</ele>
        <time>2020-08-28T01:02:52.818Z</time>
      </trkpt>
      <trkpt lat="68.63604" lon="17.67649">
        <ele>238.897553</ele>
        <time>2020-08-28T01:03:01.510Z</time>
      </trkpt>
      <trkpt lat="68.63568" lon="17.67611">
        <ele>239.230094</ele>
        <time>2020-08-28T01:03:08.841Z</time>
      </trkpt>
      <trkpt lat="68.63451" lon="17.67434">
        <ele>239.79424</ele>
        <time>2020-08-28T01:03:33.795Z</time>
      </trkpt>
      <trkpt lat="68.63409" lon="17.67386">
        <ele>239.841954</ele>
        <time>2020-08-28T01:03:41.964Z</time>
      </trkpt>
      <trkpt lat="68.63374" lon="17.67363">
        <ele>239.880342</ele>
        <time>2020-08-28T01:03:48.496Z</time>
      </trkpt>
      <trkpt lat="68.6333" lon="17.67352">
        <ele>239.897608</ele>
        <time>2020-08-28T01:03:56.321Z</time>
      </trkpt>
      <trkpt lat="68.63267" lon="17.6737">
        <ele>239.891574</ele>
        <time>2020-08-28T01:04:07.615Z</time>
      </trkpt>
      <trkpt lat="68.63155" lon="17.67438">
        <ele>239.962759</ele>
        <time>2020-08-28T01:04:27.972Z</time>
      </trkpt>
      <trkpt lat="68.6314" lon="17.67446">
        <ele>240.014538</ele>
        <time>2020-08-28T01:04:30.712Z</time>
      </trkpt>
      <trkpt lat="68.631" lon="17.67458">
        <ele>240.14994</ele>
        <time>2020-08-28T01:04:37.782Z</time>
      </trkpt>
      <trkpt lat="68.63052" lon="17.67447">
        <ele>240.310738</ele>
        <time>2020-08-28T01:04:46.242Z</time>
      </trkpt>
      <trkpt lat="68.63014" lon="17.67418">
        <ele>240.444999</ele>
        <time>2020-08-28T01:04:54.518Z</time>
      </trkpt>
      <trkpt lat="68.62977" lon="17.67372">
        <ele>241.1821</ele>
        <time>2020-08-28T01:05:03.493Z</time>
      </trkpt>
      <trkpt lat="68.62952" lon="17.67332">
        <ele>241.888321</ele>
        <time>2020-08-28T01:05:10.028Z</time>
      </trkpt>
      <trkpt lat="68.62942" lon="17.67312">
        <ele>242.20232</ele>
        <time>2020-08-28T01:05:13.063Z</time>
      </trkpt>
      <trkpt lat="68.62929" lon="17.67285">
        <ele>242.606544</ele>
        <time>2020-08-28T01:05:17.027Z</time>
      </trkpt>
      <trkpt lat="68.62898" lon="17.67217">
        <ele>243.587986</ele>
        <time>2020-08-28T01:05:27.496Z</time>
      </trkpt>
      <trkpt lat="68.62829" lon="17.67088">
        <ele>246.213197</ele>
        <time>2020-08-28T01:05:52.222Z</time>
      </trkpt>
      <trkpt lat="68.62752" lon="17.67009">
        <ele>249.798321</ele>
        <time>2020-08-28T01:06:18.929Z</time>
      </trkpt>
      <trkpt lat="68.62706" lon="17.66947">
        <ele>252.077405</ele>
        <time>2020-08-28T01:06:35.754Z</time>
      </trkpt>
      <trkpt lat="68.62478" lon="17.66566">
        <ele>264.907801</ele>
        <time>2020-08-28T01:08:03.494Z</time>
      </trkpt>
      <trkpt lat="68.62406" lon="17.66418">
        <ele>269.584096</ele>
        <time>2020-08-28T01:08:35.706Z</time>
      </trkpt>
      <trkpt lat="68.6239" lon="17.66379">
        <ele>270.666962</ele>
        <time>2020-08-28T01:08:43.331Z</time>
      </trkpt>
      <trkpt lat="68.62374" lon="17.66338">
        <ele>271.544211</ele>
        <time>2020-08-28T01:08:50.901Z</time>
      </trkpt>
      <trkpt lat="68.6234" lon="17.66232">
        <ele>273.649704</ele>
        <time>2020-08-28T01:09:08.282Z</time>
      </trkpt>
      <trkpt lat="68.62298" lon="17.66069">
        <ele>276.609542</ele>
        <time>2020-08-28T01:09:31.944Z</time>
      </trkpt>
      <trkpt lat="68.62237" lon="17.65811">
        <ele>277.91701</ele>
        <time>2020-08-28T01:09:56.609Z</time>
      </trkpt>
      <trkpt lat="68.62195" lon="17.65629">
        <ele>277.8901</ele>
        <time>2020-08-28T01:10:09.099Z</time>
      </trkpt>
      <trkpt lat="68.62193" lon="17.65621">
        <ele>277.888896</ele>
        <time>2020-08-28T01:10:09.555Z</time>
      </trkpt>
      <trkpt lat="68.62101" lon="17.65226">
        <ele>274.594061</ele>
        <time>2020-08-28T01:10:33.174Z</time>
      </trkpt>
      <trkpt lat="68.62086" lon="17.6516">
        <ele>273.992599</ele>
        <time>2020-08-28T01:10:37.086Z</time>
      </trkpt>
      <trkpt lat="68.62059" lon="17.65047">
        <ele>273.306109</ele>
        <time>2020-08-28T01:10:44.104Z</time>
      </trkpt>
      <trkpt lat="68.61944" lon="17.64554">
        <ele>270.904786</ele>
        <time>2020-08-28T01:11:16.864Z</time>
      </trkpt>
      <trkpt lat="68.61923" lon="17.64472">
        <ele>270.642919</ele>
        <time>2020-08-28T01:11:22.890Z</time>
      </trkpt>
      <trkpt lat="68.6192" lon="17.64463">
        <ele>270.614498</ele>
        <time>2020-08-28T01:11:23.500Z</time>
      </trkpt>
      <trkpt lat="68.61915" lon="17.64446">
        <ele>270.555821</ele>
        <time>2020-08-28T01:11:24.886Z</time>
      </trkpt>
      <trkpt lat="68.61909" lon="17.64427">
        <ele>270.488487</ele>
        <time>2020-08-28T01:11:26.466Z</time>
      </trkpt>
      <trkpt lat="68.61895" lon="17.6439">
        <ele>270.353867</ele>
        <time>2020-08-28T01:11:29.590Z</time>
      </trkpt>
      <trkpt lat="68.61884" lon="17.64366">
        <ele>270.253273</ele>
        <time>2020-08-28T01:11:32.005Z</time>
      </trkpt>
      <trkpt lat="68.61871" lon="17.64341">
        <ele>270.20308</ele>
        <time>2020-08-28T01:11:34.732Z</time>
      </trkpt>
      <trkpt lat="68.61854" lon="17.64314">
        <ele>270.179261</ele>
        <time>2020-08-28T01:11:38.103Z</time>
      </trkpt>
      <trkpt lat="68.61842" lon="17.643">
        <ele>270.163731</ele>
        <time>2020-08-28T01:11:40.360Z</time>
      </trkpt>
      <trkpt lat="68.6182" lon="17.6428">
        <ele>270.136194</ele>
        <time>2020-08-28T01:11:44.304Z</time>
      </trkpt>
      <trkpt lat="68.61817" lon="17.64277">
        <ele>270.131966</ele>
        <time>2020-08-28T01:11:44.928Z</time>
      </trkpt>
      <trkpt lat="68.61804" lon="17.64269">
        <ele>270.116189</ele>
        <time>2020-08-28T01:11:47.249Z</time>
      </trkpt>
      <trkpt lat="68.61693" lon="17.64223">
        <ele>270.000003</ele>
        <time>2020-08-28T01:12:07.170Z</time>
      </trkpt>
      <trkpt lat="68.61652" lon="17.64189">
        <ele>270.000003</ele>
        <time>2020-08-28T01:12:14.795Z</time>
      </trkpt>
      <trkpt lat="68.61618" lon="17.64139">
        <ele>270.000003</ele>
        <time>2020-08-28T01:12:21.674Z</time>
      </trkpt>
      <trkpt lat="68.61586" lon="17.6408">
        <ele>270.000003</ele>
        <time>2020-08-28T01:12:28.583Z</time>
      </trkpt>
      <trkpt lat="68.61558" lon="17.64028">
        <ele>270.000003</ele>
        <time>2020-08-28T01:12:34.658Z</time>
      </trkpt>
      <trkpt lat="68.61506" lon="17.63942">
        <ele>270.00593</ele>
        <time>2020-08-28T01:12:45.543Z</time>
      </trkpt>
      <trkpt lat="68.61463" lon="17.63891">
        <ele>270.011436</ele>
        <time>2020-08-28T01:12:53.895Z</time>
      </trkpt>
      <trkpt lat="68.61445" lon="17.63875">
        <ele>270.013695</ele>
        <time>2020-08-28T01:12:57.307Z</time>
      </trkpt>
      <trkpt lat="68.61426" lon="17.63862">
        <ele>270.016072</ele>
        <time>2020-08-28T01:13:00.917Z</time>
      </trkpt>
      <trkpt lat="68.61196" lon="17.63741">
        <ele>270.143569</ele>
        <time>2020-08-28T01:13:42.755Z</time>
      </trkpt>
      <trkpt lat="68.61145" lon="17.63729">
        <ele>270.370398</ele>
        <time>2020-08-28T01:13:51.884Z</time>
      </trkpt>
      <trkpt lat="68.61024" lon="17.63728">
        <ele>270.942338</ele>
        <time>2020-08-28T01:14:15.077Z</time>
      </trkpt>
      <trkpt lat="68.60949" lon="17.63689">
        <ele>272.581689</ele>
        <time>2020-08-28T01:14:33.282Z</time>
      </trkpt>
      <trkpt lat="68.60927" lon="17.63665">
        <ele>273.096507</ele>
        <time>2020-08-28T01:14:39.334Z</time>
      </trkpt>
      <trkpt lat="68.60915" lon="17.63648">
        <ele>273.383147</ele>
        <time>2020-08-28T01:14:43.535Z</time>
      </trkpt>
      <trkpt lat="68.60866" lon="17.63562">
        <ele>274.628402</ele>
        <time>2020-08-28T01:14:58.734Z</time>
      </trkpt>
      <trkpt lat="68.60794" lon="17.63415">
        <ele>275.903023</ele>
        <time>2020-08-28T01:15:22.532Z</time>
      </trkpt>
      <trkpt lat="68.60648" lon="17.63114">
        <ele>276.949393</ele>
        <time>2020-08-28T01:15:56.196Z</time>
      </trkpt>
      <trkpt lat="68.60577" lon="17.62947">
        <ele>276.683109</ele>
        <time>2020-08-28T01:16:10.673Z</time>
      </trkpt>
      <trkpt lat="68.60535" lon="17.62815">
        <ele>277.457064</ele>
        <time>2020-08-28T01:16:22.103Z</time>
      </trkpt>
      <trkpt lat="68.60485" lon="17.62639">
        <ele>278.451152</ele>
        <time>2020-08-28T01:16:40.290Z</time>
      </trkpt>
      <trkpt lat="68.60416" lon="17.62392">
        <ele>282.080618</ele>
        <time>2020-08-28T01:17:12.616Z</time>
      </trkpt>
      <trkpt lat="68.60386" lon="17.62297">
        <ele>283.913233</ele>
        <time>2020-08-28T01:17:27.366Z</time>
      </trkpt>
      <trkpt lat="68.60357" lon="17.62223">
        <ele>285.522079</ele>
        <time>2020-08-28T01:17:40.776Z</time>
      </trkpt>
      <trkpt lat="68.60308" lon="17.62142">
        <ele>288.389107</ele>
        <time>2020-08-28T01:18:00.062Z</time>
      </trkpt>
      <trkpt lat="68.60267" lon="17.62105">
        <ele>290.661932</ele>
        <time>2020-08-28T01:18:14.364Z</time>
      </trkpt>
      <trkpt lat="68.6009" lon="17.62009">
        <ele>302.097214</ele>
        <time>2020-08-28T01:19:19.809Z</time>
      </trkpt>
      <trkpt lat="68.60039" lon="17.61963">
        <ele>306.151019</ele>
        <time>2020-08-28T01:19:43.617Z</time>
      </trkpt>
      <trkpt lat="68.6" lon="17.61914">
        <ele>309.421715</ele>
        <time>2020-08-28T01:20:03.924Z</time>
      </trkpt>
      <trkpt lat="68.59891" lon="17.61754">
        <ele>322.32607</ele>
        <time>2020-08-28T01:21:08.262Z</time>
      </trkpt>
      <trkpt lat="68.59813" lon="17.6164">
        <ele>330.673759</ele>
        <time>2020-08-28T01:21:54.919Z</time>
      </trkpt>
      <trkpt lat="68.59749" lon="17.61541">
        <ele>336.501261</ele>
        <time>2020-08-28T01:22:30.069Z</time>
      </trkpt>
      <trkpt lat="68.59723" lon="17.61494">
        <ele>339.042054</ele>
        <time>2020-08-28T01:22:43.630Z</time>
      </trkpt>
      <trkpt lat="68.59716" lon="17.6148">
        <ele>339.746264</ele>
        <time>2020-08-28T01:22:47.818Z</time>
      </trkpt>
      <trkpt lat="68.59667" lon="17.6137">
        <ele>341.439349</ele>
        <time>2020-08-28T01:23:06.100Z</time>
      </trkpt>
      <trkpt lat="68.59625" lon="17.61241">
        <ele>339.819021</ele>
        <time>2020-08-28T01:23:16.438Z</time>
      </trkpt>
      <trkpt lat="68.59598" lon="17.61148">
        <ele>338.716153</ele>
        <time>2020-08-28T01:23:21.804Z</time>
      </trkpt>
      <trkpt lat="68.59567" lon="17.61026">
        <ele>336.188724</ele>
        <time>2020-08-28T01:23:27.980Z</time>
      </trkpt>
      <trkpt lat="68.59422" lon="17.60454">
        <ele>306.910753</ele>
        <time>2020-08-28T01:23:55.020Z</time>
      </trkpt>
      <trkpt lat="68.59382" lon="17.60357">
        <ele>300.62599</ele>
        <time>2020-08-28T01:24:00.761Z</time>
      </trkpt>
      <trkpt lat="68.5934" lon="17.60307">
        <ele>295.55456</ele>
        <time>2020-08-28T01:24:05.690Z</time>
      </trkpt>
      <trkpt lat="68.59289" lon="17.60298">
        <ele>291.778989</ele>
        <time>2020-08-28T01:24:11.330Z</time>
      </trkpt>
      <trkpt lat="68.59236" lon="17.60334">
        <ele>287.775194</ele>
        <time>2020-08-28T01:24:17.462Z</time>
      </trkpt>
      <trkpt lat="68.59214" lon="17.60363">
        <ele>285.998268</ele>
        <time>2020-08-28T01:24:20.262Z</time>
      </trkpt>
      <trkpt lat="68.59101" lon="17.60579">
        <ele>280.226584</ele>
        <time>2020-08-28T01:24:38.032Z</time>
      </trkpt>
      <trkpt lat="68.59047" lon="17.60652">
        <ele>278.585668</ele>
        <time>2020-08-28T01:24:47.286Z</time>
      </trkpt>
      <trkpt lat="68.58997" lon="17.60666">
        <ele>276.656335</ele>
        <time>2020-08-28T01:24:54.361Z</time>
      </trkpt>
      <trkpt lat="68.58943" lon="17.60628">
        <ele>273.793802</ele>
        <time>2020-08-28T01:25:01.780Z</time>
      </trkpt>
      <trkpt lat="68.5891" lon="17.6057">
        <ele>271.840156</ele>
        <time>2020-08-28T01:25:06.457Z</time>
      </trkpt>
      <trkpt lat="68.58891" lon="17.60511">
        <ele>270.364842</ele>
        <time>2020-08-28T01:25:09.837Z</time>
      </trkpt>
      <trkpt lat="68.58866" lon="17.60377">
        <ele>266.174373</ele>
        <time>2020-08-28T01:25:15.938Z</time>
      </trkpt>
      <trkpt lat="68.58862" lon="17.60325">
        <ele>263.996864</ele>
        <time>2020-08-28T01:25:18.060Z</time>
      </trkpt>
      <trkpt lat="68.58864" lon="17.602">
        <ele>258.916542</ele>
        <time>2020-08-28T01:25:22.900Z</time>
      </trkpt>
      <trkpt lat="68.58887" lon="17.60037">
        <ele>251.829136</ele>
        <time>2020-08-28T01:25:29.679Z</time>
      </trkpt>
      <trkpt lat="68.58924" lon="17.59841">
        <ele>244.580518</ele>
        <time>2020-08-28T01:25:38.407Z</time>
      </trkpt>
      <trkpt lat="68.58954" lon="17.59681">
        <ele>239.398099</ele>
        <time>2020-08-28T01:25:45.805Z</time>
      </trkpt>
      <trkpt lat="68.58986" lon="17.59482">
        <ele>233.709016</ele>
        <time>2020-08-28T01:25:55.314Z</time>
      </trkpt>
      <trkpt lat="68.58991" lon="17.59399">
        <ele>232.235062</ele>
        <time>2020-08-28T01:25:59.431Z</time>
      </trkpt>
      <trkpt lat="68.58991" lon="17.59319">
        <ele>230.838077</ele>
        <time>2020-08-28T01:26:03.245Z</time>
      </trkpt>
      <trkpt lat="68.58973" lon="17.59162">
        <ele>227.985056</ele>
        <time>2020-08-28T01:26:10.723Z</time>
      </trkpt>
      <trkpt lat="68.58952" lon="17.59079">
        <ele>226.229845</ele>
        <time>2020-08-28T01:26:15.112Z</time>
      </trkpt>
      <trkpt lat="68.58925" lon="17.5901">
        <ele>223.121946</ele>
        <time>2020-08-28T01:26:19.409Z</time>
      </trkpt>
      <trkpt lat="68.58891" lon="17.58956">
        <ele>219.583452</ele>
        <time>2020-08-28T01:26:23.879Z</time>
      </trkpt>
      <trkpt lat="68.58853" lon="17.58914">
        <ele>215.957272</ele>
        <time>2020-08-28T01:26:28.373Z</time>
      </trkpt>
      <trkpt lat="68.58678" lon="17.58758">
        <ele>197.245488</ele>
        <time>2020-08-28T01:26:48.232Z</time>
      </trkpt>
      <trkpt lat="68.58612" lon="17.58744">
        <ele>190.191642</ele>
        <time>2020-08-28T01:26:55.370Z</time>
      </trkpt>
      <trkpt lat="68.58587" lon="17.58761">
        <ele>188.44196</ele>
        <time>2020-08-28T01:26:58.102Z</time>
      </trkpt>
      <trkpt lat="68.58548" lon="17.58815">
        <ele>185.335255</ele>
        <time>2020-08-28T01:27:03.101Z</time>
      </trkpt>
      <trkpt lat="68.58525" lon="17.58876">
        <ele>183.119239</ele>
        <time>2020-08-28T01:27:06.755Z</time>
      </trkpt>
      <trkpt lat="68.58517" lon="17.58907">
        <ele>182.105529</ele>
        <time>2020-08-28T01:27:08.511Z</time>
      </trkpt>
      <trkpt lat="68.58458" lon="17.59217">
        <ele>174.005052</ele>
        <time>2020-08-28T01:27:23.899Z</time>
      </trkpt>
      <trkpt lat="68.58438" lon="17.5927">
        <ele>172.429973</ele>
        <time>2020-08-28T01:27:27.361Z</time>
      </trkpt>
      <trkpt lat="68.58398" lon="17.59332">
        <ele>169.775335</ele>
        <time>2020-08-28T01:27:32.760Z</time>
      </trkpt>
      <trkpt lat="68.58381" lon="17.59347">
        <ele>168.747122</ele>
        <time>2020-08-28T01:27:35.015Z</time>
      </trkpt>
      <trkpt lat="68.58366" lon="17.59359">
        <ele>167.843282</ele>
        <time>2020-08-28T01:27:36.733Z</time>
      </trkpt>
      <trkpt lat="68.58307" lon="17.59388">
        <ele>163.436564</ele>
        <time>2020-08-28T01:27:43.578Z</time>
      </trkpt>
      <trkpt lat="68.58263" lon="17.59435">
        <ele>159.831879</ele>
        <time>2020-08-28T01:27:48.794Z</time>
      </trkpt>
      <trkpt lat="68.58124" lon="17.59718">
        <ele>147.203118</ele>
        <time>2020-08-28T01:28:08.643Z</time>
      </trkpt>
      <trkpt lat="68.58083" lon="17.5979">
        <ele>143.778936</ele>
        <time>2020-08-28T01:28:14.059Z</time>
      </trkpt>
      <trkpt lat="68.57996" lon="17.59931">
        <ele>139.844255</ele>
        <time>2020-08-28T01:28:26.385Z</time>
      </trkpt>
      <trkpt lat="68.5798" lon="17.59957">
        <ele>139.453629</ele>
        <time>2020-08-28T01:28:28.762Z</time>
      </trkpt>
      <trkpt lat="68.57967" lon="17.59974">
        <ele>139.160095</ele>
        <time>2020-08-28T01:28:31.361Z</time>
      </trkpt>
      <trkpt lat="68.57956" lon="17.59987">
        <ele>138.895969</ele>
        <time>2020-08-28T01:28:32.923Z</time>
      </trkpt>
      <trkpt lat="68.57932" lon="17.60004">
        <ele>138.395922</ele>
        <time>2020-08-28T01:28:37.728Z</time>
      </trkpt>
      <trkpt lat="68.57869" lon="17.60013">
        <ele>137.858149</ele>
        <time>2020-08-28T01:28:50.481Z</time>
      </trkpt>
      <trkpt lat="68.57833" lon="17.59994">
        <ele>138.79922</ele>
        <time>2020-08-28T01:29:00.267Z</time>
      </trkpt>
      <trkpt lat="68.57799" lon="17.59955">
        <ele>139.760621</ele>
        <time>2020-08-28T01:29:13.310Z</time>
      </trkpt>
      <trkpt lat="68.57774" lon="17.5991">
        <ele>140.52379</ele>
        <time>2020-08-28T01:29:22.980Z</time>
      </trkpt>
      <trkpt lat="68.57743" lon="17.59829">
        <ele>141.642185</ele>
        <time>2020-08-28T01:29:34.142Z</time>
      </trkpt>
      <trkpt lat="68.57716" lon="17.59728">
        <ele>141.154444</ele>
        <time>2020-08-28T01:29:42.940Z</time>
      </trkpt>
      <trkpt lat="68.57697" lon="17.59592">
        <ele>139.460736</ele>
        <time>2020-08-28T01:29:50.684Z</time>
      </trkpt>
      <trkpt lat="68.57633" lon="17.58665">
        <ele>122.433885</ele>
        <time>2020-08-28T01:30:31.670Z</time>
      </trkpt>
      <trkpt lat="68.57622" lon="17.58557">
        <ele>120.199461</ele>
        <time>2020-08-28T01:30:36.456Z</time>
      </trkpt>
      <trkpt lat="68.576" lon="17.58435">
        <ele>117.476663</ele>
        <time>2020-08-28T01:30:42.459Z</time>
      </trkpt>
      <trkpt lat="68.57585" lon="17.5838">
        <ele>116.144484</ele>
        <time>2020-08-28T01:30:45.516Z</time>
      </trkpt>
      <trkpt lat="68.57563" lon="17.58323">
        <ele>115.154215</ele>
        <time>2020-08-28T01:30:49.257Z</time>
      </trkpt>
      <trkpt lat="68.57524" lon="17.58258">
        <ele>113.650737</ele>
        <time>2020-08-28T01:30:55.068Z</time>
      </trkpt>
      <trkpt lat="68.57189" lon="17.57961">
        <ele>102.372696</ele>
        <time>2020-08-28T01:31:43.153Z</time>
      </trkpt>
      <trkpt lat="68.5703" lon="17.57726">
        <ele>91.661761</ele>
        <time>2020-08-28T01:32:04.133Z</time>
      </trkpt>
      <trkpt lat="68.5699" lon="17.57673">
        <ele>88.371202</ele>
        <time>2020-08-28T01:32:09.172Z</time>
      </trkpt>
      <trkpt lat="68.56963" lon="17.57645">
        <ele>86.237295</ele>
        <time>2020-08-28T01:32:12.453Z</time>
      </trkpt>
      <trkpt lat="68.56937" lon="17.57625">
        <ele>84.283767</ele>
        <time>2020-08-28T01:32:15.440Z</time>
      </trkpt>
      <trkpt lat="68.56887" lon="17.57591">
        <ele>80.666865</ele>
        <time>2020-08-28T01:32:21.261Z</time>
      </trkpt>
      <trkpt lat="68.56847" lon="17.57552">
        <ele>77.712194</ele>
        <time>2020-08-28T01:32:26.114Z</time>
      </trkpt>
      <trkpt lat="68.56829" lon="17.57534">
        <ele>76.416594</ele>
        <time>2020-08-28T01:32:28.344Z</time>
      </trkpt>
      <trkpt lat="68.56822" lon="17.57529">
        <ele>75.889577</ele>
        <time>2020-08-28T01:32:29.183Z</time>
      </trkpt>
      <trkpt lat="68.56812" lon="17.57526">
        <ele>75.206235</ele>
        <time>2020-08-28T01:32:30.318Z</time>
      </trkpt>
      <trkpt lat="68.56756" lon="17.57529">
        <ele>71.333408</ele>
        <time>2020-08-28T01:32:36.936Z</time>
      </trkpt>
      <trkpt lat="68.56744" lon="17.57529">
        <ele>70.808773</ele>
        <time>2020-08-28T01:32:38.303Z</time>
      </trkpt>
      <trkpt lat="68.56724" lon="17.57523">
        <ele>69.99196</ele>
        <time>2020-08-28T01:32:40.727Z</time>
      </trkpt>
      <trkpt lat="68.56702" lon="17.57513">
        <ele>69.071642</ele>
        <time>2020-08-28T01:32:43.368Z</time>
      </trkpt>
      <trkpt lat="68.56653" lon="17.57488">
        <ele>66.99525</ele>
        <time>2020-08-28T01:32:49.627Z</time>
      </trkpt>
      <trkpt lat="68.56545" lon="17.57465">
        <ele>63.161451</ele>
        <time>2020-08-28T01:33:03.941Z</time>
      </trkpt>
      <trkpt lat="68.56494" lon="17.57446">
        <ele>62.068214</ele>
        <time>2020-08-28T01:33:11.281Z</time>
      </trkpt>
      <trkpt lat="68.56479" lon="17.57434">
        <ele>61.717703</ele>
        <time>2020-08-28T01:33:13.587Z</time>
      </trkpt>
      <trkpt lat="68.56395" lon="17.5731">
        <ele>59.621326</ele>
        <time>2020-08-28T01:33:27.361Z</time>
      </trkpt>
      <trkpt lat="68.56326" lon="17.57196">
        <ele>57.448559</ele>
        <time>2020-08-28T01:33:38.378Z</time>
      </trkpt>
      <trkpt lat="68.56324" lon="17.57202">
        <ele>57.381311</ele>
        <time>2020-08-28T01:33:38.799Z</time>
      </trkpt>
      <trkpt lat="68.56322" lon="17.57209">
        <ele>57.294444</ele>
        <time>2020-08-28T01:33:39.239Z</time>
      </trkpt>
      <trkpt lat="68.5632" lon="17.57215">
        <ele>57.203599</ele>
        <time>2020-08-28T01:33:39.715Z</time>
      </trkpt>
      <trkpt lat="68.56317" lon="17.57219">
        <ele>57.110465</ele>
        <time>2020-08-28T01:33:40.175Z</time>
      </trkpt>
      <trkpt lat="68.56307" lon="17.57219">
        <ele>56.85941</ele>
        <time>2020-08-28T01:33:41.370Z</time>
      </trkpt>
      <trkpt lat="68.56299" lon="17.57213">
        <ele>56.627874</ele>
        <time>2020-08-28T01:33:42.534Z</time>
      </trkpt>
      <trkpt lat="68.56288" lon="17.57205">
        <ele>56.324735</ele>
        <time>2020-08-28T01:33:44.116Z</time>
      </trkpt>
      <trkpt lat="68.56274" lon="17.57195">
        <ele>55.933266</ele>
        <time>2020-08-28T01:33:46.023Z</time>
      </trkpt>
      <trkpt lat="68.56239" lon="17.57166">
        <ele>54.882226</ele>
        <time>2020-08-28T01:33:50.732Z</time>
      </trkpt>
      <trkpt lat="68.56218" lon="17.57146">
        <ele>54.08351</ele>
        <time>2020-08-28T01:33:53.619Z</time>
      </trkpt>
      <trkpt lat="68.56201" lon="17.57129">
        <ele>53.442933</ele>
        <time>2020-08-28T01:33:55.961Z</time>
      </trkpt>
      <trkpt lat="68.56128" lon="17.57059">
        <ele>50.661566</ele>
        <time>2020-08-28T01:34:06.013Z</time>
      </trkpt>
      <trkpt lat="68.56125" lon="17.57058">
        <ele>50.566734</ele>
        <time>2020-08-28T01:34:06.311Z</time>
      </trkpt>
      <trkpt lat="68.5612" lon="17.57052">
        <ele>50.383794</ele>
        <time>2020-08-28T01:34:06.921Z</time>
      </trkpt>
      <trkpt lat="68.56103" lon="17.57017">
        <ele>49.604523</ele>
        <time>2020-08-28T01:34:09.711Z</time>
      </trkpt>
      <trkpt lat="68.56066" lon="17.56992">
        <ele>48.354028</ele>
        <time>2020-08-28T01:34:14.401Z</time>
      </trkpt>
      <trkpt lat="68.56039" lon="17.56959">
        <ele>47.47278</ele>
        <time>2020-08-28T01:34:18.292Z</time>
      </trkpt>
      <trkpt lat="68.56003" lon="17.56874">
        <ele>46.06614</ele>
        <time>2020-08-28T01:34:24.498Z</time>
      </trkpt>
      <trkpt lat="68.55985" lon="17.56822">
        <ele>45.303862</ele>
        <time>2020-08-28T01:34:27.913Z</time>
      </trkpt>
      <trkpt lat="68.55978" lon="17.56802">
        <ele>45.008031</ele>
        <time>2020-08-28T01:34:29.264Z</time>
      </trkpt>
      <trkpt lat="68.55953" lon="17.56738">
        <ele>44.000981</ele>
        <time>2020-08-28T01:34:34.034Z</time>
      </trkpt>
      <trkpt lat="68.55931" lon="17.56708">
        <ele>43.397991</ele>
        <time>2020-08-28T01:34:37.559Z</time>
      </trkpt>
      <trkpt lat="68.55922" lon="17.56693">
        <ele>43.286883</ele>
        <time>2020-08-28T01:34:39.051Z</time>
      </trkpt>
      <trkpt lat="68.55918" lon="17.56686">
        <ele>43.239835</ele>
        <time>2020-08-28T01:34:39.685Z</time>
      </trkpt>
      <trkpt lat="68.55899" lon="17.56626">
        <ele>42.938594</ele>
        <time>2020-08-28T01:34:43.922Z</time>
      </trkpt>
      <trkpt lat="68.5581" lon="17.56452">
        <ele>41.801621</ele>
        <time>2020-08-28T01:35:01.728Z</time>
      </trkpt>
      <trkpt lat="68.55734" lon="17.56345">
        <ele>40.193632</ele>
        <time>2020-08-28T01:35:15.293Z</time>
      </trkpt>
      <trkpt lat="68.55708" lon="17.56327">
        <ele>39.614811</ele>
        <time>2020-08-28T01:35:19.335Z</time>
      </trkpt>
      <trkpt lat="68.55706" lon="17.56316">
        <ele>39.507126</ele>
        <time>2020-08-28T01:35:20.019Z</time>
      </trkpt>
      <trkpt lat="68.55703" lon="17.56305">
        <ele>39.407046</ele>
        <time>2020-08-28T01:35:20.628Z</time>
      </trkpt>
      <trkpt lat="68.55688" lon="17.56274">
        <ele>39.006027</ele>
        <time>2020-08-28T01:35:23.365Z</time>
      </trkpt>
      <trkpt lat="68.55666" lon="17.56209">
        <ele>38.308992</ele>
        <time>2020-08-28T01:35:27.631Z</time>
      </trkpt>
      <trkpt lat="68.55649" lon="17.56174">
        <ele>37.858693</ele>
        <time>2020-08-28T01:35:30.271Z</time>
      </trkpt>
      <trkpt lat="68.55633" lon="17.5614">
        <ele>36.897672</ele>
        <time>2020-08-28T01:35:32.867Z</time>
      </trkpt>
      <trkpt lat="68.55626" lon="17.56125">
        <ele>36.419408</ele>
        <time>2020-08-28T01:35:33.897Z</time>
      </trkpt>
      <trkpt lat="68.55597" lon="17.56064">
        <ele>34.415052</ele>
        <time>2020-08-28T01:35:38.282Z</time>
      </trkpt>
      <trkpt lat="68.55567" lon="17.55994">
        <ele>32.194508</ele>
        <time>2020-08-28T01:35:43.085Z</time>
      </trkpt>
      <trkpt lat="68.55558" lon="17.55975">
        <ele>31.574145</ele>
        <time>2020-08-28T01:35:44.327Z</time>
      </trkpt>
      <trkpt lat="68.55547" lon="17.55958">
        <ele>30.909927</ele>
        <time>2020-08-28T01:35:45.800Z</time>
      </trkpt>
      <trkpt lat="68.55532" lon="17.55937">
        <ele>29.960885</ele>
        <time>2020-08-28T01:35:47.804Z</time>
      </trkpt>
      <trkpt lat="68.55522" lon="17.55924">
        <ele>29.324148</ele>
        <time>2020-08-28T01:35:49.075Z</time>
      </trkpt>
      <trkpt lat="68.55479" lon="17.5588">
        <ele>26.920103</ele>
        <time>2020-08-28T01:35:54.412Z</time>
      </trkpt>
      <trkpt lat="68.55434" lon="17.55849">
        <ele>24.599077</ele>
        <time>2020-08-28T01:36:00.026Z</time>
      </trkpt>
      <trkpt lat="68.55422" lon="17.55848">
        <ele>24.02437</ele>
        <time>2020-08-28T01:36:01.317Z</time>
      </trkpt>
      <trkpt lat="68.55405" lon="17.55845">
        <ele>23.170981</ele>
        <time>2020-08-28T01:36:03.494Z</time>
      </trkpt>
      <trkpt lat="68.55401" lon="17.55844">
        <ele>22.987576</ele>
        <time>2020-08-28T01:36:03.994Z</time>
      </trkpt>
      <trkpt lat="68.55397" lon="17.55842">
        <ele>22.752617</ele>
        <time>2020-08-28T01:36:04.568Z</time>
      </trkpt>
      <trkpt lat="68.55388" lon="17.55837">
        <ele>22.324997</ele>
        <time>2020-08-28T01:36:05.602Z</time>
      </trkpt>
      <trkpt lat="68.55385" lon="17.55833">
        <ele>22.152912</ele>
        <time>2020-08-28T01:36:06.015Z</time>
      </trkpt>
      <trkpt lat="68.55378" lon="17.55827">
        <ele>21.796063</ele>
        <time>2020-08-28T01:36:06.956Z</time>
      </trkpt>
      <trkpt lat="68.55088" lon="17.55828">
        <ele>10.709412</ele>
        <time>2020-08-28T01:36:46.403Z</time>
      </trkpt>
      <trkpt lat="68.55027" lon="17.55807">
        <ele>8.335401</ele>
        <time>2020-08-28T01:36:54.382Z</time>
      </trkpt>
      <trkpt lat="68.55009" lon="17.55803">
        <ele>7.659591</ele>
        <time>2020-08-28T01:36:56.714Z</time>
      </trkpt>
      <trkpt lat="68.55013" lon="17.5579">
        <ele>7.419419</ele>
        <time>2020-08-28T01:36:57.558Z</time>
      </trkpt>
      <trkpt lat="68.55002" lon="17.55785">
        <ele>6.991797</ele>
        <time>2020-08-28T01:36:58.924Z</time>
      </trkpt>
      <trkpt lat="68.54952" lon="17.55765">
        <ele>5.398624</ele>
        <time>2020-08-28T01:37:05.422Z</time>
      </trkpt>
      <trkpt lat="68.54935" lon="17.55746">
        <ele>5.028787</ele>
        <time>2020-08-28T01:37:07.852Z</time>
      </trkpt>
      <trkpt lat="68.54924" lon="17.55725">
        <ele>4.771444</ele>
        <time>2020-08-28T01:37:09.586Z</time>
      </trkpt>
      <trkpt lat="68.54925" lon="17.55717">
        <ele>4.709992</ele>
        <time>2020-08-28T01:37:09.995Z</time>
      </trkpt>
      <trkpt lat="68.54923" lon="17.55695">
        <ele>4.543422</ele>
        <time>2020-08-28T01:37:11.180Z</time>
      </trkpt>
      <trkpt lat="68.5492" lon="17.55691">
        <ele>4.492355</ele>
        <time>2020-08-28T01:37:11.536Z</time>
      </trkpt>
      <trkpt lat="68.54916" lon="17.55688">
        <ele>4.408137</ele>
        <time>2020-08-28T01:37:12.098Z</time>
      </trkpt>
      <trkpt lat="68.54908" lon="17.55699">
        <ele>4.236661</ele>
        <time>2020-08-28T01:37:13.242Z</time>
      </trkpt>
      <trkpt lat="68.54908" lon="17.55729">
        <ele>4.016297</ele>
        <time>2020-08-28T01:37:14.757Z</time>
      </trkpt>
      <trkpt lat="68.5491" lon="17.55735">
        <ele>3.95822</ele>
        <time>2020-08-28T01:37:15.181Z</time>
      </trkpt>
      <trkpt lat="68.54899" lon="17.55787">
        <ele>3.518945</ele>
        <time>2020-08-28T01:37:18.302Z</time>
      </trkpt>
      <trkpt lat="68.54881" lon="17.55827">
        <ele>3.068833</ele>
        <time>2020-08-28T01:37:21.997Z</time>
      </trkpt>
      <trkpt lat="68.54868" lon="17.55853">
        <ele>2.759148</ele>
        <time>2020-08-28T01:37:24.609Z</time>
      </trkpt>
      <trkpt lat="68.54829" lon="17.55921">
        <ele>2.279764</ele>
        <time>2020-08-28T01:37:32.752Z</time>
      </trkpt>
      <trkpt lat="68.54833" lon="17.55938">
        <ele>2.298937</ele>
        <time>2020-08-28T01:37:34.475Z</time>
      </trkpt>
      <trkpt lat="68.54724" lon="17.56125">
        <ele>2.617173</ele>
        <time>2020-08-28T01:38:00.633Z</time>
      </trkpt>
      <trkpt lat="68.54666" lon="17.56237">
        <ele>2.50702</ele>
        <time>2020-08-28T01:38:13.662Z</time>
      </trkpt>
      <trkpt lat="68.54653" lon="17.56263">
        <ele>2.453536</ele>
        <time>2020-08-28T01:38:17.227Z</time>
      </trkpt>
      <trkpt lat="68.54645" lon="17.56271">
        <ele>2.421717</ele>
        <time>2020-08-28T01:38:18.716Z</time>
      </trkpt>
      <trkpt lat="68.54622" lon="17.56307">
        <ele>2.330659</ele>
        <time>2020-08-28T01:38:23.432Z</time>
      </trkpt>
      <trkpt lat="68.54606" lon="17.56336">
        <ele>2.262481</ele>
        <time>2020-08-28T01:38:26.744Z</time>
      </trkpt>
      <trkpt lat="68.5459" lon="17.56361">
        <ele>2.200013</ele>
        <time>2020-08-28T01:38:29.906Z</time>
      </trkpt>
      <trkpt lat="68.54558" lon="17.56422">
        <ele>2.065233</ele>
        <time>2020-08-28T01:38:36.422Z</time>
      </trkpt>
      <trkpt lat="68.54549" lon="17.5643">
        <ele>2.038216</ele>
        <time>2020-08-28T01:38:38.065Z</time>
      </trkpt>
      <trkpt lat="68.54547" lon="17.56406">
        <ele>2.018339</ele>
        <time>2020-08-28T01:38:39.506Z</time>
      </trkpt>
      <trkpt lat="68.54525" lon="17.56426">
        <ele>1.969111</ele>
        <time>2020-08-28T01:38:43.060Z</time>
      </trkpt>
      <trkpt lat="68.54409" lon="17.56531">
        <ele>1.704969</ele>
        <time>2020-08-28T01:39:04.602Z</time>
      </trkpt>
      <trkpt lat="68.54342" lon="17.56656">
        <ele>1.967258</ele>
        <time>2020-08-28T01:39:19.377Z</time>
      </trkpt>
      <trkpt lat="68.54271" lon="17.56824">
        <ele>2.436891</ele>
        <time>2020-08-28T01:39:37.691Z</time>
      </trkpt>
      <trkpt lat="68.54222" lon="17.5694">
        <ele>3.117908</ele>
        <time>2020-08-28T01:39:51.717Z</time>
      </trkpt>
      <trkpt lat="68.54171" lon="17.5706">
        <ele>4.046829</ele>
        <time>2020-08-28T01:40:06.785Z</time>
      </trkpt>
      <trkpt lat="68.54132" lon="17.57145">
        <ele>4.74044</ele>
        <time>2020-08-28T01:40:18.428Z</time>
      </trkpt>
      <trkpt lat="68.54095" lon="17.57226">
        <ele>5.357775</ele>
        <time>2020-08-28T01:40:29.409Z</time>
      </trkpt>
      <trkpt lat="68.54003" lon="17.57363">
        <ele>6.604099</ele>
        <time>2020-08-28T01:40:51.785Z</time>
      </trkpt>
      <trkpt lat="68.53906" lon="17.57451">
        <ele>8.074014</ele>
        <time>2020-08-28T01:41:13.203Z</time>
      </trkpt>
      <trkpt lat="68.53856" lon="17.57461">
        <ele>8.912474</ele>
        <time>2020-08-28T01:41:24.624Z</time>
      </trkpt>
      <trkpt lat="68.5385" lon="17.57459">
        <ele>9.013195</ele>
        <time>2020-08-28T01:41:25.789Z</time>
      </trkpt>
      <trkpt lat="68.53824" lon="17.57459">
        <ele>9.446457</ele>
        <time>2020-08-28T01:41:32.622Z</time>
      </trkpt>
      <trkpt lat="68.53804" lon="17.57453">
        <ele>9.773445</ele>
        <time>2020-08-28T01:41:37.167Z</time>
      </trkpt>
      <trkpt lat="68.53783" lon="17.57445">
        <ele>10.136581</ele>
        <time>2020-08-28T01:41:42.691Z</time>
      </trkpt>
      <trkpt lat="68.53769" lon="17.57438">
        <ele>10.495254</ele>
        <time>2020-08-28T01:41:46.077Z</time>
      </trkpt>
      <trkpt lat="68.53763" lon="17.57434">
        <ele>10.677686</ele>
        <time>2020-08-28T01:41:48.125Z</time>
      </trkpt>
      <trkpt lat="68.53717" lon="17.57385">
        <ele>12.169584</ele>
        <time>2020-08-28T01:42:00.662Z</time>
      </trkpt>
      <trkpt lat="68.53693" lon="17.57354">
        <ele>12.952239</ele>
        <time>2020-08-28T01:42:08.158Z</time>
      </trkpt>
      <trkpt lat="68.53661" lon="17.57304">
        <ele>14.058374</ele>
        <time>2020-08-28T01:42:18.573Z</time>
      </trkpt>
      <trkpt lat="68.53606" lon="17.57251">
        <ele>16.118164</ele>
        <time>2020-08-28T01:42:34.617Z</time>
      </trkpt>
      <trkpt lat="68.53589" lon="17.57243">
        <ele>17.327483</ele>
        <time>2020-08-28T01:42:39.277Z</time>
      </trkpt>
      <trkpt lat="68.53571" lon="17.57239">
        <ele>18.6197</ele>
        <time>2020-08-28T01:42:44.935Z</time>
      </trkpt>
      <trkpt lat="68.53553" lon="17.57238">
        <ele>19.901376</ele>
        <time>2020-08-28T01:42:51.407Z</time>
      </trkpt>
      <trkpt lat="68.53483" lon="17.57236">
        <ele>24.895994</ele>
        <time>2020-08-28T01:43:20.901Z</time>
      </trkpt>
      <trkpt lat="68.53438" lon="17.57238">
        <ele>28.166231</ele>
        <time>2020-08-28T01:43:43.097Z</time>
      </trkpt>
      <trkpt lat="68.5338" lon="17.57256">
        <ele>33.962636</ele>
        <time>2020-08-28T01:44:14.406Z</time>
      </trkpt>
      <trkpt lat="68.53274" lon="17.57281">
        <ele>44.91627</ele>
        <time>2020-08-28T01:45:12.638Z</time>
      </trkpt>
      <trkpt lat="68.53214" lon="17.57263">
        <ele>47.920887</ele>
        <time>2020-08-28T01:45:37.654Z</time>
      </trkpt>
      <trkpt lat="68.5317" lon="17.57229">
        <ele>49.052075</ele>
        <time>2020-08-28T01:45:51.034Z</time>
      </trkpt>
      <trkpt lat="68.53125" lon="17.5717">
        <ele>50.298547</ele>
        <time>2020-08-28T01:46:01.076Z</time>
      </trkpt>
      <trkpt lat="68.53052" lon="17.57025">
        <ele>49.333262</ele>
        <time>2020-08-28T01:46:13.457Z</time>
      </trkpt>
      <trkpt lat="68.53028" lon="17.56996">
        <ele>48.221592</ele>
        <time>2020-08-28T01:46:16.666Z</time>
      </trkpt>
      <trkpt lat="68.52846" lon="17.5683">
        <ele>38.89724</ele>
        <time>2020-08-28T01:46:39.684Z</time>
      </trkpt>
      <trkpt lat="68.52829" lon="17.56815">
        <ele>37.931228</ele>
        <time>2020-08-28T01:46:41.715Z</time>
      </trkpt>
      <trkpt lat="68.52789" lon="17.56779">
        <ele>35.593002</ele>
        <time>2020-08-28T01:46:46.707Z</time>
      </trkpt>
      <trkpt lat="68.52732" lon="17.5674">
        <ele>32.569494</ele>
        <time>2020-08-28T01:46:53.806Z</time>
      </trkpt>
      <trkpt lat="68.52687" lon="17.56721">
        <ele>30.505416</ele>
        <time>2020-08-28T01:46:59.325Z</time>
      </trkpt>
      <trkpt lat="68.52637" lon="17.56701">
        <ele>28.201844</ele>
        <time>2020-08-28T01:47:05.700Z</time>
      </trkpt>
      <trkpt lat="68.5253" lon="17.56664">
        <ele>23.357288</ele>
        <time>2020-08-28T01:47:19.107Z</time>
      </trkpt>
      <trkpt lat="68.52377" lon="17.56614">
        <ele>17.115774</ele>
        <time>2020-08-28T01:47:38.132Z</time>
      </trkpt>
      <trkpt lat="68.52305" lon="17.566">
        <ele>15.723225</ele>
        <time>2020-08-28T01:47:47.434Z</time>
      </trkpt>
      <trkpt lat="68.5223" lon="17.56601">
        <ele>14.256919</ele>
        <time>2020-08-28T01:47:59.258Z</time>
      </trkpt>
      <trkpt lat="68.52054" lon="17.56637">
        <ele>17.262335</ele>
        <time>2020-08-28T01:48:43.277Z</time>
      </trkpt>
      <trkpt lat="68.52014" lon="17.56645">
        <ele>17.939401</ele>
        <time>2020-08-28T01:48:53.593Z</time>
      </trkpt>
      <trkpt lat="68.5199" lon="17.5665">
        <ele>18.316451</ele>
        <time>2020-08-28T01:48:59.495Z</time>
      </trkpt>
      <trkpt lat="68.51968" lon="17.5665">
        <ele>18.658128</ele>
        <time>2020-08-28T01:49:04.807Z</time>
      </trkpt>
      <trkpt lat="68.51964" lon="17.5665">
        <ele>18.717478</ele>
        <time>2020-08-28T01:49:05.715Z</time>
      </trkpt>
      <trkpt lat="68.51953" lon="17.56645">
        <ele>18.898795</ele>
        <time>2020-08-28T01:49:08.240Z</time>
      </trkpt>
      <trkpt lat="68.51917" lon="17.56615">
        <ele>19.481162</ele>
        <time>2020-08-28T01:49:16.374Z</time>
      </trkpt>
      <trkpt lat="68.51895" lon="17.56584">
        <ele>19.869801</ele>
        <time>2020-08-28T01:49:21.892Z</time>
      </trkpt>
      <trkpt lat="68.51822" lon="17.5644">
        <ele>21.392257</ele>
        <time>2020-08-28T01:49:40.243Z</time>
      </trkpt>
      <trkpt lat="68.51796" lon="17.56374">
        <ele>22.030806</ele>
        <time>2020-08-28T01:49:48.180Z</time>
      </trkpt>
      <trkpt lat="68.51743" lon="17.56218">
        <ele>23.397234</ele>
        <time>2020-08-28T01:50:08.347Z</time>
      </trkpt>
      <trkpt lat="68.51711" lon="17.56129">
        <ele>24.196552</ele>
        <time>2020-08-28T01:50:20.714Z</time>
      </trkpt>
      <trkpt lat="68.51667" lon="17.56033">
        <ele>25.180071</ele>
        <time>2020-08-28T01:50:35.120Z</time>
      </trkpt>
      <trkpt lat="68.51618" lon="17.55937">
        <ele>26.243852</ele>
        <time>2020-08-28T01:50:49.768Z</time>
      </trkpt>
      <trkpt lat="68.51616" lon="17.55934">
        <ele>26.27307</ele>
        <time>2020-08-28T01:50:49.962Z</time>
      </trkpt>
      <trkpt lat="68.5152" lon="17.5575">
        <ele>25.019786</ele>
        <time>2020-08-28T01:51:09.307Z</time>
      </trkpt>
      <trkpt lat="68.51499" lon="17.5571">
        <ele>24.585058</ele>
        <time>2020-08-28T01:51:12.736Z</time>
      </trkpt>
      <trkpt lat="68.51379" lon="17.55484">
        <ele>20.343589</ele>
        <time>2020-08-28T01:51:31.422Z</time>
      </trkpt>
      <trkpt lat="68.51347" lon="17.55417">
        <ele>18.845314</ele>
        <time>2020-08-28T01:51:36.384Z</time>
      </trkpt>
      <trkpt lat="68.51331" lon="17.55365">
        <ele>17.909381</ele>
        <time>2020-08-28T01:51:39.520Z</time>
      </trkpt>
      <trkpt lat="68.51311" lon="17.55272">
        <ele>16.631714</ele>
        <time>2020-08-28T01:51:44.735Z</time>
      </trkpt>
      <trkpt lat="68.513" lon="17.55178">
        <ele>15.864049</ele>
        <time>2020-08-28T01:51:49.563Z</time>
      </trkpt>
      <trkpt lat="68.51294" lon="17.55091">
        <ele>15.16647</ele>
        <time>2020-08-28T01:51:53.990Z</time>
      </trkpt>
      <trkpt lat="68.51291" lon="17.55046">
        <ele>14.814796</ele>
        <time>2020-08-28T01:51:56.636Z</time>
      </trkpt>
      <trkpt lat="68.51279" lon="17.54943">
        <ele>13.961205</ele>
        <time>2020-08-28T01:52:02.309Z</time>
      </trkpt>
      <trkpt lat="68.51256" lon="17.54852">
        <ele>13.097084</ele>
        <time>2020-08-28T01:52:08.102Z</time>
      </trkpt>
      <trkpt lat="68.51229" lon="17.54795">
        <ele>13.236468</ele>
        <time>2020-08-28T01:52:13.062Z</time>
      </trkpt>
      <trkpt lat="68.51194" lon="17.54749">
        <ele>13.466073</ele>
        <time>2020-08-28T01:52:20.072Z</time>
      </trkpt>
      <trkpt lat="68.51087" lon="17.5463">
        <ele>14.253911</ele>
        <time>2020-08-28T01:52:46.170Z</time>
      </trkpt>
      <trkpt lat="68.51052" lon="17.54595">
        <ele>15.059881</ele>
        <time>2020-08-28T01:52:55.542Z</time>
      </trkpt>
      <trkpt lat="68.51033" lon="17.5458">
        <ele>15.485813</ele>
        <time>2020-08-28T01:53:00.880Z</time>
      </trkpt>
      <trkpt lat="68.50969" lon="17.54558">
        <ele>16.88038</ele>
        <time>2020-08-28T01:53:17.299Z</time>
      </trkpt>
      <trkpt lat="68.50921" lon="17.54536">
        <ele>17.950651</ele>
        <time>2020-08-28T01:53:30.008Z</time>
      </trkpt>
      <trkpt lat="68.50901" lon="17.54522">
        <ele>18.063492</ele>
        <time>2020-08-28T01:53:35.312Z</time>
      </trkpt>
      <trkpt lat="68.50879" lon="17.545">
        <ele>18.134788</ele>
        <time>2020-08-28T01:53:40.125Z</time>
      </trkpt>
      <trkpt lat="68.50729" lon="17.54264">
        <ele>18.678304</ele>
        <time>2020-08-28T01:54:09.449Z</time>
      </trkpt>
      <trkpt lat="68.50704" lon="17.54248">
        <ele>18.766925</ele>
        <time>2020-08-28T01:54:14.162Z</time>
      </trkpt>
      <trkpt lat="68.50676" lon="17.54252">
        <ele>18.863993</ele>
        <time>2020-08-28T01:54:19.410Z</time>
      </trkpt>
      <trkpt lat="68.50653" lon="17.54272">
        <ele>18.949177</ele>
        <time>2020-08-28T01:54:24.126Z</time>
      </trkpt>
      <trkpt lat="68.50631" lon="17.543">
        <ele>19.032752</ele>
        <time>2020-08-28T01:54:28.983Z</time>
      </trkpt>
      <trkpt lat="68.50622" lon="17.54315">
        <ele>19.071186</ele>
        <time>2020-08-28T01:54:31.186Z</time>
      </trkpt>
      <trkpt lat="68.50566" lon="17.54414">
        <ele>19.214299</ele>
        <time>2020-08-28T01:54:45.098Z</time>
      </trkpt>
      <trkpt lat="68.50551" lon="17.5444">
        <ele>19.229175</ele>
        <time>2020-08-28T01:54:48.664Z</time>
      </trkpt>
      <trkpt lat="68.50528" lon="17.54474">
        <ele>19.250148</ele>
        <time>2020-08-28T01:54:53.816Z</time>
      </trkpt>
      <trkpt lat="68.50521" lon="17.54482">
        <ele>19.256333</ele>
        <time>2020-08-28T01:54:55.346Z</time>
      </trkpt>
      <trkpt lat="68.50516" lon="17.54488">
        <ele>19.260487</ele>
        <time>2020-08-28T01:54:56.501Z</time>
      </trkpt>
      <trkpt lat="68.50496" lon="17.5451">
        <ele>19.278064</ele>
        <time>2020-08-28T01:55:00.636Z</time>
      </trkpt>
      <trkpt lat="68.50477" lon="17.54528">
        <ele>19.294794</ele>
        <time>2020-08-28T01:55:04.298Z</time>
      </trkpt>
      <trkpt lat="68.50458" lon="17.54541">
        <ele>19.310223</ele>
        <time>2020-08-28T01:55:07.181Z</time>
      </trkpt>
      <trkpt lat="68.50438" lon="17.54551">
        <ele>19.326929</ele>
        <time>2020-08-28T01:55:10.448Z</time>
      </trkpt>
      <trkpt lat="68.50421" lon="17.54557">
        <ele>19.251192</ele>
        <time>2020-08-28T01:55:12.823Z</time>
      </trkpt>
      <trkpt lat="68.50387" lon="17.54563">
        <ele>18.935485</ele>
        <time>2020-08-28T01:55:17.935Z</time>
      </trkpt>
      <trkpt lat="68.50337" lon="17.54552">
        <ele>18.476924</ele>
        <time>2020-08-28T01:55:25.551Z</time>
      </trkpt>
      <trkpt lat="68.503" lon="17.54533">
        <ele>18.129508</ele>
        <time>2020-08-28T01:55:31.294Z</time>
      </trkpt>
      <trkpt lat="68.50282" lon="17.54524">
        <ele>17.967117</ele>
        <time>2020-08-28T01:55:33.965Z</time>
      </trkpt>
      <trkpt lat="68.50266" lon="17.54515">
        <ele>17.812178</ele>
        <time>2020-08-28T01:55:36.680Z</time>
      </trkpt>
      <trkpt lat="68.50162" lon="17.5446">
        <ele>19.217698</ele>
        <time>2020-08-28T01:55:56.874Z</time>
      </trkpt>
      <trkpt lat="68.50097" lon="17.54425">
        <ele>20.318152</ele>
        <time>2020-08-28T01:56:15.299Z</time>
      </trkpt>
      <trkpt lat="68.50067" lon="17.54408">
        <ele>20.940954</ele>
        <time>2020-08-28T01:56:24.611Z</time>
      </trkpt>
      <trkpt lat="68.50014" lon="17.54358">
        <ele>22.458304</ele>
        <time>2020-08-28T01:56:40.008Z</time>
      </trkpt>
      <trkpt lat="68.5" lon="17.54337">
        <ele>22.894759</ele>
        <time>2020-08-28T01:56:44.568Z</time>
      </trkpt>
      <trkpt lat="68.49988" lon="17.54317">
        <ele>23.282584</ele>
        <time>2020-08-28T01:56:48.246Z</time>
      </trkpt>
      <trkpt lat="68.49962" lon="17.54265">
        <ele>24.155232</ele>
        <time>2020-08-28T01:56:56.376Z</time>
      </trkpt>
      <trkpt lat="68.49952" lon="17.54241">
        <ele>24.524699</ele>
        <time>2020-08-28T01:57:00.303Z</time>
      </trkpt>
      <trkpt lat="68.4994" lon="17.54208">
        <ele>24.987034</ele>
        <time>2020-08-28T01:57:04.284Z</time>
      </trkpt>
      <trkpt lat="68.49904" lon="17.54079">
        <ele>25.989319</ele>
        <time>2020-08-28T01:57:18.993Z</time>
      </trkpt>
      <trkpt lat="68.49894" lon="17.53985">
        <ele>26.379385</ele>
        <time>2020-08-28T01:57:27.212Z</time>
      </trkpt>
      <trkpt lat="68.49893" lon="17.53957">
        <ele>26.495006</ele>
        <time>2020-08-28T01:57:28.917Z</time>
      </trkpt>
      <trkpt lat="68.49891" lon="17.53832">
        <ele>26.990694</ele>
        <time>2020-08-28T01:57:37.977Z</time>
      </trkpt>
      <trkpt lat="68.49883" lon="17.53707">
        <ele>27.497164</ele>
        <time>2020-08-28T01:57:47.142Z</time>
      </trkpt>
      <trkpt lat="68.49879" lon="17.53677">
        <ele>27.495055</ele>
        <time>2020-08-28T01:57:49.511Z</time>
      </trkpt>
      <trkpt lat="68.4987" lon="17.53619">
        <ele>27.354107</ele>
        <time>2020-08-28T01:57:54.107Z</time>
      </trkpt>
      <trkpt lat="68.49857" lon="17.53565">
        <ele>27.210767</ele>
        <time>2020-08-28T01:57:58.766Z</time>
      </trkpt>
      <trkpt lat="68.49839" lon="17.53502">
        <ele>27.032974</ele>
        <time>2020-08-28T01:58:04.000Z</time>
      </trkpt>
      <trkpt lat="68.4978" lon="17.5332">
        <ele>26.49331</ele>
        <time>2020-08-28T01:58:17.315Z</time>
      </trkpt>
      <trkpt lat="68.49769" lon="17.53283">
        <ele>26.363312</ele>
        <time>2020-08-28T01:58:19.694Z</time>
      </trkpt>
      <trkpt lat="68.49759" lon="17.53247">
        <ele>26.229101</ele>
        <time>2020-08-28T01:58:22.027Z</time>
      </trkpt>
      <trkpt lat="68.49751" lon="17.53213">
        <ele>26.110321</ele>
        <time>2020-08-28T01:58:24.209Z</time>
      </trkpt>
      <trkpt lat="68.49738" lon="17.53134">
        <ele>25.851754</ele>
        <time>2020-08-28T01:58:29.056Z</time>
      </trkpt>
      <trkpt lat="68.49734" lon="17.53092">
        <ele>25.719291</ele>
        <time>2020-08-28T01:58:31.523Z</time>
      </trkpt>
      <trkpt lat="68.49731" lon="17.53049">
        <ele>25.590923</ele>
        <time>2020-08-28T01:58:33.979Z</time>
      </trkpt>
      <trkpt lat="68.4973" lon="17.52992">
        <ele>25.418992</ele>
        <time>2020-08-28T01:58:37.362Z</time>
      </trkpt>
      <trkpt lat="68.49732" lon="17.52876">
        <ele>25.072363</ele>
        <time>2020-08-28T01:58:44.386Z</time>
      </trkpt>
      <trkpt lat="68.49732" lon="17.52812">
        <ele>25.101497</ele>
        <time>2020-08-28T01:58:48.785Z</time>
      </trkpt>
      <trkpt lat="68.49723" lon="17.52604">
        <ele>25.828853</ele>
        <time>2020-08-28T01:59:05.747Z</time>
      </trkpt>
      <trkpt lat="68.49697" lon="17.52427">
        <ele>26.493111</ele>
        <time>2020-08-28T01:59:23.932Z</time>
      </trkpt>
      <trkpt lat="68.49671" lon="17.52325">
        <ele>26.155966</ele>
        <time>2020-08-28T01:59:31.084Z</time>
      </trkpt>
      <trkpt lat="68.49617" lon="17.52185">
        <ele>24.517388</ele>
        <time>2020-08-28T01:59:41.460Z</time>
      </trkpt>
      <trkpt lat="68.49594" lon="17.52144">
        <ele>23.909423</ele>
        <time>2020-08-28T01:59:45.299Z</time>
      </trkpt>
      <trkpt lat="68.4959" lon="17.52137">
        <ele>23.810301</ele>
        <time>2020-08-28T01:59:45.784Z</time>
      </trkpt>
      <trkpt lat="68.49545" lon="17.52071">
        <ele>22.737008</ele>
        <time>2020-08-28T01:59:52.440Z</time>
      </trkpt>
      <trkpt lat="68.49484" lon="17.51996">
        <ele>22.417307</ele>
        <time>2020-08-28T02:00:01.345Z</time>
      </trkpt>
      <trkpt lat="68.49434" lon="17.51945">
        <ele>22.164379</ele>
        <time>2020-08-28T02:00:09.815Z</time>
      </trkpt>
      <trkpt lat="68.494" lon="17.51923">
        <ele>21.996213</ele>
        <time>2020-08-28T02:00:17.705Z</time>
      </trkpt>
      <trkpt lat="68.49359" lon="17.51902">
        <ele>22.879086</ele>
        <time>2020-08-28T02:00:29.034Z</time>
      </trkpt>
      <trkpt lat="68.4935" lon="17.51897">
        <ele>23.351223</ele>
        <time>2020-08-28T02:00:32.040Z</time>
      </trkpt>
      <trkpt lat="68.49284" lon="17.51868">
        <ele>26.654695</ele>
        <time>2020-08-28T02:00:55.668Z</time>
      </trkpt>
      <trkpt lat="68.49136" lon="17.51804">
        <ele>33.974377</ele>
        <time>2020-08-28T02:01:50.180Z</time>
      </trkpt>
      <trkpt lat="68.49066" lon="17.51823">
        <ele>37.408501</ele>
        <time>2020-08-28T02:02:13.633Z</time>
      </trkpt>
      <trkpt lat="68.49017" lon="17.5188">
        <ele>39.72892</ele>
        <time>2020-08-28T02:02:29.563Z</time>
      </trkpt>
      <trkpt lat="68.48999" lon="17.51913">
        <ele>40.23918</ele>
        <time>2020-08-28T02:02:36.016Z</time>
      </trkpt>
      <trkpt lat="68.48975" lon="17.51959">
        <ele>40.947157</ele>
        <time>2020-08-28T02:02:44.165Z</time>
      </trkpt>
      <trkpt lat="68.48821" lon="17.52273">
        <ele>44.089825</ele>
        <time>2020-08-28T02:03:29.392Z</time>
      </trkpt>
      <trkpt lat="68.4876" lon="17.52382">
        <ele>44.348689</ele>
        <time>2020-08-28T02:03:42.256Z</time>
      </trkpt>
      <trkpt lat="68.48682" lon="17.52462">
        <ele>43.533504</ele>
        <time>2020-08-28T02:03:54.571Z</time>
      </trkpt>
      <trkpt lat="68.48606" lon="17.52485">
        <ele>42.104155</ele>
        <time>2020-08-28T02:04:05.357Z</time>
      </trkpt>
      <trkpt lat="68.48578" lon="17.52483">
        <ele>41.575646</ele>
        <time>2020-08-28T02:04:09.217Z</time>
      </trkpt>
      <trkpt lat="68.48551" lon="17.52467">
        <ele>41.053193</ele>
        <time>2020-08-28T02:04:13.054Z</time>
      </trkpt>
      <trkpt lat="68.48527" lon="17.5245">
        <ele>40.462926</ele>
        <time>2020-08-28T02:04:16.509Z</time>
      </trkpt>
      <trkpt lat="68.48522" lon="17.52434">
        <ele>40.283231</ele>
        <time>2020-08-28T02:04:17.484Z</time>
      </trkpt>
      <trkpt lat="68.4852" lon="17.52421">
        <ele>40.156305</ele>
        <time>2020-08-28T02:04:18.219Z</time>
      </trkpt>
      <trkpt lat="68.48513" lon="17.52407">
        <ele>39.961117</ele>
        <time>2020-08-28T02:04:19.367Z</time>
      </trkpt>
      <trkpt lat="68.48502" lon="17.52408">
        <ele>39.688318</ele>
        <time>2020-08-28T02:04:20.980Z</time>
      </trkpt>
      <trkpt lat="68.48497" lon="17.52415">
        <ele>39.561365</ele>
        <time>2020-08-28T02:04:21.691Z</time>
      </trkpt>
      <trkpt lat="68.48495" lon="17.52422">
        <ele>39.48248</ele>
        <time>2020-08-28T02:04:22.112Z</time>
      </trkpt>
      <trkpt lat="68.48493" lon="17.52436">
        <ele>39.348233</ele>
        <time>2020-08-28T02:04:22.873Z</time>
      </trkpt>
      <trkpt lat="68.48492" lon="17.52451">
        <ele>39.221735</ele>
        <time>2020-08-28T02:04:23.606Z</time>
      </trkpt>
      <trkpt lat="68.48493" lon="17.52459">
        <ele>39.147645</ele>
        <time>2020-08-28T02:04:24.038Z</time>
      </trkpt>
      <trkpt lat="68.48497" lon="17.52476">
        <ele>38.970986</ele>
        <time>2020-08-28T02:04:25.155Z</time>
      </trkpt>
      <trkpt lat="68.48499" lon="17.52498">
        <ele>38.779138</ele>
        <time>2020-08-28T02:04:26.231Z</time>
      </trkpt>
      <trkpt lat="68.48491" lon="17.52625">
        <ele>37.657277</ele>
        <time>2020-08-28T02:04:32.719Z</time>
      </trkpt>
      <trkpt lat="68.48486" lon="17.52667">
        <ele>37.272394</ele>
        <time>2020-08-28T02:04:35.087Z</time>
      </trkpt>
      <trkpt lat="68.48478" lon="17.52716">
        <ele>36.793874</ele>
        <time>2020-08-28T02:04:37.803Z</time>
      </trkpt>
      <trkpt lat="68.48449" lon="17.52826">
        <ele>35.26463</ele>
        <time>2020-08-28T02:04:44.569Z</time>
      </trkpt>
      <trkpt lat="68.48405" lon="17.52945">
        <ele>33.32439</ele>
        <time>2020-08-28T02:04:52.869Z</time>
      </trkpt>
      <trkpt lat="68.48194" lon="17.53495">
        <ele>21.599925</ele>
        <time>2020-08-28T02:05:29.717Z</time>
      </trkpt>
      <trkpt lat="68.48158" lon="17.53591">
        <ele>18.820308</ele>
        <time>2020-08-28T02:05:35.687Z</time>
      </trkpt>
      <trkpt lat="68.48151" lon="17.53611">
        <ele>18.217937</ele>
        <time>2020-08-28T02:05:36.953Z</time>
      </trkpt>
      <trkpt lat="68.48149" lon="17.53617">
        <ele>18.056791</ele>
        <time>2020-08-28T02:05:37.301Z</time>
      </trkpt>
      <trkpt lat="68.48103" lon="17.53752">
        <ele>14.323365</ele>
        <time>2020-08-28T02:05:45.176Z</time>
      </trkpt>
      <trkpt lat="68.48051" lon="17.53926">
        <ele>9.855226</ele>
        <time>2020-08-28T02:05:54.711Z</time>
      </trkpt>
      <trkpt lat="68.4803" lon="17.5402">
        <ele>7.674702</ele>
        <time>2020-08-28T02:05:59.451Z</time>
      </trkpt>
      <trkpt lat="68.48014" lon="17.54131">
        <ele>5.280416</ele>
        <time>2020-08-28T02:06:04.889Z</time>
      </trkpt>
      <trkpt lat="68.48008" lon="17.54289">
        <ele>3.565487</ele>
        <time>2020-08-28T02:06:12.443Z</time>
      </trkpt>
      <trkpt lat="68.4802" lon="17.54726">
        <ele>0.860083</ele>
        <time>2020-08-28T02:06:36.621Z</time>
      </trkpt>
      <trkpt lat="68.48004" lon="17.54863">
        <ele>0.690963</ele>
        <time>2020-08-28T02:06:45.878Z</time>
      </trkpt>
      <trkpt lat="68.47948" lon="17.55127">
        <ele>0.395655</ele>
        <time>2020-08-28T02:07:05.495Z</time>
      </trkpt>
      <trkpt lat="68.47944" lon="17.55153">
        <ele>0.461274</ele>
        <time>2020-08-28T02:07:07.396Z</time>
      </trkpt>
      <trkpt lat="68.47941" lon="17.55184">
        <ele>0.535201</ele>
        <time>2020-08-28T02:07:09.475Z</time>
      </trkpt>
      <trkpt lat="68.47938" lon="17.55214">
        <ele>0.606089</ele>
        <time>2020-08-28T02:07:11.539Z</time>
      </trkpt>
      <trkpt lat="68.47936" lon="17.55352">
        <ele>0.926117</ele>
        <time>2020-08-28T02:07:20.856Z</time>
      </trkpt>
      <trkpt lat="68.4794" lon="17.55456">
        <ele>1.168558</ele>
        <time>2020-08-28T02:07:27.968Z</time>
      </trkpt>
      <trkpt lat="68.47944" lon="17.55577">
        <ele>1.450539</ele>
        <time>2020-08-28T02:07:37.784Z</time>
      </trkpt>
      <trkpt lat="68.47954" lon="17.55853">
        <ele>4.518002</ele>
        <time>2020-08-28T02:08:03.641Z</time>
      </trkpt>
      <trkpt lat="68.47954" lon="17.55897">
        <ele>5.032253</ele>
        <time>2020-08-28T02:08:08.307Z</time>
      </trkpt>
      <trkpt lat="68.47952" lon="17.55942">
        <ele>5.559849</ele>
        <time>2020-08-28T02:08:13.905Z</time>
      </trkpt>
      <trkpt lat="68.47942" lon="17.56052">
        <ele>6.88221</ele>
        <time>2020-08-28T02:08:27.232Z</time>
      </trkpt>
      <trkpt lat="68.47915" lon="17.5619">
        <ele>9.172303</ele>
        <time>2020-08-28T02:08:45.703Z</time>
      </trkpt>
      <trkpt lat="68.47898" lon="17.56249">
        <ele>10.319598</ele>
        <time>2020-08-28T02:08:54.946Z</time>
      </trkpt>
      <trkpt lat="68.47879" lon="17.56305">
        <ele>11.48491</ele>
        <time>2020-08-28T02:09:04.718Z</time>
      </trkpt>
      <trkpt lat="68.47842" lon="17.56375">
        <ele>13.36473</ele>
        <time>2020-08-28T02:09:18.514Z</time>
      </trkpt>
      <trkpt lat="68.4778" lon="17.56431">
        <ele>14.444778</ele>
        <time>2020-08-28T02:09:37.241Z</time>
      </trkpt>
      <trkpt lat="68.47755" lon="17.5644">
        <ele>14.253648</ele>
        <time>2020-08-28T02:09:43.161Z</time>
      </trkpt>
      <trkpt lat="68.47724" lon="17.56448">
        <ele>14.028723</ele>
        <time>2020-08-28T02:09:47.667Z</time>
      </trkpt>
      <trkpt lat="68.47669" lon="17.56461">
        <ele>13.618185</ele>
        <time>2020-08-28T02:09:55.475Z</time>
      </trkpt>
      <trkpt lat="68.47604" lon="17.56476">
        <ele>12.034433</ele>
        <time>2020-08-28T02:10:03.841Z</time>
      </trkpt>
      <trkpt lat="68.47582" lon="17.56484">
        <ele>11.068343</ele>
        <time>2020-08-28T02:10:06.460Z</time>
      </trkpt>
      <trkpt lat="68.4755" lon="17.5651">
        <ele>9.597809</ele>
        <time>2020-08-28T02:10:10.481Z</time>
      </trkpt>
      <trkpt lat="68.47504" lon="17.56582">
        <ele>7.27255</ele>
        <time>2020-08-28T02:10:16.916Z</time>
      </trkpt>
      <trkpt lat="68.47479" lon="17.56651">
        <ele>5.718369</ele>
        <time>2020-08-28T02:10:21.295Z</time>
      </trkpt>
      <trkpt lat="68.47463" lon="17.56721">
        <ele>5.240024</ele>
        <time>2020-08-28T02:10:25.182Z</time>
      </trkpt>
      <trkpt lat="68.47458" lon="17.56746">
        <ele>5.13796</ele>
        <time>2020-08-28T02:10:26.478Z</time>
      </trkpt>
      <trkpt lat="68.47448" lon="17.56808">
        <ele>4.878</ele>
        <time>2020-08-28T02:10:30.791Z</time>
      </trkpt>
      <trkpt lat="68.47432" lon="17.56932">
        <ele>4.381904</ele>
        <time>2020-08-28T02:10:38.449Z</time>
      </trkpt>
      <trkpt lat="68.47421" lon="17.57101">
        <ele>3.731166</ele>
        <time>2020-08-28T02:10:50.321Z</time>
      </trkpt>
      <trkpt lat="68.47421" lon="17.57153">
        <ele>3.590265</ele>
        <time>2020-08-28T02:10:54.293Z</time>
      </trkpt>
      <trkpt lat="68.47422" lon="17.57191">
        <ele>3.517686</ele>
        <time>2020-08-28T02:10:57.208Z</time>
      </trkpt>
      <trkpt lat="68.47425" lon="17.57253">
        <ele>3.401592</ele>
        <time>2020-08-28T02:11:02.240Z</time>
      </trkpt>
      <trkpt lat="68.47517" lon="17.58415">
        <ele>0.938963</ele>
        <time>2020-08-28T02:12:15.117Z</time>
      </trkpt>
      <trkpt lat="68.47528" lon="17.58566">
        <ele>0.54513</ele>
        <time>2020-08-28T02:12:24.623Z</time>
      </trkpt>
      <trkpt lat="68.47537" lon="17.58653">
        <ele>0.452337</ele>
        <time>2020-08-28T02:12:30.346Z</time>
      </trkpt>
      <trkpt lat="68.4754" lon="17.58685">
        <ele>0.418926</ele>
        <time>2020-08-28T02:12:32.346Z</time>
      </trkpt>
      <trkpt lat="68.47587" lon="17.59093">
        <ele>0.039369</ele>
        <time>2020-08-28T02:12:59.586Z</time>
      </trkpt>
      <trkpt lat="68.47604" lon="17.59241">
        <ele>0.025032</ele>
        <time>2020-08-28T02:13:09.801Z</time>
      </trkpt>
      <trkpt lat="68.47605" lon="17.59452">
        <ele>0.005645</ele>
        <time>2020-08-28T02:13:24.189Z</time>
      </trkpt>
      <trkpt lat="68.4761" lon="17.59585">
        <ele>3.0E-6</ele>
        <time>2020-08-28T02:13:33.316Z</time>
      </trkpt>
      <trkpt lat="68.47613" lon="17.60157">
        <ele>3.0E-6</ele>
        <time>2020-08-28T02:14:12.394Z</time>
      </trkpt>
      <trkpt lat="68.47603" lon="17.60906">
        <ele>0.018678</ele>
        <time>2020-08-28T02:15:03.568Z</time>
      </trkpt>
      <trkpt lat="68.47621" lon="17.61858">
        <ele>0.626613</ele>
        <time>2020-08-28T02:16:09.294Z</time>
      </trkpt>
      <trkpt lat="68.47615" lon="17.62188">
        <ele>3.220871</ele>
        <time>2020-08-28T02:16:36.776Z</time>
      </trkpt>
      <trkpt lat="68.47629" lon="17.6235">
        <ele>5.021697</ele>
        <time>2020-08-28T02:16:55.221Z</time>
      </trkpt>
      <trkpt lat="68.47636" lon="17.62397">
        <ele>5.574643</ele>
        <time>2020-08-28T02:17:01.440Z</time>
      </trkpt>
      <trkpt lat="68.47643" lon="17.62392">
        <ele>5.788176</ele>
        <time>2020-08-28T02:17:03.941Z</time>
      </trkpt>
      <trkpt lat="68.47649" lon="17.62453">
        <ele>6.908675</ele>
        <time>2020-08-28T02:17:12.470Z</time>
      </trkpt>
      <trkpt lat="68.47666" lon="17.6258">
        <ele>9.940943</ele>
        <time>2020-08-28T02:17:30.381Z</time>
      </trkpt>
      <trkpt lat="68.47669" lon="17.62602">
        <ele>10.488669</ele>
        <time>2020-08-28T02:17:34.146Z</time>
      </trkpt>
      <trkpt lat="68.47673" lon="17.62623">
        <ele>11.013264</ele>
        <time>2020-08-28T02:17:37.313Z</time>
      </trkpt>
      <trkpt lat="68.47678" lon="17.62651">
        <ele>11.726639</ele>
        <time>2020-08-28T02:17:41.533Z</time>
      </trkpt>
      <trkpt lat="68.47694" lon="17.62748">
        <ele>14.131077</ele>
        <time>2020-08-28T02:17:57.026Z</time>
      </trkpt>
      <trkpt lat="68.4771" lon="17.62876">
        <ele>17.201271</ele>
        <time>2020-08-28T02:18:16.761Z</time>
      </trkpt>
      <trkpt lat="68.47715" lon="17.63037">
        <ele>20.808697</ele>
        <time>2020-08-28T02:18:39.342Z</time>
      </trkpt>
      <trkpt lat="68.47705" lon="17.63127">
        <ele>22.920419</ele>
        <time>2020-08-28T02:18:52.104Z</time>
      </trkpt>
      <trkpt lat="68.4767" lon="17.633">
        <ele>27.34659</ele>
        <time>2020-08-28T02:19:17.817Z</time>
      </trkpt>
      <trkpt lat="68.47658" lon="17.63398">
        <ele>30.127633</ele>
        <time>2020-08-28T02:19:32.299Z</time>
      </trkpt>
      <trkpt lat="68.47653" lon="17.6353">
        <ele>33.99304</ele>
        <time>2020-08-28T02:19:51.832Z</time>
      </trkpt>
      <trkpt lat="68.47651" lon="17.64132">
        <ele>51.912886</ele>
        <time>2020-08-28T02:21:34.596Z</time>
      </trkpt>
      <trkpt lat="68.47649" lon="17.6418">
        <ele>53.37953</ele>
        <time>2020-08-28T02:21:43.097Z</time>
      </trkpt>
      <trkpt lat="68.47644" lon="17.6424">
        <ele>55.250242</ele>
        <time>2020-08-28T02:21:52.234Z</time>
      </trkpt>
      <trkpt lat="68.47629" lon="17.64344">
        <ele>58.197483</ele>
        <time>2020-08-28T02:22:08.941Z</time>
      </trkpt>
      <trkpt lat="68.47617" lon="17.64397">
        <ele>59.413141</ele>
        <time>2020-08-28T02:22:17.409Z</time>
      </trkpt>
      <trkpt lat="68.47529" lon="17.64641">
        <ele>66.138621</ele>
        <time>2020-08-28T02:22:59.123Z</time>
      </trkpt>
      <trkpt lat="68.47431" lon="17.6495">
        <ele>73.360264</ele>
        <time>2020-08-28T02:23:49.184Z</time>
      </trkpt>
      <trkpt lat="68.47377" lon="17.65124">
        <ele>76.657629</ele>
        <time>2020-08-28T02:24:16.940Z</time>
      </trkpt>
      <trkpt lat="68.47315" lon="17.6532">
        <ele>79.418374</ele>
        <time>2020-08-28T02:24:42.734Z</time>
      </trkpt>
      <trkpt lat="68.47266" lon="17.65434">
        <ele>81.280093</ele>
        <time>2020-08-28T02:24:56.331Z</time>
      </trkpt>
      <trkpt lat="68.47208" lon="17.65513">
        <ele>83.092851</ele>
        <time>2020-08-28T02:25:12.052Z</time>
      </trkpt>
      <trkpt lat="68.47164" lon="17.65573">
        <ele>84.476012</ele>
        <time>2020-08-28T02:25:25.047Z</time>
      </trkpt>
      <trkpt lat="68.47174" lon="17.65632">
        <ele>85.147914</ele>
        <time>2020-08-28T02:25:33.342Z</time>
      </trkpt>
      <trkpt lat="68.47179" lon="17.65682">
        <ele>85.67429</ele>
        <time>2020-08-28T02:25:38.272Z</time>
      </trkpt>
      <trkpt lat="68.47177" lon="17.65756">
        <ele>86.894822</ele>
        <time>2020-08-28T02:25:46.367Z</time>
      </trkpt>
      <trkpt lat="68.47169" lon="17.65821">
        <ele>88.143955</ele>
        <time>2020-08-28T02:25:56.261Z</time>
      </trkpt>
      <trkpt lat="68.47148" lon="17.6589">
        <ele>89.757319</ele>
        <time>2020-08-28T02:26:07.774Z</time>
      </trkpt>
      <trkpt lat="68.47129" lon="17.65942">
        <ele>91.087717</ele>
        <time>2020-08-28T02:26:17.841Z</time>
      </trkpt>
      <trkpt lat="68.47074" lon="17.66039">
        <ele>94.29359</ele>
        <time>2020-08-28T02:26:40.775Z</time>
      </trkpt>
      <trkpt lat="68.47072" lon="17.66043">
        <ele>94.44547</ele>
        <time>2020-08-28T02:26:42.450Z</time>
      </trkpt>
      <trkpt lat="68.47015" lon="17.6614">
        <ele>95.510461</ele>
        <time>2020-08-28T02:26:59.984Z</time>
      </trkpt>
      <trkpt lat="68.46974" lon="17.66211">
        <ele>96.143791</ele>
        <time>2020-08-28T02:27:10.427Z</time>
      </trkpt>
      <trkpt lat="68.46946" lon="17.66257">
        <ele>96.577793</ele>
        <time>2020-08-28T02:27:16.471Z</time>
      </trkpt>
      <trkpt lat="68.4686" lon="17.66407">
        <ele>96.87138</ele>
        <time>2020-08-28T02:27:31.921Z</time>
      </trkpt>
      <trkpt lat="68.4681" lon="17.66516">
        <ele>96.683666</ele>
        <time>2020-08-28T02:27:41.780Z</time>
      </trkpt>
      <trkpt lat="68.46793" lon="17.66568">
        <ele>96.608937</ele>
        <time>2020-08-28T02:27:46.445Z</time>
      </trkpt>
      <trkpt lat="68.46769" lon="17.66669">
        <ele>97.643729</ele>
        <time>2020-08-28T02:27:55.932Z</time>
      </trkpt>
      <trkpt lat="68.46752" lon="17.66812">
        <ele>100.852144</ele>
        <time>2020-08-28T02:28:12.270Z</time>
      </trkpt>
      <trkpt lat="68.4675" lon="17.66916">
        <ele>103.071712</ele>
        <time>2020-08-28T02:28:27.992Z</time>
      </trkpt>
      <trkpt lat="68.46757" lon="17.67023">
        <ele>105.387346</ele>
        <time>2020-08-28T02:28:45.970Z</time>
      </trkpt>
      <trkpt lat="68.46779" lon="17.67155">
        <ele>109.297718</ele>
        <time>2020-08-28T02:29:10.223Z</time>
      </trkpt>
      <trkpt lat="68.46789" lon="17.6719">
        <ele>110.738993</ele>
        <time>2020-08-28T02:29:18.599Z</time>
      </trkpt>
      <trkpt lat="68.46792" lon="17.67204">
        <ele>111.301206</ele>
        <time>2020-08-28T02:29:22.363Z</time>
      </trkpt>
      <trkpt lat="68.46865" lon="17.67376">
        <ele>119.867561</ele>
        <time>2020-08-28T02:30:07.929Z</time>
      </trkpt>
      <trkpt lat="68.46889" lon="17.6746">
        <ele>123.219721</ele>
        <time>2020-08-28T02:30:26.457Z</time>
      </trkpt>
      <trkpt lat="68.46905" lon="17.6755">
        <ele>125.048024</ele>
        <time>2020-08-28T02:30:41.036Z</time>
      </trkpt>
      <trkpt lat="68.46914" lon="17.67657">
        <ele>127.068981</ele>
        <time>2020-08-28T02:30:54.665Z</time>
      </trkpt>
      <trkpt lat="68.4691" lon="17.67898">
        <ele>131.499255</ele>
        <time>2020-08-28T02:31:21.544Z</time>
      </trkpt>
      <trkpt lat="68.46911" lon="17.68">
        <ele>132.810214</ele>
        <time>2020-08-28T02:31:31.704Z</time>
      </trkpt>
      <trkpt lat="68.46917" lon="17.68086">
        <ele>133.754663</ele>
        <time>2020-08-28T02:31:40.084Z</time>
      </trkpt>
      <trkpt lat="68.46928" lon="17.68167">
        <ele>134.682407</ele>
        <time>2020-08-28T02:31:48.194Z</time>
      </trkpt>
      <trkpt lat="68.46955" lon="17.68288">
        <ele>136.207742</ele>
        <time>2020-08-28T02:32:01.571Z</time>
      </trkpt>
      <trkpt lat="68.46987" lon="17.68379">
        <ele>137.734896</ele>
        <time>2020-08-28T02:32:13.972Z</time>
      </trkpt>
      <trkpt lat="68.47083" lon="17.68579">
        <ele>143.57486</ele>
        <time>2020-08-28T02:32:53.421Z</time>
      </trkpt>
      <trkpt lat="68.47127" lon="17.68763">
        <ele>147.847103</ele>
        <time>2020-08-28T02:33:23.633Z</time>
      </trkpt>
      <trkpt lat="68.47143" lon="17.68921">
        <ele>151.558249</ele>
        <time>2020-08-28T02:33:47.494Z</time>
      </trkpt>
      <trkpt lat="68.47143" lon="17.6906">
        <ele>154.701881</ele>
        <time>2020-08-28T02:34:07.584Z</time>
      </trkpt>
      <trkpt lat="68.47133" lon="17.69208">
        <ele>157.534824</ele>
        <time>2020-08-28T02:34:27.709Z</time>
      </trkpt>
      <trkpt lat="68.47105" lon="17.6941">
        <ele>159.742799</ele>
        <time>2020-08-28T02:34:51.385Z</time>
      </trkpt>
      <trkpt lat="68.47085" lon="17.6954">
        <ele>161.199656</ele>
        <time>2020-08-28T02:35:03.496Z</time>
      </trkpt>
      <trkpt lat="68.47055" lon="17.69744">
        <ele>162.343956</ele>
        <time>2020-08-28T02:35:17.953Z</time>
      </trkpt>
      <trkpt lat="68.47033" lon="17.69922">
        <ele>162.697736</ele>
        <time>2020-08-28T02:35:28.646Z</time>
      </trkpt>
      <trkpt lat="68.47006" lon="17.70228">
        <ele>166.066389</ele>
        <time>2020-08-28T02:35:56.051Z</time>
      </trkpt>
      <trkpt lat="68.47003" lon="17.70322">
        <ele>168.070151</ele>
        <time>2020-08-28T02:36:08.170Z</time>
      </trkpt>
      <trkpt lat="68.47001" lon="17.70417">
        <ele>170.073089</ele>
        <time>2020-08-28T02:36:21.874Z</time>
      </trkpt>
      <trkpt lat="68.47002" lon="17.70472">
        <ele>171.223149</ele>
        <time>2020-08-28T02:36:31.328Z</time>
      </trkpt>
      <trkpt lat="68.47017" lon="17.70635">
        <ele>176.170642</ele>
        <time>2020-08-28T02:36:59.031Z</time>
      </trkpt>
      <trkpt lat="68.47062" lon="17.70895">
        <ele>188.271388</ele>
        <time>2020-08-28T02:37:58.161Z</time>
      </trkpt>
      <trkpt lat="68.47069" lon="17.70966">
        <ele>191.396472</ele>
        <time>2020-08-28T02:38:13.592Z</time>
      </trkpt>
      <trkpt lat="68.47077" lon="17.71054">
        <ele>195.414689</ele>
        <time>2020-08-28T02:38:33.152Z</time>
      </trkpt>
      <trkpt lat="68.47088" lon="17.71219">
        <ele>203.759387</ele>
        <time>2020-08-28T02:39:11.032Z</time>
      </trkpt>
      <trkpt lat="68.47102" lon="17.71383">
        <ele>212.085335</ele>
        <time>2020-08-28T02:39:50.536Z</time>
      </trkpt>
      <trkpt lat="68.47152" lon="17.71815">
        <ele>232.430032</ele>
        <time>2020-08-28T02:41:30.436Z</time>
      </trkpt>
      <trkpt lat="68.47209" lon="17.72324">
        <ele>250.374366</ele>
        <time>2020-08-28T02:43:01.401Z</time>
      </trkpt>
      <trkpt lat="68.4723" lon="17.72451">
        <ele>254.159271</ele>
        <time>2020-08-28T02:43:20.583Z</time>
      </trkpt>
      <trkpt lat="68.47249" lon="17.72532">
        <ele>255.343924</ele>
        <time>2020-08-28T02:43:32.311Z</time>
      </trkpt>
      <trkpt lat="68.47297" lon="17.72715">
        <ele>258.131532</ele>
        <time>2020-08-28T02:43:55.576Z</time>
      </trkpt>
      <trkpt lat="68.47352" lon="17.72922">
        <ele>260.585261</ele>
        <time>2020-08-28T02:44:17.178Z</time>
      </trkpt>
      <trkpt lat="68.47368" lon="17.72981">
        <ele>260.99925</ele>
        <time>2020-08-28T02:44:22.901Z</time>
      </trkpt>
      <trkpt lat="68.47431" lon="17.73256">
        <ele>262.939005</ele>
        <time>2020-08-28T02:44:47.620Z</time>
      </trkpt>
      <trkpt lat="68.47502" lon="17.73586">
        <ele>268.864237</ele>
        <time>2020-08-28T02:45:32.245Z</time>
      </trkpt>
      <trkpt lat="68.47514" lon="17.73641">
        <ele>269.858282</ele>
        <time>2020-08-28T02:45:41.401Z</time>
      </trkpt>
      <trkpt lat="68.47565" lon="17.73871">
        <ele>274.180274</ele>
        <time>2020-08-28T02:46:16.093Z</time>
      </trkpt>
      <trkpt lat="68.47597" lon="17.74016">
        <ele>276.895913</ele>
        <time>2020-08-28T02:46:36.103Z</time>
      </trkpt>
      <trkpt lat="68.47634" lon="17.74178">
        <ele>278.220478</ele>
        <time>2020-08-28T02:46:53.749Z</time>
      </trkpt>
      <trkpt lat="68.47639" lon="17.74207">
        <ele>278.213289</ele>
        <time>2020-08-28T02:46:56.048Z</time>
      </trkpt>
      <trkpt lat="68.47666" lon="17.74324">
        <ele>278.182846</ele>
        <time>2020-08-28T02:47:05.775Z</time>
      </trkpt>
      <trkpt lat="68.47733" lon="17.74633">
        <ele>275.995033</ele>
        <time>2020-08-28T02:47:24.498Z</time>
      </trkpt>
      <trkpt lat="68.47928" lon="17.7552">
        <ele>259.288178</ele>
        <time>2020-08-28T02:48:10.609Z</time>
      </trkpt>
      <trkpt lat="68.47942" lon="17.75592">
        <ele>258.170856</ele>
        <time>2020-08-28T02:48:14.295Z</time>
      </trkpt>
      <trkpt lat="68.47964" lon="17.75707">
        <ele>256.389753</ele>
        <time>2020-08-28T02:48:20.546Z</time>
      </trkpt>
      <trkpt lat="68.47981" lon="17.75808">
        <ele>255.502864</ele>
        <time>2020-08-28T02:48:26.283Z</time>
      </trkpt>
      <trkpt lat="68.48004" lon="17.75943">
        <ele>256.497556</ele>
        <time>2020-08-28T02:48:34.928Z</time>
      </trkpt>
      <trkpt lat="68.48035" lon="17.76081">
        <ele>257.582945</ele>
        <time>2020-08-28T02:48:50.663Z</time>
      </trkpt>
      <trkpt lat="68.48084" lon="17.76213">
        <ele>259.674946</ele>
        <time>2020-08-28T02:49:11.642Z</time>
      </trkpt>
      <trkpt lat="68.48139" lon="17.76301">
        <ele>264.467527</ele>
        <time>2020-08-28T02:49:38.597Z</time>
      </trkpt>
      <trkpt lat="68.48171" lon="17.76335">
        <ele>267.068089</ele>
        <time>2020-08-28T02:49:54.288Z</time>
      </trkpt>
      <trkpt lat="68.48225" lon="17.76363">
        <ele>271.25776</ele>
        <time>2020-08-28T02:50:19.381Z</time>
      </trkpt>
      <trkpt lat="68.48239" lon="17.76364">
        <ele>272.257597</ele>
        <time>2020-08-28T02:50:26.497Z</time>
      </trkpt>
      <trkpt lat="68.48241" lon="17.76364">
        <ele>272.390958</ele>
        <time>2020-08-28T02:50:27.354Z</time>
      </trkpt>
      <trkpt lat="68.48266" lon="17.76363">
        <ele>273.959691</ele>
        <time>2020-08-28T02:50:38.125Z</time>
      </trkpt>
      <trkpt lat="68.48303" lon="17.76349">
        <ele>276.341351</ele>
        <time>2020-08-28T02:50:54.499Z</time>
      </trkpt>
      <trkpt lat="68.48357" lon="17.76302">
        <ele>279.935249</ele>
        <time>2020-08-28T02:51:17.565Z</time>
      </trkpt>
      <trkpt lat="68.48458" lon="17.76129">
        <ele>284.266346</ele>
        <time>2020-08-28T02:51:52.103Z</time>
      </trkpt>
      <trkpt lat="68.48516" lon="17.76051">
        <ele>284.974004</ele>
        <time>2020-08-28T02:52:03.597Z</time>
      </trkpt>
      <trkpt lat="68.48584" lon="17.75999">
        <ele>285.032554</ele>
        <time>2020-08-28T02:52:15.737Z</time>
      </trkpt>
      <trkpt lat="68.48638" lon="17.75979">
        <ele>283.401976</ele>
        <time>2020-08-28T02:52:23.825Z</time>
      </trkpt>
      <trkpt lat="68.48687" lon="17.75974">
        <ele>281.945696</ele>
        <time>2020-08-28T02:52:30.459Z</time>
      </trkpt>
      <trkpt lat="68.48738" lon="17.75975">
        <ele>280.428035</ele>
        <time>2020-08-28T02:52:36.921Z</time>
      </trkpt>
      <trkpt lat="68.48851" lon="17.75988">
        <ele>270.694618</ele>
        <time>2020-08-28T02:52:49.584Z</time>
      </trkpt>
      <trkpt lat="68.48886" lon="17.7601">
        <ele>267.490224</ele>
        <time>2020-08-28T02:52:53.417Z</time>
      </trkpt>
      <trkpt lat="68.48922" lon="17.76052">
        <ele>263.964213</ele>
        <time>2020-08-28T02:52:57.674Z</time>
      </trkpt>
      <trkpt lat="68.48942" lon="17.76081">
        <ele>262.251845</ele>
        <time>2020-08-28T02:53:00.059Z</time>
      </trkpt>
      <trkpt lat="68.48966" lon="17.76122">
        <ele>260.057203</ele>
        <time>2020-08-28T02:53:03.234Z</time>
      </trkpt>
      <trkpt lat="68.48984" lon="17.76147">
        <ele>258.548887</ele>
        <time>2020-08-28T02:53:05.511Z</time>
      </trkpt>
      <trkpt lat="68.49003" lon="17.76169">
        <ele>257.0088</ele>
        <time>2020-08-28T02:53:07.700Z</time>
      </trkpt>
      <trkpt lat="68.49043" lon="17.76202">
        <ele>253.800542</ele>
        <time>2020-08-28T02:53:12.508Z</time>
      </trkpt>
      <trkpt lat="68.4908" lon="17.7624">
        <ele>250.821345</ele>
        <time>2020-08-28T02:53:17.131Z</time>
      </trkpt>
      <trkpt lat="68.49127" lon="17.76314">
        <ele>250.089489</ele>
        <time>2020-08-28T02:53:25.695Z</time>
      </trkpt>
      <trkpt lat="68.49175" lon="17.76453">
        <ele>249.728786</ele>
        <time>2020-08-28T02:53:38.528Z</time>
      </trkpt>
      <trkpt lat="68.49195" lon="17.76547">
        <ele>249.523098</ele>
        <time>2020-08-28T02:53:46.142Z</time>
      </trkpt>
      <trkpt lat="68.49235" lon="17.76837">
        <ele>251.253687</ele>
        <time>2020-08-28T02:54:10.297Z</time>
      </trkpt>
      <trkpt lat="68.49272" lon="17.7698">
        <ele>252.537549</ele>
        <time>2020-08-28T02:54:26.769Z</time>
      </trkpt>
      <trkpt lat="68.49308" lon="17.77064">
        <ele>254.183345</ele>
        <time>2020-08-28T02:54:40.160Z</time>
      </trkpt>
      <trkpt lat="68.49433" lon="17.77288">
        <ele>261.809087</ele>
        <time>2020-08-28T02:55:32.394Z</time>
      </trkpt>
      <trkpt lat="68.49466" lon="17.7736">
        <ele>264.11806</ele>
        <time>2020-08-28T02:55:49.500Z</time>
      </trkpt>
      <trkpt lat="68.49506" lon="17.7749">
        <ele>267.573078</ele>
        <time>2020-08-28T02:56:13.111Z</time>
      </trkpt>
      <trkpt lat="68.49529" lon="17.77609">
        <ele>270.298456</ele>
        <time>2020-08-28T02:56:30.409Z</time>
      </trkpt>
      <trkpt lat="68.49542" lon="17.7769">
        <ele>272.102282</ele>
        <time>2020-08-28T02:56:41.268Z</time>
      </trkpt>
      <trkpt lat="68.49545" lon="17.77709">
        <ele>272.300334</ele>
        <time>2020-08-28T02:56:43.433Z</time>
      </trkpt>
      <trkpt lat="68.49552" lon="17.77752">
        <ele>272.714632</ele>
        <time>2020-08-28T02:56:48.708Z</time>
      </trkpt>
      <trkpt lat="68.49558" lon="17.77795">
        <ele>273.136309</ele>
        <time>2020-08-28T02:56:53.798Z</time>
      </trkpt>
      <trkpt lat="68.49609" lon="17.78115">
        <ele>276.236754</ele>
        <time>2020-08-28T02:57:25.052Z</time>
      </trkpt>
      <trkpt lat="68.49624" lon="17.78209">
        <ele>276.694058</ele>
        <time>2020-08-28T02:57:32.446Z</time>
      </trkpt>
      <trkpt lat="68.49718" lon="17.78812">
        <ele>278.343326</ele>
        <time>2020-08-28T02:58:19.686Z</time>
      </trkpt>
      <trkpt lat="68.49771" lon="17.79144">
        <ele>279.392339</ele>
        <time>2020-08-28T02:58:46.264Z</time>
      </trkpt>
      <trkpt lat="68.49795" lon="17.79288">
        <ele>280.069654</ele>
        <time>2020-08-28T02:58:57.922Z</time>
      </trkpt>
      <trkpt lat="68.49869" lon="17.79622">
        <ele>282.976986</ele>
        <time>2020-08-28T02:59:31.117Z</time>
      </trkpt>
      <trkpt lat="68.49914" lon="17.79774">
        <ele>285.260254</ele>
        <time>2020-08-28T02:59:52.304Z</time>
      </trkpt>
      <trkpt lat="68.49938" lon="17.79844">
        <ele>286.374454</ele>
        <time>2020-08-28T03:00:03.488Z</time>
      </trkpt>
      <trkpt lat="68.50007" lon="17.80018">
        <ele>288.479535</ele>
        <time>2020-08-28T03:00:33.788Z</time>
      </trkpt>
      <trkpt lat="68.50072" lon="17.80133">
        <ele>290.097136</ele>
        <time>2020-08-28T03:00:50.345Z</time>
      </trkpt>
      <trkpt lat="68.50091" lon="17.80154">
        <ele>290.51435</ele>
        <time>2020-08-28T03:00:53.452Z</time>
      </trkpt>
      <trkpt lat="68.50109" lon="17.80169">
        <ele>290.143076</ele>
        <time>2020-08-28T03:00:56.292Z</time>
      </trkpt>
      <trkpt lat="68.50126" lon="17.80178">
        <ele>289.793855</ele>
        <time>2020-08-28T03:00:58.682Z</time>
      </trkpt>
      <trkpt lat="68.50157" lon="17.80186">
        <ele>289.161464</ele>
        <time>2020-08-28T03:01:03.019Z</time>
      </trkpt>
      <trkpt lat="68.50178" lon="17.80188">
        <ele>288.733507</ele>
        <time>2020-08-28T03:01:05.738Z</time>
      </trkpt>
      <trkpt lat="68.50367" lon="17.802">
        <ele>286.671514</ele>
        <time>2020-08-28T03:01:31.782Z</time>
      </trkpt>
      <trkpt lat="68.50404" lon="17.80213">
        <ele>286.600851</ele>
        <time>2020-08-28T03:01:40.195Z</time>
      </trkpt>
      <trkpt lat="68.50459" lon="17.80261">
        <ele>286.908255</ele>
        <time>2020-08-28T03:01:55.352Z</time>
      </trkpt>
      <trkpt lat="68.50489" lon="17.80298">
        <ele>287.893988</ele>
        <time>2020-08-28T03:02:04.853Z</time>
      </trkpt>
      <trkpt lat="68.50557" lon="17.80425">
        <ele>290.407588</ele>
        <time>2020-08-28T03:02:28.786Z</time>
      </trkpt>
      <trkpt lat="68.50585" lon="17.8051">
        <ele>291.704536</ele>
        <time>2020-08-28T03:02:40.388Z</time>
      </trkpt>
      <trkpt lat="68.50595" lon="17.80544">
        <ele>292.165635</ele>
        <time>2020-08-28T03:02:44.797Z</time>
      </trkpt>
      <trkpt lat="68.506" lon="17.80562">
        <ele>292.400564</ele>
        <time>2020-08-28T03:02:46.657Z</time>
      </trkpt>
      <trkpt lat="68.50623" lon="17.80662">
        <ele>293.61973</ele>
        <time>2020-08-28T03:02:57.441Z</time>
      </trkpt>
      <trkpt lat="68.50642" lon="17.80775">
        <ele>294.890055</ele>
        <time>2020-08-28T03:03:08.914Z</time>
      </trkpt>
      <trkpt lat="68.50663" lon="17.81003">
        <ele>297.597279</ele>
        <time>2020-08-28T03:03:32.429Z</time>
      </trkpt>
      <trkpt lat="68.50669" lon="17.81066">
        <ele>299.015265</ele>
        <time>2020-08-28T03:03:39.675Z</time>
      </trkpt>
      <trkpt lat="68.50674" lon="17.81128">
        <ele>300.396893</ele>
        <time>2020-08-28T03:03:47.049Z</time>
      </trkpt>
      <trkpt lat="68.5069" lon="17.81258">
        <ele>303.402787</ele>
        <time>2020-08-28T03:04:05.147Z</time>
      </trkpt>
      <trkpt lat="68.50716" lon="17.81379">
        <ele>306.456099</ele>
        <time>2020-08-28T03:04:26.204Z</time>
      </trkpt>
      <trkpt lat="68.50766" lon="17.81538">
        <ele>312.434211</ele>
        <time>2020-08-28T03:05:01.783Z</time>
      </trkpt>
      <trkpt lat="68.50791" lon="17.81646">
        <ele>316.478788</ele>
        <time>2020-08-28T03:05:24.110Z</time>
      </trkpt>
      <trkpt lat="68.50826" lon="17.81883">
        <ele>324.053388</ele>
        <time>2020-08-28T03:06:06.298Z</time>
      </trkpt>
      <trkpt lat="68.50846" lon="17.81987">
        <ele>326.55489</ele>
        <time>2020-08-28T03:06:24.696Z</time>
      </trkpt>
      <trkpt lat="68.50949" lon="17.82279">
        <ele>334.456778</ele>
        <time>2020-08-28T03:07:13.960Z</time>
      </trkpt>
      <trkpt lat="68.51001" lon="17.8248">
        <ele>337.386595</ele>
        <time>2020-08-28T03:07:37.617Z</time>
      </trkpt>
      <trkpt lat="68.51078" lon="17.82922">
        <ele>343.63203</ele>
        <time>2020-08-28T03:08:27.307Z</time>
      </trkpt>
      <trkpt lat="68.51106" lon="17.83153">
        <ele>347.08143</ele>
        <time>2020-08-28T03:08:56.240Z</time>
      </trkpt>
      <trkpt lat="68.51112" lon="17.83218">
        <ele>348.177826</ele>
        <time>2020-08-28T03:09:04.478Z</time>
      </trkpt>
      <trkpt lat="68.51125" lon="17.83358">
        <ele>350.545309</ele>
        <time>2020-08-28T03:09:22.198Z</time>
      </trkpt>
      <trkpt lat="68.51262" lon="17.85035">
        <ele>376.93081</ele>
        <time>2020-08-28T03:12:38.515Z</time>
      </trkpt>
      <trkpt lat="68.51307" lon="17.85493">
        <ele>383.774453</ele>
        <time>2020-08-28T03:13:31.288Z</time>
      </trkpt>
      <trkpt lat="68.51384" lon="17.86095">
        <ele>392.464346</ele>
        <time>2020-08-28T03:14:41.343Z</time>
      </trkpt>
      <trkpt lat="68.51451" lon="17.86517">
        <ele>397.655581</ele>
        <time>2020-08-28T03:15:29.296Z</time>
      </trkpt>
      <trkpt lat="68.51456" lon="17.86547">
        <ele>397.920406</ele>
        <time>2020-08-28T03:15:32.774Z</time>
      </trkpt>
      <trkpt lat="68.51462" lon="17.8657">
        <ele>398.139927</ele>
        <time>2020-08-28T03:15:35.179Z</time>
      </trkpt>
      <trkpt lat="68.51477" lon="17.86638">
        <ele>398.783277</ele>
        <time>2020-08-28T03:15:42.753Z</time>
      </trkpt>
      <trkpt lat="68.51508" lon="17.86726">
        <ele>399.750858</ele>
        <time>2020-08-28T03:15:53.514Z</time>
      </trkpt>
      <trkpt lat="68.51576" lon="17.86889">
        <ele>399.618851</ele>
        <time>2020-08-28T03:16:11.609Z</time>
      </trkpt>
      <trkpt lat="68.51604" lon="17.86987">
        <ele>398.900739</ele>
        <time>2020-08-28T03:16:18.508Z</time>
      </trkpt>
      <trkpt lat="68.51608" lon="17.87011">
        <ele>398.746285</ele>
        <time>2020-08-28T03:16:20.129Z</time>
      </trkpt>
      <trkpt lat="68.51612" lon="17.87033">
        <ele>398.606477</ele>
        <time>2020-08-28T03:16:21.241Z</time>
      </trkpt>
      <trkpt lat="68.51626" lon="17.8716">
        <ele>397.836188</ele>
        <time>2020-08-28T03:16:27.675Z</time>
      </trkpt>
      <trkpt lat="68.51628" lon="17.872">
        <ele>397.426395</ele>
        <time>2020-08-28T03:16:29.716Z</time>
      </trkpt>
      <trkpt lat="68.51629" lon="17.87233">
        <ele>396.667265</ele>
        <time>2020-08-28T03:16:31.091Z</time>
      </trkpt>
      <trkpt lat="68.51627" lon="17.87355">
        <ele>393.847195</ele>
        <time>2020-08-28T03:16:36.358Z</time>
      </trkpt>
      <trkpt lat="68.51618" lon="17.87509">
        <ele>390.237122</ele>
        <time>2020-08-28T03:16:42.970Z</time>
      </trkpt>
      <trkpt lat="68.51616" lon="17.87544">
        <ele>389.40412</ele>
        <time>2020-08-28T03:16:44.422Z</time>
      </trkpt>
      <trkpt lat="68.51604" lon="17.87705">
        <ele>385.750877</ele>
        <time>2020-08-28T03:16:51.255Z</time>
      </trkpt>
      <trkpt lat="68.5158" lon="17.88036">
        <ele>379.462359</ele>
        <time>2020-08-28T03:17:05.828Z</time>
      </trkpt>
      <trkpt lat="68.51556" lon="17.88368">
        <ele>376.536913</ele>
        <time>2020-08-28T03:17:23.426Z</time>
      </trkpt>
      <trkpt lat="68.51533" lon="17.88691">
        <ele>375.812594</ele>
        <time>2020-08-28T03:17:46.314Z</time>
      </trkpt>
      <trkpt lat="68.51471" lon="17.89551">
        <ele>376.065622</ele>
        <time>2020-08-28T03:18:47.471Z</time>
      </trkpt>
      <trkpt lat="68.51441" lon="17.89856">
        <ele>372.024222</ele>
        <time>2020-08-28T03:19:02.992Z</time>
      </trkpt>
      <trkpt lat="68.51412" lon="17.90086">
        <ele>368.128249</ele>
        <time>2020-08-28T03:19:13.528Z</time>
      </trkpt>
      <trkpt lat="68.51377" lon="17.90331">
        <ele>361.029569</ele>
        <time>2020-08-28T03:19:24.474Z</time>
      </trkpt>
      <trkpt lat="68.51376" lon="17.90339">
        <ele>360.795573</ele>
        <time>2020-08-28T03:19:24.832Z</time>
      </trkpt>
      <trkpt lat="68.5136" lon="17.90457">
        <ele>357.395933</ele>
        <time>2020-08-28T03:19:30.036Z</time>
      </trkpt>
      <trkpt lat="68.51303" lon="17.90886">
        <ele>344.325125</ele>
        <time>2020-08-28T03:19:48.958Z</time>
      </trkpt>
      <trkpt lat="68.51272" lon="17.91168">
        <ele>336.012739</ele>
        <time>2020-08-28T03:20:01.057Z</time>
      </trkpt>
      <trkpt lat="68.51262" lon="17.91271">
        <ele>333.056072</ele>
        <time>2020-08-28T03:20:05.446Z</time>
      </trkpt>
      <trkpt lat="68.5124" lon="17.91613">
        <ele>324.811435</ele>
        <time>2020-08-28T03:20:20.081Z</time>
      </trkpt>
      <trkpt lat="68.51231" lon="17.91861">
        <ele>320.355153</ele>
        <time>2020-08-28T03:20:31.419Z</time>
      </trkpt>
      <trkpt lat="68.51229" lon="17.92092">
        <ele>317.732454</ele>
        <time>2020-08-28T03:20:42.590Z</time>
      </trkpt>
      <trkpt lat="68.5123" lon="17.92217">
        <ele>316.918762</ele>
        <time>2020-08-28T03:20:49.079Z</time>
      </trkpt>
      <trkpt lat="68.51241" lon="17.92397">
        <ele>315.732312</ele>
        <time>2020-08-28T03:20:59.537Z</time>
      </trkpt>
      <trkpt lat="68.51246" lon="17.92437">
        <ele>315.463526</ele>
        <time>2020-08-28T03:21:01.910Z</time>
      </trkpt>
      <trkpt lat="68.51257" lon="17.92494">
        <ele>315.308581</ele>
        <time>2020-08-28T03:21:06.003Z</time>
      </trkpt>
      <trkpt lat="68.51324" lon="17.92752">
        <ele>314.766872</ele>
        <time>2020-08-28T03:21:26.090Z</time>
      </trkpt>
      <trkpt lat="68.51357" lon="17.92947">
        <ele>313.882644</ele>
        <time>2020-08-28T03:21:38.726Z</time>
      </trkpt>
      <trkpt lat="68.51375" lon="17.93177">
        <ele>312.208406</ele>
        <time>2020-08-28T03:21:50.796Z</time>
      </trkpt>
      <trkpt lat="68.51376" lon="17.93304">
        <ele>311.309494</ele>
        <time>2020-08-28T03:21:56.975Z</time>
      </trkpt>
      <trkpt lat="68.5137" lon="17.93437">
        <ele>310.609793</ele>
        <time>2020-08-28T03:22:03.626Z</time>
      </trkpt>
      <trkpt lat="68.51343" lon="17.93671">
        <ele>309.484722</ele>
        <time>2020-08-28T03:22:16.737Z</time>
      </trkpt>
      <trkpt lat="68.51332" lon="17.93736">
        <ele>309.157623</ele>
        <time>2020-08-28T03:22:21.080Z</time>
      </trkpt>
      <trkpt lat="68.51295" lon="17.93886">
        <ele>309.412861</ele>
        <time>2020-08-28T03:22:33.978Z</time>
      </trkpt>
      <trkpt lat="68.51226" lon="17.94062">
        <ele>310.833872</ele>
        <time>2020-08-28T03:22:56.076Z</time>
      </trkpt>
      <trkpt lat="68.51138" lon="17.94204">
        <ele>312.882922</ele>
        <time>2020-08-28T03:23:22.000Z</time>
      </trkpt>
      <trkpt lat="68.51117" lon="17.94231">
        <ele>313.442811</ele>
        <time>2020-08-28T03:23:27.856Z</time>
      </trkpt>
      <trkpt lat="68.51081" lon="17.94274">
        <ele>314.407677</ele>
        <time>2020-08-28T03:23:37.890Z</time>
      </trkpt>
      <trkpt lat="68.51007" lon="17.94355">
        <ele>316.529498</ele>
        <time>2020-08-28T03:23:58.330Z</time>
      </trkpt>
      <trkpt lat="68.50965" lon="17.94404">
        <ele>318.112407</ele>
        <time>2020-08-28T03:24:11.153Z</time>
      </trkpt>
      <trkpt lat="68.5093" lon="17.94454">
        <ele>319.462165</ele>
        <time>2020-08-28T03:24:22.622Z</time>
      </trkpt>
      <trkpt lat="68.50919" lon="17.94475">
        <ele>319.93126</ele>
        <time>2020-08-28T03:24:27.192Z</time>
      </trkpt>
      <trkpt lat="68.50902" lon="17.94508">
        <ele>320.646256</ele>
        <time>2020-08-28T03:24:33.098Z</time>
      </trkpt>
      <trkpt lat="68.50898" lon="17.94519">
        <ele>320.851967</ele>
        <time>2020-08-28T03:24:35.032Z</time>
      </trkpt>
      <trkpt lat="68.50885" lon="17.94555">
        <ele>321.476948</ele>
        <time>2020-08-28T03:24:40.883Z</time>
      </trkpt>
      <trkpt lat="68.50876" lon="17.94583">
        <ele>321.95227</ele>
        <time>2020-08-28T03:24:44.684Z</time>
      </trkpt>
      <trkpt lat="68.50863" lon="17.94629">
        <ele>322.590469</ele>
        <time>2020-08-28T03:24:51.713Z</time>
      </trkpt>
      <trkpt lat="68.50819" lon="17.94826">
        <ele>325.01185</ele>
        <time>2020-08-28T03:25:16.089Z</time>
      </trkpt>
      <trkpt lat="68.50789" lon="17.94929">
        <ele>326.391413</ele>
        <time>2020-08-28T03:25:28.999Z</time>
      </trkpt>
      <trkpt lat="68.50748" lon="17.95014">
        <ele>327.235601</ele>
        <time>2020-08-28T03:25:40.662Z</time>
      </trkpt>
      <trkpt lat="68.50648" lon="17.95122">
        <ele>327.146815</ele>
        <time>2020-08-28T03:25:58.336Z</time>
      </trkpt>
      <trkpt lat="68.50609" lon="17.95192">
        <ele>327.107856</ele>
        <time>2020-08-28T03:26:05.641Z</time>
      </trkpt>
      <trkpt lat="68.5058" lon="17.95278">
        <ele>327.625091</ele>
        <time>2020-08-28T03:26:12.893Z</time>
      </trkpt>
      <trkpt lat="68.50549" lon="17.95423">
        <ele>328.444817</ele>
        <time>2020-08-28T03:26:25.208Z</time>
      </trkpt>
      <trkpt lat="68.50496" lon="17.95716">
        <ele>331.032636</ele>
        <time>2020-08-28T03:26:57.087Z</time>
      </trkpt>
      <trkpt lat="68.50448" lon="17.95986">
        <ele>335.207941</ele>
        <time>2020-08-28T03:27:32.151Z</time>
      </trkpt>
      <trkpt lat="68.50336" lon="17.96608">
        <ele>344.249206</ele>
        <time>2020-08-28T03:28:47.509Z</time>
      </trkpt>
      <trkpt lat="68.5031" lon="17.96751">
        <ele>345.899904</ele>
        <time>2020-08-28T03:29:02.762Z</time>
      </trkpt>
      <trkpt lat="68.50282" lon="17.969">
        <ele>347.638982</ele>
        <time>2020-08-28T03:29:18.433Z</time>
      </trkpt>
      <trkpt lat="68.50248" lon="17.97067">
        <ele>349.665739</ele>
        <time>2020-08-28T03:29:36.686Z</time>
      </trkpt>
      <trkpt lat="68.50211" lon="17.97194">
        <ele>351.371395</ele>
        <time>2020-08-28T03:29:52.346Z</time>
      </trkpt>
      <trkpt lat="68.50182" lon="17.97271">
        <ele>352.555997</ele>
        <time>2020-08-28T03:30:03.970Z</time>
      </trkpt>
      <trkpt lat="68.50131" lon="17.9736">
        <ele>354.325857</ele>
        <time>2020-08-28T03:30:21.666Z</time>
      </trkpt>
      <trkpt lat="68.50093" lon="17.97402">
        <ele>355.528695</ele>
        <time>2020-08-28T03:30:33.378Z</time>
      </trkpt>
      <trkpt lat="68.50036" lon="17.97434">
        <ele>357.241086</ele>
        <time>2020-08-28T03:30:49.505Z</time>
      </trkpt>
      <trkpt lat="68.49995" lon="17.97436">
        <ele>358.446887</ele>
        <time>2020-08-28T03:31:00.140Z</time>
      </trkpt>
      <trkpt lat="68.49917" lon="17.97409">
        <ele>359.397672</ele>
        <time>2020-08-28T03:31:18.170Z</time>
      </trkpt>
      <trkpt lat="68.499" lon="17.97407">
        <ele>359.589504</ele>
        <time>2020-08-28T03:31:21.866Z</time>
      </trkpt>
      <trkpt lat="68.49878" lon="17.97412">
        <ele>359.838815</ele>
        <time>2020-08-28T03:31:26.354Z</time>
      </trkpt>
      <trkpt lat="68.49867" lon="17.97417">
        <ele>359.95985</ele>
        <time>2020-08-28T03:31:28.549Z</time>
      </trkpt>
      <trkpt lat="68.49857" lon="17.97423">
        <ele>360.077192</ele>
        <time>2020-08-28T03:31:30.594Z</time>
      </trkpt>
      <trkpt lat="68.49845" lon="17.97431">
        <ele>360.213263</ele>
        <time>2020-08-28T03:31:32.904Z</time>
      </trkpt>
      <trkpt lat="68.49831" lon="17.97443">
        <ele>360.37475</ele>
        <time>2020-08-28T03:31:35.703Z</time>
      </trkpt>
      <trkpt lat="68.49791" lon="17.97484">
        <ele>360.585102</ele>
        <time>2020-08-28T03:31:43.583Z</time>
      </trkpt>
      <trkpt lat="68.49751" lon="17.97525">
        <ele>360.590175</ele>
        <time>2020-08-28T03:31:51.455Z</time>
      </trkpt>
      <trkpt lat="68.49534" lon="17.97749">
        <ele>360.483144</ele>
        <time>2020-08-28T03:32:32.273Z</time>
      </trkpt>
      <trkpt lat="68.49475" lon="17.97802">
        <ele>360.421957</ele>
        <time>2020-08-28T03:32:42.947Z</time>
      </trkpt>
      <trkpt lat="68.49426" lon="17.97829">
        <ele>360.390805</ele>
        <time>2020-08-28T03:32:51.602Z</time>
      </trkpt>
      <trkpt lat="68.49417" lon="17.97832">
        <ele>360.38454</ele>
        <time>2020-08-28T03:32:53.363Z</time>
      </trkpt>
      <trkpt lat="68.49405" lon="17.97836">
        <ele>360.37752</ele>
        <time>2020-08-28T03:32:55.235Z</time>
      </trkpt>
      <trkpt lat="68.49366" lon="17.97837">
        <ele>360.352781</ele>
        <time>2020-08-28T03:33:02.100Z</time>
      </trkpt>
      <trkpt lat="68.49245" lon="17.97801">
        <ele>360.865821</ele>
        <time>2020-08-28T03:33:23.819Z</time>
      </trkpt>
      <trkpt lat="68.49171" lon="17.97818">
        <ele>361.634244</ele>
        <time>2020-08-28T03:33:37.883Z</time>
      </trkpt>
      <trkpt lat="68.4903" lon="17.97877">
        <ele>366.192526</ele>
        <time>2020-08-28T03:34:17.147Z</time>
      </trkpt>
      <trkpt lat="68.48918" lon="17.97925">
        <ele>371.738677</ele>
        <time>2020-08-28T03:34:58.221Z</time>
      </trkpt>
      <trkpt lat="68.48846" lon="17.97954">
        <ele>376.702976</ele>
        <time>2020-08-28T03:35:28.643Z</time>
      </trkpt>
      <trkpt lat="68.4878" lon="17.97966">
        <ele>381.1404</ele>
        <time>2020-08-28T03:35:55.323Z</time>
      </trkpt>
      <trkpt lat="68.48673" lon="17.97944">
        <ele>387.274553</ele>
        <time>2020-08-28T03:36:35.567Z</time>
      </trkpt>
      <trkpt lat="68.4862" lon="17.97916">
        <ele>390.250584</ele>
        <time>2020-08-28T03:36:54.747Z</time>
      </trkpt>
      <trkpt lat="68.48478" lon="17.97796">
        <ele>396.471087</ele>
        <time>2020-08-28T03:37:39.678Z</time>
      </trkpt>
      <trkpt lat="68.48424" lon="17.97768">
        <ele>398.500659</ele>
        <time>2020-08-28T03:37:54.502Z</time>
      </trkpt>
      <trkpt lat="68.48373" lon="17.97768">
        <ele>401.038067</ele>
        <time>2020-08-28T03:38:09.989Z</time>
      </trkpt>
      <trkpt lat="68.48316" lon="17.97799">
        <ele>404.088085</ele>
        <time>2020-08-28T03:38:28.956Z</time>
      </trkpt>
      <trkpt lat="68.48304" lon="17.97809">
        <ele>404.734423</ele>
        <time>2020-08-28T03:38:33.022Z</time>
      </trkpt>
      <trkpt lat="68.48296" lon="17.97815">
        <ele>405.188829</ele>
        <time>2020-08-28T03:38:36.627Z</time>
      </trkpt>
      <trkpt lat="68.48197" lon="17.97905">
        <ele>411.155357</ele>
        <time>2020-08-28T03:39:18.215Z</time>
      </trkpt>
      <trkpt lat="68.48102" lon="17.97945">
        <ele>417.30287</ele>
        <time>2020-08-28T03:39:57.964Z</time>
      </trkpt>
      <trkpt lat="68.48034" lon="17.97951">
        <ele>420.503449</ele>
        <time>2020-08-28T03:40:20.937Z</time>
      </trkpt>
      <trkpt lat="68.47874" lon="17.97913">
        <ele>424.235627</ele>
        <time>2020-08-28T03:40:56.973Z</time>
      </trkpt>
      <trkpt lat="68.47854" lon="17.97919">
        <ele>424.858093</ele>
        <time>2020-08-28T03:41:00.695Z</time>
      </trkpt>
      <trkpt lat="68.47842" lon="17.97924">
        <ele>425.224788</ele>
        <time>2020-08-28T03:41:04.186Z</time>
      </trkpt>
      <trkpt lat="68.478" lon="17.97962">
        <ele>426.561708</ele>
        <time>2020-08-28T03:41:15.184Z</time>
      </trkpt>
      <trkpt lat="68.4776" lon="17.98037">
        <ele>428.049202</ele>
        <time>2020-08-28T03:41:28.521Z</time>
      </trkpt>
      <trkpt lat="68.47749" lon="17.98067">
        <ele>428.540088</ele>
        <time>2020-08-28T03:41:34.104Z</time>
      </trkpt>
      <trkpt lat="68.47737" lon="17.98105">
        <ele>429.098507</ele>
        <time>2020-08-28T03:41:39.424Z</time>
      </trkpt>
      <trkpt lat="68.47509" lon="17.99153">
        <ele>450.08469</ele>
        <time>2020-08-28T03:44:19.213Z</time>
      </trkpt>
      <trkpt lat="68.47472" lon="17.99309">
        <ele>450.885666</ele>
        <time>2020-08-28T03:44:29.483Z</time>
      </trkpt>
      <trkpt lat="68.47408" lon="17.99526">
        <ele>449.9811</ele>
        <time>2020-08-28T03:44:43.047Z</time>
      </trkpt>
      <trkpt lat="68.47399" lon="17.99555">
        <ele>449.691543</ele>
        <time>2020-08-28T03:44:44.918Z</time>
      </trkpt>
      <trkpt lat="68.47371" lon="17.99646">
        <ele>448.77503</ele>
        <time>2020-08-28T03:44:50.804Z</time>
      </trkpt>
      <trkpt lat="68.47357" lon="17.99691">
        <ele>448.333615</ele>
        <time>2020-08-28T03:44:54.128Z</time>
      </trkpt>
      <trkpt lat="68.47319" lon="17.99859">
        <ele>447.562306</ele>
        <time>2020-08-28T03:45:05.386Z</time>
      </trkpt>
      <trkpt lat="68.47285" lon="18.00147">
        <ele>447.487781</ele>
        <time>2020-08-28T03:45:25.665Z</time>
      </trkpt>
      <trkpt lat="68.47245" lon="18.00356">
        <ele>448.285218</ele>
        <time>2020-08-28T03:45:42.694Z</time>
      </trkpt>
      <trkpt lat="68.47203" lon="18.00497">
        <ele>449.31333</ele>
        <time>2020-08-28T03:45:57.931Z</time>
      </trkpt>
      <trkpt lat="68.47118" lon="18.00706">
        <ele>451.220651</ele>
        <time>2020-08-28T03:46:27.406Z</time>
      </trkpt>
      <trkpt lat="68.47071" lon="18.00808">
        <ele>452.313357</ele>
        <time>2020-08-28T03:46:42.437Z</time>
      </trkpt>
      <trkpt lat="68.47051" lon="18.00855">
        <ele>452.799804</ele>
        <time>2020-08-28T03:46:48.738Z</time>
      </trkpt>
      <trkpt lat="68.47001" lon="18.00984">
        <ele>453.258784</ele>
        <time>2020-08-28T03:47:03.149Z</time>
      </trkpt>
      <trkpt lat="68.4691" lon="18.01251">
        <ele>452.237169</ele>
        <time>2020-08-28T03:47:23.362Z</time>
      </trkpt>
      <trkpt lat="68.46903" lon="18.01267">
        <ele>452.165811</ele>
        <time>2020-08-28T03:47:24.685Z</time>
      </trkpt>
      <trkpt lat="68.46899" lon="18.01277">
        <ele>452.123512</ele>
        <time>2020-08-28T03:47:25.351Z</time>
      </trkpt>
      <trkpt lat="68.46858" lon="18.01357">
        <ele>451.79932</ele>
        <time>2020-08-28T03:47:33.084Z</time>
      </trkpt>
      <trkpt lat="68.46819" lon="18.014">
        <ele>451.530267</ele>
        <time>2020-08-28T03:47:39.549Z</time>
      </trkpt>
      <trkpt lat="68.46666" lon="18.01465">
        <ele>450.807369</ele>
        <time>2020-08-28T03:48:06.820Z</time>
      </trkpt>
      <trkpt lat="68.46657" lon="18.01473">
        <ele>450.786614</ele>
        <time>2020-08-28T03:48:09.130Z</time>
      </trkpt>
      <trkpt lat="68.46635" lon="18.01496">
        <ele>450.733285</ele>
        <time>2020-08-28T03:48:12.880Z</time>
      </trkpt>
      <trkpt lat="68.46593" lon="18.01555">
        <ele>450.625598</ele>
        <time>2020-08-28T03:48:21.507Z</time>
      </trkpt>
      <trkpt lat="68.46553" lon="18.01642">
        <ele>450.341926</ele>
        <time>2020-08-28T03:48:29.565Z</time>
      </trkpt>
      <trkpt lat="68.46528" lon="18.01717">
        <ele>449.923841</ele>
        <time>2020-08-28T03:48:35.344Z</time>
      </trkpt>
      <trkpt lat="68.46495" lon="18.01845">
        <ele>449.277166</ele>
        <time>2020-08-28T03:48:43.779Z</time>
      </trkpt>
      <trkpt lat="68.46478" lon="18.01926">
        <ele>448.891443</ele>
        <time>2020-08-28T03:48:48.906Z</time>
      </trkpt>
      <trkpt lat="68.4646" lon="18.02023">
        <ele>448.47408</ele>
        <time>2020-08-28T03:48:55.007Z</time>
      </trkpt>
      <trkpt lat="68.46378" lon="18.02472">
        <ele>447.356054</ele>
        <time>2020-08-28T03:49:24.609Z</time>
      </trkpt>
      <trkpt lat="68.46312" lon="18.02762">
        <ele>447.674261</ele>
        <time>2020-08-28T03:49:48.097Z</time>
      </trkpt>
      <trkpt lat="68.46297" lon="18.02814">
        <ele>447.7356</ele>
        <time>2020-08-28T03:49:52.892Z</time>
      </trkpt>
      <trkpt lat="68.46287" lon="18.0285">
        <ele>447.778376</ele>
        <time>2020-08-28T03:49:56.499Z</time>
      </trkpt>
      <trkpt lat="68.46203" lon="18.031">
        <ele>448.283471</ele>
        <time>2020-08-28T03:50:21.259Z</time>
      </trkpt>
      <trkpt lat="68.46181" lon="18.03155">
        <ele>448.404934</ele>
        <time>2020-08-28T03:50:26.950Z</time>
      </trkpt>
      <trkpt lat="68.46146" lon="18.03239">
        <ele>448.397142</ele>
        <time>2020-08-28T03:50:35.058Z</time>
      </trkpt>
      <trkpt lat="68.46091" lon="18.03349">
        <ele>447.946609</ele>
        <time>2020-08-28T03:50:46.202Z</time>
      </trkpt>
      <trkpt lat="68.46008" lon="18.03489">
        <ele>447.335322</ele>
        <time>2020-08-28T03:51:01.403Z</time>
      </trkpt>
      <trkpt lat="68.45988" lon="18.03513">
        <ele>447.339944</ele>
        <time>2020-08-28T03:51:04.844Z</time>
      </trkpt>
      <trkpt lat="68.45959" lon="18.0354">
        <ele>447.346256</ele>
        <time>2020-08-28T03:51:09.719Z</time>
      </trkpt>
      <trkpt lat="68.45888" lon="18.03562">
        <ele>447.361307</ele>
        <time>2020-08-28T03:51:21.751Z</time>
      </trkpt>
      <trkpt lat="68.45875" lon="18.03561">
        <ele>447.363979</ele>
        <time>2020-08-28T03:51:23.962Z</time>
      </trkpt>
      <trkpt lat="68.45863" lon="18.03559">
        <ele>447.366591</ele>
        <time>2020-08-28T03:51:26.222Z</time>
      </trkpt>
      <trkpt lat="68.45695" lon="18.03525">
        <ele>450.686152</ele>
        <time>2020-08-28T03:52:07.179Z</time>
      </trkpt>
      <trkpt lat="68.45682" lon="18.03522">
        <ele>450.970213</ele>
        <time>2020-08-28T03:52:10.684Z</time>
      </trkpt>
      <trkpt lat="68.45669" lon="18.0352">
        <ele>451.275373</ele>
        <time>2020-08-28T03:52:14.621Z</time>
      </trkpt>
      <trkpt lat="68.45632" lon="18.035">
        <ele>452.742312</ele>
        <time>2020-08-28T03:52:25.738Z</time>
      </trkpt>
      <trkpt lat="68.45615" lon="18.03486">
        <ele>453.582399</ele>
        <time>2020-08-28T03:52:31.311Z</time>
      </trkpt>
      <trkpt lat="68.4559" lon="18.03462">
        <ele>454.800607</ele>
        <time>2020-08-28T03:52:39.726Z</time>
      </trkpt>
      <trkpt lat="68.45517" lon="18.03359">
        <ele>458.621413</ele>
        <time>2020-08-28T03:53:07.993Z</time>
      </trkpt>
      <trkpt lat="68.45452" lon="18.03295">
        <ele>462.207518</ele>
        <time>2020-08-28T03:53:31.762Z</time>
      </trkpt>
      <trkpt lat="68.45405" lon="18.03276">
        <ele>464.864551</ele>
        <time>2020-08-28T03:53:49.413Z</time>
      </trkpt>
      <trkpt lat="68.45317" lon="18.03264">
        <ele>469.792177</ele>
        <time>2020-08-28T03:54:21.995Z</time>
      </trkpt>
      <trkpt lat="68.45269" lon="18.03253">
        <ele>471.441727</ele>
        <time>2020-08-28T03:54:38.255Z</time>
      </trkpt>
      <trkpt lat="68.4521" lon="18.03227">
        <ele>473.41314</ele>
        <time>2020-08-28T03:54:56.001Z</time>
      </trkpt>
      <trkpt lat="68.45186" lon="18.03217">
        <ele>474.225789</ele>
        <time>2020-08-28T03:55:02.564Z</time>
      </trkpt>
      <trkpt lat="68.45117" lon="18.03218">
        <ele>475.841427</ele>
        <time>2020-08-28T03:55:18.462Z</time>
      </trkpt>
      <trkpt lat="68.45061" lon="18.03271">
        <ele>475.77979</ele>
        <time>2020-08-28T03:55:28.496Z</time>
      </trkpt>
      <trkpt lat="68.45048" lon="18.0329">
        <ele>475.765081</ele>
        <time>2020-08-28T03:55:30.693Z</time>
      </trkpt>
      <trkpt lat="68.45039" lon="18.03308">
        <ele>475.752958</ele>
        <time>2020-08-28T03:55:32.535Z</time>
      </trkpt>
      <trkpt lat="68.45007" lon="18.03385">
        <ele>475.70859</ele>
        <time>2020-08-28T03:55:39.545Z</time>
      </trkpt>
      <trkpt lat="68.44967" lon="18.03541">
        <ele>475.471125</ele>
        <time>2020-08-28T03:55:51.113Z</time>
      </trkpt>
      <trkpt lat="68.44934" lon="18.03711">
        <ele>475.087896</ele>
        <time>2020-08-28T03:56:02.602Z</time>
      </trkpt>
      <trkpt lat="68.44917" lon="18.03802">
        <ele>474.883797</ele>
        <time>2020-08-28T03:56:08.732Z</time>
      </trkpt>
      <trkpt lat="68.44902" lon="18.03876">
        <ele>474.714913</ele>
        <time>2020-08-28T03:56:13.881Z</time>
      </trkpt>
      <trkpt lat="68.44897" lon="18.03901">
        <ele>474.667544</ele>
        <time>2020-08-28T03:56:15.476Z</time>
      </trkpt>
      <trkpt lat="68.44875" lon="18.03987">
        <ele>474.514726</ele>
        <time>2020-08-28T03:56:21.900Z</time>
      </trkpt>
      <trkpt lat="68.44832" lon="18.0411">
        <ele>474.265746</ele>
        <time>2020-08-28T03:56:32.474Z</time>
      </trkpt>
      <trkpt lat="68.44806" lon="18.0418">
        <ele>474.116773</ele>
        <time>2020-08-28T03:56:38.511Z</time>
      </trkpt>
      <trkpt lat="68.44753" lon="18.04316">
        <ele>474.161486</ele>
        <time>2020-08-28T03:56:50.889Z</time>
      </trkpt>
      <trkpt lat="68.44709" lon="18.04432">
        <ele>474.472161</ele>
        <time>2020-08-28T03:57:02.082Z</time>
      </trkpt>
      <trkpt lat="68.44694" lon="18.0447">
        <ele>474.574436</ele>
        <time>2020-08-28T03:57:06.044Z</time>
      </trkpt>
      <trkpt lat="68.44688" lon="18.04485">
        <ele>474.615158</ele>
        <time>2020-08-28T03:57:07.620Z</time>
      </trkpt>
      <trkpt lat="68.4461" lon="18.04685">
        <ele>476.773855</ele>
        <time>2020-08-28T03:57:31.605Z</time>
      </trkpt>
      <trkpt lat="68.4459" lon="18.04743">
        <ele>477.808221</ele>
        <time>2020-08-28T03:57:39.544Z</time>
      </trkpt>
      <trkpt lat="68.44528" lon="18.04903">
        <ele>480.775115</ele>
        <time>2020-08-28T03:58:07.586Z</time>
      </trkpt>
      <trkpt lat="68.44505" lon="18.04964">
        <ele>482.338821</ele>
        <time>2020-08-28T03:58:19.108Z</time>
      </trkpt>
      <trkpt lat="68.44462" lon="18.05083">
        <ele>485.730457</ele>
        <time>2020-08-28T03:58:40.964Z</time>
      </trkpt>
      <trkpt lat="68.44455" lon="18.05105">
        <ele>486.30149</ele>
        <time>2020-08-28T03:58:45.326Z</time>
      </trkpt>
      <trkpt lat="68.44449" lon="18.05125">
        <ele>486.838589</ele>
        <time>2020-08-28T03:58:49.261Z</time>
      </trkpt>
      <trkpt lat="68.44418" lon="18.05262">
        <ele>490.100099</ele>
        <time>2020-08-28T03:59:09.758Z</time>
      </trkpt>
      <trkpt lat="68.44404" lon="18.05383">
        <ele>492.388268</ele>
        <time>2020-08-28T03:59:25.901Z</time>
      </trkpt>
      <trkpt lat="68.44399" lon="18.05516">
        <ele>494.61989</ele>
        <time>2020-08-28T03:59:42.528Z</time>
      </trkpt>
      <trkpt lat="68.44408" lon="18.05673">
        <ele>497.272173</ele>
        <time>2020-08-28T03:59:59.880Z</time>
      </trkpt>
      <trkpt lat="68.44414" lon="18.05726">
        <ele>498.184455</ele>
        <time>2020-08-28T04:00:06.105Z</time>
      </trkpt>
      <trkpt lat="68.44432" lon="18.05864">
        <ele>500.818735</ele>
        <time>2020-08-28T04:00:23.731Z</time>
      </trkpt>
      <trkpt lat="68.44445" lon="18.05977">
        <ele>503.040433</ele>
        <time>2020-08-28T04:00:38.388Z</time>
      </trkpt>
      <trkpt lat="68.44448" lon="18.06074">
        <ele>504.855863</ele>
        <time>2020-08-28T04:00:50.833Z</time>
      </trkpt>
      <trkpt lat="68.44436" lon="18.0624">
        <ele>508.033607</ele>
        <time>2020-08-28T04:01:13.178Z</time>
      </trkpt>
      <trkpt lat="68.44414" lon="18.06354">
        <ele>510.224872</ele>
        <time>2020-08-28T04:01:29.956Z</time>
      </trkpt>
      <trkpt lat="68.44322" lon="18.06617">
        <ele>516.204116</ele>
        <time>2020-08-28T04:02:12.970Z</time>
      </trkpt>
      <trkpt lat="68.44307" lon="18.0669">
        <ele>516.982556</ele>
        <time>2020-08-28T04:02:21.516Z</time>
      </trkpt>
      <trkpt lat="68.44302" lon="18.06727">
        <ele>517.259061</ele>
        <time>2020-08-28T04:02:25.266Z</time>
      </trkpt>
      <trkpt lat="68.44292" lon="18.06814">
        <ele>517.88496</ele>
        <time>2020-08-28T04:02:33.601Z</time>
      </trkpt>
      <trkpt lat="68.4429" lon="18.06952">
        <ele>518.835528</ele>
        <time>2020-08-28T04:02:45.259Z</time>
      </trkpt>
      <trkpt lat="68.44309" lon="18.07254">
        <ele>520.238697</ele>
        <time>2020-08-28T04:03:07.695Z</time>
      </trkpt>
      <trkpt lat="68.4431" lon="18.07376">
        <ele>520.498934</ele>
        <time>2020-08-28T04:03:16.467Z</time>
      </trkpt>
      <trkpt lat="68.44302" lon="18.07553">
        <ele>520.880931</ele>
        <time>2020-08-28T04:03:29.483Z</time>
      </trkpt>
      <trkpt lat="68.4429" lon="18.07652">
        <ele>521.004991</ele>
        <time>2020-08-28T04:03:36.995Z</time>
      </trkpt>
      <trkpt lat="68.44267" lon="18.07785">
        <ele>521.09609</ele>
        <time>2020-08-28T04:03:47.538Z</time>
      </trkpt>
      <trkpt lat="68.44241" lon="18.07885">
        <ele>521.171544</ele>
        <time>2020-08-28T04:03:55.911Z</time>
      </trkpt>
      <trkpt lat="68.4416" lon="18.08116">
        <ele>520.648618</ele>
        <time>2020-08-28T04:04:15.644Z</time>
      </trkpt>
      <trkpt lat="68.44087" lon="18.08351">
        <ele>519.476677</ele>
        <time>2020-08-28T04:04:32.908Z</time>
      </trkpt>
      <trkpt lat="68.44065" lon="18.08438">
        <ele>518.306373</ele>
        <time>2020-08-28T04:04:38.419Z</time>
      </trkpt>
      <trkpt lat="68.44056" lon="18.08477">
        <ele>517.733051</ele>
        <time>2020-08-28T04:04:40.705Z</time>
      </trkpt>
      <trkpt lat="68.4401" lon="18.08711">
        <ele>514.40933</ele>
        <time>2020-08-28T04:04:53.328Z</time>
      </trkpt>
      <trkpt lat="68.43948" lon="18.09185">
        <ele>505.700793</ele>
        <time>2020-08-28T04:05:15.553Z</time>
      </trkpt>
      <trkpt lat="68.43915" lon="18.09363">
        <ele>503.091779</ele>
        <time>2020-08-28T04:05:24.612Z</time>
      </trkpt>
      <trkpt lat="68.43886" lon="18.09458">
        <ele>501.883616</ele>
        <time>2020-08-28T04:05:30.527Z</time>
      </trkpt>
      <trkpt lat="68.43862" lon="18.09537">
        <ele>500.87536</ele>
        <time>2020-08-28T04:05:35.752Z</time>
      </trkpt>
      <trkpt lat="68.43828" lon="18.0966">
        <ele>499.501042</ele>
        <time>2020-08-28T04:05:44.260Z</time>
      </trkpt>
      <trkpt lat="68.43744" lon="18.10009">
        <ele>499.70497</ele>
        <time>2020-08-28T04:06:12.771Z</time>
      </trkpt>
      <trkpt lat="68.43674" lon="18.10192">
        <ele>500.897435</ele>
        <time>2020-08-28T04:06:33.297Z</time>
      </trkpt>
      <trkpt lat="68.43626" lon="18.10291">
        <ele>501.817374</ele>
        <time>2020-08-28T04:06:46.671Z</time>
      </trkpt>
      <trkpt lat="68.43606" lon="18.10343">
        <ele>502.245237</ele>
        <time>2020-08-28T04:06:53.521Z</time>
      </trkpt>
      <trkpt lat="68.43545" lon="18.10546">
        <ele>505.201369</ele>
        <time>2020-08-28T04:07:19.738Z</time>
      </trkpt>
      <trkpt lat="68.43526" lon="18.1065">
        <ele>506.645571</ele>
        <time>2020-08-28T04:07:32.606Z</time>
      </trkpt>
      <trkpt lat="68.43522" lon="18.10678">
        <ele>507.020869</ele>
        <time>2020-08-28T04:07:36.512Z</time>
      </trkpt>
      <trkpt lat="68.43507" lon="18.10762">
        <ele>508.183441</ele>
        <time>2020-08-28T04:07:46.836Z</time>
      </trkpt>
      <trkpt lat="68.43501" lon="18.10803">
        <ele>508.720775</ele>
        <time>2020-08-28T04:07:51.260Z</time>
      </trkpt>
      <trkpt lat="68.43485" lon="18.10903">
        <ele>510.031474</ele>
        <time>2020-08-28T04:08:03.358Z</time>
      </trkpt>
      <trkpt lat="68.43483" lon="18.10918">
        <ele>510.227442</ele>
        <time>2020-08-28T04:08:05.259Z</time>
      </trkpt>
      <trkpt lat="68.43481" lon="18.10933">
        <ele>510.406518</ele>
        <time>2020-08-28T04:08:07.394Z</time>
      </trkpt>
      <trkpt lat="68.43462" lon="18.1104">
        <ele>511.824645</ele>
        <time>2020-08-28T04:08:20.477Z</time>
      </trkpt>
      <trkpt lat="68.43453" lon="18.11085">
        <ele>512.441233</ele>
        <time>2020-08-28T04:08:25.622Z</time>
      </trkpt>
      <trkpt lat="68.43446" lon="18.11131">
        <ele>513.034013</ele>
        <time>2020-08-28T04:08:30.629Z</time>
      </trkpt>
      <trkpt lat="68.43431" lon="18.11194">
        <ele>513.922151</ele>
        <time>2020-08-28T04:08:37.936Z</time>
      </trkpt>
      <trkpt lat="68.43421" lon="18.11241">
        <ele>514.43346</ele>
        <time>2020-08-28T04:08:42.664Z</time>
      </trkpt>
      <trkpt lat="68.43413" lon="18.1127">
        <ele>514.437426</ele>
        <time>2020-08-28T04:08:46.348Z</time>
      </trkpt>
      <trkpt lat="68.43387" lon="18.11364">
        <ele>514.450055</ele>
        <time>2020-08-28T04:08:56.071Z</time>
      </trkpt>
      <trkpt lat="68.43332" lon="18.11535">
        <ele>514.474474</ele>
        <time>2020-08-28T04:09:10.750Z</time>
      </trkpt>
      <trkpt lat="68.4331" lon="18.11584">
        <ele>514.482978</ele>
        <time>2020-08-28T04:09:14.961Z</time>
      </trkpt>
      <trkpt lat="68.43282" lon="18.11634">
        <ele>513.294304</ele>
        <time>2020-08-28T04:09:19.370Z</time>
      </trkpt>
      <trkpt lat="68.43263" lon="18.11667">
        <ele>512.268185</ele>
        <time>2020-08-28T04:09:22.186Z</time>
      </trkpt>
      <trkpt lat="68.43209" lon="18.11716">
        <ele>509.675803</ele>
        <time>2020-08-28T04:09:29.295Z</time>
      </trkpt>
      <trkpt lat="68.4318" lon="18.11733">
        <ele>508.338688</ele>
        <time>2020-08-28T04:09:32.860Z</time>
      </trkpt>
      <trkpt lat="68.43114" lon="18.11762">
        <ele>505.063879</ele>
        <time>2020-08-28T04:09:40.660Z</time>
      </trkpt>
      <trkpt lat="68.43031" lon="18.11817">
        <ele>500.412247</ele>
        <time>2020-08-28T04:09:50.591Z</time>
      </trkpt>
      <trkpt lat="68.43001" lon="18.11856">
        <ele>498.568459</ele>
        <time>2020-08-28T04:09:54.654Z</time>
      </trkpt>
      <trkpt lat="68.42984" lon="18.11885">
        <ele>497.496091</ele>
        <time>2020-08-28T04:09:57.071Z</time>
      </trkpt>
      <trkpt lat="68.42947" lon="18.11962">
        <ele>496.037628</ele>
        <time>2020-08-28T04:10:03.064Z</time>
      </trkpt>
      <trkpt lat="68.42922" lon="18.12032">
        <ele>495.454181</ele>
        <time>2020-08-28T04:10:07.966Z</time>
      </trkpt>
      <trkpt lat="68.42827" lon="18.12345">
        <ele>493.208311</ele>
        <time>2020-08-28T04:10:32.451Z</time>
      </trkpt>
      <trkpt lat="68.42789" lon="18.12496">
        <ele>492.411316</ele>
        <time>2020-08-28T04:10:43.753Z</time>
      </trkpt>
      <trkpt lat="68.42761" lon="18.12612">
        <ele>491.808529</ele>
        <time>2020-08-28T04:10:51.320Z</time>
      </trkpt>
      <trkpt lat="68.42733" lon="18.12778">
        <ele>489.794017</ele>
        <time>2020-08-28T04:11:00.380Z</time>
      </trkpt>
      <trkpt lat="68.42717" lon="18.12933">
        <ele>487.212542</ele>
        <time>2020-08-28T04:11:07.768Z</time>
      </trkpt>
      <trkpt lat="68.42708" lon="18.1311">
        <ele>484.370529</ele>
        <time>2020-08-28T04:11:15.622Z</time>
      </trkpt>
      <trkpt lat="68.42707" lon="18.13248">
        <ele>482.136022</ele>
        <time>2020-08-28T04:11:21.710Z</time>
      </trkpt>
      <trkpt lat="68.42718" lon="18.13461">
        <ele>478.657579</ele>
        <time>2020-08-28T04:11:31.230Z</time>
      </trkpt>
      <trkpt lat="68.42778" lon="18.14019">
        <ele>472.730237</ele>
        <time>2020-08-28T04:11:59.789Z</time>
      </trkpt>
      <trkpt lat="68.42784" lon="18.14153">
        <ele>472.250071</ele>
        <time>2020-08-28T04:12:09.366Z</time>
      </trkpt>
      <trkpt lat="68.42782" lon="18.14259">
        <ele>472.656098</ele>
        <time>2020-08-28T04:12:17.546Z</time>
      </trkpt>
      <trkpt lat="68.42768" lon="18.14432">
        <ele>473.344084</ele>
        <time>2020-08-28T04:12:32.492Z</time>
      </trkpt>
      <trkpt lat="68.42752" lon="18.14547">
        <ele>473.815152</ele>
        <time>2020-08-28T04:12:43.093Z</time>
      </trkpt>
      <trkpt lat="68.42705" lon="18.14817">
        <ele>474.429946</ele>
        <time>2020-08-28T04:13:05.581Z</time>
      </trkpt>
      <trkpt lat="68.42664" lon="18.15117">
        <ele>475.05821</ele>
        <time>2020-08-28T04:13:26.170Z</time>
      </trkpt>
      <trkpt lat="68.42638" lon="18.15418">
        <ele>475.783152</ele>
        <time>2020-08-28T04:13:49.285Z</time>
      </trkpt>
      <trkpt lat="68.42611" lon="18.1585">
        <ele>476.508917</ele>
        <time>2020-08-28T04:14:23.995Z</time>
      </trkpt>
      <trkpt lat="68.42601" lon="18.16054">
        <ele>476.043529</ele>
        <time>2020-08-28T04:14:35.856Z</time>
      </trkpt>
      <trkpt lat="68.42596" lon="18.16195">
        <ele>474.646288</ele>
        <time>2020-08-28T04:14:43.035Z</time>
      </trkpt>
      <trkpt lat="68.42595" lon="18.16233">
        <ele>474.26913</ele>
        <time>2020-08-28T04:14:44.836Z</time>
      </trkpt>
      <trkpt lat="68.4259" lon="18.16412">
        <ele>472.5008</ele>
        <time>2020-08-28T04:14:53.363Z</time>
      </trkpt>
      <trkpt lat="68.42586" lon="18.16525">
        <ele>471.524254</ele>
        <time>2020-08-28T04:14:58.606Z</time>
      </trkpt>
      <trkpt lat="68.42585" lon="18.16608">
        <ele>470.922585</ele>
        <time>2020-08-28T04:15:02.648Z</time>
      </trkpt>
      <trkpt lat="68.42585" lon="18.16722">
        <ele>470.093847</ele>
        <time>2020-08-28T04:15:08.483Z</time>
      </trkpt>
      <trkpt lat="68.42585" lon="18.16793">
        <ele>469.578815</ele>
        <time>2020-08-28T04:15:12.304Z</time>
      </trkpt>
      <trkpt lat="68.42586" lon="18.16854">
        <ele>469.137603</ele>
        <time>2020-08-28T04:15:15.541Z</time>
      </trkpt>
      <trkpt lat="68.42586" lon="18.16963">
        <ele>468.359267</ele>
        <time>2020-08-28T04:15:21.759Z</time>
      </trkpt>
      <trkpt lat="68.42597" lon="18.17347">
        <ele>469.021414</ele>
        <time>2020-08-28T04:15:49.103Z</time>
      </trkpt>
      <trkpt lat="68.42616" lon="18.17696">
        <ele>470.446257</ele>
        <time>2020-08-28T04:16:17.890Z</time>
      </trkpt>
      <trkpt lat="68.42642" lon="18.18065">
        <ele>472.123959</ele>
        <time>2020-08-28T04:16:48.923Z</time>
      </trkpt>
      <trkpt lat="68.42665" lon="18.18273">
        <ele>472.890389</ele>
        <time>2020-08-28T04:17:05.388Z</time>
      </trkpt>
      <trkpt lat="68.42671" lon="18.18316">
        <ele>473.050382</ele>
        <time>2020-08-28T04:17:08.916Z</time>
      </trkpt>
      <trkpt lat="68.42677" lon="18.18364">
        <ele>473.22954</ele>
        <time>2020-08-28T04:17:12.546Z</time>
      </trkpt>
      <trkpt lat="68.42688" lon="18.18432">
        <ele>473.53054</ele>
        <time>2020-08-28T04:17:18.075Z</time>
      </trkpt>
      <trkpt lat="68.42699" lon="18.18505">
        <ele>473.891212</ele>
        <time>2020-08-28T04:17:23.839Z</time>
      </trkpt>
      <trkpt lat="68.42705" lon="18.18536">
        <ele>474.047759</ele>
        <time>2020-08-28T04:17:26.179Z</time>
      </trkpt>
      <trkpt lat="68.42727" lon="18.18655">
        <ele>474.661444</ele>
        <time>2020-08-28T04:17:35.899Z</time>
      </trkpt>
      <trkpt lat="68.42768" lon="18.18843">
        <ele>475.778611</ele>
        <time>2020-08-28T04:17:54.665Z</time>
      </trkpt>
      <trkpt lat="68.42811" lon="18.18999">
        <ele>478.536753</ele>
        <time>2020-08-28T04:18:14.605Z</time>
      </trkpt>
      <trkpt lat="68.42815" lon="18.19013">
        <ele>478.789639</ele>
        <time>2020-08-28T04:18:16.661Z</time>
      </trkpt>
      <trkpt lat="68.4283" lon="18.19066">
        <ele>479.736124</ele>
        <time>2020-08-28T04:18:24.133Z</time>
      </trkpt>
      <trkpt lat="68.42997" lon="18.19542">
        <ele>490.668901</ele>
        <time>2020-08-28T04:19:46.284Z</time>
      </trkpt>
      <trkpt lat="68.43032" lon="18.1969">
        <ele>492.771811</ele>
        <time>2020-08-28T04:20:05.951Z</time>
      </trkpt>
      <trkpt lat="68.43056" lon="18.19841">
        <ele>494.541465</ele>
        <time>2020-08-28T04:20:22.408Z</time>
      </trkpt>
      <trkpt lat="68.4307" lon="18.20007">
        <ele>496.385737</ele>
        <time>2020-08-28T04:20:37.800Z</time>
      </trkpt>
      <trkpt lat="68.43075" lon="18.20165">
        <ele>497.140874</ele>
        <time>2020-08-28T04:20:50.754Z</time>
      </trkpt>
      <trkpt lat="68.43069" lon="18.20324">
        <ele>497.858386</ele>
        <time>2020-08-28T04:21:03.201Z</time>
      </trkpt>
      <trkpt lat="68.43037" lon="18.20647">
        <ele>498.74058</ele>
        <time>2020-08-28T04:21:29.226Z</time>
      </trkpt>
      <trkpt lat="68.43033" lon="18.20855">
        <ele>498.843067</ele>
        <time>2020-08-28T04:21:42.760Z</time>
      </trkpt>
      <trkpt lat="68.43036" lon="18.20903">
        <ele>498.867211</ele>
        <time>2020-08-28T04:21:45.935Z</time>
      </trkpt>
      <trkpt lat="68.4304" lon="18.20966">
        <ele>498.898729</ele>
        <time>2020-08-28T04:21:49.537Z</time>
      </trkpt>
      <trkpt lat="68.43065" lon="18.21156">
        <ele>498.321818</ele>
        <time>2020-08-28T04:22:01.386Z</time>
      </trkpt>
      <trkpt lat="68.43074" lon="18.21212">
        <ele>498.135445</ele>
        <time>2020-08-28T04:22:04.705Z</time>
      </trkpt>
      <trkpt lat="68.43088" lon="18.21302">
        <ele>497.83237</ele>
        <time>2020-08-28T04:22:10.277Z</time>
      </trkpt>
      <trkpt lat="68.43129" lon="18.21637">
        <ele>496.84085</ele>
        <time>2020-08-28T04:22:31.330Z</time>
      </trkpt>
      <trkpt lat="68.43151" lon="18.2197">
        <ele>495.412297</ele>
        <time>2020-08-28T04:22:51.516Z</time>
      </trkpt>
      <trkpt lat="68.43153" lon="18.22081">
        <ele>494.139607</ele>
        <time>2020-08-28T04:22:57.340Z</time>
      </trkpt>
      <trkpt lat="68.43145" lon="18.22494">
        <ele>488.499052</ele>
        <time>2020-08-28T04:23:16.496Z</time>
      </trkpt>
      <trkpt lat="68.43151" lon="18.22699">
        <ele>484.226931</ele>
        <time>2020-08-28T04:23:25.452Z</time>
      </trkpt>
      <trkpt lat="68.43169" lon="18.22886">
        <ele>480.210151</ele>
        <time>2020-08-28T04:23:33.661Z</time>
      </trkpt>
      <trkpt lat="68.43202" lon="18.23089">
        <ele>476.065137</ele>
        <time>2020-08-28T04:23:43.289Z</time>
      </trkpt>
      <trkpt lat="68.43204" lon="18.23097">
        <ele>475.903378</ele>
        <time>2020-08-28T04:23:43.617Z</time>
      </trkpt>
      <trkpt lat="68.43228" lon="18.23206">
        <ele>473.522638</ele>
        <time>2020-08-28T04:23:49.399Z</time>
      </trkpt>
      <trkpt lat="68.43249" lon="18.23294">
        <ele>471.562764</ele>
        <time>2020-08-28T04:23:54.258Z</time>
      </trkpt>
      <trkpt lat="68.43253" lon="18.23311">
        <ele>471.198191</ele>
        <time>2020-08-28T04:23:55.236Z</time>
      </trkpt>
      <trkpt lat="68.43338" lon="18.23734">
        <ele>468.317763</ele>
        <time>2020-08-28T04:24:20.962Z</time>
      </trkpt>
      <trkpt lat="68.43383" lon="18.241">
        <ele>469.957566</ele>
        <time>2020-08-28T04:24:50.392Z</time>
      </trkpt>
      <trkpt lat="68.43407" lon="18.24395">
        <ele>473.630232</ele>
        <time>2020-08-28T04:25:21.641Z</time>
      </trkpt>
      <trkpt lat="68.43424" lon="18.24675">
        <ele>478.323234</ele>
        <time>2020-08-28T04:25:57.444Z</time>
      </trkpt>
      <trkpt lat="68.43433" lon="18.24913">
        <ele>484.573202</ele>
        <time>2020-08-28T04:26:31.929Z</time>
      </trkpt>
      <trkpt lat="68.43434" lon="18.25093">
        <ele>489.409571</ele>
        <time>2020-08-28T04:27:00.450Z</time>
      </trkpt>
      <trkpt lat="68.43432" lon="18.25234">
        <ele>493.403055</ele>
        <time>2020-08-28T04:27:23.683Z</time>
      </trkpt>
      <trkpt lat="68.4342" lon="18.25481">
        <ele>501.024662</ele>
        <time>2020-08-28T04:28:05.582Z</time>
      </trkpt>
      <trkpt lat="68.43402" lon="18.25652">
        <ele>506.441709</ele>
        <time>2020-08-28T04:28:34.894Z</time>
      </trkpt>
      <trkpt lat="68.43384" lon="18.25783">
        <ele>509.328676</ele>
        <time>2020-08-28T04:28:56.070Z</time>
      </trkpt>
      <trkpt lat="68.43353" lon="18.25943">
        <ele>513.000226</ele>
        <time>2020-08-28T04:29:20.070Z</time>
      </trkpt>
      <trkpt lat="68.43328" lon="18.26048">
        <ele>515.548918</ele>
        <time>2020-08-28T04:29:34.617Z</time>
      </trkpt>
      <trkpt lat="68.43294" lon="18.26164">
        <ele>517.133593</ele>
        <time>2020-08-28T04:29:49.731Z</time>
      </trkpt>
      <trkpt lat="68.43225" lon="18.26341">
        <ele>518.724306</ele>
        <time>2020-08-28T04:30:11.242Z</time>
      </trkpt>
      <trkpt lat="68.43195" lon="18.26407">
        <ele>519.37052</ele>
        <time>2020-08-28T04:30:18.851Z</time>
      </trkpt>
      <trkpt lat="68.43131" lon="18.26537">
        <ele>519.649644</ele>
        <time>2020-08-28T04:30:33.791Z</time>
      </trkpt>
      <trkpt lat="68.42916" lon="18.26907">
        <ele>519.855572</ele>
        <time>2020-08-28T04:31:19.235Z</time>
      </trkpt>
      <trkpt lat="68.42834" lon="18.27131">
        <ele>519.538593</ele>
        <time>2020-08-28T04:31:39.932Z</time>
      </trkpt>
      <trkpt lat="68.42797" lon="18.2732">
        <ele>519.226791</ele>
        <time>2020-08-28T04:31:53.116Z</time>
      </trkpt>
      <trkpt lat="68.42791" lon="18.27376">
        <ele>519.11541</ele>
        <time>2020-08-28T04:31:56.510Z</time>
      </trkpt>
      <trkpt lat="68.42785" lon="18.27452">
        <ele>518.452754</ele>
        <time>2020-08-28T04:32:00.913Z</time>
      </trkpt>
      <trkpt lat="68.42772" lon="18.2764">
        <ele>516.825894</ele>
        <time>2020-08-28T04:32:11.118Z</time>
      </trkpt>
      <trkpt lat="68.4275" lon="18.27873">
        <ele>514.47012</ele>
        <time>2020-08-28T04:32:22.795Z</time>
      </trkpt>
      <trkpt lat="68.42726" lon="18.28025">
        <ele>511.018571</ele>
        <time>2020-08-28T04:32:30.139Z</time>
      </trkpt>
      <trkpt lat="68.4269" lon="18.2818">
        <ele>507.188317</ele>
        <time>2020-08-28T04:32:38.072Z</time>
      </trkpt>
      <trkpt lat="68.42683" lon="18.28207">
        <ele>506.48823</ele>
        <time>2020-08-28T04:32:39.448Z</time>
      </trkpt>
      <trkpt lat="68.42662" lon="18.28283">
        <ele>504.42569</ele>
        <time>2020-08-28T04:32:43.500Z</time>
      </trkpt>
      <trkpt lat="68.42603" lon="18.28425">
        <ele>498.921663</ele>
        <time>2020-08-28T04:32:52.448Z</time>
      </trkpt>
      <trkpt lat="68.42488" lon="18.28643">
        <ele>490.364183</ele>
        <time>2020-08-28T04:33:08.654Z</time>
      </trkpt>
      <trkpt lat="68.42462" lon="18.28704">
        <ele>488.936814</ele>
        <time>2020-08-28T04:33:12.824Z</time>
      </trkpt>
      <trkpt lat="68.42437" lon="18.28774">
        <ele>487.457974</ele>
        <time>2020-08-28T04:33:17.317Z</time>
      </trkpt>
      <trkpt lat="68.42405" lon="18.28891">
        <ele>485.246323</ele>
        <time>2020-08-28T04:33:24.558Z</time>
      </trkpt>
      <trkpt lat="68.42378" lon="18.29026">
        <ele>484.592411</ele>
        <time>2020-08-28T04:33:33.239Z</time>
      </trkpt>
      <trkpt lat="68.42354" lon="18.29232">
        <ele>484.345691</ele>
        <time>2020-08-28T04:33:47.936Z</time>
      </trkpt>
      <trkpt lat="68.42348" lon="18.29376">
        <ele>484.17945</ele>
        <time>2020-08-28T04:33:58.078Z</time>
      </trkpt>
      <trkpt lat="68.4235" lon="18.29532">
        <ele>483.617676</ele>
        <time>2020-08-28T04:34:08.348Z</time>
      </trkpt>
      <trkpt lat="68.42376" lon="18.29939">
        <ele>482.194541</ele>
        <time>2020-08-28T04:34:30.649Z</time>
      </trkpt>
      <trkpt lat="68.42383" lon="18.30028">
        <ele>482.009438</ele>
        <time>2020-08-28T04:34:35.553Z</time>
      </trkpt>
      <trkpt lat="68.42386" lon="18.30059">
        <ele>481.94398</ele>
        <time>2020-08-28T04:34:37.367Z</time>
      </trkpt>
      <trkpt lat="68.42392" lon="18.30143">
        <ele>481.768718</ele>
        <time>2020-08-28T04:34:42.277Z</time>
      </trkpt>
      <trkpt lat="68.42436" lon="18.30564">
        <ele>482.072965</ele>
        <time>2020-08-28T04:35:13.261Z</time>
      </trkpt>
      <trkpt lat="68.42481" lon="18.30881">
        <ele>483.167875</ele>
        <time>2020-08-28T04:35:40.876Z</time>
      </trkpt>
      <trkpt lat="68.42529" lon="18.311">
        <ele>484.017628</ele>
        <time>2020-08-28T04:36:00.573Z</time>
      </trkpt>
      <trkpt lat="68.42624" lon="18.31446">
        <ele>484.750469</ele>
        <time>2020-08-28T04:36:31.304Z</time>
      </trkpt>
      <trkpt lat="68.42651" lon="18.31597">
        <ele>484.882771</ele>
        <time>2020-08-28T04:36:42.434Z</time>
      </trkpt>
      <trkpt lat="68.42684" lon="18.31857">
        <ele>484.252415</ele>
        <time>2020-08-28T04:36:59.379Z</time>
      </trkpt>
      <trkpt lat="68.42703" lon="18.32057">
        <ele>483.653586</ele>
        <time>2020-08-28T04:37:11.117Z</time>
      </trkpt>
      <trkpt lat="68.42734" lon="18.32477">
        <ele>481.371301</ele>
        <time>2020-08-28T04:37:34.254Z</time>
      </trkpt>
      <trkpt lat="68.42741" lon="18.32585">
        <ele>480.749102</ele>
        <time>2020-08-28T04:37:40.155Z</time>
      </trkpt>
      <trkpt lat="68.42745" lon="18.32678">
        <ele>480.047515</ele>
        <time>2020-08-28T04:37:45.190Z</time>
      </trkpt>
      <trkpt lat="68.42751" lon="18.32912">
        <ele>478.283778</ele>
        <time>2020-08-28T04:37:57.584Z</time>
      </trkpt>
      <trkpt lat="68.42744" lon="18.33202">
        <ele>475.390998</ele>
        <time>2020-08-28T04:38:12.072Z</time>
      </trkpt>
      <trkpt lat="68.42734" lon="18.33346">
        <ele>473.459716</ele>
        <time>2020-08-28T04:38:19.020Z</time>
      </trkpt>
      <trkpt lat="68.42676" lon="18.33879">
        <ele>465.772147</ele>
        <time>2020-08-28T04:38:44.560Z</time>
      </trkpt>
      <trkpt lat="68.42655" lon="18.34131">
        <ele>462.837168</ele>
        <time>2020-08-28T04:38:56.936Z</time>
      </trkpt>
      <trkpt lat="68.42632" lon="18.34562">
        <ele>459.824946</ele>
        <time>2020-08-28T04:39:20.120Z</time>
      </trkpt>
      <trkpt lat="68.42617" lon="18.35089">
        <ele>458.608641</ele>
        <time>2020-08-28T04:39:51.629Z</time>
      </trkpt>
      <trkpt lat="68.42614" lon="18.35267">
        <ele>458.709569</ele>
        <time>2020-08-28T04:40:03.298Z</time>
      </trkpt>
      <trkpt lat="68.42614" lon="18.35304">
        <ele>458.730598</ele>
        <time>2020-08-28T04:40:05.826Z</time>
      </trkpt>
      <trkpt lat="68.42613" lon="18.35389">
        <ele>458.779246</ele>
        <time>2020-08-28T04:40:11.796Z</time>
      </trkpt>
      <trkpt lat="68.42615" lon="18.36046">
        <ele>461.049023</ele>
        <time>2020-08-28T04:41:03.260Z</time>
      </trkpt>
      <trkpt lat="68.42655" lon="18.37058">
        <ele>465.122406</ele>
        <time>2020-08-28T04:42:24.724Z</time>
      </trkpt>
      <trkpt lat="68.42653" lon="18.37455">
        <ele>465.463479</ele>
        <time>2020-08-28T04:42:50.856Z</time>
      </trkpt>
      <trkpt lat="68.4263" lon="18.38059">
        <ele>464.315694</ele>
        <time>2020-08-28T04:43:27.650Z</time>
      </trkpt>
      <trkpt lat="68.42631" lon="18.38219">
        <ele>463.910613</ele>
        <time>2020-08-28T04:43:37.120Z</time>
      </trkpt>
      <trkpt lat="68.42637" lon="18.38376">
        <ele>463.509719</ele>
        <time>2020-08-28T04:43:46.351Z</time>
      </trkpt>
      <trkpt lat="68.42661" lon="18.38639">
        <ele>462.705277</ele>
        <time>2020-08-28T04:44:01.883Z</time>
      </trkpt>
      <trkpt lat="68.42688" lon="18.38821">
        <ele>462.111892</ele>
        <time>2020-08-28T04:44:13.273Z</time>
      </trkpt>
      <trkpt lat="68.42718" lon="18.38978">
        <ele>461.90611</ele>
        <time>2020-08-28T04:44:23.848Z</time>
      </trkpt>
      <trkpt lat="68.42843" lon="18.39495">
        <ele>461.925041</ele>
        <time>2020-08-28T04:45:05.321Z</time>
      </trkpt>
      <trkpt lat="68.42899" lon="18.39809">
        <ele>461.867584</ele>
        <time>2020-08-28T04:45:29.160Z</time>
      </trkpt>
      <trkpt lat="68.42924" lon="18.40013">
        <ele>461.490401</ele>
        <time>2020-08-28T04:45:42.428Z</time>
      </trkpt>
      <trkpt lat="68.4294" lon="18.40198">
        <ele>461.013171</ele>
        <time>2020-08-28T04:45:53.296Z</time>
      </trkpt>
      <trkpt lat="68.42951" lon="18.40401">
        <ele>459.579048</ele>
        <time>2020-08-28T04:46:04.493Z</time>
      </trkpt>
      <trkpt lat="68.42955" lon="18.40714">
        <ele>457.025181</ele>
        <time>2020-08-28T04:46:20.362Z</time>
      </trkpt>
      <trkpt lat="68.42953" lon="18.40826">
        <ele>455.493564</ele>
        <time>2020-08-28T04:46:25.834Z</time>
      </trkpt>
      <trkpt lat="68.4295" lon="18.40897">
        <ele>454.527635</ele>
        <time>2020-08-28T04:46:29.209Z</time>
      </trkpt>
      <trkpt lat="68.42939" lon="18.41052">
        <ele>452.368462</ele>
        <time>2020-08-28T04:46:36.552Z</time>
      </trkpt>
      <trkpt lat="68.42916" lon="18.41227">
        <ele>449.500403</ele>
        <time>2020-08-28T04:46:44.819Z</time>
      </trkpt>
      <trkpt lat="68.42872" lon="18.4143">
        <ele>445.405906</ele>
        <time>2020-08-28T04:46:55.317Z</time>
      </trkpt>
      <trkpt lat="68.42831" lon="18.41548">
        <ele>442.640366</ele>
        <time>2020-08-28T04:47:02.593Z</time>
      </trkpt>
      <trkpt lat="68.42808" lon="18.41597">
        <ele>441.98666</ele>
        <time>2020-08-28T04:47:06.230Z</time>
      </trkpt>
      <trkpt lat="68.42686" lon="18.41814">
        <ele>438.712174</ele>
        <time>2020-08-28T04:47:26.777Z</time>
      </trkpt>
      <trkpt lat="68.42644" lon="18.41935">
        <ele>438.737997</ele>
        <time>2020-08-28T04:47:38.605Z</time>
      </trkpt>
      <trkpt lat="68.4263" lon="18.41997">
        <ele>438.789899</ele>
        <time>2020-08-28T04:47:43.898Z</time>
      </trkpt>
      <trkpt lat="68.42617" lon="18.42068">
        <ele>438.846507</ele>
        <time>2020-08-28T04:47:49.866Z</time>
      </trkpt>
      <trkpt lat="68.42608" lon="18.42141">
        <ele>438.900949</ele>
        <time>2020-08-28T04:47:55.754Z</time>
      </trkpt>
      <trkpt lat="68.42603" lon="18.42209">
        <ele>438.950427</ele>
        <time>2020-08-28T04:48:00.984Z</time>
      </trkpt>
      <trkpt lat="68.426" lon="18.42368">
        <ele>438.666296</ele>
        <time>2020-08-28T04:48:11.040Z</time>
      </trkpt>
      <trkpt lat="68.42627" lon="18.42617">
        <ele>438.027362</ele>
        <time>2020-08-28T04:48:26.357Z</time>
      </trkpt>
      <trkpt lat="68.42632" lon="18.42661">
        <ele>437.913018</ele>
        <time>2020-08-28T04:48:28.694Z</time>
      </trkpt>
      <trkpt lat="68.42654" lon="18.4282">
        <ele>437.412983</ele>
        <time>2020-08-28T04:48:38.084Z</time>
      </trkpt>
      <trkpt lat="68.42688" lon="18.43104">
        <ele>436.452861</ele>
        <time>2020-08-28T04:48:55.184Z</time>
      </trkpt>
      <trkpt lat="68.42705" lon="18.43342">
        <ele>435.738533</ele>
        <time>2020-08-28T04:49:10.603Z</time>
      </trkpt>
      <trkpt lat="68.42708" lon="18.43443">
        <ele>435.453418</ele>
        <time>2020-08-28T04:49:16.779Z</time>
      </trkpt>
      <trkpt lat="68.42709" lon="18.4355">
        <ele>435.154881</ele>
        <time>2020-08-28T04:49:23.031Z</time>
      </trkpt>
      <trkpt lat="68.4271" lon="18.43743">
        <ele>434.201515</ele>
        <time>2020-08-28T04:49:33.780Z</time>
      </trkpt>
      <trkpt lat="68.42717" lon="18.44005">
        <ele>432.037113</ele>
        <time>2020-08-28T04:49:47.280Z</time>
      </trkpt>
      <trkpt lat="68.42746" lon="18.44301">
        <ele>429.072923</ele>
        <time>2020-08-28T04:50:02.145Z</time>
      </trkpt>
      <trkpt lat="68.42831" lon="18.44815">
        <ele>423.636544</ele>
        <time>2020-08-28T04:50:29.497Z</time>
      </trkpt>
      <trkpt lat="68.42959" lon="18.45493">
        <ele>419.741356</ele>
        <time>2020-08-28T04:51:12.105Z</time>
      </trkpt>
      <trkpt lat="68.42989" lon="18.45742">
        <ele>419.519982</ele>
        <time>2020-08-28T04:51:28.823Z</time>
      </trkpt>
      <trkpt lat="68.43002" lon="18.45913">
        <ele>419.372415</ele>
        <time>2020-08-28T04:51:40.376Z</time>
      </trkpt>
      <trkpt lat="68.43011" lon="18.46141">
        <ele>419.225282</ele>
        <time>2020-08-28T04:51:55.425Z</time>
      </trkpt>
      <trkpt lat="68.43009" lon="18.4639">
        <ele>419.07614</ele>
        <time>2020-08-28T04:52:11.124Z</time>
      </trkpt>
      <trkpt lat="68.42967" lon="18.47006">
        <ele>418.752866</ele>
        <time>2020-08-28T04:52:50.356Z</time>
      </trkpt>
      <trkpt lat="68.42954" lon="18.47266">
        <ele>419.075489</ele>
        <time>2020-08-28T04:53:08.784Z</time>
      </trkpt>
      <trkpt lat="68.42948" lon="18.47639">
        <ele>419.744683</ele>
        <time>2020-08-28T04:53:36.448Z</time>
      </trkpt>
      <trkpt lat="68.4295" lon="18.47793">
        <ele>420.073655</ele>
        <time>2020-08-28T04:53:47.644Z</time>
      </trkpt>
      <trkpt lat="68.42956" lon="18.48014">
        <ele>420.321244</ele>
        <time>2020-08-28T04:54:03.065Z</time>
      </trkpt>
      <trkpt lat="68.42971" lon="18.48301">
        <ele>420.396788</ele>
        <time>2020-08-28T04:54:22.254Z</time>
      </trkpt>
      <trkpt lat="68.43028" lon="18.48932">
        <ele>419.892142</ele>
        <time>2020-08-28T04:55:03.529Z</time>
      </trkpt>
      <trkpt lat="68.43037" lon="18.49079">
        <ele>419.643099</ele>
        <time>2020-08-28T04:55:12.553Z</time>
      </trkpt>
      <trkpt lat="68.43052" lon="18.4955">
        <ele>419.069653</ele>
        <time>2020-08-28T04:55:40.989Z</time>
      </trkpt>
      <trkpt lat="68.43059" lon="18.50162">
        <ele>419.245156</ele>
        <time>2020-08-28T04:56:22.103Z</time>
      </trkpt>
      <trkpt lat="68.43066" lon="18.50265">
        <ele>419.35533</ele>
        <time>2020-08-28T04:56:29.754Z</time>
      </trkpt>
      <trkpt lat="68.43074" lon="18.50365">
        <ele>419.507774</ele>
        <time>2020-08-28T04:56:37.300Z</time>
      </trkpt>
      <trkpt lat="68.43077" lon="18.5042">
        <ele>419.610076</ele>
        <time>2020-08-28T04:56:41.330Z</time>
      </trkpt>
      <trkpt lat="68.43078" lon="18.5043">
        <ele>419.630881</ele>
        <time>2020-08-28T04:56:42.141Z</time>
      </trkpt>
      <trkpt lat="68.43082" lon="18.50469">
        <ele>419.705603</ele>
        <time>2020-08-28T04:56:45.173Z</time>
      </trkpt>
      <trkpt lat="68.43164" lon="18.51132">
        <ele>420.71068</ele>
        <time>2020-08-28T04:57:34.578Z</time>
      </trkpt>
      <trkpt lat="68.43183" lon="18.51312">
        <ele>420.769236</ele>
        <time>2020-08-28T04:57:46.743Z</time>
      </trkpt>
      <trkpt lat="68.43197" lon="18.51553">
        <ele>420.536892</ele>
        <time>2020-08-28T04:58:02.031Z</time>
      </trkpt>
      <trkpt lat="68.4321" lon="18.51856">
        <ele>420.202231</ele>
        <time>2020-08-28T04:58:20.881Z</time>
      </trkpt>
      <trkpt lat="68.43223" lon="18.524">
        <ele>419.449097</ele>
        <time>2020-08-28T04:58:54.720Z</time>
      </trkpt>
      <trkpt lat="68.43225" lon="18.53041">
        <ele>418.5593</ele>
        <time>2020-08-28T04:59:33.777Z</time>
      </trkpt>
      <trkpt lat="68.43216" lon="18.53407">
        <ele>418.046961</ele>
        <time>2020-08-28T04:59:57.658Z</time>
      </trkpt>
      <trkpt lat="68.43199" lon="18.53767">
        <ele>417.102617</ele>
        <time>2020-08-28T05:00:19.450Z</time>
      </trkpt>
      <trkpt lat="68.43155" lon="18.543">
        <ele>413.717606</ele>
        <time>2020-08-28T05:00:47.853Z</time>
      </trkpt>
      <trkpt lat="68.43079" lon="18.54956">
        <ele>410.462496</ele>
        <time>2020-08-28T05:01:24.594Z</time>
      </trkpt>
      <trkpt lat="68.43051" lon="18.5526">
        <ele>411.387337</ele>
        <time>2020-08-28T05:01:49.112Z</time>
      </trkpt>
      <trkpt lat="68.43032" lon="18.55571">
        <ele>413.914452</ele>
        <time>2020-08-28T05:02:20.600Z</time>
      </trkpt>
      <trkpt lat="68.43029" lon="18.5583">
        <ele>415.880201</ele>
        <time>2020-08-28T05:02:45.997Z</time>
      </trkpt>
      <trkpt lat="68.43038" lon="18.5598">
        <ele>417.036683</ele>
        <time>2020-08-28T05:02:58.840Z</time>
      </trkpt>
      <trkpt lat="68.43051" lon="18.56086">
        <ele>417.784435</ele>
        <time>2020-08-28T05:03:07.609Z</time>
      </trkpt>
      <trkpt lat="68.4307" lon="18.56207">
        <ele>418.292435</ele>
        <time>2020-08-28T05:03:17.350Z</time>
      </trkpt>
      <trkpt lat="68.43093" lon="18.56316">
        <ele>418.780592</ele>
        <time>2020-08-28T05:03:26.556Z</time>
      </trkpt>
      <trkpt lat="68.43164" lon="18.56538">
        <ele>420.220213</ele>
        <time>2020-08-28T05:03:50.136Z</time>
      </trkpt>
      <trkpt lat="68.43301" lon="18.56803">
        <ele>423.210833</ele>
        <time>2020-08-28T05:04:32.626Z</time>
      </trkpt>
      <trkpt lat="68.43345" lon="18.56911">
        <ele>423.429726</ele>
        <time>2020-08-28T05:04:45.273Z</time>
      </trkpt>
      <trkpt lat="68.43379" lon="18.57039">
        <ele>423.643875</ele>
        <time>2020-08-28T05:04:55.623Z</time>
      </trkpt>
      <trkpt lat="68.43399" lon="18.57161">
        <ele>423.680599</ele>
        <time>2020-08-28T05:05:03.270Z</time>
      </trkpt>
      <trkpt lat="68.43413" lon="18.57309">
        <ele>422.828157</ele>
        <time>2020-08-28T05:05:11.458Z</time>
      </trkpt>
      <trkpt lat="68.43415" lon="18.57459">
        <ele>421.988815</ele>
        <time>2020-08-28T05:05:19.355Z</time>
      </trkpt>
      <trkpt lat="68.43412" lon="18.57534">
        <ele>421.567233</ele>
        <time>2020-08-28T05:05:23.320Z</time>
      </trkpt>
      <trkpt lat="68.4335" lon="18.58123">
        <ele>418.579731</ele>
        <time>2020-08-28T05:05:56.842Z</time>
      </trkpt>
      <trkpt lat="68.43345" lon="18.58285">
        <ele>418.674061</ele>
        <time>2020-08-28T05:06:06.158Z</time>
      </trkpt>
      <trkpt lat="68.43355" lon="18.58439">
        <ele>418.765129</ele>
        <time>2020-08-28T05:06:17.295Z</time>
      </trkpt>
      <trkpt lat="68.43368" lon="18.58529">
        <ele>418.821104</ele>
        <time>2020-08-28T05:06:25.429Z</time>
      </trkpt>
      <trkpt lat="68.43385" lon="18.58599">
        <ele>418.951742</ele>
        <time>2020-08-28T05:06:32.503Z</time>
      </trkpt>
      <trkpt lat="68.43398" lon="18.58645">
        <ele>419.091414</ele>
        <time>2020-08-28T05:06:37.274Z</time>
      </trkpt>
      <trkpt lat="68.43421" lon="18.58705">
        <ele>419.299716</ele>
        <time>2020-08-28T05:06:44.478Z</time>
      </trkpt>
      <trkpt lat="68.43456" lon="18.58781">
        <ele>419.596761</ele>
        <time>2020-08-28T05:06:53.342Z</time>
      </trkpt>
      <trkpt lat="68.43475" lon="18.58804">
        <ele>419.733412</ele>
        <time>2020-08-28T05:06:57.900Z</time>
      </trkpt>
      <trkpt lat="68.43501" lon="18.58833">
        <ele>419.922408</ele>
        <time>2020-08-28T05:07:02.957Z</time>
      </trkpt>
      <trkpt lat="68.43523" lon="18.58851">
        <ele>419.904464</ele>
        <time>2020-08-28T05:07:06.701Z</time>
      </trkpt>
      <trkpt lat="68.43576" lon="18.58861">
        <ele>418.879566</ele>
        <time>2020-08-28T05:07:14.918Z</time>
      </trkpt>
      <trkpt lat="68.43795" lon="18.58778">
        <ele>414.207608</ele>
        <time>2020-08-28T05:07:44.757Z</time>
      </trkpt>
      <trkpt lat="68.43944" lon="18.58785">
        <ele>410.516068</ele>
        <time>2020-08-28T05:08:06.056Z</time>
      </trkpt>
      <trkpt lat="68.43954" lon="18.58787">
        <ele>410.235185</ele>
        <time>2020-08-28T05:08:08.078Z</time>
      </trkpt>
      <trkpt lat="68.43996" lon="18.58796">
        <ele>409.121141</ele>
        <time>2020-08-28T05:08:13.413Z</time>
      </trkpt>
      <trkpt lat="68.44055" lon="18.58819">
        <ele>407.539172</ele>
        <time>2020-08-28T05:08:21.073Z</time>
      </trkpt>
      <trkpt lat="68.44124" lon="18.58882">
        <ele>405.799581</ele>
        <time>2020-08-28T05:08:30.437Z</time>
      </trkpt>
      <trkpt lat="68.44143" lon="18.5891">
        <ele>405.277826</ele>
        <time>2020-08-28T05:08:33.263Z</time>
      </trkpt>
      <trkpt lat="68.44161" lon="18.58942">
        <ele>404.754364</ele>
        <time>2020-08-28T05:08:36.605Z</time>
      </trkpt>
      <trkpt lat="68.44184" lon="18.58993">
        <ele>404.038445</ele>
        <time>2020-08-28T05:08:41.097Z</time>
      </trkpt>
      <trkpt lat="68.44207" lon="18.59056">
        <ele>403.272501</ele>
        <time>2020-08-28T05:08:45.866Z</time>
      </trkpt>
      <trkpt lat="68.44217" lon="18.59091">
        <ele>402.898015</ele>
        <time>2020-08-28T05:08:48.408Z</time>
      </trkpt>
      <trkpt lat="68.44232" lon="18.59146">
        <ele>402.323196</ele>
        <time>2020-08-28T05:08:52.372Z</time>
      </trkpt>
      <trkpt lat="68.44263" lon="18.59339">
        <ele>400.565681</ele>
        <time>2020-08-28T05:09:04.330Z</time>
      </trkpt>
      <trkpt lat="68.44291" lon="18.59794">
        <ele>393.623846</ele>
        <time>2020-08-28T05:09:25.298Z</time>
      </trkpt>
      <trkpt lat="68.44312" lon="18.60468">
        <ele>379.7695</ele>
        <time>2020-08-28T05:09:54.442Z</time>
      </trkpt>
      <trkpt lat="68.44316" lon="18.60915">
        <ele>374.82768</ele>
        <time>2020-08-28T05:10:16.345Z</time>
      </trkpt>
      <trkpt lat="68.44314" lon="18.61099">
        <ele>373.619199</ele>
        <time>2020-08-28T05:10:26.696Z</time>
      </trkpt>
      <trkpt lat="68.44312" lon="18.61228">
        <ele>372.969485</ele>
        <time>2020-08-28T05:10:34.175Z</time>
      </trkpt>
      <trkpt lat="68.443" lon="18.61711">
        <ele>369.880769</ele>
        <time>2020-08-28T05:11:00.468Z</time>
      </trkpt>
      <trkpt lat="68.44283" lon="18.61999">
        <ele>367.517918</ele>
        <time>2020-08-28T05:11:14.987Z</time>
      </trkpt>
      <trkpt lat="68.44261" lon="18.62207">
        <ele>365.338273</ele>
        <time>2020-08-28T05:11:25.487Z</time>
      </trkpt>
      <trkpt lat="68.44235" lon="18.62405">
        <ele>363.209278</ele>
        <time>2020-08-28T05:11:35.858Z</time>
      </trkpt>
      <trkpt lat="68.44205" lon="18.6258">
        <ele>361.969177</ele>
        <time>2020-08-28T05:11:45.673Z</time>
      </trkpt>
      <trkpt lat="68.4417" lon="18.62742">
        <ele>360.772291</ele>
        <time>2020-08-28T05:11:55.684Z</time>
      </trkpt>
      <trkpt lat="68.44102" lon="18.63004">
        <ele>359.750281</ele>
        <time>2020-08-28T05:12:14.551Z</time>
      </trkpt>
      <trkpt lat="68.43978" lon="18.63376">
        <ele>359.353468</ele>
        <time>2020-08-28T05:12:47.200Z</time>
      </trkpt>
      <trkpt lat="68.43882" lon="18.63578">
        <ele>359.356644</ele>
        <time>2020-08-28T05:13:08.849Z</time>
      </trkpt>
      <trkpt lat="68.43721" lon="18.63849">
        <ele>359.262935</ele>
        <time>2020-08-28T05:13:42.400Z</time>
      </trkpt>
      <trkpt lat="68.43679" lon="18.6394">
        <ele>359.193961</ele>
        <time>2020-08-28T05:13:51.851Z</time>
      </trkpt>
      <trkpt lat="68.43647" lon="18.64031">
        <ele>359.134329</ele>
        <time>2020-08-28T05:14:00.002Z</time>
      </trkpt>
      <trkpt lat="68.43617" lon="18.64129">
        <ele>359.073976</ele>
        <time>2020-08-28T05:14:08.178Z</time>
      </trkpt>
      <trkpt lat="68.43559" lon="18.64375">
        <ele>358.663146</ele>
        <time>2020-08-28T05:14:26.462Z</time>
      </trkpt>
      <trkpt lat="68.43485" lon="18.64757">
        <ele>357.96726</ele>
        <time>2020-08-28T05:14:52.359Z</time>
      </trkpt>
      <trkpt lat="68.43447" lon="18.65003">
        <ele>357.513858</ele>
        <time>2020-08-28T05:15:08.628Z</time>
      </trkpt>
      <trkpt lat="68.4344" lon="18.65045">
        <ele>357.535839</ele>
        <time>2020-08-28T05:15:11.457Z</time>
      </trkpt>
      <trkpt lat="68.43433" lon="18.65092">
        <ele>357.560125</ele>
        <time>2020-08-28T05:15:14.700Z</time>
      </trkpt>
      <trkpt lat="68.43425" lon="18.65163">
        <ele>357.596138</ele>
        <time>2020-08-28T05:15:19.510Z</time>
      </trkpt>
      <trkpt lat="68.43384" lon="18.65514">
        <ele>357.96029</ele>
        <time>2020-08-28T05:15:45.084Z</time>
      </trkpt>
      <trkpt lat="68.43333" lon="18.66054">
        <ele>359.155483</ele>
        <time>2020-08-28T05:16:29.249Z</time>
      </trkpt>
      <trkpt lat="68.43313" lon="18.66226">
        <ele>358.725345</ele>
        <time>2020-08-28T05:16:40.174Z</time>
      </trkpt>
      <trkpt lat="68.433" lon="18.66323">
        <ele>358.477791</ele>
        <time>2020-08-28T05:16:45.805Z</time>
      </trkpt>
      <trkpt lat="68.43262" lon="18.66575">
        <ele>355.945976</ele>
        <time>2020-08-28T05:16:59.324Z</time>
      </trkpt>
      <trkpt lat="68.43235" lon="18.66747">
        <ele>353.712449</ele>
        <time>2020-08-28T05:17:07.964Z</time>
      </trkpt>
      <trkpt lat="68.43219" lon="18.66825">
        <ele>352.643098</ele>
        <time>2020-08-28T05:17:12.049Z</time>
      </trkpt>
      <trkpt lat="68.43186" lon="18.66941">
        <ele>351.37533</ele>
        <time>2020-08-28T05:17:19.164Z</time>
      </trkpt>
      <trkpt lat="68.43163" lon="18.66995">
        <ele>350.70788</ele>
        <time>2020-08-28T05:17:23.334Z</time>
      </trkpt>
      <trkpt lat="68.43148" lon="18.6703">
        <ele>350.264842</ele>
        <time>2020-08-28T05:17:26.132Z</time>
      </trkpt>
      <trkpt lat="68.43094" lon="18.67118">
        <ele>348.878844</ele>
        <time>2020-08-28T05:17:35.351Z</time>
      </trkpt>
      <trkpt lat="68.43025" lon="18.67177">
        <ele>348.238255</ele>
        <time>2020-08-28T05:17:46.554Z</time>
      </trkpt>
      <trkpt lat="68.42982" lon="18.67185">
        <ele>348.067578</ele>
        <time>2020-08-28T05:17:53.403Z</time>
      </trkpt>
      <trkpt lat="68.42827" lon="18.67152">
        <ele>348.68951</ele>
        <time>2020-08-28T05:18:22.300Z</time>
      </trkpt>
      <trkpt lat="68.4261" lon="18.67162">
        <ele>352.472844</ele>
        <time>2020-08-28T05:19:15.455Z</time>
      </trkpt>
      <trkpt lat="68.42421" lon="18.67265">
        <ele>356.413547</ele>
        <time>2020-08-28T05:20:03.599Z</time>
      </trkpt>
      <trkpt lat="68.4238" lon="18.67294">
        <ele>357.253508</ele>
        <time>2020-08-28T05:20:13.314Z</time>
      </trkpt>
      <trkpt lat="68.42343" lon="18.67336">
        <ele>357.861675</ele>
        <time>2020-08-28T05:20:22.466Z</time>
      </trkpt>
      <trkpt lat="68.42309" lon="18.67392">
        <ele>358.343798</ele>
        <time>2020-08-28T05:20:31.381Z</time>
      </trkpt>
      <trkpt lat="68.42275" lon="18.67468">
        <ele>358.88032</ele>
        <time>2020-08-28T05:20:40.967Z</time>
      </trkpt>
      <trkpt lat="68.42245" lon="18.67565">
        <ele>359.447822</ele>
        <time>2020-08-28T05:20:50.901Z</time>
      </trkpt>
      <trkpt lat="68.42221" lon="18.67681">
        <ele>359.76449</ele>
        <time>2020-08-28T05:21:01.249Z</time>
      </trkpt>
      <trkpt lat="68.42164" lon="18.68041">
        <ele>359.882533</ele>
        <time>2020-08-28T05:21:27.975Z</time>
      </trkpt>
      <trkpt lat="68.42146" lon="18.68131">
        <ele>359.344454</ele>
        <time>2020-08-28T05:21:33.703Z</time>
      </trkpt>
      <trkpt lat="68.42082" lon="18.68348">
        <ele>357.218377</ele>
        <time>2020-08-28T05:21:47.934Z</time>
      </trkpt>
      <trkpt lat="68.41993" lon="18.68545">
        <ele>354.630696</ele>
        <time>2020-08-28T05:22:03.112Z</time>
      </trkpt>
      <trkpt lat="68.41954" lon="18.68613">
        <ele>353.5244</ele>
        <time>2020-08-28T05:22:09.337Z</time>
      </trkpt>
      <trkpt lat="68.41857" lon="18.68773">
        <ele>351.496924</ele>
        <time>2020-08-28T05:22:25.708Z</time>
      </trkpt>
      <trkpt lat="68.41784" lon="18.68865">
        <ele>350.861241</ele>
        <time>2020-08-28T05:22:38.742Z</time>
      </trkpt>
      <trkpt lat="68.41681" lon="18.68947">
        <ele>350.348906</ele>
        <time>2020-08-28T05:22:57.283Z</time>
      </trkpt>
      <trkpt lat="68.41521" lon="18.69">
        <ele>350.36852</ele>
        <time>2020-08-28T05:23:25.317Z</time>
      </trkpt>
      <trkpt lat="68.41409" lon="18.69059">
        <ele>350.998644</ele>
        <time>2020-08-28T05:23:47.608Z</time>
      </trkpt>
      <trkpt lat="68.41194" lon="18.69231">
        <ele>353.763916</ele>
        <time>2020-08-28T05:24:38.183Z</time>
      </trkpt>
      <trkpt lat="68.41094" lon="18.6929">
        <ele>354.654941</ele>
        <time>2020-08-28T05:24:59.943Z</time>
      </trkpt>
      <trkpt lat="68.41013" lon="18.69321">
        <ele>355.245666</ele>
        <time>2020-08-28T05:25:15.570Z</time>
      </trkpt>
      <trkpt lat="68.40825" lon="18.6934">
        <ele>355.620823</ele>
        <time>2020-08-28T05:25:49.194Z</time>
      </trkpt>
      <trkpt lat="68.40743" lon="18.69372">
        <ele>356.405232</ele>
        <time>2020-08-28T05:26:05.392Z</time>
      </trkpt>
      <trkpt lat="68.40686" lon="18.69409">
        <ele>356.963097</ele>
        <time>2020-08-28T05:26:18.153Z</time>
      </trkpt>
      <trkpt lat="68.40561" lon="18.69525">
        <ele>359.930471</ele>
        <time>2020-08-28T05:26:52.332Z</time>
      </trkpt>
      <trkpt lat="68.40527" lon="18.69553">
        <ele>360.789838</ele>
        <time>2020-08-28T05:27:01.846Z</time>
      </trkpt>
      <trkpt lat="68.40459" lon="18.69581">
        <ele>361.959135</ele>
        <time>2020-08-28T05:27:19.537Z</time>
      </trkpt>
      <trkpt lat="68.40415" lon="18.69577">
        <ele>362.49759</ele>
        <time>2020-08-28T05:27:29.725Z</time>
      </trkpt>
      <trkpt lat="68.40355" lon="18.69552">
        <ele>363.230651</ele>
        <time>2020-08-28T05:27:41.889Z</time>
      </trkpt>
      <trkpt lat="68.40266" lon="18.69472">
        <ele>363.766623</ele>
        <time>2020-08-28T05:27:58.881Z</time>
      </trkpt>
      <trkpt lat="68.40238" lon="18.69453">
        <ele>363.824764</ele>
        <time>2020-08-28T05:28:03.871Z</time>
      </trkpt>
      <trkpt lat="68.40199" lon="18.69425">
        <ele>363.90748</ele>
        <time>2020-08-28T05:28:11.150Z</time>
      </trkpt>
      <trkpt lat="68.40132" lon="18.69394">
        <ele>364.060009</ele>
        <time>2020-08-28T05:28:24.159Z</time>
      </trkpt>
      <trkpt lat="68.40063" lon="18.69385">
        <ele>364.246042</ele>
        <time>2020-08-28T05:28:38.245Z</time>
      </trkpt>
      <trkpt lat="68.40023" lon="18.69397">
        <ele>364.353821</ele>
        <time>2020-08-28T05:28:46.015Z</time>
      </trkpt>
      <trkpt lat="68.39951" lon="18.69444">
        <ele>364.25784</ele>
        <time>2020-08-28T05:28:58.947Z</time>
      </trkpt>
      <trkpt lat="68.39874" lon="18.69524">
        <ele>363.344364</ele>
        <time>2020-08-28T05:29:11.628Z</time>
      </trkpt>
      <trkpt lat="68.39837" lon="18.69579">
        <ele>362.880786</ele>
        <time>2020-08-28T05:29:17.797Z</time>
      </trkpt>
      <trkpt lat="68.39769" lon="18.69715">
        <ele>361.439871</ele>
        <time>2020-08-28T05:29:30.012Z</time>
      </trkpt>
      <trkpt lat="68.39707" lon="18.69879">
        <ele>359.61241</ele>
        <time>2020-08-28T05:29:41.952Z</time>
      </trkpt>
      <trkpt lat="68.39686" lon="18.69938">
        <ele>358.964775</ele>
        <time>2020-08-28T05:29:46.120Z</time>
      </trkpt>
      <trkpt lat="68.39597" lon="18.70189">
        <ele>356.863344</ele>
        <time>2020-08-28T05:30:04.042Z</time>
      </trkpt>
      <trkpt lat="68.39557" lon="18.70278">
        <ele>356.038716</ele>
        <time>2020-08-28T05:30:11.701Z</time>
      </trkpt>
      <trkpt lat="68.39405" lon="18.70562">
        <ele>356.38249</ele>
        <time>2020-08-28T05:30:46.749Z</time>
      </trkpt>
      <trkpt lat="68.39366" lon="18.70652">
        <ele>356.844208</ele>
        <time>2020-08-28T05:30:58.105Z</time>
      </trkpt>
      <trkpt lat="68.39314" lon="18.70806">
        <ele>357.628144</ele>
        <time>2020-08-28T05:31:15.370Z</time>
      </trkpt>
      <trkpt lat="68.39189" lon="18.71242">
        <ele>358.5523</ele>
        <time>2020-08-28T05:31:55.522Z</time>
      </trkpt>
      <trkpt lat="68.39132" lon="18.71396">
        <ele>358.141489</ele>
        <time>2020-08-28T05:32:08.180Z</time>
      </trkpt>
      <trkpt lat="68.39074" lon="18.71527">
        <ele>357.302</ele>
        <time>2020-08-28T05:32:19.305Z</time>
      </trkpt>
      <trkpt lat="68.38872" lon="18.71835">
        <ele>354.944201</ele>
        <time>2020-08-28T05:32:54.766Z</time>
      </trkpt>
      <trkpt lat="68.38845" lon="18.71889">
        <ele>354.788715</ele>
        <time>2020-08-28T05:33:00.593Z</time>
      </trkpt>
      <trkpt lat="68.38814" lon="18.71961">
        <ele>354.671561</ele>
        <time>2020-08-28T05:33:07.668Z</time>
      </trkpt>
      <trkpt lat="68.38788" lon="18.72038">
        <ele>354.557124</ele>
        <time>2020-08-28T05:33:14.626Z</time>
      </trkpt>
      <trkpt lat="68.38764" lon="18.72115">
        <ele>354.449792</ele>
        <time>2020-08-28T05:33:21.079Z</time>
      </trkpt>
      <trkpt lat="68.3872" lon="18.72317">
        <ele>353.767649</ele>
        <time>2020-08-28T05:33:35.571Z</time>
      </trkpt>
      <trkpt lat="68.38609" lon="18.73087">
        <ele>349.674899</ele>
        <time>2020-08-28T05:34:20.397Z</time>
      </trkpt>
      <trkpt lat="68.38575" lon="18.73258">
        <ele>349.043526</ele>
        <time>2020-08-28T05:34:31.246Z</time>
      </trkpt>
      <trkpt lat="68.38511" lon="18.73524">
        <ele>348.093327</ele>
        <time>2020-08-28T05:34:50.248Z</time>
      </trkpt>
      <trkpt lat="68.38479" lon="18.73624">
        <ele>347.956547</ele>
        <time>2020-08-28T05:34:58.602Z</time>
      </trkpt>
      <trkpt lat="68.38423" lon="18.73764">
        <ele>347.739837</ele>
        <time>2020-08-28T05:35:11.841Z</time>
      </trkpt>
      <trkpt lat="68.38375" lon="18.73864">
        <ele>347.556655</ele>
        <time>2020-08-28T05:35:22.106Z</time>
      </trkpt>
      <trkpt lat="68.38116" lon="18.74247">
        <ele>346.544142</ele>
        <time>2020-08-28T05:36:10.904Z</time>
      </trkpt>
      <trkpt lat="68.37977" lon="18.74492">
        <ele>346.763409</ele>
        <time>2020-08-28T05:36:42.438Z</time>
      </trkpt>
      <trkpt lat="68.37696" lon="18.75066">
        <ele>348.027713</ele>
        <time>2020-08-28T05:37:48.122Z</time>
      </trkpt>
      <trkpt lat="68.376" lon="18.75234">
        <ele>349.221079</ele>
        <time>2020-08-28T05:38:11.776Z</time>
      </trkpt>
      <trkpt lat="68.37511" lon="18.75366">
        <ele>351.347741</ele>
        <time>2020-08-28T05:38:36.160Z</time>
      </trkpt>
      <trkpt lat="68.37256" lon="18.75662">
        <ele>360.256115</ele>
        <time>2020-08-28T05:39:55.872Z</time>
      </trkpt>
      <trkpt lat="68.37121" lon="18.75876">
        <ele>365.743274</ele>
        <time>2020-08-28T05:40:42.966Z</time>
      </trkpt>
      <trkpt lat="68.37" lon="18.76119">
        <ele>370.196551</ele>
        <time>2020-08-28T05:41:23.916Z</time>
      </trkpt>
      <trkpt lat="68.36925" lon="18.76299">
        <ele>371.680539</ele>
        <time>2020-08-28T05:41:46.935Z</time>
      </trkpt>
      <trkpt lat="68.36746" lon="18.76777">
        <ele>374.723241</ele>
        <time>2020-08-28T05:42:39.579Z</time>
      </trkpt>
      <trkpt lat="68.36672" lon="18.76929">
        <ele>376.391838</ele>
        <time>2020-08-28T05:43:01.318Z</time>
      </trkpt>
      <trkpt lat="68.36596" lon="18.77034">
        <ele>377.987148</ele>
        <time>2020-08-28T05:43:22.402Z</time>
      </trkpt>
      <trkpt lat="68.36489" lon="18.77116">
        <ele>379.848661</ele>
        <time>2020-08-28T05:43:49.397Z</time>
      </trkpt>
      <trkpt lat="68.3644" lon="18.77136">
        <ele>380.670351</ele>
        <time>2020-08-28T05:44:00.800Z</time>
      </trkpt>
      <trkpt lat="68.36253" lon="18.77177">
        <ele>381.93775</ele>
        <time>2020-08-28T05:44:39.109Z</time>
      </trkpt>
      <trkpt lat="68.36202" lon="18.77201">
        <ele>381.162412</ele>
        <time>2020-08-28T05:44:47.472Z</time>
      </trkpt>
      <trkpt lat="68.36106" lon="18.77269">
        <ele>378.415437</ele>
        <time>2020-08-28T05:45:01.238Z</time>
      </trkpt>
      <trkpt lat="68.36024" lon="18.77382">
        <ele>375.435641</ele>
        <time>2020-08-28T05:45:12.115Z</time>
      </trkpt>
      <trkpt lat="68.35977" lon="18.77472">
        <ele>373.245357</ele>
        <time>2020-08-28T05:45:19.156Z</time>
      </trkpt>
      <trkpt lat="68.35951" lon="18.77537">
        <ele>371.907351</ele>
        <time>2020-08-28T05:45:23.737Z</time>
      </trkpt>
      <trkpt lat="68.35931" lon="18.77589">
        <ele>370.863454</ele>
        <time>2020-08-28T05:45:27.477Z</time>
      </trkpt>
      <trkpt lat="68.35914" lon="18.77642">
        <ele>370.437279</ele>
        <time>2020-08-28T05:45:31.254Z</time>
      </trkpt>
      <trkpt lat="68.35892" lon="18.77711">
        <ele>371.210295</ele>
        <time>2020-08-28T05:45:37.801Z</time>
      </trkpt>
      <trkpt lat="68.35872" lon="18.77774">
        <ele>371.907527</ele>
        <time>2020-08-28T05:45:43.575Z</time>
      </trkpt>
      <trkpt lat="68.35817" lon="18.77985">
        <ele>374.108041</ele>
        <time>2020-08-28T05:46:12.386Z</time>
      </trkpt>
      <trkpt lat="68.35809" lon="18.78023">
        <ele>374.536334</ele>
        <time>2020-08-28T05:46:19.135Z</time>
      </trkpt>
      <trkpt lat="68.35828" lon="18.78054">
        <ele>375.292736</ele>
        <time>2020-08-28T05:46:26.723Z</time>
      </trkpt>
      <trkpt lat="68.35835" lon="18.78074">
        <ele>375.660456</ele>
        <time>2020-08-28T05:46:30.915Z</time>
      </trkpt>
      <trkpt lat="68.35832" lon="18.78096">
        <ele>375.966048</ele>
        <time>2020-08-28T05:46:33.863Z</time>
      </trkpt>
      <trkpt lat="68.35829" lon="18.78113">
        <ele>376.205487</ele>
        <time>2020-08-28T05:46:35.843Z</time>
      </trkpt>
      <trkpt lat="68.35824" lon="18.78142">
        <ele>376.615702</ele>
        <time>2020-08-28T05:46:39.344Z</time>
      </trkpt>
      <trkpt lat="68.35818" lon="18.78173">
        <ele>377.074601</ele>
        <time>2020-08-28T05:46:43.938Z</time>
      </trkpt>
      <trkpt lat="68.35815" lon="18.78215">
        <ele>377.626391</ele>
        <time>2020-08-28T05:46:48.265Z</time>
      </trkpt>
      <trkpt lat="68.35801" lon="18.78404">
        <ele>380.124817</ele>
        <time>2020-08-28T05:47:08.367Z</time>
      </trkpt>
      <trkpt lat="68.3579" lon="18.78519">
        <ele>380.634678</ele>
        <time>2020-08-28T05:47:18.710Z</time>
      </trkpt>
      <trkpt lat="68.35782" lon="18.78616">
        <ele>380.591045</ele>
        <time>2020-08-28T05:47:26.783Z</time>
      </trkpt>
      <trkpt lat="68.35778" lon="18.78669">
        <ele>380.567333</ele>
        <time>2020-08-28T05:47:30.500Z</time>
      </trkpt>
      <trkpt lat="68.35771" lon="18.78785">
        <ele>380.515755</ele>
        <time>2020-08-28T05:47:37.688Z</time>
      </trkpt>
      <trkpt lat="68.35759" lon="18.78802">
        <ele>380.500163</ele>
        <time>2020-08-28T05:47:41.216Z</time>
      </trkpt>
      <trkpt lat="68.35754" lon="18.78831">
        <ele>380.485984</ele>
        <time>2020-08-28T05:47:43.140Z</time>
      </trkpt>
      <trkpt lat="68.35751" lon="18.78903">
        <ele>380.439582</ele>
        <time>2020-08-28T05:47:47.593Z</time>
      </trkpt>
      <trkpt lat="68.3575" lon="18.78937">
        <ele>380.062442</ele>
        <time>2020-08-28T05:47:49.588Z</time>
      </trkpt>
      <trkpt lat="68.35754" lon="18.79023">
        <ele>379.09712</ele>
        <time>2020-08-28T05:47:54.697Z</time>
      </trkpt>
      <trkpt lat="68.35762" lon="18.79127">
        <ele>377.92398</ele>
        <time>2020-08-28T05:48:00.498Z</time>
      </trkpt>
      <trkpt lat="68.3576" lon="18.79166">
        <ele>377.48623</ele>
        <time>2020-08-28T05:48:02.656Z</time>
      </trkpt>
      <trkpt lat="68.35718" lon="18.79315">
        <ele>375.401726</ele>
        <time>2020-08-28T05:48:12.661Z</time>
      </trkpt>
      <trkpt lat="68.3571" lon="18.7939">
        <ele>374.496676</ele>
        <time>2020-08-28T05:48:16.782Z</time>
      </trkpt>
      <trkpt lat="68.35702" lon="18.79462">
        <ele>373.587879</ele>
        <time>2020-08-28T05:48:20.743Z</time>
      </trkpt>
      <trkpt lat="68.3567" lon="18.79756">
        <ele>369.902834</ele>
        <time>2020-08-28T05:48:37.357Z</time>
      </trkpt>
      <trkpt lat="68.35641" lon="18.79913">
        <ele>368.721186</ele>
        <time>2020-08-28T05:48:47.362Z</time>
      </trkpt>
      <trkpt lat="68.35585" lon="18.80286">
        <ele>367.413328</ele>
        <time>2020-08-28T05:49:14.214Z</time>
      </trkpt>
      <trkpt lat="68.35573" lon="18.80311">
        <ele>367.643285</ele>
        <time>2020-08-28T05:49:17.584Z</time>
      </trkpt>
      <trkpt lat="68.35549" lon="18.80402">
        <ele>368.243382</ele>
        <time>2020-08-28T05:49:26.878Z</time>
      </trkpt>
      <trkpt lat="68.35496" lon="18.80665">
        <ele>369.87199</ele>
        <time>2020-08-28T05:49:55.632Z</time>
      </trkpt>
      <trkpt lat="68.35319" lon="18.81315">
        <ele>379.969852</ele>
        <time>2020-08-28T05:51:27.652Z</time>
      </trkpt>
      <trkpt lat="68.35301" lon="18.81404">
        <ele>381.317767</ele>
        <time>2020-08-28T05:51:39.568Z</time>
      </trkpt>
      <trkpt lat="68.35284" lon="18.8153">
        <ele>382.952024</ele>
        <time>2020-08-28T05:51:56.086Z</time>
      </trkpt>
      <trkpt lat="68.35271" lon="18.81589">
        <ele>383.691074</ele>
        <time>2020-08-28T05:52:03.799Z</time>
      </trkpt>
      <trkpt lat="68.35263" lon="18.81592">
        <ele>383.935872</ele>
        <time>2020-08-28T05:52:06.644Z</time>
      </trkpt>
      <trkpt lat="68.35258" lon="18.81584">
        <ele>384.115234</ele>
        <time>2020-08-28T05:52:08.980Z</time>
      </trkpt>
      <trkpt lat="68.3525" lon="18.81571">
        <ele>384.37786</ele>
        <time>2020-08-28T05:52:12.456Z</time>
      </trkpt>
      <trkpt lat="68.3524" lon="18.81558">
        <ele>384.705241</ele>
        <time>2020-08-28T05:52:16.782Z</time>
      </trkpt>
      <trkpt lat="68.35235" lon="18.81557">
        <ele>384.85717</ele>
        <time>2020-08-28T05:52:18.739Z</time>
      </trkpt>
      <trkpt lat="68.35225" lon="18.81577">
        <ele>385.236731</ele>
        <time>2020-08-28T05:52:22.405Z</time>
      </trkpt>
      <trkpt lat="68.35217" lon="18.81619">
        <ele>385.745028</ele>
        <time>2020-08-28T05:52:27.206Z</time>
      </trkpt>
      <trkpt lat="68.35212" lon="18.81641">
        <ele>386.02347</ele>
        <time>2020-08-28T05:52:30.456Z</time>
      </trkpt>
      <trkpt lat="68.352" lon="18.81694">
        <ele>386.708282</ele>
        <time>2020-08-28T05:52:36.802Z</time>
      </trkpt>
      <trkpt lat="68.35172" lon="18.81831">
        <ele>387.371043</ele>
        <time>2020-08-28T05:52:52.237Z</time>
      </trkpt>
      <trkpt lat="68.35135" lon="18.81948">
        <ele>386.955608</ele>
        <time>2020-08-28T05:53:02.836Z</time>
      </trkpt>
      <trkpt lat="68.35124" lon="18.82008">
        <ele>386.775794</ele>
        <time>2020-08-28T05:53:07.309Z</time>
      </trkpt>
      <trkpt lat="68.35097" lon="18.82134">
        <ele>386.384159</ele>
        <time>2020-08-28T05:53:17.621Z</time>
      </trkpt>
      <trkpt lat="68.35103" lon="18.82146">
        <ele>386.33342</ele>
        <time>2020-08-28T05:53:18.629Z</time>
      </trkpt>
      <trkpt lat="68.35119" lon="18.82184">
        <ele>385.786837</ele>
        <time>2020-08-28T05:53:21.577Z</time>
      </trkpt>
      <trkpt lat="68.35139" lon="18.82264">
        <ele>384.441197</ele>
        <time>2020-08-28T05:53:26.393Z</time>
      </trkpt>
      <trkpt lat="68.35142" lon="18.82312">
        <ele>383.750678</ele>
        <time>2020-08-28T05:53:28.899Z</time>
      </trkpt>
      <trkpt lat="68.35139" lon="18.82405">
        <ele>382.450505</ele>
        <time>2020-08-28T05:53:33.381Z</time>
      </trkpt>
      <trkpt lat="68.35125" lon="18.82541">
        <ele>380.46807</ele>
        <time>2020-08-28T05:53:40.068Z</time>
      </trkpt>
      <trkpt lat="68.35108" lon="18.82701">
        <ele>378.209533</ele>
        <time>2020-08-28T05:53:48.306Z</time>
      </trkpt>
      <trkpt lat="68.35091" lon="18.82858">
        <ele>376.047898</ele>
        <time>2020-08-28T05:53:56.215Z</time>
      </trkpt>
      <trkpt lat="68.35064" lon="18.83087">
        <ele>372.964239</ele>
        <time>2020-08-28T05:54:08.465Z</time>
      </trkpt>
      <trkpt lat="68.35074" lon="18.83098">
        <ele>372.809841</ele>
        <time>2020-08-28T05:54:09.933Z</time>
      </trkpt>
      <trkpt lat="68.35089" lon="18.8312">
        <ele>372.553621</ele>
        <time>2020-08-28T05:54:12.475Z</time>
      </trkpt>
      <trkpt lat="68.35064" lon="18.83257">
        <ele>371.733797</ele>
        <time>2020-08-28T05:54:20.603Z</time>
      </trkpt>
      <trkpt lat="68.35033" lon="18.834">
        <ele>370.841434</ele>
        <time>2020-08-28T05:54:30.055Z</time>
      </trkpt>
      <trkpt lat="68.34936" lon="18.83739">
        <ele>369.861747</ele>
        <time>2020-08-28T05:54:57.245Z</time>
      </trkpt>
      <trkpt lat="68.34896" lon="18.83891">
        <ele>369.506144</ele>
        <time>2020-08-28T05:55:08.532Z</time>
      </trkpt>
      <trkpt lat="68.34871" lon="18.84002">
        <ele>369.112876</ele>
        <time>2020-08-28T05:55:16.144Z</time>
      </trkpt>
      <trkpt lat="68.34827" lon="18.84219">
        <ele>368.365937</ele>
        <time>2020-08-28T05:55:30.218Z</time>
      </trkpt>
      <trkpt lat="68.34793" lon="18.8442">
        <ele>368.151901</ele>
        <time>2020-08-28T05:55:43.318Z</time>
      </trkpt>
      <trkpt lat="68.34776" lon="18.84553">
        <ele>368.134184</ele>
        <time>2020-08-28T05:55:52.306Z</time>
      </trkpt>
      <trkpt lat="68.34769" lon="18.84608">
        <ele>368.126822</ele>
        <time>2020-08-28T05:55:56.304Z</time>
      </trkpt>
      <trkpt lat="68.3475" lon="18.84778">
        <ele>368.36591</ele>
        <time>2020-08-28T05:56:09.237Z</time>
      </trkpt>
      <trkpt lat="68.34727" lon="18.85129">
        <ele>370.381279</ele>
        <time>2020-08-28T05:56:39.538Z</time>
      </trkpt>
      <trkpt lat="68.34723" lon="18.85312">
        <ele>371.410068</ele>
        <time>2020-08-28T05:56:56.189Z</time>
      </trkpt>
      <trkpt lat="68.34727" lon="18.85662">
        <ele>373.383364</ele>
        <time>2020-08-28T05:57:26.225Z</time>
      </trkpt>
      <trkpt lat="68.34729" lon="18.85779">
        <ele>373.42338</ele>
        <time>2020-08-28T05:57:34.796Z</time>
      </trkpt>
      <trkpt lat="68.34736" lon="18.85946">
        <ele>373.027604</ele>
        <time>2020-08-28T05:57:45.544Z</time>
      </trkpt>
      <trkpt lat="68.34768" lon="18.86509">
        <ele>370.312411</ele>
        <time>2020-08-28T05:58:16.137Z</time>
      </trkpt>
      <trkpt lat="68.34808" lon="18.87021">
        <ele>366.79557</ele>
        <time>2020-08-28T05:58:43.299Z</time>
      </trkpt>
      <trkpt lat="68.34817" lon="18.87123">
        <ele>366.085362</ele>
        <time>2020-08-28T05:58:48.926Z</time>
      </trkpt>
      <trkpt lat="68.34838" lon="18.87358">
        <ele>365.788658</ele>
        <time>2020-08-28T05:59:03.108Z</time>
      </trkpt>
      <trkpt lat="68.34845" lon="18.8746">
        <ele>365.709101</ele>
        <time>2020-08-28T05:59:09.878Z</time>
      </trkpt>
      <trkpt lat="68.34853" lon="18.87652">
        <ele>365.772166</ele>
        <time>2020-08-28T05:59:23.849Z</time>
      </trkpt>
      <trkpt lat="68.34859" lon="18.87924">
        <ele>367.326318</ele>
        <time>2020-08-28T05:59:46.494Z</time>
      </trkpt>
      <trkpt lat="68.34857" lon="18.88086">
        <ele>368.247056</ele>
        <time>2020-08-28T06:00:00.848Z</time>
      </trkpt>
      <trkpt lat="68.3484" lon="18.88478">
        <ele>371.762103</ele>
        <time>2020-08-28T06:00:38.041Z</time>
      </trkpt>
      <trkpt lat="68.34817" lon="18.88753">
        <ele>374.622952</ele>
        <time>2020-08-28T06:01:05.842Z</time>
      </trkpt>
      <trkpt lat="68.3478" lon="18.89031">
        <ele>377.820154</ele>
        <time>2020-08-28T06:01:35.387Z</time>
      </trkpt>
      <trkpt lat="68.3474" lon="18.89287">
        <ele>381.753197</ele>
        <time>2020-08-28T06:02:05.810Z</time>
      </trkpt>
      <trkpt lat="68.34718" lon="18.89434">
        <ele>384.044422</ele>
        <time>2020-08-28T06:02:24.151Z</time>
      </trkpt>
      <trkpt lat="68.34672" lon="18.89753">
        <ele>389.098309</ele>
        <time>2020-08-28T06:03:05.035Z</time>
      </trkpt>
      <trkpt lat="68.34635" lon="18.90073">
        <ele>393.340397</ele>
        <time>2020-08-28T06:03:41.295Z</time>
      </trkpt>
      <trkpt lat="68.34585" lon="18.90693">
        <ele>397.650311</ele>
        <time>2020-08-28T06:04:36.690Z</time>
      </trkpt>
      <trkpt lat="68.34545" lon="18.91453">
        <ele>399.710519</ele>
        <time>2020-08-28T06:05:32.147Z</time>
      </trkpt>
      <trkpt lat="68.34523" lon="18.92158">
        <ele>400.55736</ele>
        <time>2020-08-28T06:06:21.051Z</time>
      </trkpt>
      <trkpt lat="68.34517" lon="18.92495">
        <ele>400.961733</ele>
        <time>2020-08-28T06:06:45.148Z</time>
      </trkpt>
      <trkpt lat="68.34517" lon="18.92898">
        <ele>401.386918</ele>
        <time>2020-08-28T06:07:13.331Z</time>
      </trkpt>
      <trkpt lat="68.34523" lon="18.93104">
        <ele>401.342655</ele>
        <time>2020-08-28T06:07:26.887Z</time>
      </trkpt>
      <trkpt lat="68.34533" lon="18.93316">
        <ele>401.296625</ele>
        <time>2020-08-28T06:07:40.512Z</time>
      </trkpt>
      <trkpt lat="68.34593" lon="18.94026">
        <ele>399.916571</ele>
        <time>2020-08-28T06:08:25.053Z</time>
      </trkpt>
      <trkpt lat="68.34603" lon="18.94196">
        <ele>399.462727</ele>
        <time>2020-08-28T06:08:35.117Z</time>
      </trkpt>
      <trkpt lat="68.34618" lon="18.94534">
        <ele>398.200867</ele>
        <time>2020-08-28T06:08:54.482Z</time>
      </trkpt>
      <trkpt lat="68.34631" lon="18.94996">
        <ele>396.071172</ele>
        <time>2020-08-28T06:09:20.342Z</time>
      </trkpt>
      <trkpt lat="68.34633" lon="18.95018">
        <ele>395.953126</ele>
        <time>2020-08-28T06:09:21.571Z</time>
      </trkpt>
      <trkpt lat="68.34637" lon="18.95136">
        <ele>395.347182</ele>
        <time>2020-08-28T06:09:28.070Z</time>
      </trkpt>
      <trkpt lat="68.34643" lon="18.95286">
        <ele>394.557804</ele>
        <time>2020-08-28T06:09:36.337Z</time>
      </trkpt>
      <trkpt lat="68.34649" lon="18.95394">
        <ele>393.911482</ele>
        <time>2020-08-28T06:09:42.194Z</time>
      </trkpt>
      <trkpt lat="68.34651" lon="18.9543">
        <ele>393.692237</ele>
        <time>2020-08-28T06:09:44.148Z</time>
      </trkpt>
      <trkpt lat="68.34657" lon="18.95533">
        <ele>393.070182</ele>
        <time>2020-08-28T06:09:49.849Z</time>
      </trkpt>
      <trkpt lat="68.34686" lon="18.95906">
        <ele>390.800624</ele>
        <time>2020-08-28T06:10:10.135Z</time>
      </trkpt>
      <trkpt lat="68.34736" lon="18.96415">
        <ele>388.133751</ele>
        <time>2020-08-28T06:10:38.662Z</time>
      </trkpt>
      <trkpt lat="68.34779" lon="18.96753">
        <ele>387.190546</ele>
        <time>2020-08-28T06:10:59.844Z</time>
      </trkpt>
      <trkpt lat="68.34888" lon="18.97531">
        <ele>388.455154</ele>
        <time>2020-08-28T06:11:59.865Z</time>
      </trkpt>
      <trkpt lat="68.34917" lon="18.97785">
        <ele>388.756756</ele>
        <time>2020-08-28T06:12:19.535Z</time>
      </trkpt>
      <trkpt lat="68.3496" lon="18.98311">
        <ele>388.104087</ele>
        <time>2020-08-28T06:12:54.440Z</time>
      </trkpt>
      <trkpt lat="68.34988" lon="18.98857">
        <ele>384.998224</ele>
        <time>2020-08-28T06:13:23.466Z</time>
      </trkpt>
      <trkpt lat="68.34999" lon="18.99408">
        <ele>381.145426</ele>
        <time>2020-08-28T06:13:52.026Z</time>
      </trkpt>
      <trkpt lat="68.34999" lon="18.99675">
        <ele>379.98921</ele>
        <time>2020-08-28T06:14:06.982Z</time>
      </trkpt>
      <trkpt lat="68.34986" lon="19.00695">
        <ele>378.163172</ele>
        <time>2020-08-28T06:15:10.248Z</time>
      </trkpt>
      <trkpt lat="68.34991" lon="19.00913">
        <ele>377.825744</ele>
        <time>2020-08-28T06:15:23.650Z</time>
      </trkpt>
      <trkpt lat="68.35013" lon="19.01269">
        <ele>377.220588</ele>
        <time>2020-08-28T06:15:45.892Z</time>
      </trkpt>
      <trkpt lat="68.35055" lon="19.0178">
        <ele>375.752484</ele>
        <time>2020-08-28T06:16:17.460Z</time>
      </trkpt>
      <trkpt lat="68.35064" lon="19.01944">
        <ele>375.129722</ele>
        <time>2020-08-28T06:16:26.687Z</time>
      </trkpt>
      <trkpt lat="68.35067" lon="19.0226">
        <ele>372.159499</ele>
        <time>2020-08-28T06:16:42.841Z</time>
      </trkpt>
      <trkpt lat="68.35062" lon="19.02411">
        <ele>370.740122</ele>
        <time>2020-08-28T06:16:50.113Z</time>
      </trkpt>
      <trkpt lat="68.3505" lon="19.02587">
        <ele>368.364609</ele>
        <time>2020-08-28T06:16:58.581Z</time>
      </trkpt>
      <trkpt lat="68.35033" lon="19.02758">
        <ele>365.972245</ele>
        <time>2020-08-28T06:17:06.836Z</time>
      </trkpt>
      <trkpt lat="68.35" lon="19.03009">
        <ele>362.76266</ele>
        <time>2020-08-28T06:17:19.419Z</time>
      </trkpt>
      <trkpt lat="68.34939" lon="19.03366">
        <ele>358.955689</ele>
        <time>2020-08-28T06:17:38.981Z</time>
      </trkpt>
      <trkpt lat="68.34865" lon="19.03731">
        <ele>358.009242</ele>
        <time>2020-08-28T06:18:03.510Z</time>
      </trkpt>
      <trkpt lat="68.34776" lon="19.04207">
        <ele>361.468128</ele>
        <time>2020-08-28T06:18:50.705Z</time>
      </trkpt>
      <trkpt lat="68.34722" lon="19.0454">
        <ele>366.646459</ele>
        <time>2020-08-28T06:19:31.914Z</time>
      </trkpt>
      <trkpt lat="68.34642" lon="19.05118">
        <ele>376.346133</ele>
        <time>2020-08-28T06:20:45.631Z</time>
      </trkpt>
      <trkpt lat="68.34614" lon="19.05369">
        <ele>378.913077</ele>
        <time>2020-08-28T06:21:12.864Z</time>
      </trkpt>
      <trkpt lat="68.34584" lon="19.05732">
        <ele>381.352253</ele>
        <time>2020-08-28T06:21:44.664Z</time>
      </trkpt>
      <trkpt lat="68.34547" lon="19.06426">
        <ele>381.672034</ele>
        <time>2020-08-28T06:22:31.058Z</time>
      </trkpt>
      <trkpt lat="68.34519" lon="19.0681">
        <ele>380.250157</ele>
        <time>2020-08-28T06:22:53.266Z</time>
      </trkpt>
      <trkpt lat="68.34517" lon="19.06837">
        <ele>380.119474</ele>
        <time>2020-08-28T06:22:54.739Z</time>
      </trkpt>
      <trkpt lat="68.34506" lon="19.06967">
        <ele>379.487543</ele>
        <time>2020-08-28T06:23:02.124Z</time>
      </trkpt>
      <trkpt lat="68.34462" lon="19.07405">
        <ele>376.054985</ele>
        <time>2020-08-28T06:23:25.848Z</time>
      </trkpt>
      <trkpt lat="68.3446" lon="19.07428">
        <ele>375.861947</ele>
        <time>2020-08-28T06:23:27.060Z</time>
      </trkpt>
      <trkpt lat="68.34411" lon="19.07839">
        <ele>371.460632</ele>
        <time>2020-08-28T06:23:48.133Z</time>
      </trkpt>
      <trkpt lat="68.34316" lon="19.0849">
        <ele>365.840931</ele>
        <time>2020-08-28T06:24:23.212Z</time>
      </trkpt>
      <trkpt lat="68.34193" lon="19.09197">
        <ele>366.855989</ele>
        <time>2020-08-28T06:25:20.984Z</time>
      </trkpt>
      <trkpt lat="68.34106" lon="19.09796">
        <ele>369.028772</ele>
        <time>2020-08-28T06:26:12.122Z</time>
      </trkpt>
      <trkpt lat="68.34058" lon="19.10189">
        <ele>369.188889</ele>
        <time>2020-08-28T06:26:39.211Z</time>
      </trkpt>
      <trkpt lat="68.34035" lon="19.10517">
        <ele>368.871886</ele>
        <time>2020-08-28T06:26:58.888Z</time>
      </trkpt>
      <trkpt lat="68.34012" lon="19.11186">
        <ele>370.054849</ele>
        <time>2020-08-28T06:27:46.574Z</time>
      </trkpt>
      <trkpt lat="68.34006" lon="19.11371">
        <ele>371.78681</ele>
        <time>2020-08-28T06:28:04.625Z</time>
      </trkpt>
      <trkpt lat="68.33974" lon="19.11772">
        <ele>375.471318</ele>
        <time>2020-08-28T06:28:46.546Z</time>
      </trkpt>
      <trkpt lat="68.33926" lon="19.12059">
        <ele>378.086259</ele>
        <time>2020-08-28T06:29:14.407Z</time>
      </trkpt>
      <trkpt lat="68.33843" lon="19.12355">
        <ele>381.06045</ele>
        <time>2020-08-28T06:29:47.794Z</time>
      </trkpt>
      <trkpt lat="68.33635" lon="19.12922">
        <ele>387.347366</ele>
        <time>2020-08-28T06:31:03.018Z</time>
      </trkpt>
      <trkpt lat="68.33443" lon="19.13547">
        <ele>390.126745</ele>
        <time>2020-08-28T06:32:04.517Z</time>
      </trkpt>
      <trkpt lat="68.33248" lon="19.14352">
        <ele>388.736562</ele>
        <time>2020-08-28T06:33:04.572Z</time>
      </trkpt>
      <trkpt lat="68.33146" lon="19.14664">
        <ele>385.763188</ele>
        <time>2020-08-28T06:33:26.034Z</time>
      </trkpt>
      <trkpt lat="68.33047" lon="19.14864">
        <ele>383.289109</ele>
        <time>2020-08-28T06:33:43.025Z</time>
      </trkpt>
      <trkpt lat="68.32907" lon="19.15073">
        <ele>380.226625</ele>
        <time>2020-08-28T06:34:06.129Z</time>
      </trkpt>
      <trkpt lat="68.32772" lon="19.15189">
        <ele>377.576519</ele>
        <time>2020-08-28T06:34:26.502Z</time>
      </trkpt>
      <trkpt lat="68.3258" lon="19.15289">
        <ele>373.358045</ele>
        <time>2020-08-28T06:34:53.802Z</time>
      </trkpt>
      <trkpt lat="68.32489" lon="19.15419">
        <ele>371.020228</ele>
        <time>2020-08-28T06:35:08.014Z</time>
      </trkpt>
      <trkpt lat="68.32412" lon="19.15598">
        <ele>368.455816</ele>
        <time>2020-08-28T06:35:21.890Z</time>
      </trkpt>
      <trkpt lat="68.32364" lon="19.15773">
        <ele>366.343068</ele>
        <time>2020-08-28T06:35:32.661Z</time>
      </trkpt>
      <trkpt lat="68.32338" lon="19.16002">
        <ele>363.988215</ele>
        <time>2020-08-28T06:35:44.518Z</time>
      </trkpt>
      <trkpt lat="68.32296" lon="19.16565">
        <ele>358.698793</ele>
        <time>2020-08-28T06:36:13.267Z</time>
      </trkpt>
      <trkpt lat="68.32262" lon="19.16798">
        <ele>356.648129</ele>
        <time>2020-08-28T06:36:26.286Z</time>
      </trkpt>
      <trkpt lat="68.32247" lon="19.1687">
        <ele>356.264921</ele>
        <time>2020-08-28T06:36:30.767Z</time>
      </trkpt>
      <trkpt lat="68.32221" lon="19.1699">
        <ele>355.62531</ele>
        <time>2020-08-28T06:36:38.473Z</time>
      </trkpt>
      <trkpt lat="68.32153" lon="19.1719">
        <ele>354.428495</ele>
        <time>2020-08-28T06:36:54.132Z</time>
      </trkpt>
      <trkpt lat="68.31837" lon="19.17799">
        <ele>352.335483</ele>
        <time>2020-08-28T06:37:58.056Z</time>
      </trkpt>
      <trkpt lat="68.31639" lon="19.18395">
        <ele>350.646891</ele>
        <time>2020-08-28T06:38:45.929Z</time>
      </trkpt>
      <trkpt lat="68.31548" lon="19.18599">
        <ele>351.209447</ele>
        <time>2020-08-28T06:39:07.270Z</time>
      </trkpt>
      <trkpt lat="68.31451" lon="19.18778">
        <ele>352.544625</ele>
        <time>2020-08-28T06:39:33.590Z</time>
      </trkpt>
      <trkpt lat="68.31217" lon="19.19107">
        <ele>358.105522</ele>
        <time>2020-08-28T06:40:41.800Z</time>
      </trkpt>
      <trkpt lat="68.3111" lon="19.1932">
        <ele>359.685781</ele>
        <time>2020-08-28T06:41:09.120Z</time>
      </trkpt>
      <trkpt lat="68.31018" lon="19.19562">
        <ele>360.191245</ele>
        <time>2020-08-28T06:41:33.086Z</time>
      </trkpt>
      <trkpt lat="68.30949" lon="19.19799">
        <ele>359.847104</ele>
        <time>2020-08-28T06:41:53.028Z</time>
      </trkpt>
      <trkpt lat="68.30835" lon="19.20295">
        <ele>357.979629</ele>
        <time>2020-08-28T06:42:26.276Z</time>
      </trkpt>
      <trkpt lat="68.30781" lon="19.20479">
        <ele>357.541413</ele>
        <time>2020-08-28T06:42:39.477Z</time>
      </trkpt>
      <trkpt lat="68.30718" lon="19.2062">
        <ele>357.252725</ele>
        <time>2020-08-28T06:42:53.412Z</time>
      </trkpt>
      <trkpt lat="68.30596" lon="19.20841">
        <ele>358.193712</ele>
        <time>2020-08-28T06:43:24.281Z</time>
      </trkpt>
      <trkpt lat="68.30514" lon="19.21046">
        <ele>358.731499</ele>
        <time>2020-08-28T06:43:47.667Z</time>
      </trkpt>
      <trkpt lat="68.30446" lon="19.21283">
        <ele>358.654469</ele>
        <time>2020-08-28T06:44:06.535Z</time>
      </trkpt>
      <trkpt lat="68.30406" lon="19.21487">
        <ele>358.184598</ele>
        <time>2020-08-28T06:44:19.593Z</time>
      </trkpt>
      <trkpt lat="68.30369" lon="19.21717">
        <ele>357.530232</ele>
        <time>2020-08-28T06:44:34.153Z</time>
      </trkpt>
      <trkpt lat="68.30345" lon="19.22033">
        <ele>357.928893</ele>
        <time>2020-08-28T06:44:56.271Z</time>
      </trkpt>
      <trkpt lat="68.30329" lon="19.22454">
        <ele>359.241386</ele>
        <time>2020-08-28T06:45:30.278Z</time>
      </trkpt>
      <trkpt lat="68.30307" lon="19.2272">
        <ele>360.384244</ele>
        <time>2020-08-28T06:45:52.309Z</time>
      </trkpt>
      <trkpt lat="68.30266" lon="19.23035">
        <ele>361.070376</ele>
        <time>2020-08-28T06:46:16.090Z</time>
      </trkpt>
      <trkpt lat="68.30249" lon="19.23139">
        <ele>361.292275</ele>
        <time>2020-08-28T06:46:24.149Z</time>
      </trkpt>
      <trkpt lat="68.30245" lon="19.23159">
        <ele>361.334473</ele>
        <time>2020-08-28T06:46:25.502Z</time>
      </trkpt>
      <trkpt lat="68.30213" lon="19.23344">
        <ele>361.895194</ele>
        <time>2020-08-28T06:46:40.448Z</time>
      </trkpt>
      <trkpt lat="68.30204" lon="19.23395">
        <ele>362.058142</ele>
        <time>2020-08-28T06:46:44.759Z</time>
      </trkpt>
      <trkpt lat="68.30185" lon="19.23541">
        <ele>362.505662</ele>
        <time>2020-08-28T06:46:56.141Z</time>
      </trkpt>
      <trkpt lat="68.30164" lon="19.23804">
        <ele>363.194485</ele>
        <time>2020-08-28T06:47:17.875Z</time>
      </trkpt>
      <trkpt lat="68.30162" lon="19.23856">
        <ele>363.318424</ele>
        <time>2020-08-28T06:47:22.306Z</time>
      </trkpt>
      <trkpt lat="68.30161" lon="19.23891">
        <ele>363.400538</ele>
        <time>2020-08-28T06:47:24.861Z</time>
      </trkpt>
      <trkpt lat="68.30158" lon="19.23974">
        <ele>363.595651</ele>
        <time>2020-08-28T06:47:31.102Z</time>
      </trkpt>
      <trkpt lat="68.3015" lon="19.24171">
        <ele>363.748262</ele>
        <time>2020-08-28T06:47:44.585Z</time>
      </trkpt>
      <trkpt lat="68.30146" lon="19.24684">
        <ele>361.313864</ele>
        <time>2020-08-28T06:48:12.955Z</time>
      </trkpt>
      <trkpt lat="68.30132" lon="19.25236">
        <ele>357.666879</ele>
        <time>2020-08-28T06:48:40.824Z</time>
      </trkpt>
      <trkpt lat="68.30128" lon="19.25371">
        <ele>357.447522</ele>
        <time>2020-08-28T06:48:48.823Z</time>
      </trkpt>
      <trkpt lat="68.30106" lon="19.25698">
        <ele>357.849466</ele>
        <time>2020-08-28T06:49:15.317Z</time>
      </trkpt>
      <trkpt lat="68.30068" lon="19.25962">
        <ele>359.566523</ele>
        <time>2020-08-28T06:49:41.651Z</time>
      </trkpt>
      <trkpt lat="68.3001" lon="19.26301">
        <ele>360.194865</ele>
        <time>2020-08-28T06:50:10.367Z</time>
      </trkpt>
      <trkpt lat="68.29968" lon="19.26678">
        <ele>359.064925</ele>
        <time>2020-08-28T06:50:32.341Z</time>
      </trkpt>
      <trkpt lat="68.29946" lon="19.26815">
        <ele>358.145072</ele>
        <time>2020-08-28T06:50:40.153Z</time>
      </trkpt>
      <trkpt lat="68.29922" lon="19.26944">
        <ele>357.257044</ele>
        <time>2020-08-28T06:50:47.696Z</time>
      </trkpt>
      <trkpt lat="68.29831" lon="19.27336">
        <ele>354.175451</ele>
        <time>2020-08-28T06:51:12.308Z</time>
      </trkpt>
      <trkpt lat="68.29757" lon="19.27716">
        <ele>351.776096</ele>
        <time>2020-08-28T06:51:35.662Z</time>
      </trkpt>
      <trkpt lat="68.29614" lon="19.28635">
        <ele>347.261754</ele>
        <time>2020-08-28T06:52:31.001Z</time>
      </trkpt>
      <trkpt lat="68.29583" lon="19.28791">
        <ele>347.308925</ele>
        <time>2020-08-28T06:52:42.365Z</time>
      </trkpt>
      <trkpt lat="68.29542" lon="19.28945">
        <ele>347.663717</ele>
        <time>2020-08-28T06:52:55.838Z</time>
      </trkpt>
      <trkpt lat="68.2947" lon="19.29151">
        <ele>348.685363</ele>
        <time>2020-08-28T06:53:19.243Z</time>
      </trkpt>
      <trkpt lat="68.29419" lon="19.29264">
        <ele>349.766031</ele>
        <time>2020-08-28T06:53:34.624Z</time>
      </trkpt>
      <trkpt lat="68.29372" lon="19.29349">
        <ele>350.704979</ele>
        <time>2020-08-28T06:53:48.081Z</time>
      </trkpt>
      <trkpt lat="68.29299" lon="19.29447">
        <ele>352.131602</ele>
        <time>2020-08-28T06:54:07.187Z</time>
      </trkpt>
      <trkpt lat="68.29046" lon="19.29712">
        <ele>357.385924</ele>
        <time>2020-08-28T06:55:11.317Z</time>
      </trkpt>
      <trkpt lat="68.29016" lon="19.29751">
        <ele>358.214903</ele>
        <time>2020-08-28T06:55:20.144Z</time>
      </trkpt>
      <trkpt lat="68.28998" lon="19.29777">
        <ele>358.8918</ele>
        <time>2020-08-28T06:55:25.624Z</time>
      </trkpt>
      <trkpt lat="68.28973" lon="19.29815">
        <ele>359.881211</ele>
        <time>2020-08-28T06:55:34.282Z</time>
      </trkpt>
      <trkpt lat="68.28908" lon="19.29946">
        <ele>362.627135</ele>
        <time>2020-08-28T06:55:58.220Z</time>
      </trkpt>
      <trkpt lat="68.2886" lon="19.30059">
        <ele>364.607845</ele>
        <time>2020-08-28T06:56:17.330Z</time>
      </trkpt>
      <trkpt lat="68.28753" lon="19.3032">
        <ele>368.512411</ele>
        <time>2020-08-28T06:56:55.564Z</time>
      </trkpt>
      <trkpt lat="68.28675" lon="19.30521">
        <ele>369.525966</ele>
        <time>2020-08-28T06:57:19.408Z</time>
      </trkpt>
      <trkpt lat="68.28622" lon="19.30668">
        <ele>370.103185</ele>
        <time>2020-08-28T06:57:33.430Z</time>
      </trkpt>
      <trkpt lat="68.28461" lon="19.31163">
        <ele>367.359645</ele>
        <time>2020-08-28T06:58:10.642Z</time>
      </trkpt>
      <trkpt lat="68.28386" lon="19.31434">
        <ele>365.216303</ele>
        <time>2020-08-28T06:58:28.461Z</time>
      </trkpt>
      <trkpt lat="68.28361" lon="19.3156">
        <ele>364.061278</ele>
        <time>2020-08-28T06:58:35.759Z</time>
      </trkpt>
      <trkpt lat="68.28217" lon="19.32516">
        <ele>357.390335</ele>
        <time>2020-08-28T06:59:28.889Z</time>
      </trkpt>
      <trkpt lat="68.28173" lon="19.3277">
        <ele>357.49083</ele>
        <time>2020-08-28T06:59:51.965Z</time>
      </trkpt>
      <trkpt lat="68.28084" lon="19.33184">
        <ele>362.693531</ele>
        <time>2020-08-28T07:00:43.362Z</time>
      </trkpt>
      <trkpt lat="68.28003" lon="19.33507">
        <ele>363.909439</ele>
        <time>2020-08-28T07:01:15.027Z</time>
      </trkpt>
      <trkpt lat="68.27877" lon="19.34009">
        <ele>361.861815</ele>
        <time>2020-08-28T07:01:47.951Z</time>
      </trkpt>
      <trkpt lat="68.27786" lon="19.34416">
        <ele>361.629717</ele>
        <time>2020-08-28T07:02:17.963Z</time>
      </trkpt>
      <trkpt lat="68.27772" lon="19.34487">
        <ele>362.435163</ele>
        <time>2020-08-28T07:02:24.513Z</time>
      </trkpt>
      <trkpt lat="68.27713" lon="19.34768">
        <ele>365.644395</ele>
        <time>2020-08-28T07:02:56.262Z</time>
      </trkpt>
      <trkpt lat="68.27566" lon="19.35425">
        <ele>378.379767</ele>
        <time>2020-08-28T07:04:34.942Z</time>
      </trkpt>
      <trkpt lat="68.27499" lon="19.35693">
        <ele>382.613738</ele>
        <time>2020-08-28T07:05:06.470Z</time>
      </trkpt>
      <trkpt lat="68.27463" lon="19.35808">
        <ele>384.048996</ele>
        <time>2020-08-28T07:05:18.967Z</time>
      </trkpt>
      <trkpt lat="68.27386" lon="19.36038">
        <ele>387.126383</ele>
        <time>2020-08-28T07:05:49.340Z</time>
      </trkpt>
      <trkpt lat="68.27295" lon="19.36313">
        <ele>392.599975</ele>
        <time>2020-08-28T07:06:33.010Z</time>
      </trkpt>
      <trkpt lat="68.27182" lon="19.36686">
        <ele>399.118069</ele>
        <time>2020-08-28T07:07:27.100Z</time>
      </trkpt>
      <trkpt lat="68.27141" lon="19.36851">
        <ele>401.48076</ele>
        <time>2020-08-28T07:07:45.966Z</time>
      </trkpt>
      <trkpt lat="68.27087" lon="19.3718">
        <ele>405.362983</ele>
        <time>2020-08-28T07:08:21.601Z</time>
      </trkpt>
      <trkpt lat="68.27068" lon="19.37317">
        <ele>407.335539</ele>
        <time>2020-08-28T07:08:37.511Z</time>
      </trkpt>
      <trkpt lat="68.27028" lon="19.37734">
        <ele>413.129754</ele>
        <time>2020-08-28T07:09:27.002Z</time>
      </trkpt>
      <trkpt lat="68.27004" lon="19.38028">
        <ele>416.112887</ele>
        <time>2020-08-28T07:09:57.731Z</time>
      </trkpt>
      <trkpt lat="68.26955" lon="19.38808">
        <ele>419.369581</ele>
        <time>2020-08-28T07:10:58.750Z</time>
      </trkpt>
      <trkpt lat="68.26913" lon="19.39297">
        <ele>419.903606</ele>
        <time>2020-08-28T07:11:32.744Z</time>
      </trkpt>
      <trkpt lat="68.26864" lon="19.39759">
        <ele>419.851561</ele>
        <time>2020-08-28T07:12:04.349Z</time>
      </trkpt>
      <trkpt lat="68.26788" lon="19.40205">
        <ele>419.50909</ele>
        <time>2020-08-28T07:12:35.824Z</time>
      </trkpt>
      <trkpt lat="68.26704" lon="19.40585">
        <ele>418.824907</ele>
        <time>2020-08-28T07:13:03.281Z</time>
      </trkpt>
      <trkpt lat="68.26664" lon="19.40739">
        <ele>418.369883</ele>
        <time>2020-08-28T07:13:14.736Z</time>
      </trkpt>
      <trkpt lat="68.26638" lon="19.40843">
        <ele>418.065961</ele>
        <time>2020-08-28T07:13:22.101Z</time>
      </trkpt>
      <trkpt lat="68.26581" lon="19.4106">
        <ele>416.274651</ele>
        <time>2020-08-28T07:13:36.860Z</time>
      </trkpt>
      <trkpt lat="68.26421" lon="19.41605">
        <ele>409.945375</ele>
        <time>2020-08-28T07:14:11.781Z</time>
      </trkpt>
      <trkpt lat="68.26375" lon="19.41802">
        <ele>407.114207</ele>
        <time>2020-08-28T07:14:22.788Z</time>
      </trkpt>
      <trkpt lat="68.26356" lon="19.419">
        <ele>405.734796</ele>
        <time>2020-08-28T07:14:28.084Z</time>
      </trkpt>
      <trkpt lat="68.26328" lon="19.4209">
        <ele>403.395985</ele>
        <time>2020-08-28T07:14:37.926Z</time>
      </trkpt>
      <trkpt lat="68.26296" lon="19.42389">
        <ele>401.013504</ele>
        <time>2020-08-28T07:14:53.909Z</time>
      </trkpt>
      <trkpt lat="68.26278" lon="19.42693">
        <ele>399.580575</ele>
        <time>2020-08-28T07:15:11.578Z</time>
      </trkpt>
      <trkpt lat="68.26277" lon="19.43106">
        <ele>398.637205</ele>
        <time>2020-08-28T07:15:37.170Z</time>
      </trkpt>
      <trkpt lat="68.26285" lon="19.43293">
        <ele>398.251998</ele>
        <time>2020-08-28T07:15:48.875Z</time>
      </trkpt>
      <trkpt lat="68.26333" lon="19.43999">
        <ele>396.328764</ele>
        <time>2020-08-28T07:16:31.403Z</time>
      </trkpt>
      <trkpt lat="68.26339" lon="19.44198">
        <ele>395.678459</ele>
        <time>2020-08-28T07:16:42.706Z</time>
      </trkpt>
      <trkpt lat="68.26336" lon="19.44388">
        <ele>395.056619</ele>
        <time>2020-08-28T07:16:53.674Z</time>
      </trkpt>
      <trkpt lat="68.2633" lon="19.44568">
        <ele>394.950062</ele>
        <time>2020-08-28T07:17:04.497Z</time>
      </trkpt>
      <trkpt lat="68.26303" lon="19.44836">
        <ele>395.142251</ele>
        <time>2020-08-28T07:17:23.498Z</time>
      </trkpt>
      <trkpt lat="68.26261" lon="19.45113">
        <ele>396.064625</ele>
        <time>2020-08-28T07:17:47.934Z</time>
      </trkpt>
      <trkpt lat="68.26231" lon="19.45242">
        <ele>396.678696</ele>
        <time>2020-08-28T07:17:59.917Z</time>
      </trkpt>
      <trkpt lat="68.26209" lon="19.45333">
        <ele>397.117804</ele>
        <time>2020-08-28T07:18:08.541Z</time>
      </trkpt>
      <trkpt lat="68.26154" lon="19.45544">
        <ele>397.640421</ele>
        <time>2020-08-28T07:18:28.242Z</time>
      </trkpt>
      <trkpt lat="68.26085" lon="19.45819">
        <ele>397.688598</ele>
        <time>2020-08-28T07:18:51.094Z</time>
      </trkpt>
      <trkpt lat="68.2603" lon="19.46147">
        <ele>396.082882</ele>
        <time>2020-08-28T07:19:11.632Z</time>
      </trkpt>
      <trkpt lat="68.25999" lon="19.465">
        <ele>390.431626</ele>
        <time>2020-08-28T07:19:28.655Z</time>
      </trkpt>
      <trkpt lat="68.25993" lon="19.4698">
        <ele>379.93643</ele>
        <time>2020-08-28T07:19:49.426Z</time>
      </trkpt>
      <trkpt lat="68.25978" lon="19.47404">
        <ele>369.627266</ele>
        <time>2020-08-28T07:20:07.554Z</time>
      </trkpt>
      <trkpt lat="68.25944" lon="19.47814">
        <ele>361.007025</ele>
        <time>2020-08-28T07:20:25.868Z</time>
      </trkpt>
      <trkpt lat="68.25883" lon="19.48329">
        <ele>354.782322</ele>
        <time>2020-08-28T07:20:52.005Z</time>
      </trkpt>
      <trkpt lat="68.2584" lon="19.48601">
        <ele>353.388643</ele>
        <time>2020-08-28T07:21:12.253Z</time>
      </trkpt>
      <trkpt lat="68.25804" lon="19.48831">
        <ele>353.341638</ele>
        <time>2020-08-28T07:21:30.356Z</time>
      </trkpt>
      <trkpt lat="68.25716" lon="19.4939">
        <ele>352.381036</ele>
        <time>2020-08-28T07:22:05.733Z</time>
      </trkpt>
      <trkpt lat="68.25584" lon="19.50073">
        <ele>353.823101</ele>
        <time>2020-08-28T07:23:03.857Z</time>
      </trkpt>
      <trkpt lat="68.25523" lon="19.50341">
        <ele>354.166782</ele>
        <time>2020-08-28T07:23:25.662Z</time>
      </trkpt>
      <trkpt lat="68.25417" lon="19.50696">
        <ele>353.739217</ele>
        <time>2020-08-28T07:23:53.150Z</time>
      </trkpt>
      <trkpt lat="68.25321" lon="19.50931">
        <ele>354.32057</ele>
        <time>2020-08-28T07:24:17.142Z</time>
      </trkpt>
      <trkpt lat="68.25221" lon="19.51127">
        <ele>355.990891</ele>
        <time>2020-08-28T07:24:46.296Z</time>
      </trkpt>
      <trkpt lat="68.25186" lon="19.51195">
        <ele>356.744992</ele>
        <time>2020-08-28T07:24:57.064Z</time>
      </trkpt>
      <trkpt lat="68.25151" lon="19.51249">
        <ele>357.447133</ele>
        <time>2020-08-28T07:25:07.005Z</time>
      </trkpt>
      <trkpt lat="68.24998" lon="19.51476">
        <ele>358.827</ele>
        <time>2020-08-28T07:25:43.818Z</time>
      </trkpt>
      <trkpt lat="68.24857" lon="19.51635">
        <ele>356.996207</ele>
        <time>2020-08-28T07:26:06.730Z</time>
      </trkpt>
      <trkpt lat="68.24737" lon="19.51747">
        <ele>354.541034</ele>
        <time>2020-08-28T07:26:24.124Z</time>
      </trkpt>
      <trkpt lat="68.24646" lon="19.51813">
        <ele>352.47636</ele>
        <time>2020-08-28T07:26:37.162Z</time>
      </trkpt>
      <trkpt lat="68.24309" lon="19.5199">
        <ele>348.902349</ele>
        <time>2020-08-28T07:27:29.665Z</time>
      </trkpt>
      <trkpt lat="68.24227" lon="19.52054">
        <ele>349.619252</ele>
        <time>2020-08-28T07:27:46.381Z</time>
      </trkpt>
      <trkpt lat="68.24138" lon="19.52182">
        <ele>350.876323</ele>
        <time>2020-08-28T07:28:09.839Z</time>
      </trkpt>
      <trkpt lat="68.24063" lon="19.52343">
        <ele>352.850602</ele>
        <time>2020-08-28T07:28:34.796Z</time>
      </trkpt>
      <trkpt lat="68.23987" lon="19.52569">
        <ele>355.080947</ele>
        <time>2020-08-28T07:29:02.976Z</time>
      </trkpt>
      <trkpt lat="68.23886" lon="19.53032">
        <ele>356.744975</ele>
        <time>2020-08-28T07:29:43.455Z</time>
      </trkpt>
      <trkpt lat="68.2386" lon="19.53174">
        <ele>356.777718</ele>
        <time>2020-08-28T07:29:53.938Z</time>
      </trkpt>
      <trkpt lat="68.23832" lon="19.53325">
        <ele>356.812444</ele>
        <time>2020-08-28T07:30:04.707Z</time>
      </trkpt>
      <trkpt lat="68.23828" lon="19.53346">
        <ele>356.817258</ele>
        <time>2020-08-28T07:30:06.231Z</time>
      </trkpt>
      <trkpt lat="68.23797" lon="19.53574">
        <ele>356.589471</ele>
        <time>2020-08-28T07:30:21.423Z</time>
      </trkpt>
      <trkpt lat="68.23766" lon="19.53859">
        <ele>356.272737</ele>
        <time>2020-08-28T07:30:40.074Z</time>
      </trkpt>
      <trkpt lat="68.23717" lon="19.54451">
        <ele>356.864216</ele>
        <time>2020-08-28T07:31:19.637Z</time>
      </trkpt>
      <trkpt lat="68.23687" lon="19.5471">
        <ele>358.283399</ele>
        <time>2020-08-28T07:31:42.772Z</time>
      </trkpt>
      <trkpt lat="68.23641" lon="19.54964">
        <ele>360.957757</ele>
        <time>2020-08-28T07:32:11.811Z</time>
      </trkpt>
      <trkpt lat="68.23572" lon="19.55284">
        <ele>364.533402</ele>
        <time>2020-08-28T07:32:50.008Z</time>
      </trkpt>
      <trkpt lat="68.2344" lon="19.56026">
        <ele>368.819324</ele>
        <time>2020-08-28T07:33:56.973Z</time>
      </trkpt>
      <trkpt lat="68.23368" lon="19.56551">
        <ele>370.608918</ele>
        <time>2020-08-28T07:34:38.157Z</time>
      </trkpt>
      <trkpt lat="68.23323" lon="19.57036">
        <ele>373.535299</ele>
        <time>2020-08-28T07:35:21.972Z</time>
      </trkpt>
      <trkpt lat="68.23272" lon="19.57781">
        <ele>376.041464</ele>
        <time>2020-08-28T07:36:23.428Z</time>
      </trkpt>
      <trkpt lat="68.2325" lon="19.58342">
        <ele>374.045507</ele>
        <time>2020-08-28T07:36:54.278Z</time>
      </trkpt>
      <trkpt lat="68.23247" lon="19.58777">
        <ele>371.803479</ele>
        <time>2020-08-28T07:37:17.875Z</time>
      </trkpt>
      <trkpt lat="68.23255" lon="19.59158">
        <ele>370.495134</ele>
        <time>2020-08-28T07:37:40.276Z</time>
      </trkpt>
      <trkpt lat="68.23285" lon="19.5982">
        <ele>369.186913</ele>
        <time>2020-08-28T07:38:21.287Z</time>
      </trkpt>
      <trkpt lat="68.23285" lon="19.60096">
        <ele>368.817369</ele>
        <time>2020-08-28T07:38:38.269Z</time>
      </trkpt>
      <trkpt lat="68.2328" lon="19.6037">
        <ele>368.478963</ele>
        <time>2020-08-28T07:38:55.467Z</time>
      </trkpt>
      <trkpt lat="68.23239" lon="19.61341">
        <ele>368.804847</ele>
        <time>2020-08-28T07:40:01.028Z</time>
      </trkpt>
      <trkpt lat="68.23181" lon="19.6223">
        <ele>371.638422</ele>
        <time>2020-08-28T07:41:10.721Z</time>
      </trkpt>
      <trkpt lat="68.23156" lon="19.6282">
        <ele>373.01237</ele>
        <time>2020-08-28T07:41:55.233Z</time>
      </trkpt>
      <trkpt lat="68.23149" lon="19.6312">
        <ele>372.689124</ele>
        <time>2020-08-28T07:42:14.908Z</time>
      </trkpt>
      <trkpt lat="68.23142" lon="19.64114">
        <ele>368.286416</ele>
        <time>2020-08-28T07:43:09.971Z</time>
      </trkpt>
      <trkpt lat="68.23141" lon="19.64155">
        <ele>368.082963</ele>
        <time>2020-08-28T07:43:12.217Z</time>
      </trkpt>
      <trkpt lat="68.23134" lon="19.64391">
        <ele>367.270317</ele>
        <time>2020-08-28T07:43:25.653Z</time>
      </trkpt>
      <trkpt lat="68.23124" lon="19.64697">
        <ele>366.40906</ele>
        <time>2020-08-28T07:43:44.025Z</time>
      </trkpt>
      <trkpt lat="68.23109" lon="19.64963">
        <ele>366.519564</ele>
        <time>2020-08-28T07:44:01.518Z</time>
      </trkpt>
      <trkpt lat="68.23108" lon="19.64976">
        <ele>366.526715</ele>
        <time>2020-08-28T07:44:02.436Z</time>
      </trkpt>
      <trkpt lat="68.23044" lon="19.65866">
        <ele>368.73811</ele>
        <time>2020-08-28T07:45:08.594Z</time>
      </trkpt>
      <trkpt lat="68.22943" lon="19.6681">
        <ele>374.396801</ele>
        <time>2020-08-28T07:46:37.023Z</time>
      </trkpt>
      <trkpt lat="68.22896" lon="19.67191">
        <ele>374.741556</ele>
        <time>2020-08-28T07:47:02.867Z</time>
      </trkpt>
      <trkpt lat="68.2279" lon="19.67889">
        <ele>372.674406</ele>
        <time>2020-08-28T07:47:45.690Z</time>
      </trkpt>
      <trkpt lat="68.22745" lon="19.68157">
        <ele>373.665864</ele>
        <time>2020-08-28T07:48:08.349Z</time>
      </trkpt>
      <trkpt lat="68.22681" lon="19.68496">
        <ele>375.858819</ele>
        <time>2020-08-28T07:48:43.486Z</time>
      </trkpt>
      <trkpt lat="68.226" lon="19.68883">
        <ele>378.318337</ele>
        <time>2020-08-28T07:49:21.626Z</time>
      </trkpt>
      <trkpt lat="68.22505" lon="19.693">
        <ele>378.876845</ele>
        <time>2020-08-28T07:49:55.034Z</time>
      </trkpt>
      <trkpt lat="68.22348" lon="19.69892">
        <ele>377.459442</ele>
        <time>2020-08-28T07:50:39.371Z</time>
      </trkpt>
      <trkpt lat="68.22273" lon="19.70149">
        <ele>376.230384</ele>
        <time>2020-08-28T07:50:58.063Z</time>
      </trkpt>
      <trkpt lat="68.22229" lon="19.70341">
        <ele>375.125146</ele>
        <time>2020-08-28T07:51:10.431Z</time>
      </trkpt>
      <trkpt lat="68.22192" lon="19.70524">
        <ele>374.303087</ele>
        <time>2020-08-28T07:51:21.778Z</time>
      </trkpt>
      <trkpt lat="68.22098" lon="19.71081">
        <ele>373.235182</ele>
        <time>2020-08-28T07:51:58.673Z</time>
      </trkpt>
      <trkpt lat="68.2207" lon="19.71218">
        <ele>373.299776</ele>
        <time>2020-08-28T07:52:10.333Z</time>
      </trkpt>
      <trkpt lat="68.22051" lon="19.71288">
        <ele>373.334757</ele>
        <time>2020-08-28T07:52:16.849Z</time>
      </trkpt>
      <trkpt lat="68.22049" lon="19.71292">
        <ele>373.337572</ele>
        <time>2020-08-28T07:52:17.339Z</time>
      </trkpt>
      <trkpt lat="68.21983" lon="19.71527">
        <ele>374.215347</ele>
        <time>2020-08-28T07:52:40.482Z</time>
      </trkpt>
      <trkpt lat="68.21905" lon="19.71809">
        <ele>375.298718</ele>
        <time>2020-08-28T07:53:06.286Z</time>
      </trkpt>
      <trkpt lat="68.21849" lon="19.7213">
        <ele>376.716231</ele>
        <time>2020-08-28T07:53:33.088Z</time>
      </trkpt>
      <trkpt lat="68.21827" lon="19.72343">
        <ele>379.372095</ele>
        <time>2020-08-28T07:53:53.629Z</time>
      </trkpt>
      <trkpt lat="68.21802" lon="19.72712">
        <ele>385.290069</ele>
        <time>2020-08-28T07:54:39.560Z</time>
      </trkpt>
      <trkpt lat="68.21771" lon="19.73023">
        <ele>392.366239</ele>
        <time>2020-08-28T07:55:26.179Z</time>
      </trkpt>
      <trkpt lat="68.21754" lon="19.73159">
        <ele>394.959858</ele>
        <time>2020-08-28T07:55:46.344Z</time>
      </trkpt>
      <trkpt lat="68.21708" lon="19.73407">
        <ele>399.812111</ele>
        <time>2020-08-28T07:56:20.368Z</time>
      </trkpt>
      <trkpt lat="68.21647" lon="19.73656">
        <ele>402.568298</ele>
        <time>2020-08-28T07:56:49.086Z</time>
      </trkpt>
      <trkpt lat="68.21575" lon="19.73884">
        <ele>404.206683</ele>
        <time>2020-08-28T07:57:12.258Z</time>
      </trkpt>
      <trkpt lat="68.21478" lon="19.74147">
        <ele>404.078527</ele>
        <time>2020-08-28T07:57:36.305Z</time>
      </trkpt>
      <trkpt lat="68.21398" lon="19.74337">
        <ele>403.780713</ele>
        <time>2020-08-28T07:57:53.375Z</time>
      </trkpt>
      <trkpt lat="68.21291" lon="19.7456">
        <ele>403.612202</ele>
        <time>2020-08-28T07:58:16.373Z</time>
      </trkpt>
      <trkpt lat="68.21108" lon="19.74874">
        <ele>405.45579</ele>
        <time>2020-08-28T07:59:01.501Z</time>
      </trkpt>
      <trkpt lat="68.20944" lon="19.751">
        <ele>407.989756</ele>
        <time>2020-08-28T07:59:43.580Z</time>
      </trkpt>
      <trkpt lat="68.20839" lon="19.75226">
        <ele>409.730344</ele>
        <time>2020-08-28T08:00:09.464Z</time>
      </trkpt>
      <trkpt lat="68.20708" lon="19.75361">
        <ele>412.017304</ele>
        <time>2020-08-28T08:00:41.514Z</time>
      </trkpt>
      <trkpt lat="68.20563" lon="19.75485">
        <ele>414.699191</ele>
        <time>2020-08-28T08:01:17.940Z</time>
      </trkpt>
      <trkpt lat="68.20178" lon="19.75755">
        <ele>420.763623</ele>
        <time>2020-08-28T08:02:49.566Z</time>
      </trkpt>
      <trkpt lat="68.20035" lon="19.75915">
        <ele>420.845554</ele>
        <time>2020-08-28T08:03:16.851Z</time>
      </trkpt>
      <trkpt lat="68.19969" lon="19.76001">
        <ele>420.646072</ele>
        <time>2020-08-28T08:03:28.639Z</time>
      </trkpt>
      <trkpt lat="68.19828" lon="19.76234">
        <ele>419.900286</ele>
        <time>2020-08-28T08:03:55.878Z</time>
      </trkpt>
      <trkpt lat="68.1975" lon="19.76383">
        <ele>419.848506</ele>
        <time>2020-08-28T08:04:12.368Z</time>
      </trkpt>
      <trkpt lat="68.19641" lon="19.76634">
        <ele>420.354086</ele>
        <time>2020-08-28T08:04:39.259Z</time>
      </trkpt>
      <trkpt lat="68.19581" lon="19.76798">
        <ele>421.003564</ele>
        <time>2020-08-28T08:04:56.913Z</time>
      </trkpt>
      <trkpt lat="68.19369" lon="19.77474">
        <ele>426.217721</ele>
        <time>2020-08-28T08:06:12.872Z</time>
      </trkpt>
      <trkpt lat="68.19317" lon="19.77631">
        <ele>427.411844</ele>
        <time>2020-08-28T08:06:31.633Z</time>
      </trkpt>
      <trkpt lat="68.19301" lon="19.77682">
        <ele>427.688414</ele>
        <time>2020-08-28T08:06:37.368Z</time>
      </trkpt>
      <trkpt lat="68.19301" lon="19.77682">
        <ele>427.690927</ele>
        <time>2020-08-28T08:06:37.525Z</time>
      </trkpt>
      <trkpt lat="68.19281" lon="19.77731">
        <ele>427.98243</ele>
        <time>2020-08-28T08:06:43.467Z</time>
      </trkpt>
      <trkpt lat="68.19217" lon="19.77889">
        <ele>428.932928</ele>
        <time>2020-08-28T08:07:01.738Z</time>
      </trkpt>
      <trkpt lat="68.19047" lon="19.78294">
        <ele>429.547682</ele>
        <time>2020-08-28T08:07:41.365Z</time>
      </trkpt>
      <trkpt lat="68.18907" lon="19.78585">
        <ele>432.099322</ele>
        <time>2020-08-28T08:08:20.831Z</time>
      </trkpt>
      <trkpt lat="68.18756" lon="19.78854">
        <ele>437.137963</ele>
        <time>2020-08-28T08:09:12.502Z</time>
      </trkpt>
      <trkpt lat="68.18583" lon="19.7912">
        <ele>441.011888</ele>
        <time>2020-08-28T08:10:02.496Z</time>
      </trkpt>
      <trkpt lat="68.18504" lon="19.79229">
        <ele>441.396611</ele>
        <time>2020-08-28T08:10:18.372Z</time>
      </trkpt>
      <trkpt lat="68.18397" lon="19.79423">
        <ele>441.366199</ele>
        <time>2020-08-28T08:10:38.682Z</time>
      </trkpt>
      <trkpt lat="68.18271" lon="19.79728">
        <ele>442.096575</ele>
        <time>2020-08-28T08:11:10.137Z</time>
      </trkpt>
      <trkpt lat="68.1814" lon="19.80173">
        <ele>445.214</ele>
        <time>2020-08-28T08:12:01.715Z</time>
      </trkpt>
      <trkpt lat="68.18085" lon="19.80321">
        <ele>446.465084</ele>
        <time>2020-08-28T08:12:18.928Z</time>
      </trkpt>
      <trkpt lat="68.18021" lon="19.80455">
        <ele>446.838295</ele>
        <time>2020-08-28T08:12:34.810Z</time>
      </trkpt>
      <trkpt lat="68.17983" lon="19.80519">
        <ele>447.044553</ele>
        <time>2020-08-28T08:12:42.985Z</time>
      </trkpt>
      <trkpt lat="68.17864" lon="19.80662">
        <ele>447.408924</ele>
        <time>2020-08-28T08:13:06.846Z</time>
      </trkpt>
      <trkpt lat="68.17724" lon="19.80762">
        <ele>447.470428</ele>
        <time>2020-08-28T08:13:33.722Z</time>
      </trkpt>
      <trkpt lat="68.17576" lon="19.80807">
        <ele>447.006331</ele>
        <time>2020-08-28T08:13:59.073Z</time>
      </trkpt>
      <trkpt lat="68.175" lon="19.80803">
        <ele>446.253458</ele>
        <time>2020-08-28T08:14:10.845Z</time>
      </trkpt>
      <trkpt lat="68.17435" lon="19.80784">
        <ele>445.592893</ele>
        <time>2020-08-28T08:14:20.894Z</time>
      </trkpt>
      <trkpt lat="68.1737" lon="19.80751">
        <ele>444.782782</ele>
        <time>2020-08-28T08:14:30.664Z</time>
      </trkpt>
      <trkpt lat="68.17255" lon="19.80641">
        <ele>443.126301</ele>
        <time>2020-08-28T08:14:48.748Z</time>
      </trkpt>
      <trkpt lat="68.172" lon="19.80566">
        <ele>442.379558</ele>
        <time>2020-08-28T08:14:57.999Z</time>
      </trkpt>
      <trkpt lat="68.17148" lon="19.80478">
        <ele>441.665881</ele>
        <time>2020-08-28T08:15:07.377Z</time>
      </trkpt>
      <trkpt lat="68.17085" lon="19.80351">
        <ele>440.817878</ele>
        <time>2020-08-28T08:15:19.435Z</time>
      </trkpt>
      <trkpt lat="68.17" lon="19.80125">
        <ele>440.428348</ele>
        <time>2020-08-28T08:15:38.677Z</time>
      </trkpt>
      <trkpt lat="68.16949" lon="19.79946">
        <ele>440.780634</ele>
        <time>2020-08-28T08:15:54.484Z</time>
      </trkpt>
      <trkpt lat="68.16758" lon="19.79067">
        <ele>448.335087</ele>
        <time>2020-08-28T08:17:28.643Z</time>
      </trkpt>
      <trkpt lat="68.16702" lon="19.78847">
        <ele>450.373524</ele>
        <time>2020-08-28T08:17:53.576Z</time>
      </trkpt>
      <trkpt lat="68.16641" lon="19.7865">
        <ele>451.356525</ele>
        <time>2020-08-28T08:18:14.704Z</time>
      </trkpt>
      <trkpt lat="68.16576" lon="19.78484">
        <ele>451.836058</ele>
        <time>2020-08-28T08:18:31.405Z</time>
      </trkpt>
      <trkpt lat="68.16471" lon="19.78273">
        <ele>451.781245</ele>
        <time>2020-08-28T08:18:52.823Z</time>
      </trkpt>
      <trkpt lat="68.16375" lon="19.78133">
        <ele>452.200461</ele>
        <time>2020-08-28T08:19:12.656Z</time>
      </trkpt>
      <trkpt lat="68.16283" lon="19.78035">
        <ele>453.799507</ele>
        <time>2020-08-28T08:19:35.157Z</time>
      </trkpt>
      <trkpt lat="68.162" lon="19.77965">
        <ele>455.870896</ele>
        <time>2020-08-28T08:19:58.591Z</time>
      </trkpt>
      <trkpt lat="68.15989" lon="19.77828">
        <ele>462.706482</ele>
        <time>2020-08-28T08:21:02.036Z</time>
      </trkpt>
      <trkpt lat="68.15715" lon="19.77705">
        <ele>469.55628</ele>
        <time>2020-08-28T08:22:12.581Z</time>
      </trkpt>
      <trkpt lat="68.15542" lon="19.77657">
        <ele>472.087721</ele>
        <time>2020-08-28T08:22:51.166Z</time>
      </trkpt>
      <trkpt lat="68.15412" lon="19.77636">
        <ele>473.448893</ele>
        <time>2020-08-28T08:23:18.750Z</time>
      </trkpt>
      <trkpt lat="68.15372" lon="19.77632">
        <ele>473.850617</ele>
        <time>2020-08-28T08:23:27.023Z</time>
      </trkpt>
      <trkpt lat="68.15332" lon="19.77634">
        <ele>474.270291</ele>
        <time>2020-08-28T08:23:35.231Z</time>
      </trkpt>
      <trkpt lat="68.15204" lon="19.77688">
        <ele>475.719452</ele>
        <time>2020-08-28T08:24:02.619Z</time>
      </trkpt>
      <trkpt lat="68.15139" lon="19.77731">
        <ele>476.895354</ele>
        <time>2020-08-28T08:24:17.709Z</time>
      </trkpt>
      <trkpt lat="68.15072" lon="19.778">
        <ele>478.531843</ele>
        <time>2020-08-28T08:24:35.669Z</time>
      </trkpt>
      <trkpt lat="68.1504" lon="19.77837">
        <ele>479.324391</ele>
        <time>2020-08-28T08:24:44.663Z</time>
      </trkpt>
      <trkpt lat="68.1502" lon="19.77864">
        <ele>479.828436</ele>
        <time>2020-08-28T08:24:50.485Z</time>
      </trkpt>
      <trkpt lat="68.14991" lon="19.77907">
        <ele>480.662623</ele>
        <time>2020-08-28T08:24:59.949Z</time>
      </trkpt>
      <trkpt lat="68.14896" lon="19.7806">
        <ele>483.678462</ele>
        <time>2020-08-28T08:25:30.638Z</time>
      </trkpt>
      <trkpt lat="68.1488" lon="19.78095">
        <ele>484.255084</ele>
        <time>2020-08-28T08:25:36.495Z</time>
      </trkpt>
      <trkpt lat="68.14856" lon="19.78142">
        <ele>485.059766</ele>
        <time>2020-08-28T08:25:43.594Z</time>
      </trkpt>
      <trkpt lat="68.14793" lon="19.78286">
        <ele>485.691895</ele>
        <time>2020-08-28T08:26:01.946Z</time>
      </trkpt>
      <trkpt lat="68.14699" lon="19.78539">
        <ele>486.270213</ele>
        <time>2020-08-28T08:26:25.828Z</time>
      </trkpt>
      <trkpt lat="68.14261" lon="19.79945">
        <ele>483.369548</ele>
        <time>2020-08-28T08:28:18.812Z</time>
      </trkpt>
      <trkpt lat="68.14153" lon="19.80246">
        <ele>483.669579</ele>
        <time>2020-08-28T08:28:47.765Z</time>
      </trkpt>
      <trkpt lat="68.14107" lon="19.80366">
        <ele>483.784187</ele>
        <time>2020-08-28T08:29:00.163Z</time>
      </trkpt>
      <trkpt lat="68.13999" lon="19.8058">
        <ele>484.006167</ele>
        <time>2020-08-28T08:29:24.822Z</time>
      </trkpt>
      <trkpt lat="68.13873" lon="19.80762">
        <ele>483.773199</ele>
        <time>2020-08-28T08:29:49.297Z</time>
      </trkpt>
      <trkpt lat="68.13716" lon="19.80926">
        <ele>483.56281</ele>
        <time>2020-08-28T08:30:18.372Z</time>
      </trkpt>
      <trkpt lat="68.1354" lon="19.81026">
        <ele>483.863459</ele>
        <time>2020-08-28T08:30:51.564Z</time>
      </trkpt>
      <trkpt lat="68.12809" lon="19.81144">
        <ele>487.676459</ele>
        <time>2020-08-28T08:33:15.011Z</time>
      </trkpt>
      <trkpt lat="68.12638" lon="19.81244">
        <ele>488.171459</ele>
        <time>2020-08-28T08:33:47.562Z</time>
      </trkpt>
      <trkpt lat="68.1247" lon="19.81404">
        <ele>488.494666</ele>
        <time>2020-08-28T08:34:20.334Z</time>
      </trkpt>
      <trkpt lat="68.12301" lon="19.8164">
        <ele>488.75812</ele>
        <time>2020-08-28T08:34:55.358Z</time>
      </trkpt>
      <trkpt lat="68.11887" lon="19.82363">
        <ele>488.956499</ele>
        <time>2020-08-28T08:36:24.060Z</time>
      </trkpt>
      <trkpt lat="68.11577" lon="19.82818">
        <ele>488.772493</ele>
        <time>2020-08-28T08:37:26.794Z</time>
      </trkpt>
      <trkpt lat="68.11558" lon="19.82843">
        <ele>488.754189</ele>
        <time>2020-08-28T08:37:30.485Z</time>
      </trkpt>
      <trkpt lat="68.11202" lon="19.83319">
        <ele>488.234904</ele>
        <time>2020-08-28T08:38:39.565Z</time>
      </trkpt>
      <trkpt lat="68.11007" lon="19.83537">
        <ele>488.110698</ele>
        <time>2020-08-28T08:39:16.882Z</time>
      </trkpt>
      <trkpt lat="68.10658" lon="19.83874">
        <ele>488.124227</ele>
        <time>2020-08-28T08:40:23.204Z</time>
      </trkpt>
      <trkpt lat="68.10443" lon="19.84042">
        <ele>488.349039</ele>
        <time>2020-08-28T08:41:04.067Z</time>
      </trkpt>
      <trkpt lat="68.10207" lon="19.84146">
        <ele>488.754931</ele>
        <time>2020-08-28T08:41:48.175Z</time>
      </trkpt>
      <trkpt lat="68.10013" lon="19.84183">
        <ele>488.95882</ele>
        <time>2020-08-28T08:42:23.339Z</time>
      </trkpt>
      <trkpt lat="68.09774" lon="19.84151">
        <ele>488.999996</ele>
        <time>2020-08-28T08:43:06.175Z</time>
      </trkpt>
      <trkpt lat="68.09521" lon="19.84074">
        <ele>488.94297</ele>
        <time>2020-08-28T08:43:51.455Z</time>
      </trkpt>
      <trkpt lat="68.09289" lon="19.83969">
        <ele>488.657069</ele>
        <time>2020-08-28T08:44:32.695Z</time>
      </trkpt>
      <trkpt lat="68.0909" lon="19.83842">
        <ele>488.240687</ele>
        <time>2020-08-28T08:45:07.669Z</time>
      </trkpt>
      <trkpt lat="68.08701" lon="19.83532">
        <ele>487.936544</ele>
        <time>2020-08-28T08:46:18.760Z</time>
      </trkpt>
      <trkpt lat="68.08481" lon="19.83419">
        <ele>488.440305</ele>
        <time>2020-08-28T08:47:01.062Z</time>
      </trkpt>
      <trkpt lat="68.08255" lon="19.8335">
        <ele>488.786605</ele>
        <time>2020-08-28T08:47:42.922Z</time>
      </trkpt>
      <trkpt lat="68.08055" lon="19.83328">
        <ele>488.638381</ele>
        <time>2020-08-28T08:48:18.201Z</time>
      </trkpt>
      <trkpt lat="68.07757" lon="19.83353">
        <ele>487.868563</ele>
        <time>2020-08-28T08:49:08.937Z</time>
      </trkpt>
      <trkpt lat="68.07716" lon="19.83352">
        <ele>487.744377</ele>
        <time>2020-08-28T08:49:15.797Z</time>
      </trkpt>
      <trkpt lat="68.07691" lon="19.8335">
        <ele>487.66767</ele>
        <time>2020-08-28T08:49:20.038Z</time>
      </trkpt>
      <trkpt lat="68.0761" lon="19.83328">
        <ele>487.450828</ele>
        <time>2020-08-28T08:49:34.018Z</time>
      </trkpt>
      <trkpt lat="68.07526" lon="19.83288">
        <ele>487.251361</ele>
        <time>2020-08-28T08:49:48.531Z</time>
      </trkpt>
      <trkpt lat="68.07443" lon="19.83228">
        <ele>487.063955</ele>
        <time>2020-08-28T08:50:03.376Z</time>
      </trkpt>
      <trkpt lat="68.0737" lon="19.83156">
        <ele>486.907533</ele>
        <time>2020-08-28T08:50:17.022Z</time>
      </trkpt>
      <trkpt lat="68.07176" lon="19.82929">
        <ele>486.442886</ele>
        <time>2020-08-28T08:50:53.323Z</time>
      </trkpt>
      <trkpt lat="68.07133" lon="19.8288">
        <ele>486.336495</ele>
        <time>2020-08-28T08:51:01.310Z</time>
      </trkpt>
      <trkpt lat="68.07022" lon="19.82763">
        <ele>486.072307</ele>
        <time>2020-08-28T08:51:21.638Z</time>
      </trkpt>
      <trkpt lat="68.06906" lon="19.82662">
        <ele>486.003873</ele>
        <time>2020-08-28T08:51:42.941Z</time>
      </trkpt>
      <trkpt lat="68.06755" lon="19.82568">
        <ele>486.186173</ele>
        <time>2020-08-28T08:52:11.457Z</time>
      </trkpt>
      <trkpt lat="68.06707" lon="19.82546">
        <ele>486.31894</ele>
        <time>2020-08-28T08:52:20.676Z</time>
      </trkpt>
      <trkpt lat="68.06659" lon="19.82527">
        <ele>486.452194</ele>
        <time>2020-08-28T08:52:29.927Z</time>
      </trkpt>
      <trkpt lat="68.06556" lon="19.82494">
        <ele>486.487203</ele>
        <time>2020-08-28T08:52:48.976Z</time>
      </trkpt>
      <trkpt lat="68.06364" lon="19.82473">
        <ele>486.070636</ele>
        <time>2020-08-28T08:53:21.831Z</time>
      </trkpt>
      <trkpt lat="68.06146" lon="19.8251">
        <ele>485.137385</ele>
        <time>2020-08-28T08:53:57.638Z</time>
      </trkpt>
      <trkpt lat="68.05957" lon="19.82585">
        <ele>484.943325</ele>
        <time>2020-08-28T08:54:30.668Z</time>
      </trkpt>
      <trkpt lat="68.05423" lon="19.82908">
        <ele>488.386106</ele>
        <time>2020-08-28T08:56:20.462Z</time>
      </trkpt>
      <trkpt lat="68.05166" lon="19.83015">
        <ele>490.201723</ele>
        <time>2020-08-28T08:57:12.349Z</time>
      </trkpt>
      <trkpt lat="68.04928" lon="19.83057">
        <ele>491.977391</ele>
        <time>2020-08-28T08:58:01.878Z</time>
      </trkpt>
      <trkpt lat="68.04724" lon="19.83057">
        <ele>492.350521</ele>
        <time>2020-08-28T08:58:39.667Z</time>
      </trkpt>
      <trkpt lat="68.04458" lon="19.83011">
        <ele>490.917868</ele>
        <time>2020-08-28T08:59:22.462Z</time>
      </trkpt>
      <trkpt lat="68.04252" lon="19.8302">
        <ele>489.78905</ele>
        <time>2020-08-28T08:59:55.911Z</time>
      </trkpt>
      <trkpt lat="68.04028" lon="19.83113">
        <ele>489.489453</ele>
        <time>2020-08-28T09:00:35.295Z</time>
      </trkpt>
      <trkpt lat="68.03345" lon="19.83558">
        <ele>491.715994</ele>
        <time>2020-08-28T09:02:51.708Z</time>
      </trkpt>
      <trkpt lat="68.03107" lon="19.83688">
        <ele>488.952129</ele>
        <time>2020-08-28T09:03:27.531Z</time>
      </trkpt>
      <trkpt lat="68.02876" lon="19.83768">
        <ele>485.296336</ele>
        <time>2020-08-28T09:04:01.319Z</time>
      </trkpt>
      <trkpt lat="68.02675" lon="19.83796">
        <ele>482.630901</ele>
        <time>2020-08-28T09:04:31.460Z</time>
      </trkpt>
      <trkpt lat="68.02456" lon="19.83759">
        <ele>480.53408</ele>
        <time>2020-08-28T09:05:05.443Z</time>
      </trkpt>
      <trkpt lat="68.02313" lon="19.83751">
        <ele>479.814241</ele>
        <time>2020-08-28T09:05:28.897Z</time>
      </trkpt>
      <trkpt lat="68.02298" lon="19.83749">
        <ele>479.80222</ele>
        <time>2020-08-28T09:05:31.506Z</time>
      </trkpt>
      <trkpt lat="68.02029" lon="19.83768">
        <ele>479.881418</ele>
        <time>2020-08-28T09:06:20.874Z</time>
      </trkpt>
      <trkpt lat="68.01819" lon="19.83843">
        <ele>479.390023</ele>
        <time>2020-08-28T09:06:57.579Z</time>
      </trkpt>
      <trkpt lat="68.01571" lon="19.83974">
        <ele>477.189379</ele>
        <time>2020-08-28T09:07:36.684Z</time>
      </trkpt>
      <trkpt lat="68.01331" lon="19.84156">
        <ele>475.760509</ele>
        <time>2020-08-28T09:08:17.185Z</time>
      </trkpt>
      <trkpt lat="68.01069" lon="19.84413">
        <ele>476.033161</ele>
        <time>2020-08-28T09:09:08.760Z</time>
      </trkpt>
      <trkpt lat="68.0089" lon="19.84628">
        <ele>476.367465</ele>
        <time>2020-08-28T09:09:45.277Z</time>
      </trkpt>
      <trkpt lat="68.00668" lon="19.84937">
        <ele>476.335264</ele>
        <time>2020-08-28T09:10:29.669Z</time>
      </trkpt>
      <trkpt lat="68.00461" lon="19.85273">
        <ele>475.874529</ele>
        <time>2020-08-28T09:11:11.197Z</time>
      </trkpt>
      <trkpt lat="68.00263" lon="19.85647">
        <ele>475.498757</ele>
        <time>2020-08-28T09:11:54.181Z</time>
      </trkpt>
      <trkpt lat="68.00088" lon="19.86013">
        <ele>474.298773</ele>
        <time>2020-08-28T09:12:30.967Z</time>
      </trkpt>
      <trkpt lat="67.99847" lon="19.86629">
        <ele>470.062342</ele>
        <time>2020-08-28T09:13:20.814Z</time>
      </trkpt>
      <trkpt lat="67.99756" lon="19.86884">
        <ele>468.293567</ele>
        <time>2020-08-28T09:13:40.399Z</time>
      </trkpt>
      <trkpt lat="67.9962" lon="19.87321">
        <ele>465.668315</ele>
        <time>2020-08-28T09:14:12.427Z</time>
      </trkpt>
      <trkpt lat="67.99575" lon="19.87517">
        <ele>464.705895</ele>
        <time>2020-08-28T09:14:25.665Z</time>
      </trkpt>
      <trkpt lat="67.99548" lon="19.87672">
        <ele>464.221036</ele>
        <time>2020-08-28T09:14:35.793Z</time>
      </trkpt>
      <trkpt lat="67.99523" lon="19.87834">
        <ele>463.726992</ele>
        <time>2020-08-28T09:14:46.333Z</time>
      </trkpt>
      <trkpt lat="67.99511" lon="19.87921">
        <ele>463.464174</ele>
        <time>2020-08-28T09:14:52.037Z</time>
      </trkpt>
      <trkpt lat="67.99487" lon="19.88167">
        <ele>463.064491</ele>
        <time>2020-08-28T09:15:07.897Z</time>
      </trkpt>
      <trkpt lat="67.99474" lon="19.8835">
        <ele>462.789715</ele>
        <time>2020-08-28T09:15:19.658Z</time>
      </trkpt>
      <trkpt lat="67.99469" lon="19.88486">
        <ele>462.593809</ele>
        <time>2020-08-28T09:15:28.290Z</time>
      </trkpt>
      <trkpt lat="67.9947" lon="19.88918">
        <ele>461.992625</ele>
        <time>2020-08-28T09:15:55.479Z</time>
      </trkpt>
      <trkpt lat="67.99488" lon="19.89306">
        <ele>461.439363</ele>
        <time>2020-08-28T09:16:20.104Z</time>
      </trkpt>
      <trkpt lat="67.99494" lon="19.895">
        <ele>461.22273</ele>
        <time>2020-08-28T09:16:32.487Z</time>
      </trkpt>
      <trkpt lat="67.99495" lon="19.89687">
        <ele>461.039052</ele>
        <time>2020-08-28T09:16:44.395Z</time>
      </trkpt>
      <trkpt lat="67.99479" lon="19.90083">
        <ele>460.755793</ele>
        <time>2020-08-28T09:17:10.331Z</time>
      </trkpt>
      <trkpt lat="67.99441" lon="19.90419">
        <ele>460.585488</ele>
        <time>2020-08-28T09:17:33.245Z</time>
      </trkpt>
      <trkpt lat="67.99408" lon="19.90628">
        <ele>460.497158</ele>
        <time>2020-08-28T09:17:48.118Z</time>
      </trkpt>
      <trkpt lat="67.99365" lon="19.90842">
        <ele>460.394361</ele>
        <time>2020-08-28T09:18:04.100Z</time>
      </trkpt>
      <trkpt lat="67.99279" lon="19.91256">
        <ele>460.098832</ele>
        <time>2020-08-28T09:18:35.281Z</time>
      </trkpt>
      <trkpt lat="67.99084" lon="19.92193">
        <ele>458.335703</ele>
        <time>2020-08-28T09:19:42.558Z</time>
      </trkpt>
      <trkpt lat="67.99078" lon="19.92219">
        <ele>458.253165</ele>
        <time>2020-08-28T09:19:44.140Z</time>
      </trkpt>
      <trkpt lat="67.99034" lon="19.92425">
        <ele>457.60703</ele>
        <time>2020-08-28T09:19:57.994Z</time>
      </trkpt>
      <trkpt lat="67.99022" lon="19.92484">
        <ele>457.655968</ele>
        <time>2020-08-28T09:20:01.925Z</time>
      </trkpt>
      <trkpt lat="67.99001" lon="19.92586">
        <ele>457.765526</ele>
        <time>2020-08-28T09:20:09.129Z</time>
      </trkpt>
      <trkpt lat="67.9888" lon="19.93129">
        <ele>459.096337</ele>
        <time>2020-08-28T09:20:57.827Z</time>
      </trkpt>
      <trkpt lat="67.98824" lon="19.93328">
        <ele>459.812033</ele>
        <time>2020-08-28T09:21:17.112Z</time>
      </trkpt>
      <trkpt lat="67.98764" lon="19.93512">
        <ele>460.420841</ele>
        <time>2020-08-28T09:21:35.424Z</time>
      </trkpt>
      <trkpt lat="67.9864" lon="19.93828">
        <ele>461.314103</ele>
        <time>2020-08-28T09:22:08.977Z</time>
      </trkpt>
      <trkpt lat="67.98512" lon="19.94066">
        <ele>461.823094</ele>
        <time>2020-08-28T09:22:38.483Z</time>
      </trkpt>
      <trkpt lat="67.98339" lon="19.94306">
        <ele>462.170433</ele>
        <time>2020-08-28T09:23:14.025Z</time>
      </trkpt>
      <trkpt lat="67.98011" lon="19.94623">
        <ele>462.783544</ele>
        <time>2020-08-28T09:24:17.299Z</time>
      </trkpt>
      <trkpt lat="67.97834" lon="19.94832">
        <ele>464.212937</ele>
        <time>2020-08-28T09:24:56.441Z</time>
      </trkpt>
      <trkpt lat="67.97723" lon="19.94982">
        <ele>465.827389</ele>
        <time>2020-08-28T09:25:24.245Z</time>
      </trkpt>
      <trkpt lat="67.97357" lon="19.95552">
        <ele>472.390101</ele>
        <time>2020-08-28T09:27:02.829Z</time>
      </trkpt>
      <trkpt lat="67.97071" lon="19.96066">
        <ele>474.964692</ele>
        <time>2020-08-28T09:28:11.752Z</time>
      </trkpt>
      <trkpt lat="67.96848" lon="19.96516">
        <ele>475.786526</ele>
        <time>2020-08-28T09:29:04.602Z</time>
      </trkpt>
      <trkpt lat="67.96717" lon="19.96815">
        <ele>475.039449</ele>
        <time>2020-08-28T09:29:32.923Z</time>
      </trkpt>
      <trkpt lat="67.96637" lon="19.97058">
        <ele>474.168682</ele>
        <time>2020-08-28T09:29:52.033Z</time>
      </trkpt>
      <trkpt lat="67.9653" lon="19.97475">
        <ele>473.303834</ele>
        <time>2020-08-28T09:30:23.048Z</time>
      </trkpt>
      <trkpt lat="67.96473" lon="19.9767">
        <ele>473.548742</ele>
        <time>2020-08-28T09:30:40.386Z</time>
      </trkpt>
      <trkpt lat="67.96348" lon="19.9803">
        <ele>474.656509</ele>
        <time>2020-08-28T09:31:17.897Z</time>
      </trkpt>
      <trkpt lat="67.96284" lon="19.98277">
        <ele>475.438727</ele>
        <time>2020-08-28T09:31:40.398Z</time>
      </trkpt>
      <trkpt lat="67.96228" lon="19.98532">
        <ele>475.916498</ele>
        <time>2020-08-28T09:32:01.776Z</time>
      </trkpt>
      <trkpt lat="67.96113" lon="19.99245">
        <ele>476.686557</ele>
        <time>2020-08-28T09:32:56.683Z</time>
      </trkpt>
      <trkpt lat="67.9605" lon="19.99548">
        <ele>476.540501</ele>
        <time>2020-08-28T09:33:19.319Z</time>
      </trkpt>
      <trkpt lat="67.95991" lon="19.99775">
        <ele>475.615769</ele>
        <time>2020-08-28T09:33:35.896Z</time>
      </trkpt>
      <trkpt lat="67.95885" lon="20.00079">
        <ele>473.860216</ele>
        <time>2020-08-28T09:33:59.271Z</time>
      </trkpt>
      <trkpt lat="67.95716" lon="20.0048">
        <ele>471.204322</ele>
        <time>2020-08-28T09:34:32.964Z</time>
      </trkpt>
      <trkpt lat="67.95575" lon="20.00856">
        <ele>470.15119</ele>
        <time>2020-08-28T09:35:06.419Z</time>
      </trkpt>
      <trkpt lat="67.95465" lon="20.012">
        <ele>470.04712</ele>
        <time>2020-08-28T09:35:36.791Z</time>
      </trkpt>
      <trkpt lat="67.95344" lon="20.01625">
        <ele>470.152161</ele>
        <time>2020-08-28T09:36:13.243Z</time>
      </trkpt>
      <trkpt lat="67.95226" lon="20.02104">
        <ele>469.837718</ele>
        <time>2020-08-28T09:36:51.059Z</time>
      </trkpt>
      <trkpt lat="67.94906" lon="20.03549">
        <ele>463.394133</ele>
        <time>2020-08-28T09:38:27.795Z</time>
      </trkpt>
      <trkpt lat="67.94763" lon="20.04067">
        <ele>461.640338</ele>
        <time>2020-08-28T09:39:06.747Z</time>
      </trkpt>
      <trkpt lat="67.94599" lon="20.04613">
        <ele>460.597812</ele>
        <time>2020-08-28T09:39:49.888Z</time>
      </trkpt>
      <trkpt lat="67.94534" lon="20.04788">
        <ele>460.689353</ele>
        <time>2020-08-28T09:40:07.067Z</time>
      </trkpt>
      <trkpt lat="67.94455" lon="20.05002">
        <ele>461.394031</ele>
        <time>2020-08-28T09:40:30.213Z</time>
      </trkpt>
      <trkpt lat="67.94341" lon="20.05257">
        <ele>462.359009</ele>
        <time>2020-08-28T09:41:00.703Z</time>
      </trkpt>
      <trkpt lat="67.94224" lon="20.05451">
        <ele>462.825344</ele>
        <time>2020-08-28T09:41:26.519Z</time>
      </trkpt>
      <trkpt lat="67.94073" lon="20.0565">
        <ele>462.416623</ele>
        <time>2020-08-28T09:41:54.889Z</time>
      </trkpt>
      <trkpt lat="67.93713" lon="20.06029">
        <ele>461.343976</ele>
        <time>2020-08-28T09:43:00.842Z</time>
      </trkpt>
      <trkpt lat="67.93584" lon="20.06187">
        <ele>461.086592</ele>
        <time>2020-08-28T09:43:25.553Z</time>
      </trkpt>
      <trkpt lat="67.93457" lon="20.0638">
        <ele>460.749199</ele>
        <time>2020-08-28T09:43:50.876Z</time>
      </trkpt>
      <trkpt lat="67.93375" lon="20.06516">
        <ele>460.380235</ele>
        <time>2020-08-28T09:44:07.080Z</time>
      </trkpt>
      <trkpt lat="67.93223" lon="20.06796">
        <ele>459.338871</ele>
        <time>2020-08-28T09:44:37.193Z</time>
      </trkpt>
      <trkpt lat="67.93068" lon="20.07138">
        <ele>458.141008</ele>
        <time>2020-08-28T09:45:09.490Z</time>
      </trkpt>
      <trkpt lat="67.92841" lon="20.07638">
        <ele>457.213066</ele>
        <time>2020-08-28T09:46:00.108Z</time>
      </trkpt>
      <trkpt lat="67.92695" lon="20.07917">
        <ele>456.312522</ele>
        <time>2020-08-28T09:46:29.725Z</time>
      </trkpt>
      <trkpt lat="67.92537" lon="20.0816">
        <ele>454.954396</ele>
        <time>2020-08-28T09:46:58.769Z</time>
      </trkpt>
      <trkpt lat="67.92374" lon="20.08365">
        <ele>453.961555</ele>
        <time>2020-08-28T09:47:27.863Z</time>
      </trkpt>
      <trkpt lat="67.92319" lon="20.08436">
        <ele>454.11275</ele>
        <time>2020-08-28T09:47:38.639Z</time>
      </trkpt>
      <trkpt lat="67.92308" lon="20.08452">
        <ele>454.145263</ele>
        <time>2020-08-28T09:47:41.049Z</time>
      </trkpt>
      <trkpt lat="67.92249" lon="20.08523">
        <ele>454.306527</ele>
        <time>2020-08-28T09:47:53.517Z</time>
      </trkpt>
      <trkpt lat="67.91823" lon="20.09063">
        <ele>459.171837</ele>
        <time>2020-08-28T09:49:34.619Z</time>
      </trkpt>
      <trkpt lat="67.91636" lon="20.09342">
        <ele>461.062909</ele>
        <time>2020-08-28T09:50:18.685Z</time>
      </trkpt>
      <trkpt lat="67.914" lon="20.09747">
        <ele>463.042629</ele>
        <time>2020-08-28T09:51:15.330Z</time>
      </trkpt>
      <trkpt lat="67.91086" lon="20.10379">
        <ele>464.540842</ele>
        <time>2020-08-28T09:52:29.920Z</time>
      </trkpt>
      <trkpt lat="67.90963" lon="20.10589">
        <ele>465.188173</ele>
        <time>2020-08-28T09:52:58.019Z</time>
      </trkpt>
      <trkpt lat="67.90785" lon="20.10848">
        <ele>466.514144</ele>
        <time>2020-08-28T09:53:38.386Z</time>
      </trkpt>
      <trkpt lat="67.90456" lon="20.11265">
        <ele>469.698715</ele>
        <time>2020-08-28T09:54:53.794Z</time>
      </trkpt>
      <trkpt lat="67.9027" lon="20.11529">
        <ele>471.711104</ele>
        <time>2020-08-28T09:55:37.644Z</time>
      </trkpt>
      <trkpt lat="67.90072" lon="20.11861">
        <ele>474.133009</ele>
        <time>2020-08-28T09:56:28.147Z</time>
      </trkpt>
      <trkpt lat="67.89534" lon="20.12857">
        <ele>478.372756</ele>
        <time>2020-08-28T09:58:37.840Z</time>
      </trkpt>
      <trkpt lat="67.89415" lon="20.12985">
        <ele>479.245617</ele>
        <time>2020-08-28T09:59:03.863Z</time>
      </trkpt>
      <trkpt lat="67.89334" lon="20.13049">
        <ele>479.801715</ele>
        <time>2020-08-28T09:59:20.949Z</time>
      </trkpt>
      <trkpt lat="67.89072" lon="20.13172">
        <ele>481.152177</ele>
        <time>2020-08-28T10:00:12.718Z</time>
      </trkpt>
      <trkpt lat="67.88925" lon="20.13279">
        <ele>481.761714</ele>
        <time>2020-08-28T10:00:41.486Z</time>
      </trkpt>
      <trkpt lat="67.88854" lon="20.13352">
        <ele>482.32267</ele>
        <time>2020-08-28T10:00:56.299Z</time>
      </trkpt>
      <trkpt lat="67.88773" lon="20.13453">
        <ele>482.985422</ele>
        <time>2020-08-28T10:01:14.784Z</time>
      </trkpt>
      <trkpt lat="67.88682" lon="20.13586">
        <ele>484.184437</ele>
        <time>2020-08-28T10:01:37.314Z</time>
      </trkpt>
      <trkpt lat="67.88599" lon="20.13722">
        <ele>485.315383</ele>
        <time>2020-08-28T10:01:58.810Z</time>
      </trkpt>
      <trkpt lat="67.88519" lon="20.13871">
        <ele>486.24875</ele>
        <time>2020-08-28T10:02:19.761Z</time>
      </trkpt>
      <trkpt lat="67.88401" lon="20.14123">
        <ele>487.419768</ele>
        <time>2020-08-28T10:02:49.767Z</time>
      </trkpt>
      <trkpt lat="67.88337" lon="20.14282">
        <ele>487.969303</ele>
        <time>2020-08-28T10:03:06.868Z</time>
      </trkpt>
      <trkpt lat="67.88285" lon="20.14456">
        <ele>488.792889</ele>
        <time>2020-08-28T10:03:23.964Z</time>
      </trkpt>
      <trkpt lat="67.88248" lon="20.14617">
        <ele>489.523813</ele>
        <time>2020-08-28T10:03:39.149Z</time>
      </trkpt>
      <trkpt lat="67.88231" lon="20.14714">
        <ele>489.964247</ele>
        <time>2020-08-28T10:03:48.088Z</time>
      </trkpt>
      <trkpt lat="67.88134" lon="20.15508">
        <ele>495.007519</ele>
        <time>2020-08-28T10:05:00.455Z</time>
      </trkpt>
      <trkpt lat="67.88108" lon="20.15655">
        <ele>495.989305</ele>
        <time>2020-08-28T10:05:14.919Z</time>
      </trkpt>
      <trkpt lat="67.88071" lon="20.15821">
        <ele>497.089856</ele>
        <time>2020-08-28T10:05:31.848Z</time>
      </trkpt>
      <trkpt lat="67.88061" lon="20.15862">
        <ele>497.374861</ele>
        <time>2020-08-28T10:05:36.366Z</time>
      </trkpt>
      <trkpt lat="67.88001" lon="20.16082">
        <ele>498.561007</ele>
        <time>2020-08-28T10:05:58.383Z</time>
      </trkpt>
      <trkpt lat="67.87901" lon="20.16426">
        <ele>499.248295</ele>
        <time>2020-08-28T10:06:28.908Z</time>
      </trkpt>
      <trkpt lat="67.87863" lon="20.16571">
        <ele>499.34908</ele>
        <time>2020-08-28T10:06:40.853Z</time>
      </trkpt>
      <trkpt lat="67.87837" lon="20.16684">
        <ele>499.424458</ele>
        <time>2020-08-28T10:06:49.942Z</time>
      </trkpt>
      <trkpt lat="67.87829" lon="20.16721">
        <ele>499.449107</ele>
        <time>2020-08-28T10:06:52.920Z</time>
      </trkpt>
      <trkpt lat="67.87818" lon="20.16782">
        <ele>499.487921</ele>
        <time>2020-08-28T10:06:57.697Z</time>
      </trkpt>
      <trkpt lat="67.87789" lon="20.16952">
        <ele>499.778964</ele>
        <time>2020-08-28T10:07:11.016Z</time>
      </trkpt>
      <trkpt lat="67.87761" lon="20.17179">
        <ele>500.16458</ele>
        <time>2020-08-28T10:07:28.513Z</time>
      </trkpt>
      <trkpt lat="67.87741" lon="20.17433">
        <ele>500.753483</ele>
        <time>2020-08-28T10:07:47.813Z</time>
      </trkpt>
      <trkpt lat="67.87734" lon="20.17664">
        <ele>501.326562</ele>
        <time>2020-08-28T10:08:05.319Z</time>
      </trkpt>
      <trkpt lat="67.87734" lon="20.17737">
        <ele>501.518032</ele>
        <time>2020-08-28T10:08:10.912Z</time>
      </trkpt>
      <trkpt lat="67.87734" lon="20.17834">
        <ele>501.802554</ele>
        <time>2020-08-28T10:08:18.364Z</time>
      </trkpt>
      <trkpt lat="67.87735" lon="20.17918">
        <ele>502.047907</ele>
        <time>2020-08-28T10:08:24.800Z</time>
      </trkpt>
      <trkpt lat="67.87737" lon="20.18031">
        <ele>502.379729</ele>
        <time>2020-08-28T10:08:33.552Z</time>
      </trkpt>
      <trkpt lat="67.87737" lon="20.18381">
        <ele>503.095391</ele>
        <time>2020-08-28T10:09:00.230Z</time>
      </trkpt>
      <trkpt lat="67.87728" lon="20.18542">
        <ele>503.308689</ele>
        <time>2020-08-28T10:09:11.445Z</time>
      </trkpt>
      <trkpt lat="67.87708" lon="20.18762">
        <ele>503.51235</ele>
        <time>2020-08-28T10:09:26.656Z</time>
      </trkpt>
      <trkpt lat="67.87707" lon="20.18764">
        <ele>503.513484</ele>
        <time>2020-08-28T10:09:26.802Z</time>
      </trkpt>
      <trkpt lat="67.87705" lon="20.18762">
        <ele>503.515873</ele>
        <time>2020-08-28T10:09:27.137Z</time>
      </trkpt>
      <trkpt lat="67.87692" lon="20.18767">
        <ele>503.529588</ele>
        <time>2020-08-28T10:09:29.549Z</time>
      </trkpt>
      <trkpt lat="67.87682" lon="20.18791">
        <ele>503.543327</ele>
        <time>2020-08-28T10:09:32.075Z</time>
      </trkpt>
      <trkpt lat="67.87681" lon="20.18802">
        <ele>503.547975</ele>
        <time>2020-08-28T10:09:32.829Z</time>
      </trkpt>
      <trkpt lat="67.8767" lon="20.18801">
        <ele>503.559504</ele>
        <time>2020-08-28T10:09:34.651Z</time>
      </trkpt>
      <trkpt lat="67.87627" lon="20.1887">
        <ele>503.611072</ele>
        <time>2020-08-28T10:09:43.973Z</time>
      </trkpt>
      <trkpt lat="67.87616" lon="20.1891">
        <ele>503.63065</ele>
        <time>2020-08-28T10:09:47.378Z</time>
      </trkpt>
      <trkpt lat="67.87596" lon="20.19051">
        <ele>503.658776</ele>
        <time>2020-08-28T10:09:58.261Z</time>
      </trkpt>
      <trkpt lat="67.87572" lon="20.19265">
        <ele>503.657055</ele>
        <time>2020-08-28T10:10:13.404Z</time>
      </trkpt>
      <trkpt lat="67.8756" lon="20.19346">
        <ele>503.65638</ele>
        <time>2020-08-28T10:10:19.232Z</time>
      </trkpt>
      <trkpt lat="67.87528" lon="20.19249">
        <ele>503.627032</ele>
        <time>2020-08-28T10:10:27.725Z</time>
      </trkpt>
      <trkpt lat="67.87501" lon="20.19186">
        <ele>503.555867</ele>
        <time>2020-08-28T10:10:34.056Z</time>
      </trkpt>
      <trkpt lat="67.87475" lon="20.19155">
        <ele>503.497756</ele>
        <time>2020-08-28T10:10:39.321Z</time>
      </trkpt>
      <trkpt lat="67.87404" lon="20.19167">
        <ele>503.356044</ele>
        <time>2020-08-28T10:10:51.737Z</time>
      </trkpt>
      <trkpt lat="67.87365" lon="20.19246">
        <ele>503.341897</ele>
        <time>2020-08-28T10:11:00.876Z</time>
      </trkpt>
      <trkpt lat="67.87348" lon="20.19275">
        <ele>503.390756</ele>
        <time>2020-08-28T10:11:04.886Z</time>
      </trkpt>
      <trkpt lat="67.87319" lon="20.19328">
        <ele>503.474573</ele>
        <time>2020-08-28T10:11:11.772Z</time>
      </trkpt>
      <trkpt lat="67.87317" lon="20.19331">
        <ele>503.480101</ele>
        <time>2020-08-28T10:11:12.210Z</time>
      </trkpt>
      <trkpt lat="67.87278" lon="20.19399">
        <ele>503.591364</ele>
        <time>2020-08-28T10:11:21.505Z</time>
      </trkpt>
      <trkpt lat="67.87176" lon="20.19545">
        <ele>503.653064</ele>
        <time>2020-08-28T10:11:44.040Z</time>
      </trkpt>
      <trkpt lat="67.87035" lon="20.19748">
        <ele>503.27926</ele>
        <time>2020-08-28T10:12:12.350Z</time>
      </trkpt>
      <trkpt lat="67.86989" lon="20.19809">
        <ele>502.988142</ele>
        <time>2020-08-28T10:12:21.053Z</time>
      </trkpt>
      <trkpt lat="67.86916" lon="20.19896">
        <ele>502.532999</ele>
        <time>2020-08-28T10:12:34.524Z</time>
      </trkpt>
      <trkpt lat="67.86854" lon="20.1996">
        <ele>502.479222</ele>
        <time>2020-08-28T10:12:45.791Z</time>
      </trkpt>
      <trkpt lat="67.86851" lon="20.19963">
        <ele>502.478691</ele>
        <time>2020-08-28T10:12:46.431Z</time>
      </trkpt>
      <trkpt lat="67.86822" lon="20.19986">
        <ele>502.474506</ele>
        <time>2020-08-28T10:12:51.915Z</time>
      </trkpt>
      <trkpt lat="67.86818" lon="20.19965">
        <ele>502.473297</ele>
        <time>2020-08-28T10:12:53.895Z</time>
      </trkpt>
      <trkpt lat="67.86757" lon="20.2003">
        <ele>502.4643</ele>
        <time>2020-08-28T10:13:05.857Z</time>
      </trkpt>
      <trkpt lat="67.86747" lon="20.20041">
        <ele>502.462773</ele>
        <time>2020-08-28T10:13:07.945Z</time>
      </trkpt>
      <trkpt lat="67.86739" lon="20.20062">
        <ele>502.657858</ele>
        <time>2020-08-28T10:13:10.373Z</time>
      </trkpt>
      <trkpt lat="67.86725" lon="20.20099">
        <ele>503.089362</ele>
        <time>2020-08-28T10:13:14.551Z</time>
      </trkpt>
      <trkpt lat="67.86721" lon="20.20138">
        <ele>503.434231</ele>
        <time>2020-08-28T10:13:18.501Z</time>
      </trkpt>
      <trkpt lat="67.86714" lon="20.2015">
        <ele>503.602242</ele>
        <time>2020-08-28T10:13:20.105Z</time>
      </trkpt>
      <trkpt lat="67.86706" lon="20.20155">
        <ele>503.797981</ele>
        <time>2020-08-28T10:13:22.070Z</time>
      </trkpt>
      <trkpt lat="67.86697" lon="20.20157">
        <ele>503.984936</ele>
        <time>2020-08-28T10:13:24.332Z</time>
      </trkpt>
      <trkpt lat="67.86663" lon="20.20167">
        <ele>504.756003</ele>
        <time>2020-08-28T10:13:32.966Z</time>
      </trkpt>
      <trkpt lat="67.86635" lon="20.20209">
        <ele>505.471815</ele>
        <time>2020-08-28T10:13:41.581Z</time>
      </trkpt>
      <trkpt lat="67.8663" lon="20.20217">
        <ele>505.584875</ele>
        <time>2020-08-28T10:13:43.279Z</time>
      </trkpt>
      <trkpt lat="67.86629" lon="20.20233">
        <ele>505.722763</ele>
        <time>2020-08-28T10:13:45.144Z</time>
      </trkpt>
      <trkpt lat="67.86629" lon="20.20235">
        <ele>505.73683</ele>
        <time>2020-08-28T10:13:45.314Z</time>
      </trkpt>
      <trkpt lat="67.8663" lon="20.20251">
        <ele>505.876685</ele>
        <time>2020-08-28T10:13:47.036Z</time>
      </trkpt>
      <trkpt lat="67.86631" lon="20.20278">
        <ele>506.101351</ele>
        <time>2020-08-28T10:13:49.685Z</time>
      </trkpt>
      <trkpt lat="67.86631" lon="20.2029">
        <ele>506.200682</ele>
        <time>2020-08-28T10:13:50.840Z</time>
      </trkpt>
      <trkpt lat="67.86633" lon="20.20315">
        <ele>506.416549</ele>
        <time>2020-08-28T10:13:54.038Z</time>
      </trkpt>
      <trkpt lat="67.86645" lon="20.20366">
        <ele>507.142653</ele>
        <time>2020-08-28T10:14:00.061Z</time>
      </trkpt>
      <trkpt lat="67.86646" lon="20.20395">
        <ele>507.507585</ele>
        <time>2020-08-28T10:14:03.450Z</time>
      </trkpt>
      <trkpt lat="67.86644" lon="20.20415">
        <ele>507.764524</ele>
        <time>2020-08-28T10:14:05.766Z</time>
      </trkpt>
      <trkpt lat="67.86636" lon="20.20431">
        <ele>508.106438</ele>
        <time>2020-08-28T10:14:08.614Z</time>
      </trkpt>
      <trkpt lat="67.86633" lon="20.20467">
        <ele>508.560866</ele>
        <time>2020-08-28T10:14:12.301Z</time>
      </trkpt>
      <trkpt lat="67.86642" lon="20.20526">
        <ele>509.343915</ele>
        <time>2020-08-28T10:14:19.464Z</time>
      </trkpt>
      <trkpt lat="67.86607" lon="20.20566">
        <ele>510.613051</ele>
        <time>2020-08-28T10:14:30.799Z</time>
      </trkpt>
      <trkpt lat="67.86464" lon="20.20722">
        <ele>514.995295</ele>
        <time>2020-08-28T10:15:12.888Z</time>
      </trkpt>
      <trkpt lat="67.86456" lon="20.20741">
        <ele>515.280764</ele>
        <time>2020-08-28T10:15:15.794Z</time>
      </trkpt>
      <trkpt lat="67.86459" lon="20.20795">
        <ele>515.81464</ele>
        <time>2020-08-28T10:15:20.365Z</time>
      </trkpt>
      <trkpt lat="67.86465" lon="20.20842">
        <ele>516.303419</ele>
        <time>2020-08-28T10:15:25.224Z</time>
      </trkpt>
      <trkpt lat="67.86409" lon="20.20905">
        <ele>518.032373</ele>
        <time>2020-08-28T10:15:40.215Z</time>
      </trkpt>
      <trkpt lat="67.86398" lon="20.20917">
        <ele>518.366271</ele>
        <time>2020-08-28T10:15:43.181Z</time>
      </trkpt>
      <trkpt lat="67.86377" lon="20.20945">
        <ele>519.09016</ele>
        <time>2020-08-28T10:15:49.545Z</time>
      </trkpt>
      <trkpt lat="67.8637" lon="20.20957">
        <ele>519.333634</ele>
        <time>2020-08-28T10:15:51.698Z</time>
      </trkpt>
      <trkpt lat="67.86363" lon="20.20969">
        <ele>519.590962</ele>
        <time>2020-08-28T10:15:53.933Z</time>
      </trkpt>
      <trkpt lat="67.86319" lon="20.21079">
        <ele>521.389409</ele>
        <time>2020-08-28T10:16:10.501Z</time>
      </trkpt>
      <trkpt lat="67.86313" lon="20.21102">
        <ele>521.710499</ele>
        <time>2020-08-28T10:16:13.496Z</time>
      </trkpt>
      <trkpt lat="67.86308" lon="20.21123">
        <ele>521.990379</ele>
        <time>2020-08-28T10:16:16.900Z</time>
      </trkpt>
      <trkpt lat="67.86291" lon="20.21253">
        <ele>524.066648</ele>
        <time>2020-08-28T10:16:32.441Z</time>
      </trkpt>
      <trkpt lat="67.86298" lon="20.2132">
        <ele>525.230179</ele>
        <time>2020-08-28T10:16:41.155Z</time>
      </trkpt>
      <trkpt lat="67.86327" lon="20.21464">
        <ele>527.959189</ele>
        <time>2020-08-28T10:17:01.387Z</time>
      </trkpt>
      <trkpt lat="67.86331" lon="20.21487">
        <ele>528.392454</ele>
        <time>2020-08-28T10:17:04.836Z</time>
      </trkpt>
      <trkpt lat="67.86334" lon="20.21503">
        <ele>528.691573</ele>
        <time>2020-08-28T10:17:06.931Z</time>
      </trkpt>
      <trkpt lat="67.86329" lon="20.21507">
        <ele>528.936972</ele>
        <time>2020-08-28T10:17:08.803Z</time>
      </trkpt>
      <trkpt lat="67.8628" lon="20.21555">
        <ele>531.122992</ele>
        <time>2020-08-28T10:17:25.528Z</time>
      </trkpt>
      <trkpt lat="67.86275" lon="20.2156">
        <ele>531.296481</ele>
        <time>2020-08-28T10:17:26.997Z</time>
      </trkpt>
      <trkpt lat="67.86272" lon="20.21564">
        <ele>531.442674</ele>
        <time>2020-08-28T10:17:28.324Z</time>
      </trkpt>
      <trkpt lat="67.86234" lon="20.21599">
        <ele>532.902526</ele>
        <time>2020-08-28T10:17:41.164Z</time>
      </trkpt>
      <trkpt lat="67.86228" lon="20.21606">
        <ele>533.142997</ele>
        <time>2020-08-28T10:17:43.451Z</time>
      </trkpt>
      <trkpt lat="67.86223" lon="20.21611">
        <ele>533.310496</ele>
        <time>2020-08-28T10:17:45.364Z</time>
      </trkpt>
      <trkpt lat="67.86159" lon="20.21672">
        <ele>535.798712</ele>
        <time>2020-08-28T10:18:04.072Z</time>
      </trkpt>
      <trkpt lat="67.86156" lon="20.21676">
        <ele>535.934191</ele>
        <time>2020-08-28T10:18:05.599Z</time>
      </trkpt>
      <trkpt lat="67.86146" lon="20.21689">
        <ele>536.315112</ele>
        <time>2020-08-28T10:18:08.140Z</time>
      </trkpt>
      <trkpt lat="67.86135" lon="20.21708">
        <ele>536.816402</ele>
        <time>2020-08-28T10:18:11.454Z</time>
      </trkpt>
      <trkpt lat="67.86129" lon="20.21721">
        <ele>537.031139</ele>
        <time>2020-08-28T10:18:13.599Z</time>
      </trkpt>
      <trkpt lat="67.8608" lon="20.21887">
        <ele>538.371598</ele>
        <time>2020-08-28T10:18:33.885Z</time>
      </trkpt>
      <trkpt lat="67.86029" lon="20.22051">
        <ele>539.718183</ele>
        <time>2020-08-28T10:18:51.548Z</time>
      </trkpt>
      <trkpt lat="67.86024" lon="20.22041">
        <ele>539.831025</ele>
        <time>2020-08-28T10:18:52.834Z</time>
      </trkpt>
      <trkpt lat="67.86023" lon="20.22044">
        <ele>539.850264</ele>
        <time>2020-08-28T10:18:53.054Z</time>
      </trkpt>
      <trkpt lat="67.86022" lon="20.22046">
        <ele>539.871055</ele>
        <time>2020-08-28T10:18:53.289Z</time>
      </trkpt>
      <trkpt lat="67.86017" lon="20.22036">
        <ele>539.984661</ele>
        <time>2020-08-28T10:18:54.576Z</time>
      </trkpt>
      <trkpt lat="67.85973" lon="20.22176">
        <ele>540.303494</ele>
        <time>2020-08-28T10:19:15.948Z</time>
      </trkpt>
      <trkpt lat="67.85945" lon="20.22262">
        <ele>540.4841</ele>
        <time>2020-08-28T10:19:28.948Z</time>
      </trkpt>
      <trkpt lat="67.85939" lon="20.22267">
        <ele>540.511022</ele>
        <time>2020-08-28T10:19:30.900Z</time>
      </trkpt>
      <trkpt lat="67.85936" lon="20.2228">
        <ele>540.536181</ele>
        <time>2020-08-28T10:19:32.782Z</time>
      </trkpt>
      <trkpt lat="67.85932" lon="20.22294">
        <ele>540.563759</ele>
        <time>2020-08-28T10:19:34.368Z</time>
      </trkpt>
      <trkpt lat="67.8592" lon="20.2234">
        <ele>540.655309</ele>
        <time>2020-08-28T10:19:39.541Z</time>
      </trkpt>
      <trkpt lat="67.85896" lon="20.22352">
        <ele>540.758517</ele>
        <time>2020-08-28T10:19:45.589Z</time>
      </trkpt>
      <trkpt lat="67.85894" lon="20.22372">
        <ele>540.782087</ele>
        <time>2020-08-28T10:19:47.415Z</time>
      </trkpt>
      <trkpt lat="67.85892" lon="20.22401">
        <ele>540.749038</ele>
        <time>2020-08-28T10:19:50.186Z</time>
      </trkpt>
      <trkpt lat="67.85894" lon="20.22411">
        <ele>540.736141</ele>
        <time>2020-08-28T10:19:51.264Z</time>
      </trkpt>
      <trkpt lat="67.85894" lon="20.22422">
        <ele>540.723152</ele>
        <time>2020-08-28T10:19:52.369Z</time>
      </trkpt>
      <trkpt lat="67.85894" lon="20.22439">
        <ele>540.703957</ele>
        <time>2020-08-28T10:19:54.024Z</time>
      </trkpt>
      <trkpt lat="67.85878" lon="20.22521">
        <ele>540.601217</ele>
        <time>2020-08-28T10:20:02.390Z</time>
      </trkpt>
      <trkpt lat="67.85867" lon="20.22568">
        <ele>540.53855</ele>
        <time>2020-08-28T10:20:07.300Z</time>
      </trkpt>
      <trkpt lat="67.85856" lon="20.22612">
        <ele>540.479278</ele>
        <time>2020-08-28T10:20:12.033Z</time>
      </trkpt>
      <trkpt lat="67.85831" lon="20.22717">
        <ele>540.339143</ele>
        <time>2020-08-28T10:20:22.602Z</time>
      </trkpt>
      <trkpt lat="67.8582" lon="20.2276">
        <ele>540.280953</ele>
        <time>2020-08-28T10:20:26.801Z</time>
      </trkpt>
      <trkpt lat="67.85818" lon="20.22751">
        <ele>540.269889</ele>
        <time>2020-08-28T10:20:27.403Z</time>
      </trkpt>
      <trkpt lat="67.85815" lon="20.22749">
        <ele>540.261746</ele>
        <time>2020-08-28T10:20:27.837Z</time>
      </trkpt>
      <trkpt lat="67.85813" lon="20.22765">
        <ele>540.197515</ele>
        <time>2020-08-28T10:20:28.822Z</time>
      </trkpt>
      <trkpt lat="67.85708" lon="20.22697">
        <ele>537.292187</ele>
        <time>2020-08-28T10:20:44.463Z</time>
      </trkpt>
      <trkpt lat="67.85655" lon="20.22669">
        <ele>535.832113</ele>
        <time>2020-08-28T10:20:54.046Z</time>
      </trkpt>
      <trkpt lat="67.85634" lon="20.22656">
        <ele>535.417623</ele>
        <time>2020-08-28T10:20:57.748Z</time>
      </trkpt>
      <trkpt lat="67.85621" lon="20.22645">
        <ele>535.417623</ele>
        <time>2020-08-28T10:21:00.042Z</time>
      </trkpt>
      <trkpt lat="67.85612" lon="20.22649">
        <ele>535.417623</ele>
        <time>2020-08-28T10:21:01.570Z</time>
      </trkpt>
      <trkpt lat="67.85585" lon="20.22635">
        <ele>535.417623</ele>
        <time>2020-08-28T10:21:06.630Z</time>
      </trkpt>
      <trkpt lat="67.85582" lon="20.22633">
        <ele>535.417623</ele>
        <time>2020-08-28T10:21:07.040Z</time>
      </trkpt>
      <trkpt lat="67.85564" lon="20.22621">
        <ele>535.417623</ele>
        <time>2020-08-28T10:21:10.313Z</time>
      </trkpt>
      <trkpt lat="67.85549" lon="20.2261">
        <ele>535.417623</ele>
        <time>2020-08-28T10:21:13.194Z</time>
      </trkpt>
      <trkpt lat="67.85525" lon="20.22592">
        <ele>535.417623</ele>
        <time>2020-08-28T10:21:17.701Z</time>
      </trkpt>
      <trkpt lat="67.85521" lon="20.22589">
        <ele>535.417623</ele>
        <time>2020-08-28T10:21:20.631Z</time>
      </trkpt>
      <trkpt lat="67.85515" lon="20.22584">
        <ele>535.417623</ele>
        <time>2020-08-28T10:21:24.801Z</time>
      </trkpt>
      <trkpt lat="67.85518" lon="20.22564">
        <ele>535.417623</ele>
        <time>2020-08-28T10:21:30.349Z</time>
      </trkpt>
    </trkseg>
  </trk>
</gpx>